<?xml version="1.0" encoding="UTF-8" standalone="no" ?>
<gpx xmlns="http://www.topografix.com/GPX/1/1" xmlns:xsi="http://www.w3.org/2001/XMLSchema-instance" xsi:schemaLocation="http://www.topografix.com/GPX/1/1 http://www.topografix.com/GPX/1/1/gpx.xsd" version="1.1" creator="VisuGPX - https://www.visugpx.com">
  <metadata>
    <name>HRP2023-J11</name>
  </metadata>
  <trk>
    <name><![CDATA[HRP2023_J11]]></name>
    <extensions>
      <line xmlns="http://www.topografix.com/GPX/gpx_style/0/2">
        <color>0000FF</color>
        <width>4</width>
      </line>
    </extensions>
    <trkseg>
      <trkpt lat="42.70804" lon="1.45026">
        <ele>1086.4</ele>
        <time>2023-07-24T04:42:31Z</time>
      </trkpt>
      <trkpt lat="42.70809" lon="1.45028">
        <ele>1086</ele>
        <time>2023-07-24T04:43:01Z</time>
      </trkpt>
      <trkpt lat="42.70816" lon="1.45025">
        <ele>1086.5</ele>
        <time>2023-07-24T04:43:31Z</time>
      </trkpt>
      <trkpt lat="42.70828" lon="1.45029">
        <ele>1085.9</ele>
        <time>2023-07-24T04:44:01Z</time>
      </trkpt>
      <trkpt lat="42.70838" lon="1.45031">
        <ele>1085.9</ele>
        <time>2023-07-24T04:44:31Z</time>
      </trkpt>
      <trkpt lat="42.70861" lon="1.45032">
        <ele>1087</ele>
        <time>2023-07-24T04:45:01Z</time>
      </trkpt>
      <trkpt lat="42.70888" lon="1.45028">
        <ele>1089</ele>
        <time>2023-07-24T04:45:31Z</time>
      </trkpt>
      <trkpt lat="42.709" lon="1.45026">
        <ele>1089.1</ele>
        <time>2023-07-24T04:46:01Z</time>
      </trkpt>
      <trkpt lat="42.70937" lon="1.45042">
        <ele>1083.3</ele>
        <time>2023-07-24T04:46:31Z</time>
      </trkpt>
      <trkpt lat="42.70997" lon="1.45072">
        <ele>1076</ele>
        <time>2023-07-24T04:47:01Z</time>
      </trkpt>
      <trkpt lat="42.7102" lon="1.4508">
        <ele>1074.7</ele>
        <time>2023-07-24T04:47:31Z</time>
      </trkpt>
      <trkpt lat="42.71041" lon="1.45087">
        <ele>1073.9</ele>
        <time>2023-07-24T04:48:01Z</time>
      </trkpt>
      <trkpt lat="42.71053" lon="1.45091">
        <ele>1073.5</ele>
        <time>2023-07-24T04:48:31Z</time>
      </trkpt>
      <trkpt lat="42.71055" lon="1.4509">
        <ele>1078.8000488281</ele>
        <time>2023-07-24T04:49:17.000Z</time>
      </trkpt>
      <trkpt lat="42.71063" lon="1.45096">
        <ele>1077.5999755859</ele>
        <time>2023-07-24T04:49:25.000Z</time>
      </trkpt>
      <trkpt lat="42.71064" lon="1.45097">
        <ele>1077.4000244141</ele>
        <time>2023-07-24T04:49:26.000Z</time>
      </trkpt>
      <trkpt lat="42.71071" lon="1.45099">
        <ele>1076.5999755859</ele>
        <time>2023-07-24T04:49:31.000Z</time>
      </trkpt>
      <trkpt lat="42.71072" lon="1.451">
        <ele>1076.5999755859</ele>
        <time>2023-07-24T04:49:32.000Z</time>
      </trkpt>
      <trkpt lat="42.71085" lon="1.45107">
        <ele>1076</ele>
        <time>2023-07-24T04:49:40.000Z</time>
      </trkpt>
      <trkpt lat="42.71091" lon="1.4511">
        <ele>1075.5999755859</ele>
        <time>2023-07-24T04:49:45.000Z</time>
      </trkpt>
      <trkpt lat="42.71099" lon="1.45113">
        <ele>1075</ele>
        <time>2023-07-24T04:49:50.000Z</time>
      </trkpt>
      <trkpt lat="42.71111" lon="1.45115">
        <ele>1074.4000244141</ele>
        <time>2023-07-24T04:49:58.000Z</time>
      </trkpt>
      <trkpt lat="42.71112" lon="1.45115">
        <ele>1074.4000244141</ele>
        <time>2023-07-24T04:49:59.000Z</time>
      </trkpt>
      <trkpt lat="42.71124" lon="1.45116">
        <ele>1073.5999755859</ele>
        <time>2023-07-24T04:50:08.000Z</time>
      </trkpt>
      <trkpt lat="42.71124" lon="1.45116">
        <ele>1073.4000244141</ele>
        <time>2023-07-24T04:50:09.000Z</time>
      </trkpt>
      <trkpt lat="42.71144" lon="1.4511">
        <ele>1072.8000488281</ele>
        <time>2023-07-24T04:50:21.000Z</time>
      </trkpt>
      <trkpt lat="42.71149" lon="1.45106">
        <ele>1072.5999755859</ele>
        <time>2023-07-24T04:50:25.000Z</time>
      </trkpt>
      <trkpt lat="42.71153" lon="1.45103">
        <ele>1072.1999511719</ele>
        <time>2023-07-24T04:50:27.000Z</time>
      </trkpt>
      <trkpt lat="42.7116" lon="1.451">
        <ele>1071.8000488281</ele>
        <time>2023-07-24T04:50:32.000Z</time>
      </trkpt>
      <trkpt lat="42.71166" lon="1.45096">
        <ele>1071.1999511719</ele>
        <time>2023-07-24T04:50:37.000Z</time>
      </trkpt>
      <trkpt lat="42.71167" lon="1.45095">
        <ele>1071.1999511719</ele>
        <time>2023-07-24T04:50:38.000Z</time>
      </trkpt>
      <trkpt lat="42.71179" lon="1.45088">
        <ele>1070.4000244141</ele>
        <time>2023-07-24T04:50:47.000Z</time>
      </trkpt>
      <trkpt lat="42.71182" lon="1.45086">
        <ele>1070.1999511719</ele>
        <time>2023-07-24T04:50:49.000Z</time>
      </trkpt>
      <trkpt lat="42.71191" lon="1.4508">
        <ele>1069.1999511719</ele>
        <time>2023-07-24T04:50:57.000Z</time>
      </trkpt>
      <trkpt lat="42.71195" lon="1.45076">
        <ele>1068.8000488281</ele>
        <time>2023-07-24T04:51:00.000Z</time>
      </trkpt>
      <trkpt lat="42.71203" lon="1.45068">
        <ele>1068</ele>
        <time>2023-07-24T04:51:06.000Z</time>
      </trkpt>
      <trkpt lat="42.71208" lon="1.45064">
        <ele>1067</ele>
        <time>2023-07-24T04:51:11.000Z</time>
      </trkpt>
      <trkpt lat="42.7121" lon="1.45063">
        <ele>1066.8000488281</ele>
        <time>2023-07-24T04:51:12.000Z</time>
      </trkpt>
      <trkpt lat="42.71217" lon="1.45056">
        <ele>1066.1999511719</ele>
        <time>2023-07-24T04:51:18.000Z</time>
      </trkpt>
      <trkpt lat="42.71219" lon="1.45053">
        <ele>1065.8000488281</ele>
        <time>2023-07-24T04:51:20.000Z</time>
      </trkpt>
      <trkpt lat="42.71227" lon="1.45048">
        <ele>1065</ele>
        <time>2023-07-24T04:51:25.000Z</time>
      </trkpt>
      <trkpt lat="42.71229" lon="1.45046">
        <ele>1064.8000488281</ele>
        <time>2023-07-24T04:51:27.000Z</time>
      </trkpt>
      <trkpt lat="42.71234" lon="1.45043">
        <ele>1064</ele>
        <time>2023-07-24T04:51:32.000Z</time>
      </trkpt>
      <trkpt lat="42.71238" lon="1.4504">
        <ele>1063.8000488281</ele>
        <time>2023-07-24T04:51:35.000Z</time>
      </trkpt>
      <trkpt lat="42.71246" lon="1.45037">
        <ele>1063.4000244141</ele>
        <time>2023-07-24T04:51:39.000Z</time>
      </trkpt>
      <trkpt lat="42.71252" lon="1.45034">
        <ele>1062.8000488281</ele>
        <time>2023-07-24T04:51:43.000Z</time>
      </trkpt>
      <trkpt lat="42.71256" lon="1.45033">
        <ele>1062.4000244141</ele>
        <time>2023-07-24T04:51:46.000Z</time>
      </trkpt>
      <trkpt lat="42.71263" lon="1.45027">
        <ele>1061.5999755859</ele>
        <time>2023-07-24T04:51:51.000Z</time>
      </trkpt>
      <trkpt lat="42.71271" lon="1.45022">
        <ele>1061</ele>
        <time>2023-07-24T04:51:56.000Z</time>
      </trkpt>
      <trkpt lat="42.71277" lon="1.4502">
        <ele>1060.4000244141</ele>
        <time>2023-07-24T04:51:59.000Z</time>
      </trkpt>
      <trkpt lat="42.71289" lon="1.45011">
        <ele>1059.8000488281</ele>
        <time>2023-07-24T04:52:07.000Z</time>
      </trkpt>
      <trkpt lat="42.71296" lon="1.45004">
        <ele>1059.4000244141</ele>
        <time>2023-07-24T04:52:14.000Z</time>
      </trkpt>
      <trkpt lat="42.71297" lon="1.45005">
        <ele>1059.1999511719</ele>
        <time>2023-07-24T04:52:17.000Z</time>
      </trkpt>
      <trkpt lat="42.71298" lon="1.45">
        <ele>1059</ele>
        <time>2023-07-24T04:52:21.000Z</time>
      </trkpt>
      <trkpt lat="42.71301" lon="1.44991">
        <ele>1058.8000488281</ele>
        <time>2023-07-24T04:52:24.000Z</time>
      </trkpt>
      <trkpt lat="42.71304" lon="1.44987">
        <ele>1058.8000488281</ele>
        <time>2023-07-24T04:52:27.000Z</time>
      </trkpt>
      <trkpt lat="42.71308" lon="1.44981">
        <ele>1058.8000488281</ele>
        <time>2023-07-24T04:52:30.000Z</time>
      </trkpt>
      <trkpt lat="42.7132" lon="1.4497">
        <ele>1059</ele>
        <time>2023-07-24T04:52:37.000Z</time>
      </trkpt>
      <trkpt lat="42.71329" lon="1.44959">
        <ele>1059.5999755859</ele>
        <time>2023-07-24T04:52:45.000Z</time>
      </trkpt>
      <trkpt lat="42.71339" lon="1.44948">
        <ele>1059.5999755859</ele>
        <time>2023-07-24T04:52:56.000Z</time>
      </trkpt>
      <trkpt lat="42.71345" lon="1.44942">
        <ele>1059.8000488281</ele>
        <time>2023-07-24T04:53:02.000Z</time>
      </trkpt>
      <trkpt lat="42.71355" lon="1.44948">
        <ele>1059.4000244141</ele>
        <time>2023-07-24T04:53:06.000Z</time>
      </trkpt>
      <trkpt lat="42.71357" lon="1.44949">
        <ele>1059.4000244141</ele>
        <time>2023-07-24T04:53:07.000Z</time>
      </trkpt>
      <trkpt lat="42.7137" lon="1.44948">
        <ele>1059.8000488281</ele>
        <time>2023-07-24T04:53:13.000Z</time>
      </trkpt>
      <trkpt lat="42.71384" lon="1.44944">
        <ele>1059</ele>
        <time>2023-07-24T04:53:21.000Z</time>
      </trkpt>
      <trkpt lat="42.71391" lon="1.44938">
        <ele>1058.1999511719</ele>
        <time>2023-07-24T04:53:26.000Z</time>
      </trkpt>
      <trkpt lat="42.71399" lon="1.4493">
        <ele>1057.1999511719</ele>
        <time>2023-07-24T04:53:32.000Z</time>
      </trkpt>
      <trkpt lat="42.71402" lon="1.44924">
        <ele>1056</ele>
        <time>2023-07-24T04:53:37.000Z</time>
      </trkpt>
      <trkpt lat="42.71405" lon="1.44923">
        <ele>1055.4000244141</ele>
        <time>2023-07-24T04:53:40.000Z</time>
      </trkpt>
      <trkpt lat="42.71405" lon="1.44923">
        <ele>1054.8000488281</ele>
        <time>2023-07-24T04:53:42.000Z</time>
      </trkpt>
      <trkpt lat="42.71407" lon="1.44921">
        <ele>1054.1999511719</ele>
        <time>2023-07-24T04:53:47.000Z</time>
      </trkpt>
      <trkpt lat="42.71408" lon="1.44918">
        <ele>1054</ele>
        <time>2023-07-24T04:53:54.000Z</time>
      </trkpt>
      <trkpt lat="42.7141" lon="1.44911">
        <ele>1053.8000488281</ele>
        <time>2023-07-24T04:53:57.000Z</time>
      </trkpt>
      <trkpt lat="42.71416" lon="1.449">
        <ele>1053.5999755859</ele>
        <time>2023-07-24T04:54:02.000Z</time>
      </trkpt>
      <trkpt lat="42.71427" lon="1.44892">
        <ele>1052.5999755859</ele>
        <time>2023-07-24T04:54:09.000Z</time>
      </trkpt>
      <trkpt lat="42.71428" lon="1.44891">
        <ele>1052.5999755859</ele>
        <time>2023-07-24T04:54:10.000Z</time>
      </trkpt>
      <trkpt lat="42.7144" lon="1.44879">
        <ele>1052.4000244141</ele>
        <time>2023-07-24T04:54:19.000Z</time>
      </trkpt>
      <trkpt lat="42.71447" lon="1.4487">
        <ele>1052.8000488281</ele>
        <time>2023-07-24T04:54:27.000Z</time>
      </trkpt>
      <trkpt lat="42.71458" lon="1.44856">
        <ele>1053.5999755859</ele>
        <time>2023-07-24T04:54:36.000Z</time>
      </trkpt>
      <trkpt lat="42.71461" lon="1.44853">
        <ele>1053.8000488281</ele>
        <time>2023-07-24T04:54:39.000Z</time>
      </trkpt>
      <trkpt lat="42.71463" lon="1.44851">
        <ele>1054.1999511719</ele>
        <time>2023-07-24T04:54:42.000Z</time>
      </trkpt>
      <trkpt lat="42.71469" lon="1.44847">
        <ele>1054.8000488281</ele>
        <time>2023-07-24T04:54:49.000Z</time>
      </trkpt>
      <trkpt lat="42.71469" lon="1.44848">
        <ele>1055</ele>
        <time>2023-07-24T04:54:50.000Z</time>
      </trkpt>
      <trkpt lat="42.71478" lon="1.44845">
        <ele>1056</ele>
        <time>2023-07-24T04:54:58.000Z</time>
      </trkpt>
      <trkpt lat="42.71479" lon="1.44844">
        <ele>1056</ele>
        <time>2023-07-24T04:54:59.000Z</time>
      </trkpt>
      <trkpt lat="42.71487" lon="1.44842">
        <ele>1056.8000488281</ele>
        <time>2023-07-24T04:55:06.000Z</time>
      </trkpt>
      <trkpt lat="42.71488" lon="1.44842">
        <ele>1057</ele>
        <time>2023-07-24T04:55:08.000Z</time>
      </trkpt>
      <trkpt lat="42.71491" lon="1.44842">
        <ele>1057.1999511719</ele>
        <time>2023-07-24T04:55:12.000Z</time>
      </trkpt>
      <trkpt lat="42.71493" lon="1.4484">
        <ele>1057.4000244141</ele>
        <time>2023-07-24T04:55:18.000Z</time>
      </trkpt>
      <trkpt lat="42.71505" lon="1.44838">
        <ele>1058.8000488281</ele>
        <time>2023-07-24T04:55:28.000Z</time>
      </trkpt>
      <trkpt lat="42.71509" lon="1.44834">
        <ele>1059.4000244141</ele>
        <time>2023-07-24T04:55:32.000Z</time>
      </trkpt>
      <trkpt lat="42.71512" lon="1.44828">
        <ele>1059.8000488281</ele>
        <time>2023-07-24T04:55:35.000Z</time>
      </trkpt>
      <trkpt lat="42.71518" lon="1.44822">
        <ele>1060.1999511719</ele>
        <time>2023-07-24T04:55:40.000Z</time>
      </trkpt>
      <trkpt lat="42.71519" lon="1.44822">
        <ele>1060.4000244141</ele>
        <time>2023-07-24T04:55:41.000Z</time>
      </trkpt>
      <trkpt lat="42.71523" lon="1.44817">
        <ele>1061</ele>
        <time>2023-07-24T04:55:46.000Z</time>
      </trkpt>
      <trkpt lat="42.71526" lon="1.44816">
        <ele>1061.4000244141</ele>
        <time>2023-07-24T04:55:49.000Z</time>
      </trkpt>
      <trkpt lat="42.7153" lon="1.4481">
        <ele>1062</ele>
        <time>2023-07-24T04:55:53.000Z</time>
      </trkpt>
      <trkpt lat="42.71534" lon="1.44805">
        <ele>1062.5999755859</ele>
        <time>2023-07-24T04:55:57.000Z</time>
      </trkpt>
      <trkpt lat="42.71535" lon="1.44803">
        <ele>1062.5999755859</ele>
        <time>2023-07-24T04:55:58.000Z</time>
      </trkpt>
      <trkpt lat="42.71543" lon="1.44794">
        <ele>1063.4000244141</ele>
        <time>2023-07-24T04:56:04.000Z</time>
      </trkpt>
      <trkpt lat="42.71545" lon="1.44794">
        <ele>1063.5999755859</ele>
        <time>2023-07-24T04:56:06.000Z</time>
      </trkpt>
      <trkpt lat="42.71549" lon="1.44792">
        <ele>1064.4000244141</ele>
        <time>2023-07-24T04:56:12.000Z</time>
      </trkpt>
      <trkpt lat="42.7155" lon="1.4479">
        <ele>1064.5999755859</ele>
        <time>2023-07-24T04:56:14.000Z</time>
      </trkpt>
      <trkpt lat="42.71555" lon="1.4478">
        <ele>1065.4000244141</ele>
        <time>2023-07-24T04:56:20.000Z</time>
      </trkpt>
      <trkpt lat="42.71556" lon="1.44779">
        <ele>1065.5999755859</ele>
        <time>2023-07-24T04:56:21.000Z</time>
      </trkpt>
      <trkpt lat="42.71557" lon="1.44777">
        <ele>1065.8000488281</ele>
        <time>2023-07-24T04:56:25.000Z</time>
      </trkpt>
      <trkpt lat="42.71556" lon="1.44777">
        <ele>1066</ele>
        <time>2023-07-24T04:56:27.000Z</time>
      </trkpt>
      <trkpt lat="42.71555" lon="1.44777">
        <ele>1065.8000488281</ele>
        <time>2023-07-24T04:56:31.000Z</time>
      </trkpt>
      <trkpt lat="42.71551" lon="1.44775">
        <ele>1065.5999755859</ele>
        <time>2023-07-24T04:56:45.000Z</time>
      </trkpt>
      <trkpt lat="42.71554" lon="1.44781">
        <ele>1065.5999755859</ele>
        <time>2023-07-24T04:56:52.000Z</time>
      </trkpt>
      <trkpt lat="42.71556" lon="1.44782">
        <ele>1065.1999511719</ele>
        <time>2023-07-24T04:56:58.000Z</time>
      </trkpt>
      <trkpt lat="42.71555" lon="1.44783">
        <ele>1065</ele>
        <time>2023-07-24T04:57:08.000Z</time>
      </trkpt>
      <trkpt lat="42.71554" lon="1.44779">
        <ele>1064.8000488281</ele>
        <time>2023-07-24T04:57:23.000Z</time>
      </trkpt>
      <trkpt lat="42.71555" lon="1.4478">
        <ele>1064.5999755859</ele>
        <time>2023-07-24T04:57:29.000Z</time>
      </trkpt>
      <trkpt lat="42.71556" lon="1.4478">
        <ele>1064.5999755859</ele>
        <time>2023-07-24T04:57:31.000Z</time>
      </trkpt>
      <trkpt lat="42.71559" lon="1.44781">
        <ele>1064.1999511719</ele>
        <time>2023-07-24T04:57:43.000Z</time>
      </trkpt>
      <trkpt lat="42.71561" lon="1.44786">
        <ele>1064</ele>
        <time>2023-07-24T04:57:54.000Z</time>
      </trkpt>
      <trkpt lat="42.71559" lon="1.44787">
        <ele>1063.8000488281</ele>
        <time>2023-07-24T04:58:03.000Z</time>
      </trkpt>
      <trkpt lat="42.7156" lon="1.44786">
        <ele>1063.5999755859</ele>
        <time>2023-07-24T04:58:14.000Z</time>
      </trkpt>
      <trkpt lat="42.71561" lon="1.44786">
        <ele>1063.5999755859</ele>
        <time>2023-07-24T04:58:16.000Z</time>
      </trkpt>
      <trkpt lat="42.71562" lon="1.44786">
        <ele>1063.4000244141</ele>
        <time>2023-07-24T04:58:22.000Z</time>
      </trkpt>
      <trkpt lat="42.71563" lon="1.44785">
        <ele>1063.1999511719</ele>
        <time>2023-07-24T04:58:28.000Z</time>
      </trkpt>
      <trkpt lat="42.71556" lon="1.44786">
        <ele>1063.4000244141</ele>
        <time>2023-07-24T04:59:10.000Z</time>
      </trkpt>
      <trkpt lat="42.71561" lon="1.44783">
        <ele>1063.1999511719</ele>
        <time>2023-07-24T04:59:25.000Z</time>
      </trkpt>
      <trkpt lat="42.71568" lon="1.44781">
        <ele>1063.4000244141</ele>
        <time>2023-07-24T04:59:35.000Z</time>
      </trkpt>
      <trkpt lat="42.71572" lon="1.4478">
        <ele>1063.1999511719</ele>
        <time>2023-07-24T04:59:43.000Z</time>
      </trkpt>
      <trkpt lat="42.71566" lon="1.44782">
        <ele>1063</ele>
        <time>2023-07-24T04:59:53.000Z</time>
      </trkpt>
      <trkpt lat="42.71562" lon="1.44782">
        <ele>1062.8000488281</ele>
        <time>2023-07-24T05:00:00.000Z</time>
      </trkpt>
      <trkpt lat="42.71559" lon="1.44788">
        <ele>1062.8000488281</ele>
        <time>2023-07-24T05:00:07.000Z</time>
      </trkpt>
      <trkpt lat="42.71557" lon="1.44786">
        <ele>1062.8000488281</ele>
        <time>2023-07-24T05:00:15.000Z</time>
      </trkpt>
      <trkpt lat="42.71551" lon="1.44783">
        <ele>1062.5999755859</ele>
        <time>2023-07-24T05:00:22.000Z</time>
      </trkpt>
      <trkpt lat="42.71557" lon="1.44782">
        <ele>1062.5999755859</ele>
        <time>2023-07-24T05:00:35.000Z</time>
      </trkpt>
      <trkpt lat="42.71557" lon="1.44778">
        <ele>1062.5999755859</ele>
        <time>2023-07-24T05:00:40.000Z</time>
      </trkpt>
      <trkpt lat="42.71558" lon="1.44767">
        <ele>1063.4000244141</ele>
        <time>2023-07-24T05:00:48.000Z</time>
      </trkpt>
      <trkpt lat="42.71558" lon="1.44764">
        <ele>1063.5999755859</ele>
        <time>2023-07-24T05:00:50.000Z</time>
      </trkpt>
      <trkpt lat="42.71561" lon="1.44756">
        <ele>1064.1999511719</ele>
        <time>2023-07-24T05:00:55.000Z</time>
      </trkpt>
      <trkpt lat="42.71563" lon="1.44752">
        <ele>1064.5999755859</ele>
        <time>2023-07-24T05:00:58.000Z</time>
      </trkpt>
      <trkpt lat="42.71566" lon="1.44747">
        <ele>1065</ele>
        <time>2023-07-24T05:01:01.000Z</time>
      </trkpt>
      <trkpt lat="42.71568" lon="1.44739">
        <ele>1065.5999755859</ele>
        <time>2023-07-24T05:01:06.000Z</time>
      </trkpt>
      <trkpt lat="42.71568" lon="1.44737">
        <ele>1065.8000488281</ele>
        <time>2023-07-24T05:01:07.000Z</time>
      </trkpt>
      <trkpt lat="42.71573" lon="1.44727">
        <ele>1066.5999755859</ele>
        <time>2023-07-24T05:01:14.000Z</time>
      </trkpt>
      <trkpt lat="42.71573" lon="1.44725">
        <ele>1066.8000488281</ele>
        <time>2023-07-24T05:01:16.000Z</time>
      </trkpt>
      <trkpt lat="42.71576" lon="1.44715">
        <ele>1067.4000244141</ele>
        <time>2023-07-24T05:01:21.000Z</time>
      </trkpt>
      <trkpt lat="42.71577" lon="1.44711">
        <ele>1068</ele>
        <time>2023-07-24T05:01:24.000Z</time>
      </trkpt>
      <trkpt lat="42.71579" lon="1.44708">
        <ele>1068.1999511719</ele>
        <time>2023-07-24T05:01:27.000Z</time>
      </trkpt>
      <trkpt lat="42.71583" lon="1.44699">
        <ele>1069</ele>
        <time>2023-07-24T05:01:32.000Z</time>
      </trkpt>
      <trkpt lat="42.71583" lon="1.44696">
        <ele>1069.1999511719</ele>
        <time>2023-07-24T05:01:34.000Z</time>
      </trkpt>
      <trkpt lat="42.71586" lon="1.44687">
        <ele>1070.1999511719</ele>
        <time>2023-07-24T05:01:40.000Z</time>
      </trkpt>
      <trkpt lat="42.71587" lon="1.44684">
        <ele>1070.4000244141</ele>
        <time>2023-07-24T05:01:41.000Z</time>
      </trkpt>
      <trkpt lat="42.71591" lon="1.44678">
        <ele>1071.1999511719</ele>
        <time>2023-07-24T05:01:46.000Z</time>
      </trkpt>
      <trkpt lat="42.71592" lon="1.44676">
        <ele>1071.1999511719</ele>
        <time>2023-07-24T05:01:47.000Z</time>
      </trkpt>
      <trkpt lat="42.71597" lon="1.44663">
        <ele>1072.1999511719</ele>
        <time>2023-07-24T05:01:54.000Z</time>
      </trkpt>
      <trkpt lat="42.71599" lon="1.44657">
        <ele>1072.8000488281</ele>
        <time>2023-07-24T05:01:59.000Z</time>
      </trkpt>
      <trkpt lat="42.71601" lon="1.4465">
        <ele>1073.4000244141</ele>
        <time>2023-07-24T05:02:03.000Z</time>
      </trkpt>
      <trkpt lat="42.71602" lon="1.44646">
        <ele>1073.5999755859</ele>
        <time>2023-07-24T05:02:06.000Z</time>
      </trkpt>
      <trkpt lat="42.71604" lon="1.44637">
        <ele>1074.4000244141</ele>
        <time>2023-07-24T05:02:11.000Z</time>
      </trkpt>
      <trkpt lat="42.71604" lon="1.44635">
        <ele>1074.5999755859</ele>
        <time>2023-07-24T05:02:12.000Z</time>
      </trkpt>
      <trkpt lat="42.71607" lon="1.44628">
        <ele>1075.4000244141</ele>
        <time>2023-07-24T05:02:18.000Z</time>
      </trkpt>
      <trkpt lat="42.71607" lon="1.44627">
        <ele>1075.5999755859</ele>
        <time>2023-07-24T05:02:19.000Z</time>
      </trkpt>
      <trkpt lat="42.7161" lon="1.44615">
        <ele>1076.4000244141</ele>
        <time>2023-07-24T05:02:27.000Z</time>
      </trkpt>
      <trkpt lat="42.71612" lon="1.44608">
        <ele>1077</ele>
        <time>2023-07-24T05:02:30.000Z</time>
      </trkpt>
      <trkpt lat="42.71613" lon="1.44601">
        <ele>1077.5999755859</ele>
        <time>2023-07-24T05:02:34.000Z</time>
      </trkpt>
      <trkpt lat="42.71613" lon="1.44598">
        <ele>1077.8000488281</ele>
        <time>2023-07-24T05:02:36.000Z</time>
      </trkpt>
      <trkpt lat="42.71615" lon="1.4459">
        <ele>1078.5999755859</ele>
        <time>2023-07-24T05:02:44.000Z</time>
      </trkpt>
      <trkpt lat="42.71615" lon="1.44575">
        <ele>1079.1999511719</ele>
        <time>2023-07-24T05:02:52.000Z</time>
      </trkpt>
      <trkpt lat="42.71615" lon="1.44563">
        <ele>1079.5999755859</ele>
        <time>2023-07-24T05:02:58.000Z</time>
      </trkpt>
      <trkpt lat="42.71616" lon="1.44561">
        <ele>1079.5999755859</ele>
        <time>2023-07-24T05:02:59.000Z</time>
      </trkpt>
      <trkpt lat="42.71619" lon="1.4455">
        <ele>1080.1999511719</ele>
        <time>2023-07-24T05:03:06.000Z</time>
      </trkpt>
      <trkpt lat="42.71619" lon="1.44544">
        <ele>1080.5999755859</ele>
        <time>2023-07-24T05:03:11.000Z</time>
      </trkpt>
      <trkpt lat="42.71619" lon="1.44542">
        <ele>1080.8000488281</ele>
        <time>2023-07-24T05:03:13.000Z</time>
      </trkpt>
      <trkpt lat="42.71619" lon="1.44531">
        <ele>1081</ele>
        <time>2023-07-24T05:03:19.000Z</time>
      </trkpt>
      <trkpt lat="42.7162" lon="1.44528">
        <ele>1081.4000244141</ele>
        <time>2023-07-24T05:03:24.000Z</time>
      </trkpt>
      <trkpt lat="42.7162" lon="1.44529">
        <ele>1081.4000244141</ele>
        <time>2023-07-24T05:03:25.000Z</time>
      </trkpt>
      <trkpt lat="42.71621" lon="1.44529">
        <ele>1081.5999755859</ele>
        <time>2023-07-24T05:03:35.000Z</time>
      </trkpt>
      <trkpt lat="42.71621" lon="1.44528">
        <ele>1081.5999755859</ele>
        <time>2023-07-24T05:03:36.000Z</time>
      </trkpt>
      <trkpt lat="42.71625" lon="1.44526">
        <ele>1081.8000488281</ele>
        <time>2023-07-24T05:03:46.000Z</time>
      </trkpt>
      <trkpt lat="42.71628" lon="1.44521">
        <ele>1082</ele>
        <time>2023-07-24T05:03:52.000Z</time>
      </trkpt>
      <trkpt lat="42.71634" lon="1.44515">
        <ele>1082.5999755859</ele>
        <time>2023-07-24T05:03:59.000Z</time>
      </trkpt>
      <trkpt lat="42.71635" lon="1.44514">
        <ele>1082.8000488281</ele>
        <time>2023-07-24T05:04:00.000Z</time>
      </trkpt>
      <trkpt lat="42.71635" lon="1.44508">
        <ele>1083.1999511719</ele>
        <time>2023-07-24T05:04:04.000Z</time>
      </trkpt>
      <trkpt lat="42.71635" lon="1.44505">
        <ele>1083.8000488281</ele>
        <time>2023-07-24T05:04:07.000Z</time>
      </trkpt>
      <trkpt lat="42.71636" lon="1.44498">
        <ele>1084.4000244141</ele>
        <time>2023-07-24T05:04:11.000Z</time>
      </trkpt>
      <trkpt lat="42.71638" lon="1.4449">
        <ele>1084.8000488281</ele>
        <time>2023-07-24T05:04:15.000Z</time>
      </trkpt>
      <trkpt lat="42.7164" lon="1.44483">
        <ele>1085.4000244141</ele>
        <time>2023-07-24T05:04:18.000Z</time>
      </trkpt>
      <trkpt lat="42.7164" lon="1.44477">
        <ele>1086</ele>
        <time>2023-07-24T05:04:21.000Z</time>
      </trkpt>
      <trkpt lat="42.71641" lon="1.44475">
        <ele>1086.1999511719</ele>
        <time>2023-07-24T05:04:23.000Z</time>
      </trkpt>
      <trkpt lat="42.7164" lon="1.44476">
        <ele>1086.4000244141</ele>
        <time>2023-07-24T05:04:25.000Z</time>
      </trkpt>
      <trkpt lat="42.71639" lon="1.44475">
        <ele>1086.5999755859</ele>
        <time>2023-07-24T05:04:28.000Z</time>
      </trkpt>
      <trkpt lat="42.71639" lon="1.44475">
        <ele>1086.5999755859</ele>
        <time>2023-07-24T05:04:29.000Z</time>
      </trkpt>
      <trkpt lat="42.71638" lon="1.44471">
        <ele>1086.4000244141</ele>
        <time>2023-07-24T05:04:32.000Z</time>
      </trkpt>
      <trkpt lat="42.71638" lon="1.44471">
        <ele>1086.4000244141</ele>
        <time>2023-07-24T05:04:37.000Z</time>
      </trkpt>
      <trkpt lat="42.71638" lon="1.44469">
        <ele>1086.5999755859</ele>
        <time>2023-07-24T05:04:43.000Z</time>
      </trkpt>
      <trkpt lat="42.71641" lon="1.44467">
        <ele>1086.8000488281</ele>
        <time>2023-07-24T05:04:52.000Z</time>
      </trkpt>
      <trkpt lat="42.71644" lon="1.44454">
        <ele>1087</ele>
        <time>2023-07-24T05:04:58.000Z</time>
      </trkpt>
      <trkpt lat="42.71644" lon="1.44444">
        <ele>1087.4000244141</ele>
        <time>2023-07-24T05:05:04.000Z</time>
      </trkpt>
      <trkpt lat="42.71644" lon="1.44433">
        <ele>1087.8000488281</ele>
        <time>2023-07-24T05:05:12.000Z</time>
      </trkpt>
      <trkpt lat="42.71644" lon="1.4443">
        <ele>1087.8000488281</ele>
        <time>2023-07-24T05:05:23.000Z</time>
      </trkpt>
      <trkpt lat="42.71644" lon="1.44425">
        <ele>1087.8000488281</ele>
        <time>2023-07-24T05:05:29.000Z</time>
      </trkpt>
      <trkpt lat="42.71645" lon="1.44412">
        <ele>1087.8000488281</ele>
        <time>2023-07-24T05:05:36.000Z</time>
      </trkpt>
      <trkpt lat="42.71645" lon="1.44411">
        <ele>1088</ele>
        <time>2023-07-24T05:05:37.000Z</time>
      </trkpt>
      <trkpt lat="42.71644" lon="1.444">
        <ele>1088.4000244141</ele>
        <time>2023-07-24T05:05:44.000Z</time>
      </trkpt>
      <trkpt lat="42.71643" lon="1.44387">
        <ele>1088.5999755859</ele>
        <time>2023-07-24T05:05:52.000Z</time>
      </trkpt>
      <trkpt lat="42.71644" lon="1.44377">
        <ele>1089.1999511719</ele>
        <time>2023-07-24T05:05:57.000Z</time>
      </trkpt>
      <trkpt lat="42.71645" lon="1.44374">
        <ele>1089.1999511719</ele>
        <time>2023-07-24T05:05:59.000Z</time>
      </trkpt>
      <trkpt lat="42.71646" lon="1.44368">
        <ele>1089.8000488281</ele>
        <time>2023-07-24T05:06:07.000Z</time>
      </trkpt>
      <trkpt lat="42.71647" lon="1.44355">
        <ele>1090.1999511719</ele>
        <time>2023-07-24T05:06:14.000Z</time>
      </trkpt>
      <trkpt lat="42.71649" lon="1.44341">
        <ele>1090.8000488281</ele>
        <time>2023-07-24T05:06:21.000Z</time>
      </trkpt>
      <trkpt lat="42.7165" lon="1.44336">
        <ele>1091.1999511719</ele>
        <time>2023-07-24T05:06:25.000Z</time>
      </trkpt>
      <trkpt lat="42.71654" lon="1.44324">
        <ele>1092</ele>
        <time>2023-07-24T05:06:31.000Z</time>
      </trkpt>
      <trkpt lat="42.71655" lon="1.44319">
        <ele>1092.4000244141</ele>
        <time>2023-07-24T05:06:33.000Z</time>
      </trkpt>
      <trkpt lat="42.71657" lon="1.4431">
        <ele>1093.1999511719</ele>
        <time>2023-07-24T05:06:38.000Z</time>
      </trkpt>
      <trkpt lat="42.71657" lon="1.44304">
        <ele>1093.4000244141</ele>
        <time>2023-07-24T05:06:41.000Z</time>
      </trkpt>
      <trkpt lat="42.71657" lon="1.44297">
        <ele>1093.8000488281</ele>
        <time>2023-07-24T05:06:45.000Z</time>
      </trkpt>
      <trkpt lat="42.7166" lon="1.44279">
        <ele>1094.4000244141</ele>
        <time>2023-07-24T05:06:54.000Z</time>
      </trkpt>
      <trkpt lat="42.7166" lon="1.44277">
        <ele>1094.5999755859</ele>
        <time>2023-07-24T05:06:55.000Z</time>
      </trkpt>
      <trkpt lat="42.71662" lon="1.44261">
        <ele>1095.1999511719</ele>
        <time>2023-07-24T05:07:03.000Z</time>
      </trkpt>
      <trkpt lat="42.71666" lon="1.44249">
        <ele>1095.5999755859</ele>
        <time>2023-07-24T05:07:09.000Z</time>
      </trkpt>
      <trkpt lat="42.71666" lon="1.44248">
        <ele>1095.5999755859</ele>
        <time>2023-07-24T05:07:10.000Z</time>
      </trkpt>
      <trkpt lat="42.71672" lon="1.44232">
        <ele>1096</ele>
        <time>2023-07-24T05:07:19.000Z</time>
      </trkpt>
      <trkpt lat="42.71675" lon="1.4422">
        <ele>1096.5999755859</ele>
        <time>2023-07-24T05:07:25.000Z</time>
      </trkpt>
      <trkpt lat="42.71674" lon="1.44215">
        <ele>1096.8000488281</ele>
        <time>2023-07-24T05:07:28.000Z</time>
      </trkpt>
      <trkpt lat="42.71675" lon="1.44201">
        <ele>1097</ele>
        <time>2023-07-24T05:07:37.000Z</time>
      </trkpt>
      <trkpt lat="42.71678" lon="1.44187">
        <ele>1097.4000244141</ele>
        <time>2023-07-24T05:07:43.000Z</time>
      </trkpt>
      <trkpt lat="42.71679" lon="1.44183">
        <ele>1097.5999755859</ele>
        <time>2023-07-24T05:07:45.000Z</time>
      </trkpt>
      <trkpt lat="42.71681" lon="1.4417">
        <ele>1098.1999511719</ele>
        <time>2023-07-24T05:07:53.000Z</time>
      </trkpt>
      <trkpt lat="42.7168" lon="1.44161">
        <ele>1098.8000488281</ele>
        <time>2023-07-24T05:07:57.000Z</time>
      </trkpt>
      <trkpt lat="42.7168" lon="1.44157">
        <ele>1099</ele>
        <time>2023-07-24T05:07:59.000Z</time>
      </trkpt>
      <trkpt lat="42.71683" lon="1.44139">
        <ele>1099.5999755859</ele>
        <time>2023-07-24T05:08:07.000Z</time>
      </trkpt>
      <trkpt lat="42.71685" lon="1.44121">
        <ele>1099.8000488281</ele>
        <time>2023-07-24T05:08:15.000Z</time>
      </trkpt>
      <trkpt lat="42.71684" lon="1.4412">
        <ele>1099.8000488281</ele>
        <time>2023-07-24T05:08:16.000Z</time>
      </trkpt>
      <trkpt lat="42.71681" lon="1.44105">
        <ele>1100</ele>
        <time>2023-07-24T05:08:25.000Z</time>
      </trkpt>
      <trkpt lat="42.71677" lon="1.44094">
        <ele>1100.4000244141</ele>
        <time>2023-07-24T05:08:32.000Z</time>
      </trkpt>
      <trkpt lat="42.71673" lon="1.4408">
        <ele>1100.5999755859</ele>
        <time>2023-07-24T05:08:40.000Z</time>
      </trkpt>
      <trkpt lat="42.71672" lon="1.4407">
        <ele>1100.8000488281</ele>
        <time>2023-07-24T05:08:45.000Z</time>
      </trkpt>
      <trkpt lat="42.71671" lon="1.44062">
        <ele>1101</ele>
        <time>2023-07-24T05:08:49.000Z</time>
      </trkpt>
      <trkpt lat="42.71668" lon="1.44046">
        <ele>1101.8000488281</ele>
        <time>2023-07-24T05:08:57.000Z</time>
      </trkpt>
      <trkpt lat="42.71668" lon="1.44044">
        <ele>1101.8000488281</ele>
        <time>2023-07-24T05:08:58.000Z</time>
      </trkpt>
      <trkpt lat="42.71665" lon="1.4403">
        <ele>1102.4000244141</ele>
        <time>2023-07-24T05:09:04.000Z</time>
      </trkpt>
      <trkpt lat="42.71664" lon="1.44023">
        <ele>1102.8000488281</ele>
        <time>2023-07-24T05:09:08.000Z</time>
      </trkpt>
      <trkpt lat="42.71664" lon="1.44016">
        <ele>1103.1999511719</ele>
        <time>2023-07-24T05:09:12.000Z</time>
      </trkpt>
      <trkpt lat="42.71665" lon="1.44006">
        <ele>1104</ele>
        <time>2023-07-24T05:09:18.000Z</time>
      </trkpt>
      <trkpt lat="42.71665" lon="1.44001">
        <ele>1104</ele>
        <time>2023-07-24T05:09:21.000Z</time>
      </trkpt>
      <trkpt lat="42.71666" lon="1.43987">
        <ele>1104.5999755859</ele>
        <time>2023-07-24T05:09:30.000Z</time>
      </trkpt>
      <trkpt lat="42.71668" lon="1.43968">
        <ele>1104.1999511719</ele>
        <time>2023-07-24T05:09:39.000Z</time>
      </trkpt>
      <trkpt lat="42.71671" lon="1.4396">
        <ele>1104</ele>
        <time>2023-07-24T05:09:46.000Z</time>
      </trkpt>
      <trkpt lat="42.71674" lon="1.43948">
        <ele>1104</ele>
        <time>2023-07-24T05:09:53.000Z</time>
      </trkpt>
      <trkpt lat="42.71677" lon="1.43928">
        <ele>1104.1999511719</ele>
        <time>2023-07-24T05:10:01.000Z</time>
      </trkpt>
      <trkpt lat="42.71677" lon="1.43915">
        <ele>1104.4000244141</ele>
        <time>2023-07-24T05:10:08.000Z</time>
      </trkpt>
      <trkpt lat="42.71674" lon="1.43906">
        <ele>1104.5999755859</ele>
        <time>2023-07-24T05:10:15.000Z</time>
      </trkpt>
      <trkpt lat="42.71669" lon="1.4389">
        <ele>1104.8000488281</ele>
        <time>2023-07-24T05:10:22.000Z</time>
      </trkpt>
      <trkpt lat="42.71667" lon="1.43885">
        <ele>1105</ele>
        <time>2023-07-24T05:10:25.000Z</time>
      </trkpt>
      <trkpt lat="42.71663" lon="1.43879">
        <ele>1105</ele>
        <time>2023-07-24T05:10:30.000Z</time>
      </trkpt>
      <trkpt lat="42.71657" lon="1.43865">
        <ele>1105.8000488281</ele>
        <time>2023-07-24T05:10:38.000Z</time>
      </trkpt>
      <trkpt lat="42.71653" lon="1.43857">
        <ele>1106</ele>
        <time>2023-07-24T05:10:42.000Z</time>
      </trkpt>
      <trkpt lat="42.71652" lon="1.43852">
        <ele>1106.4000244141</ele>
        <time>2023-07-24T05:10:45.000Z</time>
      </trkpt>
      <trkpt lat="42.71645" lon="1.4384">
        <ele>1107</ele>
        <time>2023-07-24T05:10:52.000Z</time>
      </trkpt>
      <trkpt lat="42.71643" lon="1.43837">
        <ele>1107</ele>
        <time>2023-07-24T05:10:54.000Z</time>
      </trkpt>
      <trkpt lat="42.71638" lon="1.43831">
        <ele>1107.1999511719</ele>
        <time>2023-07-24T05:10:59.000Z</time>
      </trkpt>
      <trkpt lat="42.71631" lon="1.43824">
        <ele>1107.8000488281</ele>
        <time>2023-07-24T05:11:06.000Z</time>
      </trkpt>
      <trkpt lat="42.71629" lon="1.43822">
        <ele>1108.1999511719</ele>
        <time>2023-07-24T05:11:09.000Z</time>
      </trkpt>
      <trkpt lat="42.71623" lon="1.43811">
        <ele>1108.8000488281</ele>
        <time>2023-07-24T05:11:16.000Z</time>
      </trkpt>
      <trkpt lat="42.71617" lon="1.43799">
        <ele>1109.1999511719</ele>
        <time>2023-07-24T05:11:24.000Z</time>
      </trkpt>
      <trkpt lat="42.71615" lon="1.43795">
        <ele>1109.4000244141</ele>
        <time>2023-07-24T05:11:26.000Z</time>
      </trkpt>
      <trkpt lat="42.71608" lon="1.43782">
        <ele>1110.1999511719</ele>
        <time>2023-07-24T05:11:34.000Z</time>
      </trkpt>
      <trkpt lat="42.71607" lon="1.43781">
        <ele>1110.1999511719</ele>
        <time>2023-07-24T05:11:35.000Z</time>
      </trkpt>
      <trkpt lat="42.71602" lon="1.43767">
        <ele>1111</ele>
        <time>2023-07-24T05:11:42.000Z</time>
      </trkpt>
      <trkpt lat="42.716" lon="1.43763">
        <ele>1111.4000244141</ele>
        <time>2023-07-24T05:11:44.000Z</time>
      </trkpt>
      <trkpt lat="42.71596" lon="1.43748">
        <ele>1112.4000244141</ele>
        <time>2023-07-24T05:11:52.000Z</time>
      </trkpt>
      <trkpt lat="42.71591" lon="1.43738">
        <ele>1113.1999511719</ele>
        <time>2023-07-24T05:11:59.000Z</time>
      </trkpt>
      <trkpt lat="42.71589" lon="1.43735">
        <ele>1113.5999755859</ele>
        <time>2023-07-24T05:12:02.000Z</time>
      </trkpt>
      <trkpt lat="42.71586" lon="1.43728">
        <ele>1114.1999511719</ele>
        <time>2023-07-24T05:12:06.000Z</time>
      </trkpt>
      <trkpt lat="42.71582" lon="1.4372">
        <ele>1114.5999755859</ele>
        <time>2023-07-24T05:12:11.000Z</time>
      </trkpt>
      <trkpt lat="42.71581" lon="1.43718">
        <ele>1114.8000488281</ele>
        <time>2023-07-24T05:12:12.000Z</time>
      </trkpt>
      <trkpt lat="42.71574" lon="1.43709">
        <ele>1115.5999755859</ele>
        <time>2023-07-24T05:12:18.000Z</time>
      </trkpt>
      <trkpt lat="42.71573" lon="1.43708">
        <ele>1115.8000488281</ele>
        <time>2023-07-24T05:12:19.000Z</time>
      </trkpt>
      <trkpt lat="42.71565" lon="1.43698">
        <ele>1116.8000488281</ele>
        <time>2023-07-24T05:12:27.000Z</time>
      </trkpt>
      <trkpt lat="42.71559" lon="1.43695">
        <ele>1117.4000244141</ele>
        <time>2023-07-24T05:12:34.000Z</time>
      </trkpt>
      <trkpt lat="42.71552" lon="1.43689">
        <ele>1117.8000488281</ele>
        <time>2023-07-24T05:12:39.000Z</time>
      </trkpt>
      <trkpt lat="42.7155" lon="1.43687">
        <ele>1118</ele>
        <time>2023-07-24T05:12:41.000Z</time>
      </trkpt>
      <trkpt lat="42.71538" lon="1.43676">
        <ele>1118.1999511719</ele>
        <time>2023-07-24T05:12:50.000Z</time>
      </trkpt>
      <trkpt lat="42.71532" lon="1.43669">
        <ele>1118.1999511719</ele>
        <time>2023-07-24T05:12:57.000Z</time>
      </trkpt>
      <trkpt lat="42.71521" lon="1.43657">
        <ele>1118.4000244141</ele>
        <time>2023-07-24T05:13:05.000Z</time>
      </trkpt>
      <trkpt lat="42.71517" lon="1.43653">
        <ele>1118.5999755859</ele>
        <time>2023-07-24T05:13:12.000Z</time>
      </trkpt>
      <trkpt lat="42.7151" lon="1.43649">
        <ele>1118.5999755859</ele>
        <time>2023-07-24T05:13:18.000Z</time>
      </trkpt>
      <trkpt lat="42.71499" lon="1.43646">
        <ele>1118.8000488281</ele>
        <time>2023-07-24T05:13:25.000Z</time>
      </trkpt>
      <trkpt lat="42.71496" lon="1.43644">
        <ele>1118.8000488281</ele>
        <time>2023-07-24T05:13:27.000Z</time>
      </trkpt>
      <trkpt lat="42.71489" lon="1.43637">
        <ele>1119</ele>
        <time>2023-07-24T05:13:32.000Z</time>
      </trkpt>
      <trkpt lat="42.71483" lon="1.43631">
        <ele>1119.1999511719</ele>
        <time>2023-07-24T05:13:39.000Z</time>
      </trkpt>
      <trkpt lat="42.71476" lon="1.4362">
        <ele>1119.4000244141</ele>
        <time>2023-07-24T05:13:46.000Z</time>
      </trkpt>
      <trkpt lat="42.71465" lon="1.43607">
        <ele>1119.8000488281</ele>
        <time>2023-07-24T05:13:55.000Z</time>
      </trkpt>
      <trkpt lat="42.71463" lon="1.43604">
        <ele>1120</ele>
        <time>2023-07-24T05:13:58.000Z</time>
      </trkpt>
      <trkpt lat="42.7146" lon="1.436">
        <ele>1120</ele>
        <time>2023-07-24T05:14:01.000Z</time>
      </trkpt>
      <trkpt lat="42.71455" lon="1.43592">
        <ele>1120.4000244141</ele>
        <time>2023-07-24T05:14:07.000Z</time>
      </trkpt>
      <trkpt lat="42.71448" lon="1.43582">
        <ele>1120.5999755859</ele>
        <time>2023-07-24T05:14:15.000Z</time>
      </trkpt>
      <trkpt lat="42.71445" lon="1.43576">
        <ele>1121</ele>
        <time>2023-07-24T05:14:19.000Z</time>
      </trkpt>
      <trkpt lat="42.71442" lon="1.43572">
        <ele>1121.1999511719</ele>
        <time>2023-07-24T05:14:22.000Z</time>
      </trkpt>
      <trkpt lat="42.71436" lon="1.43562">
        <ele>1121.5999755859</ele>
        <time>2023-07-24T05:14:30.000Z</time>
      </trkpt>
      <trkpt lat="42.71431" lon="1.43555">
        <ele>1122</ele>
        <time>2023-07-24T05:14:34.000Z</time>
      </trkpt>
      <trkpt lat="42.71428" lon="1.4355">
        <ele>1122.1999511719</ele>
        <time>2023-07-24T05:14:37.000Z</time>
      </trkpt>
      <trkpt lat="42.71423" lon="1.43543">
        <ele>1122.5999755859</ele>
        <time>2023-07-24T05:14:43.000Z</time>
      </trkpt>
      <trkpt lat="42.71418" lon="1.43538">
        <ele>1123</ele>
        <time>2023-07-24T05:14:48.000Z</time>
      </trkpt>
      <trkpt lat="42.71414" lon="1.43533">
        <ele>1123.1999511719</ele>
        <time>2023-07-24T05:14:51.000Z</time>
      </trkpt>
      <trkpt lat="42.71409" lon="1.43528">
        <ele>1123.5999755859</ele>
        <time>2023-07-24T05:14:55.000Z</time>
      </trkpt>
      <trkpt lat="42.71403" lon="1.43523">
        <ele>1124.1999511719</ele>
        <time>2023-07-24T05:15:01.000Z</time>
      </trkpt>
      <trkpt lat="42.71396" lon="1.43516">
        <ele>1124.8000488281</ele>
        <time>2023-07-24T05:15:07.000Z</time>
      </trkpt>
      <trkpt lat="42.71391" lon="1.4351">
        <ele>1125.4000244141</ele>
        <time>2023-07-24T05:15:11.000Z</time>
      </trkpt>
      <trkpt lat="42.7139" lon="1.43508">
        <ele>1125.5999755859</ele>
        <time>2023-07-24T05:15:13.000Z</time>
      </trkpt>
      <trkpt lat="42.71384" lon="1.435">
        <ele>1126.4000244141</ele>
        <time>2023-07-24T05:15:21.000Z</time>
      </trkpt>
      <trkpt lat="42.71376" lon="1.43488">
        <ele>1127</ele>
        <time>2023-07-24T05:15:29.000Z</time>
      </trkpt>
      <trkpt lat="42.71373" lon="1.43483">
        <ele>1127.4000244141</ele>
        <time>2023-07-24T05:15:32.000Z</time>
      </trkpt>
      <trkpt lat="42.71371" lon="1.43477">
        <ele>1128</ele>
        <time>2023-07-24T05:15:37.000Z</time>
      </trkpt>
      <trkpt lat="42.71372" lon="1.43476">
        <ele>1128.4000244141</ele>
        <time>2023-07-24T05:15:41.000Z</time>
      </trkpt>
      <trkpt lat="42.71373" lon="1.43476">
        <ele>1128.5999755859</ele>
        <time>2023-07-24T05:15:45.000Z</time>
      </trkpt>
      <trkpt lat="42.71366" lon="1.43475">
        <ele>1128.8000488281</ele>
        <time>2023-07-24T05:15:52.000Z</time>
      </trkpt>
      <trkpt lat="42.71357" lon="1.43477">
        <ele>1129.1999511719</ele>
        <time>2023-07-24T05:15:59.000Z</time>
      </trkpt>
      <trkpt lat="42.71349" lon="1.43476">
        <ele>1129.1999511719</ele>
        <time>2023-07-24T05:16:06.000Z</time>
      </trkpt>
      <trkpt lat="42.7134" lon="1.43473">
        <ele>1129.4000244141</ele>
        <time>2023-07-24T05:16:12.000Z</time>
      </trkpt>
      <trkpt lat="42.71333" lon="1.4347">
        <ele>1130</ele>
        <time>2023-07-24T05:16:19.000Z</time>
      </trkpt>
      <trkpt lat="42.71327" lon="1.43467">
        <ele>1130.4000244141</ele>
        <time>2023-07-24T05:16:23.000Z</time>
      </trkpt>
      <trkpt lat="42.71323" lon="1.43463">
        <ele>1131</ele>
        <time>2023-07-24T05:16:27.000Z</time>
      </trkpt>
      <trkpt lat="42.71319" lon="1.43461">
        <ele>1131.5999755859</ele>
        <time>2023-07-24T05:16:30.000Z</time>
      </trkpt>
      <trkpt lat="42.71315" lon="1.43459">
        <ele>1132</ele>
        <time>2023-07-24T05:16:34.000Z</time>
      </trkpt>
      <trkpt lat="42.71312" lon="1.43453">
        <ele>1132.5999755859</ele>
        <time>2023-07-24T05:16:40.000Z</time>
      </trkpt>
      <trkpt lat="42.71302" lon="1.43441">
        <ele>1133.5999755859</ele>
        <time>2023-07-24T05:16:50.000Z</time>
      </trkpt>
      <trkpt lat="42.71299" lon="1.43439">
        <ele>1133.5999755859</ele>
        <time>2023-07-24T05:16:52.000Z</time>
      </trkpt>
      <trkpt lat="42.71296" lon="1.43434">
        <ele>1134.1999511719</ele>
        <time>2023-07-24T05:16:56.000Z</time>
      </trkpt>
      <trkpt lat="42.71289" lon="1.43426">
        <ele>1134.5999755859</ele>
        <time>2023-07-24T05:17:04.000Z</time>
      </trkpt>
      <trkpt lat="42.71288" lon="1.43417">
        <ele>1135.1999511719</ele>
        <time>2023-07-24T05:17:10.000Z</time>
      </trkpt>
      <trkpt lat="42.71285" lon="1.43411">
        <ele>1135.8000488281</ele>
        <time>2023-07-24T05:17:16.000Z</time>
      </trkpt>
      <trkpt lat="42.71284" lon="1.43409">
        <ele>1135.8000488281</ele>
        <time>2023-07-24T05:17:18.000Z</time>
      </trkpt>
      <trkpt lat="42.71275" lon="1.43397">
        <ele>1136.4000244141</ele>
        <time>2023-07-24T05:17:26.000Z</time>
      </trkpt>
      <trkpt lat="42.71275" lon="1.43389">
        <ele>1136.5999755859</ele>
        <time>2023-07-24T05:17:33.000Z</time>
      </trkpt>
      <trkpt lat="42.71275" lon="1.43387">
        <ele>1136.8000488281</ele>
        <time>2023-07-24T05:17:35.000Z</time>
      </trkpt>
      <trkpt lat="42.71274" lon="1.43382">
        <ele>1136.8000488281</ele>
        <time>2023-07-24T05:17:38.000Z</time>
      </trkpt>
      <trkpt lat="42.71275" lon="1.43381">
        <ele>1136.8000488281</ele>
        <time>2023-07-24T05:17:40.000Z</time>
      </trkpt>
      <trkpt lat="42.71278" lon="1.43379">
        <ele>1136.8000488281</ele>
        <time>2023-07-24T05:17:44.000Z</time>
      </trkpt>
      <trkpt lat="42.71277" lon="1.43376">
        <ele>1136.5999755859</ele>
        <time>2023-07-24T05:17:51.000Z</time>
      </trkpt>
      <trkpt lat="42.71273" lon="1.43372">
        <ele>1136.4000244141</ele>
        <time>2023-07-24T05:18:02.000Z</time>
      </trkpt>
      <trkpt lat="42.71273" lon="1.43373">
        <ele>1136.1999511719</ele>
        <time>2023-07-24T05:18:10.000Z</time>
      </trkpt>
      <trkpt lat="42.71278" lon="1.43382">
        <ele>1135.8000488281</ele>
        <time>2023-07-24T05:18:16.000Z</time>
      </trkpt>
      <trkpt lat="42.71279" lon="1.43384">
        <ele>1135.8000488281</ele>
        <time>2023-07-24T05:18:17.000Z</time>
      </trkpt>
      <trkpt lat="42.71285" lon="1.43397">
        <ele>1134.8000488281</ele>
        <time>2023-07-24T05:18:25.000Z</time>
      </trkpt>
      <trkpt lat="42.71288" lon="1.43401">
        <ele>1134.5999755859</ele>
        <time>2023-07-24T05:18:28.000Z</time>
      </trkpt>
      <trkpt lat="42.71292" lon="1.43413">
        <ele>1133.8000488281</ele>
        <time>2023-07-24T05:18:34.000Z</time>
      </trkpt>
      <trkpt lat="42.71293" lon="1.43417">
        <ele>1133.4000244141</ele>
        <time>2023-07-24T05:18:36.000Z</time>
      </trkpt>
      <trkpt lat="42.71298" lon="1.4343">
        <ele>1132.4000244141</ele>
        <time>2023-07-24T05:18:44.000Z</time>
      </trkpt>
      <trkpt lat="42.71299" lon="1.43431">
        <ele>1132.1999511719</ele>
        <time>2023-07-24T05:18:45.000Z</time>
      </trkpt>
      <trkpt lat="42.713" lon="1.43433">
        <ele>1132</ele>
        <time>2023-07-24T05:18:51.000Z</time>
      </trkpt>
      <trkpt lat="42.71304" lon="1.43438">
        <ele>1131.5999755859</ele>
        <time>2023-07-24T05:18:59.000Z</time>
      </trkpt>
      <trkpt lat="42.7131" lon="1.43447">
        <ele>1131.4000244141</ele>
        <time>2023-07-24T05:19:05.000Z</time>
      </trkpt>
      <trkpt lat="42.71316" lon="1.43456">
        <ele>1130.8000488281</ele>
        <time>2023-07-24T05:19:11.000Z</time>
      </trkpt>
      <trkpt lat="42.71322" lon="1.43463">
        <ele>1130.1999511719</ele>
        <time>2023-07-24T05:19:19.000Z</time>
      </trkpt>
      <trkpt lat="42.71325" lon="1.43465">
        <ele>1129.8000488281</ele>
        <time>2023-07-24T05:19:23.000Z</time>
      </trkpt>
      <trkpt lat="42.71335" lon="1.43473">
        <ele>1129.1999511719</ele>
        <time>2023-07-24T05:19:33.000Z</time>
      </trkpt>
      <trkpt lat="42.71341" lon="1.43472">
        <ele>1129</ele>
        <time>2023-07-24T05:19:36.000Z</time>
      </trkpt>
      <trkpt lat="42.71347" lon="1.43475">
        <ele>1129</ele>
        <time>2023-07-24T05:19:39.000Z</time>
      </trkpt>
      <trkpt lat="42.71362" lon="1.43471">
        <ele>1129</ele>
        <time>2023-07-24T05:19:48.000Z</time>
      </trkpt>
      <trkpt lat="42.71362" lon="1.43467">
        <ele>1129.1999511719</ele>
        <time>2023-07-24T05:19:51.000Z</time>
      </trkpt>
      <trkpt lat="42.71361" lon="1.43464">
        <ele>1129.4000244141</ele>
        <time>2023-07-24T05:19:52.000Z</time>
      </trkpt>
      <trkpt lat="42.71361" lon="1.43443">
        <ele>1129.8000488281</ele>
        <time>2023-07-24T05:20:01.000Z</time>
      </trkpt>
      <trkpt lat="42.71359" lon="1.4343">
        <ele>1130.1999511719</ele>
        <time>2023-07-24T05:20:07.000Z</time>
      </trkpt>
      <trkpt lat="42.71356" lon="1.43421">
        <ele>1130.8000488281</ele>
        <time>2023-07-24T05:20:12.000Z</time>
      </trkpt>
      <trkpt lat="42.71354" lon="1.43416">
        <ele>1131.4000244141</ele>
        <time>2023-07-24T05:20:15.000Z</time>
      </trkpt>
      <trkpt lat="42.7135" lon="1.43409">
        <ele>1132.4000244141</ele>
        <time>2023-07-24T05:20:21.000Z</time>
      </trkpt>
      <trkpt lat="42.71346" lon="1.43401">
        <ele>1133.4000244141</ele>
        <time>2023-07-24T05:20:28.000Z</time>
      </trkpt>
      <trkpt lat="42.7134" lon="1.43387">
        <ele>1134.4000244141</ele>
        <time>2023-07-24T05:20:37.000Z</time>
      </trkpt>
      <trkpt lat="42.71334" lon="1.43376">
        <ele>1135.4000244141</ele>
        <time>2023-07-24T05:20:44.000Z</time>
      </trkpt>
      <trkpt lat="42.71334" lon="1.43374">
        <ele>1135.5999755859</ele>
        <time>2023-07-24T05:20:45.000Z</time>
      </trkpt>
      <trkpt lat="42.71329" lon="1.43363">
        <ele>1136.5999755859</ele>
        <time>2023-07-24T05:20:52.000Z</time>
      </trkpt>
      <trkpt lat="42.71324" lon="1.43344">
        <ele>1137.5999755859</ele>
        <time>2023-07-24T05:21:02.000Z</time>
      </trkpt>
      <trkpt lat="42.71322" lon="1.43338">
        <ele>1138</ele>
        <time>2023-07-24T05:21:06.000Z</time>
      </trkpt>
      <trkpt lat="42.71319" lon="1.43324">
        <ele>1138.5999755859</ele>
        <time>2023-07-24T05:21:15.000Z</time>
      </trkpt>
      <trkpt lat="42.71318" lon="1.43322">
        <ele>1138.5999755859</ele>
        <time>2023-07-24T05:21:16.000Z</time>
      </trkpt>
      <trkpt lat="42.71313" lon="1.43303">
        <ele>1139</ele>
        <time>2023-07-24T05:21:27.000Z</time>
      </trkpt>
      <trkpt lat="42.71312" lon="1.43275">
        <ele>1139.4000244141</ele>
        <time>2023-07-24T05:21:42.000Z</time>
      </trkpt>
      <trkpt lat="42.71306" lon="1.43258">
        <ele>1139.5999755859</ele>
        <time>2023-07-24T05:21:55.000Z</time>
      </trkpt>
      <trkpt lat="42.71306" lon="1.43255">
        <ele>1139.5999755859</ele>
        <time>2023-07-24T05:21:57.000Z</time>
      </trkpt>
      <trkpt lat="42.71301" lon="1.43243">
        <ele>1140.1999511719</ele>
        <time>2023-07-24T05:22:08.000Z</time>
      </trkpt>
      <trkpt lat="42.71302" lon="1.4323">
        <ele>1140.4000244141</ele>
        <time>2023-07-24T05:22:16.000Z</time>
      </trkpt>
      <trkpt lat="42.71303" lon="1.43218">
        <ele>1140.8000488281</ele>
        <time>2023-07-24T05:22:20.000Z</time>
      </trkpt>
      <trkpt lat="42.71301" lon="1.43212">
        <ele>1140.8000488281</ele>
        <time>2023-07-24T05:22:22.000Z</time>
      </trkpt>
      <trkpt lat="42.71298" lon="1.43194">
        <ele>1141</ele>
        <time>2023-07-24T05:22:27.000Z</time>
      </trkpt>
      <trkpt lat="42.71295" lon="1.43183">
        <ele>1141.4000244141</ele>
        <time>2023-07-24T05:22:33.000Z</time>
      </trkpt>
      <trkpt lat="42.71292" lon="1.43179">
        <ele>1141.8000488281</ele>
        <time>2023-07-24T05:22:38.000Z</time>
      </trkpt>
      <trkpt lat="42.71286" lon="1.43169">
        <ele>1142.4000244141</ele>
        <time>2023-07-24T05:22:46.000Z</time>
      </trkpt>
      <trkpt lat="42.71283" lon="1.43163">
        <ele>1142.8000488281</ele>
        <time>2023-07-24T05:22:50.000Z</time>
      </trkpt>
      <trkpt lat="42.71279" lon="1.43158">
        <ele>1143.1999511719</ele>
        <time>2023-07-24T05:22:53.000Z</time>
      </trkpt>
      <trkpt lat="42.71274" lon="1.43149">
        <ele>1143.8000488281</ele>
        <time>2023-07-24T05:22:59.000Z</time>
      </trkpt>
      <trkpt lat="42.71273" lon="1.43148">
        <ele>1144</ele>
        <time>2023-07-24T05:23:00.000Z</time>
      </trkpt>
      <trkpt lat="42.71267" lon="1.43133">
        <ele>1144.8000488281</ele>
        <time>2023-07-24T05:23:08.000Z</time>
      </trkpt>
      <trkpt lat="42.71267" lon="1.43131">
        <ele>1144.8000488281</ele>
        <time>2023-07-24T05:23:09.000Z</time>
      </trkpt>
      <trkpt lat="42.71264" lon="1.43125">
        <ele>1145.1999511719</ele>
        <time>2023-07-24T05:23:15.000Z</time>
      </trkpt>
      <trkpt lat="42.71265" lon="1.43128">
        <ele>1145.1999511719</ele>
        <time>2023-07-24T05:23:20.000Z</time>
      </trkpt>
      <trkpt lat="42.71266" lon="1.43128">
        <ele>1145.4000244141</ele>
        <time>2023-07-24T05:23:22.000Z</time>
      </trkpt>
      <trkpt lat="42.71267" lon="1.43128">
        <ele>1145.4000244141</ele>
        <time>2023-07-24T05:23:24.000Z</time>
      </trkpt>
      <trkpt lat="42.71269" lon="1.43126">
        <ele>1145.4000244141</ele>
        <time>2023-07-24T05:23:30.000Z</time>
      </trkpt>
      <trkpt lat="42.71263" lon="1.4313">
        <ele>1145.4000244141</ele>
        <time>2023-07-24T05:23:38.000Z</time>
      </trkpt>
      <trkpt lat="42.71258" lon="1.43121">
        <ele>1145.5999755859</ele>
        <time>2023-07-24T05:23:48.000Z</time>
      </trkpt>
      <trkpt lat="42.71256" lon="1.43119">
        <ele>1145.8000488281</ele>
        <time>2023-07-24T05:23:50.000Z</time>
      </trkpt>
      <trkpt lat="42.7125" lon="1.43114">
        <ele>1146.5999755859</ele>
        <time>2023-07-24T05:23:56.000Z</time>
      </trkpt>
      <trkpt lat="42.71245" lon="1.4311">
        <ele>1147</ele>
        <time>2023-07-24T05:24:00.000Z</time>
      </trkpt>
      <trkpt lat="42.71243" lon="1.43109">
        <ele>1147.4000244141</ele>
        <time>2023-07-24T05:24:03.000Z</time>
      </trkpt>
      <trkpt lat="42.71235" lon="1.43104">
        <ele>1148</ele>
        <time>2023-07-24T05:24:08.000Z</time>
      </trkpt>
      <trkpt lat="42.71234" lon="1.43103">
        <ele>1148</ele>
        <time>2023-07-24T05:24:09.000Z</time>
      </trkpt>
      <trkpt lat="42.71228" lon="1.43099">
        <ele>1148.5999755859</ele>
        <time>2023-07-24T05:24:15.000Z</time>
      </trkpt>
      <trkpt lat="42.71223" lon="1.43095">
        <ele>1149</ele>
        <time>2023-07-24T05:24:19.000Z</time>
      </trkpt>
      <trkpt lat="42.71221" lon="1.43093">
        <ele>1149</ele>
        <time>2023-07-24T05:24:20.000Z</time>
      </trkpt>
      <trkpt lat="42.71215" lon="1.43088">
        <ele>1149.8000488281</ele>
        <time>2023-07-24T05:24:26.000Z</time>
      </trkpt>
      <trkpt lat="42.71208" lon="1.43083">
        <ele>1150</ele>
        <time>2023-07-24T05:24:30.000Z</time>
      </trkpt>
      <trkpt lat="42.71208" lon="1.43083">
        <ele>1150.4000244141</ele>
        <time>2023-07-24T05:24:33.000Z</time>
      </trkpt>
      <trkpt lat="42.71206" lon="1.43082">
        <ele>1150.5999755859</ele>
        <time>2023-07-24T05:24:39.000Z</time>
      </trkpt>
      <trkpt lat="42.71204" lon="1.43081">
        <ele>1150.5999755859</ele>
        <time>2023-07-24T05:24:41.000Z</time>
      </trkpt>
      <trkpt lat="42.71196" lon="1.43076">
        <ele>1151.1999511719</ele>
        <time>2023-07-24T05:24:47.000Z</time>
      </trkpt>
      <trkpt lat="42.71192" lon="1.43068">
        <ele>1151.8000488281</ele>
        <time>2023-07-24T05:24:54.000Z</time>
      </trkpt>
      <trkpt lat="42.7119" lon="1.43065">
        <ele>1152.1999511719</ele>
        <time>2023-07-24T05:24:57.000Z</time>
      </trkpt>
      <trkpt lat="42.71185" lon="1.4306">
        <ele>1152.5999755859</ele>
        <time>2023-07-24T05:25:01.000Z</time>
      </trkpt>
      <trkpt lat="42.7118" lon="1.43054">
        <ele>1153.4000244141</ele>
        <time>2023-07-24T05:25:06.000Z</time>
      </trkpt>
      <trkpt lat="42.71177" lon="1.43051">
        <ele>1153.8000488281</ele>
        <time>2023-07-24T05:25:10.000Z</time>
      </trkpt>
      <trkpt lat="42.71171" lon="1.43046">
        <ele>1154.4000244141</ele>
        <time>2023-07-24T05:25:15.000Z</time>
      </trkpt>
      <trkpt lat="42.71168" lon="1.43045">
        <ele>1154.5999755859</ele>
        <time>2023-07-24T05:25:17.000Z</time>
      </trkpt>
      <trkpt lat="42.71165" lon="1.43041">
        <ele>1155.1999511719</ele>
        <time>2023-07-24T05:25:22.000Z</time>
      </trkpt>
      <trkpt lat="42.71161" lon="1.43037">
        <ele>1155.4000244141</ele>
        <time>2023-07-24T05:25:27.000Z</time>
      </trkpt>
      <trkpt lat="42.71159" lon="1.43037">
        <ele>1155.5999755859</ele>
        <time>2023-07-24T05:25:28.000Z</time>
      </trkpt>
      <trkpt lat="42.7115" lon="1.43029">
        <ele>1156.4000244141</ele>
        <time>2023-07-24T05:25:36.000Z</time>
      </trkpt>
      <trkpt lat="42.71143" lon="1.43019">
        <ele>1157</ele>
        <time>2023-07-24T05:25:45.000Z</time>
      </trkpt>
      <trkpt lat="42.71139" lon="1.43013">
        <ele>1157.4000244141</ele>
        <time>2023-07-24T05:25:50.000Z</time>
      </trkpt>
      <trkpt lat="42.71138" lon="1.43005">
        <ele>1157.8000488281</ele>
        <time>2023-07-24T05:25:55.000Z</time>
      </trkpt>
      <trkpt lat="42.71139" lon="1.43001">
        <ele>1157.8000488281</ele>
        <time>2023-07-24T05:25:56.000Z</time>
      </trkpt>
      <trkpt lat="42.71137" lon="1.42989">
        <ele>1158.1999511719</ele>
        <time>2023-07-24T05:26:01.000Z</time>
      </trkpt>
      <trkpt lat="42.71129" lon="1.42977">
        <ele>1158.4000244141</ele>
        <time>2023-07-24T05:26:09.000Z</time>
      </trkpt>
      <trkpt lat="42.71128" lon="1.42971">
        <ele>1158.5999755859</ele>
        <time>2023-07-24T05:26:13.000Z</time>
      </trkpt>
      <trkpt lat="42.71121" lon="1.42953">
        <ele>1159.4000244141</ele>
        <time>2023-07-24T05:26:25.000Z</time>
      </trkpt>
      <trkpt lat="42.7112" lon="1.42952">
        <ele>1159.5999755859</ele>
        <time>2023-07-24T05:26:26.000Z</time>
      </trkpt>
      <trkpt lat="42.71117" lon="1.42933">
        <ele>1160</ele>
        <time>2023-07-24T05:26:35.000Z</time>
      </trkpt>
      <trkpt lat="42.7111" lon="1.42923">
        <ele>1160.4000244141</ele>
        <time>2023-07-24T05:26:41.000Z</time>
      </trkpt>
      <trkpt lat="42.71109" lon="1.42917">
        <ele>1160.8000488281</ele>
        <time>2023-07-24T05:26:45.000Z</time>
      </trkpt>
      <trkpt lat="42.7111" lon="1.42913">
        <ele>1160.8000488281</ele>
        <time>2023-07-24T05:26:47.000Z</time>
      </trkpt>
      <trkpt lat="42.71105" lon="1.42902">
        <ele>1161.4000244141</ele>
        <time>2023-07-24T05:26:54.000Z</time>
      </trkpt>
      <trkpt lat="42.71106" lon="1.42895">
        <ele>1161.8000488281</ele>
        <time>2023-07-24T05:26:57.000Z</time>
      </trkpt>
      <trkpt lat="42.71106" lon="1.4289">
        <ele>1162</ele>
        <time>2023-07-24T05:26:59.000Z</time>
      </trkpt>
      <trkpt lat="42.71099" lon="1.42876">
        <ele>1162.5999755859</ele>
        <time>2023-07-24T05:27:06.000Z</time>
      </trkpt>
      <trkpt lat="42.71097" lon="1.42872">
        <ele>1162.8000488281</ele>
        <time>2023-07-24T05:27:09.000Z</time>
      </trkpt>
      <trkpt lat="42.71095" lon="1.42868">
        <ele>1163.1999511719</ele>
        <time>2023-07-24T05:27:12.000Z</time>
      </trkpt>
      <trkpt lat="42.71089" lon="1.42857">
        <ele>1163.8000488281</ele>
        <time>2023-07-24T05:27:19.000Z</time>
      </trkpt>
      <trkpt lat="42.71085" lon="1.42855">
        <ele>1164.4000244141</ele>
        <time>2023-07-24T05:27:23.000Z</time>
      </trkpt>
      <trkpt lat="42.71083" lon="1.4285">
        <ele>1165</ele>
        <time>2023-07-24T05:27:27.000Z</time>
      </trkpt>
      <trkpt lat="42.71082" lon="1.42838">
        <ele>1166</ele>
        <time>2023-07-24T05:27:34.000Z</time>
      </trkpt>
      <trkpt lat="42.71084" lon="1.42835">
        <ele>1166.1999511719</ele>
        <time>2023-07-24T05:27:35.000Z</time>
      </trkpt>
      <trkpt lat="42.71085" lon="1.42832">
        <ele>1166.1999511719</ele>
        <time>2023-07-24T05:27:36.000Z</time>
      </trkpt>
      <trkpt lat="42.71082" lon="1.42824">
        <ele>1166.5999755859</ele>
        <time>2023-07-24T05:27:39.000Z</time>
      </trkpt>
      <trkpt lat="42.7108" lon="1.42819">
        <ele>1167.1999511719</ele>
        <time>2023-07-24T05:27:42.000Z</time>
      </trkpt>
      <trkpt lat="42.71077" lon="1.42811">
        <ele>1167.8000488281</ele>
        <time>2023-07-24T05:27:47.000Z</time>
      </trkpt>
      <trkpt lat="42.71076" lon="1.42807">
        <ele>1168.1999511719</ele>
        <time>2023-07-24T05:27:50.000Z</time>
      </trkpt>
      <trkpt lat="42.71076" lon="1.42803">
        <ele>1168.5999755859</ele>
        <time>2023-07-24T05:27:55.000Z</time>
      </trkpt>
      <trkpt lat="42.71079" lon="1.42799">
        <ele>1169</ele>
        <time>2023-07-24T05:27:57.000Z</time>
      </trkpt>
      <trkpt lat="42.7108" lon="1.42795">
        <ele>1169.1999511719</ele>
        <time>2023-07-24T05:28:00.000Z</time>
      </trkpt>
      <trkpt lat="42.71076" lon="1.42782">
        <ele>1170.1999511719</ele>
        <time>2023-07-24T05:28:08.000Z</time>
      </trkpt>
      <trkpt lat="42.71076" lon="1.4278">
        <ele>1170.5999755859</ele>
        <time>2023-07-24T05:28:09.000Z</time>
      </trkpt>
      <trkpt lat="42.71073" lon="1.42774">
        <ele>1170.8000488281</ele>
        <time>2023-07-24T05:28:13.000Z</time>
      </trkpt>
      <trkpt lat="42.71069" lon="1.42765">
        <ele>1171.5999755859</ele>
        <time>2023-07-24T05:28:20.000Z</time>
      </trkpt>
      <trkpt lat="42.7107" lon="1.42756">
        <ele>1172.4000244141</ele>
        <time>2023-07-24T05:28:27.000Z</time>
      </trkpt>
      <trkpt lat="42.7107" lon="1.42753">
        <ele>1172.8000488281</ele>
        <time>2023-07-24T05:28:31.000Z</time>
      </trkpt>
      <trkpt lat="42.71069" lon="1.42746">
        <ele>1173.1999511719</ele>
        <time>2023-07-24T05:28:36.000Z</time>
      </trkpt>
      <trkpt lat="42.7107" lon="1.42744">
        <ele>1173.1999511719</ele>
        <time>2023-07-24T05:28:37.000Z</time>
      </trkpt>
      <trkpt lat="42.71072" lon="1.42741">
        <ele>1173.4000244141</ele>
        <time>2023-07-24T05:28:41.000Z</time>
      </trkpt>
      <trkpt lat="42.71071" lon="1.42733">
        <ele>1173.5999755859</ele>
        <time>2023-07-24T05:28:49.000Z</time>
      </trkpt>
      <trkpt lat="42.71069" lon="1.42722">
        <ele>1173.8000488281</ele>
        <time>2023-07-24T05:28:56.000Z</time>
      </trkpt>
      <trkpt lat="42.71069" lon="1.42708">
        <ele>1175</ele>
        <time>2023-07-24T05:29:03.000Z</time>
      </trkpt>
      <trkpt lat="42.71068" lon="1.42698">
        <ele>1175.4000244141</ele>
        <time>2023-07-24T05:29:09.000Z</time>
      </trkpt>
      <trkpt lat="42.71067" lon="1.4269">
        <ele>1176</ele>
        <time>2023-07-24T05:29:14.000Z</time>
      </trkpt>
      <trkpt lat="42.71067" lon="1.42685">
        <ele>1176.1999511719</ele>
        <time>2023-07-24T05:29:16.000Z</time>
      </trkpt>
      <trkpt lat="42.71066" lon="1.42673">
        <ele>1177</ele>
        <time>2023-07-24T05:29:23.000Z</time>
      </trkpt>
      <trkpt lat="42.71064" lon="1.42662">
        <ele>1177.8000488281</ele>
        <time>2023-07-24T05:29:29.000Z</time>
      </trkpt>
      <trkpt lat="42.71063" lon="1.42654">
        <ele>1178</ele>
        <time>2023-07-24T05:29:34.000Z</time>
      </trkpt>
      <trkpt lat="42.71063" lon="1.42652">
        <ele>1178.1999511719</ele>
        <time>2023-07-24T05:29:35.000Z</time>
      </trkpt>
      <trkpt lat="42.7106" lon="1.42639">
        <ele>1179</ele>
        <time>2023-07-24T05:29:45.000Z</time>
      </trkpt>
      <trkpt lat="42.7106" lon="1.42637">
        <ele>1179.1999511719</ele>
        <time>2023-07-24T05:29:47.000Z</time>
      </trkpt>
      <trkpt lat="42.71059" lon="1.42626">
        <ele>1179.4000244141</ele>
        <time>2023-07-24T05:29:52.000Z</time>
      </trkpt>
      <trkpt lat="42.71057" lon="1.42608">
        <ele>1180</ele>
        <time>2023-07-24T05:30:01.000Z</time>
      </trkpt>
      <trkpt lat="42.71056" lon="1.42605">
        <ele>1180</ele>
        <time>2023-07-24T05:30:07.000Z</time>
      </trkpt>
      <trkpt lat="42.71054" lon="1.42602">
        <ele>1180</ele>
        <time>2023-07-24T05:30:16.000Z</time>
      </trkpt>
      <trkpt lat="42.71056" lon="1.42598">
        <ele>1180</ele>
        <time>2023-07-24T05:30:23.000Z</time>
      </trkpt>
      <trkpt lat="42.71056" lon="1.42587">
        <ele>1180.1999511719</ele>
        <time>2023-07-24T05:30:29.000Z</time>
      </trkpt>
      <trkpt lat="42.71056" lon="1.42585">
        <ele>1180.1999511719</ele>
        <time>2023-07-24T05:30:30.000Z</time>
      </trkpt>
      <trkpt lat="42.71053" lon="1.42574">
        <ele>1181</ele>
        <time>2023-07-24T05:30:38.000Z</time>
      </trkpt>
      <trkpt lat="42.71053" lon="1.4257">
        <ele>1181.1999511719</ele>
        <time>2023-07-24T05:30:41.000Z</time>
      </trkpt>
      <trkpt lat="42.71052" lon="1.42564">
        <ele>1181.5999755859</ele>
        <time>2023-07-24T05:30:45.000Z</time>
      </trkpt>
      <trkpt lat="42.71051" lon="1.42552">
        <ele>1182.1999511719</ele>
        <time>2023-07-24T05:30:52.000Z</time>
      </trkpt>
      <trkpt lat="42.7105" lon="1.4255">
        <ele>1182.1999511719</ele>
        <time>2023-07-24T05:30:53.000Z</time>
      </trkpt>
      <trkpt lat="42.71048" lon="1.42537">
        <ele>1183.1999511719</ele>
        <time>2023-07-24T05:30:59.000Z</time>
      </trkpt>
      <trkpt lat="42.71047" lon="1.42535">
        <ele>1183.4000244141</ele>
        <time>2023-07-24T05:31:01.000Z</time>
      </trkpt>
      <trkpt lat="42.71044" lon="1.4253">
        <ele>1183.8000488281</ele>
        <time>2023-07-24T05:31:05.000Z</time>
      </trkpt>
      <trkpt lat="42.7104" lon="1.4253">
        <ele>1184.1999511719</ele>
        <time>2023-07-24T05:31:11.000Z</time>
      </trkpt>
      <trkpt lat="42.71039" lon="1.4253">
        <ele>1184.1999511719</ele>
        <time>2023-07-24T05:31:13.000Z</time>
      </trkpt>
      <trkpt lat="42.71038" lon="1.42531">
        <ele>1184</ele>
        <time>2023-07-24T05:31:18.000Z</time>
      </trkpt>
      <trkpt lat="42.71037" lon="1.42532">
        <ele>1183.8000488281</ele>
        <time>2023-07-24T05:31:20.000Z</time>
      </trkpt>
      <trkpt lat="42.71035" lon="1.4253">
        <ele>1183.5999755859</ele>
        <time>2023-07-24T05:31:26.000Z</time>
      </trkpt>
      <trkpt lat="42.71034" lon="1.42533">
        <ele>1183.5999755859</ele>
        <time>2023-07-24T05:31:35.000Z</time>
      </trkpt>
      <trkpt lat="42.71033" lon="1.42538">
        <ele>1183.5999755859</ele>
        <time>2023-07-24T05:31:43.000Z</time>
      </trkpt>
      <trkpt lat="42.71033" lon="1.42539">
        <ele>1183.5999755859</ele>
        <time>2023-07-24T05:31:50.000Z</time>
      </trkpt>
      <trkpt lat="42.7103" lon="1.42541">
        <ele>1183.5999755859</ele>
        <time>2023-07-24T05:31:57.000Z</time>
      </trkpt>
      <trkpt lat="42.71032" lon="1.42536">
        <ele>1183.5999755859</ele>
        <time>2023-07-24T05:32:05.000Z</time>
      </trkpt>
      <trkpt lat="42.71031" lon="1.42533">
        <ele>1183.4000244141</ele>
        <time>2023-07-24T05:32:12.000Z</time>
      </trkpt>
      <trkpt lat="42.71025" lon="1.42529">
        <ele>1182.5999755859</ele>
        <time>2023-07-24T05:32:18.000Z</time>
      </trkpt>
      <trkpt lat="42.71023" lon="1.42528">
        <ele>1182</ele>
        <time>2023-07-24T05:32:20.000Z</time>
      </trkpt>
      <trkpt lat="42.71015" lon="1.42517">
        <ele>1181</ele>
        <time>2023-07-24T05:32:30.000Z</time>
      </trkpt>
      <trkpt lat="42.7101" lon="1.42506">
        <ele>1180.8000488281</ele>
        <time>2023-07-24T05:32:38.000Z</time>
      </trkpt>
      <trkpt lat="42.71008" lon="1.42497">
        <ele>1180.8000488281</ele>
        <time>2023-07-24T05:32:45.000Z</time>
      </trkpt>
      <trkpt lat="42.71007" lon="1.42486">
        <ele>1181.1999511719</ele>
        <time>2023-07-24T05:32:54.000Z</time>
      </trkpt>
      <trkpt lat="42.71009" lon="1.42475">
        <ele>1181.1999511719</ele>
        <time>2023-07-24T05:33:02.000Z</time>
      </trkpt>
      <trkpt lat="42.71009" lon="1.42477">
        <ele>1181.1999511719</ele>
        <time>2023-07-24T05:33:08.000Z</time>
      </trkpt>
      <trkpt lat="42.71004" lon="1.42484">
        <ele>1181.1999511719</ele>
        <time>2023-07-24T05:33:18.000Z</time>
      </trkpt>
      <trkpt lat="42.70998" lon="1.42488">
        <ele>1181.4000244141</ele>
        <time>2023-07-24T05:33:27.000Z</time>
      </trkpt>
      <trkpt lat="42.71002" lon="1.42486">
        <ele>1181.4000244141</ele>
        <time>2023-07-24T05:33:35.000Z</time>
      </trkpt>
      <trkpt lat="42.71003" lon="1.42491">
        <ele>1181.5999755859</ele>
        <time>2023-07-24T05:33:46.000Z</time>
      </trkpt>
      <trkpt lat="42.71005" lon="1.42497">
        <ele>1181.5999755859</ele>
        <time>2023-07-24T05:33:54.000Z</time>
      </trkpt>
      <trkpt lat="42.71004" lon="1.42493">
        <ele>1181.5999755859</ele>
        <time>2023-07-24T05:34:02.000Z</time>
      </trkpt>
      <trkpt lat="42.71001" lon="1.42492">
        <ele>1181.5999755859</ele>
        <time>2023-07-24T05:34:09.000Z</time>
      </trkpt>
      <trkpt lat="42.71005" lon="1.42491">
        <ele>1181.5999755859</ele>
        <time>2023-07-24T05:34:15.000Z</time>
      </trkpt>
      <trkpt lat="42.71009" lon="1.42499">
        <ele>1181.5999755859</ele>
        <time>2023-07-24T05:34:21.000Z</time>
      </trkpt>
      <trkpt lat="42.71015" lon="1.42508">
        <ele>1181.4000244141</ele>
        <time>2023-07-24T05:34:27.000Z</time>
      </trkpt>
      <trkpt lat="42.71021" lon="1.42516">
        <ele>1181.4000244141</ele>
        <time>2023-07-24T05:34:33.000Z</time>
      </trkpt>
      <trkpt lat="42.71027" lon="1.42524">
        <ele>1181.5999755859</ele>
        <time>2023-07-24T05:34:40.000Z</time>
      </trkpt>
      <trkpt lat="42.71032" lon="1.42529">
        <ele>1182.1999511719</ele>
        <time>2023-07-24T05:34:46.000Z</time>
      </trkpt>
      <trkpt lat="42.71036" lon="1.4253">
        <ele>1183.4000244141</ele>
        <time>2023-07-24T05:34:52.000Z</time>
      </trkpt>
      <trkpt lat="42.71037" lon="1.42529">
        <ele>1183.8000488281</ele>
        <time>2023-07-24T05:34:54.000Z</time>
      </trkpt>
      <trkpt lat="42.71038" lon="1.42528">
        <ele>1184.1999511719</ele>
        <time>2023-07-24T05:34:56.000Z</time>
      </trkpt>
      <trkpt lat="42.71037" lon="1.42527">
        <ele>1184.5999755859</ele>
        <time>2023-07-24T05:34:58.000Z</time>
      </trkpt>
      <trkpt lat="42.71036" lon="1.42525">
        <ele>1185</ele>
        <time>2023-07-24T05:35:01.000Z</time>
      </trkpt>
      <trkpt lat="42.71034" lon="1.42519">
        <ele>1185.5999755859</ele>
        <time>2023-07-24T05:35:06.000Z</time>
      </trkpt>
      <trkpt lat="42.71031" lon="1.4251">
        <ele>1186.1999511719</ele>
        <time>2023-07-24T05:35:12.000Z</time>
      </trkpt>
      <trkpt lat="42.71027" lon="1.42505">
        <ele>1186.5999755859</ele>
        <time>2023-07-24T05:35:17.000Z</time>
      </trkpt>
      <trkpt lat="42.71024" lon="1.425">
        <ele>1186.8000488281</ele>
        <time>2023-07-24T05:35:20.000Z</time>
      </trkpt>
      <trkpt lat="42.71018" lon="1.42492">
        <ele>1186.5999755859</ele>
        <time>2023-07-24T05:35:26.000Z</time>
      </trkpt>
      <trkpt lat="42.71016" lon="1.42487">
        <ele>1186.5999755859</ele>
        <time>2023-07-24T05:35:34.000Z</time>
      </trkpt>
      <trkpt lat="42.71015" lon="1.42485">
        <ele>1186.5999755859</ele>
        <time>2023-07-24T05:35:40.000Z</time>
      </trkpt>
      <trkpt lat="42.71012" lon="1.42478">
        <ele>1186.4000244141</ele>
        <time>2023-07-24T05:35:47.000Z</time>
      </trkpt>
      <trkpt lat="42.71011" lon="1.42471">
        <ele>1185.8000488281</ele>
        <time>2023-07-24T05:35:55.000Z</time>
      </trkpt>
      <trkpt lat="42.7101" lon="1.42468">
        <ele>1185.5999755859</ele>
        <time>2023-07-24T05:35:57.000Z</time>
      </trkpt>
      <trkpt lat="42.71007" lon="1.42458">
        <ele>1185.1999511719</ele>
        <time>2023-07-24T05:36:03.000Z</time>
      </trkpt>
      <trkpt lat="42.71002" lon="1.42445">
        <ele>1185</ele>
        <time>2023-07-24T05:36:12.000Z</time>
      </trkpt>
      <trkpt lat="42.71" lon="1.42434">
        <ele>1185.1999511719</ele>
        <time>2023-07-24T05:36:19.000Z</time>
      </trkpt>
      <trkpt lat="42.70996" lon="1.42418">
        <ele>1185</ele>
        <time>2023-07-24T05:36:27.000Z</time>
      </trkpt>
      <trkpt lat="42.70992" lon="1.42408">
        <ele>1185</ele>
        <time>2023-07-24T05:36:35.000Z</time>
      </trkpt>
      <trkpt lat="42.70986" lon="1.42397">
        <ele>1185</ele>
        <time>2023-07-24T05:36:43.000Z</time>
      </trkpt>
      <trkpt lat="42.70982" lon="1.42385">
        <ele>1185</ele>
        <time>2023-07-24T05:36:50.000Z</time>
      </trkpt>
      <trkpt lat="42.70979" lon="1.42371">
        <ele>1185</ele>
        <time>2023-07-24T05:36:57.000Z</time>
      </trkpt>
      <trkpt lat="42.7098" lon="1.42364">
        <ele>1184.8000488281</ele>
        <time>2023-07-24T05:37:06.000Z</time>
      </trkpt>
      <trkpt lat="42.7098" lon="1.42356">
        <ele>1184.5999755859</ele>
        <time>2023-07-24T05:37:42.000Z</time>
      </trkpt>
      <trkpt lat="42.70972" lon="1.42354">
        <ele>1184.5999755859</ele>
        <time>2023-07-24T05:37:48.000Z</time>
      </trkpt>
      <trkpt lat="42.70969" lon="1.42349">
        <ele>1184.8000488281</ele>
        <time>2023-07-24T05:37:55.000Z</time>
      </trkpt>
      <trkpt lat="42.70964" lon="1.42336">
        <ele>1185.1999511719</ele>
        <time>2023-07-24T05:38:03.000Z</time>
      </trkpt>
      <trkpt lat="42.70961" lon="1.42323">
        <ele>1185.5999755859</ele>
        <time>2023-07-24T05:38:09.000Z</time>
      </trkpt>
      <trkpt lat="42.70959" lon="1.42318">
        <ele>1185.8000488281</ele>
        <time>2023-07-24T05:38:12.000Z</time>
      </trkpt>
      <trkpt lat="42.70958" lon="1.42307">
        <ele>1186</ele>
        <time>2023-07-24T05:38:18.000Z</time>
      </trkpt>
      <trkpt lat="42.70958" lon="1.42286">
        <ele>1186.4000244141</ele>
        <time>2023-07-24T05:38:28.000Z</time>
      </trkpt>
      <trkpt lat="42.70958" lon="1.42279">
        <ele>1186.5999755859</ele>
        <time>2023-07-24T05:38:33.000Z</time>
      </trkpt>
      <trkpt lat="42.70956" lon="1.42273">
        <ele>1186.8000488281</ele>
        <time>2023-07-24T05:38:36.000Z</time>
      </trkpt>
      <trkpt lat="42.70955" lon="1.42262">
        <ele>1187.8000488281</ele>
        <time>2023-07-24T05:38:43.000Z</time>
      </trkpt>
      <trkpt lat="42.70952" lon="1.42243">
        <ele>1187.8000488281</ele>
        <time>2023-07-24T05:38:54.000Z</time>
      </trkpt>
      <trkpt lat="42.7095" lon="1.42234">
        <ele>1188</ele>
        <time>2023-07-24T05:39:01.000Z</time>
      </trkpt>
      <trkpt lat="42.70949" lon="1.42217">
        <ele>1188.1999511719</ele>
        <time>2023-07-24T05:39:09.000Z</time>
      </trkpt>
      <trkpt lat="42.7095" lon="1.42203">
        <ele>1188.8000488281</ele>
        <time>2023-07-24T05:39:19.000Z</time>
      </trkpt>
      <trkpt lat="42.70951" lon="1.42195">
        <ele>1189</ele>
        <time>2023-07-24T05:39:24.000Z</time>
      </trkpt>
      <trkpt lat="42.70948" lon="1.42185">
        <ele>1189.1999511719</ele>
        <time>2023-07-24T05:39:33.000Z</time>
      </trkpt>
      <trkpt lat="42.70942" lon="1.42163">
        <ele>1190</ele>
        <time>2023-07-24T05:39:46.000Z</time>
      </trkpt>
      <trkpt lat="42.70942" lon="1.42158">
        <ele>1190.8000488281</ele>
        <time>2023-07-24T05:39:50.000Z</time>
      </trkpt>
      <trkpt lat="42.70944" lon="1.42153">
        <ele>1191.8000488281</ele>
        <time>2023-07-24T05:39:55.000Z</time>
      </trkpt>
      <trkpt lat="42.70931" lon="1.42108">
        <ele>1199.4000244141</ele>
        <time>2023-07-24T05:40:43.000Z</time>
      </trkpt>
      <trkpt lat="42.70924" lon="1.42099">
        <ele>1203.5999755859</ele>
        <time>2023-07-24T05:41:08.000Z</time>
      </trkpt>
      <trkpt lat="42.70932" lon="1.42102">
        <ele>1205.8000488281</ele>
        <time>2023-07-24T05:41:57.000Z</time>
      </trkpt>
      <trkpt lat="42.70937" lon="1.42115">
        <ele>1206.4000244141</ele>
        <time>2023-07-24T05:42:06.000Z</time>
      </trkpt>
      <trkpt lat="42.70937" lon="1.42126">
        <ele>1207</ele>
        <time>2023-07-24T05:42:16.000Z</time>
      </trkpt>
      <trkpt lat="42.70938" lon="1.42133">
        <ele>1207.4000244141</ele>
        <time>2023-07-24T05:42:21.000Z</time>
      </trkpt>
      <trkpt lat="42.70954" lon="1.42151">
        <ele>1210</ele>
        <time>2023-07-24T05:42:39.000Z</time>
      </trkpt>
      <trkpt lat="42.70956" lon="1.42163">
        <ele>1210.4000244141</ele>
        <time>2023-07-24T05:42:46.000Z</time>
      </trkpt>
      <trkpt lat="42.70964" lon="1.42179">
        <ele>1211</ele>
        <time>2023-07-24T05:43:02.000Z</time>
      </trkpt>
      <trkpt lat="42.70973" lon="1.42198">
        <ele>1212</ele>
        <time>2023-07-24T05:43:18.000Z</time>
      </trkpt>
      <trkpt lat="42.70973" lon="1.42198">
        <ele>1212</ele>
        <time>2023-07-24T05:43:19.000Z</time>
      </trkpt>
      <trkpt lat="42.70981" lon="1.42207">
        <ele>1213</ele>
        <time>2023-07-24T05:43:26.000Z</time>
      </trkpt>
      <trkpt lat="42.70982" lon="1.42208">
        <ele>1213</ele>
        <time>2023-07-24T05:43:27.000Z</time>
      </trkpt>
      <trkpt lat="42.70982" lon="1.42219">
        <ele>1213.5999755859</ele>
        <time>2023-07-24T05:43:33.000Z</time>
      </trkpt>
      <trkpt lat="42.70985" lon="1.42233">
        <ele>1213.8000488281</ele>
        <time>2023-07-24T05:43:41.000Z</time>
      </trkpt>
      <trkpt lat="42.70981" lon="1.4225">
        <ele>1213.1999511719</ele>
        <time>2023-07-24T05:43:49.000Z</time>
      </trkpt>
      <trkpt lat="42.70984" lon="1.42262">
        <ele>1212.5999755859</ele>
        <time>2023-07-24T05:43:59.000Z</time>
      </trkpt>
      <trkpt lat="42.70991" lon="1.42267">
        <ele>1212.1999511719</ele>
        <time>2023-07-24T05:44:05.000Z</time>
      </trkpt>
      <trkpt lat="42.70992" lon="1.42269">
        <ele>1212.4000244141</ele>
        <time>2023-07-24T05:44:07.000Z</time>
      </trkpt>
      <trkpt lat="42.70995" lon="1.42272">
        <ele>1212.4000244141</ele>
        <time>2023-07-24T05:44:10.000Z</time>
      </trkpt>
      <trkpt lat="42.70997" lon="1.42278">
        <ele>1213.4000244141</ele>
        <time>2023-07-24T05:44:16.000Z</time>
      </trkpt>
      <trkpt lat="42.70997" lon="1.42285">
        <ele>1214.1999511719</ele>
        <time>2023-07-24T05:44:22.000Z</time>
      </trkpt>
      <trkpt lat="42.70997" lon="1.42286">
        <ele>1214.4000244141</ele>
        <time>2023-07-24T05:44:23.000Z</time>
      </trkpt>
      <trkpt lat="42.70998" lon="1.42292">
        <ele>1215.1999511719</ele>
        <time>2023-07-24T05:44:28.000Z</time>
      </trkpt>
      <trkpt lat="42.70999" lon="1.42294">
        <ele>1215.8000488281</ele>
        <time>2023-07-24T05:44:31.000Z</time>
      </trkpt>
      <trkpt lat="42.71001" lon="1.42299">
        <ele>1216.4000244141</ele>
        <time>2023-07-24T05:44:35.000Z</time>
      </trkpt>
      <trkpt lat="42.71002" lon="1.423">
        <ele>1217</ele>
        <time>2023-07-24T05:44:39.000Z</time>
      </trkpt>
      <trkpt lat="42.71002" lon="1.42302">
        <ele>1217.4000244141</ele>
        <time>2023-07-24T05:44:43.000Z</time>
      </trkpt>
      <trkpt lat="42.71003" lon="1.42302">
        <ele>1218.1999511719</ele>
        <time>2023-07-24T05:44:50.000Z</time>
      </trkpt>
      <trkpt lat="42.71016" lon="1.42307">
        <ele>1219.4000244141</ele>
        <time>2023-07-24T05:45:29.000Z</time>
      </trkpt>
      <trkpt lat="42.71016" lon="1.4231">
        <ele>1220.8000488281</ele>
        <time>2023-07-24T05:45:51.000Z</time>
      </trkpt>
      <trkpt lat="42.71012" lon="1.42317">
        <ele>1220.8000488281</ele>
        <time>2023-07-24T05:46:01.000Z</time>
      </trkpt>
      <trkpt lat="42.71012" lon="1.42317">
        <ele>1220.5999755859</ele>
        <time>2023-07-24T05:46:09.000Z</time>
      </trkpt>
      <trkpt lat="42.71015" lon="1.42316">
        <ele>1220.4000244141</ele>
        <time>2023-07-24T05:46:18.000Z</time>
      </trkpt>
      <trkpt lat="42.71014" lon="1.42313">
        <ele>1220.1999511719</ele>
        <time>2023-07-24T05:46:25.000Z</time>
      </trkpt>
      <trkpt lat="42.71008" lon="1.42306">
        <ele>1220.8000488281</ele>
        <time>2023-07-24T05:46:31.000Z</time>
      </trkpt>
      <trkpt lat="42.71008" lon="1.42301">
        <ele>1221.5999755859</ele>
        <time>2023-07-24T05:46:37.000Z</time>
      </trkpt>
      <trkpt lat="42.71006" lon="1.42296">
        <ele>1222.8000488281</ele>
        <time>2023-07-24T05:46:44.000Z</time>
      </trkpt>
      <trkpt lat="42.71005" lon="1.42295">
        <ele>1222.8000488281</ele>
        <time>2023-07-24T05:46:45.000Z</time>
      </trkpt>
      <trkpt lat="42.71004" lon="1.42286">
        <ele>1223.8000488281</ele>
        <time>2023-07-24T05:46:53.000Z</time>
      </trkpt>
      <trkpt lat="42.71004" lon="1.42278">
        <ele>1224.5999755859</ele>
        <time>2023-07-24T05:47:00.000Z</time>
      </trkpt>
      <trkpt lat="42.71004" lon="1.42277">
        <ele>1224.8000488281</ele>
        <time>2023-07-24T05:47:02.000Z</time>
      </trkpt>
      <trkpt lat="42.71004" lon="1.42273">
        <ele>1225.4000244141</ele>
        <time>2023-07-24T05:47:07.000Z</time>
      </trkpt>
      <trkpt lat="42.71005" lon="1.42268">
        <ele>1226</ele>
        <time>2023-07-24T05:47:12.000Z</time>
      </trkpt>
      <trkpt lat="42.71005" lon="1.42266">
        <ele>1226.4000244141</ele>
        <time>2023-07-24T05:47:15.000Z</time>
      </trkpt>
      <trkpt lat="42.71006" lon="1.42261">
        <ele>1227</ele>
        <time>2023-07-24T05:47:20.000Z</time>
      </trkpt>
      <trkpt lat="42.71006" lon="1.42258">
        <ele>1227.1999511719</ele>
        <time>2023-07-24T05:47:23.000Z</time>
      </trkpt>
      <trkpt lat="42.71007" lon="1.42254">
        <ele>1228</ele>
        <time>2023-07-24T05:47:29.000Z</time>
      </trkpt>
      <trkpt lat="42.71008" lon="1.42251">
        <ele>1228.4000244141</ele>
        <time>2023-07-24T05:47:32.000Z</time>
      </trkpt>
      <trkpt lat="42.71009" lon="1.42248">
        <ele>1229.1999511719</ele>
        <time>2023-07-24T05:47:39.000Z</time>
      </trkpt>
      <trkpt lat="42.71009" lon="1.42246">
        <ele>1229.4000244141</ele>
        <time>2023-07-24T05:47:41.000Z</time>
      </trkpt>
      <trkpt lat="42.7101" lon="1.42241">
        <ele>1230.1999511719</ele>
        <time>2023-07-24T05:47:48.000Z</time>
      </trkpt>
      <trkpt lat="42.7101" lon="1.4224">
        <ele>1230.1999511719</ele>
        <time>2023-07-24T05:47:49.000Z</time>
      </trkpt>
      <trkpt lat="42.71008" lon="1.42234">
        <ele>1231.1999511719</ele>
        <time>2023-07-24T05:47:57.000Z</time>
      </trkpt>
      <trkpt lat="42.71008" lon="1.42233">
        <ele>1231.1999511719</ele>
        <time>2023-07-24T05:47:58.000Z</time>
      </trkpt>
      <trkpt lat="42.71009" lon="1.42227">
        <ele>1232.4000244141</ele>
        <time>2023-07-24T05:48:07.000Z</time>
      </trkpt>
      <trkpt lat="42.71009" lon="1.42226">
        <ele>1232.4000244141</ele>
        <time>2023-07-24T05:48:08.000Z</time>
      </trkpt>
      <trkpt lat="42.71009" lon="1.42222">
        <ele>1233.4000244141</ele>
        <time>2023-07-24T05:48:15.000Z</time>
      </trkpt>
      <trkpt lat="42.71011" lon="1.42217">
        <ele>1234.4000244141</ele>
        <time>2023-07-24T05:48:22.000Z</time>
      </trkpt>
      <trkpt lat="42.71012" lon="1.42215">
        <ele>1234.8000488281</ele>
        <time>2023-07-24T05:48:25.000Z</time>
      </trkpt>
      <trkpt lat="42.71013" lon="1.42213">
        <ele>1235.4000244141</ele>
        <time>2023-07-24T05:48:29.000Z</time>
      </trkpt>
      <trkpt lat="42.71014" lon="1.42211">
        <ele>1236.1999511719</ele>
        <time>2023-07-24T05:48:33.000Z</time>
      </trkpt>
      <trkpt lat="42.71014" lon="1.42211">
        <ele>1236.4000244141</ele>
        <time>2023-07-24T05:48:35.000Z</time>
      </trkpt>
      <trkpt lat="42.71022" lon="1.42203">
        <ele>1239</ele>
        <time>2023-07-24T05:48:49.000Z</time>
      </trkpt>
      <trkpt lat="42.71021" lon="1.42202">
        <ele>1239.8000488281</ele>
        <time>2023-07-24T05:48:53.000Z</time>
      </trkpt>
      <trkpt lat="42.71022" lon="1.42199">
        <ele>1240.5999755859</ele>
        <time>2023-07-24T05:48:58.000Z</time>
      </trkpt>
      <trkpt lat="42.71022" lon="1.42198">
        <ele>1240.8000488281</ele>
        <time>2023-07-24T05:48:59.000Z</time>
      </trkpt>
      <trkpt lat="42.71024" lon="1.42195">
        <ele>1242</ele>
        <time>2023-07-24T05:49:05.000Z</time>
      </trkpt>
      <trkpt lat="42.71025" lon="1.42192">
        <ele>1242.1999511719</ele>
        <time>2023-07-24T05:49:07.000Z</time>
      </trkpt>
      <trkpt lat="42.71027" lon="1.42186">
        <ele>1243</ele>
        <time>2023-07-24T05:49:11.000Z</time>
      </trkpt>
      <trkpt lat="42.71031" lon="1.4218">
        <ele>1244</ele>
        <time>2023-07-24T05:49:16.000Z</time>
      </trkpt>
      <trkpt lat="42.71032" lon="1.42178">
        <ele>1244.1999511719</ele>
        <time>2023-07-24T05:49:17.000Z</time>
      </trkpt>
      <trkpt lat="42.71032" lon="1.42172">
        <ele>1245.4000244141</ele>
        <time>2023-07-24T05:49:23.000Z</time>
      </trkpt>
      <trkpt lat="42.71032" lon="1.4217">
        <ele>1245.8000488281</ele>
        <time>2023-07-24T05:49:25.000Z</time>
      </trkpt>
      <trkpt lat="42.71032" lon="1.42169">
        <ele>1246.4000244141</ele>
        <time>2023-07-24T05:49:28.000Z</time>
      </trkpt>
      <trkpt lat="42.71029" lon="1.42171">
        <ele>1247.5999755859</ele>
        <time>2023-07-24T05:49:33.000Z</time>
      </trkpt>
      <trkpt lat="42.71028" lon="1.4217">
        <ele>1248.5999755859</ele>
        <time>2023-07-24T05:49:39.000Z</time>
      </trkpt>
      <trkpt lat="42.71028" lon="1.42167">
        <ele>1249.4000244141</ele>
        <time>2023-07-24T05:49:43.000Z</time>
      </trkpt>
      <trkpt lat="42.71029" lon="1.42165">
        <ele>1250.8000488281</ele>
        <time>2023-07-24T05:49:50.000Z</time>
      </trkpt>
      <trkpt lat="42.71029" lon="1.42165">
        <ele>1251.4000244141</ele>
        <time>2023-07-24T05:49:53.000Z</time>
      </trkpt>
      <trkpt lat="42.71028" lon="1.42166">
        <ele>1251.8000488281</ele>
        <time>2023-07-24T05:49:55.000Z</time>
      </trkpt>
      <trkpt lat="42.71026" lon="1.42166">
        <ele>1253</ele>
        <time>2023-07-24T05:50:01.000Z</time>
      </trkpt>
      <trkpt lat="42.71025" lon="1.42166">
        <ele>1253.5999755859</ele>
        <time>2023-07-24T05:50:04.000Z</time>
      </trkpt>
      <trkpt lat="42.71025" lon="1.42166">
        <ele>1254.1999511719</ele>
        <time>2023-07-24T05:50:07.000Z</time>
      </trkpt>
      <trkpt lat="42.71026" lon="1.42161">
        <ele>1255</ele>
        <time>2023-07-24T05:50:11.000Z</time>
      </trkpt>
      <trkpt lat="42.71027" lon="1.42159">
        <ele>1255.1999511719</ele>
        <time>2023-07-24T05:50:13.000Z</time>
      </trkpt>
      <trkpt lat="42.71029" lon="1.42156">
        <ele>1256</ele>
        <time>2023-07-24T05:50:19.000Z</time>
      </trkpt>
      <trkpt lat="42.71032" lon="1.42156">
        <ele>1257.4000244141</ele>
        <time>2023-07-24T05:50:28.000Z</time>
      </trkpt>
      <trkpt lat="42.71028" lon="1.42155">
        <ele>1258.5999755859</ele>
        <time>2023-07-24T05:50:35.000Z</time>
      </trkpt>
      <trkpt lat="42.71028" lon="1.42152">
        <ele>1259</ele>
        <time>2023-07-24T05:50:39.000Z</time>
      </trkpt>
      <trkpt lat="42.71028" lon="1.42149">
        <ele>1259.5999755859</ele>
        <time>2023-07-24T05:50:42.000Z</time>
      </trkpt>
      <trkpt lat="42.71027" lon="1.42139">
        <ele>1261.4000244141</ele>
        <time>2023-07-24T05:50:56.000Z</time>
      </trkpt>
      <trkpt lat="42.71027" lon="1.42138">
        <ele>1261.8000488281</ele>
        <time>2023-07-24T05:50:58.000Z</time>
      </trkpt>
      <trkpt lat="42.71027" lon="1.42136">
        <ele>1262.5999755859</ele>
        <time>2023-07-24T05:51:05.000Z</time>
      </trkpt>
      <trkpt lat="42.71027" lon="1.42136">
        <ele>1262.8000488281</ele>
        <time>2023-07-24T05:51:06.000Z</time>
      </trkpt>
      <trkpt lat="42.71031" lon="1.42123">
        <ele>1263.5999755859</ele>
        <time>2023-07-24T05:51:14.000Z</time>
      </trkpt>
      <trkpt lat="42.71032" lon="1.4212">
        <ele>1263.8000488281</ele>
        <time>2023-07-24T05:51:16.000Z</time>
      </trkpt>
      <trkpt lat="42.71035" lon="1.42109">
        <ele>1264.4000244141</ele>
        <time>2023-07-24T05:51:22.000Z</time>
      </trkpt>
      <trkpt lat="42.71036" lon="1.42103">
        <ele>1265</ele>
        <time>2023-07-24T05:51:27.000Z</time>
      </trkpt>
      <trkpt lat="42.71037" lon="1.42109">
        <ele>1266</ele>
        <time>2023-07-24T05:51:35.000Z</time>
      </trkpt>
      <trkpt lat="42.71037" lon="1.42109">
        <ele>1266</ele>
        <time>2023-07-24T05:51:36.000Z</time>
      </trkpt>
      <trkpt lat="42.71035" lon="1.42108">
        <ele>1267</ele>
        <time>2023-07-24T05:51:43.000Z</time>
      </trkpt>
      <trkpt lat="42.71035" lon="1.42108">
        <ele>1267</ele>
        <time>2023-07-24T05:51:44.000Z</time>
      </trkpt>
      <trkpt lat="42.71032" lon="1.42105">
        <ele>1268.1999511719</ele>
        <time>2023-07-24T05:51:53.000Z</time>
      </trkpt>
      <trkpt lat="42.71032" lon="1.42104">
        <ele>1268.4000244141</ele>
        <time>2023-07-24T05:51:54.000Z</time>
      </trkpt>
      <trkpt lat="42.7103" lon="1.42099">
        <ele>1269.1999511719</ele>
        <time>2023-07-24T05:52:01.000Z</time>
      </trkpt>
      <trkpt lat="42.7103" lon="1.42096">
        <ele>1269.4000244141</ele>
        <time>2023-07-24T05:52:03.000Z</time>
      </trkpt>
      <trkpt lat="42.71031" lon="1.42092">
        <ele>1270.1999511719</ele>
        <time>2023-07-24T05:52:10.000Z</time>
      </trkpt>
      <trkpt lat="42.71031" lon="1.42091">
        <ele>1270.5999755859</ele>
        <time>2023-07-24T05:52:13.000Z</time>
      </trkpt>
      <trkpt lat="42.71031" lon="1.42086">
        <ele>1271.1999511719</ele>
        <time>2023-07-24T05:52:17.000Z</time>
      </trkpt>
      <trkpt lat="42.71033" lon="1.42084">
        <ele>1272</ele>
        <time>2023-07-24T05:52:22.000Z</time>
      </trkpt>
      <trkpt lat="42.71034" lon="1.42083">
        <ele>1272.4000244141</ele>
        <time>2023-07-24T05:52:25.000Z</time>
      </trkpt>
      <trkpt lat="42.71036" lon="1.42076">
        <ele>1273.4000244141</ele>
        <time>2023-07-24T05:52:31.000Z</time>
      </trkpt>
      <trkpt lat="42.71038" lon="1.4207">
        <ele>1274.4000244141</ele>
        <time>2023-07-24T05:52:38.000Z</time>
      </trkpt>
      <trkpt lat="42.71039" lon="1.42068">
        <ele>1274.5999755859</ele>
        <time>2023-07-24T05:52:40.000Z</time>
      </trkpt>
      <trkpt lat="42.71041" lon="1.42064">
        <ele>1275.4000244141</ele>
        <time>2023-07-24T05:52:44.000Z</time>
      </trkpt>
      <trkpt lat="42.71041" lon="1.42062">
        <ele>1276</ele>
        <time>2023-07-24T05:52:48.000Z</time>
      </trkpt>
      <trkpt lat="42.71041" lon="1.42059">
        <ele>1276.4000244141</ele>
        <time>2023-07-24T05:52:51.000Z</time>
      </trkpt>
      <trkpt lat="42.71041" lon="1.42053">
        <ele>1277.4000244141</ele>
        <time>2023-07-24T05:52:58.000Z</time>
      </trkpt>
      <trkpt lat="42.71041" lon="1.42052">
        <ele>1277.5999755859</ele>
        <time>2023-07-24T05:52:59.000Z</time>
      </trkpt>
      <trkpt lat="42.71042" lon="1.42047">
        <ele>1278.5999755859</ele>
        <time>2023-07-24T05:53:06.000Z</time>
      </trkpt>
      <trkpt lat="42.71042" lon="1.42045">
        <ele>1279</ele>
        <time>2023-07-24T05:53:08.000Z</time>
      </trkpt>
      <trkpt lat="42.71043" lon="1.42043">
        <ele>1279.8000488281</ele>
        <time>2023-07-24T05:53:13.000Z</time>
      </trkpt>
      <trkpt lat="42.71044" lon="1.4204">
        <ele>1280.1999511719</ele>
        <time>2023-07-24T05:53:17.000Z</time>
      </trkpt>
      <trkpt lat="42.71044" lon="1.42037">
        <ele>1280.8000488281</ele>
        <time>2023-07-24T05:53:20.000Z</time>
      </trkpt>
      <trkpt lat="42.71046" lon="1.42034">
        <ele>1281.8000488281</ele>
        <time>2023-07-24T05:53:26.000Z</time>
      </trkpt>
      <trkpt lat="42.71046" lon="1.42033">
        <ele>1282</ele>
        <time>2023-07-24T05:53:27.000Z</time>
      </trkpt>
      <trkpt lat="42.71046" lon="1.42027">
        <ele>1283</ele>
        <time>2023-07-24T05:53:34.000Z</time>
      </trkpt>
      <trkpt lat="42.71047" lon="1.42022">
        <ele>1284</ele>
        <time>2023-07-24T05:53:40.000Z</time>
      </trkpt>
      <trkpt lat="42.71048" lon="1.42019">
        <ele>1284.5999755859</ele>
        <time>2023-07-24T05:53:43.000Z</time>
      </trkpt>
      <trkpt lat="42.71049" lon="1.42017">
        <ele>1285.1999511719</ele>
        <time>2023-07-24T05:53:46.000Z</time>
      </trkpt>
      <trkpt lat="42.71051" lon="1.42016">
        <ele>1286.1999511719</ele>
        <time>2023-07-24T05:53:51.000Z</time>
      </trkpt>
      <trkpt lat="42.71051" lon="1.42015">
        <ele>1286.4000244141</ele>
        <time>2023-07-24T05:53:52.000Z</time>
      </trkpt>
      <trkpt lat="42.71053" lon="1.42013">
        <ele>1287.1999511719</ele>
        <time>2023-07-24T05:53:57.000Z</time>
      </trkpt>
      <trkpt lat="42.71052" lon="1.42012">
        <ele>1288</ele>
        <time>2023-07-24T05:54:01.000Z</time>
      </trkpt>
      <trkpt lat="42.71052" lon="1.42011">
        <ele>1288.1999511719</ele>
        <time>2023-07-24T05:54:04.000Z</time>
      </trkpt>
      <trkpt lat="42.71053" lon="1.42007">
        <ele>1289.4000244141</ele>
        <time>2023-07-24T05:54:10.000Z</time>
      </trkpt>
      <trkpt lat="42.71053" lon="1.42004">
        <ele>1290.4000244141</ele>
        <time>2023-07-24T05:54:16.000Z</time>
      </trkpt>
      <trkpt lat="42.71054" lon="1.42002">
        <ele>1290.8000488281</ele>
        <time>2023-07-24T05:54:19.000Z</time>
      </trkpt>
      <trkpt lat="42.71055" lon="1.41998">
        <ele>1291.5999755859</ele>
        <time>2023-07-24T05:54:23.000Z</time>
      </trkpt>
      <trkpt lat="42.71055" lon="1.41995">
        <ele>1292</ele>
        <time>2023-07-24T05:54:26.000Z</time>
      </trkpt>
      <trkpt lat="42.71056" lon="1.41992">
        <ele>1292.5999755859</ele>
        <time>2023-07-24T05:54:29.000Z</time>
      </trkpt>
      <trkpt lat="42.71056" lon="1.41989">
        <ele>1293.4000244141</ele>
        <time>2023-07-24T05:54:34.000Z</time>
      </trkpt>
      <trkpt lat="42.71057" lon="1.41988">
        <ele>1293.5999755859</ele>
        <time>2023-07-24T05:54:36.000Z</time>
      </trkpt>
      <trkpt lat="42.71059" lon="1.41986">
        <ele>1294.8000488281</ele>
        <time>2023-07-24T05:54:42.000Z</time>
      </trkpt>
      <trkpt lat="42.71058" lon="1.41983">
        <ele>1295.8000488281</ele>
        <time>2023-07-24T05:54:48.000Z</time>
      </trkpt>
      <trkpt lat="42.71059" lon="1.41981">
        <ele>1296.4000244141</ele>
        <time>2023-07-24T05:54:50.000Z</time>
      </trkpt>
      <trkpt lat="42.71059" lon="1.41978">
        <ele>1296.8000488281</ele>
        <time>2023-07-24T05:54:53.000Z</time>
      </trkpt>
      <trkpt lat="42.7106" lon="1.41972">
        <ele>1298</ele>
        <time>2023-07-24T05:55:01.000Z</time>
      </trkpt>
      <trkpt lat="42.71061" lon="1.41968">
        <ele>1299</ele>
        <time>2023-07-24T05:55:09.000Z</time>
      </trkpt>
      <trkpt lat="42.71062" lon="1.41966">
        <ele>1299.4000244141</ele>
        <time>2023-07-24T05:55:11.000Z</time>
      </trkpt>
      <trkpt lat="42.71064" lon="1.41963">
        <ele>1300.1999511719</ele>
        <time>2023-07-24T05:55:16.000Z</time>
      </trkpt>
      <trkpt lat="42.71066" lon="1.41961">
        <ele>1300.8000488281</ele>
        <time>2023-07-24T05:55:20.000Z</time>
      </trkpt>
      <trkpt lat="42.71067" lon="1.41957">
        <ele>1301.4000244141</ele>
        <time>2023-07-24T05:55:24.000Z</time>
      </trkpt>
      <trkpt lat="42.71066" lon="1.41953">
        <ele>1302</ele>
        <time>2023-07-24T05:55:28.000Z</time>
      </trkpt>
      <trkpt lat="42.71066" lon="1.4195">
        <ele>1302.4000244141</ele>
        <time>2023-07-24T05:55:31.000Z</time>
      </trkpt>
      <trkpt lat="42.71066" lon="1.41943">
        <ele>1303.5999755859</ele>
        <time>2023-07-24T05:55:38.000Z</time>
      </trkpt>
      <trkpt lat="42.71066" lon="1.41938">
        <ele>1304.5999755859</ele>
        <time>2023-07-24T05:55:45.000Z</time>
      </trkpt>
      <trkpt lat="42.71066" lon="1.41935">
        <ele>1305</ele>
        <time>2023-07-24T05:55:48.000Z</time>
      </trkpt>
      <trkpt lat="42.71066" lon="1.41933">
        <ele>1305.8000488281</ele>
        <time>2023-07-24T05:55:53.000Z</time>
      </trkpt>
      <trkpt lat="42.71067" lon="1.41932">
        <ele>1306.1999511719</ele>
        <time>2023-07-24T05:55:57.000Z</time>
      </trkpt>
      <trkpt lat="42.71068" lon="1.41926">
        <ele>1306.8000488281</ele>
        <time>2023-07-24T05:56:02.000Z</time>
      </trkpt>
      <trkpt lat="42.71068" lon="1.41925">
        <ele>1307.1999511719</ele>
        <time>2023-07-24T05:56:05.000Z</time>
      </trkpt>
      <trkpt lat="42.71069" lon="1.41922">
        <ele>1307.8000488281</ele>
        <time>2023-07-24T05:56:10.000Z</time>
      </trkpt>
      <trkpt lat="42.7107" lon="1.41919">
        <ele>1308.5999755859</ele>
        <time>2023-07-24T05:56:15.000Z</time>
      </trkpt>
      <trkpt lat="42.71071" lon="1.41917">
        <ele>1309</ele>
        <time>2023-07-24T05:56:18.000Z</time>
      </trkpt>
      <trkpt lat="42.71071" lon="1.41914">
        <ele>1310</ele>
        <time>2023-07-24T05:56:24.000Z</time>
      </trkpt>
      <trkpt lat="42.71071" lon="1.41911">
        <ele>1310.5999755859</ele>
        <time>2023-07-24T05:56:27.000Z</time>
      </trkpt>
      <trkpt lat="42.71071" lon="1.41907">
        <ele>1311</ele>
        <time>2023-07-24T05:56:30.000Z</time>
      </trkpt>
      <trkpt lat="42.71071" lon="1.41904">
        <ele>1311.5999755859</ele>
        <time>2023-07-24T05:56:35.000Z</time>
      </trkpt>
      <trkpt lat="42.71071" lon="1.41904">
        <ele>1312</ele>
        <time>2023-07-24T05:56:41.000Z</time>
      </trkpt>
      <trkpt lat="42.71073" lon="1.41901">
        <ele>1312.4000244141</ele>
        <time>2023-07-24T05:56:44.000Z</time>
      </trkpt>
      <trkpt lat="42.71074" lon="1.41897">
        <ele>1313.1999511719</ele>
        <time>2023-07-24T05:56:49.000Z</time>
      </trkpt>
      <trkpt lat="42.71075" lon="1.41896">
        <ele>1313.4000244141</ele>
        <time>2023-07-24T05:56:51.000Z</time>
      </trkpt>
      <trkpt lat="42.71076" lon="1.41893">
        <ele>1314.1999511719</ele>
        <time>2023-07-24T05:56:56.000Z</time>
      </trkpt>
      <trkpt lat="42.71076" lon="1.41891">
        <ele>1315</ele>
        <time>2023-07-24T05:57:01.000Z</time>
      </trkpt>
      <trkpt lat="42.71075" lon="1.41892">
        <ele>1315.4000244141</ele>
        <time>2023-07-24T05:57:03.000Z</time>
      </trkpt>
      <trkpt lat="42.71075" lon="1.41893">
        <ele>1316.1999511719</ele>
        <time>2023-07-24T05:57:08.000Z</time>
      </trkpt>
      <trkpt lat="42.71075" lon="1.41892">
        <ele>1316.4000244141</ele>
        <time>2023-07-24T05:57:09.000Z</time>
      </trkpt>
      <trkpt lat="42.71076" lon="1.41891">
        <ele>1317</ele>
        <time>2023-07-24T05:57:14.000Z</time>
      </trkpt>
      <trkpt lat="42.71076" lon="1.41889">
        <ele>1317.4000244141</ele>
        <time>2023-07-24T05:57:17.000Z</time>
      </trkpt>
      <trkpt lat="42.71077" lon="1.41884">
        <ele>1318.1999511719</ele>
        <time>2023-07-24T05:57:22.000Z</time>
      </trkpt>
      <trkpt lat="42.71077" lon="1.41882">
        <ele>1318.5999755859</ele>
        <time>2023-07-24T05:57:24.000Z</time>
      </trkpt>
      <trkpt lat="42.71079" lon="1.41878">
        <ele>1319.4000244141</ele>
        <time>2023-07-24T05:57:30.000Z</time>
      </trkpt>
      <trkpt lat="42.71079" lon="1.41877">
        <ele>1319.5999755859</ele>
        <time>2023-07-24T05:57:32.000Z</time>
      </trkpt>
      <trkpt lat="42.71083" lon="1.41874">
        <ele>1320.8000488281</ele>
        <time>2023-07-24T05:57:39.000Z</time>
      </trkpt>
      <trkpt lat="42.71086" lon="1.41871">
        <ele>1321.8000488281</ele>
        <time>2023-07-24T05:57:47.000Z</time>
      </trkpt>
      <trkpt lat="42.71087" lon="1.41871">
        <ele>1322</ele>
        <time>2023-07-24T05:57:48.000Z</time>
      </trkpt>
      <trkpt lat="42.71088" lon="1.4187">
        <ele>1322.8000488281</ele>
        <time>2023-07-24T05:57:53.000Z</time>
      </trkpt>
      <trkpt lat="42.71089" lon="1.41869">
        <ele>1323.4000244141</ele>
        <time>2023-07-24T05:57:56.000Z</time>
      </trkpt>
      <trkpt lat="42.7109" lon="1.41867">
        <ele>1323.8000488281</ele>
        <time>2023-07-24T05:58:00.000Z</time>
      </trkpt>
      <trkpt lat="42.7109" lon="1.41865">
        <ele>1324.4000244141</ele>
        <time>2023-07-24T05:58:04.000Z</time>
      </trkpt>
      <trkpt lat="42.7109" lon="1.41862">
        <ele>1325</ele>
        <time>2023-07-24T05:58:07.000Z</time>
      </trkpt>
      <trkpt lat="42.7109" lon="1.4186">
        <ele>1325.4000244141</ele>
        <time>2023-07-24T05:58:10.000Z</time>
      </trkpt>
      <trkpt lat="42.71091" lon="1.41859">
        <ele>1326</ele>
        <time>2023-07-24T05:58:14.000Z</time>
      </trkpt>
      <trkpt lat="42.71092" lon="1.41856">
        <ele>1327.1999511719</ele>
        <time>2023-07-24T05:58:21.000Z</time>
      </trkpt>
      <trkpt lat="42.71092" lon="1.41852">
        <ele>1328.4000244141</ele>
        <time>2023-07-24T05:58:28.000Z</time>
      </trkpt>
      <trkpt lat="42.71092" lon="1.41851">
        <ele>1328.4000244141</ele>
        <time>2023-07-24T05:58:29.000Z</time>
      </trkpt>
      <trkpt lat="42.71094" lon="1.41845">
        <ele>1329.4000244141</ele>
        <time>2023-07-24T05:58:35.000Z</time>
      </trkpt>
      <trkpt lat="42.71095" lon="1.4184">
        <ele>1330</ele>
        <time>2023-07-24T05:58:39.000Z</time>
      </trkpt>
      <trkpt lat="42.71096" lon="1.41839">
        <ele>1330.4000244141</ele>
        <time>2023-07-24T05:58:42.000Z</time>
      </trkpt>
      <trkpt lat="42.71097" lon="1.41838">
        <ele>1331.1999511719</ele>
        <time>2023-07-24T05:58:47.000Z</time>
      </trkpt>
      <trkpt lat="42.71099" lon="1.41836">
        <ele>1331.5999755859</ele>
        <time>2023-07-24T05:58:50.000Z</time>
      </trkpt>
      <trkpt lat="42.711" lon="1.41834">
        <ele>1332.4000244141</ele>
        <time>2023-07-24T05:58:54.000Z</time>
      </trkpt>
      <trkpt lat="42.711" lon="1.41833">
        <ele>1332.8000488281</ele>
        <time>2023-07-24T05:58:57.000Z</time>
      </trkpt>
      <trkpt lat="42.71102" lon="1.4183">
        <ele>1333.8000488281</ele>
        <time>2023-07-24T05:59:03.000Z</time>
      </trkpt>
      <trkpt lat="42.71103" lon="1.41826">
        <ele>1334.8000488281</ele>
        <time>2023-07-24T05:59:09.000Z</time>
      </trkpt>
      <trkpt lat="42.71103" lon="1.41825">
        <ele>1335.1999511719</ele>
        <time>2023-07-24T05:59:11.000Z</time>
      </trkpt>
      <trkpt lat="42.71104" lon="1.41821">
        <ele>1336.1999511719</ele>
        <time>2023-07-24T05:59:16.000Z</time>
      </trkpt>
      <trkpt lat="42.71106" lon="1.41819">
        <ele>1336.5999755859</ele>
        <time>2023-07-24T05:59:20.000Z</time>
      </trkpt>
      <trkpt lat="42.71106" lon="1.41817">
        <ele>1337.1999511719</ele>
        <time>2023-07-24T05:59:23.000Z</time>
      </trkpt>
      <trkpt lat="42.71107" lon="1.41814">
        <ele>1338.1999511719</ele>
        <time>2023-07-24T05:59:29.000Z</time>
      </trkpt>
      <trkpt lat="42.71107" lon="1.41813">
        <ele>1338.4000244141</ele>
        <time>2023-07-24T05:59:30.000Z</time>
      </trkpt>
      <trkpt lat="42.71107" lon="1.41809">
        <ele>1339.4000244141</ele>
        <time>2023-07-24T05:59:35.000Z</time>
      </trkpt>
      <trkpt lat="42.71107" lon="1.41805">
        <ele>1340</ele>
        <time>2023-07-24T05:59:40.000Z</time>
      </trkpt>
      <trkpt lat="42.71107" lon="1.41803">
        <ele>1340.4000244141</ele>
        <time>2023-07-24T05:59:42.000Z</time>
      </trkpt>
      <trkpt lat="42.71107" lon="1.41797">
        <ele>1341.4000244141</ele>
        <time>2023-07-24T05:59:48.000Z</time>
      </trkpt>
      <trkpt lat="42.71107" lon="1.41797">
        <ele>1341.5999755859</ele>
        <time>2023-07-24T05:59:49.000Z</time>
      </trkpt>
      <trkpt lat="42.71108" lon="1.41792">
        <ele>1342.5999755859</ele>
        <time>2023-07-24T05:59:55.000Z</time>
      </trkpt>
      <trkpt lat="42.71108" lon="1.41791">
        <ele>1343</ele>
        <time>2023-07-24T05:59:57.000Z</time>
      </trkpt>
      <trkpt lat="42.71109" lon="1.41789">
        <ele>1343.8000488281</ele>
        <time>2023-07-24T06:00:01.000Z</time>
      </trkpt>
      <trkpt lat="42.71111" lon="1.41788">
        <ele>1344.4000244141</ele>
        <time>2023-07-24T06:00:05.000Z</time>
      </trkpt>
      <trkpt lat="42.71113" lon="1.41788">
        <ele>1344.8000488281</ele>
        <time>2023-07-24T06:00:09.000Z</time>
      </trkpt>
      <trkpt lat="42.71116" lon="1.41782">
        <ele>1345.5999755859</ele>
        <time>2023-07-24T06:00:14.000Z</time>
      </trkpt>
      <trkpt lat="42.71116" lon="1.4178">
        <ele>1346</ele>
        <time>2023-07-24T06:00:17.000Z</time>
      </trkpt>
      <trkpt lat="42.71114" lon="1.41776">
        <ele>1346.1999511719</ele>
        <time>2023-07-24T06:00:23.000Z</time>
      </trkpt>
      <trkpt lat="42.7111" lon="1.41774">
        <ele>1346.4000244141</ele>
        <time>2023-07-24T06:00:32.000Z</time>
      </trkpt>
      <trkpt lat="42.71114" lon="1.41769">
        <ele>1347</ele>
        <time>2023-07-24T06:00:40.000Z</time>
      </trkpt>
      <trkpt lat="42.71115" lon="1.41768">
        <ele>1347.1999511719</ele>
        <time>2023-07-24T06:00:41.000Z</time>
      </trkpt>
      <trkpt lat="42.7112" lon="1.41766">
        <ele>1348</ele>
        <time>2023-07-24T06:00:48.000Z</time>
      </trkpt>
      <trkpt lat="42.7112" lon="1.41765">
        <ele>1348.1999511719</ele>
        <time>2023-07-24T06:00:49.000Z</time>
      </trkpt>
      <trkpt lat="42.71123" lon="1.41763">
        <ele>1349.1999511719</ele>
        <time>2023-07-24T06:00:55.000Z</time>
      </trkpt>
      <trkpt lat="42.71123" lon="1.41762">
        <ele>1349.4000244141</ele>
        <time>2023-07-24T06:00:56.000Z</time>
      </trkpt>
      <trkpt lat="42.71125" lon="1.41757">
        <ele>1350.1999511719</ele>
        <time>2023-07-24T06:01:01.000Z</time>
      </trkpt>
      <trkpt lat="42.71125" lon="1.41755">
        <ele>1350.4000244141</ele>
        <time>2023-07-24T06:01:03.000Z</time>
      </trkpt>
      <trkpt lat="42.71126" lon="1.41748">
        <ele>1351.4000244141</ele>
        <time>2023-07-24T06:01:09.000Z</time>
      </trkpt>
      <trkpt lat="42.71126" lon="1.41746">
        <ele>1351.5999755859</ele>
        <time>2023-07-24T06:01:11.000Z</time>
      </trkpt>
      <trkpt lat="42.71126" lon="1.41743">
        <ele>1352.4000244141</ele>
        <time>2023-07-24T06:01:18.000Z</time>
      </trkpt>
      <trkpt lat="42.71126" lon="1.41742">
        <ele>1352.5999755859</ele>
        <time>2023-07-24T06:01:19.000Z</time>
      </trkpt>
      <trkpt lat="42.71127" lon="1.41736">
        <ele>1353.5999755859</ele>
        <time>2023-07-24T06:01:26.000Z</time>
      </trkpt>
      <trkpt lat="42.71128" lon="1.41735">
        <ele>1354.5999755859</ele>
        <time>2023-07-24T06:01:33.000Z</time>
      </trkpt>
      <trkpt lat="42.71128" lon="1.41735">
        <ele>1354.8000488281</ele>
        <time>2023-07-24T06:01:34.000Z</time>
      </trkpt>
      <trkpt lat="42.71132" lon="1.41729">
        <ele>1355.8000488281</ele>
        <time>2023-07-24T06:01:42.000Z</time>
      </trkpt>
      <trkpt lat="42.71138" lon="1.41722">
        <ele>1356.8000488281</ele>
        <time>2023-07-24T06:01:49.000Z</time>
      </trkpt>
      <trkpt lat="42.7114" lon="1.41717">
        <ele>1357.1999511719</ele>
        <time>2023-07-24T06:01:54.000Z</time>
      </trkpt>
      <trkpt lat="42.71138" lon="1.41718">
        <ele>1357.1999511719</ele>
        <time>2023-07-24T06:02:05.000Z</time>
      </trkpt>
      <trkpt lat="42.71137" lon="1.41719">
        <ele>1357.1999511719</ele>
        <time>2023-07-24T06:02:14.000Z</time>
      </trkpt>
      <trkpt lat="42.71134" lon="1.41723">
        <ele>1357.1999511719</ele>
        <time>2023-07-24T06:02:21.000Z</time>
      </trkpt>
      <trkpt lat="42.71137" lon="1.41715">
        <ele>1357.8000488281</ele>
        <time>2023-07-24T06:02:29.000Z</time>
      </trkpt>
      <trkpt lat="42.71137" lon="1.41713">
        <ele>1358</ele>
        <time>2023-07-24T06:02:31.000Z</time>
      </trkpt>
      <trkpt lat="42.7114" lon="1.41704">
        <ele>1358.8000488281</ele>
        <time>2023-07-24T06:02:37.000Z</time>
      </trkpt>
      <trkpt lat="42.7114" lon="1.41703">
        <ele>1359</ele>
        <time>2023-07-24T06:02:39.000Z</time>
      </trkpt>
      <trkpt lat="42.71143" lon="1.41696">
        <ele>1359.8000488281</ele>
        <time>2023-07-24T06:02:45.000Z</time>
      </trkpt>
      <trkpt lat="42.71146" lon="1.41688">
        <ele>1360</ele>
        <time>2023-07-24T06:02:54.000Z</time>
      </trkpt>
      <trkpt lat="42.71146" lon="1.41687">
        <ele>1360.1999511719</ele>
        <time>2023-07-24T06:02:55.000Z</time>
      </trkpt>
      <trkpt lat="42.71146" lon="1.41672">
        <ele>1360.5999755859</ele>
        <time>2023-07-24T06:03:05.000Z</time>
      </trkpt>
      <trkpt lat="42.71146" lon="1.41657">
        <ele>1361</ele>
        <time>2023-07-24T06:03:12.000Z</time>
      </trkpt>
      <trkpt lat="42.71146" lon="1.41655">
        <ele>1361.1999511719</ele>
        <time>2023-07-24T06:03:14.000Z</time>
      </trkpt>
      <trkpt lat="42.71146" lon="1.41645">
        <ele>1362.4000244141</ele>
        <time>2023-07-24T06:03:21.000Z</time>
      </trkpt>
      <trkpt lat="42.71145" lon="1.41641">
        <ele>1363.4000244141</ele>
        <time>2023-07-24T06:03:29.000Z</time>
      </trkpt>
      <trkpt lat="42.71142" lon="1.41636">
        <ele>1363.5999755859</ele>
        <time>2023-07-24T06:03:37.000Z</time>
      </trkpt>
      <trkpt lat="42.71141" lon="1.41632">
        <ele>1363.5999755859</ele>
        <time>2023-07-24T06:03:44.000Z</time>
      </trkpt>
      <trkpt lat="42.7114" lon="1.41624">
        <ele>1364.4000244141</ele>
        <time>2023-07-24T06:03:53.000Z</time>
      </trkpt>
      <trkpt lat="42.7114" lon="1.41623">
        <ele>1364.4000244141</ele>
        <time>2023-07-24T06:03:54.000Z</time>
      </trkpt>
      <trkpt lat="42.71142" lon="1.41618">
        <ele>1365.4000244141</ele>
        <time>2023-07-24T06:04:00.000Z</time>
      </trkpt>
      <trkpt lat="42.71143" lon="1.41615">
        <ele>1365.8000488281</ele>
        <time>2023-07-24T06:04:03.000Z</time>
      </trkpt>
      <trkpt lat="42.71145" lon="1.41608">
        <ele>1366.5999755859</ele>
        <time>2023-07-24T06:04:07.000Z</time>
      </trkpt>
      <trkpt lat="42.71149" lon="1.41599">
        <ele>1367</ele>
        <time>2023-07-24T06:04:12.000Z</time>
      </trkpt>
      <trkpt lat="42.71154" lon="1.41595">
        <ele>1367</ele>
        <time>2023-07-24T06:04:18.000Z</time>
      </trkpt>
      <trkpt lat="42.71156" lon="1.41592">
        <ele>1367.4000244141</ele>
        <time>2023-07-24T06:04:25.000Z</time>
      </trkpt>
      <trkpt lat="42.71155" lon="1.41591">
        <ele>1367.5999755859</ele>
        <time>2023-07-24T06:04:27.000Z</time>
      </trkpt>
      <trkpt lat="42.71152" lon="1.41586">
        <ele>1368.8000488281</ele>
        <time>2023-07-24T06:04:33.000Z</time>
      </trkpt>
      <trkpt lat="42.71151" lon="1.41584">
        <ele>1369</ele>
        <time>2023-07-24T06:04:34.000Z</time>
      </trkpt>
      <trkpt lat="42.71151" lon="1.4158">
        <ele>1369.8000488281</ele>
        <time>2023-07-24T06:04:38.000Z</time>
      </trkpt>
      <trkpt lat="42.71152" lon="1.41576">
        <ele>1370.8000488281</ele>
        <time>2023-07-24T06:04:44.000Z</time>
      </trkpt>
      <trkpt lat="42.71152" lon="1.41575">
        <ele>1371</ele>
        <time>2023-07-24T06:04:45.000Z</time>
      </trkpt>
      <trkpt lat="42.71152" lon="1.41567">
        <ele>1372.1999511719</ele>
        <time>2023-07-24T06:04:51.000Z</time>
      </trkpt>
      <trkpt lat="42.7115" lon="1.41564">
        <ele>1373.1999511719</ele>
        <time>2023-07-24T06:04:56.000Z</time>
      </trkpt>
      <trkpt lat="42.71149" lon="1.41564">
        <ele>1373.5999755859</ele>
        <time>2023-07-24T06:04:58.000Z</time>
      </trkpt>
      <trkpt lat="42.71147" lon="1.41561">
        <ele>1374.1999511719</ele>
        <time>2023-07-24T06:05:02.000Z</time>
      </trkpt>
      <trkpt lat="42.71146" lon="1.41555">
        <ele>1374.8000488281</ele>
        <time>2023-07-24T06:05:06.000Z</time>
      </trkpt>
      <trkpt lat="42.71145" lon="1.41545">
        <ele>1375.4000244141</ele>
        <time>2023-07-24T06:05:14.000Z</time>
      </trkpt>
      <trkpt lat="42.71146" lon="1.4154">
        <ele>1375.8000488281</ele>
        <time>2023-07-24T06:05:17.000Z</time>
      </trkpt>
      <trkpt lat="42.71148" lon="1.41529">
        <ele>1376.4000244141</ele>
        <time>2023-07-24T06:05:23.000Z</time>
      </trkpt>
      <trkpt lat="42.71149" lon="1.41528">
        <ele>1376.4000244141</ele>
        <time>2023-07-24T06:05:24.000Z</time>
      </trkpt>
      <trkpt lat="42.7115" lon="1.41519">
        <ele>1377.4000244141</ele>
        <time>2023-07-24T06:05:30.000Z</time>
      </trkpt>
      <trkpt lat="42.7115" lon="1.41516">
        <ele>1377.5999755859</ele>
        <time>2023-07-24T06:05:32.000Z</time>
      </trkpt>
      <trkpt lat="42.71148" lon="1.41512">
        <ele>1378.5999755859</ele>
        <time>2023-07-24T06:05:37.000Z</time>
      </trkpt>
      <trkpt lat="42.71145" lon="1.4151">
        <ele>1379.1999511719</ele>
        <time>2023-07-24T06:05:41.000Z</time>
      </trkpt>
      <trkpt lat="42.71144" lon="1.41508">
        <ele>1379.5999755859</ele>
        <time>2023-07-24T06:05:44.000Z</time>
      </trkpt>
      <trkpt lat="42.71142" lon="1.41504">
        <ele>1380.4000244141</ele>
        <time>2023-07-24T06:05:48.000Z</time>
      </trkpt>
      <trkpt lat="42.71142" lon="1.41501">
        <ele>1380.5999755859</ele>
        <time>2023-07-24T06:05:50.000Z</time>
      </trkpt>
      <trkpt lat="42.71143" lon="1.41494">
        <ele>1381.1999511719</ele>
        <time>2023-07-24T06:05:56.000Z</time>
      </trkpt>
      <trkpt lat="42.71145" lon="1.41485">
        <ele>1381.5999755859</ele>
        <time>2023-07-24T06:06:01.000Z</time>
      </trkpt>
      <trkpt lat="42.71145" lon="1.41481">
        <ele>1381.8000488281</ele>
        <time>2023-07-24T06:06:03.000Z</time>
      </trkpt>
      <trkpt lat="42.71148" lon="1.41472">
        <ele>1382.8000488281</ele>
        <time>2023-07-24T06:06:10.000Z</time>
      </trkpt>
      <trkpt lat="42.71149" lon="1.41466">
        <ele>1383.5999755859</ele>
        <time>2023-07-24T06:06:16.000Z</time>
      </trkpt>
      <trkpt lat="42.71151" lon="1.41461">
        <ele>1383.8000488281</ele>
        <time>2023-07-24T06:06:19.000Z</time>
      </trkpt>
      <trkpt lat="42.71153" lon="1.41455">
        <ele>1384.4000244141</ele>
        <time>2023-07-24T06:06:24.000Z</time>
      </trkpt>
      <trkpt lat="42.71156" lon="1.4145">
        <ele>1384.8000488281</ele>
        <time>2023-07-24T06:06:29.000Z</time>
      </trkpt>
      <trkpt lat="42.71157" lon="1.41447">
        <ele>1385.1999511719</ele>
        <time>2023-07-24T06:06:32.000Z</time>
      </trkpt>
      <trkpt lat="42.71159" lon="1.41437">
        <ele>1386</ele>
        <time>2023-07-24T06:06:40.000Z</time>
      </trkpt>
      <trkpt lat="42.71159" lon="1.41435">
        <ele>1386.1999511719</ele>
        <time>2023-07-24T06:06:41.000Z</time>
      </trkpt>
      <trkpt lat="42.7116" lon="1.41429">
        <ele>1387</ele>
        <time>2023-07-24T06:06:47.000Z</time>
      </trkpt>
      <trkpt lat="42.7116" lon="1.41429">
        <ele>1387</ele>
        <time>2023-07-24T06:06:48.000Z</time>
      </trkpt>
      <trkpt lat="42.71162" lon="1.41426">
        <ele>1388</ele>
        <time>2023-07-24T06:06:54.000Z</time>
      </trkpt>
      <trkpt lat="42.71165" lon="1.4142">
        <ele>1389.1999511719</ele>
        <time>2023-07-24T06:07:01.000Z</time>
      </trkpt>
      <trkpt lat="42.71166" lon="1.41414">
        <ele>1389.8000488281</ele>
        <time>2023-07-24T06:07:07.000Z</time>
      </trkpt>
      <trkpt lat="42.71167" lon="1.41407">
        <ele>1390.1999511719</ele>
        <time>2023-07-24T06:07:12.000Z</time>
      </trkpt>
      <trkpt lat="42.71167" lon="1.41402">
        <ele>1390.4000244141</ele>
        <time>2023-07-24T06:07:15.000Z</time>
      </trkpt>
      <trkpt lat="42.71167" lon="1.41395">
        <ele>1390.8000488281</ele>
        <time>2023-07-24T06:07:23.000Z</time>
      </trkpt>
      <trkpt lat="42.71169" lon="1.41381">
        <ele>1390.8000488281</ele>
        <time>2023-07-24T06:07:31.000Z</time>
      </trkpt>
      <trkpt lat="42.71169" lon="1.41371">
        <ele>1391</ele>
        <time>2023-07-24T06:07:38.000Z</time>
      </trkpt>
      <trkpt lat="42.71169" lon="1.41367">
        <ele>1391.1999511719</ele>
        <time>2023-07-24T06:07:41.000Z</time>
      </trkpt>
      <trkpt lat="42.71169" lon="1.41361">
        <ele>1392</ele>
        <time>2023-07-24T06:07:46.000Z</time>
      </trkpt>
      <trkpt lat="42.7117" lon="1.4135">
        <ele>1392</ele>
        <time>2023-07-24T06:07:55.000Z</time>
      </trkpt>
      <trkpt lat="42.71171" lon="1.41338">
        <ele>1391.8000488281</ele>
        <time>2023-07-24T06:08:04.000Z</time>
      </trkpt>
      <trkpt lat="42.71173" lon="1.41328">
        <ele>1392</ele>
        <time>2023-07-24T06:08:14.000Z</time>
      </trkpt>
      <trkpt lat="42.71175" lon="1.41323">
        <ele>1392.4000244141</ele>
        <time>2023-07-24T06:08:17.000Z</time>
      </trkpt>
      <trkpt lat="42.71178" lon="1.41317">
        <ele>1392.8000488281</ele>
        <time>2023-07-24T06:08:22.000Z</time>
      </trkpt>
      <trkpt lat="42.71181" lon="1.41308">
        <ele>1393.4000244141</ele>
        <time>2023-07-24T06:08:28.000Z</time>
      </trkpt>
      <trkpt lat="42.71184" lon="1.41298">
        <ele>1393.4000244141</ele>
        <time>2023-07-24T06:08:37.000Z</time>
      </trkpt>
      <trkpt lat="42.71185" lon="1.41283">
        <ele>1393.4000244141</ele>
        <time>2023-07-24T06:08:45.000Z</time>
      </trkpt>
      <trkpt lat="42.71189" lon="1.41269">
        <ele>1393.4000244141</ele>
        <time>2023-07-24T06:08:53.000Z</time>
      </trkpt>
      <trkpt lat="42.71198" lon="1.41257">
        <ele>1393.4000244141</ele>
        <time>2023-07-24T06:09:01.000Z</time>
      </trkpt>
      <trkpt lat="42.71205" lon="1.41249">
        <ele>1394</ele>
        <time>2023-07-24T06:09:08.000Z</time>
      </trkpt>
      <trkpt lat="42.71206" lon="1.41247">
        <ele>1394.4000244141</ele>
        <time>2023-07-24T06:09:11.000Z</time>
      </trkpt>
      <trkpt lat="42.7121" lon="1.41243">
        <ele>1395.1999511719</ele>
        <time>2023-07-24T06:09:16.000Z</time>
      </trkpt>
      <trkpt lat="42.71211" lon="1.41242">
        <ele>1395.4000244141</ele>
        <time>2023-07-24T06:09:18.000Z</time>
      </trkpt>
      <trkpt lat="42.71218" lon="1.41235">
        <ele>1396</ele>
        <time>2023-07-24T06:09:24.000Z</time>
      </trkpt>
      <trkpt lat="42.71227" lon="1.4123">
        <ele>1396.5999755859</ele>
        <time>2023-07-24T06:09:31.000Z</time>
      </trkpt>
      <trkpt lat="42.71227" lon="1.4123">
        <ele>1396.5999755859</ele>
        <time>2023-07-24T06:09:32.000Z</time>
      </trkpt>
      <trkpt lat="42.71232" lon="1.41226">
        <ele>1397.5999755859</ele>
        <time>2023-07-24T06:09:37.000Z</time>
      </trkpt>
      <trkpt lat="42.71233" lon="1.41225">
        <ele>1397.8000488281</ele>
        <time>2023-07-24T06:09:39.000Z</time>
      </trkpt>
      <trkpt lat="42.71233" lon="1.41221">
        <ele>1398.1999511719</ele>
        <time>2023-07-24T06:09:45.000Z</time>
      </trkpt>
      <trkpt lat="42.71233" lon="1.4122">
        <ele>1398.1999511719</ele>
        <time>2023-07-24T06:09:48.000Z</time>
      </trkpt>
      <trkpt lat="42.7124" lon="1.41213">
        <ele>1398.1999511719</ele>
        <time>2023-07-24T06:09:56.000Z</time>
      </trkpt>
      <trkpt lat="42.7125" lon="1.41207">
        <ele>1398.1999511719</ele>
        <time>2023-07-24T06:10:04.000Z</time>
      </trkpt>
      <trkpt lat="42.71262" lon="1.412">
        <ele>1397.4000244141</ele>
        <time>2023-07-24T06:10:15.000Z</time>
      </trkpt>
      <trkpt lat="42.71269" lon="1.41187">
        <ele>1397.4000244141</ele>
        <time>2023-07-24T06:10:24.000Z</time>
      </trkpt>
      <trkpt lat="42.71267" lon="1.41184">
        <ele>1398.8000488281</ele>
        <time>2023-07-24T06:10:31.000Z</time>
      </trkpt>
      <trkpt lat="42.71266" lon="1.41183">
        <ele>1399</ele>
        <time>2023-07-24T06:10:33.000Z</time>
      </trkpt>
      <trkpt lat="42.71263" lon="1.41181">
        <ele>1400</ele>
        <time>2023-07-24T06:10:38.000Z</time>
      </trkpt>
      <trkpt lat="42.71262" lon="1.41181">
        <ele>1400.4000244141</ele>
        <time>2023-07-24T06:10:40.000Z</time>
      </trkpt>
      <trkpt lat="42.71261" lon="1.41181">
        <ele>1400.5999755859</ele>
        <time>2023-07-24T06:10:41.000Z</time>
      </trkpt>
      <trkpt lat="42.71261" lon="1.4118">
        <ele>1401</ele>
        <time>2023-07-24T06:10:43.000Z</time>
      </trkpt>
      <trkpt lat="42.71258" lon="1.41176">
        <ele>1402</ele>
        <time>2023-07-24T06:10:48.000Z</time>
      </trkpt>
      <trkpt lat="42.71257" lon="1.41171">
        <ele>1403.1999511719</ele>
        <time>2023-07-24T06:10:54.000Z</time>
      </trkpt>
      <trkpt lat="42.71256" lon="1.4117">
        <ele>1403.4000244141</ele>
        <time>2023-07-24T06:10:56.000Z</time>
      </trkpt>
      <trkpt lat="42.71255" lon="1.41169">
        <ele>1404.1999511719</ele>
        <time>2023-07-24T06:11:00.000Z</time>
      </trkpt>
      <trkpt lat="42.71253" lon="1.41168">
        <ele>1404.4000244141</ele>
        <time>2023-07-24T06:11:01.000Z</time>
      </trkpt>
      <trkpt lat="42.71249" lon="1.41168">
        <ele>1405.1999511719</ele>
        <time>2023-07-24T06:11:07.000Z</time>
      </trkpt>
      <trkpt lat="42.71248" lon="1.41169">
        <ele>1405.4000244141</ele>
        <time>2023-07-24T06:11:08.000Z</time>
      </trkpt>
      <trkpt lat="42.71245" lon="1.41169">
        <ele>1406.4000244141</ele>
        <time>2023-07-24T06:11:15.000Z</time>
      </trkpt>
      <trkpt lat="42.71244" lon="1.41168">
        <ele>1406.5999755859</ele>
        <time>2023-07-24T06:11:16.000Z</time>
      </trkpt>
      <trkpt lat="42.7124" lon="1.41162">
        <ele>1407</ele>
        <time>2023-07-24T06:11:23.000Z</time>
      </trkpt>
      <trkpt lat="42.71237" lon="1.41153">
        <ele>1406.8000488281</ele>
        <time>2023-07-24T06:11:30.000Z</time>
      </trkpt>
      <trkpt lat="42.71236" lon="1.41136">
        <ele>1407.1999511719</ele>
        <time>2023-07-24T06:11:37.000Z</time>
      </trkpt>
      <trkpt lat="42.71238" lon="1.41129">
        <ele>1407.4000244141</ele>
        <time>2023-07-24T06:11:43.000Z</time>
      </trkpt>
      <trkpt lat="42.71238" lon="1.41127">
        <ele>1407.5999755859</ele>
        <time>2023-07-24T06:11:45.000Z</time>
      </trkpt>
      <trkpt lat="42.71239" lon="1.4111">
        <ele>1408.1999511719</ele>
        <time>2023-07-24T06:11:54.000Z</time>
      </trkpt>
      <trkpt lat="42.71239" lon="1.41109">
        <ele>1408.5999755859</ele>
        <time>2023-07-24T06:11:56.000Z</time>
      </trkpt>
      <trkpt lat="42.71235" lon="1.41095">
        <ele>1409.4000244141</ele>
        <time>2023-07-24T06:12:05.000Z</time>
      </trkpt>
      <trkpt lat="42.71235" lon="1.41087">
        <ele>1409.5999755859</ele>
        <time>2023-07-24T06:12:11.000Z</time>
      </trkpt>
      <trkpt lat="42.71235" lon="1.41082">
        <ele>1409.8000488281</ele>
        <time>2023-07-24T06:12:14.000Z</time>
      </trkpt>
      <trkpt lat="42.71235" lon="1.41072">
        <ele>1410.4000244141</ele>
        <time>2023-07-24T06:12:21.000Z</time>
      </trkpt>
      <trkpt lat="42.71236" lon="1.41069">
        <ele>1410.5999755859</ele>
        <time>2023-07-24T06:12:23.000Z</time>
      </trkpt>
      <trkpt lat="42.71236" lon="1.41062">
        <ele>1410.8000488281</ele>
        <time>2023-07-24T06:12:27.000Z</time>
      </trkpt>
      <trkpt lat="42.71237" lon="1.41051">
        <ele>1411</ele>
        <time>2023-07-24T06:12:35.000Z</time>
      </trkpt>
      <trkpt lat="42.71238" lon="1.41043">
        <ele>1411.1999511719</ele>
        <time>2023-07-24T06:12:41.000Z</time>
      </trkpt>
      <trkpt lat="42.71244" lon="1.41035">
        <ele>1410.8000488281</ele>
        <time>2023-07-24T06:12:51.000Z</time>
      </trkpt>
      <trkpt lat="42.71251" lon="1.4102">
        <ele>1410.1999511719</ele>
        <time>2023-07-24T06:13:01.000Z</time>
      </trkpt>
      <trkpt lat="42.71254" lon="1.41013">
        <ele>1409.5999755859</ele>
        <time>2023-07-24T06:13:05.000Z</time>
      </trkpt>
      <trkpt lat="42.71255" lon="1.41006">
        <ele>1409</ele>
        <time>2023-07-24T06:13:09.000Z</time>
      </trkpt>
      <trkpt lat="42.71252" lon="1.41002">
        <ele>1409.5999755859</ele>
        <time>2023-07-24T06:13:16.000Z</time>
      </trkpt>
      <trkpt lat="42.71249" lon="1.40998">
        <ele>1410.5999755859</ele>
        <time>2023-07-24T06:13:21.000Z</time>
      </trkpt>
      <trkpt lat="42.71249" lon="1.40995">
        <ele>1411.5999755859</ele>
        <time>2023-07-24T06:13:25.000Z</time>
      </trkpt>
      <trkpt lat="42.71248" lon="1.40995">
        <ele>1411.5999755859</ele>
        <time>2023-07-24T06:13:26.000Z</time>
      </trkpt>
      <trkpt lat="42.71244" lon="1.40989">
        <ele>1412.8000488281</ele>
        <time>2023-07-24T06:13:32.000Z</time>
      </trkpt>
      <trkpt lat="42.7124" lon="1.40982">
        <ele>1414</ele>
        <time>2023-07-24T06:13:39.000Z</time>
      </trkpt>
      <trkpt lat="42.71238" lon="1.40978">
        <ele>1415</ele>
        <time>2023-07-24T06:13:45.000Z</time>
      </trkpt>
      <trkpt lat="42.71238" lon="1.40976">
        <ele>1415.5999755859</ele>
        <time>2023-07-24T06:13:48.000Z</time>
      </trkpt>
      <trkpt lat="42.71237" lon="1.40973">
        <ele>1416</ele>
        <time>2023-07-24T06:13:50.000Z</time>
      </trkpt>
      <trkpt lat="42.71236" lon="1.40966">
        <ele>1417</ele>
        <time>2023-07-24T06:13:56.000Z</time>
      </trkpt>
      <trkpt lat="42.71236" lon="1.40966">
        <ele>1417.1999511719</ele>
        <time>2023-07-24T06:13:57.000Z</time>
      </trkpt>
      <trkpt lat="42.71235" lon="1.40956">
        <ele>1418.1999511719</ele>
        <time>2023-07-24T06:14:05.000Z</time>
      </trkpt>
      <trkpt lat="42.71234" lon="1.40955">
        <ele>1418.1999511719</ele>
        <time>2023-07-24T06:14:06.000Z</time>
      </trkpt>
      <trkpt lat="42.7123" lon="1.40941">
        <ele>1418.1999511719</ele>
        <time>2023-07-24T06:14:15.000Z</time>
      </trkpt>
      <trkpt lat="42.71227" lon="1.40929">
        <ele>1418.4000244141</ele>
        <time>2023-07-24T06:14:22.000Z</time>
      </trkpt>
      <trkpt lat="42.71223" lon="1.40916">
        <ele>1418.8000488281</ele>
        <time>2023-07-24T06:14:31.000Z</time>
      </trkpt>
      <trkpt lat="42.71217" lon="1.40902">
        <ele>1418.8000488281</ele>
        <time>2023-07-24T06:14:40.000Z</time>
      </trkpt>
      <trkpt lat="42.71214" lon="1.40894">
        <ele>1419.1999511719</ele>
        <time>2023-07-24T06:14:46.000Z</time>
      </trkpt>
      <trkpt lat="42.71212" lon="1.40891">
        <ele>1419.5999755859</ele>
        <time>2023-07-24T06:14:49.000Z</time>
      </trkpt>
      <trkpt lat="42.71211" lon="1.40886">
        <ele>1420.1999511719</ele>
        <time>2023-07-24T06:14:53.000Z</time>
      </trkpt>
      <trkpt lat="42.7121" lon="1.40882">
        <ele>1420.8000488281</ele>
        <time>2023-07-24T06:14:56.000Z</time>
      </trkpt>
      <trkpt lat="42.71207" lon="1.40871">
        <ele>1421.4000244141</ele>
        <time>2023-07-24T06:15:03.000Z</time>
      </trkpt>
      <trkpt lat="42.712" lon="1.40862">
        <ele>1422</ele>
        <time>2023-07-24T06:15:12.000Z</time>
      </trkpt>
      <trkpt lat="42.71193" lon="1.4085">
        <ele>1421.8000488281</ele>
        <time>2023-07-24T06:15:21.000Z</time>
      </trkpt>
      <trkpt lat="42.71189" lon="1.40837">
        <ele>1422</ele>
        <time>2023-07-24T06:15:30.000Z</time>
      </trkpt>
      <trkpt lat="42.71184" lon="1.40828">
        <ele>1422.1999511719</ele>
        <time>2023-07-24T06:15:37.000Z</time>
      </trkpt>
      <trkpt lat="42.71181" lon="1.4082">
        <ele>1422</ele>
        <time>2023-07-24T06:15:44.000Z</time>
      </trkpt>
      <trkpt lat="42.71179" lon="1.40815">
        <ele>1422.4000244141</ele>
        <time>2023-07-24T06:15:48.000Z</time>
      </trkpt>
      <trkpt lat="42.71177" lon="1.40812">
        <ele>1422.5999755859</ele>
        <time>2023-07-24T06:15:51.000Z</time>
      </trkpt>
      <trkpt lat="42.71171" lon="1.40805">
        <ele>1423.1999511719</ele>
        <time>2023-07-24T06:15:58.000Z</time>
      </trkpt>
      <trkpt lat="42.71167" lon="1.40793">
        <ele>1423.1999511719</ele>
        <time>2023-07-24T06:16:06.000Z</time>
      </trkpt>
      <trkpt lat="42.71167" lon="1.40784">
        <ele>1423</ele>
        <time>2023-07-24T06:16:14.000Z</time>
      </trkpt>
      <trkpt lat="42.71163" lon="1.40775">
        <ele>1422.1999511719</ele>
        <time>2023-07-24T06:16:22.000Z</time>
      </trkpt>
      <trkpt lat="42.7116" lon="1.40768">
        <ele>1421.4000244141</ele>
        <time>2023-07-24T06:16:29.000Z</time>
      </trkpt>
      <trkpt lat="42.71158" lon="1.40766">
        <ele>1421</ele>
        <time>2023-07-24T06:16:32.000Z</time>
      </trkpt>
      <trkpt lat="42.71154" lon="1.40761">
        <ele>1420.1999511719</ele>
        <time>2023-07-24T06:16:38.000Z</time>
      </trkpt>
      <trkpt lat="42.71153" lon="1.40761">
        <ele>1420</ele>
        <time>2023-07-24T06:16:39.000Z</time>
      </trkpt>
      <trkpt lat="42.71151" lon="1.40756">
        <ele>1419.1999511719</ele>
        <time>2023-07-24T06:16:43.000Z</time>
      </trkpt>
      <trkpt lat="42.71149" lon="1.40752">
        <ele>1419</ele>
        <time>2023-07-24T06:16:46.000Z</time>
      </trkpt>
      <trkpt lat="42.71142" lon="1.40743">
        <ele>1419.1999511719</ele>
        <time>2023-07-24T06:16:55.000Z</time>
      </trkpt>
      <trkpt lat="42.7114" lon="1.40739">
        <ele>1418.1999511719</ele>
        <time>2023-07-24T06:17:02.000Z</time>
      </trkpt>
      <trkpt lat="42.71134" lon="1.40724">
        <ele>1417.8000488281</ele>
        <time>2023-07-24T06:17:12.000Z</time>
      </trkpt>
      <trkpt lat="42.71134" lon="1.40716">
        <ele>1418.5999755859</ele>
        <time>2023-07-24T06:17:21.000Z</time>
      </trkpt>
      <trkpt lat="42.71132" lon="1.40708">
        <ele>1419</ele>
        <time>2023-07-24T06:17:29.000Z</time>
      </trkpt>
      <trkpt lat="42.71131" lon="1.40698">
        <ele>1419</ele>
        <time>2023-07-24T06:17:35.000Z</time>
      </trkpt>
      <trkpt lat="42.7113" lon="1.40692">
        <ele>1418.4000244141</ele>
        <time>2023-07-24T06:17:41.000Z</time>
      </trkpt>
      <trkpt lat="42.71127" lon="1.40684">
        <ele>1417.4000244141</ele>
        <time>2023-07-24T06:17:49.000Z</time>
      </trkpt>
      <trkpt lat="42.71126" lon="1.40682">
        <ele>1417</ele>
        <time>2023-07-24T06:17:51.000Z</time>
      </trkpt>
      <trkpt lat="42.71124" lon="1.40674">
        <ele>1417</ele>
        <time>2023-07-24T06:17:55.000Z</time>
      </trkpt>
      <trkpt lat="42.71124" lon="1.40668">
        <ele>1417</ele>
        <time>2023-07-24T06:18:04.000Z</time>
      </trkpt>
      <trkpt lat="42.71123" lon="1.4066">
        <ele>1416.8000488281</ele>
        <time>2023-07-24T06:18:11.000Z</time>
      </trkpt>
      <trkpt lat="42.7112" lon="1.40647">
        <ele>1416.5999755859</ele>
        <time>2023-07-24T06:18:20.000Z</time>
      </trkpt>
      <trkpt lat="42.71118" lon="1.40643">
        <ele>1417.4000244141</ele>
        <time>2023-07-24T06:18:27.000Z</time>
      </trkpt>
      <trkpt lat="42.71117" lon="1.40638">
        <ele>1418.1999511719</ele>
        <time>2023-07-24T06:18:32.000Z</time>
      </trkpt>
      <trkpt lat="42.71118" lon="1.40636">
        <ele>1418.5999755859</ele>
        <time>2023-07-24T06:18:35.000Z</time>
      </trkpt>
      <trkpt lat="42.71119" lon="1.40632">
        <ele>1419.1999511719</ele>
        <time>2023-07-24T06:18:38.000Z</time>
      </trkpt>
      <trkpt lat="42.7112" lon="1.40626">
        <ele>1420.1999511719</ele>
        <time>2023-07-24T06:18:43.000Z</time>
      </trkpt>
      <trkpt lat="42.7112" lon="1.40626">
        <ele>1420.4000244141</ele>
        <time>2023-07-24T06:18:44.000Z</time>
      </trkpt>
      <trkpt lat="42.7112" lon="1.4062">
        <ele>1421.1999511719</ele>
        <time>2023-07-24T06:18:49.000Z</time>
      </trkpt>
      <trkpt lat="42.71119" lon="1.40615">
        <ele>1421.4000244141</ele>
        <time>2023-07-24T06:18:52.000Z</time>
      </trkpt>
      <trkpt lat="42.71119" lon="1.40608">
        <ele>1421.5999755859</ele>
        <time>2023-07-24T06:18:57.000Z</time>
      </trkpt>
      <trkpt lat="42.7112" lon="1.406">
        <ele>1421.5999755859</ele>
        <time>2023-07-24T06:19:04.000Z</time>
      </trkpt>
      <trkpt lat="42.7112" lon="1.40589">
        <ele>1421.4000244141</ele>
        <time>2023-07-24T06:19:13.000Z</time>
      </trkpt>
      <trkpt lat="42.7112" lon="1.4058">
        <ele>1420.4000244141</ele>
        <time>2023-07-24T06:19:22.000Z</time>
      </trkpt>
      <trkpt lat="42.7112" lon="1.40578">
        <ele>1420.4000244141</ele>
        <time>2023-07-24T06:19:23.000Z</time>
      </trkpt>
      <trkpt lat="42.71119" lon="1.40565">
        <ele>1419.8000488281</ele>
        <time>2023-07-24T06:19:31.000Z</time>
      </trkpt>
      <trkpt lat="42.71118" lon="1.40554">
        <ele>1419.8000488281</ele>
        <time>2023-07-24T06:19:39.000Z</time>
      </trkpt>
      <trkpt lat="42.71118" lon="1.40548">
        <ele>1419.8000488281</ele>
        <time>2023-07-24T06:19:45.000Z</time>
      </trkpt>
      <trkpt lat="42.71118" lon="1.40543">
        <ele>1419.4000244141</ele>
        <time>2023-07-24T06:19:49.000Z</time>
      </trkpt>
      <trkpt lat="42.71117" lon="1.4054">
        <ele>1419</ele>
        <time>2023-07-24T06:19:51.000Z</time>
      </trkpt>
      <trkpt lat="42.71116" lon="1.40537">
        <ele>1418.4000244141</ele>
        <time>2023-07-24T06:19:55.000Z</time>
      </trkpt>
      <trkpt lat="42.71116" lon="1.4053">
        <ele>1417.1999511719</ele>
        <time>2023-07-24T06:20:00.000Z</time>
      </trkpt>
      <trkpt lat="42.71116" lon="1.40528">
        <ele>1417</ele>
        <time>2023-07-24T06:20:01.000Z</time>
      </trkpt>
      <trkpt lat="42.71119" lon="1.4052">
        <ele>1416.5999755859</ele>
        <time>2023-07-24T06:20:06.000Z</time>
      </trkpt>
      <trkpt lat="42.71119" lon="1.40509">
        <ele>1416</ele>
        <time>2023-07-24T06:20:13.000Z</time>
      </trkpt>
      <trkpt lat="42.71119" lon="1.40503">
        <ele>1415.5999755859</ele>
        <time>2023-07-24T06:20:17.000Z</time>
      </trkpt>
      <trkpt lat="42.71121" lon="1.40494">
        <ele>1415</ele>
        <time>2023-07-24T06:20:24.000Z</time>
      </trkpt>
      <trkpt lat="42.71122" lon="1.40491">
        <ele>1415</ele>
        <time>2023-07-24T06:20:27.000Z</time>
      </trkpt>
      <trkpt lat="42.71123" lon="1.40489">
        <ele>1414.8000488281</ele>
        <time>2023-07-24T06:20:30.000Z</time>
      </trkpt>
      <trkpt lat="42.71124" lon="1.4048">
        <ele>1414</ele>
        <time>2023-07-24T06:20:35.000Z</time>
      </trkpt>
      <trkpt lat="42.71124" lon="1.40477">
        <ele>1413.1999511719</ele>
        <time>2023-07-24T06:20:38.000Z</time>
      </trkpt>
      <trkpt lat="42.71125" lon="1.40472">
        <ele>1412.8000488281</ele>
        <time>2023-07-24T06:20:41.000Z</time>
      </trkpt>
      <trkpt lat="42.71127" lon="1.40463">
        <ele>1411.8000488281</ele>
        <time>2023-07-24T06:20:46.000Z</time>
      </trkpt>
      <trkpt lat="42.71127" lon="1.40463">
        <ele>1411.8000488281</ele>
        <time>2023-07-24T06:20:47.000Z</time>
      </trkpt>
      <trkpt lat="42.71128" lon="1.4046">
        <ele>1411.8000488281</ele>
        <time>2023-07-24T06:20:53.000Z</time>
      </trkpt>
      <trkpt lat="42.71133" lon="1.4045">
        <ele>1410.8000488281</ele>
        <time>2023-07-24T06:21:01.000Z</time>
      </trkpt>
      <trkpt lat="42.71133" lon="1.40449">
        <ele>1410.5999755859</ele>
        <time>2023-07-24T06:21:02.000Z</time>
      </trkpt>
      <trkpt lat="42.71137" lon="1.40444">
        <ele>1409.5999755859</ele>
        <time>2023-07-24T06:21:08.000Z</time>
      </trkpt>
      <trkpt lat="42.71138" lon="1.40443">
        <ele>1409.4000244141</ele>
        <time>2023-07-24T06:21:09.000Z</time>
      </trkpt>
      <trkpt lat="42.7114" lon="1.40436">
        <ele>1408.4000244141</ele>
        <time>2023-07-24T06:21:16.000Z</time>
      </trkpt>
      <trkpt lat="42.7114" lon="1.40435">
        <ele>1408</ele>
        <time>2023-07-24T06:21:17.000Z</time>
      </trkpt>
      <trkpt lat="42.7114" lon="1.40429">
        <ele>1407.4000244141</ele>
        <time>2023-07-24T06:21:21.000Z</time>
      </trkpt>
      <trkpt lat="42.7114" lon="1.40424">
        <ele>1406.5999755859</ele>
        <time>2023-07-24T06:21:25.000Z</time>
      </trkpt>
      <trkpt lat="42.71143" lon="1.40417">
        <ele>1406.1999511719</ele>
        <time>2023-07-24T06:21:29.000Z</time>
      </trkpt>
      <trkpt lat="42.71144" lon="1.40414">
        <ele>1406</ele>
        <time>2023-07-24T06:21:33.000Z</time>
      </trkpt>
      <trkpt lat="42.71145" lon="1.40405">
        <ele>1405.4000244141</ele>
        <time>2023-07-24T06:21:41.000Z</time>
      </trkpt>
      <trkpt lat="42.71145" lon="1.40404">
        <ele>1405</ele>
        <time>2023-07-24T06:21:42.000Z</time>
      </trkpt>
      <trkpt lat="42.71151" lon="1.40398">
        <ele>1404</ele>
        <time>2023-07-24T06:21:48.000Z</time>
      </trkpt>
      <trkpt lat="42.71154" lon="1.40396">
        <ele>1403.5999755859</ele>
        <time>2023-07-24T06:21:51.000Z</time>
      </trkpt>
      <trkpt lat="42.71154" lon="1.40394">
        <ele>1402.5999755859</ele>
        <time>2023-07-24T06:21:57.000Z</time>
      </trkpt>
      <trkpt lat="42.71154" lon="1.40393">
        <ele>1402.4000244141</ele>
        <time>2023-07-24T06:21:58.000Z</time>
      </trkpt>
      <trkpt lat="42.71154" lon="1.4039">
        <ele>1401.5999755859</ele>
        <time>2023-07-24T06:22:02.000Z</time>
      </trkpt>
      <trkpt lat="42.71154" lon="1.40388">
        <ele>1401.1999511719</ele>
        <time>2023-07-24T06:22:05.000Z</time>
      </trkpt>
      <trkpt lat="42.71157" lon="1.4039">
        <ele>1400.8000488281</ele>
        <time>2023-07-24T06:22:17.000Z</time>
      </trkpt>
      <trkpt lat="42.71158" lon="1.40392">
        <ele>1400.5999755859</ele>
        <time>2023-07-24T06:22:27.000Z</time>
      </trkpt>
      <trkpt lat="42.71152" lon="1.40393">
        <ele>1400.5999755859</ele>
        <time>2023-07-24T06:22:38.000Z</time>
      </trkpt>
      <trkpt lat="42.71151" lon="1.40394">
        <ele>1400.5999755859</ele>
        <time>2023-07-24T06:22:45.000Z</time>
      </trkpt>
      <trkpt lat="42.71151" lon="1.4039">
        <ele>1400.5999755859</ele>
        <time>2023-07-24T06:22:51.000Z</time>
      </trkpt>
      <trkpt lat="42.71151" lon="1.40388">
        <ele>1400.5999755859</ele>
        <time>2023-07-24T06:22:53.000Z</time>
      </trkpt>
      <trkpt lat="42.71149" lon="1.40389">
        <ele>1399.8000488281</ele>
        <time>2023-07-24T06:22:58.000Z</time>
      </trkpt>
      <trkpt lat="42.71146" lon="1.40387">
        <ele>1399.4000244141</ele>
        <time>2023-07-24T06:23:01.000Z</time>
      </trkpt>
      <trkpt lat="42.71146" lon="1.40385">
        <ele>1399</ele>
        <time>2023-07-24T06:23:04.000Z</time>
      </trkpt>
      <trkpt lat="42.71147" lon="1.40384">
        <ele>1398.4000244141</ele>
        <time>2023-07-24T06:23:06.000Z</time>
      </trkpt>
      <trkpt lat="42.71151" lon="1.4038">
        <ele>1397.5999755859</ele>
        <time>2023-07-24T06:23:10.000Z</time>
      </trkpt>
      <trkpt lat="42.71152" lon="1.40379">
        <ele>1397.4000244141</ele>
        <time>2023-07-24T06:23:11.000Z</time>
      </trkpt>
      <trkpt lat="42.71157" lon="1.40373">
        <ele>1396.1999511719</ele>
        <time>2023-07-24T06:23:18.000Z</time>
      </trkpt>
      <trkpt lat="42.7116" lon="1.4037">
        <ele>1395.8000488281</ele>
        <time>2023-07-24T06:23:22.000Z</time>
      </trkpt>
      <trkpt lat="42.71167" lon="1.40357">
        <ele>1394.8000488281</ele>
        <time>2023-07-24T06:23:36.000Z</time>
      </trkpt>
      <trkpt lat="42.71174" lon="1.4035">
        <ele>1395.4000244141</ele>
        <time>2023-07-24T06:23:43.000Z</time>
      </trkpt>
      <trkpt lat="42.71179" lon="1.40346">
        <ele>1395.8000488281</ele>
        <time>2023-07-24T06:23:49.000Z</time>
      </trkpt>
      <trkpt lat="42.71181" lon="1.40343">
        <ele>1396.1999511719</ele>
        <time>2023-07-24T06:23:52.000Z</time>
      </trkpt>
      <trkpt lat="42.71186" lon="1.40338">
        <ele>1396.5999755859</ele>
        <time>2023-07-24T06:23:56.000Z</time>
      </trkpt>
      <trkpt lat="42.71195" lon="1.40332">
        <ele>1397.1999511719</ele>
        <time>2023-07-24T06:24:05.000Z</time>
      </trkpt>
      <trkpt lat="42.71196" lon="1.40332">
        <ele>1397.1999511719</ele>
        <time>2023-07-24T06:24:06.000Z</time>
      </trkpt>
      <trkpt lat="42.71204" lon="1.4033">
        <ele>1397.8000488281</ele>
        <time>2023-07-24T06:24:12.000Z</time>
      </trkpt>
      <trkpt lat="42.71206" lon="1.40325">
        <ele>1398.1999511719</ele>
        <time>2023-07-24T06:24:16.000Z</time>
      </trkpt>
      <trkpt lat="42.7121" lon="1.40319">
        <ele>1398.5999755859</ele>
        <time>2023-07-24T06:24:20.000Z</time>
      </trkpt>
      <trkpt lat="42.71215" lon="1.40315">
        <ele>1399.4000244141</ele>
        <time>2023-07-24T06:24:28.000Z</time>
      </trkpt>
      <trkpt lat="42.7122" lon="1.40313">
        <ele>1399.4000244141</ele>
        <time>2023-07-24T06:24:32.000Z</time>
      </trkpt>
      <trkpt lat="42.71229" lon="1.40296">
        <ele>1400.1999511719</ele>
        <time>2023-07-24T06:24:45.000Z</time>
      </trkpt>
      <trkpt lat="42.71233" lon="1.40297">
        <ele>1400.4000244141</ele>
        <time>2023-07-24T06:24:48.000Z</time>
      </trkpt>
      <trkpt lat="42.7124" lon="1.40298">
        <ele>1400.5999755859</ele>
        <time>2023-07-24T06:24:52.000Z</time>
      </trkpt>
      <trkpt lat="42.71243" lon="1.40296">
        <ele>1400.5999755859</ele>
        <time>2023-07-24T06:24:54.000Z</time>
      </trkpt>
      <trkpt lat="42.71249" lon="1.40288">
        <ele>1401</ele>
        <time>2023-07-24T06:25:01.000Z</time>
      </trkpt>
      <trkpt lat="42.7125" lon="1.40288">
        <ele>1401.4000244141</ele>
        <time>2023-07-24T06:25:04.000Z</time>
      </trkpt>
      <trkpt lat="42.7125" lon="1.40287">
        <ele>1401.5999755859</ele>
        <time>2023-07-24T06:25:06.000Z</time>
      </trkpt>
      <trkpt lat="42.71248" lon="1.40281">
        <ele>1401.1999511719</ele>
        <time>2023-07-24T06:25:31.000Z</time>
      </trkpt>
      <trkpt lat="42.71251" lon="1.40274">
        <ele>1400.1999511719</ele>
        <time>2023-07-24T06:25:35.000Z</time>
      </trkpt>
      <trkpt lat="42.71251" lon="1.40274">
        <ele>1400.1999511719</ele>
        <time>2023-07-24T06:25:36.000Z</time>
      </trkpt>
      <trkpt lat="42.71255" lon="1.40269">
        <ele>1400</ele>
        <time>2023-07-24T06:25:41.000Z</time>
      </trkpt>
      <trkpt lat="42.71257" lon="1.40258">
        <ele>1399.8000488281</ele>
        <time>2023-07-24T06:25:51.000Z</time>
      </trkpt>
      <trkpt lat="42.71257" lon="1.40251">
        <ele>1399.5999755859</ele>
        <time>2023-07-24T06:25:59.000Z</time>
      </trkpt>
      <trkpt lat="42.71252" lon="1.40258">
        <ele>1399.8000488281</ele>
        <time>2023-07-24T06:26:31.000Z</time>
      </trkpt>
      <trkpt lat="42.71258" lon="1.40252">
        <ele>1399.4000244141</ele>
        <time>2023-07-24T06:26:37.000Z</time>
      </trkpt>
      <trkpt lat="42.71268" lon="1.40241">
        <ele>1399.5999755859</ele>
        <time>2023-07-24T06:26:47.000Z</time>
      </trkpt>
      <trkpt lat="42.71282" lon="1.40231">
        <ele>1403.5999755859</ele>
        <time>2023-07-24T06:27:19.000Z</time>
      </trkpt>
      <trkpt lat="42.71286" lon="1.40225">
        <ele>1404.8000488281</ele>
        <time>2023-07-24T06:27:25.000Z</time>
      </trkpt>
      <trkpt lat="42.71287" lon="1.40224">
        <ele>1405.1999511719</ele>
        <time>2023-07-24T06:27:27.000Z</time>
      </trkpt>
      <trkpt lat="42.71289" lon="1.40223">
        <ele>1406</ele>
        <time>2023-07-24T06:27:30.000Z</time>
      </trkpt>
      <trkpt lat="42.71295" lon="1.40215">
        <ele>1410.5999755859</ele>
        <time>2023-07-24T06:27:58.000Z</time>
      </trkpt>
      <trkpt lat="42.71296" lon="1.40214">
        <ele>1410.5999755859</ele>
        <time>2023-07-24T06:27:59.000Z</time>
      </trkpt>
      <trkpt lat="42.71294" lon="1.4021">
        <ele>1411.8000488281</ele>
        <time>2023-07-24T06:28:05.000Z</time>
      </trkpt>
      <trkpt lat="42.71294" lon="1.40208">
        <ele>1412.1999511719</ele>
        <time>2023-07-24T06:28:07.000Z</time>
      </trkpt>
      <trkpt lat="42.71294" lon="1.40206">
        <ele>1412.8000488281</ele>
        <time>2023-07-24T06:28:10.000Z</time>
      </trkpt>
      <trkpt lat="42.71295" lon="1.40207">
        <ele>1413.8000488281</ele>
        <time>2023-07-24T06:28:16.000Z</time>
      </trkpt>
      <trkpt lat="42.71296" lon="1.40201">
        <ele>1415</ele>
        <time>2023-07-24T06:28:24.000Z</time>
      </trkpt>
      <trkpt lat="42.71298" lon="1.40201">
        <ele>1415.8000488281</ele>
        <time>2023-07-24T06:28:28.000Z</time>
      </trkpt>
      <trkpt lat="42.71298" lon="1.40201">
        <ele>1416</ele>
        <time>2023-07-24T06:28:29.000Z</time>
      </trkpt>
      <trkpt lat="42.71302" lon="1.40198">
        <ele>1417.4000244141</ele>
        <time>2023-07-24T06:28:39.000Z</time>
      </trkpt>
      <trkpt lat="42.71325" lon="1.40185">
        <ele>1422</ele>
        <time>2023-07-24T06:29:13.000Z</time>
      </trkpt>
      <trkpt lat="42.71326" lon="1.40183">
        <ele>1422.5999755859</ele>
        <time>2023-07-24T06:29:15.000Z</time>
      </trkpt>
      <trkpt lat="42.71327" lon="1.40182">
        <ele>1423</ele>
        <time>2023-07-24T06:29:17.000Z</time>
      </trkpt>
      <trkpt lat="42.71329" lon="1.4018">
        <ele>1423.5999755859</ele>
        <time>2023-07-24T06:29:21.000Z</time>
      </trkpt>
      <trkpt lat="42.71334" lon="1.40179">
        <ele>1424.5999755859</ele>
        <time>2023-07-24T06:29:27.000Z</time>
      </trkpt>
      <trkpt lat="42.71335" lon="1.40178">
        <ele>1424.8000488281</ele>
        <time>2023-07-24T06:29:28.000Z</time>
      </trkpt>
      <trkpt lat="42.71377" lon="1.40162">
        <ele>1433.1999511719</ele>
        <time>2023-07-24T06:30:33.000Z</time>
      </trkpt>
      <trkpt lat="42.71378" lon="1.40161">
        <ele>1433.4000244141</ele>
        <time>2023-07-24T06:30:34.000Z</time>
      </trkpt>
      <trkpt lat="42.71394" lon="1.40153">
        <ele>1434.4000244141</ele>
        <time>2023-07-24T06:30:53.000Z</time>
      </trkpt>
      <trkpt lat="42.71397" lon="1.4015">
        <ele>1435.1999511719</ele>
        <time>2023-07-24T06:31:00.000Z</time>
      </trkpt>
      <trkpt lat="42.71402" lon="1.40145">
        <ele>1436.1999511719</ele>
        <time>2023-07-24T06:31:08.000Z</time>
      </trkpt>
      <trkpt lat="42.71402" lon="1.40144">
        <ele>1436.4000244141</ele>
        <time>2023-07-24T06:31:09.000Z</time>
      </trkpt>
      <trkpt lat="42.71405" lon="1.4014">
        <ele>1437</ele>
        <time>2023-07-24T06:31:16.000Z</time>
      </trkpt>
      <trkpt lat="42.71405" lon="1.40138">
        <ele>1437.5999755859</ele>
        <time>2023-07-24T06:31:19.000Z</time>
      </trkpt>
      <trkpt lat="42.71403" lon="1.40133">
        <ele>1438.1999511719</ele>
        <time>2023-07-24T06:31:23.000Z</time>
      </trkpt>
      <trkpt lat="42.71403" lon="1.40132">
        <ele>1438.5999755859</ele>
        <time>2023-07-24T06:31:25.000Z</time>
      </trkpt>
      <trkpt lat="42.71401" lon="1.40125">
        <ele>1439.5999755859</ele>
        <time>2023-07-24T06:31:32.000Z</time>
      </trkpt>
      <trkpt lat="42.71403" lon="1.40121">
        <ele>1440.8000488281</ele>
        <time>2023-07-24T06:31:39.000Z</time>
      </trkpt>
      <trkpt lat="42.71403" lon="1.40121">
        <ele>1440.8000488281</ele>
        <time>2023-07-24T06:31:40.000Z</time>
      </trkpt>
      <trkpt lat="42.71406" lon="1.40117">
        <ele>1441.8000488281</ele>
        <time>2023-07-24T06:31:47.000Z</time>
      </trkpt>
      <trkpt lat="42.71409" lon="1.40111">
        <ele>1442.8000488281</ele>
        <time>2023-07-24T06:31:54.000Z</time>
      </trkpt>
      <trkpt lat="42.71409" lon="1.4011">
        <ele>1443</ele>
        <time>2023-07-24T06:31:55.000Z</time>
      </trkpt>
      <trkpt lat="42.71412" lon="1.40105">
        <ele>1444</ele>
        <time>2023-07-24T06:32:02.000Z</time>
      </trkpt>
      <trkpt lat="42.71416" lon="1.401">
        <ele>1445</ele>
        <time>2023-07-24T06:32:10.000Z</time>
      </trkpt>
      <trkpt lat="42.71416" lon="1.40099">
        <ele>1445.1999511719</ele>
        <time>2023-07-24T06:32:11.000Z</time>
      </trkpt>
      <trkpt lat="42.71422" lon="1.40098">
        <ele>1446.1999511719</ele>
        <time>2023-07-24T06:32:18.000Z</time>
      </trkpt>
      <trkpt lat="42.71426" lon="1.40097">
        <ele>1447.1999511719</ele>
        <time>2023-07-24T06:32:25.000Z</time>
      </trkpt>
      <trkpt lat="42.71431" lon="1.40095">
        <ele>1448.1999511719</ele>
        <time>2023-07-24T06:32:32.000Z</time>
      </trkpt>
      <trkpt lat="42.71431" lon="1.40092">
        <ele>1449</ele>
        <time>2023-07-24T06:32:38.000Z</time>
      </trkpt>
      <trkpt lat="42.71435" lon="1.40087">
        <ele>1451</ele>
        <time>2023-07-24T06:32:51.000Z</time>
      </trkpt>
      <trkpt lat="42.71434" lon="1.4008">
        <ele>1451.5999755859</ele>
        <time>2023-07-24T06:32:54.000Z</time>
      </trkpt>
      <trkpt lat="42.71435" lon="1.40077">
        <ele>1452.1999511719</ele>
        <time>2023-07-24T06:32:58.000Z</time>
      </trkpt>
      <trkpt lat="42.71435" lon="1.40076">
        <ele>1452.5999755859</ele>
        <time>2023-07-24T06:33:00.000Z</time>
      </trkpt>
      <trkpt lat="42.71436" lon="1.40074">
        <ele>1453.8000488281</ele>
        <time>2023-07-24T06:33:06.000Z</time>
      </trkpt>
      <trkpt lat="42.7144" lon="1.40072">
        <ele>1454.8000488281</ele>
        <time>2023-07-24T06:33:13.000Z</time>
      </trkpt>
      <trkpt lat="42.71441" lon="1.40072">
        <ele>1455</ele>
        <time>2023-07-24T06:33:15.000Z</time>
      </trkpt>
      <trkpt lat="42.71444" lon="1.4007">
        <ele>1455.8000488281</ele>
        <time>2023-07-24T06:33:21.000Z</time>
      </trkpt>
      <trkpt lat="42.71446" lon="1.40068">
        <ele>1456</ele>
        <time>2023-07-24T06:33:23.000Z</time>
      </trkpt>
      <trkpt lat="42.71449" lon="1.40069">
        <ele>1457</ele>
        <time>2023-07-24T06:33:30.000Z</time>
      </trkpt>
      <trkpt lat="42.71454" lon="1.40067">
        <ele>1458</ele>
        <time>2023-07-24T06:33:37.000Z</time>
      </trkpt>
      <trkpt lat="42.71455" lon="1.40067">
        <ele>1458.1999511719</ele>
        <time>2023-07-24T06:33:38.000Z</time>
      </trkpt>
      <trkpt lat="42.71457" lon="1.40064">
        <ele>1459</ele>
        <time>2023-07-24T06:33:44.000Z</time>
      </trkpt>
      <trkpt lat="42.71459" lon="1.40062">
        <ele>1459.4000244141</ele>
        <time>2023-07-24T06:33:46.000Z</time>
      </trkpt>
      <trkpt lat="42.71462" lon="1.40057">
        <ele>1460.1999511719</ele>
        <time>2023-07-24T06:33:52.000Z</time>
      </trkpt>
      <trkpt lat="42.71463" lon="1.40056">
        <ele>1460.5999755859</ele>
        <time>2023-07-24T06:33:54.000Z</time>
      </trkpt>
      <trkpt lat="42.71464" lon="1.40052">
        <ele>1461.4000244141</ele>
        <time>2023-07-24T06:33:59.000Z</time>
      </trkpt>
      <trkpt lat="42.71465" lon="1.40051">
        <ele>1461.5999755859</ele>
        <time>2023-07-24T06:34:01.000Z</time>
      </trkpt>
      <trkpt lat="42.71467" lon="1.40049">
        <ele>1462.4000244141</ele>
        <time>2023-07-24T06:34:07.000Z</time>
      </trkpt>
      <trkpt lat="42.71469" lon="1.40049">
        <ele>1462.5999755859</ele>
        <time>2023-07-24T06:34:08.000Z</time>
      </trkpt>
      <trkpt lat="42.71473" lon="1.40046">
        <ele>1463.5999755859</ele>
        <time>2023-07-24T06:34:15.000Z</time>
      </trkpt>
      <trkpt lat="42.71477" lon="1.40039">
        <ele>1464.4000244141</ele>
        <time>2023-07-24T06:34:24.000Z</time>
      </trkpt>
      <trkpt lat="42.71478" lon="1.40037">
        <ele>1464.5999755859</ele>
        <time>2023-07-24T06:34:26.000Z</time>
      </trkpt>
      <trkpt lat="42.71478" lon="1.40031">
        <ele>1465.1999511719</ele>
        <time>2023-07-24T06:34:33.000Z</time>
      </trkpt>
      <trkpt lat="42.71478" lon="1.40029">
        <ele>1465.8000488281</ele>
        <time>2023-07-24T06:34:37.000Z</time>
      </trkpt>
      <trkpt lat="42.7148" lon="1.40027">
        <ele>1466.4000244141</ele>
        <time>2023-07-24T06:34:41.000Z</time>
      </trkpt>
      <trkpt lat="42.71482" lon="1.40026">
        <ele>1466.8000488281</ele>
        <time>2023-07-24T06:34:45.000Z</time>
      </trkpt>
      <trkpt lat="42.71485" lon="1.40025">
        <ele>1467.1999511719</ele>
        <time>2023-07-24T06:34:49.000Z</time>
      </trkpt>
      <trkpt lat="42.7149" lon="1.40021">
        <ele>1468.1999511719</ele>
        <time>2023-07-24T06:34:58.000Z</time>
      </trkpt>
      <trkpt lat="42.71496" lon="1.40019">
        <ele>1468.4000244141</ele>
        <time>2023-07-24T06:35:06.000Z</time>
      </trkpt>
      <trkpt lat="42.715" lon="1.40016">
        <ele>1469.5999755859</ele>
        <time>2023-07-24T06:35:17.000Z</time>
      </trkpt>
      <trkpt lat="42.71503" lon="1.40014">
        <ele>1470.1999511719</ele>
        <time>2023-07-24T06:35:20.000Z</time>
      </trkpt>
      <trkpt lat="42.71507" lon="1.4001">
        <ele>1470.8000488281</ele>
        <time>2023-07-24T06:35:25.000Z</time>
      </trkpt>
      <trkpt lat="42.71508" lon="1.40009">
        <ele>1471.1999511719</ele>
        <time>2023-07-24T06:35:28.000Z</time>
      </trkpt>
      <trkpt lat="42.71509" lon="1.40007">
        <ele>1471.5999755859</ele>
        <time>2023-07-24T06:35:32.000Z</time>
      </trkpt>
      <trkpt lat="42.71511" lon="1.40003">
        <ele>1472.1999511719</ele>
        <time>2023-07-24T06:35:37.000Z</time>
      </trkpt>
      <trkpt lat="42.71513" lon="1.40001">
        <ele>1473</ele>
        <time>2023-07-24T06:35:41.000Z</time>
      </trkpt>
      <trkpt lat="42.71515" lon="1.39999">
        <ele>1473.4000244141</ele>
        <time>2023-07-24T06:35:44.000Z</time>
      </trkpt>
      <trkpt lat="42.71519" lon="1.39994">
        <ele>1474</ele>
        <time>2023-07-24T06:35:50.000Z</time>
      </trkpt>
      <trkpt lat="42.71521" lon="1.39992">
        <ele>1474.4000244141</ele>
        <time>2023-07-24T06:35:53.000Z</time>
      </trkpt>
      <trkpt lat="42.71522" lon="1.39988">
        <ele>1475.1999511719</ele>
        <time>2023-07-24T06:35:58.000Z</time>
      </trkpt>
      <trkpt lat="42.71523" lon="1.39986">
        <ele>1475.4000244141</ele>
        <time>2023-07-24T06:36:00.000Z</time>
      </trkpt>
      <trkpt lat="42.71525" lon="1.39983">
        <ele>1476.4000244141</ele>
        <time>2023-07-24T06:36:06.000Z</time>
      </trkpt>
      <trkpt lat="42.71525" lon="1.39981">
        <ele>1476.5999755859</ele>
        <time>2023-07-24T06:36:08.000Z</time>
      </trkpt>
      <trkpt lat="42.71527" lon="1.39975">
        <ele>1477.4000244141</ele>
        <time>2023-07-24T06:36:14.000Z</time>
      </trkpt>
      <trkpt lat="42.71528" lon="1.39973">
        <ele>1477.5999755859</ele>
        <time>2023-07-24T06:36:16.000Z</time>
      </trkpt>
      <trkpt lat="42.71533" lon="1.39969">
        <ele>1478.5999755859</ele>
        <time>2023-07-24T06:36:23.000Z</time>
      </trkpt>
      <trkpt lat="42.71537" lon="1.39963">
        <ele>1479.5999755859</ele>
        <time>2023-07-24T06:36:30.000Z</time>
      </trkpt>
      <trkpt lat="42.71538" lon="1.39961">
        <ele>1480</ele>
        <time>2023-07-24T06:36:32.000Z</time>
      </trkpt>
      <trkpt lat="42.7154" lon="1.39954">
        <ele>1480.8000488281</ele>
        <time>2023-07-24T06:36:38.000Z</time>
      </trkpt>
      <trkpt lat="42.7154" lon="1.39953">
        <ele>1480.8000488281</ele>
        <time>2023-07-24T06:36:39.000Z</time>
      </trkpt>
      <trkpt lat="42.71542" lon="1.39945">
        <ele>1482</ele>
        <time>2023-07-24T06:36:45.000Z</time>
      </trkpt>
      <trkpt lat="42.71542" lon="1.39944">
        <ele>1482</ele>
        <time>2023-07-24T06:36:46.000Z</time>
      </trkpt>
      <trkpt lat="42.71544" lon="1.3994">
        <ele>1483</ele>
        <time>2023-07-24T06:36:53.000Z</time>
      </trkpt>
      <trkpt lat="42.71548" lon="1.39937">
        <ele>1484</ele>
        <time>2023-07-24T06:36:59.000Z</time>
      </trkpt>
      <trkpt lat="42.71549" lon="1.39936">
        <ele>1484.4000244141</ele>
        <time>2023-07-24T06:37:01.000Z</time>
      </trkpt>
      <trkpt lat="42.71551" lon="1.39934">
        <ele>1485</ele>
        <time>2023-07-24T06:37:05.000Z</time>
      </trkpt>
      <trkpt lat="42.71553" lon="1.39931">
        <ele>1485.8000488281</ele>
        <time>2023-07-24T06:37:09.000Z</time>
      </trkpt>
      <trkpt lat="42.71553" lon="1.3993">
        <ele>1486.1999511719</ele>
        <time>2023-07-24T06:37:11.000Z</time>
      </trkpt>
      <trkpt lat="42.71554" lon="1.39927">
        <ele>1487.4000244141</ele>
        <time>2023-07-24T06:37:17.000Z</time>
      </trkpt>
      <trkpt lat="42.71557" lon="1.39927">
        <ele>1488.4000244141</ele>
        <time>2023-07-24T06:37:22.000Z</time>
      </trkpt>
      <trkpt lat="42.71559" lon="1.39925">
        <ele>1489.1999511719</ele>
        <time>2023-07-24T06:37:26.000Z</time>
      </trkpt>
      <trkpt lat="42.7156" lon="1.39924">
        <ele>1489.4000244141</ele>
        <time>2023-07-24T06:37:27.000Z</time>
      </trkpt>
      <trkpt lat="42.71561" lon="1.39921">
        <ele>1490.4000244141</ele>
        <time>2023-07-24T06:37:32.000Z</time>
      </trkpt>
      <trkpt lat="42.7156" lon="1.39921">
        <ele>1490.5999755859</ele>
        <time>2023-07-24T06:37:33.000Z</time>
      </trkpt>
      <trkpt lat="42.71559" lon="1.39916">
        <ele>1491.4000244141</ele>
        <time>2023-07-24T06:37:39.000Z</time>
      </trkpt>
      <trkpt lat="42.71558" lon="1.39912">
        <ele>1492.5999755859</ele>
        <time>2023-07-24T06:37:45.000Z</time>
      </trkpt>
      <trkpt lat="42.71558" lon="1.39909">
        <ele>1493.8000488281</ele>
        <time>2023-07-24T06:37:51.000Z</time>
      </trkpt>
      <trkpt lat="42.71558" lon="1.39904">
        <ele>1494.8000488281</ele>
        <time>2023-07-24T06:37:57.000Z</time>
      </trkpt>
      <trkpt lat="42.71557" lon="1.399">
        <ele>1495.8000488281</ele>
        <time>2023-07-24T06:38:01.000Z</time>
      </trkpt>
      <trkpt lat="42.71556" lon="1.39895">
        <ele>1497.1999511719</ele>
        <time>2023-07-24T06:38:06.000Z</time>
      </trkpt>
      <trkpt lat="42.71556" lon="1.39895">
        <ele>1497.5999755859</ele>
        <time>2023-07-24T06:38:08.000Z</time>
      </trkpt>
      <trkpt lat="42.71557" lon="1.39895">
        <ele>1498.4000244141</ele>
        <time>2023-07-24T06:38:11.000Z</time>
      </trkpt>
      <trkpt lat="42.71556" lon="1.39892">
        <ele>1499.1999511719</ele>
        <time>2023-07-24T06:38:16.000Z</time>
      </trkpt>
      <trkpt lat="42.71556" lon="1.39892">
        <ele>1499.4000244141</ele>
        <time>2023-07-24T06:38:17.000Z</time>
      </trkpt>
      <trkpt lat="42.71558" lon="1.39889">
        <ele>1500.5999755859</ele>
        <time>2023-07-24T06:38:22.000Z</time>
      </trkpt>
      <trkpt lat="42.71559" lon="1.39889">
        <ele>1500.8000488281</ele>
        <time>2023-07-24T06:38:23.000Z</time>
      </trkpt>
      <trkpt lat="42.7156" lon="1.39887">
        <ele>1501.5999755859</ele>
        <time>2023-07-24T06:38:27.000Z</time>
      </trkpt>
      <trkpt lat="42.71561" lon="1.39884">
        <ele>1502.5999755859</ele>
        <time>2023-07-24T06:38:33.000Z</time>
      </trkpt>
      <trkpt lat="42.71559" lon="1.39884">
        <ele>1503.1999511719</ele>
        <time>2023-07-24T06:38:36.000Z</time>
      </trkpt>
      <trkpt lat="42.71559" lon="1.39882">
        <ele>1503.8000488281</ele>
        <time>2023-07-24T06:38:39.000Z</time>
      </trkpt>
      <trkpt lat="42.71559" lon="1.39882">
        <ele>1504.1999511719</ele>
        <time>2023-07-24T06:38:41.000Z</time>
      </trkpt>
      <trkpt lat="42.71558" lon="1.39879">
        <ele>1505</ele>
        <time>2023-07-24T06:38:45.000Z</time>
      </trkpt>
      <trkpt lat="42.71558" lon="1.39876">
        <ele>1505.8000488281</ele>
        <time>2023-07-24T06:38:49.000Z</time>
      </trkpt>
      <trkpt lat="42.71559" lon="1.39875">
        <ele>1506</ele>
        <time>2023-07-24T06:38:51.000Z</time>
      </trkpt>
      <trkpt lat="42.71562" lon="1.39875">
        <ele>1507</ele>
        <time>2023-07-24T06:38:57.000Z</time>
      </trkpt>
      <trkpt lat="42.71563" lon="1.39874">
        <ele>1507.1999511719</ele>
        <time>2023-07-24T06:38:59.000Z</time>
      </trkpt>
      <trkpt lat="42.71559" lon="1.39873">
        <ele>1508.1999511719</ele>
        <time>2023-07-24T06:39:05.000Z</time>
      </trkpt>
      <trkpt lat="42.71559" lon="1.39873">
        <ele>1508.5999755859</ele>
        <time>2023-07-24T06:39:06.000Z</time>
      </trkpt>
      <trkpt lat="42.7156" lon="1.39869">
        <ele>1509.4000244141</ele>
        <time>2023-07-24T06:39:11.000Z</time>
      </trkpt>
      <trkpt lat="42.7156" lon="1.39868">
        <ele>1509.5999755859</ele>
        <time>2023-07-24T06:39:12.000Z</time>
      </trkpt>
      <trkpt lat="42.7156" lon="1.39866">
        <ele>1510</ele>
        <time>2023-07-24T06:39:14.000Z</time>
      </trkpt>
      <trkpt lat="42.71561" lon="1.39865">
        <ele>1510.5999755859</ele>
        <time>2023-07-24T06:39:17.000Z</time>
      </trkpt>
      <trkpt lat="42.71561" lon="1.39864">
        <ele>1511</ele>
        <time>2023-07-24T06:39:19.000Z</time>
      </trkpt>
      <trkpt lat="42.71562" lon="1.39861">
        <ele>1511.5999755859</ele>
        <time>2023-07-24T06:39:23.000Z</time>
      </trkpt>
      <trkpt lat="42.71563" lon="1.39861">
        <ele>1512.4000244141</ele>
        <time>2023-07-24T06:39:27.000Z</time>
      </trkpt>
      <trkpt lat="42.71561" lon="1.3986">
        <ele>1512.8000488281</ele>
        <time>2023-07-24T06:39:30.000Z</time>
      </trkpt>
      <trkpt lat="42.71558" lon="1.39858">
        <ele>1513.8000488281</ele>
        <time>2023-07-24T06:39:35.000Z</time>
      </trkpt>
      <trkpt lat="42.71558" lon="1.39857">
        <ele>1513.8000488281</ele>
        <time>2023-07-24T06:39:36.000Z</time>
      </trkpt>
      <trkpt lat="42.71558" lon="1.39853">
        <ele>1514.8000488281</ele>
        <time>2023-07-24T06:39:42.000Z</time>
      </trkpt>
      <trkpt lat="42.71558" lon="1.39853">
        <ele>1514.8000488281</ele>
        <time>2023-07-24T06:39:43.000Z</time>
      </trkpt>
      <trkpt lat="42.71556" lon="1.39855">
        <ele>1516</ele>
        <time>2023-07-24T06:39:50.000Z</time>
      </trkpt>
      <trkpt lat="42.71556" lon="1.39855">
        <ele>1516.1999511719</ele>
        <time>2023-07-24T06:39:51.000Z</time>
      </trkpt>
      <trkpt lat="42.71553" lon="1.39855">
        <ele>1517</ele>
        <time>2023-07-24T06:39:56.000Z</time>
      </trkpt>
      <trkpt lat="42.7155" lon="1.39855">
        <ele>1517.4000244141</ele>
        <time>2023-07-24T06:39:59.000Z</time>
      </trkpt>
      <trkpt lat="42.71547" lon="1.39853">
        <ele>1518</ele>
        <time>2023-07-24T06:40:03.000Z</time>
      </trkpt>
      <trkpt lat="42.71544" lon="1.39849">
        <ele>1518.8000488281</ele>
        <time>2023-07-24T06:40:09.000Z</time>
      </trkpt>
      <trkpt lat="42.71544" lon="1.39847">
        <ele>1519</ele>
        <time>2023-07-24T06:40:11.000Z</time>
      </trkpt>
      <trkpt lat="42.7154" lon="1.39846">
        <ele>1520</ele>
        <time>2023-07-24T06:40:18.000Z</time>
      </trkpt>
      <trkpt lat="42.71538" lon="1.39845">
        <ele>1520.1999511719</ele>
        <time>2023-07-24T06:40:19.000Z</time>
      </trkpt>
      <trkpt lat="42.71536" lon="1.39841">
        <ele>1521</ele>
        <time>2023-07-24T06:40:24.000Z</time>
      </trkpt>
      <trkpt lat="42.71536" lon="1.3984">
        <ele>1521.1999511719</ele>
        <time>2023-07-24T06:40:25.000Z</time>
      </trkpt>
      <trkpt lat="42.7154" lon="1.39838">
        <ele>1522.4000244141</ele>
        <time>2023-07-24T06:40:32.000Z</time>
      </trkpt>
      <trkpt lat="42.7155" lon="1.39836">
        <ele>1524</ele>
        <time>2023-07-24T06:40:44.000Z</time>
      </trkpt>
      <trkpt lat="42.71551" lon="1.39836">
        <ele>1524.4000244141</ele>
        <time>2023-07-24T06:40:46.000Z</time>
      </trkpt>
      <trkpt lat="42.71555" lon="1.39835">
        <ele>1525.5999755859</ele>
        <time>2023-07-24T06:40:53.000Z</time>
      </trkpt>
      <trkpt lat="42.71557" lon="1.39835">
        <ele>1525.8000488281</ele>
        <time>2023-07-24T06:40:55.000Z</time>
      </trkpt>
      <trkpt lat="42.71559" lon="1.39834">
        <ele>1526.8000488281</ele>
        <time>2023-07-24T06:41:01.000Z</time>
      </trkpt>
      <trkpt lat="42.7156" lon="1.39833">
        <ele>1527</ele>
        <time>2023-07-24T06:41:03.000Z</time>
      </trkpt>
      <trkpt lat="42.71563" lon="1.39829">
        <ele>1527.8000488281</ele>
        <time>2023-07-24T06:41:09.000Z</time>
      </trkpt>
      <trkpt lat="42.71563" lon="1.39828">
        <ele>1528.1999511719</ele>
        <time>2023-07-24T06:41:11.000Z</time>
      </trkpt>
      <trkpt lat="42.71563" lon="1.39825">
        <ele>1529</ele>
        <time>2023-07-24T06:41:15.000Z</time>
      </trkpt>
      <trkpt lat="42.71566" lon="1.39823">
        <ele>1529.8000488281</ele>
        <time>2023-07-24T06:41:21.000Z</time>
      </trkpt>
      <trkpt lat="42.71566" lon="1.39823">
        <ele>1530</ele>
        <time>2023-07-24T06:41:22.000Z</time>
      </trkpt>
      <trkpt lat="42.71576" lon="1.39822">
        <ele>1533.4000244141</ele>
        <time>2023-07-24T06:41:40.000Z</time>
      </trkpt>
      <trkpt lat="42.71576" lon="1.39822">
        <ele>1533.5999755859</ele>
        <time>2023-07-24T06:41:41.000Z</time>
      </trkpt>
      <trkpt lat="42.71573" lon="1.39822">
        <ele>1534.1999511719</ele>
        <time>2023-07-24T06:41:44.000Z</time>
      </trkpt>
      <trkpt lat="42.71572" lon="1.39822">
        <ele>1534.5999755859</ele>
        <time>2023-07-24T06:41:46.000Z</time>
      </trkpt>
      <trkpt lat="42.71573" lon="1.39823">
        <ele>1534.8000488281</ele>
        <time>2023-07-24T06:41:47.000Z</time>
      </trkpt>
      <trkpt lat="42.71573" lon="1.39823">
        <ele>1535.4000244141</ele>
        <time>2023-07-24T06:41:53.000Z</time>
      </trkpt>
      <trkpt lat="42.71574" lon="1.39819">
        <ele>1535.5999755859</ele>
        <time>2023-07-24T06:42:03.000Z</time>
      </trkpt>
      <trkpt lat="42.71573" lon="1.39819">
        <ele>1535.8000488281</ele>
        <time>2023-07-24T06:42:04.000Z</time>
      </trkpt>
      <trkpt lat="42.71569" lon="1.39817">
        <ele>1536.8000488281</ele>
        <time>2023-07-24T06:42:10.000Z</time>
      </trkpt>
      <trkpt lat="42.71568" lon="1.39815">
        <ele>1537.1999511719</ele>
        <time>2023-07-24T06:42:12.000Z</time>
      </trkpt>
      <trkpt lat="42.71565" lon="1.3981">
        <ele>1537.8000488281</ele>
        <time>2023-07-24T06:42:17.000Z</time>
      </trkpt>
      <trkpt lat="42.71564" lon="1.39807">
        <ele>1538.1999511719</ele>
        <time>2023-07-24T06:42:20.000Z</time>
      </trkpt>
      <trkpt lat="42.71562" lon="1.39806">
        <ele>1538.8000488281</ele>
        <time>2023-07-24T06:42:23.000Z</time>
      </trkpt>
      <trkpt lat="42.71558" lon="1.39805">
        <ele>1539.5999755859</ele>
        <time>2023-07-24T06:42:28.000Z</time>
      </trkpt>
      <trkpt lat="42.71557" lon="1.39804">
        <ele>1539.8000488281</ele>
        <time>2023-07-24T06:42:29.000Z</time>
      </trkpt>
      <trkpt lat="42.71555" lon="1.39805">
        <ele>1540.8000488281</ele>
        <time>2023-07-24T06:42:34.000Z</time>
      </trkpt>
      <trkpt lat="42.71554" lon="1.39805">
        <ele>1541</ele>
        <time>2023-07-24T06:42:35.000Z</time>
      </trkpt>
      <trkpt lat="42.71553" lon="1.39806">
        <ele>1542.1999511719</ele>
        <time>2023-07-24T06:42:41.000Z</time>
      </trkpt>
      <trkpt lat="42.71552" lon="1.39806">
        <ele>1542.4000244141</ele>
        <time>2023-07-24T06:42:42.000Z</time>
      </trkpt>
      <trkpt lat="42.71555" lon="1.39805">
        <ele>1543.4000244141</ele>
        <time>2023-07-24T06:42:49.000Z</time>
      </trkpt>
      <trkpt lat="42.71556" lon="1.39803">
        <ele>1543.8000488281</ele>
        <time>2023-07-24T06:42:51.000Z</time>
      </trkpt>
      <trkpt lat="42.71557" lon="1.39798">
        <ele>1544.5999755859</ele>
        <time>2023-07-24T06:42:56.000Z</time>
      </trkpt>
      <trkpt lat="42.71558" lon="1.39795">
        <ele>1545</ele>
        <time>2023-07-24T06:42:59.000Z</time>
      </trkpt>
      <trkpt lat="42.7156" lon="1.39793">
        <ele>1545.5999755859</ele>
        <time>2023-07-24T06:43:04.000Z</time>
      </trkpt>
      <trkpt lat="42.71562" lon="1.39792">
        <ele>1546.4000244141</ele>
        <time>2023-07-24T06:43:10.000Z</time>
      </trkpt>
      <trkpt lat="42.71569" lon="1.39789">
        <ele>1548.5999755859</ele>
        <time>2023-07-24T06:43:28.000Z</time>
      </trkpt>
      <trkpt lat="42.71569" lon="1.39788">
        <ele>1548.8000488281</ele>
        <time>2023-07-24T06:43:29.000Z</time>
      </trkpt>
      <trkpt lat="42.71568" lon="1.39786">
        <ele>1549.8000488281</ele>
        <time>2023-07-24T06:43:34.000Z</time>
      </trkpt>
      <trkpt lat="42.71568" lon="1.39786">
        <ele>1550</ele>
        <time>2023-07-24T06:43:35.000Z</time>
      </trkpt>
      <trkpt lat="42.71566" lon="1.39782">
        <ele>1551</ele>
        <time>2023-07-24T06:43:41.000Z</time>
      </trkpt>
      <trkpt lat="42.71565" lon="1.39781">
        <ele>1551.1999511719</ele>
        <time>2023-07-24T06:43:43.000Z</time>
      </trkpt>
      <trkpt lat="42.71564" lon="1.39777">
        <ele>1552</ele>
        <time>2023-07-24T06:43:47.000Z</time>
      </trkpt>
      <trkpt lat="42.71562" lon="1.39777">
        <ele>1553</ele>
        <time>2023-07-24T06:43:52.000Z</time>
      </trkpt>
      <trkpt lat="42.71561" lon="1.39776">
        <ele>1553.1999511719</ele>
        <time>2023-07-24T06:43:54.000Z</time>
      </trkpt>
      <trkpt lat="42.71562" lon="1.39776">
        <ele>1554</ele>
        <time>2023-07-24T06:43:58.000Z</time>
      </trkpt>
      <trkpt lat="42.71563" lon="1.39777">
        <ele>1554.1999511719</ele>
        <time>2023-07-24T06:44:00.000Z</time>
      </trkpt>
      <trkpt lat="42.7156" lon="1.39774">
        <ele>1554.5999755859</ele>
        <time>2023-07-24T06:44:10.000Z</time>
      </trkpt>
      <trkpt lat="42.7156" lon="1.39775">
        <ele>1554.5999755859</ele>
        <time>2023-07-24T06:44:18.000Z</time>
      </trkpt>
      <trkpt lat="42.71562" lon="1.39778">
        <ele>1554.8000488281</ele>
        <time>2023-07-24T06:44:29.000Z</time>
      </trkpt>
      <trkpt lat="42.71558" lon="1.39776">
        <ele>1555</ele>
        <time>2023-07-24T06:44:37.000Z</time>
      </trkpt>
      <trkpt lat="42.71557" lon="1.39776">
        <ele>1555.5999755859</ele>
        <time>2023-07-24T06:44:41.000Z</time>
      </trkpt>
      <trkpt lat="42.71554" lon="1.39776">
        <ele>1556.4000244141</ele>
        <time>2023-07-24T06:44:45.000Z</time>
      </trkpt>
      <trkpt lat="42.71553" lon="1.39776">
        <ele>1556.5999755859</ele>
        <time>2023-07-24T06:44:46.000Z</time>
      </trkpt>
      <trkpt lat="42.7155" lon="1.39773">
        <ele>1557.8000488281</ele>
        <time>2023-07-24T06:44:52.000Z</time>
      </trkpt>
      <trkpt lat="42.7155" lon="1.39772">
        <ele>1558</ele>
        <time>2023-07-24T06:44:53.000Z</time>
      </trkpt>
      <trkpt lat="42.71546" lon="1.39767">
        <ele>1558.8000488281</ele>
        <time>2023-07-24T06:44:59.000Z</time>
      </trkpt>
      <trkpt lat="42.71545" lon="1.39767">
        <ele>1559</ele>
        <time>2023-07-24T06:45:00.000Z</time>
      </trkpt>
      <trkpt lat="42.71542" lon="1.39768">
        <ele>1560</ele>
        <time>2023-07-24T06:45:04.000Z</time>
      </trkpt>
      <trkpt lat="42.71542" lon="1.39768">
        <ele>1560</ele>
        <time>2023-07-24T06:45:05.000Z</time>
      </trkpt>
      <trkpt lat="42.71539" lon="1.39764">
        <ele>1563.8000488281</ele>
        <time>2023-07-24T06:45:26.000Z</time>
      </trkpt>
      <trkpt lat="42.71539" lon="1.39763">
        <ele>1564.1999511719</ele>
        <time>2023-07-24T06:45:28.000Z</time>
      </trkpt>
      <trkpt lat="42.71541" lon="1.39765">
        <ele>1565.1999511719</ele>
        <time>2023-07-24T06:45:34.000Z</time>
      </trkpt>
      <trkpt lat="42.71541" lon="1.39765">
        <ele>1565.5999755859</ele>
        <time>2023-07-24T06:45:36.000Z</time>
      </trkpt>
      <trkpt lat="42.7154" lon="1.39762">
        <ele>1566.4000244141</ele>
        <time>2023-07-24T06:45:40.000Z</time>
      </trkpt>
      <trkpt lat="42.71539" lon="1.39762">
        <ele>1566.5999755859</ele>
        <time>2023-07-24T06:45:42.000Z</time>
      </trkpt>
      <trkpt lat="42.71537" lon="1.39761">
        <ele>1567.4000244141</ele>
        <time>2023-07-24T06:45:46.000Z</time>
      </trkpt>
      <trkpt lat="42.7154" lon="1.39755">
        <ele>1569.4000244141</ele>
        <time>2023-07-24T06:46:02.000Z</time>
      </trkpt>
      <trkpt lat="42.7154" lon="1.39754">
        <ele>1570.5999755859</ele>
        <time>2023-07-24T06:46:06.000Z</time>
      </trkpt>
      <trkpt lat="42.71541" lon="1.39751">
        <ele>1571</ele>
        <time>2023-07-24T06:46:09.000Z</time>
      </trkpt>
      <trkpt lat="42.71542" lon="1.3975">
        <ele>1571.5999755859</ele>
        <time>2023-07-24T06:46:11.000Z</time>
      </trkpt>
      <trkpt lat="42.71543" lon="1.39747">
        <ele>1572.5999755859</ele>
        <time>2023-07-24T06:46:18.000Z</time>
      </trkpt>
      <trkpt lat="42.71545" lon="1.39746">
        <ele>1573.5999755859</ele>
        <time>2023-07-24T06:46:23.000Z</time>
      </trkpt>
      <trkpt lat="42.71545" lon="1.39745">
        <ele>1574</ele>
        <time>2023-07-24T06:46:25.000Z</time>
      </trkpt>
      <trkpt lat="42.71547" lon="1.39744">
        <ele>1574.8000488281</ele>
        <time>2023-07-24T06:46:30.000Z</time>
      </trkpt>
      <trkpt lat="42.71547" lon="1.39743">
        <ele>1575.4000244141</ele>
        <time>2023-07-24T06:46:34.000Z</time>
      </trkpt>
      <trkpt lat="42.71548" lon="1.39742">
        <ele>1576</ele>
        <time>2023-07-24T06:46:38.000Z</time>
      </trkpt>
      <trkpt lat="42.71549" lon="1.39739">
        <ele>1577</ele>
        <time>2023-07-24T06:46:43.000Z</time>
      </trkpt>
      <trkpt lat="42.7155" lon="1.39738">
        <ele>1577.1999511719</ele>
        <time>2023-07-24T06:46:44.000Z</time>
      </trkpt>
      <trkpt lat="42.71553" lon="1.39737">
        <ele>1578.1999511719</ele>
        <time>2023-07-24T06:46:49.000Z</time>
      </trkpt>
      <trkpt lat="42.71554" lon="1.39736">
        <ele>1578.8000488281</ele>
        <time>2023-07-24T06:46:52.000Z</time>
      </trkpt>
      <trkpt lat="42.71563" lon="1.39736">
        <ele>1582.5999755859</ele>
        <time>2023-07-24T06:47:20.000Z</time>
      </trkpt>
      <trkpt lat="42.71566" lon="1.39742">
        <ele>1584</ele>
        <time>2023-07-24T06:47:31.000Z</time>
      </trkpt>
      <trkpt lat="42.71567" lon="1.39744">
        <ele>1584.5999755859</ele>
        <time>2023-07-24T06:47:36.000Z</time>
      </trkpt>
      <trkpt lat="42.71568" lon="1.39743">
        <ele>1585</ele>
        <time>2023-07-24T06:47:38.000Z</time>
      </trkpt>
      <trkpt lat="42.71568" lon="1.39741">
        <ele>1585.1999511719</ele>
        <time>2023-07-24T06:47:40.000Z</time>
      </trkpt>
      <trkpt lat="42.71567" lon="1.39736">
        <ele>1585.8000488281</ele>
        <time>2023-07-24T06:47:44.000Z</time>
      </trkpt>
      <trkpt lat="42.71567" lon="1.39735">
        <ele>1586.5999755859</ele>
        <time>2023-07-24T06:47:49.000Z</time>
      </trkpt>
      <trkpt lat="42.71566" lon="1.39735">
        <ele>1587</ele>
        <time>2023-07-24T06:47:51.000Z</time>
      </trkpt>
      <trkpt lat="42.71564" lon="1.39731">
        <ele>1587.1999511719</ele>
        <time>2023-07-24T06:47:56.000Z</time>
      </trkpt>
      <trkpt lat="42.71565" lon="1.39726">
        <ele>1588.1999511719</ele>
        <time>2023-07-24T06:48:04.000Z</time>
      </trkpt>
      <trkpt lat="42.71565" lon="1.39725">
        <ele>1589.1999511719</ele>
        <time>2023-07-24T06:48:10.000Z</time>
      </trkpt>
      <trkpt lat="42.71565" lon="1.39724">
        <ele>1589.5999755859</ele>
        <time>2023-07-24T06:48:12.000Z</time>
      </trkpt>
      <trkpt lat="42.71564" lon="1.3972">
        <ele>1590.1999511719</ele>
        <time>2023-07-24T06:48:16.000Z</time>
      </trkpt>
      <trkpt lat="42.71563" lon="1.39717">
        <ele>1590.8000488281</ele>
        <time>2023-07-24T06:48:19.000Z</time>
      </trkpt>
      <trkpt lat="42.7156" lon="1.39714">
        <ele>1591.4000244141</ele>
        <time>2023-07-24T06:48:23.000Z</time>
      </trkpt>
      <trkpt lat="42.71559" lon="1.39713">
        <ele>1591.8000488281</ele>
        <time>2023-07-24T06:48:27.000Z</time>
      </trkpt>
      <trkpt lat="42.71558" lon="1.39713">
        <ele>1592.5999755859</ele>
        <time>2023-07-24T06:48:31.000Z</time>
      </trkpt>
      <trkpt lat="42.71554" lon="1.39714">
        <ele>1593.4000244141</ele>
        <time>2023-07-24T06:48:37.000Z</time>
      </trkpt>
      <trkpt lat="42.71554" lon="1.39714">
        <ele>1593.8000488281</ele>
        <time>2023-07-24T06:48:38.000Z</time>
      </trkpt>
      <trkpt lat="42.71551" lon="1.39715">
        <ele>1594.8000488281</ele>
        <time>2023-07-24T06:48:45.000Z</time>
      </trkpt>
      <trkpt lat="42.71552" lon="1.39712">
        <ele>1596</ele>
        <time>2023-07-24T06:48:50.000Z</time>
      </trkpt>
      <trkpt lat="42.71552" lon="1.39711">
        <ele>1596.4000244141</ele>
        <time>2023-07-24T06:48:52.000Z</time>
      </trkpt>
      <trkpt lat="42.71552" lon="1.3971">
        <ele>1597.1999511719</ele>
        <time>2023-07-24T06:48:56.000Z</time>
      </trkpt>
      <trkpt lat="42.71552" lon="1.39707">
        <ele>1598.1999511719</ele>
        <time>2023-07-24T06:49:02.000Z</time>
      </trkpt>
      <trkpt lat="42.71552" lon="1.39707">
        <ele>1598.4000244141</ele>
        <time>2023-07-24T06:49:03.000Z</time>
      </trkpt>
      <trkpt lat="42.71555" lon="1.39704">
        <ele>1599.1999511719</ele>
        <time>2023-07-24T06:49:09.000Z</time>
      </trkpt>
      <trkpt lat="42.71556" lon="1.39704">
        <ele>1599.5999755859</ele>
        <time>2023-07-24T06:49:11.000Z</time>
      </trkpt>
      <trkpt lat="42.71564" lon="1.39703">
        <ele>1601.8000488281</ele>
        <time>2023-07-24T06:49:29.000Z</time>
      </trkpt>
      <trkpt lat="42.71567" lon="1.39702">
        <ele>1602.4000244141</ele>
        <time>2023-07-24T06:49:33.000Z</time>
      </trkpt>
      <trkpt lat="42.7157" lon="1.39704">
        <ele>1603.5999755859</ele>
        <time>2023-07-24T06:49:40.000Z</time>
      </trkpt>
      <trkpt lat="42.71574" lon="1.39702">
        <ele>1604.5999755859</ele>
        <time>2023-07-24T06:49:47.000Z</time>
      </trkpt>
      <trkpt lat="42.71574" lon="1.39702">
        <ele>1604.8000488281</ele>
        <time>2023-07-24T06:49:48.000Z</time>
      </trkpt>
      <trkpt lat="42.71575" lon="1.39699">
        <ele>1605.5999755859</ele>
        <time>2023-07-24T06:49:55.000Z</time>
      </trkpt>
      <trkpt lat="42.71575" lon="1.39699">
        <ele>1605.8000488281</ele>
        <time>2023-07-24T06:49:56.000Z</time>
      </trkpt>
      <trkpt lat="42.71572" lon="1.39696">
        <ele>1606.5999755859</ele>
        <time>2023-07-24T06:50:03.000Z</time>
      </trkpt>
      <trkpt lat="42.71571" lon="1.39695">
        <ele>1607</ele>
        <time>2023-07-24T06:50:07.000Z</time>
      </trkpt>
      <trkpt lat="42.71568" lon="1.39692">
        <ele>1607.5999755859</ele>
        <time>2023-07-24T06:50:12.000Z</time>
      </trkpt>
      <trkpt lat="42.71568" lon="1.39692">
        <ele>1608</ele>
        <time>2023-07-24T06:50:15.000Z</time>
      </trkpt>
      <trkpt lat="42.71566" lon="1.39689">
        <ele>1608.4000244141</ele>
        <time>2023-07-24T06:50:20.000Z</time>
      </trkpt>
      <trkpt lat="42.71561" lon="1.39686">
        <ele>1609.1999511719</ele>
        <time>2023-07-24T06:50:24.000Z</time>
      </trkpt>
      <trkpt lat="42.71559" lon="1.39685">
        <ele>1609.8000488281</ele>
        <time>2023-07-24T06:50:28.000Z</time>
      </trkpt>
      <trkpt lat="42.71557" lon="1.39684">
        <ele>1610.1999511719</ele>
        <time>2023-07-24T06:50:31.000Z</time>
      </trkpt>
      <trkpt lat="42.71552" lon="1.39683">
        <ele>1611.1999511719</ele>
        <time>2023-07-24T06:50:38.000Z</time>
      </trkpt>
      <trkpt lat="42.7155" lon="1.39681">
        <ele>1611.4000244141</ele>
        <time>2023-07-24T06:50:40.000Z</time>
      </trkpt>
      <trkpt lat="42.71551" lon="1.39682">
        <ele>1612.1999511719</ele>
        <time>2023-07-24T06:50:47.000Z</time>
      </trkpt>
      <trkpt lat="42.7155" lon="1.39682">
        <ele>1612.4000244141</ele>
        <time>2023-07-24T06:50:48.000Z</time>
      </trkpt>
      <trkpt lat="42.71548" lon="1.39682">
        <ele>1613</ele>
        <time>2023-07-24T06:50:55.000Z</time>
      </trkpt>
      <trkpt lat="42.71547" lon="1.39681">
        <ele>1613.4000244141</ele>
        <time>2023-07-24T06:50:57.000Z</time>
      </trkpt>
      <trkpt lat="42.71545" lon="1.39679">
        <ele>1614.4000244141</ele>
        <time>2023-07-24T06:51:03.000Z</time>
      </trkpt>
      <trkpt lat="42.71545" lon="1.39679">
        <ele>1614.4000244141</ele>
        <time>2023-07-24T06:51:04.000Z</time>
      </trkpt>
      <trkpt lat="42.71542" lon="1.39679">
        <ele>1615.5999755859</ele>
        <time>2023-07-24T06:51:10.000Z</time>
      </trkpt>
      <trkpt lat="42.71542" lon="1.39679">
        <ele>1615.5999755859</ele>
        <time>2023-07-24T06:51:11.000Z</time>
      </trkpt>
      <trkpt lat="42.71531" lon="1.39673">
        <ele>1621</ele>
        <time>2023-07-24T06:51:44.000Z</time>
      </trkpt>
      <trkpt lat="42.71531" lon="1.39673">
        <ele>1621.1999511719</ele>
        <time>2023-07-24T06:51:46.000Z</time>
      </trkpt>
      <trkpt lat="42.71528" lon="1.39668">
        <ele>1622.1999511719</ele>
        <time>2023-07-24T06:51:52.000Z</time>
      </trkpt>
      <trkpt lat="42.71528" lon="1.39668">
        <ele>1622.4000244141</ele>
        <time>2023-07-24T06:51:53.000Z</time>
      </trkpt>
      <trkpt lat="42.71528" lon="1.39666">
        <ele>1623.4000244141</ele>
        <time>2023-07-24T06:52:01.000Z</time>
      </trkpt>
      <trkpt lat="42.71524" lon="1.39659">
        <ele>1624.4000244141</ele>
        <time>2023-07-24T06:52:07.000Z</time>
      </trkpt>
      <trkpt lat="42.71524" lon="1.39658">
        <ele>1625</ele>
        <time>2023-07-24T06:52:10.000Z</time>
      </trkpt>
      <trkpt lat="42.71523" lon="1.39653">
        <ele>1626.4000244141</ele>
        <time>2023-07-24T06:52:20.000Z</time>
      </trkpt>
      <trkpt lat="42.71522" lon="1.39652">
        <ele>1627.5999755859</ele>
        <time>2023-07-24T06:52:27.000Z</time>
      </trkpt>
      <trkpt lat="42.71522" lon="1.39651">
        <ele>1627.8000488281</ele>
        <time>2023-07-24T06:52:29.000Z</time>
      </trkpt>
      <trkpt lat="42.71522" lon="1.3965">
        <ele>1628.5999755859</ele>
        <time>2023-07-24T06:52:35.000Z</time>
      </trkpt>
      <trkpt lat="42.71522" lon="1.39648">
        <ele>1629</ele>
        <time>2023-07-24T06:52:38.000Z</time>
      </trkpt>
      <trkpt lat="42.71524" lon="1.39645">
        <ele>1629.8000488281</ele>
        <time>2023-07-24T06:52:43.000Z</time>
      </trkpt>
      <trkpt lat="42.71526" lon="1.39644">
        <ele>1630.4000244141</ele>
        <time>2023-07-24T06:52:47.000Z</time>
      </trkpt>
      <trkpt lat="42.71528" lon="1.39642">
        <ele>1631</ele>
        <time>2023-07-24T06:53:22.000Z</time>
      </trkpt>
      <trkpt lat="42.71528" lon="1.3964">
        <ele>1631.8000488281</ele>
        <time>2023-07-24T06:53:27.000Z</time>
      </trkpt>
      <trkpt lat="42.71529" lon="1.39636">
        <ele>1632.8000488281</ele>
        <time>2023-07-24T06:53:33.000Z</time>
      </trkpt>
      <trkpt lat="42.71529" lon="1.39635">
        <ele>1633</ele>
        <time>2023-07-24T06:53:35.000Z</time>
      </trkpt>
      <trkpt lat="42.71529" lon="1.39632">
        <ele>1633.4000244141</ele>
        <time>2023-07-24T06:53:38.000Z</time>
      </trkpt>
      <trkpt lat="42.71527" lon="1.39628">
        <ele>1634</ele>
        <time>2023-07-24T06:53:43.000Z</time>
      </trkpt>
      <trkpt lat="42.71525" lon="1.39624">
        <ele>1634.4000244141</ele>
        <time>2023-07-24T06:53:46.000Z</time>
      </trkpt>
      <trkpt lat="42.71523" lon="1.39623">
        <ele>1634.8000488281</ele>
        <time>2023-07-24T06:53:48.000Z</time>
      </trkpt>
      <trkpt lat="42.71522" lon="1.39621">
        <ele>1635.1999511719</ele>
        <time>2023-07-24T06:53:50.000Z</time>
      </trkpt>
      <trkpt lat="42.71521" lon="1.39619">
        <ele>1635.8000488281</ele>
        <time>2023-07-24T06:53:54.000Z</time>
      </trkpt>
      <trkpt lat="42.7152" lon="1.39613">
        <ele>1636.4000244141</ele>
        <time>2023-07-24T06:53:59.000Z</time>
      </trkpt>
      <trkpt lat="42.71519" lon="1.39608">
        <ele>1637.4000244141</ele>
        <time>2023-07-24T06:54:07.000Z</time>
      </trkpt>
      <trkpt lat="42.71519" lon="1.39607">
        <ele>1637.5999755859</ele>
        <time>2023-07-24T06:54:08.000Z</time>
      </trkpt>
      <trkpt lat="42.71518" lon="1.39604">
        <ele>1638.5999755859</ele>
        <time>2023-07-24T06:54:14.000Z</time>
      </trkpt>
      <trkpt lat="42.71518" lon="1.39603">
        <ele>1639</ele>
        <time>2023-07-24T06:54:18.000Z</time>
      </trkpt>
      <trkpt lat="42.71519" lon="1.39601">
        <ele>1639.5999755859</ele>
        <time>2023-07-24T06:54:22.000Z</time>
      </trkpt>
      <trkpt lat="42.71519" lon="1.396">
        <ele>1640</ele>
        <time>2023-07-24T06:54:25.000Z</time>
      </trkpt>
      <trkpt lat="42.7152" lon="1.39598">
        <ele>1640.1999511719</ele>
        <time>2023-07-24T06:54:30.000Z</time>
      </trkpt>
      <trkpt lat="42.71519" lon="1.39594">
        <ele>1640.5999755859</ele>
        <time>2023-07-24T06:54:34.000Z</time>
      </trkpt>
      <trkpt lat="42.71518" lon="1.39593">
        <ele>1641</ele>
        <time>2023-07-24T06:54:36.000Z</time>
      </trkpt>
      <trkpt lat="42.71517" lon="1.39589">
        <ele>1641.8000488281</ele>
        <time>2023-07-24T06:54:43.000Z</time>
      </trkpt>
      <trkpt lat="42.71517" lon="1.39588">
        <ele>1641.8000488281</ele>
        <time>2023-07-24T06:54:44.000Z</time>
      </trkpt>
      <trkpt lat="42.71516" lon="1.39584">
        <ele>1642.8000488281</ele>
        <time>2023-07-24T06:54:50.000Z</time>
      </trkpt>
      <trkpt lat="42.71516" lon="1.39582">
        <ele>1643.1999511719</ele>
        <time>2023-07-24T06:54:52.000Z</time>
      </trkpt>
      <trkpt lat="42.71515" lon="1.3958">
        <ele>1643.8000488281</ele>
        <time>2023-07-24T06:54:56.000Z</time>
      </trkpt>
      <trkpt lat="42.71515" lon="1.39579">
        <ele>1644.5999755859</ele>
        <time>2023-07-24T06:55:01.000Z</time>
      </trkpt>
      <trkpt lat="42.71515" lon="1.39578">
        <ele>1645</ele>
        <time>2023-07-24T06:55:04.000Z</time>
      </trkpt>
      <trkpt lat="42.71515" lon="1.39577">
        <ele>1645.4000244141</ele>
        <time>2023-07-24T06:55:07.000Z</time>
      </trkpt>
      <trkpt lat="42.71515" lon="1.39575">
        <ele>1646</ele>
        <time>2023-07-24T06:55:11.000Z</time>
      </trkpt>
      <trkpt lat="42.71514" lon="1.3957">
        <ele>1646.4000244141</ele>
        <time>2023-07-24T06:55:14.000Z</time>
      </trkpt>
      <trkpt lat="42.71513" lon="1.39565">
        <ele>1647</ele>
        <time>2023-07-24T06:55:21.000Z</time>
      </trkpt>
      <trkpt lat="42.71513" lon="1.39563">
        <ele>1647.4000244141</ele>
        <time>2023-07-24T06:55:23.000Z</time>
      </trkpt>
      <trkpt lat="42.71511" lon="1.39557">
        <ele>1648</ele>
        <time>2023-07-24T06:55:31.000Z</time>
      </trkpt>
      <trkpt lat="42.71511" lon="1.39557">
        <ele>1648.1999511719</ele>
        <time>2023-07-24T06:55:32.000Z</time>
      </trkpt>
      <trkpt lat="42.71509" lon="1.3955">
        <ele>1648.5999755859</ele>
        <time>2023-07-24T06:55:39.000Z</time>
      </trkpt>
      <trkpt lat="42.71509" lon="1.39548">
        <ele>1649</ele>
        <time>2023-07-24T06:55:46.000Z</time>
      </trkpt>
      <trkpt lat="42.71509" lon="1.39547">
        <ele>1649.1999511719</ele>
        <time>2023-07-24T06:55:50.000Z</time>
      </trkpt>
      <trkpt lat="42.71508" lon="1.39546">
        <ele>1649.5999755859</ele>
        <time>2023-07-24T06:55:56.000Z</time>
      </trkpt>
      <trkpt lat="42.71506" lon="1.39542">
        <ele>1649.8000488281</ele>
        <time>2023-07-24T06:56:03.000Z</time>
      </trkpt>
      <trkpt lat="42.71505" lon="1.3954">
        <ele>1650</ele>
        <time>2023-07-24T06:56:11.000Z</time>
      </trkpt>
      <trkpt lat="42.71504" lon="1.39539">
        <ele>1650</ele>
        <time>2023-07-24T06:56:18.000Z</time>
      </trkpt>
      <trkpt lat="42.71503" lon="1.39531">
        <ele>1650.1999511719</ele>
        <time>2023-07-24T06:56:27.000Z</time>
      </trkpt>
      <trkpt lat="42.71503" lon="1.39526">
        <ele>1651</ele>
        <time>2023-07-24T06:56:34.000Z</time>
      </trkpt>
      <trkpt lat="42.71503" lon="1.39526">
        <ele>1651.1999511719</ele>
        <time>2023-07-24T06:56:38.000Z</time>
      </trkpt>
      <trkpt lat="42.71504" lon="1.39525">
        <ele>1651.4000244141</ele>
        <time>2023-07-24T06:56:41.000Z</time>
      </trkpt>
      <trkpt lat="42.71501" lon="1.39518">
        <ele>1652</ele>
        <time>2023-07-24T06:56:47.000Z</time>
      </trkpt>
      <trkpt lat="42.715" lon="1.39514">
        <ele>1652.1999511719</ele>
        <time>2023-07-24T06:56:51.000Z</time>
      </trkpt>
      <trkpt lat="42.71498" lon="1.39511">
        <ele>1652.4000244141</ele>
        <time>2023-07-24T06:56:53.000Z</time>
      </trkpt>
      <trkpt lat="42.71498" lon="1.39509">
        <ele>1653</ele>
        <time>2023-07-24T06:57:02.000Z</time>
      </trkpt>
      <trkpt lat="42.71498" lon="1.39506">
        <ele>1653.4000244141</ele>
        <time>2023-07-24T06:57:06.000Z</time>
      </trkpt>
      <trkpt lat="42.71498" lon="1.39504">
        <ele>1653.8000488281</ele>
        <time>2023-07-24T06:57:09.000Z</time>
      </trkpt>
      <trkpt lat="42.71499" lon="1.39499">
        <ele>1654.4000244141</ele>
        <time>2023-07-24T06:57:14.000Z</time>
      </trkpt>
      <trkpt lat="42.715" lon="1.39496">
        <ele>1654.5999755859</ele>
        <time>2023-07-24T06:57:16.000Z</time>
      </trkpt>
      <trkpt lat="42.715" lon="1.39493">
        <ele>1655.4000244141</ele>
        <time>2023-07-24T06:57:22.000Z</time>
      </trkpt>
      <trkpt lat="42.715" lon="1.39493">
        <ele>1655.8000488281</ele>
        <time>2023-07-24T06:57:24.000Z</time>
      </trkpt>
      <trkpt lat="42.71499" lon="1.39489">
        <ele>1656.5999755859</ele>
        <time>2023-07-24T06:57:30.000Z</time>
      </trkpt>
      <trkpt lat="42.71498" lon="1.39489">
        <ele>1656.8000488281</ele>
        <time>2023-07-24T06:57:31.000Z</time>
      </trkpt>
      <trkpt lat="42.71496" lon="1.39485">
        <ele>1657.5999755859</ele>
        <time>2023-07-24T06:57:37.000Z</time>
      </trkpt>
      <trkpt lat="42.71495" lon="1.39484">
        <ele>1657.8000488281</ele>
        <time>2023-07-24T06:57:39.000Z</time>
      </trkpt>
      <trkpt lat="42.71495" lon="1.39481">
        <ele>1658.5999755859</ele>
        <time>2023-07-24T06:57:45.000Z</time>
      </trkpt>
      <trkpt lat="42.71493" lon="1.39476">
        <ele>1659</ele>
        <time>2023-07-24T06:57:48.000Z</time>
      </trkpt>
      <trkpt lat="42.71493" lon="1.39471">
        <ele>1659.5999755859</ele>
        <time>2023-07-24T06:57:53.000Z</time>
      </trkpt>
      <trkpt lat="42.71492" lon="1.39468">
        <ele>1660.1999511719</ele>
        <time>2023-07-24T06:57:57.000Z</time>
      </trkpt>
      <trkpt lat="42.71491" lon="1.39463">
        <ele>1660.5999755859</ele>
        <time>2023-07-24T06:58:05.000Z</time>
      </trkpt>
      <trkpt lat="42.71491" lon="1.39463">
        <ele>1660.8000488281</ele>
        <time>2023-07-24T06:58:06.000Z</time>
      </trkpt>
      <trkpt lat="42.71491" lon="1.39458">
        <ele>1661.8000488281</ele>
        <time>2023-07-24T06:58:14.000Z</time>
      </trkpt>
      <trkpt lat="42.71492" lon="1.39459">
        <ele>1662.4000244141</ele>
        <time>2023-07-24T06:58:18.000Z</time>
      </trkpt>
      <trkpt lat="42.7149" lon="1.39462">
        <ele>1662.5999755859</ele>
        <time>2023-07-24T06:58:26.000Z</time>
      </trkpt>
      <trkpt lat="42.71489" lon="1.39459">
        <ele>1662.4000244141</ele>
        <time>2023-07-24T06:58:34.000Z</time>
      </trkpt>
      <trkpt lat="42.71489" lon="1.39448">
        <ele>1662.8000488281</ele>
        <time>2023-07-24T06:58:42.000Z</time>
      </trkpt>
      <trkpt lat="42.71489" lon="1.39447">
        <ele>1663</ele>
        <time>2023-07-24T06:58:43.000Z</time>
      </trkpt>
      <trkpt lat="42.71488" lon="1.39438">
        <ele>1664</ele>
        <time>2023-07-24T06:58:50.000Z</time>
      </trkpt>
      <trkpt lat="42.71487" lon="1.39437">
        <ele>1665</ele>
        <time>2023-07-24T06:58:58.000Z</time>
      </trkpt>
      <trkpt lat="42.71487" lon="1.39437">
        <ele>1665.1999511719</ele>
        <time>2023-07-24T06:58:59.000Z</time>
      </trkpt>
      <trkpt lat="42.71488" lon="1.39432">
        <ele>1667</ele>
        <time>2023-07-24T06:59:11.000Z</time>
      </trkpt>
      <trkpt lat="42.71488" lon="1.39431">
        <ele>1667.1999511719</ele>
        <time>2023-07-24T06:59:13.000Z</time>
      </trkpt>
      <trkpt lat="42.71487" lon="1.39425">
        <ele>1668.1999511719</ele>
        <time>2023-07-24T06:59:21.000Z</time>
      </trkpt>
      <trkpt lat="42.71486" lon="1.39424">
        <ele>1668.5999755859</ele>
        <time>2023-07-24T06:59:23.000Z</time>
      </trkpt>
      <trkpt lat="42.71486" lon="1.39425">
        <ele>1669.1999511719</ele>
        <time>2023-07-24T06:59:30.000Z</time>
      </trkpt>
      <trkpt lat="42.71486" lon="1.39425">
        <ele>1669.4000244141</ele>
        <time>2023-07-24T06:59:31.000Z</time>
      </trkpt>
      <trkpt lat="42.71481" lon="1.39426">
        <ele>1670.5999755859</ele>
        <time>2023-07-24T06:59:40.000Z</time>
      </trkpt>
      <trkpt lat="42.71478" lon="1.39422">
        <ele>1671.5999755859</ele>
        <time>2023-07-24T06:59:46.000Z</time>
      </trkpt>
      <trkpt lat="42.71478" lon="1.3942">
        <ele>1671.8000488281</ele>
        <time>2023-07-24T06:59:48.000Z</time>
      </trkpt>
      <trkpt lat="42.71477" lon="1.39419">
        <ele>1672.5999755859</ele>
        <time>2023-07-24T06:59:55.000Z</time>
      </trkpt>
      <trkpt lat="42.71478" lon="1.39415">
        <ele>1673.5999755859</ele>
        <time>2023-07-24T07:00:01.000Z</time>
      </trkpt>
      <trkpt lat="42.71478" lon="1.39413">
        <ele>1673.5999755859</ele>
        <time>2023-07-24T07:00:04.000Z</time>
      </trkpt>
      <trkpt lat="42.71473" lon="1.39404">
        <ele>1673.8000488281</ele>
        <time>2023-07-24T07:00:12.000Z</time>
      </trkpt>
      <trkpt lat="42.7147" lon="1.39397">
        <ele>1674.4000244141</ele>
        <time>2023-07-24T07:00:20.000Z</time>
      </trkpt>
      <trkpt lat="42.71469" lon="1.39397">
        <ele>1674.5999755859</ele>
        <time>2023-07-24T07:00:22.000Z</time>
      </trkpt>
      <trkpt lat="42.71465" lon="1.39393">
        <ele>1675.1999511719</ele>
        <time>2023-07-24T07:00:28.000Z</time>
      </trkpt>
      <trkpt lat="42.71463" lon="1.39389">
        <ele>1675.5999755859</ele>
        <time>2023-07-24T07:00:36.000Z</time>
      </trkpt>
      <trkpt lat="42.71462" lon="1.39387">
        <ele>1675.8000488281</ele>
        <time>2023-07-24T07:00:38.000Z</time>
      </trkpt>
      <trkpt lat="42.71461" lon="1.39385">
        <ele>1676</ele>
        <time>2023-07-24T07:00:43.000Z</time>
      </trkpt>
      <trkpt lat="42.71457" lon="1.3938">
        <ele>1676.1999511719</ele>
        <time>2023-07-24T07:00:51.000Z</time>
      </trkpt>
      <trkpt lat="42.71451" lon="1.39372">
        <ele>1676.4000244141</ele>
        <time>2023-07-24T07:00:58.000Z</time>
      </trkpt>
      <trkpt lat="42.7145" lon="1.39369">
        <ele>1676.8000488281</ele>
        <time>2023-07-24T07:01:03.000Z</time>
      </trkpt>
      <trkpt lat="42.71449" lon="1.39368">
        <ele>1677.1999511719</ele>
        <time>2023-07-24T07:01:05.000Z</time>
      </trkpt>
      <trkpt lat="42.71447" lon="1.39361">
        <ele>1677</ele>
        <time>2023-07-24T07:01:15.000Z</time>
      </trkpt>
      <trkpt lat="42.7144" lon="1.3935">
        <ele>1677.1999511719</ele>
        <time>2023-07-24T07:01:26.000Z</time>
      </trkpt>
      <trkpt lat="42.71438" lon="1.39348">
        <ele>1677.1999511719</ele>
        <time>2023-07-24T07:01:36.000Z</time>
      </trkpt>
      <trkpt lat="42.71435" lon="1.3934">
        <ele>1677.5999755859</ele>
        <time>2023-07-24T07:01:44.000Z</time>
      </trkpt>
      <trkpt lat="42.71434" lon="1.39335">
        <ele>1677.8000488281</ele>
        <time>2023-07-24T07:01:48.000Z</time>
      </trkpt>
      <trkpt lat="42.71433" lon="1.3933">
        <ele>1678</ele>
        <time>2023-07-24T07:01:52.000Z</time>
      </trkpt>
      <trkpt lat="42.7143" lon="1.39325">
        <ele>1677.8000488281</ele>
        <time>2023-07-24T07:02:01.000Z</time>
      </trkpt>
      <trkpt lat="42.71426" lon="1.39318">
        <ele>1677.8000488281</ele>
        <time>2023-07-24T07:02:09.000Z</time>
      </trkpt>
      <trkpt lat="42.71424" lon="1.39312">
        <ele>1678.1999511719</ele>
        <time>2023-07-24T07:02:16.000Z</time>
      </trkpt>
      <trkpt lat="42.71421" lon="1.39306">
        <ele>1678.8000488281</ele>
        <time>2023-07-24T07:02:23.000Z</time>
      </trkpt>
      <trkpt lat="42.7142" lon="1.39303">
        <ele>1679.4000244141</ele>
        <time>2023-07-24T07:02:26.000Z</time>
      </trkpt>
      <trkpt lat="42.7142" lon="1.393">
        <ele>1680</ele>
        <time>2023-07-24T07:02:30.000Z</time>
      </trkpt>
      <trkpt lat="42.71419" lon="1.39298">
        <ele>1680.1999511719</ele>
        <time>2023-07-24T07:02:34.000Z</time>
      </trkpt>
      <trkpt lat="42.71418" lon="1.3929">
        <ele>1680.8000488281</ele>
        <time>2023-07-24T07:02:44.000Z</time>
      </trkpt>
      <trkpt lat="42.71418" lon="1.39288">
        <ele>1681</ele>
        <time>2023-07-24T07:02:46.000Z</time>
      </trkpt>
      <trkpt lat="42.71419" lon="1.39278">
        <ele>1682.1999511719</ele>
        <time>2023-07-24T07:02:58.000Z</time>
      </trkpt>
      <trkpt lat="42.71419" lon="1.3927">
        <ele>1683</ele>
        <time>2023-07-24T07:03:06.000Z</time>
      </trkpt>
      <trkpt lat="42.71419" lon="1.39269">
        <ele>1683.1999511719</ele>
        <time>2023-07-24T07:03:07.000Z</time>
      </trkpt>
      <trkpt lat="42.7142" lon="1.39265">
        <ele>1683.4000244141</ele>
        <time>2023-07-24T07:03:15.000Z</time>
      </trkpt>
      <trkpt lat="42.7142" lon="1.39254">
        <ele>1683.5999755859</ele>
        <time>2023-07-24T07:03:22.000Z</time>
      </trkpt>
      <trkpt lat="42.71419" lon="1.39247">
        <ele>1684</ele>
        <time>2023-07-24T07:03:29.000Z</time>
      </trkpt>
      <trkpt lat="42.71419" lon="1.39234">
        <ele>1684</ele>
        <time>2023-07-24T07:03:38.000Z</time>
      </trkpt>
      <trkpt lat="42.71419" lon="1.39231">
        <ele>1684.1999511719</ele>
        <time>2023-07-24T07:03:40.000Z</time>
      </trkpt>
      <trkpt lat="42.71419" lon="1.39225">
        <ele>1684.4000244141</ele>
        <time>2023-07-24T07:03:46.000Z</time>
      </trkpt>
      <trkpt lat="42.71416" lon="1.39212">
        <ele>1684.4000244141</ele>
        <time>2023-07-24T07:03:53.000Z</time>
      </trkpt>
      <trkpt lat="42.7141" lon="1.392">
        <ele>1684</ele>
        <time>2023-07-24T07:04:02.000Z</time>
      </trkpt>
      <trkpt lat="42.71408" lon="1.39192">
        <ele>1683.5999755859</ele>
        <time>2023-07-24T07:04:11.000Z</time>
      </trkpt>
      <trkpt lat="42.71406" lon="1.39188">
        <ele>1683.1999511719</ele>
        <time>2023-07-24T07:04:16.000Z</time>
      </trkpt>
      <trkpt lat="42.71406" lon="1.39184">
        <ele>1683</ele>
        <time>2023-07-24T07:04:19.000Z</time>
      </trkpt>
      <trkpt lat="42.71405" lon="1.39179">
        <ele>1682.5999755859</ele>
        <time>2023-07-24T07:04:27.000Z</time>
      </trkpt>
      <trkpt lat="42.71401" lon="1.39172">
        <ele>1682.1999511719</ele>
        <time>2023-07-24T07:04:36.000Z</time>
      </trkpt>
      <trkpt lat="42.714" lon="1.3917">
        <ele>1682</ele>
        <time>2023-07-24T07:04:37.000Z</time>
      </trkpt>
      <trkpt lat="42.71396" lon="1.3916">
        <ele>1681.8000488281</ele>
        <time>2023-07-24T07:04:45.000Z</time>
      </trkpt>
      <trkpt lat="42.71392" lon="1.39157">
        <ele>1681.5999755859</ele>
        <time>2023-07-24T07:04:53.000Z</time>
      </trkpt>
      <trkpt lat="42.71387" lon="1.39151">
        <ele>1681.8000488281</ele>
        <time>2023-07-24T07:05:02.000Z</time>
      </trkpt>
      <trkpt lat="42.71384" lon="1.39143">
        <ele>1682</ele>
        <time>2023-07-24T07:05:10.000Z</time>
      </trkpt>
      <trkpt lat="42.71382" lon="1.39139">
        <ele>1682.4000244141</ele>
        <time>2023-07-24T07:05:17.000Z</time>
      </trkpt>
      <trkpt lat="42.71379" lon="1.39132">
        <ele>1682.8000488281</ele>
        <time>2023-07-24T07:05:25.000Z</time>
      </trkpt>
      <trkpt lat="42.71379" lon="1.39127">
        <ele>1683.1999511719</ele>
        <time>2023-07-24T07:05:30.000Z</time>
      </trkpt>
      <trkpt lat="42.71378" lon="1.39124">
        <ele>1683.1999511719</ele>
        <time>2023-07-24T07:05:32.000Z</time>
      </trkpt>
      <trkpt lat="42.71377" lon="1.39115">
        <ele>1683.8000488281</ele>
        <time>2023-07-24T07:05:41.000Z</time>
      </trkpt>
      <trkpt lat="42.71376" lon="1.39112">
        <ele>1684.4000244141</ele>
        <time>2023-07-24T07:05:44.000Z</time>
      </trkpt>
      <trkpt lat="42.71376" lon="1.39104">
        <ele>1684.8000488281</ele>
        <time>2023-07-24T07:05:49.000Z</time>
      </trkpt>
      <trkpt lat="42.71375" lon="1.39099">
        <ele>1685.4000244141</ele>
        <time>2023-07-24T07:05:54.000Z</time>
      </trkpt>
      <trkpt lat="42.71377" lon="1.39098">
        <ele>1686.4000244141</ele>
        <time>2023-07-24T07:06:01.000Z</time>
      </trkpt>
      <trkpt lat="42.71377" lon="1.39095">
        <ele>1686.5999755859</ele>
        <time>2023-07-24T07:06:03.000Z</time>
      </trkpt>
      <trkpt lat="42.71378" lon="1.39086">
        <ele>1688.1999511719</ele>
        <time>2023-07-24T07:06:16.000Z</time>
      </trkpt>
      <trkpt lat="42.71381" lon="1.39077">
        <ele>1688.4000244141</ele>
        <time>2023-07-24T07:06:24.000Z</time>
      </trkpt>
      <trkpt lat="42.71382" lon="1.39073">
        <ele>1689.1999511719</ele>
        <time>2023-07-24T07:06:33.000Z</time>
      </trkpt>
      <trkpt lat="42.71382" lon="1.39067">
        <ele>1689.8000488281</ele>
        <time>2023-07-24T07:06:38.000Z</time>
      </trkpt>
      <trkpt lat="42.71382" lon="1.39063">
        <ele>1690.1999511719</ele>
        <time>2023-07-24T07:06:42.000Z</time>
      </trkpt>
      <trkpt lat="42.71383" lon="1.39058">
        <ele>1691.5999755859</ele>
        <time>2023-07-24T07:06:52.000Z</time>
      </trkpt>
      <trkpt lat="42.71383" lon="1.39055">
        <ele>1692</ele>
        <time>2023-07-24T07:06:55.000Z</time>
      </trkpt>
      <trkpt lat="42.71384" lon="1.39053">
        <ele>1692.5999755859</ele>
        <time>2023-07-24T07:06:59.000Z</time>
      </trkpt>
      <trkpt lat="42.71384" lon="1.39052">
        <ele>1693</ele>
        <time>2023-07-24T07:07:01.000Z</time>
      </trkpt>
      <trkpt lat="42.71385" lon="1.39041">
        <ele>1694.1999511719</ele>
        <time>2023-07-24T07:07:10.000Z</time>
      </trkpt>
      <trkpt lat="42.71385" lon="1.39036">
        <ele>1695.1999511719</ele>
        <time>2023-07-24T07:07:16.000Z</time>
      </trkpt>
      <trkpt lat="42.71387" lon="1.39031">
        <ele>1695.8000488281</ele>
        <time>2023-07-24T07:07:23.000Z</time>
      </trkpt>
      <trkpt lat="42.71386" lon="1.39027">
        <ele>1696.1999511719</ele>
        <time>2023-07-24T07:07:28.000Z</time>
      </trkpt>
      <trkpt lat="42.71385" lon="1.39024">
        <ele>1696.5999755859</ele>
        <time>2023-07-24T07:07:32.000Z</time>
      </trkpt>
      <trkpt lat="42.71385" lon="1.39022">
        <ele>1697.1999511719</ele>
        <time>2023-07-24T07:07:35.000Z</time>
      </trkpt>
      <trkpt lat="42.71384" lon="1.3902">
        <ele>1697.4000244141</ele>
        <time>2023-07-24T07:07:39.000Z</time>
      </trkpt>
      <trkpt lat="42.71384" lon="1.39013">
        <ele>1698.1999511719</ele>
        <time>2023-07-24T07:07:45.000Z</time>
      </trkpt>
      <trkpt lat="42.71382" lon="1.39007">
        <ele>1699.1999511719</ele>
        <time>2023-07-24T07:07:55.000Z</time>
      </trkpt>
      <trkpt lat="42.71382" lon="1.39">
        <ele>1699.8000488281</ele>
        <time>2023-07-24T07:08:00.000Z</time>
      </trkpt>
      <trkpt lat="42.71379" lon="1.38995">
        <ele>1700</ele>
        <time>2023-07-24T07:08:07.000Z</time>
      </trkpt>
      <trkpt lat="42.7138" lon="1.38986">
        <ele>1700.1999511719</ele>
        <time>2023-07-24T07:08:14.000Z</time>
      </trkpt>
      <trkpt lat="42.71379" lon="1.38978">
        <ele>1700.4000244141</ele>
        <time>2023-07-24T07:08:21.000Z</time>
      </trkpt>
      <trkpt lat="42.71378" lon="1.38968">
        <ele>1701</ele>
        <time>2023-07-24T07:08:30.000Z</time>
      </trkpt>
      <trkpt lat="42.71378" lon="1.38965">
        <ele>1701.4000244141</ele>
        <time>2023-07-24T07:08:33.000Z</time>
      </trkpt>
      <trkpt lat="42.71377" lon="1.38962">
        <ele>1702</ele>
        <time>2023-07-24T07:08:37.000Z</time>
      </trkpt>
      <trkpt lat="42.71377" lon="1.38958">
        <ele>1702.5999755859</ele>
        <time>2023-07-24T07:08:41.000Z</time>
      </trkpt>
      <trkpt lat="42.71377" lon="1.38954">
        <ele>1702.8000488281</ele>
        <time>2023-07-24T07:08:45.000Z</time>
      </trkpt>
      <trkpt lat="42.71383" lon="1.38961">
        <ele>1703</ele>
        <time>2023-07-24T07:09:03.000Z</time>
      </trkpt>
      <trkpt lat="42.71378" lon="1.38959">
        <ele>1703</ele>
        <time>2023-07-24T07:09:10.000Z</time>
      </trkpt>
      <trkpt lat="42.71375" lon="1.38959">
        <ele>1702.8000488281</ele>
        <time>2023-07-24T07:09:21.000Z</time>
      </trkpt>
      <trkpt lat="42.71372" lon="1.38959">
        <ele>1702.8000488281</ele>
        <time>2023-07-24T07:09:29.000Z</time>
      </trkpt>
      <trkpt lat="42.71373" lon="1.38949">
        <ele>1702.5999755859</ele>
        <time>2023-07-24T07:09:38.000Z</time>
      </trkpt>
      <trkpt lat="42.71375" lon="1.38945">
        <ele>1702.4000244141</ele>
        <time>2023-07-24T07:09:43.000Z</time>
      </trkpt>
      <trkpt lat="42.71375" lon="1.38943">
        <ele>1703</ele>
        <time>2023-07-24T07:09:51.000Z</time>
      </trkpt>
      <trkpt lat="42.71373" lon="1.38937">
        <ele>1703.5999755859</ele>
        <time>2023-07-24T07:09:57.000Z</time>
      </trkpt>
      <trkpt lat="42.71372" lon="1.38933">
        <ele>1704</ele>
        <time>2023-07-24T07:10:00.000Z</time>
      </trkpt>
      <trkpt lat="42.7137" lon="1.38927">
        <ele>1704.5999755859</ele>
        <time>2023-07-24T07:10:06.000Z</time>
      </trkpt>
      <trkpt lat="42.7137" lon="1.38927">
        <ele>1704.8000488281</ele>
        <time>2023-07-24T07:10:08.000Z</time>
      </trkpt>
      <trkpt lat="42.71371" lon="1.38922">
        <ele>1705.5999755859</ele>
        <time>2023-07-24T07:10:17.000Z</time>
      </trkpt>
      <trkpt lat="42.71371" lon="1.38921">
        <ele>1705.8000488281</ele>
        <time>2023-07-24T07:10:18.000Z</time>
      </trkpt>
      <trkpt lat="42.71371" lon="1.38911">
        <ele>1706.1999511719</ele>
        <time>2023-07-24T07:10:28.000Z</time>
      </trkpt>
      <trkpt lat="42.71371" lon="1.38902">
        <ele>1706.1999511719</ele>
        <time>2023-07-24T07:10:37.000Z</time>
      </trkpt>
      <trkpt lat="42.7137" lon="1.38898">
        <ele>1705.4000244141</ele>
        <time>2023-07-24T07:10:46.000Z</time>
      </trkpt>
      <trkpt lat="42.71369" lon="1.38891">
        <ele>1704.8000488281</ele>
        <time>2023-07-24T07:10:58.000Z</time>
      </trkpt>
      <trkpt lat="42.71368" lon="1.38883">
        <ele>1704.5999755859</ele>
        <time>2023-07-24T07:11:08.000Z</time>
      </trkpt>
      <trkpt lat="42.71369" lon="1.3889">
        <ele>1704.4000244141</ele>
        <time>2023-07-24T07:11:15.000Z</time>
      </trkpt>
      <trkpt lat="42.7137" lon="1.38893">
        <ele>1704.1999511719</ele>
        <time>2023-07-24T07:11:21.000Z</time>
      </trkpt>
      <trkpt lat="42.71373" lon="1.38894">
        <ele>1704</ele>
        <time>2023-07-24T07:11:32.000Z</time>
      </trkpt>
      <trkpt lat="42.71374" lon="1.38902">
        <ele>1704</ele>
        <time>2023-07-24T07:11:40.000Z</time>
      </trkpt>
      <trkpt lat="42.71373" lon="1.38894">
        <ele>1703.8000488281</ele>
        <time>2023-07-24T07:11:46.000Z</time>
      </trkpt>
      <trkpt lat="42.7137" lon="1.38888">
        <ele>1703.8000488281</ele>
        <time>2023-07-24T07:11:53.000Z</time>
      </trkpt>
      <trkpt lat="42.71369" lon="1.38876">
        <ele>1704</ele>
        <time>2023-07-24T07:12:03.000Z</time>
      </trkpt>
      <trkpt lat="42.71369" lon="1.38868">
        <ele>1704</ele>
        <time>2023-07-24T07:12:11.000Z</time>
      </trkpt>
      <trkpt lat="42.71369" lon="1.38861">
        <ele>1704.4000244141</ele>
        <time>2023-07-24T07:12:17.000Z</time>
      </trkpt>
      <trkpt lat="42.71366" lon="1.38853">
        <ele>1704.8000488281</ele>
        <time>2023-07-24T07:12:25.000Z</time>
      </trkpt>
      <trkpt lat="42.71364" lon="1.38846">
        <ele>1705.5999755859</ele>
        <time>2023-07-24T07:12:33.000Z</time>
      </trkpt>
      <trkpt lat="42.71363" lon="1.38845">
        <ele>1705.8000488281</ele>
        <time>2023-07-24T07:12:34.000Z</time>
      </trkpt>
      <trkpt lat="42.71361" lon="1.38839">
        <ele>1706.1999511719</ele>
        <time>2023-07-24T07:12:43.000Z</time>
      </trkpt>
      <trkpt lat="42.7136" lon="1.38832">
        <ele>1706.8000488281</ele>
        <time>2023-07-24T07:12:48.000Z</time>
      </trkpt>
      <trkpt lat="42.7136" lon="1.38827">
        <ele>1707.1999511719</ele>
        <time>2023-07-24T07:12:51.000Z</time>
      </trkpt>
      <trkpt lat="42.7136" lon="1.38823">
        <ele>1707.8000488281</ele>
        <time>2023-07-24T07:12:54.000Z</time>
      </trkpt>
      <trkpt lat="42.71359" lon="1.38819">
        <ele>1708.8000488281</ele>
        <time>2023-07-24T07:12:59.000Z</time>
      </trkpt>
      <trkpt lat="42.71359" lon="1.38818">
        <ele>1709.1999511719</ele>
        <time>2023-07-24T07:13:00.000Z</time>
      </trkpt>
      <trkpt lat="42.71358" lon="1.38815">
        <ele>1710.1999511719</ele>
        <time>2023-07-24T07:13:06.000Z</time>
      </trkpt>
      <trkpt lat="42.71358" lon="1.38814">
        <ele>1710.4000244141</ele>
        <time>2023-07-24T07:13:07.000Z</time>
      </trkpt>
      <trkpt lat="42.71357" lon="1.38809">
        <ele>1711.1999511719</ele>
        <time>2023-07-24T07:13:12.000Z</time>
      </trkpt>
      <trkpt lat="42.71356" lon="1.38807">
        <ele>1712</ele>
        <time>2023-07-24T07:13:16.000Z</time>
      </trkpt>
      <trkpt lat="42.71356" lon="1.38806">
        <ele>1712.1999511719</ele>
        <time>2023-07-24T07:13:17.000Z</time>
      </trkpt>
      <trkpt lat="42.71354" lon="1.38803">
        <ele>1713.4000244141</ele>
        <time>2023-07-24T07:13:22.000Z</time>
      </trkpt>
      <trkpt lat="42.71353" lon="1.38795">
        <ele>1714.5999755859</ele>
        <time>2023-07-24T07:13:29.000Z</time>
      </trkpt>
      <trkpt lat="42.71352" lon="1.3879">
        <ele>1715.5999755859</ele>
        <time>2023-07-24T07:13:36.000Z</time>
      </trkpt>
      <trkpt lat="42.71352" lon="1.38787">
        <ele>1715.8000488281</ele>
        <time>2023-07-24T07:13:38.000Z</time>
      </trkpt>
      <trkpt lat="42.71349" lon="1.38777">
        <ele>1716.4000244141</ele>
        <time>2023-07-24T07:13:47.000Z</time>
      </trkpt>
      <trkpt lat="42.71348" lon="1.38775">
        <ele>1716.5999755859</ele>
        <time>2023-07-24T07:13:48.000Z</time>
      </trkpt>
      <trkpt lat="42.71347" lon="1.38766">
        <ele>1717.5999755859</ele>
        <time>2023-07-24T07:13:56.000Z</time>
      </trkpt>
      <trkpt lat="42.71347" lon="1.38765">
        <ele>1717.8000488281</ele>
        <time>2023-07-24T07:13:57.000Z</time>
      </trkpt>
      <trkpt lat="42.71348" lon="1.38764">
        <ele>1718.8000488281</ele>
        <time>2023-07-24T07:14:03.000Z</time>
      </trkpt>
      <trkpt lat="42.71348" lon="1.3876">
        <ele>1719.8000488281</ele>
        <time>2023-07-24T07:14:10.000Z</time>
      </trkpt>
      <trkpt lat="42.71348" lon="1.38759">
        <ele>1720.1999511719</ele>
        <time>2023-07-24T07:14:12.000Z</time>
      </trkpt>
      <trkpt lat="42.71348" lon="1.38755">
        <ele>1720.8000488281</ele>
        <time>2023-07-24T07:14:16.000Z</time>
      </trkpt>
      <trkpt lat="42.71348" lon="1.3875">
        <ele>1721.4000244141</ele>
        <time>2023-07-24T07:14:20.000Z</time>
      </trkpt>
      <trkpt lat="42.71348" lon="1.38747">
        <ele>1722.1999511719</ele>
        <time>2023-07-24T07:14:23.000Z</time>
      </trkpt>
      <trkpt lat="42.71348" lon="1.38749">
        <ele>1723</ele>
        <time>2023-07-24T07:14:28.000Z</time>
      </trkpt>
      <trkpt lat="42.71348" lon="1.38749">
        <ele>1723.1999511719</ele>
        <time>2023-07-24T07:14:29.000Z</time>
      </trkpt>
      <trkpt lat="42.71347" lon="1.38746">
        <ele>1724.1999511719</ele>
        <time>2023-07-24T07:14:36.000Z</time>
      </trkpt>
      <trkpt lat="42.71345" lon="1.38742">
        <ele>1725.4000244141</ele>
        <time>2023-07-24T07:14:42.000Z</time>
      </trkpt>
      <trkpt lat="42.71344" lon="1.38742">
        <ele>1725.8000488281</ele>
        <time>2023-07-24T07:14:45.000Z</time>
      </trkpt>
      <trkpt lat="42.71345" lon="1.38742">
        <ele>1726.4000244141</ele>
        <time>2023-07-24T07:14:48.000Z</time>
      </trkpt>
      <trkpt lat="42.71342" lon="1.38737">
        <ele>1727.1999511719</ele>
        <time>2023-07-24T07:14:52.000Z</time>
      </trkpt>
      <trkpt lat="42.71341" lon="1.38736">
        <ele>1727.5999755859</ele>
        <time>2023-07-24T07:14:53.000Z</time>
      </trkpt>
      <trkpt lat="42.71342" lon="1.38735">
        <ele>1728.4000244141</ele>
        <time>2023-07-24T07:14:59.000Z</time>
      </trkpt>
      <trkpt lat="42.71342" lon="1.38734">
        <ele>1728.5999755859</ele>
        <time>2023-07-24T07:15:00.000Z</time>
      </trkpt>
      <trkpt lat="42.71342" lon="1.38726">
        <ele>1729.5999755859</ele>
        <time>2023-07-24T07:15:07.000Z</time>
      </trkpt>
      <trkpt lat="42.71339" lon="1.38722">
        <ele>1730.5999755859</ele>
        <time>2023-07-24T07:15:14.000Z</time>
      </trkpt>
      <trkpt lat="42.71339" lon="1.38721">
        <ele>1731</ele>
        <time>2023-07-24T07:15:16.000Z</time>
      </trkpt>
      <trkpt lat="42.71338" lon="1.38718">
        <ele>1731.5999755859</ele>
        <time>2023-07-24T07:15:19.000Z</time>
      </trkpt>
      <trkpt lat="42.71338" lon="1.38716">
        <ele>1732.5999755859</ele>
        <time>2023-07-24T07:15:25.000Z</time>
      </trkpt>
      <trkpt lat="42.71337" lon="1.38715">
        <ele>1732.8000488281</ele>
        <time>2023-07-24T07:15:26.000Z</time>
      </trkpt>
      <trkpt lat="42.71337" lon="1.38712">
        <ele>1733.8000488281</ele>
        <time>2023-07-24T07:15:31.000Z</time>
      </trkpt>
      <trkpt lat="42.71336" lon="1.38711">
        <ele>1734.1999511719</ele>
        <time>2023-07-24T07:15:34.000Z</time>
      </trkpt>
      <trkpt lat="42.71335" lon="1.3871">
        <ele>1734.8000488281</ele>
        <time>2023-07-24T07:15:37.000Z</time>
      </trkpt>
      <trkpt lat="42.71334" lon="1.38711">
        <ele>1736</ele>
        <time>2023-07-24T07:15:43.000Z</time>
      </trkpt>
      <trkpt lat="42.71334" lon="1.38711">
        <ele>1736</ele>
        <time>2023-07-24T07:15:44.000Z</time>
      </trkpt>
      <trkpt lat="42.71333" lon="1.3871">
        <ele>1737</ele>
        <time>2023-07-24T07:15:47.000Z</time>
      </trkpt>
      <trkpt lat="42.7133" lon="1.38706">
        <ele>1737.8000488281</ele>
        <time>2023-07-24T07:15:53.000Z</time>
      </trkpt>
      <trkpt lat="42.7133" lon="1.38704">
        <ele>1738.1999511719</ele>
        <time>2023-07-24T07:15:55.000Z</time>
      </trkpt>
      <trkpt lat="42.71329" lon="1.38698">
        <ele>1739</ele>
        <time>2023-07-24T07:16:01.000Z</time>
      </trkpt>
      <trkpt lat="42.71329" lon="1.38697">
        <ele>1739.1999511719</ele>
        <time>2023-07-24T07:16:03.000Z</time>
      </trkpt>
      <trkpt lat="42.71328" lon="1.38691">
        <ele>1739.8000488281</ele>
        <time>2023-07-24T07:16:09.000Z</time>
      </trkpt>
      <trkpt lat="42.71328" lon="1.38688">
        <ele>1740.4000244141</ele>
        <time>2023-07-24T07:16:13.000Z</time>
      </trkpt>
      <trkpt lat="42.71326" lon="1.38685">
        <ele>1741.4000244141</ele>
        <time>2023-07-24T07:16:18.000Z</time>
      </trkpt>
      <trkpt lat="42.71326" lon="1.38685">
        <ele>1741.5999755859</ele>
        <time>2023-07-24T07:16:19.000Z</time>
      </trkpt>
      <trkpt lat="42.71325" lon="1.38684">
        <ele>1742.5999755859</ele>
        <time>2023-07-24T07:16:24.000Z</time>
      </trkpt>
      <trkpt lat="42.71325" lon="1.38682">
        <ele>1743</ele>
        <time>2023-07-24T07:16:26.000Z</time>
      </trkpt>
      <trkpt lat="42.71323" lon="1.38678">
        <ele>1743.5999755859</ele>
        <time>2023-07-24T07:16:30.000Z</time>
      </trkpt>
      <trkpt lat="42.7132" lon="1.38675">
        <ele>1744.4000244141</ele>
        <time>2023-07-24T07:16:35.000Z</time>
      </trkpt>
      <trkpt lat="42.7132" lon="1.38673">
        <ele>1744.8000488281</ele>
        <time>2023-07-24T07:16:38.000Z</time>
      </trkpt>
      <trkpt lat="42.71319" lon="1.3867">
        <ele>1745.5999755859</ele>
        <time>2023-07-24T07:16:44.000Z</time>
      </trkpt>
      <trkpt lat="42.71319" lon="1.3867">
        <ele>1746</ele>
        <time>2023-07-24T07:16:46.000Z</time>
      </trkpt>
      <trkpt lat="42.71319" lon="1.3867">
        <ele>1746.8000488281</ele>
        <time>2023-07-24T07:16:52.000Z</time>
      </trkpt>
      <trkpt lat="42.71318" lon="1.38672">
        <ele>1747</ele>
        <time>2023-07-24T07:16:54.000Z</time>
      </trkpt>
      <trkpt lat="42.71318" lon="1.38673">
        <ele>1747.4000244141</ele>
        <time>2023-07-24T07:16:57.000Z</time>
      </trkpt>
      <trkpt lat="42.71316" lon="1.38674">
        <ele>1748</ele>
        <time>2023-07-24T07:17:01.000Z</time>
      </trkpt>
      <trkpt lat="42.71317" lon="1.38673">
        <ele>1748.5999755859</ele>
        <time>2023-07-24T07:17:05.000Z</time>
      </trkpt>
      <trkpt lat="42.71316" lon="1.38673">
        <ele>1749.1999511719</ele>
        <time>2023-07-24T07:17:08.000Z</time>
      </trkpt>
      <trkpt lat="42.71317" lon="1.38674">
        <ele>1749.5999755859</ele>
        <time>2023-07-24T07:17:12.000Z</time>
      </trkpt>
      <trkpt lat="42.71316" lon="1.38674">
        <ele>1749.8000488281</ele>
        <time>2023-07-24T07:17:20.000Z</time>
      </trkpt>
      <trkpt lat="42.71315" lon="1.38667">
        <ele>1749.5999755859</ele>
        <time>2023-07-24T07:17:29.000Z</time>
      </trkpt>
      <trkpt lat="42.71314" lon="1.38664">
        <ele>1749.8000488281</ele>
        <time>2023-07-24T07:17:36.000Z</time>
      </trkpt>
      <trkpt lat="42.71313" lon="1.38663">
        <ele>1750.1999511719</ele>
        <time>2023-07-24T07:17:39.000Z</time>
      </trkpt>
      <trkpt lat="42.7131" lon="1.38662">
        <ele>1751.1999511719</ele>
        <time>2023-07-24T07:17:44.000Z</time>
      </trkpt>
      <trkpt lat="42.71309" lon="1.38662">
        <ele>1751.1999511719</ele>
        <time>2023-07-24T07:17:45.000Z</time>
      </trkpt>
      <trkpt lat="42.71303" lon="1.3866">
        <ele>1752.1999511719</ele>
        <time>2023-07-24T07:17:52.000Z</time>
      </trkpt>
      <trkpt lat="42.71303" lon="1.38659">
        <ele>1752.4000244141</ele>
        <time>2023-07-24T07:17:53.000Z</time>
      </trkpt>
      <trkpt lat="42.71301" lon="1.38659">
        <ele>1753.4000244141</ele>
        <time>2023-07-24T07:18:00.000Z</time>
      </trkpt>
      <trkpt lat="42.713" lon="1.38659">
        <ele>1753.4000244141</ele>
        <time>2023-07-24T07:18:01.000Z</time>
      </trkpt>
      <trkpt lat="42.71296" lon="1.38655">
        <ele>1754.4000244141</ele>
        <time>2023-07-24T07:18:07.000Z</time>
      </trkpt>
      <trkpt lat="42.71296" lon="1.38654">
        <ele>1754.5999755859</ele>
        <time>2023-07-24T07:18:08.000Z</time>
      </trkpt>
      <trkpt lat="42.71295" lon="1.38652">
        <ele>1755.5999755859</ele>
        <time>2023-07-24T07:18:14.000Z</time>
      </trkpt>
      <trkpt lat="42.71295" lon="1.38652">
        <ele>1756</ele>
        <time>2023-07-24T07:18:16.000Z</time>
      </trkpt>
      <trkpt lat="42.71294" lon="1.3865">
        <ele>1756.5999755859</ele>
        <time>2023-07-24T07:18:21.000Z</time>
      </trkpt>
      <trkpt lat="42.71292" lon="1.3865">
        <ele>1757.4000244141</ele>
        <time>2023-07-24T07:18:26.000Z</time>
      </trkpt>
      <trkpt lat="42.7129" lon="1.38649">
        <ele>1757.5999755859</ele>
        <time>2023-07-24T07:18:28.000Z</time>
      </trkpt>
      <trkpt lat="42.71287" lon="1.38645">
        <ele>1758.5999755859</ele>
        <time>2023-07-24T07:18:33.000Z</time>
      </trkpt>
      <trkpt lat="42.71285" lon="1.38644">
        <ele>1759.1999511719</ele>
        <time>2023-07-24T07:18:35.000Z</time>
      </trkpt>
      <trkpt lat="42.71284" lon="1.3864">
        <ele>1760</ele>
        <time>2023-07-24T07:18:40.000Z</time>
      </trkpt>
      <trkpt lat="42.71283" lon="1.38638">
        <ele>1760.4000244141</ele>
        <time>2023-07-24T07:18:42.000Z</time>
      </trkpt>
      <trkpt lat="42.71284" lon="1.3863">
        <ele>1760.8000488281</ele>
        <time>2023-07-24T07:18:49.000Z</time>
      </trkpt>
      <trkpt lat="42.71284" lon="1.38627">
        <ele>1761</ele>
        <time>2023-07-24T07:18:52.000Z</time>
      </trkpt>
      <trkpt lat="42.71284" lon="1.38625">
        <ele>1761.5999755859</ele>
        <time>2023-07-24T07:18:56.000Z</time>
      </trkpt>
      <trkpt lat="42.71284" lon="1.38624">
        <ele>1762</ele>
        <time>2023-07-24T07:18:58.000Z</time>
      </trkpt>
      <trkpt lat="42.71282" lon="1.3862">
        <ele>1763</ele>
        <time>2023-07-24T07:19:03.000Z</time>
      </trkpt>
      <trkpt lat="42.71282" lon="1.38618">
        <ele>1763.4000244141</ele>
        <time>2023-07-24T07:19:05.000Z</time>
      </trkpt>
      <trkpt lat="42.71281" lon="1.38615">
        <ele>1764.1999511719</ele>
        <time>2023-07-24T07:19:09.000Z</time>
      </trkpt>
      <trkpt lat="42.71278" lon="1.38611">
        <ele>1765.1999511719</ele>
        <time>2023-07-24T07:19:14.000Z</time>
      </trkpt>
      <trkpt lat="42.71278" lon="1.38611">
        <ele>1765.4000244141</ele>
        <time>2023-07-24T07:19:15.000Z</time>
      </trkpt>
      <trkpt lat="42.71277" lon="1.38608">
        <ele>1766.4000244141</ele>
        <time>2023-07-24T07:19:20.000Z</time>
      </trkpt>
      <trkpt lat="42.71276" lon="1.38607">
        <ele>1766.4000244141</ele>
        <time>2023-07-24T07:19:22.000Z</time>
      </trkpt>
      <trkpt lat="42.71276" lon="1.38603">
        <ele>1767.5999755859</ele>
        <time>2023-07-24T07:19:31.000Z</time>
      </trkpt>
      <trkpt lat="42.71276" lon="1.38602">
        <ele>1767.5999755859</ele>
        <time>2023-07-24T07:19:32.000Z</time>
      </trkpt>
      <trkpt lat="42.71275" lon="1.38595">
        <ele>1767.8000488281</ele>
        <time>2023-07-24T07:19:38.000Z</time>
      </trkpt>
      <trkpt lat="42.71272" lon="1.3859">
        <ele>1768.5999755859</ele>
        <time>2023-07-24T07:19:48.000Z</time>
      </trkpt>
      <trkpt lat="42.71272" lon="1.3859">
        <ele>1768.5999755859</ele>
        <time>2023-07-24T07:19:49.000Z</time>
      </trkpt>
      <trkpt lat="42.71264" lon="1.38583">
        <ele>1769.4000244141</ele>
        <time>2023-07-24T07:19:59.000Z</time>
      </trkpt>
      <trkpt lat="42.71264" lon="1.38581">
        <ele>1769.5999755859</ele>
        <time>2023-07-24T07:20:00.000Z</time>
      </trkpt>
      <trkpt lat="42.71263" lon="1.38574">
        <ele>1770.4000244141</ele>
        <time>2023-07-24T07:20:07.000Z</time>
      </trkpt>
      <trkpt lat="42.71263" lon="1.38571">
        <ele>1770.5999755859</ele>
        <time>2023-07-24T07:20:10.000Z</time>
      </trkpt>
      <trkpt lat="42.71262" lon="1.38564">
        <ele>1771</ele>
        <time>2023-07-24T07:20:16.000Z</time>
      </trkpt>
      <trkpt lat="42.71262" lon="1.38561">
        <ele>1771.8000488281</ele>
        <time>2023-07-24T07:20:22.000Z</time>
      </trkpt>
      <trkpt lat="42.71262" lon="1.38558">
        <ele>1772</ele>
        <time>2023-07-24T07:20:24.000Z</time>
      </trkpt>
      <trkpt lat="42.71261" lon="1.38556">
        <ele>1772.8000488281</ele>
        <time>2023-07-24T07:20:28.000Z</time>
      </trkpt>
      <trkpt lat="42.71259" lon="1.38555">
        <ele>1773.4000244141</ele>
        <time>2023-07-24T07:20:31.000Z</time>
      </trkpt>
      <trkpt lat="42.71257" lon="1.38554">
        <ele>1773.8000488281</ele>
        <time>2023-07-24T07:20:34.000Z</time>
      </trkpt>
      <trkpt lat="42.71255" lon="1.38552">
        <ele>1774.5999755859</ele>
        <time>2023-07-24T07:20:39.000Z</time>
      </trkpt>
      <trkpt lat="42.71252" lon="1.3855">
        <ele>1775</ele>
        <time>2023-07-24T07:20:42.000Z</time>
      </trkpt>
      <trkpt lat="42.7125" lon="1.38548">
        <ele>1775.4000244141</ele>
        <time>2023-07-24T07:20:46.000Z</time>
      </trkpt>
      <trkpt lat="42.71249" lon="1.38546">
        <ele>1776.1999511719</ele>
        <time>2023-07-24T07:20:49.000Z</time>
      </trkpt>
      <trkpt lat="42.71247" lon="1.38543">
        <ele>1777.1999511719</ele>
        <time>2023-07-24T07:20:55.000Z</time>
      </trkpt>
      <trkpt lat="42.71247" lon="1.38542">
        <ele>1777.4000244141</ele>
        <time>2023-07-24T07:20:56.000Z</time>
      </trkpt>
      <trkpt lat="42.71246" lon="1.38535">
        <ele>1777.8000488281</ele>
        <time>2023-07-24T07:21:03.000Z</time>
      </trkpt>
      <trkpt lat="42.71243" lon="1.38532">
        <ele>1778</ele>
        <time>2023-07-24T07:21:09.000Z</time>
      </trkpt>
      <trkpt lat="42.71238" lon="1.38528">
        <ele>1778.4000244141</ele>
        <time>2023-07-24T07:21:17.000Z</time>
      </trkpt>
      <trkpt lat="42.71237" lon="1.38527">
        <ele>1778.4000244141</ele>
        <time>2023-07-24T07:21:18.000Z</time>
      </trkpt>
      <trkpt lat="42.71233" lon="1.38521">
        <ele>1779</ele>
        <time>2023-07-24T07:21:26.000Z</time>
      </trkpt>
      <trkpt lat="42.71233" lon="1.38518">
        <ele>1779.4000244141</ele>
        <time>2023-07-24T07:21:29.000Z</time>
      </trkpt>
      <trkpt lat="42.71232" lon="1.38513">
        <ele>1780.4000244141</ele>
        <time>2023-07-24T07:21:36.000Z</time>
      </trkpt>
      <trkpt lat="42.71231" lon="1.38513">
        <ele>1780.5999755859</ele>
        <time>2023-07-24T07:21:37.000Z</time>
      </trkpt>
      <trkpt lat="42.71229" lon="1.38513">
        <ele>1781.4000244141</ele>
        <time>2023-07-24T07:21:44.000Z</time>
      </trkpt>
      <trkpt lat="42.71229" lon="1.38512">
        <ele>1781.5999755859</ele>
        <time>2023-07-24T07:21:45.000Z</time>
      </trkpt>
      <trkpt lat="42.71228" lon="1.38505">
        <ele>1782</ele>
        <time>2023-07-24T07:21:53.000Z</time>
      </trkpt>
      <trkpt lat="42.71227" lon="1.38503">
        <ele>1782.5999755859</ele>
        <time>2023-07-24T07:21:57.000Z</time>
      </trkpt>
      <trkpt lat="42.71225" lon="1.385">
        <ele>1783.1999511719</ele>
        <time>2023-07-24T07:22:02.000Z</time>
      </trkpt>
      <trkpt lat="42.71223" lon="1.38497">
        <ele>1783.5999755859</ele>
        <time>2023-07-24T07:22:09.000Z</time>
      </trkpt>
      <trkpt lat="42.7122" lon="1.38491">
        <ele>1783.8000488281</ele>
        <time>2023-07-24T07:22:15.000Z</time>
      </trkpt>
      <trkpt lat="42.71217" lon="1.38483">
        <ele>1784</ele>
        <time>2023-07-24T07:22:21.000Z</time>
      </trkpt>
      <trkpt lat="42.71216" lon="1.38477">
        <ele>1784.5999755859</ele>
        <time>2023-07-24T07:22:26.000Z</time>
      </trkpt>
      <trkpt lat="42.71215" lon="1.38474">
        <ele>1785.1999511719</ele>
        <time>2023-07-24T07:22:31.000Z</time>
      </trkpt>
      <trkpt lat="42.71215" lon="1.38469">
        <ele>1785.8000488281</ele>
        <time>2023-07-24T07:22:38.000Z</time>
      </trkpt>
      <trkpt lat="42.71215" lon="1.38466">
        <ele>1786.1999511719</ele>
        <time>2023-07-24T07:22:41.000Z</time>
      </trkpt>
      <trkpt lat="42.71215" lon="1.38463">
        <ele>1786.8000488281</ele>
        <time>2023-07-24T07:22:45.000Z</time>
      </trkpt>
      <trkpt lat="42.71215" lon="1.38462">
        <ele>1787.5999755859</ele>
        <time>2023-07-24T07:22:49.000Z</time>
      </trkpt>
      <trkpt lat="42.71215" lon="1.3846">
        <ele>1788</ele>
        <time>2023-07-24T07:22:51.000Z</time>
      </trkpt>
      <trkpt lat="42.71211" lon="1.38449">
        <ele>1789</ele>
        <time>2023-07-24T07:22:58.000Z</time>
      </trkpt>
      <trkpt lat="42.71211" lon="1.38445">
        <ele>1790.1999511719</ele>
        <time>2023-07-24T07:23:06.000Z</time>
      </trkpt>
      <trkpt lat="42.71211" lon="1.38444">
        <ele>1790.4000244141</ele>
        <time>2023-07-24T07:23:08.000Z</time>
      </trkpt>
      <trkpt lat="42.71208" lon="1.3844">
        <ele>1790.8000488281</ele>
        <time>2023-07-24T07:23:16.000Z</time>
      </trkpt>
      <trkpt lat="42.71206" lon="1.38431">
        <ele>1790.4000244141</ele>
        <time>2023-07-24T07:23:23.000Z</time>
      </trkpt>
      <trkpt lat="42.71204" lon="1.38426">
        <ele>1790.4000244141</ele>
        <time>2023-07-24T07:23:30.000Z</time>
      </trkpt>
      <trkpt lat="42.71204" lon="1.38417">
        <ele>1791.1999511719</ele>
        <time>2023-07-24T07:23:38.000Z</time>
      </trkpt>
      <trkpt lat="42.71202" lon="1.38411">
        <ele>1791.8000488281</ele>
        <time>2023-07-24T07:23:44.000Z</time>
      </trkpt>
      <trkpt lat="42.712" lon="1.38408">
        <ele>1792.1999511719</ele>
        <time>2023-07-24T07:23:47.000Z</time>
      </trkpt>
      <trkpt lat="42.71198" lon="1.38405">
        <ele>1792.5999755859</ele>
        <time>2023-07-24T07:23:51.000Z</time>
      </trkpt>
      <trkpt lat="42.71196" lon="1.38399">
        <ele>1793</ele>
        <time>2023-07-24T07:23:58.000Z</time>
      </trkpt>
      <trkpt lat="42.71196" lon="1.38394">
        <ele>1793</ele>
        <time>2023-07-24T07:24:06.000Z</time>
      </trkpt>
      <trkpt lat="42.71196" lon="1.38391">
        <ele>1793.1999511719</ele>
        <time>2023-07-24T07:24:08.000Z</time>
      </trkpt>
      <trkpt lat="42.71196" lon="1.38384">
        <ele>1793.5999755859</ele>
        <time>2023-07-24T07:24:14.000Z</time>
      </trkpt>
      <trkpt lat="42.71198" lon="1.38382">
        <ele>1794.1999511719</ele>
        <time>2023-07-24T07:24:22.000Z</time>
      </trkpt>
      <trkpt lat="42.71201" lon="1.38381">
        <ele>1795</ele>
        <time>2023-07-24T07:24:30.000Z</time>
      </trkpt>
      <trkpt lat="42.71201" lon="1.38381">
        <ele>1795.1999511719</ele>
        <time>2023-07-24T07:24:31.000Z</time>
      </trkpt>
      <trkpt lat="42.71199" lon="1.38376">
        <ele>1795.8000488281</ele>
        <time>2023-07-24T07:24:38.000Z</time>
      </trkpt>
      <trkpt lat="42.71198" lon="1.3837">
        <ele>1796.1999511719</ele>
        <time>2023-07-24T07:24:44.000Z</time>
      </trkpt>
      <trkpt lat="42.71198" lon="1.38369">
        <ele>1796.1999511719</ele>
        <time>2023-07-24T07:24:45.000Z</time>
      </trkpt>
      <trkpt lat="42.71198" lon="1.38367">
        <ele>1796.1999511719</ele>
        <time>2023-07-24T07:24:47.000Z</time>
      </trkpt>
      <trkpt lat="42.71199" lon="1.38365">
        <ele>1796.5999755859</ele>
        <time>2023-07-24T07:24:52.000Z</time>
      </trkpt>
      <trkpt lat="42.712" lon="1.38361">
        <ele>1796.4000244141</ele>
        <time>2023-07-24T07:24:59.000Z</time>
      </trkpt>
      <trkpt lat="42.712" lon="1.38349">
        <ele>1796</ele>
        <time>2023-07-24T07:25:07.000Z</time>
      </trkpt>
      <trkpt lat="42.71196" lon="1.38341">
        <ele>1795.8000488281</ele>
        <time>2023-07-24T07:25:16.000Z</time>
      </trkpt>
      <trkpt lat="42.71193" lon="1.38335">
        <ele>1797</ele>
        <time>2023-07-24T07:25:23.000Z</time>
      </trkpt>
      <trkpt lat="42.71193" lon="1.38333">
        <ele>1797.4000244141</ele>
        <time>2023-07-24T07:25:26.000Z</time>
      </trkpt>
      <trkpt lat="42.71192" lon="1.38331">
        <ele>1797.4000244141</ele>
        <time>2023-07-24T07:25:31.000Z</time>
      </trkpt>
      <trkpt lat="42.71189" lon="1.3832">
        <ele>1797.4000244141</ele>
        <time>2023-07-24T07:25:39.000Z</time>
      </trkpt>
      <trkpt lat="42.71189" lon="1.38317">
        <ele>1797.5999755859</ele>
        <time>2023-07-24T07:25:46.000Z</time>
      </trkpt>
      <trkpt lat="42.71189" lon="1.38308">
        <ele>1797</ele>
        <time>2023-07-24T07:25:55.000Z</time>
      </trkpt>
      <trkpt lat="42.71189" lon="1.38299">
        <ele>1797.8000488281</ele>
        <time>2023-07-24T07:26:03.000Z</time>
      </trkpt>
      <trkpt lat="42.7119" lon="1.38292">
        <ele>1798.4000244141</ele>
        <time>2023-07-24T07:26:10.000Z</time>
      </trkpt>
      <trkpt lat="42.7119" lon="1.38289">
        <ele>1798.4000244141</ele>
        <time>2023-07-24T07:26:12.000Z</time>
      </trkpt>
      <trkpt lat="42.71187" lon="1.38284">
        <ele>1799.4000244141</ele>
        <time>2023-07-24T07:26:18.000Z</time>
      </trkpt>
      <trkpt lat="42.71187" lon="1.38284">
        <ele>1799.4000244141</ele>
        <time>2023-07-24T07:26:19.000Z</time>
      </trkpt>
      <trkpt lat="42.71184" lon="1.38281">
        <ele>1800.1999511719</ele>
        <time>2023-07-24T07:26:26.000Z</time>
      </trkpt>
      <trkpt lat="42.71182" lon="1.38274">
        <ele>1800</ele>
        <time>2023-07-24T07:26:35.000Z</time>
      </trkpt>
      <trkpt lat="42.71182" lon="1.38263">
        <ele>1799.5999755859</ele>
        <time>2023-07-24T07:26:44.000Z</time>
      </trkpt>
      <trkpt lat="42.71181" lon="1.38255">
        <ele>1800</ele>
        <time>2023-07-24T07:26:51.000Z</time>
      </trkpt>
      <trkpt lat="42.7118" lon="1.38254">
        <ele>1800.5999755859</ele>
        <time>2023-07-24T07:26:55.000Z</time>
      </trkpt>
      <trkpt lat="42.7118" lon="1.38254">
        <ele>1800.5999755859</ele>
        <time>2023-07-24T07:26:56.000Z</time>
      </trkpt>
      <trkpt lat="42.7118" lon="1.38254">
        <ele>1800.8000488281</ele>
        <time>2023-07-24T07:26:58.000Z</time>
      </trkpt>
      <trkpt lat="42.71179" lon="1.38248">
        <ele>1801.5999755859</ele>
        <time>2023-07-24T07:27:05.000Z</time>
      </trkpt>
      <trkpt lat="42.71177" lon="1.38245">
        <ele>1802.5999755859</ele>
        <time>2023-07-24T07:27:14.000Z</time>
      </trkpt>
      <trkpt lat="42.71177" lon="1.38242">
        <ele>1803.8000488281</ele>
        <time>2023-07-24T07:27:24.000Z</time>
      </trkpt>
      <trkpt lat="42.71181" lon="1.38239">
        <ele>1804.5999755859</ele>
        <time>2023-07-24T07:27:31.000Z</time>
      </trkpt>
      <trkpt lat="42.71181" lon="1.38237">
        <ele>1804.8000488281</ele>
        <time>2023-07-24T07:27:33.000Z</time>
      </trkpt>
      <trkpt lat="42.71181" lon="1.3823">
        <ele>1805.8000488281</ele>
        <time>2023-07-24T07:27:40.000Z</time>
      </trkpt>
      <trkpt lat="42.7118" lon="1.38227">
        <ele>1807</ele>
        <time>2023-07-24T07:27:47.000Z</time>
      </trkpt>
      <trkpt lat="42.7118" lon="1.38229">
        <ele>1807.1999511719</ele>
        <time>2023-07-24T07:27:48.000Z</time>
      </trkpt>
      <trkpt lat="42.7118" lon="1.38229">
        <ele>1807.4000244141</ele>
        <time>2023-07-24T07:27:49.000Z</time>
      </trkpt>
      <trkpt lat="42.7118" lon="1.38225">
        <ele>1808</ele>
        <time>2023-07-24T07:27:52.000Z</time>
      </trkpt>
      <trkpt lat="42.7118" lon="1.38224">
        <ele>1808.1999511719</ele>
        <time>2023-07-24T07:27:53.000Z</time>
      </trkpt>
      <trkpt lat="42.7118" lon="1.38223">
        <ele>1808.4000244141</ele>
        <time>2023-07-24T07:27:55.000Z</time>
      </trkpt>
      <trkpt lat="42.71179" lon="1.38221">
        <ele>1808.5999755859</ele>
        <time>2023-07-24T07:27:58.000Z</time>
      </trkpt>
      <trkpt lat="42.71177" lon="1.38219">
        <ele>1809.1999511719</ele>
        <time>2023-07-24T07:28:01.000Z</time>
      </trkpt>
      <trkpt lat="42.71176" lon="1.38218">
        <ele>1809.5999755859</ele>
        <time>2023-07-24T07:28:03.000Z</time>
      </trkpt>
      <trkpt lat="42.71175" lon="1.38215">
        <ele>1810.1999511719</ele>
        <time>2023-07-24T07:28:07.000Z</time>
      </trkpt>
      <trkpt lat="42.71174" lon="1.38213">
        <ele>1811</ele>
        <time>2023-07-24T07:28:12.000Z</time>
      </trkpt>
      <trkpt lat="42.71174" lon="1.38211">
        <ele>1811.4000244141</ele>
        <time>2023-07-24T07:28:15.000Z</time>
      </trkpt>
      <trkpt lat="42.71173" lon="1.38208">
        <ele>1812.1999511719</ele>
        <time>2023-07-24T07:28:20.000Z</time>
      </trkpt>
      <trkpt lat="42.71173" lon="1.38207">
        <ele>1812.5999755859</ele>
        <time>2023-07-24T07:28:22.000Z</time>
      </trkpt>
      <trkpt lat="42.71175" lon="1.38206">
        <ele>1813</ele>
        <time>2023-07-24T07:28:27.000Z</time>
      </trkpt>
      <trkpt lat="42.71175" lon="1.38205">
        <ele>1813.5999755859</ele>
        <time>2023-07-24T07:28:31.000Z</time>
      </trkpt>
      <trkpt lat="42.71173" lon="1.382">
        <ele>1814.4000244141</ele>
        <time>2023-07-24T07:28:37.000Z</time>
      </trkpt>
      <trkpt lat="42.71172" lon="1.38198">
        <ele>1814.5999755859</ele>
        <time>2023-07-24T07:28:39.000Z</time>
      </trkpt>
      <trkpt lat="42.71171" lon="1.38195">
        <ele>1815.5999755859</ele>
        <time>2023-07-24T07:28:45.000Z</time>
      </trkpt>
      <trkpt lat="42.71171" lon="1.38195">
        <ele>1815.8000488281</ele>
        <time>2023-07-24T07:28:46.000Z</time>
      </trkpt>
      <trkpt lat="42.71168" lon="1.38191">
        <ele>1817</ele>
        <time>2023-07-24T07:28:52.000Z</time>
      </trkpt>
      <trkpt lat="42.71167" lon="1.3819">
        <ele>1818</ele>
        <time>2023-07-24T07:28:58.000Z</time>
      </trkpt>
      <trkpt lat="42.71166" lon="1.3819">
        <ele>1818.1999511719</ele>
        <time>2023-07-24T07:29:01.000Z</time>
      </trkpt>
      <trkpt lat="42.71164" lon="1.38191">
        <ele>1819</ele>
        <time>2023-07-24T07:29:07.000Z</time>
      </trkpt>
      <trkpt lat="42.71164" lon="1.38191">
        <ele>1819</ele>
        <time>2023-07-24T07:29:08.000Z</time>
      </trkpt>
      <trkpt lat="42.71163" lon="1.3819">
        <ele>1820</ele>
        <time>2023-07-24T07:29:16.000Z</time>
      </trkpt>
      <trkpt lat="42.71163" lon="1.3819">
        <ele>1820.1999511719</ele>
        <time>2023-07-24T07:29:17.000Z</time>
      </trkpt>
      <trkpt lat="42.71166" lon="1.38189">
        <ele>1821.5999755859</ele>
        <time>2023-07-24T07:29:25.000Z</time>
      </trkpt>
      <trkpt lat="42.71166" lon="1.38183">
        <ele>1822.4000244141</ele>
        <time>2023-07-24T07:29:30.000Z</time>
      </trkpt>
      <trkpt lat="42.71164" lon="1.38178">
        <ele>1823</ele>
        <time>2023-07-24T07:29:35.000Z</time>
      </trkpt>
      <trkpt lat="42.71163" lon="1.38176">
        <ele>1823.4000244141</ele>
        <time>2023-07-24T07:29:38.000Z</time>
      </trkpt>
      <trkpt lat="42.7116" lon="1.38174">
        <ele>1824.1999511719</ele>
        <time>2023-07-24T07:29:43.000Z</time>
      </trkpt>
      <trkpt lat="42.71159" lon="1.38173">
        <ele>1824.4000244141</ele>
        <time>2023-07-24T07:29:45.000Z</time>
      </trkpt>
      <trkpt lat="42.71157" lon="1.38172">
        <ele>1825.5999755859</ele>
        <time>2023-07-24T07:29:51.000Z</time>
      </trkpt>
      <trkpt lat="42.71156" lon="1.38171">
        <ele>1825.8000488281</ele>
        <time>2023-07-24T07:29:54.000Z</time>
      </trkpt>
      <trkpt lat="42.71152" lon="1.38164">
        <ele>1826.5999755859</ele>
        <time>2023-07-24T07:30:02.000Z</time>
      </trkpt>
      <trkpt lat="42.7115" lon="1.3816">
        <ele>1827.8000488281</ele>
        <time>2023-07-24T07:30:11.000Z</time>
      </trkpt>
      <trkpt lat="42.71149" lon="1.38154">
        <ele>1828.8000488281</ele>
        <time>2023-07-24T07:30:20.000Z</time>
      </trkpt>
      <trkpt lat="42.71147" lon="1.38147">
        <ele>1829.4000244141</ele>
        <time>2023-07-24T07:30:27.000Z</time>
      </trkpt>
      <trkpt lat="42.71144" lon="1.38139">
        <ele>1829.4000244141</ele>
        <time>2023-07-24T07:30:35.000Z</time>
      </trkpt>
      <trkpt lat="42.71142" lon="1.38135">
        <ele>1829.8000488281</ele>
        <time>2023-07-24T07:30:42.000Z</time>
      </trkpt>
      <trkpt lat="42.71139" lon="1.38132">
        <ele>1830.4000244141</ele>
        <time>2023-07-24T07:30:45.000Z</time>
      </trkpt>
      <trkpt lat="42.71137" lon="1.38127">
        <ele>1831</ele>
        <time>2023-07-24T07:30:49.000Z</time>
      </trkpt>
      <trkpt lat="42.71134" lon="1.38122">
        <ele>1831.5999755859</ele>
        <time>2023-07-24T07:30:54.000Z</time>
      </trkpt>
      <trkpt lat="42.71133" lon="1.38121">
        <ele>1832</ele>
        <time>2023-07-24T07:30:57.000Z</time>
      </trkpt>
      <trkpt lat="42.71131" lon="1.38119">
        <ele>1833</ele>
        <time>2023-07-24T07:31:03.000Z</time>
      </trkpt>
      <trkpt lat="42.71131" lon="1.38119">
        <ele>1833.1999511719</ele>
        <time>2023-07-24T07:31:04.000Z</time>
      </trkpt>
      <trkpt lat="42.71132" lon="1.38116">
        <ele>1834.1999511719</ele>
        <time>2023-07-24T07:31:09.000Z</time>
      </trkpt>
      <trkpt lat="42.71131" lon="1.38113">
        <ele>1835</ele>
        <time>2023-07-24T07:31:13.000Z</time>
      </trkpt>
      <trkpt lat="42.7113" lon="1.38113">
        <ele>1835.1999511719</ele>
        <time>2023-07-24T07:31:14.000Z</time>
      </trkpt>
      <trkpt lat="42.71128" lon="1.38112">
        <ele>1836.4000244141</ele>
        <time>2023-07-24T07:31:19.000Z</time>
      </trkpt>
      <trkpt lat="42.71128" lon="1.38112">
        <ele>1836.5999755859</ele>
        <time>2023-07-24T07:31:20.000Z</time>
      </trkpt>
      <trkpt lat="42.71127" lon="1.38112">
        <ele>1837.4000244141</ele>
        <time>2023-07-24T07:31:25.000Z</time>
      </trkpt>
      <trkpt lat="42.71126" lon="1.38111">
        <ele>1838</ele>
        <time>2023-07-24T07:31:27.000Z</time>
      </trkpt>
      <trkpt lat="42.71125" lon="1.3811">
        <ele>1838.5999755859</ele>
        <time>2023-07-24T07:31:30.000Z</time>
      </trkpt>
      <trkpt lat="42.71124" lon="1.3811">
        <ele>1839.8000488281</ele>
        <time>2023-07-24T07:31:35.000Z</time>
      </trkpt>
      <trkpt lat="42.71124" lon="1.3811">
        <ele>1840</ele>
        <time>2023-07-24T07:31:36.000Z</time>
      </trkpt>
      <trkpt lat="42.71123" lon="1.3811">
        <ele>1840.8000488281</ele>
        <time>2023-07-24T07:31:40.000Z</time>
      </trkpt>
      <trkpt lat="42.71122" lon="1.3811">
        <ele>1841.8000488281</ele>
        <time>2023-07-24T07:31:47.000Z</time>
      </trkpt>
      <trkpt lat="42.71122" lon="1.38109">
        <ele>1842</ele>
        <time>2023-07-24T07:31:48.000Z</time>
      </trkpt>
      <trkpt lat="42.71123" lon="1.38101">
        <ele>1842.8000488281</ele>
        <time>2023-07-24T07:31:57.000Z</time>
      </trkpt>
      <trkpt lat="42.71122" lon="1.381">
        <ele>1842.8000488281</ele>
        <time>2023-07-24T07:32:00.000Z</time>
      </trkpt>
      <trkpt lat="42.71122" lon="1.38099">
        <ele>1843</ele>
        <time>2023-07-24T07:32:02.000Z</time>
      </trkpt>
      <trkpt lat="42.71121" lon="1.38097">
        <ele>1843.8000488281</ele>
        <time>2023-07-24T07:32:07.000Z</time>
      </trkpt>
      <trkpt lat="42.7112" lon="1.38096">
        <ele>1844.4000244141</ele>
        <time>2023-07-24T07:32:11.000Z</time>
      </trkpt>
      <trkpt lat="42.71121" lon="1.38094">
        <ele>1845</ele>
        <time>2023-07-24T07:32:15.000Z</time>
      </trkpt>
      <trkpt lat="42.7112" lon="1.3809">
        <ele>1846</ele>
        <time>2023-07-24T07:32:21.000Z</time>
      </trkpt>
      <trkpt lat="42.71119" lon="1.38086">
        <ele>1847</ele>
        <time>2023-07-24T07:32:27.000Z</time>
      </trkpt>
      <trkpt lat="42.71119" lon="1.38085">
        <ele>1847.1999511719</ele>
        <time>2023-07-24T07:32:28.000Z</time>
      </trkpt>
      <trkpt lat="42.71118" lon="1.38083">
        <ele>1848.1999511719</ele>
        <time>2023-07-24T07:32:33.000Z</time>
      </trkpt>
      <trkpt lat="42.71118" lon="1.38083">
        <ele>1848.4000244141</ele>
        <time>2023-07-24T07:32:34.000Z</time>
      </trkpt>
      <trkpt lat="42.71117" lon="1.38078">
        <ele>1849</ele>
        <time>2023-07-24T07:32:40.000Z</time>
      </trkpt>
      <trkpt lat="42.71117" lon="1.38076">
        <ele>1849.1999511719</ele>
        <time>2023-07-24T07:32:43.000Z</time>
      </trkpt>
      <trkpt lat="42.71116" lon="1.38072">
        <ele>1849.8000488281</ele>
        <time>2023-07-24T07:32:48.000Z</time>
      </trkpt>
      <trkpt lat="42.71117" lon="1.38063">
        <ele>1850.1999511719</ele>
        <time>2023-07-24T07:32:56.000Z</time>
      </trkpt>
      <trkpt lat="42.71117" lon="1.38062">
        <ele>1850.1999511719</ele>
        <time>2023-07-24T07:32:57.000Z</time>
      </trkpt>
      <trkpt lat="42.71115" lon="1.38056">
        <ele>1851</ele>
        <time>2023-07-24T07:33:03.000Z</time>
      </trkpt>
      <trkpt lat="42.71115" lon="1.38055">
        <ele>1851.4000244141</ele>
        <time>2023-07-24T07:33:06.000Z</time>
      </trkpt>
      <trkpt lat="42.71114" lon="1.38054">
        <ele>1851.5999755859</ele>
        <time>2023-07-24T07:33:08.000Z</time>
      </trkpt>
      <trkpt lat="42.71112" lon="1.38052">
        <ele>1852.4000244141</ele>
        <time>2023-07-24T07:33:13.000Z</time>
      </trkpt>
      <trkpt lat="42.71112" lon="1.3805">
        <ele>1852.8000488281</ele>
        <time>2023-07-24T07:33:15.000Z</time>
      </trkpt>
      <trkpt lat="42.71112" lon="1.38048">
        <ele>1853.4000244141</ele>
        <time>2023-07-24T07:33:20.000Z</time>
      </trkpt>
      <trkpt lat="42.71111" lon="1.38048">
        <ele>1853.8000488281</ele>
        <time>2023-07-24T07:33:22.000Z</time>
      </trkpt>
      <trkpt lat="42.71109" lon="1.38046">
        <ele>1854.5999755859</ele>
        <time>2023-07-24T07:33:30.000Z</time>
      </trkpt>
      <trkpt lat="42.71108" lon="1.38043">
        <ele>1855.4000244141</ele>
        <time>2023-07-24T07:33:37.000Z</time>
      </trkpt>
      <trkpt lat="42.71107" lon="1.38042">
        <ele>1855.5999755859</ele>
        <time>2023-07-24T07:33:38.000Z</time>
      </trkpt>
      <trkpt lat="42.71107" lon="1.38039">
        <ele>1856.4000244141</ele>
        <time>2023-07-24T07:33:43.000Z</time>
      </trkpt>
      <trkpt lat="42.71107" lon="1.38038">
        <ele>1856.5999755859</ele>
        <time>2023-07-24T07:33:45.000Z</time>
      </trkpt>
      <trkpt lat="42.71104" lon="1.38034">
        <ele>1857.4000244141</ele>
        <time>2023-07-24T07:33:54.000Z</time>
      </trkpt>
      <trkpt lat="42.71103" lon="1.38032">
        <ele>1857.8000488281</ele>
        <time>2023-07-24T07:33:57.000Z</time>
      </trkpt>
      <trkpt lat="42.71105" lon="1.38032">
        <ele>1858.1999511719</ele>
        <time>2023-07-24T07:34:01.000Z</time>
      </trkpt>
      <trkpt lat="42.71105" lon="1.38034">
        <ele>1858</ele>
        <time>2023-07-24T07:34:09.000Z</time>
      </trkpt>
      <trkpt lat="42.71105" lon="1.3804">
        <ele>1857.8000488281</ele>
        <time>2023-07-24T07:34:15.000Z</time>
      </trkpt>
      <trkpt lat="42.71103" lon="1.38039">
        <ele>1857.8000488281</ele>
        <time>2023-07-24T07:34:24.000Z</time>
      </trkpt>
      <trkpt lat="42.71102" lon="1.38039">
        <ele>1857.8000488281</ele>
        <time>2023-07-24T07:34:34.000Z</time>
      </trkpt>
      <trkpt lat="42.71104" lon="1.38037">
        <ele>1857.8000488281</ele>
        <time>2023-07-24T07:34:42.000Z</time>
      </trkpt>
      <trkpt lat="42.71106" lon="1.38038">
        <ele>1858</ele>
        <time>2023-07-24T07:34:52.000Z</time>
      </trkpt>
      <trkpt lat="42.71102" lon="1.38033">
        <ele>1858.1999511719</ele>
        <time>2023-07-24T07:34:58.000Z</time>
      </trkpt>
      <trkpt lat="42.71099" lon="1.38029">
        <ele>1859</ele>
        <time>2023-07-24T07:35:03.000Z</time>
      </trkpt>
      <trkpt lat="42.71099" lon="1.38027">
        <ele>1859.1999511719</ele>
        <time>2023-07-24T07:35:05.000Z</time>
      </trkpt>
      <trkpt lat="42.71098" lon="1.38024">
        <ele>1860</ele>
        <time>2023-07-24T07:35:10.000Z</time>
      </trkpt>
      <trkpt lat="42.71098" lon="1.38021">
        <ele>1860.4000244141</ele>
        <time>2023-07-24T07:35:13.000Z</time>
      </trkpt>
      <trkpt lat="42.711" lon="1.3802">
        <ele>1861.1999511719</ele>
        <time>2023-07-24T07:35:19.000Z</time>
      </trkpt>
      <trkpt lat="42.71096" lon="1.38016">
        <ele>1861.8000488281</ele>
        <time>2023-07-24T07:35:27.000Z</time>
      </trkpt>
      <trkpt lat="42.71093" lon="1.38014">
        <ele>1862.1999511719</ele>
        <time>2023-07-24T07:35:31.000Z</time>
      </trkpt>
      <trkpt lat="42.71091" lon="1.38012">
        <ele>1862.5999755859</ele>
        <time>2023-07-24T07:35:35.000Z</time>
      </trkpt>
      <trkpt lat="42.71089" lon="1.38009">
        <ele>1863.1999511719</ele>
        <time>2023-07-24T07:35:39.000Z</time>
      </trkpt>
      <trkpt lat="42.71088" lon="1.38006">
        <ele>1863.5999755859</ele>
        <time>2023-07-24T07:35:43.000Z</time>
      </trkpt>
      <trkpt lat="42.71086" lon="1.38003">
        <ele>1864.4000244141</ele>
        <time>2023-07-24T07:35:46.000Z</time>
      </trkpt>
      <trkpt lat="42.71085" lon="1.38001">
        <ele>1864.8000488281</ele>
        <time>2023-07-24T07:35:49.000Z</time>
      </trkpt>
      <trkpt lat="42.71086" lon="1.37998">
        <ele>1864.8000488281</ele>
        <time>2023-07-24T07:35:56.000Z</time>
      </trkpt>
      <trkpt lat="42.71086" lon="1.37997">
        <ele>1862.8000488281</ele>
        <time>2023-07-24T07:35:59.000Z</time>
      </trkpt>
      <trkpt lat="42.71086" lon="1.37994">
        <ele>1862.8000488281</ele>
        <time>2023-07-24T07:36:04.000Z</time>
      </trkpt>
      <trkpt lat="42.71081" lon="1.37988">
        <ele>1862.8000488281</ele>
        <time>2023-07-24T07:36:12.000Z</time>
      </trkpt>
      <trkpt lat="42.71073" lon="1.37956">
        <ele>1865.1999511719</ele>
        <time>2023-07-24T07:37:06.000Z</time>
      </trkpt>
      <trkpt lat="42.71072" lon="1.37955">
        <ele>1866</ele>
        <time>2023-07-24T07:37:09.000Z</time>
      </trkpt>
      <trkpt lat="42.7107" lon="1.37951">
        <ele>1867</ele>
        <time>2023-07-24T07:37:15.000Z</time>
      </trkpt>
      <trkpt lat="42.7107" lon="1.3795">
        <ele>1867.1999511719</ele>
        <time>2023-07-24T07:37:16.000Z</time>
      </trkpt>
      <trkpt lat="42.71071" lon="1.3795">
        <ele>1868.1999511719</ele>
        <time>2023-07-24T07:37:21.000Z</time>
      </trkpt>
      <trkpt lat="42.71073" lon="1.37948">
        <ele>1868.5999755859</ele>
        <time>2023-07-24T07:37:28.000Z</time>
      </trkpt>
      <trkpt lat="42.71073" lon="1.3795">
        <ele>1868.5999755859</ele>
        <time>2023-07-24T07:37:37.000Z</time>
      </trkpt>
      <trkpt lat="42.71056" lon="1.37942">
        <ele>1871.4000244141</ele>
        <time>2023-07-24T07:38:05.000Z</time>
      </trkpt>
      <trkpt lat="42.71054" lon="1.3794">
        <ele>1871.8000488281</ele>
        <time>2023-07-24T07:38:08.000Z</time>
      </trkpt>
      <trkpt lat="42.71052" lon="1.37935">
        <ele>1872.4000244141</ele>
        <time>2023-07-24T07:38:13.000Z</time>
      </trkpt>
      <trkpt lat="42.71052" lon="1.37933">
        <ele>1873</ele>
        <time>2023-07-24T07:38:15.000Z</time>
      </trkpt>
      <trkpt lat="42.71051" lon="1.37929">
        <ele>1873.4000244141</ele>
        <time>2023-07-24T07:38:19.000Z</time>
      </trkpt>
      <trkpt lat="42.71049" lon="1.37927">
        <ele>1874.1999511719</ele>
        <time>2023-07-24T07:38:23.000Z</time>
      </trkpt>
      <trkpt lat="42.71048" lon="1.37926">
        <ele>1874.5999755859</ele>
        <time>2023-07-24T07:38:25.000Z</time>
      </trkpt>
      <trkpt lat="42.71049" lon="1.37925">
        <ele>1875.1999511719</ele>
        <time>2023-07-24T07:38:28.000Z</time>
      </trkpt>
      <trkpt lat="42.71048" lon="1.37923">
        <ele>1876.8000488281</ele>
        <time>2023-07-24T07:38:36.000Z</time>
      </trkpt>
      <trkpt lat="42.71053" lon="1.37914">
        <ele>1878.5999755859</ele>
        <time>2023-07-24T07:38:47.000Z</time>
      </trkpt>
      <trkpt lat="42.71053" lon="1.3791">
        <ele>1880</ele>
        <time>2023-07-24T07:38:54.000Z</time>
      </trkpt>
      <trkpt lat="42.71052" lon="1.37909">
        <ele>1880.1999511719</ele>
        <time>2023-07-24T07:38:55.000Z</time>
      </trkpt>
      <trkpt lat="42.71049" lon="1.37902">
        <ele>1881</ele>
        <time>2023-07-24T07:39:02.000Z</time>
      </trkpt>
      <trkpt lat="42.71048" lon="1.37902">
        <ele>1881.1999511719</ele>
        <time>2023-07-24T07:39:03.000Z</time>
      </trkpt>
      <trkpt lat="42.71045" lon="1.37896">
        <ele>1882</ele>
        <time>2023-07-24T07:39:09.000Z</time>
      </trkpt>
      <trkpt lat="42.71044" lon="1.37895">
        <ele>1882.1999511719</ele>
        <time>2023-07-24T07:39:12.000Z</time>
      </trkpt>
      <trkpt lat="42.71043" lon="1.37896">
        <ele>1883</ele>
        <time>2023-07-24T07:39:17.000Z</time>
      </trkpt>
      <trkpt lat="42.71043" lon="1.37896">
        <ele>1883.1999511719</ele>
        <time>2023-07-24T07:39:19.000Z</time>
      </trkpt>
      <trkpt lat="42.71042" lon="1.37893">
        <ele>1883.8000488281</ele>
        <time>2023-07-24T07:39:24.000Z</time>
      </trkpt>
      <trkpt lat="42.71042" lon="1.37892">
        <ele>1884.4000244141</ele>
        <time>2023-07-24T07:39:27.000Z</time>
      </trkpt>
      <trkpt lat="42.71039" lon="1.37888">
        <ele>1885.1999511719</ele>
        <time>2023-07-24T07:39:34.000Z</time>
      </trkpt>
      <trkpt lat="42.71039" lon="1.37886">
        <ele>1885.5999755859</ele>
        <time>2023-07-24T07:39:36.000Z</time>
      </trkpt>
      <trkpt lat="42.71037" lon="1.37883">
        <ele>1886.5999755859</ele>
        <time>2023-07-24T07:39:42.000Z</time>
      </trkpt>
      <trkpt lat="42.71037" lon="1.37883">
        <ele>1886.8000488281</ele>
        <time>2023-07-24T07:39:43.000Z</time>
      </trkpt>
      <trkpt lat="42.71038" lon="1.37883">
        <ele>1887.5999755859</ele>
        <time>2023-07-24T07:39:50.000Z</time>
      </trkpt>
      <trkpt lat="42.71038" lon="1.37883">
        <ele>1887.8000488281</ele>
        <time>2023-07-24T07:39:51.000Z</time>
      </trkpt>
      <trkpt lat="42.7104" lon="1.3788">
        <ele>1887.8000488281</ele>
        <time>2023-07-24T07:39:57.000Z</time>
      </trkpt>
      <trkpt lat="42.71038" lon="1.37879">
        <ele>1887.8000488281</ele>
        <time>2023-07-24T07:40:03.000Z</time>
      </trkpt>
      <trkpt lat="42.71037" lon="1.37877">
        <ele>1888</ele>
        <time>2023-07-24T07:40:10.000Z</time>
      </trkpt>
      <trkpt lat="42.71036" lon="1.37875">
        <ele>1888.1999511719</ele>
        <time>2023-07-24T07:40:16.000Z</time>
      </trkpt>
      <trkpt lat="42.71034" lon="1.37872">
        <ele>1888.1999511719</ele>
        <time>2023-07-24T07:40:23.000Z</time>
      </trkpt>
      <trkpt lat="42.71033" lon="1.3787">
        <ele>1888</ele>
        <time>2023-07-24T07:40:31.000Z</time>
      </trkpt>
      <trkpt lat="42.71037" lon="1.37868">
        <ele>1888.8000488281</ele>
        <time>2023-07-24T07:40:42.000Z</time>
      </trkpt>
      <trkpt lat="42.71032" lon="1.37865">
        <ele>1888.4000244141</ele>
        <time>2023-07-24T07:40:50.000Z</time>
      </trkpt>
      <trkpt lat="42.71032" lon="1.37861">
        <ele>1888.1999511719</ele>
        <time>2023-07-24T07:40:58.000Z</time>
      </trkpt>
      <trkpt lat="42.71032" lon="1.37863">
        <ele>1888.4000244141</ele>
        <time>2023-07-24T07:41:06.000Z</time>
      </trkpt>
      <trkpt lat="42.71027" lon="1.37867">
        <ele>1889.1999511719</ele>
        <time>2023-07-24T07:41:13.000Z</time>
      </trkpt>
      <trkpt lat="42.71024" lon="1.37866">
        <ele>1889.8000488281</ele>
        <time>2023-07-24T07:41:19.000Z</time>
      </trkpt>
      <trkpt lat="42.71024" lon="1.37863">
        <ele>1890.8000488281</ele>
        <time>2023-07-24T07:41:24.000Z</time>
      </trkpt>
      <trkpt lat="42.71024" lon="1.37862">
        <ele>1891</ele>
        <time>2023-07-24T07:41:25.000Z</time>
      </trkpt>
      <trkpt lat="42.71024" lon="1.37856">
        <ele>1892.1999511719</ele>
        <time>2023-07-24T07:41:30.000Z</time>
      </trkpt>
      <trkpt lat="42.71023" lon="1.37854">
        <ele>1892.1999511719</ele>
        <time>2023-07-24T07:41:32.000Z</time>
      </trkpt>
      <trkpt lat="42.71022" lon="1.37848">
        <ele>1893</ele>
        <time>2023-07-24T07:41:38.000Z</time>
      </trkpt>
      <trkpt lat="42.71021" lon="1.37846">
        <ele>1893.1999511719</ele>
        <time>2023-07-24T07:41:40.000Z</time>
      </trkpt>
      <trkpt lat="42.7102" lon="1.37843">
        <ele>1893.5999755859</ele>
        <time>2023-07-24T07:41:45.000Z</time>
      </trkpt>
      <trkpt lat="42.71018" lon="1.37839">
        <ele>1894.1999511719</ele>
        <time>2023-07-24T07:41:50.000Z</time>
      </trkpt>
      <trkpt lat="42.71018" lon="1.37838">
        <ele>1894.5999755859</ele>
        <time>2023-07-24T07:41:52.000Z</time>
      </trkpt>
      <trkpt lat="42.71018" lon="1.37832">
        <ele>1895</ele>
        <time>2023-07-24T07:42:00.000Z</time>
      </trkpt>
      <trkpt lat="42.71017" lon="1.37829">
        <ele>1895.1999511719</ele>
        <time>2023-07-24T07:42:06.000Z</time>
      </trkpt>
      <trkpt lat="42.71017" lon="1.37828">
        <ele>1895.4000244141</ele>
        <time>2023-07-24T07:42:07.000Z</time>
      </trkpt>
      <trkpt lat="42.71014" lon="1.37824">
        <ele>1895.8000488281</ele>
        <time>2023-07-24T07:42:14.000Z</time>
      </trkpt>
      <trkpt lat="42.71014" lon="1.37823">
        <ele>1896.5999755859</ele>
        <time>2023-07-24T07:42:16.000Z</time>
      </trkpt>
      <trkpt lat="42.71013" lon="1.3782">
        <ele>1897</ele>
        <time>2023-07-24T07:42:21.000Z</time>
      </trkpt>
      <trkpt lat="42.71012" lon="1.37813">
        <ele>1896.8000488281</ele>
        <time>2023-07-24T07:42:29.000Z</time>
      </trkpt>
      <trkpt lat="42.7101" lon="1.3781">
        <ele>1897.8000488281</ele>
        <time>2023-07-24T07:42:36.000Z</time>
      </trkpt>
      <trkpt lat="42.7101" lon="1.37809">
        <ele>1897.8000488281</ele>
        <time>2023-07-24T07:42:37.000Z</time>
      </trkpt>
      <trkpt lat="42.71009" lon="1.37806">
        <ele>1898</ele>
        <time>2023-07-24T07:42:47.000Z</time>
      </trkpt>
      <trkpt lat="42.71009" lon="1.37801">
        <ele>1898.4000244141</ele>
        <time>2023-07-24T07:42:55.000Z</time>
      </trkpt>
      <trkpt lat="42.71009" lon="1.37797">
        <ele>1898.5999755859</ele>
        <time>2023-07-24T07:43:04.000Z</time>
      </trkpt>
      <trkpt lat="42.71009" lon="1.37796">
        <ele>1899</ele>
        <time>2023-07-24T07:43:05.000Z</time>
      </trkpt>
      <trkpt lat="42.71005" lon="1.37789">
        <ele>1899.5999755859</ele>
        <time>2023-07-24T07:43:14.000Z</time>
      </trkpt>
      <trkpt lat="42.71005" lon="1.37788">
        <ele>1900</ele>
        <time>2023-07-24T07:43:19.000Z</time>
      </trkpt>
      <trkpt lat="42.71004" lon="1.37787">
        <ele>1900.1999511719</ele>
        <time>2023-07-24T07:43:21.000Z</time>
      </trkpt>
      <trkpt lat="42.71003" lon="1.37779">
        <ele>1900.5999755859</ele>
        <time>2023-07-24T07:43:30.000Z</time>
      </trkpt>
      <trkpt lat="42.71004" lon="1.37774">
        <ele>1900.4000244141</ele>
        <time>2023-07-24T07:43:38.000Z</time>
      </trkpt>
      <trkpt lat="42.71004" lon="1.3777">
        <ele>1900</ele>
        <time>2023-07-24T07:43:45.000Z</time>
      </trkpt>
      <trkpt lat="42.71" lon="1.37764">
        <ele>1900</ele>
        <time>2023-07-24T07:43:54.000Z</time>
      </trkpt>
      <trkpt lat="42.71001" lon="1.37759">
        <ele>1899.4000244141</ele>
        <time>2023-07-24T07:44:01.000Z</time>
      </trkpt>
      <trkpt lat="42.71001" lon="1.37757">
        <ele>1899</ele>
        <time>2023-07-24T07:44:04.000Z</time>
      </trkpt>
      <trkpt lat="42.71" lon="1.37752">
        <ele>1898.5999755859</ele>
        <time>2023-07-24T07:44:09.000Z</time>
      </trkpt>
      <trkpt lat="42.70997" lon="1.37745">
        <ele>1898.4000244141</ele>
        <time>2023-07-24T07:44:16.000Z</time>
      </trkpt>
      <trkpt lat="42.70995" lon="1.37736">
        <ele>1899.5999755859</ele>
        <time>2023-07-24T07:44:24.000Z</time>
      </trkpt>
      <trkpt lat="42.70995" lon="1.37735">
        <ele>1900.1999511719</ele>
        <time>2023-07-24T07:44:26.000Z</time>
      </trkpt>
      <trkpt lat="42.70995" lon="1.37733">
        <ele>1901.1999511719</ele>
        <time>2023-07-24T07:44:31.000Z</time>
      </trkpt>
      <trkpt lat="42.70995" lon="1.37732">
        <ele>1901.4000244141</ele>
        <time>2023-07-24T07:44:33.000Z</time>
      </trkpt>
      <trkpt lat="42.70994" lon="1.37729">
        <ele>1902.1999511719</ele>
        <time>2023-07-24T07:44:36.000Z</time>
      </trkpt>
      <trkpt lat="42.70993" lon="1.37727">
        <ele>1903</ele>
        <time>2023-07-24T07:44:41.000Z</time>
      </trkpt>
      <trkpt lat="42.70993" lon="1.37726">
        <ele>1903.1999511719</ele>
        <time>2023-07-24T07:44:43.000Z</time>
      </trkpt>
      <trkpt lat="42.70992" lon="1.37728">
        <ele>1904</ele>
        <time>2023-07-24T07:44:49.000Z</time>
      </trkpt>
      <trkpt lat="42.70992" lon="1.37729">
        <ele>1904.4000244141</ele>
        <time>2023-07-24T07:44:50.000Z</time>
      </trkpt>
      <trkpt lat="42.70989" lon="1.3773">
        <ele>1905.1999511719</ele>
        <time>2023-07-24T07:44:56.000Z</time>
      </trkpt>
      <trkpt lat="42.70989" lon="1.37729">
        <ele>1905.4000244141</ele>
        <time>2023-07-24T07:44:57.000Z</time>
      </trkpt>
      <trkpt lat="42.70986" lon="1.3772">
        <ele>1906.4000244141</ele>
        <time>2023-07-24T07:45:06.000Z</time>
      </trkpt>
      <trkpt lat="42.70985" lon="1.3772">
        <ele>1907</ele>
        <time>2023-07-24T07:45:14.000Z</time>
      </trkpt>
      <trkpt lat="42.70985" lon="1.3772">
        <ele>1907.5999755859</ele>
        <time>2023-07-24T07:45:17.000Z</time>
      </trkpt>
      <trkpt lat="42.70985" lon="1.37719">
        <ele>1907.8000488281</ele>
        <time>2023-07-24T07:45:20.000Z</time>
      </trkpt>
      <trkpt lat="42.70984" lon="1.37718">
        <ele>1908.8000488281</ele>
        <time>2023-07-24T07:45:25.000Z</time>
      </trkpt>
      <trkpt lat="42.70984" lon="1.37717">
        <ele>1909.1999511719</ele>
        <time>2023-07-24T07:45:28.000Z</time>
      </trkpt>
      <trkpt lat="42.70982" lon="1.37717">
        <ele>1909.8000488281</ele>
        <time>2023-07-24T07:45:31.000Z</time>
      </trkpt>
      <trkpt lat="42.70979" lon="1.37715">
        <ele>1910.4000244141</ele>
        <time>2023-07-24T07:45:37.000Z</time>
      </trkpt>
      <trkpt lat="42.70978" lon="1.37714">
        <ele>1911</ele>
        <time>2023-07-24T07:45:41.000Z</time>
      </trkpt>
      <trkpt lat="42.70976" lon="1.37713">
        <ele>1911.4000244141</ele>
        <time>2023-07-24T07:45:43.000Z</time>
      </trkpt>
      <trkpt lat="42.70975" lon="1.37712">
        <ele>1912.1999511719</ele>
        <time>2023-07-24T07:45:47.000Z</time>
      </trkpt>
      <trkpt lat="42.70972" lon="1.3771">
        <ele>1912.4000244141</ele>
        <time>2023-07-24T07:45:50.000Z</time>
      </trkpt>
      <trkpt lat="42.70969" lon="1.37707">
        <ele>1913.1999511719</ele>
        <time>2023-07-24T07:45:56.000Z</time>
      </trkpt>
      <trkpt lat="42.70969" lon="1.37706">
        <ele>1913.5999755859</ele>
        <time>2023-07-24T07:45:58.000Z</time>
      </trkpt>
      <trkpt lat="42.70969" lon="1.37706">
        <ele>1914.4000244141</ele>
        <time>2023-07-24T07:46:00.000Z</time>
      </trkpt>
      <trkpt lat="42.70968" lon="1.37701">
        <ele>1914.8000488281</ele>
        <time>2023-07-24T07:46:06.000Z</time>
      </trkpt>
      <trkpt lat="42.70966" lon="1.37699">
        <ele>1915.4000244141</ele>
        <time>2023-07-24T07:46:10.000Z</time>
      </trkpt>
      <trkpt lat="42.70965" lon="1.37698">
        <ele>1916.1999511719</ele>
        <time>2023-07-24T07:46:14.000Z</time>
      </trkpt>
      <trkpt lat="42.70962" lon="1.37692">
        <ele>1915.1999511719</ele>
        <time>2023-07-24T07:46:22.000Z</time>
      </trkpt>
      <trkpt lat="42.7096" lon="1.37687">
        <ele>1914.8000488281</ele>
        <time>2023-07-24T07:46:31.000Z</time>
      </trkpt>
      <trkpt lat="42.7096" lon="1.37686">
        <ele>1914.4000244141</ele>
        <time>2023-07-24T07:46:34.000Z</time>
      </trkpt>
      <trkpt lat="42.70959" lon="1.37682">
        <ele>1914.1999511719</ele>
        <time>2023-07-24T07:46:38.000Z</time>
      </trkpt>
      <trkpt lat="42.70959" lon="1.37676">
        <ele>1914.5999755859</ele>
        <time>2023-07-24T07:46:45.000Z</time>
      </trkpt>
      <trkpt lat="42.70957" lon="1.37671">
        <ele>1913.1999511719</ele>
        <time>2023-07-24T07:46:51.000Z</time>
      </trkpt>
      <trkpt lat="42.70956" lon="1.37665">
        <ele>1913</ele>
        <time>2023-07-24T07:47:00.000Z</time>
      </trkpt>
      <trkpt lat="42.70954" lon="1.37659">
        <ele>1912.5999755859</ele>
        <time>2023-07-24T07:47:08.000Z</time>
      </trkpt>
      <trkpt lat="42.70954" lon="1.37654">
        <ele>1912.4000244141</ele>
        <time>2023-07-24T07:47:16.000Z</time>
      </trkpt>
      <trkpt lat="42.70954" lon="1.37648">
        <ele>1912.4000244141</ele>
        <time>2023-07-24T07:47:23.000Z</time>
      </trkpt>
      <trkpt lat="42.70954" lon="1.37645">
        <ele>1912.1999511719</ele>
        <time>2023-07-24T07:47:29.000Z</time>
      </trkpt>
      <trkpt lat="42.70955" lon="1.37644">
        <ele>1912.1999511719</ele>
        <time>2023-07-24T07:47:30.000Z</time>
      </trkpt>
      <trkpt lat="42.70955" lon="1.37637">
        <ele>1911.4000244141</ele>
        <time>2023-07-24T07:47:38.000Z</time>
      </trkpt>
      <trkpt lat="42.70955" lon="1.37635">
        <ele>1911.1999511719</ele>
        <time>2023-07-24T07:47:39.000Z</time>
      </trkpt>
      <trkpt lat="42.70955" lon="1.37631">
        <ele>1911</ele>
        <time>2023-07-24T07:47:44.000Z</time>
      </trkpt>
      <trkpt lat="42.70952" lon="1.37626">
        <ele>1910.5999755859</ele>
        <time>2023-07-24T07:47:50.000Z</time>
      </trkpt>
      <trkpt lat="42.70947" lon="1.37621">
        <ele>1910.1999511719</ele>
        <time>2023-07-24T07:47:56.000Z</time>
      </trkpt>
      <trkpt lat="42.70942" lon="1.37617">
        <ele>1910.4000244141</ele>
        <time>2023-07-24T07:48:02.000Z</time>
      </trkpt>
      <trkpt lat="42.7094" lon="1.37609">
        <ele>1911.1999511719</ele>
        <time>2023-07-24T07:48:11.000Z</time>
      </trkpt>
      <trkpt lat="42.70941" lon="1.37609">
        <ele>1911.1999511719</ele>
        <time>2023-07-24T07:48:18.000Z</time>
      </trkpt>
      <trkpt lat="42.70942" lon="1.3761">
        <ele>1911.1999511719</ele>
        <time>2023-07-24T07:48:27.000Z</time>
      </trkpt>
      <trkpt lat="42.70942" lon="1.37611">
        <ele>1911</ele>
        <time>2023-07-24T07:48:36.000Z</time>
      </trkpt>
      <trkpt lat="42.70941" lon="1.37608">
        <ele>1911.1999511719</ele>
        <time>2023-07-24T07:48:44.000Z</time>
      </trkpt>
      <trkpt lat="42.70936" lon="1.37599">
        <ele>1912.1999511719</ele>
        <time>2023-07-24T07:48:52.000Z</time>
      </trkpt>
      <trkpt lat="42.70936" lon="1.37599">
        <ele>1912.1999511719</ele>
        <time>2023-07-24T07:48:53.000Z</time>
      </trkpt>
      <trkpt lat="42.70934" lon="1.37595">
        <ele>1912.5999755859</ele>
        <time>2023-07-24T07:48:58.000Z</time>
      </trkpt>
      <trkpt lat="42.7093" lon="1.37588">
        <ele>1913</ele>
        <time>2023-07-24T07:49:04.000Z</time>
      </trkpt>
      <trkpt lat="42.70929" lon="1.37583">
        <ele>1913.4000244141</ele>
        <time>2023-07-24T07:49:08.000Z</time>
      </trkpt>
      <trkpt lat="42.70928" lon="1.37581">
        <ele>1913.5999755859</ele>
        <time>2023-07-24T07:49:11.000Z</time>
      </trkpt>
      <trkpt lat="42.70926" lon="1.37578">
        <ele>1914.1999511719</ele>
        <time>2023-07-24T07:49:17.000Z</time>
      </trkpt>
      <trkpt lat="42.70926" lon="1.37578">
        <ele>1914.4000244141</ele>
        <time>2023-07-24T07:49:18.000Z</time>
      </trkpt>
      <trkpt lat="42.70927" lon="1.37579">
        <ele>1914.5999755859</ele>
        <time>2023-07-24T07:49:23.000Z</time>
      </trkpt>
      <trkpt lat="42.70929" lon="1.37581">
        <ele>1914.5999755859</ele>
        <time>2023-07-24T07:49:25.000Z</time>
      </trkpt>
      <trkpt lat="42.70929" lon="1.37587">
        <ele>1914.4000244141</ele>
        <time>2023-07-24T07:49:32.000Z</time>
      </trkpt>
      <trkpt lat="42.70926" lon="1.37586">
        <ele>1914.4000244141</ele>
        <time>2023-07-24T07:49:38.000Z</time>
      </trkpt>
      <trkpt lat="42.70923" lon="1.37583">
        <ele>1914.4000244141</ele>
        <time>2023-07-24T07:49:45.000Z</time>
      </trkpt>
      <trkpt lat="42.7092" lon="1.37577">
        <ele>1915</ele>
        <time>2023-07-24T07:49:53.000Z</time>
      </trkpt>
      <trkpt lat="42.70919" lon="1.3757">
        <ele>1915.4000244141</ele>
        <time>2023-07-24T07:50:01.000Z</time>
      </trkpt>
      <trkpt lat="42.70915" lon="1.37566">
        <ele>1916.4000244141</ele>
        <time>2023-07-24T07:50:09.000Z</time>
      </trkpt>
      <trkpt lat="42.70914" lon="1.37565">
        <ele>1916.4000244141</ele>
        <time>2023-07-24T07:50:10.000Z</time>
      </trkpt>
      <trkpt lat="42.70911" lon="1.3756">
        <ele>1917.1999511719</ele>
        <time>2023-07-24T07:50:15.000Z</time>
      </trkpt>
      <trkpt lat="42.70909" lon="1.37554">
        <ele>1917.1999511719</ele>
        <time>2023-07-24T07:50:22.000Z</time>
      </trkpt>
      <trkpt lat="42.70908" lon="1.3755">
        <ele>1916.8000488281</ele>
        <time>2023-07-24T07:50:30.000Z</time>
      </trkpt>
      <trkpt lat="42.70909" lon="1.37547">
        <ele>1916.4000244141</ele>
        <time>2023-07-24T07:50:36.000Z</time>
      </trkpt>
      <trkpt lat="42.70909" lon="1.37546">
        <ele>1916.4000244141</ele>
        <time>2023-07-24T07:50:43.000Z</time>
      </trkpt>
      <trkpt lat="42.70907" lon="1.3754">
        <ele>1916.1999511719</ele>
        <time>2023-07-24T07:50:50.000Z</time>
      </trkpt>
      <trkpt lat="42.70903" lon="1.37534">
        <ele>1916.5999755859</ele>
        <time>2023-07-24T07:50:56.000Z</time>
      </trkpt>
      <trkpt lat="42.70901" lon="1.37531">
        <ele>1916</ele>
        <time>2023-07-24T07:51:05.000Z</time>
      </trkpt>
      <trkpt lat="42.70904" lon="1.37532">
        <ele>1915.8000488281</ele>
        <time>2023-07-24T07:51:13.000Z</time>
      </trkpt>
      <trkpt lat="42.70905" lon="1.37531">
        <ele>1915.8000488281</ele>
        <time>2023-07-24T07:51:19.000Z</time>
      </trkpt>
      <trkpt lat="42.709" lon="1.37524">
        <ele>1915.5999755859</ele>
        <time>2023-07-24T07:51:26.000Z</time>
      </trkpt>
      <trkpt lat="42.709" lon="1.37522">
        <ele>1915.5999755859</ele>
        <time>2023-07-24T07:51:33.000Z</time>
      </trkpt>
      <trkpt lat="42.709" lon="1.37525">
        <ele>1915.5999755859</ele>
        <time>2023-07-24T07:51:39.000Z</time>
      </trkpt>
      <trkpt lat="42.709" lon="1.37525">
        <ele>1915.4000244141</ele>
        <time>2023-07-24T07:51:43.000Z</time>
      </trkpt>
      <trkpt lat="42.70899" lon="1.37526">
        <ele>1915.4000244141</ele>
        <time>2023-07-24T07:51:48.000Z</time>
      </trkpt>
      <trkpt lat="42.70895" lon="1.37526">
        <ele>1915.5999755859</ele>
        <time>2023-07-24T07:51:55.000Z</time>
      </trkpt>
      <trkpt lat="42.70896" lon="1.37527">
        <ele>1915.1999511719</ele>
        <time>2023-07-24T07:52:06.000Z</time>
      </trkpt>
      <trkpt lat="42.70897" lon="1.37524">
        <ele>1915.1999511719</ele>
        <time>2023-07-24T07:52:13.000Z</time>
      </trkpt>
      <trkpt lat="42.70898" lon="1.37515">
        <ele>1915.1999511719</ele>
        <time>2023-07-24T07:52:21.000Z</time>
      </trkpt>
      <trkpt lat="42.70893" lon="1.37508">
        <ele>1915.1999511719</ele>
        <time>2023-07-24T07:52:29.000Z</time>
      </trkpt>
      <trkpt lat="42.7089" lon="1.37498">
        <ele>1915.8000488281</ele>
        <time>2023-07-24T07:52:38.000Z</time>
      </trkpt>
      <trkpt lat="42.70889" lon="1.375">
        <ele>1915.8000488281</ele>
        <time>2023-07-24T07:52:47.000Z</time>
      </trkpt>
      <trkpt lat="42.7089" lon="1.37501">
        <ele>1916</ele>
        <time>2023-07-24T07:52:52.000Z</time>
      </trkpt>
      <trkpt lat="42.70891" lon="1.37501">
        <ele>1916</ele>
        <time>2023-07-24T07:53:00.000Z</time>
      </trkpt>
      <trkpt lat="42.70893" lon="1.37502">
        <ele>1916</ele>
        <time>2023-07-24T07:53:09.000Z</time>
      </trkpt>
      <trkpt lat="42.70892" lon="1.37507">
        <ele>1915.5999755859</ele>
        <time>2023-07-24T07:53:16.000Z</time>
      </trkpt>
      <trkpt lat="42.70895" lon="1.37514">
        <ele>1915</ele>
        <time>2023-07-24T07:53:24.000Z</time>
      </trkpt>
      <trkpt lat="42.70895" lon="1.37515">
        <ele>1914.8000488281</ele>
        <time>2023-07-24T07:53:34.000Z</time>
      </trkpt>
      <trkpt lat="42.70894" lon="1.37512">
        <ele>1914.4000244141</ele>
        <time>2023-07-24T07:53:39.000Z</time>
      </trkpt>
      <trkpt lat="42.70893" lon="1.3751">
        <ele>1914.4000244141</ele>
        <time>2023-07-24T07:53:42.000Z</time>
      </trkpt>
      <trkpt lat="42.70893" lon="1.37507">
        <ele>1914.8000488281</ele>
        <time>2023-07-24T07:53:49.000Z</time>
      </trkpt>
      <trkpt lat="42.70894" lon="1.37504">
        <ele>1914.8000488281</ele>
        <time>2023-07-24T07:53:58.000Z</time>
      </trkpt>
      <trkpt lat="42.70894" lon="1.37502">
        <ele>1914.8000488281</ele>
        <time>2023-07-24T07:54:05.000Z</time>
      </trkpt>
      <trkpt lat="42.70896" lon="1.37508">
        <ele>1914.8000488281</ele>
        <time>2023-07-24T07:54:15.000Z</time>
      </trkpt>
      <trkpt lat="42.70895" lon="1.37511">
        <ele>1914</ele>
        <time>2023-07-24T07:54:21.000Z</time>
      </trkpt>
      <trkpt lat="42.70895" lon="1.37514">
        <ele>1913.5999755859</ele>
        <time>2023-07-24T07:54:29.000Z</time>
      </trkpt>
      <trkpt lat="42.70896" lon="1.37514">
        <ele>1913.5999755859</ele>
        <time>2023-07-24T07:54:40.000Z</time>
      </trkpt>
      <trkpt lat="42.70897" lon="1.37514">
        <ele>1913.5999755859</ele>
        <time>2023-07-24T07:54:48.000Z</time>
      </trkpt>
      <trkpt lat="42.70897" lon="1.37513">
        <ele>1913.4000244141</ele>
        <time>2023-07-24T07:54:49.000Z</time>
      </trkpt>
      <trkpt lat="42.70897" lon="1.37511">
        <ele>1913</ele>
        <time>2023-07-24T07:54:57.000Z</time>
      </trkpt>
      <trkpt lat="42.70898" lon="1.37511">
        <ele>1913</ele>
        <time>2023-07-24T07:55:08.000Z</time>
      </trkpt>
      <trkpt lat="42.70898" lon="1.37512">
        <ele>1912.8000488281</ele>
        <time>2023-07-24T07:55:17.000Z</time>
      </trkpt>
      <trkpt lat="42.70893" lon="1.37514">
        <ele>1913.4000244141</ele>
        <time>2023-07-24T07:55:26.000Z</time>
      </trkpt>
      <trkpt lat="42.70894" lon="1.37512">
        <ele>1914</ele>
        <time>2023-07-24T07:55:34.000Z</time>
      </trkpt>
      <trkpt lat="42.70895" lon="1.37514">
        <ele>1914</ele>
        <time>2023-07-24T07:55:42.000Z</time>
      </trkpt>
      <trkpt lat="42.70894" lon="1.37511">
        <ele>1913.5999755859</ele>
        <time>2023-07-24T07:55:50.000Z</time>
      </trkpt>
      <trkpt lat="42.70894" lon="1.37514">
        <ele>1913.4000244141</ele>
        <time>2023-07-24T07:55:59.000Z</time>
      </trkpt>
      <trkpt lat="42.70894" lon="1.37513">
        <ele>1913.4000244141</ele>
        <time>2023-07-24T07:56:04.000Z</time>
      </trkpt>
      <trkpt lat="42.70897" lon="1.37511">
        <ele>1913.1999511719</ele>
        <time>2023-07-24T07:56:13.000Z</time>
      </trkpt>
      <trkpt lat="42.70897" lon="1.3751">
        <ele>1912.5999755859</ele>
        <time>2023-07-24T07:56:20.000Z</time>
      </trkpt>
      <trkpt lat="42.70896" lon="1.37511">
        <ele>1912.4000244141</ele>
        <time>2023-07-24T07:56:22.000Z</time>
      </trkpt>
      <trkpt lat="42.70894" lon="1.37512">
        <ele>1912.4000244141</ele>
        <time>2023-07-24T07:56:26.000Z</time>
      </trkpt>
      <trkpt lat="42.70893" lon="1.37511">
        <ele>1912.8000488281</ele>
        <time>2023-07-24T07:56:36.000Z</time>
      </trkpt>
      <trkpt lat="42.70893" lon="1.37513">
        <ele>1912.4000244141</ele>
        <time>2023-07-24T07:56:42.000Z</time>
      </trkpt>
      <trkpt lat="42.70892" lon="1.37514">
        <ele>1912.5999755859</ele>
        <time>2023-07-24T07:56:50.000Z</time>
      </trkpt>
      <trkpt lat="42.70896" lon="1.37511">
        <ele>1913.1999511719</ele>
        <time>2023-07-24T07:56:57.000Z</time>
      </trkpt>
      <trkpt lat="42.70896" lon="1.37513">
        <ele>1913.1999511719</ele>
        <time>2023-07-24T07:57:06.000Z</time>
      </trkpt>
      <trkpt lat="42.70896" lon="1.37512">
        <ele>1912.8000488281</ele>
        <time>2023-07-24T07:57:15.000Z</time>
      </trkpt>
      <trkpt lat="42.70895" lon="1.37514">
        <ele>1912.4000244141</ele>
        <time>2023-07-24T07:57:20.000Z</time>
      </trkpt>
      <trkpt lat="42.70896" lon="1.37514">
        <ele>1912.5999755859</ele>
        <time>2023-07-24T07:57:30.000Z</time>
      </trkpt>
      <trkpt lat="42.70894" lon="1.37515">
        <ele>1912</ele>
        <time>2023-07-24T07:57:36.000Z</time>
      </trkpt>
      <trkpt lat="42.70896" lon="1.37511">
        <ele>1913.1999511719</ele>
        <time>2023-07-24T07:57:50.000Z</time>
      </trkpt>
      <trkpt lat="42.70897" lon="1.37512">
        <ele>1913.4000244141</ele>
        <time>2023-07-24T07:58:03.000Z</time>
      </trkpt>
      <trkpt lat="42.70896" lon="1.37512">
        <ele>1913.1999511719</ele>
        <time>2023-07-24T07:58:06.000Z</time>
      </trkpt>
      <trkpt lat="42.7089" lon="1.37495">
        <ele>1913.8000488281</ele>
        <time>2023-07-24T08:10:50.000Z</time>
      </trkpt>
      <trkpt lat="42.70885" lon="1.37495">
        <ele>1914</ele>
        <time>2023-07-24T08:10:56.000Z</time>
      </trkpt>
      <trkpt lat="42.70882" lon="1.37489">
        <ele>1914.4000244141</ele>
        <time>2023-07-24T08:11:02.000Z</time>
      </trkpt>
      <trkpt lat="42.70882" lon="1.37488">
        <ele>1914.5999755859</ele>
        <time>2023-07-24T08:11:03.000Z</time>
      </trkpt>
      <trkpt lat="42.7088" lon="1.37484">
        <ele>1915.1999511719</ele>
        <time>2023-07-24T08:11:08.000Z</time>
      </trkpt>
      <trkpt lat="42.70882" lon="1.37483">
        <ele>1915.5999755859</ele>
        <time>2023-07-24T08:11:14.000Z</time>
      </trkpt>
      <trkpt lat="42.70882" lon="1.37482">
        <ele>1915.5999755859</ele>
        <time>2023-07-24T08:11:15.000Z</time>
      </trkpt>
      <trkpt lat="42.70881" lon="1.37476">
        <ele>1916.1999511719</ele>
        <time>2023-07-24T08:11:21.000Z</time>
      </trkpt>
      <trkpt lat="42.70881" lon="1.37468">
        <ele>1916.1999511719</ele>
        <time>2023-07-24T08:11:28.000Z</time>
      </trkpt>
      <trkpt lat="42.7088" lon="1.37465">
        <ele>1916.5999755859</ele>
        <time>2023-07-24T08:11:30.000Z</time>
      </trkpt>
      <trkpt lat="42.70879" lon="1.37459">
        <ele>1916.8000488281</ele>
        <time>2023-07-24T08:11:35.000Z</time>
      </trkpt>
      <trkpt lat="42.70877" lon="1.37451">
        <ele>1917</ele>
        <time>2023-07-24T08:11:42.000Z</time>
      </trkpt>
      <trkpt lat="42.70875" lon="1.37448">
        <ele>1917.8000488281</ele>
        <time>2023-07-24T08:11:47.000Z</time>
      </trkpt>
      <trkpt lat="42.70874" lon="1.37446">
        <ele>1917.8000488281</ele>
        <time>2023-07-24T08:11:49.000Z</time>
      </trkpt>
      <trkpt lat="42.7087" lon="1.37441">
        <ele>1918.5999755859</ele>
        <time>2023-07-24T08:11:56.000Z</time>
      </trkpt>
      <trkpt lat="42.70869" lon="1.3744">
        <ele>1918.8000488281</ele>
        <time>2023-07-24T08:11:58.000Z</time>
      </trkpt>
      <trkpt lat="42.70868" lon="1.37436">
        <ele>1919.8000488281</ele>
        <time>2023-07-24T08:12:02.000Z</time>
      </trkpt>
      <trkpt lat="42.70868" lon="1.37431">
        <ele>1920.4000244141</ele>
        <time>2023-07-24T08:12:09.000Z</time>
      </trkpt>
      <trkpt lat="42.70868" lon="1.37424">
        <ele>1920.8000488281</ele>
        <time>2023-07-24T08:12:15.000Z</time>
      </trkpt>
      <trkpt lat="42.70867" lon="1.37424">
        <ele>1920.4000244141</ele>
        <time>2023-07-24T08:12:20.000Z</time>
      </trkpt>
      <trkpt lat="42.70865" lon="1.37418">
        <ele>1920</ele>
        <time>2023-07-24T08:12:28.000Z</time>
      </trkpt>
      <trkpt lat="42.70864" lon="1.37415">
        <ele>1920.8000488281</ele>
        <time>2023-07-24T08:12:35.000Z</time>
      </trkpt>
      <trkpt lat="42.70864" lon="1.37414">
        <ele>1921</ele>
        <time>2023-07-24T08:12:36.000Z</time>
      </trkpt>
      <trkpt lat="42.70862" lon="1.37408">
        <ele>1922</ele>
        <time>2023-07-24T08:12:42.000Z</time>
      </trkpt>
      <trkpt lat="42.70861" lon="1.37407">
        <ele>1922.1999511719</ele>
        <time>2023-07-24T08:12:44.000Z</time>
      </trkpt>
      <trkpt lat="42.70859" lon="1.37403">
        <ele>1922.4000244141</ele>
        <time>2023-07-24T08:12:51.000Z</time>
      </trkpt>
      <trkpt lat="42.70858" lon="1.37397">
        <ele>1922.5999755859</ele>
        <time>2023-07-24T08:12:58.000Z</time>
      </trkpt>
      <trkpt lat="42.70856" lon="1.3739">
        <ele>1922.4000244141</ele>
        <time>2023-07-24T08:13:05.000Z</time>
      </trkpt>
      <trkpt lat="42.70852" lon="1.37387">
        <ele>1923.1999511719</ele>
        <time>2023-07-24T08:13:13.000Z</time>
      </trkpt>
      <trkpt lat="42.70852" lon="1.37382">
        <ele>1923.8000488281</ele>
        <time>2023-07-24T08:13:20.000Z</time>
      </trkpt>
      <trkpt lat="42.70852" lon="1.37378">
        <ele>1924.1999511719</ele>
        <time>2023-07-24T08:13:22.000Z</time>
      </trkpt>
      <trkpt lat="42.70853" lon="1.37377">
        <ele>1924.8000488281</ele>
        <time>2023-07-24T08:13:27.000Z</time>
      </trkpt>
      <trkpt lat="42.70853" lon="1.37375">
        <ele>1925.1999511719</ele>
        <time>2023-07-24T08:13:29.000Z</time>
      </trkpt>
      <trkpt lat="42.70853" lon="1.37371">
        <ele>1925.5999755859</ele>
        <time>2023-07-24T08:13:34.000Z</time>
      </trkpt>
      <trkpt lat="42.70852" lon="1.37367">
        <ele>1925.8000488281</ele>
        <time>2023-07-24T08:13:41.000Z</time>
      </trkpt>
      <trkpt lat="42.70851" lon="1.37364">
        <ele>1926.1999511719</ele>
        <time>2023-07-24T08:13:48.000Z</time>
      </trkpt>
      <trkpt lat="42.70849" lon="1.37361">
        <ele>1926.8000488281</ele>
        <time>2023-07-24T08:13:52.000Z</time>
      </trkpt>
      <trkpt lat="42.70845" lon="1.37357">
        <ele>1927.1999511719</ele>
        <time>2023-07-24T08:13:58.000Z</time>
      </trkpt>
      <trkpt lat="42.70845" lon="1.37357">
        <ele>1927.4000244141</ele>
        <time>2023-07-24T08:13:59.000Z</time>
      </trkpt>
      <trkpt lat="42.70843" lon="1.37353">
        <ele>1928.1999511719</ele>
        <time>2023-07-24T08:14:07.000Z</time>
      </trkpt>
      <trkpt lat="42.70843" lon="1.37351">
        <ele>1928.5999755859</ele>
        <time>2023-07-24T08:14:10.000Z</time>
      </trkpt>
      <trkpt lat="42.70842" lon="1.37347">
        <ele>1928.1999511719</ele>
        <time>2023-07-24T08:14:17.000Z</time>
      </trkpt>
      <trkpt lat="42.70838" lon="1.37342">
        <ele>1929.1999511719</ele>
        <time>2023-07-24T08:14:27.000Z</time>
      </trkpt>
      <trkpt lat="42.70837" lon="1.37342">
        <ele>1930</ele>
        <time>2023-07-24T08:14:32.000Z</time>
      </trkpt>
      <trkpt lat="42.70839" lon="1.37342">
        <ele>1930.4000244141</ele>
        <time>2023-07-24T08:14:35.000Z</time>
      </trkpt>
      <trkpt lat="42.7084" lon="1.37342">
        <ele>1930.8000488281</ele>
        <time>2023-07-24T08:14:41.000Z</time>
      </trkpt>
      <trkpt lat="42.70836" lon="1.37343">
        <ele>1930.1999511719</ele>
        <time>2023-07-24T08:14:50.000Z</time>
      </trkpt>
      <trkpt lat="42.70837" lon="1.3734">
        <ele>1930.1999511719</ele>
        <time>2023-07-24T08:14:59.000Z</time>
      </trkpt>
      <trkpt lat="42.70838" lon="1.3734">
        <ele>1930.5999755859</ele>
        <time>2023-07-24T08:15:13.000Z</time>
      </trkpt>
      <trkpt lat="42.70835" lon="1.37335">
        <ele>1930.8000488281</ele>
        <time>2023-07-24T08:15:21.000Z</time>
      </trkpt>
      <trkpt lat="42.70835" lon="1.37334">
        <ele>1931</ele>
        <time>2023-07-24T08:15:23.000Z</time>
      </trkpt>
      <trkpt lat="42.70833" lon="1.3733">
        <ele>1931.8000488281</ele>
        <time>2023-07-24T08:15:27.000Z</time>
      </trkpt>
      <trkpt lat="42.70833" lon="1.37328">
        <ele>1932.1999511719</ele>
        <time>2023-07-24T08:15:32.000Z</time>
      </trkpt>
      <trkpt lat="42.70832" lon="1.37327">
        <ele>1932.4000244141</ele>
        <time>2023-07-24T08:15:34.000Z</time>
      </trkpt>
      <trkpt lat="42.7083" lon="1.37325">
        <ele>1933.1999511719</ele>
        <time>2023-07-24T08:15:40.000Z</time>
      </trkpt>
      <trkpt lat="42.7083" lon="1.37324">
        <ele>1933.5999755859</ele>
        <time>2023-07-24T08:15:42.000Z</time>
      </trkpt>
      <trkpt lat="42.70828" lon="1.37322">
        <ele>1934.1999511719</ele>
        <time>2023-07-24T08:15:47.000Z</time>
      </trkpt>
      <trkpt lat="42.70828" lon="1.3732">
        <ele>1934.5999755859</ele>
        <time>2023-07-24T08:15:50.000Z</time>
      </trkpt>
      <trkpt lat="42.70828" lon="1.37318">
        <ele>1935.4000244141</ele>
        <time>2023-07-24T08:15:54.000Z</time>
      </trkpt>
      <trkpt lat="42.70827" lon="1.37316">
        <ele>1936.1999511719</ele>
        <time>2023-07-24T08:15:59.000Z</time>
      </trkpt>
      <trkpt lat="42.70827" lon="1.37316">
        <ele>1936.4000244141</ele>
        <time>2023-07-24T08:16:00.000Z</time>
      </trkpt>
      <trkpt lat="42.70826" lon="1.37314">
        <ele>1937.5999755859</ele>
        <time>2023-07-24T08:16:09.000Z</time>
      </trkpt>
      <trkpt lat="42.70822" lon="1.37308">
        <ele>1938.5999755859</ele>
        <time>2023-07-24T08:16:18.000Z</time>
      </trkpt>
      <trkpt lat="42.70822" lon="1.37307">
        <ele>1938.5999755859</ele>
        <time>2023-07-24T08:16:19.000Z</time>
      </trkpt>
      <trkpt lat="42.70818" lon="1.37305">
        <ele>1939.4000244141</ele>
        <time>2023-07-24T08:16:27.000Z</time>
      </trkpt>
      <trkpt lat="42.70816" lon="1.37304">
        <ele>1939.5999755859</ele>
        <time>2023-07-24T08:16:29.000Z</time>
      </trkpt>
      <trkpt lat="42.70816" lon="1.373">
        <ele>1940</ele>
        <time>2023-07-24T08:16:34.000Z</time>
      </trkpt>
      <trkpt lat="42.70816" lon="1.37295">
        <ele>1940.8000488281</ele>
        <time>2023-07-24T08:16:40.000Z</time>
      </trkpt>
      <trkpt lat="42.70815" lon="1.37294">
        <ele>1941</ele>
        <time>2023-07-24T08:16:42.000Z</time>
      </trkpt>
      <trkpt lat="42.7081" lon="1.37292">
        <ele>1942</ele>
        <time>2023-07-24T08:16:49.000Z</time>
      </trkpt>
      <trkpt lat="42.70809" lon="1.3729">
        <ele>1942.1999511719</ele>
        <time>2023-07-24T08:16:51.000Z</time>
      </trkpt>
      <trkpt lat="42.70807" lon="1.37287">
        <ele>1942.8000488281</ele>
        <time>2023-07-24T08:16:58.000Z</time>
      </trkpt>
      <trkpt lat="42.70807" lon="1.37286">
        <ele>1943</ele>
        <time>2023-07-24T08:17:00.000Z</time>
      </trkpt>
      <trkpt lat="42.70805" lon="1.37283">
        <ele>1944</ele>
        <time>2023-07-24T08:17:07.000Z</time>
      </trkpt>
      <trkpt lat="42.70803" lon="1.37279">
        <ele>1945</ele>
        <time>2023-07-24T08:17:13.000Z</time>
      </trkpt>
      <trkpt lat="42.70803" lon="1.37278">
        <ele>1945.5999755859</ele>
        <time>2023-07-24T08:17:16.000Z</time>
      </trkpt>
      <trkpt lat="42.70802" lon="1.37276">
        <ele>1946.1999511719</ele>
        <time>2023-07-24T08:17:19.000Z</time>
      </trkpt>
      <trkpt lat="42.70798" lon="1.37274">
        <ele>1946.8000488281</ele>
        <time>2023-07-24T08:17:24.000Z</time>
      </trkpt>
      <trkpt lat="42.70798" lon="1.37273">
        <ele>1947.1999511719</ele>
        <time>2023-07-24T08:17:28.000Z</time>
      </trkpt>
      <trkpt lat="42.70797" lon="1.37271">
        <ele>1947.8000488281</ele>
        <time>2023-07-24T08:17:32.000Z</time>
      </trkpt>
      <trkpt lat="42.70796" lon="1.37269">
        <ele>1948.1999511719</ele>
        <time>2023-07-24T08:17:35.000Z</time>
      </trkpt>
      <trkpt lat="42.70794" lon="1.37267">
        <ele>1949</ele>
        <time>2023-07-24T08:17:40.000Z</time>
      </trkpt>
      <trkpt lat="42.70793" lon="1.37265">
        <ele>1949.4000244141</ele>
        <time>2023-07-24T08:17:43.000Z</time>
      </trkpt>
      <trkpt lat="42.70792" lon="1.37264">
        <ele>1950</ele>
        <time>2023-07-24T08:17:49.000Z</time>
      </trkpt>
      <trkpt lat="42.70791" lon="1.37262">
        <ele>1950.4000244141</ele>
        <time>2023-07-24T08:17:52.000Z</time>
      </trkpt>
      <trkpt lat="42.7079" lon="1.37261">
        <ele>1950.4000244141</ele>
        <time>2023-07-24T08:17:55.000Z</time>
      </trkpt>
      <trkpt lat="42.70791" lon="1.37258">
        <ele>1951.4000244141</ele>
        <time>2023-07-24T08:18:02.000Z</time>
      </trkpt>
      <trkpt lat="42.70791" lon="1.37257">
        <ele>1952</ele>
        <time>2023-07-24T08:18:05.000Z</time>
      </trkpt>
      <trkpt lat="42.7079" lon="1.37254">
        <ele>1952.5999755859</ele>
        <time>2023-07-24T08:18:10.000Z</time>
      </trkpt>
      <trkpt lat="42.70789" lon="1.37254">
        <ele>1953</ele>
        <time>2023-07-24T08:18:12.000Z</time>
      </trkpt>
      <trkpt lat="42.70784" lon="1.37253">
        <ele>1953.5999755859</ele>
        <time>2023-07-24T08:18:20.000Z</time>
      </trkpt>
      <trkpt lat="42.70781" lon="1.37251">
        <ele>1954.8000488281</ele>
        <time>2023-07-24T08:18:28.000Z</time>
      </trkpt>
      <trkpt lat="42.7078" lon="1.37246">
        <ele>1955.8000488281</ele>
        <time>2023-07-24T08:18:36.000Z</time>
      </trkpt>
      <trkpt lat="42.70779" lon="1.37244">
        <ele>1956.8000488281</ele>
        <time>2023-07-24T08:18:43.000Z</time>
      </trkpt>
      <trkpt lat="42.70777" lon="1.37242">
        <ele>1957</ele>
        <time>2023-07-24T08:18:47.000Z</time>
      </trkpt>
      <trkpt lat="42.70776" lon="1.3724">
        <ele>1957.1999511719</ele>
        <time>2023-07-24T08:18:49.000Z</time>
      </trkpt>
      <trkpt lat="42.70775" lon="1.37239">
        <ele>1958</ele>
        <time>2023-07-24T08:18:52.000Z</time>
      </trkpt>
      <trkpt lat="42.70774" lon="1.37239">
        <ele>1959</ele>
        <time>2023-07-24T08:18:56.000Z</time>
      </trkpt>
      <trkpt lat="42.70773" lon="1.37239">
        <ele>1959.1999511719</ele>
        <time>2023-07-24T08:18:57.000Z</time>
      </trkpt>
      <trkpt lat="42.70771" lon="1.37239">
        <ele>1960.1999511719</ele>
        <time>2023-07-24T08:19:01.000Z</time>
      </trkpt>
      <trkpt lat="42.70769" lon="1.37238">
        <ele>1960.4000244141</ele>
        <time>2023-07-24T08:19:04.000Z</time>
      </trkpt>
      <trkpt lat="42.70767" lon="1.37238">
        <ele>1961.4000244141</ele>
        <time>2023-07-24T08:19:09.000Z</time>
      </trkpt>
      <trkpt lat="42.70767" lon="1.37238">
        <ele>1961.5999755859</ele>
        <time>2023-07-24T08:19:10.000Z</time>
      </trkpt>
      <trkpt lat="42.70768" lon="1.37235">
        <ele>1962.4000244141</ele>
        <time>2023-07-24T08:19:17.000Z</time>
      </trkpt>
      <trkpt lat="42.70768" lon="1.37234">
        <ele>1962.5999755859</ele>
        <time>2023-07-24T08:19:18.000Z</time>
      </trkpt>
      <trkpt lat="42.70768" lon="1.37232">
        <ele>1963.5999755859</ele>
        <time>2023-07-24T08:19:21.000Z</time>
      </trkpt>
      <trkpt lat="42.70767" lon="1.37229">
        <ele>1963.8000488281</ele>
        <time>2023-07-24T08:19:26.000Z</time>
      </trkpt>
      <trkpt lat="42.70765" lon="1.37227">
        <ele>1964.5999755859</ele>
        <time>2023-07-24T08:19:30.000Z</time>
      </trkpt>
      <trkpt lat="42.70763" lon="1.37226">
        <ele>1965.5999755859</ele>
        <time>2023-07-24T08:19:35.000Z</time>
      </trkpt>
      <trkpt lat="42.7076" lon="1.37225">
        <ele>1966.5999755859</ele>
        <time>2023-07-24T08:19:41.000Z</time>
      </trkpt>
      <trkpt lat="42.70759" lon="1.37223">
        <ele>1966.5999755859</ele>
        <time>2023-07-24T08:19:44.000Z</time>
      </trkpt>
      <trkpt lat="42.70758" lon="1.37223">
        <ele>1967.1999511719</ele>
        <time>2023-07-24T08:19:48.000Z</time>
      </trkpt>
      <trkpt lat="42.70756" lon="1.37222">
        <ele>1967.8000488281</ele>
        <time>2023-07-24T08:19:53.000Z</time>
      </trkpt>
      <trkpt lat="42.70755" lon="1.37222">
        <ele>1967.8000488281</ele>
        <time>2023-07-24T08:19:54.000Z</time>
      </trkpt>
      <trkpt lat="42.70753" lon="1.37216">
        <ele>1968.8000488281</ele>
        <time>2023-07-24T08:20:02.000Z</time>
      </trkpt>
      <trkpt lat="42.70754" lon="1.37213">
        <ele>1969.8000488281</ele>
        <time>2023-07-24T08:20:08.000Z</time>
      </trkpt>
      <trkpt lat="42.70754" lon="1.37211">
        <ele>1970.4000244141</ele>
        <time>2023-07-24T08:20:12.000Z</time>
      </trkpt>
      <trkpt lat="42.70752" lon="1.37208">
        <ele>1971</ele>
        <time>2023-07-24T08:20:17.000Z</time>
      </trkpt>
      <trkpt lat="42.70751" lon="1.37208">
        <ele>1971</ele>
        <time>2023-07-24T08:20:18.000Z</time>
      </trkpt>
      <trkpt lat="42.70748" lon="1.37205">
        <ele>1972</ele>
        <time>2023-07-24T08:20:24.000Z</time>
      </trkpt>
      <trkpt lat="42.70747" lon="1.37205">
        <ele>1972.4000244141</ele>
        <time>2023-07-24T08:20:26.000Z</time>
      </trkpt>
      <trkpt lat="42.70743" lon="1.37203">
        <ele>1973.1999511719</ele>
        <time>2023-07-24T08:20:32.000Z</time>
      </trkpt>
      <trkpt lat="42.70742" lon="1.37202">
        <ele>1973.4000244141</ele>
        <time>2023-07-24T08:20:35.000Z</time>
      </trkpt>
      <trkpt lat="42.70736" lon="1.372">
        <ele>1974.1999511719</ele>
        <time>2023-07-24T08:20:42.000Z</time>
      </trkpt>
      <trkpt lat="42.70736" lon="1.372">
        <ele>1974.4000244141</ele>
        <time>2023-07-24T08:20:43.000Z</time>
      </trkpt>
      <trkpt lat="42.70731" lon="1.37198">
        <ele>1975.1999511719</ele>
        <time>2023-07-24T08:20:50.000Z</time>
      </trkpt>
      <trkpt lat="42.70729" lon="1.37198">
        <ele>1975.8000488281</ele>
        <time>2023-07-24T08:20:53.000Z</time>
      </trkpt>
      <trkpt lat="42.70728" lon="1.37197">
        <ele>1976.4000244141</ele>
        <time>2023-07-24T08:20:57.000Z</time>
      </trkpt>
      <trkpt lat="42.70727" lon="1.37195">
        <ele>1976.5999755859</ele>
        <time>2023-07-24T08:21:00.000Z</time>
      </trkpt>
      <trkpt lat="42.70723" lon="1.3719">
        <ele>1977.4000244141</ele>
        <time>2023-07-24T08:21:06.000Z</time>
      </trkpt>
      <trkpt lat="42.70722" lon="1.37189">
        <ele>1977.5999755859</ele>
        <time>2023-07-24T08:21:08.000Z</time>
      </trkpt>
      <trkpt lat="42.7072" lon="1.37187">
        <ele>1978</ele>
        <time>2023-07-24T08:21:15.000Z</time>
      </trkpt>
      <trkpt lat="42.70716" lon="1.37186">
        <ele>1978.4000244141</ele>
        <time>2023-07-24T08:21:22.000Z</time>
      </trkpt>
      <trkpt lat="42.70714" lon="1.37185">
        <ele>1979.4000244141</ele>
        <time>2023-07-24T08:21:25.000Z</time>
      </trkpt>
      <trkpt lat="42.70714" lon="1.37184">
        <ele>1979.4000244141</ele>
        <time>2023-07-24T08:21:26.000Z</time>
      </trkpt>
      <trkpt lat="42.70712" lon="1.37183">
        <ele>1980.5999755859</ele>
        <time>2023-07-24T08:21:32.000Z</time>
      </trkpt>
      <trkpt lat="42.70708" lon="1.37183">
        <ele>1981.5999755859</ele>
        <time>2023-07-24T08:21:37.000Z</time>
      </trkpt>
      <trkpt lat="42.70705" lon="1.37183">
        <ele>1981.5999755859</ele>
        <time>2023-07-24T08:21:40.000Z</time>
      </trkpt>
      <trkpt lat="42.70703" lon="1.37179">
        <ele>1981.5999755859</ele>
        <time>2023-07-24T08:21:48.000Z</time>
      </trkpt>
      <trkpt lat="42.70699" lon="1.37176">
        <ele>1982.5999755859</ele>
        <time>2023-07-24T08:21:57.000Z</time>
      </trkpt>
      <trkpt lat="42.70694" lon="1.37176">
        <ele>1982.8000488281</ele>
        <time>2023-07-24T08:22:03.000Z</time>
      </trkpt>
      <trkpt lat="42.70693" lon="1.37176">
        <ele>1983.1999511719</ele>
        <time>2023-07-24T08:22:05.000Z</time>
      </trkpt>
      <trkpt lat="42.70692" lon="1.37175">
        <ele>1983.8000488281</ele>
        <time>2023-07-24T08:22:08.000Z</time>
      </trkpt>
      <trkpt lat="42.7069" lon="1.37174">
        <ele>1984.8000488281</ele>
        <time>2023-07-24T08:22:15.000Z</time>
      </trkpt>
      <trkpt lat="42.70687" lon="1.37172">
        <ele>1986</ele>
        <time>2023-07-24T08:22:20.000Z</time>
      </trkpt>
      <trkpt lat="42.70688" lon="1.37172">
        <ele>1986.8000488281</ele>
        <time>2023-07-24T08:22:23.000Z</time>
      </trkpt>
      <trkpt lat="42.70687" lon="1.37172">
        <ele>1987</ele>
        <time>2023-07-24T08:22:24.000Z</time>
      </trkpt>
      <trkpt lat="42.70683" lon="1.37169">
        <ele>1986.8000488281</ele>
        <time>2023-07-24T08:22:30.000Z</time>
      </trkpt>
      <trkpt lat="42.70679" lon="1.37168">
        <ele>1987.8000488281</ele>
        <time>2023-07-24T08:22:37.000Z</time>
      </trkpt>
      <trkpt lat="42.70678" lon="1.37167">
        <ele>1988</ele>
        <time>2023-07-24T08:22:39.000Z</time>
      </trkpt>
      <trkpt lat="42.70677" lon="1.37166">
        <ele>1988.4000244141</ele>
        <time>2023-07-24T08:22:44.000Z</time>
      </trkpt>
      <trkpt lat="42.70675" lon="1.37162">
        <ele>1989.1999511719</ele>
        <time>2023-07-24T08:22:50.000Z</time>
      </trkpt>
      <trkpt lat="42.70675" lon="1.37162">
        <ele>1989.1999511719</ele>
        <time>2023-07-24T08:22:51.000Z</time>
      </trkpt>
      <trkpt lat="42.70671" lon="1.37156">
        <ele>1990</ele>
        <time>2023-07-24T08:22:58.000Z</time>
      </trkpt>
      <trkpt lat="42.70668" lon="1.37157">
        <ele>1989.4000244141</ele>
        <time>2023-07-24T08:23:04.000Z</time>
      </trkpt>
      <trkpt lat="42.70665" lon="1.3715">
        <ele>1989.8000488281</ele>
        <time>2023-07-24T08:23:13.000Z</time>
      </trkpt>
      <trkpt lat="42.70662" lon="1.37148">
        <ele>1990.4000244141</ele>
        <time>2023-07-24T08:23:17.000Z</time>
      </trkpt>
      <trkpt lat="42.70658" lon="1.37146">
        <ele>1991</ele>
        <time>2023-07-24T08:23:22.000Z</time>
      </trkpt>
      <trkpt lat="42.70656" lon="1.37143">
        <ele>1991.4000244141</ele>
        <time>2023-07-24T08:23:26.000Z</time>
      </trkpt>
      <trkpt lat="42.70656" lon="1.37142">
        <ele>1991.4000244141</ele>
        <time>2023-07-24T08:23:29.000Z</time>
      </trkpt>
      <trkpt lat="42.70653" lon="1.37136">
        <ele>1992.4000244141</ele>
        <time>2023-07-24T08:23:35.000Z</time>
      </trkpt>
      <trkpt lat="42.70652" lon="1.37135">
        <ele>1992.8000488281</ele>
        <time>2023-07-24T08:23:37.000Z</time>
      </trkpt>
      <trkpt lat="42.70651" lon="1.37132">
        <ele>1993.8000488281</ele>
        <time>2023-07-24T08:23:40.000Z</time>
      </trkpt>
      <trkpt lat="42.70649" lon="1.37129">
        <ele>1995.1999511719</ele>
        <time>2023-07-24T08:23:46.000Z</time>
      </trkpt>
      <trkpt lat="42.70647" lon="1.37123">
        <ele>1995.8000488281</ele>
        <time>2023-07-24T08:23:54.000Z</time>
      </trkpt>
      <trkpt lat="42.70646" lon="1.37123">
        <ele>1996.4000244141</ele>
        <time>2023-07-24T08:23:59.000Z</time>
      </trkpt>
      <trkpt lat="42.70645" lon="1.37123">
        <ele>1997</ele>
        <time>2023-07-24T08:24:02.000Z</time>
      </trkpt>
      <trkpt lat="42.7064" lon="1.3712">
        <ele>1997.1999511719</ele>
        <time>2023-07-24T08:24:09.000Z</time>
      </trkpt>
      <trkpt lat="42.70639" lon="1.37118">
        <ele>1997.4000244141</ele>
        <time>2023-07-24T08:24:12.000Z</time>
      </trkpt>
      <trkpt lat="42.70639" lon="1.37116">
        <ele>1998.1999511719</ele>
        <time>2023-07-24T08:24:17.000Z</time>
      </trkpt>
      <trkpt lat="42.70638" lon="1.37117">
        <ele>1998</ele>
        <time>2023-07-24T08:24:28.000Z</time>
      </trkpt>
      <trkpt lat="42.70636" lon="1.37113">
        <ele>1997.8000488281</ele>
        <time>2023-07-24T08:24:35.000Z</time>
      </trkpt>
      <trkpt lat="42.70634" lon="1.37106">
        <ele>1998.5999755859</ele>
        <time>2023-07-24T08:24:43.000Z</time>
      </trkpt>
      <trkpt lat="42.70631" lon="1.37102">
        <ele>1999.4000244141</ele>
        <time>2023-07-24T08:24:50.000Z</time>
      </trkpt>
      <trkpt lat="42.7063" lon="1.37102">
        <ele>1999.5999755859</ele>
        <time>2023-07-24T08:24:52.000Z</time>
      </trkpt>
      <trkpt lat="42.70628" lon="1.371">
        <ele>2000.4000244141</ele>
        <time>2023-07-24T08:24:57.000Z</time>
      </trkpt>
      <trkpt lat="42.70628" lon="1.37099">
        <ele>2000.5999755859</ele>
        <time>2023-07-24T08:24:58.000Z</time>
      </trkpt>
      <trkpt lat="42.70626" lon="1.37096">
        <ele>2001.8000488281</ele>
        <time>2023-07-24T08:25:04.000Z</time>
      </trkpt>
      <trkpt lat="42.70624" lon="1.37095">
        <ele>2002.8000488281</ele>
        <time>2023-07-24T08:25:12.000Z</time>
      </trkpt>
      <trkpt lat="42.70622" lon="1.3709">
        <ele>2004</ele>
        <time>2023-07-24T08:25:19.000Z</time>
      </trkpt>
      <trkpt lat="42.70622" lon="1.3709">
        <ele>2004.4000244141</ele>
        <time>2023-07-24T08:25:20.000Z</time>
      </trkpt>
      <trkpt lat="42.70622" lon="1.37088">
        <ele>2005</ele>
        <time>2023-07-24T08:25:23.000Z</time>
      </trkpt>
      <trkpt lat="42.70621" lon="1.37086">
        <ele>2005.8000488281</ele>
        <time>2023-07-24T08:25:28.000Z</time>
      </trkpt>
      <trkpt lat="42.70621" lon="1.37085">
        <ele>2006</ele>
        <time>2023-07-24T08:25:29.000Z</time>
      </trkpt>
      <trkpt lat="42.70618" lon="1.37082">
        <ele>2007.1999511719</ele>
        <time>2023-07-24T08:25:37.000Z</time>
      </trkpt>
      <trkpt lat="42.70617" lon="1.37082">
        <ele>2007.5999755859</ele>
        <time>2023-07-24T08:25:39.000Z</time>
      </trkpt>
      <trkpt lat="42.70616" lon="1.37078">
        <ele>2008.1999511719</ele>
        <time>2023-07-24T08:25:45.000Z</time>
      </trkpt>
      <trkpt lat="42.70615" lon="1.37077">
        <ele>2008.1999511719</ele>
        <time>2023-07-24T08:25:47.000Z</time>
      </trkpt>
      <trkpt lat="42.70614" lon="1.37074">
        <ele>2009.1999511719</ele>
        <time>2023-07-24T08:25:53.000Z</time>
      </trkpt>
      <trkpt lat="42.70613" lon="1.37074">
        <ele>2009.5999755859</ele>
        <time>2023-07-24T08:25:56.000Z</time>
      </trkpt>
      <trkpt lat="42.70611" lon="1.3707">
        <ele>2010</ele>
        <time>2023-07-24T08:26:05.000Z</time>
      </trkpt>
      <trkpt lat="42.70611" lon="1.3707">
        <ele>2010.4000244141</ele>
        <time>2023-07-24T08:26:07.000Z</time>
      </trkpt>
      <trkpt lat="42.70609" lon="1.37067">
        <ele>2011.5999755859</ele>
        <time>2023-07-24T08:26:13.000Z</time>
      </trkpt>
      <trkpt lat="42.70607" lon="1.37065">
        <ele>2012.5999755859</ele>
        <time>2023-07-24T08:26:20.000Z</time>
      </trkpt>
      <trkpt lat="42.70606" lon="1.37064">
        <ele>2013.5999755859</ele>
        <time>2023-07-24T08:26:25.000Z</time>
      </trkpt>
      <trkpt lat="42.70604" lon="1.37063">
        <ele>2014.5999755859</ele>
        <time>2023-07-24T08:26:29.000Z</time>
      </trkpt>
      <trkpt lat="42.70603" lon="1.37063">
        <ele>2014.8000488281</ele>
        <time>2023-07-24T08:26:31.000Z</time>
      </trkpt>
      <trkpt lat="42.70601" lon="1.37063">
        <ele>2015.8000488281</ele>
        <time>2023-07-24T08:26:37.000Z</time>
      </trkpt>
      <trkpt lat="42.70601" lon="1.37063">
        <ele>2016</ele>
        <time>2023-07-24T08:26:38.000Z</time>
      </trkpt>
      <trkpt lat="42.70603" lon="1.37058">
        <ele>2017</ele>
        <time>2023-07-24T08:26:45.000Z</time>
      </trkpt>
      <trkpt lat="42.70604" lon="1.37056">
        <ele>2017</ele>
        <time>2023-07-24T08:26:47.000Z</time>
      </trkpt>
      <trkpt lat="42.70605" lon="1.37055">
        <ele>2017.5999755859</ele>
        <time>2023-07-24T08:26:52.000Z</time>
      </trkpt>
      <trkpt lat="42.70605" lon="1.37053">
        <ele>2018</ele>
        <time>2023-07-24T08:26:56.000Z</time>
      </trkpt>
      <trkpt lat="42.70604" lon="1.37051">
        <ele>2018.4000244141</ele>
        <time>2023-07-24T08:27:00.000Z</time>
      </trkpt>
      <trkpt lat="42.70602" lon="1.37047">
        <ele>2019.1999511719</ele>
        <time>2023-07-24T08:27:07.000Z</time>
      </trkpt>
      <trkpt lat="42.70602" lon="1.37046">
        <ele>2019.1999511719</ele>
        <time>2023-07-24T08:27:08.000Z</time>
      </trkpt>
      <trkpt lat="42.70599" lon="1.37045">
        <ele>2020.1999511719</ele>
        <time>2023-07-24T08:27:16.000Z</time>
      </trkpt>
      <trkpt lat="42.70598" lon="1.37042">
        <ele>2021.4000244141</ele>
        <time>2023-07-24T08:27:24.000Z</time>
      </trkpt>
      <trkpt lat="42.70599" lon="1.37036">
        <ele>2022.4000244141</ele>
        <time>2023-07-24T08:27:32.000Z</time>
      </trkpt>
      <trkpt lat="42.706" lon="1.37035">
        <ele>2022.4000244141</ele>
        <time>2023-07-24T08:27:33.000Z</time>
      </trkpt>
      <trkpt lat="42.70601" lon="1.37033">
        <ele>2023</ele>
        <time>2023-07-24T08:27:39.000Z</time>
      </trkpt>
      <trkpt lat="42.70601" lon="1.3703">
        <ele>2023.5999755859</ele>
        <time>2023-07-24T08:27:43.000Z</time>
      </trkpt>
      <trkpt lat="42.706" lon="1.37027">
        <ele>2024.1999511719</ele>
        <time>2023-07-24T08:27:49.000Z</time>
      </trkpt>
      <trkpt lat="42.70599" lon="1.37026">
        <ele>2024.8000488281</ele>
        <time>2023-07-24T08:27:51.000Z</time>
      </trkpt>
      <trkpt lat="42.70598" lon="1.37023">
        <ele>2025.5999755859</ele>
        <time>2023-07-24T08:27:58.000Z</time>
      </trkpt>
      <trkpt lat="42.70597" lon="1.37022">
        <ele>2025.8000488281</ele>
        <time>2023-07-24T08:28:01.000Z</time>
      </trkpt>
      <trkpt lat="42.70598" lon="1.37021">
        <ele>2026.8000488281</ele>
        <time>2023-07-24T08:28:08.000Z</time>
      </trkpt>
      <trkpt lat="42.70597" lon="1.37018">
        <ele>2028</ele>
        <time>2023-07-24T08:28:16.000Z</time>
      </trkpt>
      <trkpt lat="42.70596" lon="1.37017">
        <ele>2028.1999511719</ele>
        <time>2023-07-24T08:28:18.000Z</time>
      </trkpt>
      <trkpt lat="42.70595" lon="1.37014">
        <ele>2029</ele>
        <time>2023-07-24T08:28:24.000Z</time>
      </trkpt>
      <trkpt lat="42.70595" lon="1.37012">
        <ele>2029.5999755859</ele>
        <time>2023-07-24T08:28:28.000Z</time>
      </trkpt>
      <trkpt lat="42.70596" lon="1.37007">
        <ele>2030</ele>
        <time>2023-07-24T08:28:35.000Z</time>
      </trkpt>
      <trkpt lat="42.70596" lon="1.37006">
        <ele>2030.1999511719</ele>
        <time>2023-07-24T08:28:37.000Z</time>
      </trkpt>
      <trkpt lat="42.70597" lon="1.36999">
        <ele>2031.1999511719</ele>
        <time>2023-07-24T08:28:47.000Z</time>
      </trkpt>
      <trkpt lat="42.70594" lon="1.37">
        <ele>2032</ele>
        <time>2023-07-24T08:28:56.000Z</time>
      </trkpt>
      <trkpt lat="42.70594" lon="1.36998">
        <ele>2032.4000244141</ele>
        <time>2023-07-24T08:28:59.000Z</time>
      </trkpt>
      <trkpt lat="42.70594" lon="1.36993">
        <ele>2033.4000244141</ele>
        <time>2023-07-24T08:29:04.000Z</time>
      </trkpt>
      <trkpt lat="42.70593" lon="1.36991">
        <ele>2033.4000244141</ele>
        <time>2023-07-24T08:29:06.000Z</time>
      </trkpt>
      <trkpt lat="42.70593" lon="1.36985">
        <ele>2034.1999511719</ele>
        <time>2023-07-24T08:29:13.000Z</time>
      </trkpt>
      <trkpt lat="42.70594" lon="1.36984">
        <ele>2034.4000244141</ele>
        <time>2023-07-24T08:29:15.000Z</time>
      </trkpt>
      <trkpt lat="42.70595" lon="1.36978">
        <ele>2035.5999755859</ele>
        <time>2023-07-24T08:29:21.000Z</time>
      </trkpt>
      <trkpt lat="42.70595" lon="1.36977">
        <ele>2035.5999755859</ele>
        <time>2023-07-24T08:29:22.000Z</time>
      </trkpt>
      <trkpt lat="42.70599" lon="1.36973">
        <ele>2036.4000244141</ele>
        <time>2023-07-24T08:29:29.000Z</time>
      </trkpt>
      <trkpt lat="42.70599" lon="1.36973">
        <ele>2036.5999755859</ele>
        <time>2023-07-24T08:29:30.000Z</time>
      </trkpt>
      <trkpt lat="42.70601" lon="1.36969">
        <ele>2037.4000244141</ele>
        <time>2023-07-24T08:29:35.000Z</time>
      </trkpt>
      <trkpt lat="42.70601" lon="1.36969">
        <ele>2037.8000488281</ele>
        <time>2023-07-24T08:29:37.000Z</time>
      </trkpt>
      <trkpt lat="42.70599" lon="1.36968">
        <ele>2038.8000488281</ele>
        <time>2023-07-24T08:29:44.000Z</time>
      </trkpt>
      <trkpt lat="42.70599" lon="1.36965">
        <ele>2040</ele>
        <time>2023-07-24T08:29:51.000Z</time>
      </trkpt>
      <trkpt lat="42.70599" lon="1.36963">
        <ele>2040.1999511719</ele>
        <time>2023-07-24T08:29:54.000Z</time>
      </trkpt>
      <trkpt lat="42.70599" lon="1.36963">
        <ele>2041</ele>
        <time>2023-07-24T08:29:59.000Z</time>
      </trkpt>
      <trkpt lat="42.70597" lon="1.36963">
        <ele>2042.4000244141</ele>
        <time>2023-07-24T08:30:04.000Z</time>
      </trkpt>
      <trkpt lat="42.70593" lon="1.36962">
        <ele>2043.4000244141</ele>
        <time>2023-07-24T08:30:10.000Z</time>
      </trkpt>
      <trkpt lat="42.70593" lon="1.36961">
        <ele>2044</ele>
        <time>2023-07-24T08:30:12.000Z</time>
      </trkpt>
      <trkpt lat="42.70593" lon="1.36958">
        <ele>2044.4000244141</ele>
        <time>2023-07-24T08:30:18.000Z</time>
      </trkpt>
      <trkpt lat="42.70593" lon="1.36958">
        <ele>2044.5999755859</ele>
        <time>2023-07-24T08:30:19.000Z</time>
      </trkpt>
      <trkpt lat="42.70592" lon="1.36958">
        <ele>2045.4000244141</ele>
        <time>2023-07-24T08:30:23.000Z</time>
      </trkpt>
      <trkpt lat="42.70593" lon="1.36958">
        <ele>2045.8000488281</ele>
        <time>2023-07-24T08:30:28.000Z</time>
      </trkpt>
      <trkpt lat="42.70594" lon="1.36955">
        <ele>2046.1999511719</ele>
        <time>2023-07-24T08:30:37.000Z</time>
      </trkpt>
      <trkpt lat="42.70593" lon="1.36954">
        <ele>2046.8000488281</ele>
        <time>2023-07-24T08:30:41.000Z</time>
      </trkpt>
      <trkpt lat="42.70591" lon="1.36953">
        <ele>2048</ele>
        <time>2023-07-24T08:30:45.000Z</time>
      </trkpt>
      <trkpt lat="42.7059" lon="1.36953">
        <ele>2048.3999023438</ele>
        <time>2023-07-24T08:30:46.000Z</time>
      </trkpt>
      <trkpt lat="42.7059" lon="1.36953">
        <ele>2049</ele>
        <time>2023-07-24T08:30:51.000Z</time>
      </trkpt>
      <trkpt lat="42.70589" lon="1.36952">
        <ele>2049.1999511719</ele>
        <time>2023-07-24T08:30:53.000Z</time>
      </trkpt>
      <trkpt lat="42.70589" lon="1.3695">
        <ele>2050</ele>
        <time>2023-07-24T08:30:58.000Z</time>
      </trkpt>
      <trkpt lat="42.70588" lon="1.36949">
        <ele>2050.3999023438</ele>
        <time>2023-07-24T08:31:00.000Z</time>
      </trkpt>
      <trkpt lat="42.70588" lon="1.36948">
        <ele>2051.1999511719</ele>
        <time>2023-07-24T08:31:05.000Z</time>
      </trkpt>
      <trkpt lat="42.70588" lon="1.36944">
        <ele>2052.1999511719</ele>
        <time>2023-07-24T08:31:09.000Z</time>
      </trkpt>
      <trkpt lat="42.70587" lon="1.36941">
        <ele>2053</ele>
        <time>2023-07-24T08:31:16.000Z</time>
      </trkpt>
      <trkpt lat="42.70588" lon="1.36939">
        <ele>2053.1999511719</ele>
        <time>2023-07-24T08:31:19.000Z</time>
      </trkpt>
      <trkpt lat="42.70589" lon="1.36937">
        <ele>2054</ele>
        <time>2023-07-24T08:31:25.000Z</time>
      </trkpt>
      <trkpt lat="42.7059" lon="1.36936">
        <ele>2054.3999023438</ele>
        <time>2023-07-24T08:31:29.000Z</time>
      </trkpt>
      <trkpt lat="42.70591" lon="1.36935">
        <ele>2055</ele>
        <time>2023-07-24T08:31:33.000Z</time>
      </trkpt>
      <trkpt lat="42.70591" lon="1.36934">
        <ele>2055.3999023438</ele>
        <time>2023-07-24T08:31:35.000Z</time>
      </trkpt>
      <trkpt lat="42.70591" lon="1.36929">
        <ele>2056</ele>
        <time>2023-07-24T08:31:42.000Z</time>
      </trkpt>
      <trkpt lat="42.7059" lon="1.36927">
        <ele>2056.3999023438</ele>
        <time>2023-07-24T08:31:45.000Z</time>
      </trkpt>
      <trkpt lat="42.7059" lon="1.36926">
        <ele>2057.1999511719</ele>
        <time>2023-07-24T08:31:49.000Z</time>
      </trkpt>
      <trkpt lat="42.7059" lon="1.36925">
        <ele>2057.3999023438</ele>
        <time>2023-07-24T08:31:51.000Z</time>
      </trkpt>
      <trkpt lat="42.70591" lon="1.36919">
        <ele>2058.6000976562</ele>
        <time>2023-07-24T08:31:58.000Z</time>
      </trkpt>
      <trkpt lat="42.7059" lon="1.36914">
        <ele>2059.6000976562</ele>
        <time>2023-07-24T08:32:07.000Z</time>
      </trkpt>
      <trkpt lat="42.7059" lon="1.36913">
        <ele>2059.8000488281</ele>
        <time>2023-07-24T08:32:08.000Z</time>
      </trkpt>
      <trkpt lat="42.70593" lon="1.3691">
        <ele>2061</ele>
        <time>2023-07-24T08:32:14.000Z</time>
      </trkpt>
      <trkpt lat="42.70593" lon="1.36909">
        <ele>2061.6000976562</ele>
        <time>2023-07-24T08:32:21.000Z</time>
      </trkpt>
      <trkpt lat="42.70593" lon="1.36907">
        <ele>2062</ele>
        <time>2023-07-24T08:32:25.000Z</time>
      </trkpt>
      <trkpt lat="42.70593" lon="1.36905">
        <ele>2062.6000976562</ele>
        <time>2023-07-24T08:32:30.000Z</time>
      </trkpt>
      <trkpt lat="42.70592" lon="1.36904">
        <ele>2063.1999511719</ele>
        <time>2023-07-24T08:32:34.000Z</time>
      </trkpt>
      <trkpt lat="42.7059" lon="1.36901">
        <ele>2064</ele>
        <time>2023-07-24T08:32:39.000Z</time>
      </trkpt>
      <trkpt lat="42.70589" lon="1.36899">
        <ele>2064.1999511719</ele>
        <time>2023-07-24T08:32:41.000Z</time>
      </trkpt>
      <trkpt lat="42.70587" lon="1.36899">
        <ele>2064.6000976562</ele>
        <time>2023-07-24T08:32:46.000Z</time>
      </trkpt>
      <trkpt lat="42.70585" lon="1.36897">
        <ele>2065.1999511719</ele>
        <time>2023-07-24T08:32:50.000Z</time>
      </trkpt>
      <trkpt lat="42.70584" lon="1.36896">
        <ele>2065.6000976562</ele>
        <time>2023-07-24T08:32:53.000Z</time>
      </trkpt>
      <trkpt lat="42.70583" lon="1.36893">
        <ele>2066.3999023438</ele>
        <time>2023-07-24T08:33:03.000Z</time>
      </trkpt>
      <trkpt lat="42.70582" lon="1.36892">
        <ele>2067.6000976562</ele>
        <time>2023-07-24T08:33:08.000Z</time>
      </trkpt>
      <trkpt lat="42.70579" lon="1.3689">
        <ele>2068</ele>
        <time>2023-07-24T08:33:13.000Z</time>
      </trkpt>
      <trkpt lat="42.70577" lon="1.36886">
        <ele>2068.3999023438</ele>
        <time>2023-07-24T08:33:20.000Z</time>
      </trkpt>
      <trkpt lat="42.70577" lon="1.36885">
        <ele>2068.8000488281</ele>
        <time>2023-07-24T08:33:22.000Z</time>
      </trkpt>
      <trkpt lat="42.70578" lon="1.36882">
        <ele>2069.3999023438</ele>
        <time>2023-07-24T08:33:27.000Z</time>
      </trkpt>
      <trkpt lat="42.70577" lon="1.36882">
        <ele>2069.8000488281</ele>
        <time>2023-07-24T08:33:29.000Z</time>
      </trkpt>
      <trkpt lat="42.70575" lon="1.36882">
        <ele>2070.6000976562</ele>
        <time>2023-07-24T08:33:33.000Z</time>
      </trkpt>
      <trkpt lat="42.70574" lon="1.36882">
        <ele>2070.8000488281</ele>
        <time>2023-07-24T08:33:35.000Z</time>
      </trkpt>
      <trkpt lat="42.70569" lon="1.36882">
        <ele>2072.6000976562</ele>
        <time>2023-07-24T08:33:47.000Z</time>
      </trkpt>
      <trkpt lat="42.70568" lon="1.36878">
        <ele>2073</ele>
        <time>2023-07-24T08:33:52.000Z</time>
      </trkpt>
      <trkpt lat="42.70568" lon="1.36877">
        <ele>2073.1999511719</ele>
        <time>2023-07-24T08:33:56.000Z</time>
      </trkpt>
      <trkpt lat="42.70568" lon="1.36873">
        <ele>2074</ele>
        <time>2023-07-24T08:34:02.000Z</time>
      </trkpt>
      <trkpt lat="42.70566" lon="1.36869">
        <ele>2074.8000488281</ele>
        <time>2023-07-24T08:34:10.000Z</time>
      </trkpt>
      <trkpt lat="42.70565" lon="1.36867">
        <ele>2075</ele>
        <time>2023-07-24T08:34:13.000Z</time>
      </trkpt>
      <trkpt lat="42.70562" lon="1.36863">
        <ele>2075.3999023438</ele>
        <time>2023-07-24T08:34:19.000Z</time>
      </trkpt>
      <trkpt lat="42.7056" lon="1.36857">
        <ele>2076.1999511719</ele>
        <time>2023-07-24T08:34:26.000Z</time>
      </trkpt>
      <trkpt lat="42.70559" lon="1.36854">
        <ele>2077.1999511719</ele>
        <time>2023-07-24T08:34:35.000Z</time>
      </trkpt>
      <trkpt lat="42.70559" lon="1.36853">
        <ele>2077.3999023438</ele>
        <time>2023-07-24T08:34:36.000Z</time>
      </trkpt>
      <trkpt lat="42.70557" lon="1.3685">
        <ele>2078.3999023438</ele>
        <time>2023-07-24T08:34:41.000Z</time>
      </trkpt>
      <trkpt lat="42.70556" lon="1.36848">
        <ele>2078.6000976562</ele>
        <time>2023-07-24T08:34:44.000Z</time>
      </trkpt>
      <trkpt lat="42.70556" lon="1.36846">
        <ele>2079.3999023438</ele>
        <time>2023-07-24T08:34:47.000Z</time>
      </trkpt>
      <trkpt lat="42.70556" lon="1.36842">
        <ele>2080.1999511719</ele>
        <time>2023-07-24T08:34:52.000Z</time>
      </trkpt>
      <trkpt lat="42.70556" lon="1.3684">
        <ele>2080.6000976562</ele>
        <time>2023-07-24T08:35:00.000Z</time>
      </trkpt>
      <trkpt lat="42.70555" lon="1.36837">
        <ele>2081.6000976562</ele>
        <time>2023-07-24T08:35:06.000Z</time>
      </trkpt>
      <trkpt lat="42.70554" lon="1.36836">
        <ele>2081.8000488281</ele>
        <time>2023-07-24T08:35:07.000Z</time>
      </trkpt>
      <trkpt lat="42.70553" lon="1.36832">
        <ele>2082.8000488281</ele>
        <time>2023-07-24T08:35:16.000Z</time>
      </trkpt>
      <trkpt lat="42.70553" lon="1.36832">
        <ele>2083</ele>
        <time>2023-07-24T08:35:18.000Z</time>
      </trkpt>
      <trkpt lat="42.70554" lon="1.36831">
        <ele>2083.8000488281</ele>
        <time>2023-07-24T08:35:21.000Z</time>
      </trkpt>
      <trkpt lat="42.70554" lon="1.3683">
        <ele>2084.8000488281</ele>
        <time>2023-07-24T08:35:24.000Z</time>
      </trkpt>
      <trkpt lat="42.70554" lon="1.36826">
        <ele>2085.1999511719</ele>
        <time>2023-07-24T08:35:27.000Z</time>
      </trkpt>
      <trkpt lat="42.70553" lon="1.36822">
        <ele>2085.3999023438</ele>
        <time>2023-07-24T08:35:33.000Z</time>
      </trkpt>
      <trkpt lat="42.70554" lon="1.36824">
        <ele>2085.3999023438</ele>
        <time>2023-07-24T08:35:39.000Z</time>
      </trkpt>
      <trkpt lat="42.70555" lon="1.36823">
        <ele>2086</ele>
        <time>2023-07-24T08:35:43.000Z</time>
      </trkpt>
      <trkpt lat="42.70554" lon="1.36821">
        <ele>2086.8000488281</ele>
        <time>2023-07-24T08:35:48.000Z</time>
      </trkpt>
      <trkpt lat="42.70553" lon="1.36817">
        <ele>2087</ele>
        <time>2023-07-24T08:35:53.000Z</time>
      </trkpt>
      <trkpt lat="42.70552" lon="1.36816">
        <ele>2087.1999511719</ele>
        <time>2023-07-24T08:35:54.000Z</time>
      </trkpt>
      <trkpt lat="42.70547" lon="1.36809">
        <ele>2087.8000488281</ele>
        <time>2023-07-24T08:36:02.000Z</time>
      </trkpt>
      <trkpt lat="42.70546" lon="1.36808">
        <ele>2088.1999511719</ele>
        <time>2023-07-24T08:36:05.000Z</time>
      </trkpt>
      <trkpt lat="42.70545" lon="1.36805">
        <ele>2089.1999511719</ele>
        <time>2023-07-24T08:36:11.000Z</time>
      </trkpt>
      <trkpt lat="42.70545" lon="1.36804">
        <ele>2089.3999023438</ele>
        <time>2023-07-24T08:36:12.000Z</time>
      </trkpt>
      <trkpt lat="42.70542" lon="1.36798">
        <ele>2090.3999023438</ele>
        <time>2023-07-24T08:36:19.000Z</time>
      </trkpt>
      <trkpt lat="42.70542" lon="1.36798">
        <ele>2090.8000488281</ele>
        <time>2023-07-24T08:36:20.000Z</time>
      </trkpt>
      <trkpt lat="42.70538" lon="1.36796">
        <ele>2091.3999023438</ele>
        <time>2023-07-24T08:36:28.000Z</time>
      </trkpt>
      <trkpt lat="42.70538" lon="1.36796">
        <ele>2091.6000976562</ele>
        <time>2023-07-24T08:36:29.000Z</time>
      </trkpt>
      <trkpt lat="42.70535" lon="1.36796">
        <ele>2092.6000976562</ele>
        <time>2023-07-24T08:36:36.000Z</time>
      </trkpt>
      <trkpt lat="42.70534" lon="1.36795">
        <ele>2092.8000488281</ele>
        <time>2023-07-24T08:36:38.000Z</time>
      </trkpt>
      <trkpt lat="42.70533" lon="1.36792">
        <ele>2093.6000976562</ele>
        <time>2023-07-24T08:36:42.000Z</time>
      </trkpt>
      <trkpt lat="42.70533" lon="1.3679">
        <ele>2093.8000488281</ele>
        <time>2023-07-24T08:36:45.000Z</time>
      </trkpt>
      <trkpt lat="42.70531" lon="1.36784">
        <ele>2093.8000488281</ele>
        <time>2023-07-24T08:36:52.000Z</time>
      </trkpt>
      <trkpt lat="42.70526" lon="1.36778">
        <ele>2093.6000976562</ele>
        <time>2023-07-24T08:36:59.000Z</time>
      </trkpt>
      <trkpt lat="42.70523" lon="1.36773">
        <ele>2093.6000976562</ele>
        <time>2023-07-24T08:37:05.000Z</time>
      </trkpt>
      <trkpt lat="42.70522" lon="1.36768">
        <ele>2094</ele>
        <time>2023-07-24T08:37:12.000Z</time>
      </trkpt>
      <trkpt lat="42.70522" lon="1.36765">
        <ele>2094.6000976562</ele>
        <time>2023-07-24T08:37:17.000Z</time>
      </trkpt>
      <trkpt lat="42.70522" lon="1.36764">
        <ele>2095</ele>
        <time>2023-07-24T08:37:19.000Z</time>
      </trkpt>
      <trkpt lat="42.7052" lon="1.36762">
        <ele>2095.6000976562</ele>
        <time>2023-07-24T08:37:24.000Z</time>
      </trkpt>
      <trkpt lat="42.70518" lon="1.36762">
        <ele>2095.8000488281</ele>
        <time>2023-07-24T08:37:27.000Z</time>
      </trkpt>
      <trkpt lat="42.70513" lon="1.36756">
        <ele>2096.1999511719</ele>
        <time>2023-07-24T08:37:33.000Z</time>
      </trkpt>
      <trkpt lat="42.70508" lon="1.36749">
        <ele>2096.3999023438</ele>
        <time>2023-07-24T08:37:41.000Z</time>
      </trkpt>
      <trkpt lat="42.70505" lon="1.36742">
        <ele>2096.8000488281</ele>
        <time>2023-07-24T08:37:48.000Z</time>
      </trkpt>
      <trkpt lat="42.70502" lon="1.36733">
        <ele>2097.6000976562</ele>
        <time>2023-07-24T08:37:56.000Z</time>
      </trkpt>
      <trkpt lat="42.70498" lon="1.36726">
        <ele>2097.6000976562</ele>
        <time>2023-07-24T08:38:03.000Z</time>
      </trkpt>
      <trkpt lat="42.70498" lon="1.36717">
        <ele>2097.3999023438</ele>
        <time>2023-07-24T08:38:11.000Z</time>
      </trkpt>
      <trkpt lat="42.70498" lon="1.36709">
        <ele>2097</ele>
        <time>2023-07-24T08:38:17.000Z</time>
      </trkpt>
      <trkpt lat="42.70498" lon="1.36711">
        <ele>2096.8000488281</ele>
        <time>2023-07-24T08:38:24.000Z</time>
      </trkpt>
      <trkpt lat="42.70499" lon="1.36703">
        <ele>2097</ele>
        <time>2023-07-24T08:38:30.000Z</time>
      </trkpt>
      <trkpt lat="42.70497" lon="1.36698">
        <ele>2097.1999511719</ele>
        <time>2023-07-24T08:38:36.000Z</time>
      </trkpt>
      <trkpt lat="42.70492" lon="1.36697">
        <ele>2097.1999511719</ele>
        <time>2023-07-24T08:38:44.000Z</time>
      </trkpt>
      <trkpt lat="42.70487" lon="1.36693">
        <ele>2097.1999511719</ele>
        <time>2023-07-24T08:38:52.000Z</time>
      </trkpt>
      <trkpt lat="42.70484" lon="1.36687">
        <ele>2097.8000488281</ele>
        <time>2023-07-24T08:38:58.000Z</time>
      </trkpt>
      <trkpt lat="42.70481" lon="1.36682">
        <ele>2098.3999023438</ele>
        <time>2023-07-24T08:39:06.000Z</time>
      </trkpt>
      <trkpt lat="42.70479" lon="1.36678">
        <ele>2098.8000488281</ele>
        <time>2023-07-24T08:39:11.000Z</time>
      </trkpt>
      <trkpt lat="42.70476" lon="1.36676">
        <ele>2099</ele>
        <time>2023-07-24T08:39:15.000Z</time>
      </trkpt>
      <trkpt lat="42.70473" lon="1.36673">
        <ele>2099.3999023438</ele>
        <time>2023-07-24T08:39:23.000Z</time>
      </trkpt>
      <trkpt lat="42.70473" lon="1.36672">
        <ele>2099.6000976562</ele>
        <time>2023-07-24T08:39:30.000Z</time>
      </trkpt>
      <trkpt lat="42.7047" lon="1.3667">
        <ele>2099.6000976562</ele>
        <time>2023-07-24T08:39:37.000Z</time>
      </trkpt>
      <trkpt lat="42.70468" lon="1.36665">
        <ele>2099.8000488281</ele>
        <time>2023-07-24T08:39:43.000Z</time>
      </trkpt>
      <trkpt lat="42.70466" lon="1.3666">
        <ele>2100.3999023438</ele>
        <time>2023-07-24T08:39:46.000Z</time>
      </trkpt>
      <trkpt lat="42.70465" lon="1.36655">
        <ele>2100.1999511719</ele>
        <time>2023-07-24T08:39:55.000Z</time>
      </trkpt>
      <trkpt lat="42.70465" lon="1.36647">
        <ele>2100.8000488281</ele>
        <time>2023-07-24T08:40:02.000Z</time>
      </trkpt>
      <trkpt lat="42.70465" lon="1.36646">
        <ele>2101</ele>
        <time>2023-07-24T08:40:03.000Z</time>
      </trkpt>
      <trkpt lat="42.70464" lon="1.36639">
        <ele>2101.1999511719</ele>
        <time>2023-07-24T08:40:10.000Z</time>
      </trkpt>
      <trkpt lat="42.70463" lon="1.36634">
        <ele>2101.1999511719</ele>
        <time>2023-07-24T08:40:16.000Z</time>
      </trkpt>
      <trkpt lat="42.70463" lon="1.36627">
        <ele>2101.6000976562</ele>
        <time>2023-07-24T08:40:23.000Z</time>
      </trkpt>
      <trkpt lat="42.70464" lon="1.36629">
        <ele>2101.8000488281</ele>
        <time>2023-07-24T08:40:27.000Z</time>
      </trkpt>
      <trkpt lat="42.70464" lon="1.36629">
        <ele>2102</ele>
        <time>2023-07-24T08:40:28.000Z</time>
      </trkpt>
      <trkpt lat="42.70464" lon="1.36629">
        <ele>2102</ele>
        <time>2023-07-24T08:40:30.000Z</time>
      </trkpt>
      <trkpt lat="42.70463" lon="1.36628">
        <ele>2102</ele>
        <time>2023-07-24T08:40:32.000Z</time>
      </trkpt>
      <trkpt lat="42.70463" lon="1.36629">
        <ele>2102</ele>
        <time>2023-07-24T08:40:37.000Z</time>
      </trkpt>
      <trkpt lat="42.7046" lon="1.36631">
        <ele>2102.1999511719</ele>
        <time>2023-07-24T08:40:47.000Z</time>
      </trkpt>
      <trkpt lat="42.7046" lon="1.36627">
        <ele>2102.1999511719</ele>
        <time>2023-07-24T08:40:56.000Z</time>
      </trkpt>
      <trkpt lat="42.70462" lon="1.36626">
        <ele>2101.8000488281</ele>
        <time>2023-07-24T08:41:06.000Z</time>
      </trkpt>
      <trkpt lat="42.70461" lon="1.36622">
        <ele>2102.1999511719</ele>
        <time>2023-07-24T08:41:13.000Z</time>
      </trkpt>
      <trkpt lat="42.70463" lon="1.36616">
        <ele>2102</ele>
        <time>2023-07-24T08:41:20.000Z</time>
      </trkpt>
      <trkpt lat="42.70469" lon="1.36613">
        <ele>2102</ele>
        <time>2023-07-24T08:41:27.000Z</time>
      </trkpt>
      <trkpt lat="42.70474" lon="1.36606">
        <ele>2102.3999023438</ele>
        <time>2023-07-24T08:41:33.000Z</time>
      </trkpt>
      <trkpt lat="42.70476" lon="1.36599">
        <ele>2102.1999511719</ele>
        <time>2023-07-24T08:41:40.000Z</time>
      </trkpt>
      <trkpt lat="42.70478" lon="1.3659">
        <ele>2102</ele>
        <time>2023-07-24T08:41:46.000Z</time>
      </trkpt>
      <trkpt lat="42.70479" lon="1.36583">
        <ele>2102</ele>
        <time>2023-07-24T08:41:52.000Z</time>
      </trkpt>
      <trkpt lat="42.70481" lon="1.36576">
        <ele>2102</ele>
        <time>2023-07-24T08:41:58.000Z</time>
      </trkpt>
      <trkpt lat="42.70484" lon="1.36566">
        <ele>2102.3999023438</ele>
        <time>2023-07-24T08:42:05.000Z</time>
      </trkpt>
      <trkpt lat="42.70484" lon="1.36564">
        <ele>2103</ele>
        <time>2023-07-24T08:42:08.000Z</time>
      </trkpt>
      <trkpt lat="42.70485" lon="1.3656">
        <ele>2103.6000976562</ele>
        <time>2023-07-24T08:42:12.000Z</time>
      </trkpt>
      <trkpt lat="42.70489" lon="1.36552">
        <ele>2104</ele>
        <time>2023-07-24T08:42:20.000Z</time>
      </trkpt>
      <trkpt lat="42.7049" lon="1.36544">
        <ele>2103.3999023438</ele>
        <time>2023-07-24T08:42:27.000Z</time>
      </trkpt>
      <trkpt lat="42.7049" lon="1.36532">
        <ele>2103.6000976562</ele>
        <time>2023-07-24T08:42:35.000Z</time>
      </trkpt>
      <trkpt lat="42.70491" lon="1.36523">
        <ele>2103.6000976562</ele>
        <time>2023-07-24T08:42:43.000Z</time>
      </trkpt>
      <trkpt lat="42.7049" lon="1.36521">
        <ele>2103.6000976562</ele>
        <time>2023-07-24T08:42:44.000Z</time>
      </trkpt>
      <trkpt lat="42.70488" lon="1.36515">
        <ele>2102.6000976562</ele>
        <time>2023-07-24T08:42:49.000Z</time>
      </trkpt>
      <trkpt lat="42.70485" lon="1.3651">
        <ele>2102.3999023438</ele>
        <time>2023-07-24T08:42:56.000Z</time>
      </trkpt>
      <trkpt lat="42.7048" lon="1.36505">
        <ele>2104</ele>
        <time>2023-07-24T08:43:03.000Z</time>
      </trkpt>
      <trkpt lat="42.70478" lon="1.36504">
        <ele>2104.3999023438</ele>
        <time>2023-07-24T08:43:05.000Z</time>
      </trkpt>
      <trkpt lat="42.70476" lon="1.365">
        <ele>2104.3999023438</ele>
        <time>2023-07-24T08:43:12.000Z</time>
      </trkpt>
      <trkpt lat="42.70475" lon="1.36498">
        <ele>2104.3999023438</ele>
        <time>2023-07-24T08:43:18.000Z</time>
      </trkpt>
      <trkpt lat="42.70475" lon="1.36495">
        <ele>2105.3999023438</ele>
        <time>2023-07-24T08:43:23.000Z</time>
      </trkpt>
      <trkpt lat="42.70474" lon="1.36493">
        <ele>2105.6000976562</ele>
        <time>2023-07-24T08:43:26.000Z</time>
      </trkpt>
      <trkpt lat="42.70475" lon="1.36488">
        <ele>2106.3999023438</ele>
        <time>2023-07-24T08:43:32.000Z</time>
      </trkpt>
      <trkpt lat="42.70475" lon="1.36485">
        <ele>2107.3999023438</ele>
        <time>2023-07-24T08:43:35.000Z</time>
      </trkpt>
      <trkpt lat="42.70475" lon="1.36483">
        <ele>2107.6000976562</ele>
        <time>2023-07-24T08:43:36.000Z</time>
      </trkpt>
      <trkpt lat="42.70473" lon="1.36476">
        <ele>2108.3999023438</ele>
        <time>2023-07-24T08:43:41.000Z</time>
      </trkpt>
      <trkpt lat="42.70473" lon="1.36473">
        <ele>2109.6000976562</ele>
        <time>2023-07-24T08:43:44.000Z</time>
      </trkpt>
      <trkpt lat="42.70473" lon="1.36468">
        <ele>2110.3999023438</ele>
        <time>2023-07-24T08:43:50.000Z</time>
      </trkpt>
      <trkpt lat="42.70473" lon="1.36464">
        <ele>2109.3999023438</ele>
        <time>2023-07-24T08:43:59.000Z</time>
      </trkpt>
      <trkpt lat="42.70474" lon="1.36462">
        <ele>2108.3999023438</ele>
        <time>2023-07-24T08:44:01.000Z</time>
      </trkpt>
      <trkpt lat="42.70475" lon="1.36461">
        <ele>2106.8000488281</ele>
        <time>2023-07-24T08:44:03.000Z</time>
      </trkpt>
      <trkpt lat="42.70475" lon="1.36459">
        <ele>2105.6000976562</ele>
        <time>2023-07-24T08:44:05.000Z</time>
      </trkpt>
      <trkpt lat="42.70475" lon="1.36458">
        <ele>2105.3999023438</ele>
        <time>2023-07-24T08:44:07.000Z</time>
      </trkpt>
      <trkpt lat="42.70475" lon="1.36454">
        <ele>2104.6000976562</ele>
        <time>2023-07-24T08:44:12.000Z</time>
      </trkpt>
      <trkpt lat="42.70477" lon="1.3645">
        <ele>2103.3999023438</ele>
        <time>2023-07-24T08:44:16.000Z</time>
      </trkpt>
      <trkpt lat="42.70478" lon="1.36449">
        <ele>2103.1999511719</ele>
        <time>2023-07-24T08:44:17.000Z</time>
      </trkpt>
      <trkpt lat="42.70478" lon="1.36447">
        <ele>2102.3999023438</ele>
        <time>2023-07-24T08:44:19.000Z</time>
      </trkpt>
      <trkpt lat="42.70476" lon="1.36442">
        <ele>2101.1999511719</ele>
        <time>2023-07-24T08:44:24.000Z</time>
      </trkpt>
      <trkpt lat="42.70476" lon="1.36441">
        <ele>2101</ele>
        <time>2023-07-24T08:44:25.000Z</time>
      </trkpt>
      <trkpt lat="42.70472" lon="1.36433">
        <ele>2100.1999511719</ele>
        <time>2023-07-24T08:44:32.000Z</time>
      </trkpt>
      <trkpt lat="42.7047" lon="1.36426">
        <ele>2099.6000976562</ele>
        <time>2023-07-24T08:44:38.000Z</time>
      </trkpt>
      <trkpt lat="42.70468" lon="1.36414">
        <ele>2099.1999511719</ele>
        <time>2023-07-24T08:44:46.000Z</time>
      </trkpt>
      <trkpt lat="42.7047" lon="1.36407">
        <ele>2099.3999023438</ele>
        <time>2023-07-24T08:44:52.000Z</time>
      </trkpt>
      <trkpt lat="42.7047" lon="1.36402">
        <ele>2099.6000976562</ele>
        <time>2023-07-24T08:44:59.000Z</time>
      </trkpt>
      <trkpt lat="42.7047" lon="1.36392">
        <ele>2100.1999511719</ele>
        <time>2023-07-24T08:45:09.000Z</time>
      </trkpt>
      <trkpt lat="42.70467" lon="1.36389">
        <ele>2101.6000976562</ele>
        <time>2023-07-24T08:45:16.000Z</time>
      </trkpt>
      <trkpt lat="42.70465" lon="1.36387">
        <ele>2102.6000976562</ele>
        <time>2023-07-24T08:45:22.000Z</time>
      </trkpt>
      <trkpt lat="42.70464" lon="1.36385">
        <ele>2102.8000488281</ele>
        <time>2023-07-24T08:45:24.000Z</time>
      </trkpt>
      <trkpt lat="42.70463" lon="1.36379">
        <ele>2103.6000976562</ele>
        <time>2023-07-24T08:45:31.000Z</time>
      </trkpt>
      <trkpt lat="42.70463" lon="1.36377">
        <ele>2104.1999511719</ele>
        <time>2023-07-24T08:45:33.000Z</time>
      </trkpt>
      <trkpt lat="42.70463" lon="1.36376">
        <ele>2104.8000488281</ele>
        <time>2023-07-24T08:45:37.000Z</time>
      </trkpt>
      <trkpt lat="42.70464" lon="1.36373">
        <ele>2105.6000976562</ele>
        <time>2023-07-24T08:45:42.000Z</time>
      </trkpt>
      <trkpt lat="42.70464" lon="1.36372">
        <ele>2106</ele>
        <time>2023-07-24T08:45:43.000Z</time>
      </trkpt>
      <trkpt lat="42.70461" lon="1.36368">
        <ele>2106.6000976562</ele>
        <time>2023-07-24T08:45:51.000Z</time>
      </trkpt>
      <trkpt lat="42.70459" lon="1.36367">
        <ele>2106.6000976562</ele>
        <time>2023-07-24T08:45:54.000Z</time>
      </trkpt>
      <trkpt lat="42.70456" lon="1.36363">
        <ele>2107</ele>
        <time>2023-07-24T08:45:58.000Z</time>
      </trkpt>
      <trkpt lat="42.70455" lon="1.36363">
        <ele>2108.1999511719</ele>
        <time>2023-07-24T08:46:03.000Z</time>
      </trkpt>
      <trkpt lat="42.70454" lon="1.3636">
        <ele>2108.8000488281</ele>
        <time>2023-07-24T08:46:07.000Z</time>
      </trkpt>
      <trkpt lat="42.70453" lon="1.36356">
        <ele>2109.1999511719</ele>
        <time>2023-07-24T08:46:14.000Z</time>
      </trkpt>
      <trkpt lat="42.70452" lon="1.36355">
        <ele>2109.6000976562</ele>
        <time>2023-07-24T08:46:15.000Z</time>
      </trkpt>
      <trkpt lat="42.70452" lon="1.36352">
        <ele>2110.3999023438</ele>
        <time>2023-07-24T08:46:21.000Z</time>
      </trkpt>
      <trkpt lat="42.70451" lon="1.36351">
        <ele>2110.6000976562</ele>
        <time>2023-07-24T08:46:22.000Z</time>
      </trkpt>
      <trkpt lat="42.70451" lon="1.36345">
        <ele>2111</ele>
        <time>2023-07-24T08:46:30.000Z</time>
      </trkpt>
      <trkpt lat="42.70451" lon="1.36344">
        <ele>2110.8000488281</ele>
        <time>2023-07-24T08:46:37.000Z</time>
      </trkpt>
      <trkpt lat="42.70451" lon="1.36335">
        <ele>2111.6000976562</ele>
        <time>2023-07-24T08:46:47.000Z</time>
      </trkpt>
      <trkpt lat="42.7045" lon="1.36334">
        <ele>2111.8000488281</ele>
        <time>2023-07-24T08:46:48.000Z</time>
      </trkpt>
      <trkpt lat="42.70449" lon="1.3633">
        <ele>2112.6000976562</ele>
        <time>2023-07-24T08:46:54.000Z</time>
      </trkpt>
      <trkpt lat="42.70449" lon="1.3633">
        <ele>2113</ele>
        <time>2023-07-24T08:46:56.000Z</time>
      </trkpt>
      <trkpt lat="42.70447" lon="1.36326">
        <ele>2113.6000976562</ele>
        <time>2023-07-24T08:47:02.000Z</time>
      </trkpt>
      <trkpt lat="42.70446" lon="1.36324">
        <ele>2114</ele>
        <time>2023-07-24T08:47:04.000Z</time>
      </trkpt>
      <trkpt lat="42.70443" lon="1.3632">
        <ele>2114</ele>
        <time>2023-07-24T08:47:12.000Z</time>
      </trkpt>
      <trkpt lat="42.70444" lon="1.36318">
        <ele>2114.6000976562</ele>
        <time>2023-07-24T08:47:17.000Z</time>
      </trkpt>
      <trkpt lat="42.70443" lon="1.36316">
        <ele>2114.8000488281</ele>
        <time>2023-07-24T08:47:20.000Z</time>
      </trkpt>
      <trkpt lat="42.70441" lon="1.36309">
        <ele>2115.8000488281</ele>
        <time>2023-07-24T08:47:28.000Z</time>
      </trkpt>
      <trkpt lat="42.70441" lon="1.36308">
        <ele>2116</ele>
        <time>2023-07-24T08:47:29.000Z</time>
      </trkpt>
      <trkpt lat="42.70443" lon="1.36302">
        <ele>2115.8000488281</ele>
        <time>2023-07-24T08:47:37.000Z</time>
      </trkpt>
      <trkpt lat="42.70442" lon="1.36297">
        <ele>2115.6000976562</ele>
        <time>2023-07-24T08:47:44.000Z</time>
      </trkpt>
      <trkpt lat="42.70444" lon="1.3629">
        <ele>2115.6000976562</ele>
        <time>2023-07-24T08:47:51.000Z</time>
      </trkpt>
      <trkpt lat="42.70447" lon="1.36282">
        <ele>2116.1999511719</ele>
        <time>2023-07-24T08:47:59.000Z</time>
      </trkpt>
      <trkpt lat="42.70448" lon="1.36274">
        <ele>2116.3999023438</ele>
        <time>2023-07-24T08:48:07.000Z</time>
      </trkpt>
      <trkpt lat="42.70446" lon="1.36271">
        <ele>2116.8000488281</ele>
        <time>2023-07-24T08:48:13.000Z</time>
      </trkpt>
      <trkpt lat="42.70446" lon="1.36271">
        <ele>2117.3999023438</ele>
        <time>2023-07-24T08:48:16.000Z</time>
      </trkpt>
      <trkpt lat="42.70449" lon="1.36273">
        <ele>2117.8000488281</ele>
        <time>2023-07-24T08:48:24.000Z</time>
      </trkpt>
      <trkpt lat="42.70449" lon="1.36274">
        <ele>2118</ele>
        <time>2023-07-24T08:48:26.000Z</time>
      </trkpt>
      <trkpt lat="42.70446" lon="1.36273">
        <ele>2117.8000488281</ele>
        <time>2023-07-24T08:48:34.000Z</time>
      </trkpt>
      <trkpt lat="42.70445" lon="1.36272">
        <ele>2118</ele>
        <time>2023-07-24T08:48:40.000Z</time>
      </trkpt>
      <trkpt lat="42.70445" lon="1.36273">
        <ele>2118</ele>
        <time>2023-07-24T08:48:49.000Z</time>
      </trkpt>
      <trkpt lat="42.70444" lon="1.36268">
        <ele>2118</ele>
        <time>2023-07-24T08:48:55.000Z</time>
      </trkpt>
      <trkpt lat="42.70442" lon="1.36262">
        <ele>2119</ele>
        <time>2023-07-24T08:49:03.000Z</time>
      </trkpt>
      <trkpt lat="42.70438" lon="1.36259">
        <ele>2119.8000488281</ele>
        <time>2023-07-24T08:49:10.000Z</time>
      </trkpt>
      <trkpt lat="42.70437" lon="1.36257">
        <ele>2120.1999511719</ele>
        <time>2023-07-24T08:49:13.000Z</time>
      </trkpt>
      <trkpt lat="42.70437" lon="1.36252">
        <ele>2121</ele>
        <time>2023-07-24T08:49:20.000Z</time>
      </trkpt>
      <trkpt lat="42.70437" lon="1.3625">
        <ele>2121.1999511719</ele>
        <time>2023-07-24T08:49:22.000Z</time>
      </trkpt>
      <trkpt lat="42.70437" lon="1.36244">
        <ele>2121.6000976562</ele>
        <time>2023-07-24T08:49:27.000Z</time>
      </trkpt>
      <trkpt lat="42.70436" lon="1.36241">
        <ele>2122.3999023438</ele>
        <time>2023-07-24T08:49:31.000Z</time>
      </trkpt>
      <trkpt lat="42.70434" lon="1.36239">
        <ele>2123</ele>
        <time>2023-07-24T08:49:36.000Z</time>
      </trkpt>
      <trkpt lat="42.70433" lon="1.36238">
        <ele>2123.3999023438</ele>
        <time>2023-07-24T08:49:38.000Z</time>
      </trkpt>
      <trkpt lat="42.70433" lon="1.36233">
        <ele>2124.6000976562</ele>
        <time>2023-07-24T08:49:45.000Z</time>
      </trkpt>
      <trkpt lat="42.70432" lon="1.36232">
        <ele>2124.8000488281</ele>
        <time>2023-07-24T08:49:46.000Z</time>
      </trkpt>
      <trkpt lat="42.70433" lon="1.3623">
        <ele>2125.6000976562</ele>
        <time>2023-07-24T08:49:49.000Z</time>
      </trkpt>
      <trkpt lat="42.70432" lon="1.36227">
        <ele>2126.8000488281</ele>
        <time>2023-07-24T08:49:54.000Z</time>
      </trkpt>
      <trkpt lat="42.70432" lon="1.36227">
        <ele>2127</ele>
        <time>2023-07-24T08:49:55.000Z</time>
      </trkpt>
      <trkpt lat="42.70431" lon="1.36224">
        <ele>2127.8000488281</ele>
        <time>2023-07-24T08:49:58.000Z</time>
      </trkpt>
      <trkpt lat="42.70429" lon="1.36221">
        <ele>2128</ele>
        <time>2023-07-24T08:50:04.000Z</time>
      </trkpt>
      <trkpt lat="42.70426" lon="1.36218">
        <ele>2128.8000488281</ele>
        <time>2023-07-24T08:50:12.000Z</time>
      </trkpt>
      <trkpt lat="42.70426" lon="1.36218">
        <ele>2128.8000488281</ele>
        <time>2023-07-24T08:50:13.000Z</time>
      </trkpt>
      <trkpt lat="42.70426" lon="1.36211">
        <ele>2129.6000976562</ele>
        <time>2023-07-24T08:50:21.000Z</time>
      </trkpt>
      <trkpt lat="42.70426" lon="1.36209">
        <ele>2129.8000488281</ele>
        <time>2023-07-24T08:50:24.000Z</time>
      </trkpt>
      <trkpt lat="42.70425" lon="1.36207">
        <ele>2130.8000488281</ele>
        <time>2023-07-24T08:50:30.000Z</time>
      </trkpt>
      <trkpt lat="42.70424" lon="1.36207">
        <ele>2130.8000488281</ele>
        <time>2023-07-24T08:50:31.000Z</time>
      </trkpt>
      <trkpt lat="42.70425" lon="1.36209">
        <ele>2131.1999511719</ele>
        <time>2023-07-24T08:50:38.000Z</time>
      </trkpt>
      <trkpt lat="42.70425" lon="1.36208">
        <ele>2131.1999511719</ele>
        <time>2023-07-24T08:50:46.000Z</time>
      </trkpt>
      <trkpt lat="42.70422" lon="1.36209">
        <ele>2131.1999511719</ele>
        <time>2023-07-24T08:50:58.000Z</time>
      </trkpt>
      <trkpt lat="42.70423" lon="1.36205">
        <ele>2132</ele>
        <time>2023-07-24T08:51:05.000Z</time>
      </trkpt>
      <trkpt lat="42.70423" lon="1.36204">
        <ele>2132.1999511719</ele>
        <time>2023-07-24T08:51:07.000Z</time>
      </trkpt>
      <trkpt lat="42.70424" lon="1.36204">
        <ele>2132.3999023438</ele>
        <time>2023-07-24T08:51:14.000Z</time>
      </trkpt>
      <trkpt lat="42.70423" lon="1.36201">
        <ele>2132.8000488281</ele>
        <time>2023-07-24T08:51:23.000Z</time>
      </trkpt>
      <trkpt lat="42.70427" lon="1.362">
        <ele>2133</ele>
        <time>2023-07-24T08:51:30.000Z</time>
      </trkpt>
      <trkpt lat="42.70428" lon="1.36201">
        <ele>2133</ele>
        <time>2023-07-24T08:51:31.000Z</time>
      </trkpt>
      <trkpt lat="42.70432" lon="1.36203">
        <ele>2131.6000976562</ele>
        <time>2023-07-24T08:51:38.000Z</time>
      </trkpt>
      <trkpt lat="42.70433" lon="1.36204">
        <ele>2131.6000976562</ele>
        <time>2023-07-24T08:51:40.000Z</time>
      </trkpt>
      <trkpt lat="42.70436" lon="1.36204">
        <ele>2132</ele>
        <time>2023-07-24T08:51:45.000Z</time>
      </trkpt>
      <trkpt lat="42.70427" lon="1.36198">
        <ele>2132.6000976562</ele>
        <time>2023-07-24T08:51:54.000Z</time>
      </trkpt>
      <trkpt lat="42.70422" lon="1.36201">
        <ele>2132.6000976562</ele>
        <time>2023-07-24T08:52:01.000Z</time>
      </trkpt>
      <trkpt lat="42.70423" lon="1.36203">
        <ele>2132.8000488281</ele>
        <time>2023-07-24T08:52:04.000Z</time>
      </trkpt>
      <trkpt lat="42.70425" lon="1.36207">
        <ele>2133.1999511719</ele>
        <time>2023-07-24T08:52:09.000Z</time>
      </trkpt>
      <trkpt lat="42.70422" lon="1.36206">
        <ele>2132.3999023438</ele>
        <time>2023-07-24T08:52:17.000Z</time>
      </trkpt>
      <trkpt lat="42.70423" lon="1.36203">
        <ele>2132.6000976562</ele>
        <time>2023-07-24T08:52:25.000Z</time>
      </trkpt>
      <trkpt lat="42.70428" lon="1.36202">
        <ele>2131.6000976562</ele>
        <time>2023-07-24T08:52:37.000Z</time>
      </trkpt>
      <trkpt lat="42.70429" lon="1.36204">
        <ele>2131.6000976562</ele>
        <time>2023-07-24T08:52:46.000Z</time>
      </trkpt>
      <trkpt lat="42.70429" lon="1.36203">
        <ele>2131.6000976562</ele>
        <time>2023-07-24T08:52:54.000Z</time>
      </trkpt>
      <trkpt lat="42.70425" lon="1.36199">
        <ele>2132.3999023438</ele>
        <time>2023-07-24T08:53:03.000Z</time>
      </trkpt>
      <trkpt lat="42.70424" lon="1.36197">
        <ele>2132.8000488281</ele>
        <time>2023-07-24T08:53:07.000Z</time>
      </trkpt>
      <trkpt lat="42.70422" lon="1.36192">
        <ele>2133.8000488281</ele>
        <time>2023-07-24T08:53:13.000Z</time>
      </trkpt>
      <trkpt lat="42.70421" lon="1.3619">
        <ele>2134.8000488281</ele>
        <time>2023-07-24T08:53:17.000Z</time>
      </trkpt>
      <trkpt lat="42.7042" lon="1.36189">
        <ele>2135.8000488281</ele>
        <time>2023-07-24T08:53:20.000Z</time>
      </trkpt>
      <trkpt lat="42.7042" lon="1.36189">
        <ele>2136.1999511719</ele>
        <time>2023-07-24T08:53:21.000Z</time>
      </trkpt>
      <trkpt lat="42.70421" lon="1.36186">
        <ele>2137.1999511719</ele>
        <time>2023-07-24T08:53:29.000Z</time>
      </trkpt>
      <trkpt lat="42.7042" lon="1.36182">
        <ele>2138.3999023438</ele>
        <time>2023-07-24T08:53:33.000Z</time>
      </trkpt>
      <trkpt lat="42.70419" lon="1.36181">
        <ele>2139.6000976562</ele>
        <time>2023-07-24T08:53:38.000Z</time>
      </trkpt>
      <trkpt lat="42.70419" lon="1.36175">
        <ele>2140.1999511719</ele>
        <time>2023-07-24T08:53:47.000Z</time>
      </trkpt>
      <trkpt lat="42.70419" lon="1.36172">
        <ele>2140.6000976562</ele>
        <time>2023-07-24T08:53:51.000Z</time>
      </trkpt>
      <trkpt lat="42.70416" lon="1.36173">
        <ele>2141.1999511719</ele>
        <time>2023-07-24T08:53:55.000Z</time>
      </trkpt>
      <trkpt lat="42.70413" lon="1.36173">
        <ele>2141.8000488281</ele>
        <time>2023-07-24T08:53:58.000Z</time>
      </trkpt>
      <trkpt lat="42.70412" lon="1.36173">
        <ele>2142.6000976562</ele>
        <time>2023-07-24T08:54:03.000Z</time>
      </trkpt>
      <trkpt lat="42.70412" lon="1.36172">
        <ele>2143</ele>
        <time>2023-07-24T08:54:06.000Z</time>
      </trkpt>
      <trkpt lat="42.70411" lon="1.36173">
        <ele>2143.1999511719</ele>
        <time>2023-07-24T08:54:09.000Z</time>
      </trkpt>
      <trkpt lat="42.70409" lon="1.36173">
        <ele>2144.1999511719</ele>
        <time>2023-07-24T08:54:13.000Z</time>
      </trkpt>
      <trkpt lat="42.70409" lon="1.36171">
        <ele>2144.6000976562</ele>
        <time>2023-07-24T08:54:16.000Z</time>
      </trkpt>
      <trkpt lat="42.70409" lon="1.3617">
        <ele>2145.8000488281</ele>
        <time>2023-07-24T08:54:19.000Z</time>
      </trkpt>
      <trkpt lat="42.70409" lon="1.36167">
        <ele>2146.3999023438</ele>
        <time>2023-07-24T08:54:24.000Z</time>
      </trkpt>
      <trkpt lat="42.70411" lon="1.36162">
        <ele>2146.8000488281</ele>
        <time>2023-07-24T08:54:30.000Z</time>
      </trkpt>
      <trkpt lat="42.70413" lon="1.3616">
        <ele>2147.8000488281</ele>
        <time>2023-07-24T08:54:34.000Z</time>
      </trkpt>
      <trkpt lat="42.70414" lon="1.3616">
        <ele>2148</ele>
        <time>2023-07-24T08:54:35.000Z</time>
      </trkpt>
      <trkpt lat="42.70415" lon="1.36152">
        <ele>2149.3999023438</ele>
        <time>2023-07-24T08:54:44.000Z</time>
      </trkpt>
      <trkpt lat="42.70413" lon="1.36151">
        <ele>2150.3999023438</ele>
        <time>2023-07-24T08:54:50.000Z</time>
      </trkpt>
      <trkpt lat="42.70414" lon="1.3615">
        <ele>2150.3999023438</ele>
        <time>2023-07-24T08:54:52.000Z</time>
      </trkpt>
      <trkpt lat="42.70415" lon="1.36146">
        <ele>2151.3999023438</ele>
        <time>2023-07-24T08:54:59.000Z</time>
      </trkpt>
      <trkpt lat="42.70416" lon="1.36145">
        <ele>2151.8000488281</ele>
        <time>2023-07-24T08:55:00.000Z</time>
      </trkpt>
      <trkpt lat="42.70417" lon="1.36141">
        <ele>2152.6000976562</ele>
        <time>2023-07-24T08:55:06.000Z</time>
      </trkpt>
      <trkpt lat="42.70417" lon="1.3614">
        <ele>2152.8000488281</ele>
        <time>2023-07-24T08:55:07.000Z</time>
      </trkpt>
      <trkpt lat="42.70416" lon="1.36139">
        <ele>2152.8000488281</ele>
        <time>2023-07-24T08:55:11.000Z</time>
      </trkpt>
      <trkpt lat="42.70417" lon="1.36136">
        <ele>2154</ele>
        <time>2023-07-24T08:55:15.000Z</time>
      </trkpt>
      <trkpt lat="42.70417" lon="1.36136">
        <ele>2154</ele>
        <time>2023-07-24T08:55:16.000Z</time>
      </trkpt>
      <trkpt lat="42.70418" lon="1.36132">
        <ele>2155.1999511719</ele>
        <time>2023-07-24T08:55:21.000Z</time>
      </trkpt>
      <trkpt lat="42.70418" lon="1.36131">
        <ele>2155.3999023438</ele>
        <time>2023-07-24T08:55:22.000Z</time>
      </trkpt>
      <trkpt lat="42.70416" lon="1.36126">
        <ele>2155.8000488281</ele>
        <time>2023-07-24T08:55:29.000Z</time>
      </trkpt>
      <trkpt lat="42.70415" lon="1.36125">
        <ele>2156.1999511719</ele>
        <time>2023-07-24T08:55:33.000Z</time>
      </trkpt>
      <trkpt lat="42.70414" lon="1.36124">
        <ele>2156.6000976562</ele>
        <time>2023-07-24T08:55:37.000Z</time>
      </trkpt>
      <trkpt lat="42.70413" lon="1.36124">
        <ele>2157.3999023438</ele>
        <time>2023-07-24T08:55:40.000Z</time>
      </trkpt>
      <trkpt lat="42.7041" lon="1.36122">
        <ele>2158.3999023438</ele>
        <time>2023-07-24T08:55:45.000Z</time>
      </trkpt>
      <trkpt lat="42.70409" lon="1.36123">
        <ele>2158.6000976562</ele>
        <time>2023-07-24T08:55:46.000Z</time>
      </trkpt>
      <trkpt lat="42.70408" lon="1.36122">
        <ele>2159.3999023438</ele>
        <time>2023-07-24T08:55:51.000Z</time>
      </trkpt>
      <trkpt lat="42.70408" lon="1.36122">
        <ele>2160</ele>
        <time>2023-07-24T08:55:53.000Z</time>
      </trkpt>
      <trkpt lat="42.70407" lon="1.3612">
        <ele>2160.6000976562</ele>
        <time>2023-07-24T08:55:57.000Z</time>
      </trkpt>
      <trkpt lat="42.70408" lon="1.36119">
        <ele>2161.1999511719</ele>
        <time>2023-07-24T08:56:01.000Z</time>
      </trkpt>
      <trkpt lat="42.70408" lon="1.36117">
        <ele>2161.8000488281</ele>
        <time>2023-07-24T08:56:04.000Z</time>
      </trkpt>
      <trkpt lat="42.70408" lon="1.36114">
        <ele>2162.6000976562</ele>
        <time>2023-07-24T08:56:10.000Z</time>
      </trkpt>
      <trkpt lat="42.70408" lon="1.36112">
        <ele>2162.8000488281</ele>
        <time>2023-07-24T08:56:12.000Z</time>
      </trkpt>
      <trkpt lat="42.70407" lon="1.3611">
        <ele>2163.3999023438</ele>
        <time>2023-07-24T08:56:16.000Z</time>
      </trkpt>
      <trkpt lat="42.70407" lon="1.3611">
        <ele>2163.8000488281</ele>
        <time>2023-07-24T08:56:18.000Z</time>
      </trkpt>
      <trkpt lat="42.70405" lon="1.36109">
        <ele>2164.3999023438</ele>
        <time>2023-07-24T08:56:22.000Z</time>
      </trkpt>
      <trkpt lat="42.70405" lon="1.36105">
        <ele>2166.1999511719</ele>
        <time>2023-07-24T08:56:35.000Z</time>
      </trkpt>
      <trkpt lat="42.70405" lon="1.36105">
        <ele>2166.3999023438</ele>
        <time>2023-07-24T08:56:36.000Z</time>
      </trkpt>
      <trkpt lat="42.70405" lon="1.36102">
        <ele>2167.1999511719</ele>
        <time>2023-07-24T08:56:44.000Z</time>
      </trkpt>
      <trkpt lat="42.70403" lon="1.36101">
        <ele>2168.3999023438</ele>
        <time>2023-07-24T08:56:48.000Z</time>
      </trkpt>
      <trkpt lat="42.70406" lon="1.36099">
        <ele>2170.6000976562</ele>
        <time>2023-07-24T08:57:03.000Z</time>
      </trkpt>
      <trkpt lat="42.70406" lon="1.36099">
        <ele>2170.6000976562</ele>
        <time>2023-07-24T08:57:04.000Z</time>
      </trkpt>
      <trkpt lat="42.70408" lon="1.36086">
        <ele>2176.3999023438</ele>
        <time>2023-07-24T08:57:43.000Z</time>
      </trkpt>
      <trkpt lat="42.70408" lon="1.36085">
        <ele>2176.6000976562</ele>
        <time>2023-07-24T08:57:45.000Z</time>
      </trkpt>
      <trkpt lat="42.70407" lon="1.36081">
        <ele>2177.6000976562</ele>
        <time>2023-07-24T08:57:51.000Z</time>
      </trkpt>
      <trkpt lat="42.70406" lon="1.3608">
        <ele>2178.6000976562</ele>
        <time>2023-07-24T08:57:56.000Z</time>
      </trkpt>
      <trkpt lat="42.70406" lon="1.36081">
        <ele>2178.6000976562</ele>
        <time>2023-07-24T08:57:57.000Z</time>
      </trkpt>
      <trkpt lat="42.70407" lon="1.3608">
        <ele>2179.1999511719</ele>
        <time>2023-07-24T08:58:05.000Z</time>
      </trkpt>
      <trkpt lat="42.70407" lon="1.36081">
        <ele>2180</ele>
        <time>2023-07-24T08:58:14.000Z</time>
      </trkpt>
      <trkpt lat="42.70407" lon="1.36077">
        <ele>2181.1999511719</ele>
        <time>2023-07-24T08:58:21.000Z</time>
      </trkpt>
      <trkpt lat="42.70407" lon="1.36074">
        <ele>2181.8000488281</ele>
        <time>2023-07-24T08:58:25.000Z</time>
      </trkpt>
      <trkpt lat="42.70407" lon="1.36073">
        <ele>2182.1999511719</ele>
        <time>2023-07-24T08:58:28.000Z</time>
      </trkpt>
      <trkpt lat="42.70406" lon="1.36071">
        <ele>2182.8000488281</ele>
        <time>2023-07-24T08:58:33.000Z</time>
      </trkpt>
      <trkpt lat="42.70405" lon="1.36069">
        <ele>2183.1999511719</ele>
        <time>2023-07-24T08:58:36.000Z</time>
      </trkpt>
      <trkpt lat="42.70403" lon="1.36068">
        <ele>2183.6000976562</ele>
        <time>2023-07-24T08:58:40.000Z</time>
      </trkpt>
      <trkpt lat="42.70401" lon="1.36068">
        <ele>2184.3999023438</ele>
        <time>2023-07-24T08:58:43.000Z</time>
      </trkpt>
      <trkpt lat="42.70395" lon="1.36064">
        <ele>2186.1999511719</ele>
        <time>2023-07-24T08:58:51.000Z</time>
      </trkpt>
      <trkpt lat="42.70394" lon="1.36058">
        <ele>2187.6000976562</ele>
        <time>2023-07-24T08:59:01.000Z</time>
      </trkpt>
      <trkpt lat="42.70392" lon="1.36057">
        <ele>2188.8000488281</ele>
        <time>2023-07-24T08:59:05.000Z</time>
      </trkpt>
      <trkpt lat="42.70392" lon="1.36057">
        <ele>2189.6000976562</ele>
        <time>2023-07-24T08:59:08.000Z</time>
      </trkpt>
      <trkpt lat="42.70392" lon="1.3605">
        <ele>2190.1999511719</ele>
        <time>2023-07-24T08:59:14.000Z</time>
      </trkpt>
      <trkpt lat="42.70392" lon="1.3605">
        <ele>2190.3999023438</ele>
        <time>2023-07-24T08:59:16.000Z</time>
      </trkpt>
      <trkpt lat="42.70391" lon="1.36049">
        <ele>2191.1999511719</ele>
        <time>2023-07-24T08:59:22.000Z</time>
      </trkpt>
      <trkpt lat="42.70388" lon="1.36047">
        <ele>2192.3999023438</ele>
        <time>2023-07-24T08:59:29.000Z</time>
      </trkpt>
      <trkpt lat="42.70387" lon="1.36045">
        <ele>2192.8000488281</ele>
        <time>2023-07-24T08:59:32.000Z</time>
      </trkpt>
      <trkpt lat="42.70386" lon="1.36043">
        <ele>2193.3999023438</ele>
        <time>2023-07-24T08:59:35.000Z</time>
      </trkpt>
      <trkpt lat="42.70387" lon="1.36036">
        <ele>2193.8000488281</ele>
        <time>2023-07-24T08:59:40.000Z</time>
      </trkpt>
      <trkpt lat="42.70387" lon="1.36033">
        <ele>2194.3999023438</ele>
        <time>2023-07-24T08:59:46.000Z</time>
      </trkpt>
      <trkpt lat="42.70387" lon="1.36034">
        <ele>2194.6000976562</ele>
        <time>2023-07-24T08:59:47.000Z</time>
      </trkpt>
      <trkpt lat="42.70385" lon="1.36032">
        <ele>2195.1999511719</ele>
        <time>2023-07-24T08:59:52.000Z</time>
      </trkpt>
      <trkpt lat="42.70384" lon="1.36031">
        <ele>2195.6000976562</ele>
        <time>2023-07-24T08:59:55.000Z</time>
      </trkpt>
      <trkpt lat="42.70383" lon="1.36029">
        <ele>2196</ele>
        <time>2023-07-24T08:59:59.000Z</time>
      </trkpt>
      <trkpt lat="42.70384" lon="1.36025">
        <ele>2196.8000488281</ele>
        <time>2023-07-24T09:00:04.000Z</time>
      </trkpt>
      <trkpt lat="42.70383" lon="1.36021">
        <ele>2197.3999023438</ele>
        <time>2023-07-24T09:00:08.000Z</time>
      </trkpt>
      <trkpt lat="42.70381" lon="1.36019">
        <ele>2198</ele>
        <time>2023-07-24T09:00:10.000Z</time>
      </trkpt>
      <trkpt lat="42.70382" lon="1.36019">
        <ele>2198.6000976562</ele>
        <time>2023-07-24T09:00:15.000Z</time>
      </trkpt>
      <trkpt lat="42.70382" lon="1.3602">
        <ele>2198.8000488281</ele>
        <time>2023-07-24T09:00:16.000Z</time>
      </trkpt>
      <trkpt lat="42.70381" lon="1.36017">
        <ele>2199</ele>
        <time>2023-07-24T09:00:21.000Z</time>
      </trkpt>
      <trkpt lat="42.7038" lon="1.36018">
        <ele>2199</ele>
        <time>2023-07-24T09:00:23.000Z</time>
      </trkpt>
      <trkpt lat="42.70378" lon="1.36016">
        <ele>2199.1999511719</ele>
        <time>2023-07-24T09:00:30.000Z</time>
      </trkpt>
      <trkpt lat="42.70377" lon="1.3601">
        <ele>2199.6000976562</ele>
        <time>2023-07-24T09:00:38.000Z</time>
      </trkpt>
      <trkpt lat="42.7038" lon="1.36005">
        <ele>2199.3999023438</ele>
        <time>2023-07-24T09:00:49.000Z</time>
      </trkpt>
      <trkpt lat="42.70376" lon="1.36">
        <ele>2199.6000976562</ele>
        <time>2023-07-24T09:00:56.000Z</time>
      </trkpt>
      <trkpt lat="42.70377" lon="1.35997">
        <ele>2200</ele>
        <time>2023-07-24T09:01:03.000Z</time>
      </trkpt>
      <trkpt lat="42.70377" lon="1.35996">
        <ele>2200</ele>
        <time>2023-07-24T09:01:04.000Z</time>
      </trkpt>
      <trkpt lat="42.70376" lon="1.3599">
        <ele>2200.6000976562</ele>
        <time>2023-07-24T09:01:11.000Z</time>
      </trkpt>
      <trkpt lat="42.70376" lon="1.35988">
        <ele>2201.1999511719</ele>
        <time>2023-07-24T09:01:14.000Z</time>
      </trkpt>
      <trkpt lat="42.70377" lon="1.35986">
        <ele>2201.6000976562</ele>
        <time>2023-07-24T09:01:17.000Z</time>
      </trkpt>
      <trkpt lat="42.70376" lon="1.35985">
        <ele>2202.1999511719</ele>
        <time>2023-07-24T09:01:20.000Z</time>
      </trkpt>
      <trkpt lat="42.70376" lon="1.35984">
        <ele>2202.8000488281</ele>
        <time>2023-07-24T09:01:24.000Z</time>
      </trkpt>
      <trkpt lat="42.70375" lon="1.35981">
        <ele>2203.1999511719</ele>
        <time>2023-07-24T09:01:28.000Z</time>
      </trkpt>
      <trkpt lat="42.70372" lon="1.35976">
        <ele>2204.1999511719</ele>
        <time>2023-07-24T09:01:34.000Z</time>
      </trkpt>
      <trkpt lat="42.70369" lon="1.35973">
        <ele>2204.3999023438</ele>
        <time>2023-07-24T09:01:37.000Z</time>
      </trkpt>
      <trkpt lat="42.70366" lon="1.35971">
        <ele>2204.6000976562</ele>
        <time>2023-07-24T09:01:43.000Z</time>
      </trkpt>
      <trkpt lat="42.7036" lon="1.35966">
        <ele>2205.3999023438</ele>
        <time>2023-07-24T09:01:51.000Z</time>
      </trkpt>
      <trkpt lat="42.70359" lon="1.35964">
        <ele>2205.6000976562</ele>
        <time>2023-07-24T09:01:53.000Z</time>
      </trkpt>
      <trkpt lat="42.70359" lon="1.35958">
        <ele>2205.8000488281</ele>
        <time>2023-07-24T09:02:00.000Z</time>
      </trkpt>
      <trkpt lat="42.70361" lon="1.35958">
        <ele>2206.1999511719</ele>
        <time>2023-07-24T09:02:07.000Z</time>
      </trkpt>
      <trkpt lat="42.70362" lon="1.35958">
        <ele>2206</ele>
        <time>2023-07-24T09:02:16.000Z</time>
      </trkpt>
      <trkpt lat="42.70364" lon="1.35956">
        <ele>2206.3999023438</ele>
        <time>2023-07-24T09:02:23.000Z</time>
      </trkpt>
      <trkpt lat="42.70364" lon="1.35957">
        <ele>2206.3999023438</ele>
        <time>2023-07-24T09:02:25.000Z</time>
      </trkpt>
      <trkpt lat="42.70363" lon="1.35959">
        <ele>2206.6000976562</ele>
        <time>2023-07-24T09:02:31.000Z</time>
      </trkpt>
      <trkpt lat="42.70363" lon="1.35952">
        <ele>2206.8000488281</ele>
        <time>2023-07-24T09:02:39.000Z</time>
      </trkpt>
      <trkpt lat="42.70363" lon="1.35951">
        <ele>2207.3999023438</ele>
        <time>2023-07-24T09:02:42.000Z</time>
      </trkpt>
      <trkpt lat="42.70362" lon="1.35946">
        <ele>2207.8000488281</ele>
        <time>2023-07-24T09:02:46.000Z</time>
      </trkpt>
      <trkpt lat="42.7036" lon="1.35941">
        <ele>2208.3999023438</ele>
        <time>2023-07-24T09:02:54.000Z</time>
      </trkpt>
      <trkpt lat="42.7036" lon="1.35939">
        <ele>2208.6000976562</ele>
        <time>2023-07-24T09:02:55.000Z</time>
      </trkpt>
      <trkpt lat="42.70358" lon="1.35936">
        <ele>2208.8000488281</ele>
        <time>2023-07-24T09:02:59.000Z</time>
      </trkpt>
      <trkpt lat="42.70355" lon="1.35923">
        <ele>2209</ele>
        <time>2023-07-24T09:03:08.000Z</time>
      </trkpt>
      <trkpt lat="42.70355" lon="1.35917">
        <ele>2209.3999023438</ele>
        <time>2023-07-24T09:03:15.000Z</time>
      </trkpt>
      <trkpt lat="42.70355" lon="1.35914">
        <ele>2209.6000976562</ele>
        <time>2023-07-24T09:03:21.000Z</time>
      </trkpt>
      <trkpt lat="42.70354" lon="1.35916">
        <ele>2210.3999023438</ele>
        <time>2023-07-24T09:03:28.000Z</time>
      </trkpt>
      <trkpt lat="42.70354" lon="1.35916">
        <ele>2210.6000976562</ele>
        <time>2023-07-24T09:03:29.000Z</time>
      </trkpt>
      <trkpt lat="42.70349" lon="1.35912">
        <ele>2211.3999023438</ele>
        <time>2023-07-24T09:03:38.000Z</time>
      </trkpt>
      <trkpt lat="42.70354" lon="1.35907">
        <ele>2211.3999023438</ele>
        <time>2023-07-24T09:03:47.000Z</time>
      </trkpt>
      <trkpt lat="42.70354" lon="1.35906">
        <ele>2211.8000488281</ele>
        <time>2023-07-24T09:03:49.000Z</time>
      </trkpt>
      <trkpt lat="42.70355" lon="1.35903">
        <ele>2212</ele>
        <time>2023-07-24T09:03:54.000Z</time>
      </trkpt>
      <trkpt lat="42.70355" lon="1.35897">
        <ele>2212.6000976562</ele>
        <time>2023-07-24T09:04:01.000Z</time>
      </trkpt>
      <trkpt lat="42.70355" lon="1.35897">
        <ele>2212.8000488281</ele>
        <time>2023-07-24T09:04:02.000Z</time>
      </trkpt>
      <trkpt lat="42.70355" lon="1.35897">
        <ele>2213.3999023438</ele>
        <time>2023-07-24T09:04:09.000Z</time>
      </trkpt>
      <trkpt lat="42.70342" lon="1.35893">
        <ele>2214.6000976562</ele>
        <time>2023-07-24T09:04:23.000Z</time>
      </trkpt>
      <trkpt lat="42.70348" lon="1.35887">
        <ele>2215</ele>
        <time>2023-07-24T09:04:33.000Z</time>
      </trkpt>
      <trkpt lat="42.70348" lon="1.35884">
        <ele>2216</ele>
        <time>2023-07-24T09:04:38.000Z</time>
      </trkpt>
      <trkpt lat="42.70348" lon="1.35884">
        <ele>2216</ele>
        <time>2023-07-24T09:04:40.000Z</time>
      </trkpt>
      <trkpt lat="42.7035" lon="1.35885">
        <ele>2216.1999511719</ele>
        <time>2023-07-24T09:04:48.000Z</time>
      </trkpt>
      <trkpt lat="42.70349" lon="1.35881">
        <ele>2216.3999023438</ele>
        <time>2023-07-24T09:05:02.000Z</time>
      </trkpt>
      <trkpt lat="42.70353" lon="1.35879">
        <ele>2217</ele>
        <time>2023-07-24T09:05:06.000Z</time>
      </trkpt>
      <trkpt lat="42.70353" lon="1.35875">
        <ele>2218.8000488281</ele>
        <time>2023-07-24T09:05:22.000Z</time>
      </trkpt>
      <trkpt lat="42.70352" lon="1.35871">
        <ele>2220.3999023438</ele>
        <time>2023-07-24T09:05:39.000Z</time>
      </trkpt>
      <trkpt lat="42.70353" lon="1.35869">
        <ele>2220.6000976562</ele>
        <time>2023-07-24T09:05:42.000Z</time>
      </trkpt>
      <trkpt lat="42.70347" lon="1.35866">
        <ele>2221.6000976562</ele>
        <time>2023-07-24T09:06:18.000Z</time>
      </trkpt>
      <trkpt lat="42.70346" lon="1.35862">
        <ele>2222.1999511719</ele>
        <time>2023-07-24T09:06:23.000Z</time>
      </trkpt>
      <trkpt lat="42.70345" lon="1.35858">
        <ele>2222.8000488281</ele>
        <time>2023-07-24T09:06:29.000Z</time>
      </trkpt>
      <trkpt lat="42.70344" lon="1.35857">
        <ele>2223.1999511719</ele>
        <time>2023-07-24T09:06:31.000Z</time>
      </trkpt>
      <trkpt lat="42.70343" lon="1.35853">
        <ele>2223.1999511719</ele>
        <time>2023-07-24T09:06:39.000Z</time>
      </trkpt>
      <trkpt lat="42.70344" lon="1.35852">
        <ele>2224.1999511719</ele>
        <time>2023-07-24T09:06:41.000Z</time>
      </trkpt>
      <trkpt lat="42.70344" lon="1.35847">
        <ele>2224.1999511719</ele>
        <time>2023-07-24T09:06:46.000Z</time>
      </trkpt>
      <trkpt lat="42.70339" lon="1.35847">
        <ele>2224.1999511719</ele>
        <time>2023-07-24T09:06:54.000Z</time>
      </trkpt>
      <trkpt lat="42.70339" lon="1.35845">
        <ele>2224.6000976562</ele>
        <time>2023-07-24T09:06:59.000Z</time>
      </trkpt>
      <trkpt lat="42.70339" lon="1.35842">
        <ele>2224.6000976562</ele>
        <time>2023-07-24T09:07:04.000Z</time>
      </trkpt>
      <trkpt lat="42.7034" lon="1.3584">
        <ele>2224.6000976562</ele>
        <time>2023-07-24T09:07:13.000Z</time>
      </trkpt>
      <trkpt lat="42.70335" lon="1.35834">
        <ele>2225.1999511719</ele>
        <time>2023-07-24T09:07:39.000Z</time>
      </trkpt>
      <trkpt lat="42.70338" lon="1.35831">
        <ele>2225.1999511719</ele>
        <time>2023-07-24T09:07:44.000Z</time>
      </trkpt>
      <trkpt lat="42.70339" lon="1.3583">
        <ele>2225.3999023438</ele>
        <time>2023-07-24T09:07:45.000Z</time>
      </trkpt>
      <trkpt lat="42.7033" lon="1.35831">
        <ele>2227.1999511719</ele>
        <time>2023-07-24T09:08:08.000Z</time>
      </trkpt>
      <trkpt lat="42.7033" lon="1.35829">
        <ele>2227.3999023438</ele>
        <time>2023-07-24T09:08:11.000Z</time>
      </trkpt>
      <trkpt lat="42.70331" lon="1.35827">
        <ele>2227.6000976562</ele>
        <time>2023-07-24T09:08:16.000Z</time>
      </trkpt>
      <trkpt lat="42.70328" lon="1.35826">
        <ele>2227.3999023438</ele>
        <time>2023-07-24T09:08:25.000Z</time>
      </trkpt>
      <trkpt lat="42.7033" lon="1.35825">
        <ele>2227.1999511719</ele>
        <time>2023-07-24T09:08:31.000Z</time>
      </trkpt>
      <trkpt lat="42.70331" lon="1.35824">
        <ele>2227.1999511719</ele>
        <time>2023-07-24T09:08:37.000Z</time>
      </trkpt>
      <trkpt lat="42.7033" lon="1.35822">
        <ele>2227.8000488281</ele>
        <time>2023-07-24T09:08:45.000Z</time>
      </trkpt>
      <trkpt lat="42.70331" lon="1.35822">
        <ele>2228</ele>
        <time>2023-07-24T09:08:51.000Z</time>
      </trkpt>
      <trkpt lat="42.7033" lon="1.3582">
        <ele>2228</ele>
        <time>2023-07-24T09:08:56.000Z</time>
      </trkpt>
      <trkpt lat="42.7033" lon="1.3582">
        <ele>2228.6000976562</ele>
        <time>2023-07-24T09:09:01.000Z</time>
      </trkpt>
      <trkpt lat="42.70329" lon="1.35819">
        <ele>2228.8000488281</ele>
        <time>2023-07-24T09:09:03.000Z</time>
      </trkpt>
      <trkpt lat="42.70328" lon="1.3582">
        <ele>2229.1999511719</ele>
        <time>2023-07-24T09:09:10.000Z</time>
      </trkpt>
      <trkpt lat="42.70327" lon="1.35824">
        <ele>2229.3999023438</ele>
        <time>2023-07-24T09:09:17.000Z</time>
      </trkpt>
      <trkpt lat="42.70321" lon="1.35824">
        <ele>2229.1999511719</ele>
        <time>2023-07-24T09:09:26.000Z</time>
      </trkpt>
      <trkpt lat="42.70319" lon="1.35823">
        <ele>2229.6000976562</ele>
        <time>2023-07-24T09:09:28.000Z</time>
      </trkpt>
      <trkpt lat="42.70319" lon="1.35823">
        <ele>2229.8000488281</ele>
        <time>2023-07-24T09:09:36.000Z</time>
      </trkpt>
      <trkpt lat="42.70319" lon="1.3582">
        <ele>2230.8000488281</ele>
        <time>2023-07-24T09:09:43.000Z</time>
      </trkpt>
      <trkpt lat="42.70319" lon="1.35818">
        <ele>2231</ele>
        <time>2023-07-24T09:09:46.000Z</time>
      </trkpt>
      <trkpt lat="42.70319" lon="1.35817">
        <ele>2231</ele>
        <time>2023-07-24T09:09:54.000Z</time>
      </trkpt>
      <trkpt lat="42.70319" lon="1.3581">
        <ele>2231.8000488281</ele>
        <time>2023-07-24T09:10:02.000Z</time>
      </trkpt>
      <trkpt lat="42.70319" lon="1.35809">
        <ele>2231.8000488281</ele>
        <time>2023-07-24T09:10:04.000Z</time>
      </trkpt>
      <trkpt lat="42.70318" lon="1.35808">
        <ele>2232.3999023438</ele>
        <time>2023-07-24T09:10:10.000Z</time>
      </trkpt>
      <trkpt lat="42.7032" lon="1.35806">
        <ele>2232.6000976562</ele>
        <time>2023-07-24T09:10:17.000Z</time>
      </trkpt>
      <trkpt lat="42.7032" lon="1.35805">
        <ele>2232.8000488281</ele>
        <time>2023-07-24T09:10:19.000Z</time>
      </trkpt>
      <trkpt lat="42.70319" lon="1.35803">
        <ele>2233.1999511719</ele>
        <time>2023-07-24T09:10:24.000Z</time>
      </trkpt>
      <trkpt lat="42.70319" lon="1.35803">
        <ele>2234</ele>
        <time>2023-07-24T09:10:34.000Z</time>
      </trkpt>
      <trkpt lat="42.70312" lon="1.35802">
        <ele>2234.3999023438</ele>
        <time>2023-07-24T09:10:42.000Z</time>
      </trkpt>
      <trkpt lat="42.70308" lon="1.35802">
        <ele>2234.8000488281</ele>
        <time>2023-07-24T09:10:48.000Z</time>
      </trkpt>
      <trkpt lat="42.70308" lon="1.358">
        <ele>2235.1999511719</ele>
        <time>2023-07-24T09:10:50.000Z</time>
      </trkpt>
      <trkpt lat="42.70311" lon="1.35792">
        <ele>2236</ele>
        <time>2023-07-24T09:10:57.000Z</time>
      </trkpt>
      <trkpt lat="42.70312" lon="1.35793">
        <ele>2236</ele>
        <time>2023-07-24T09:11:02.000Z</time>
      </trkpt>
      <trkpt lat="42.70309" lon="1.35792">
        <ele>2236</ele>
        <time>2023-07-24T09:11:15.000Z</time>
      </trkpt>
      <trkpt lat="42.7031" lon="1.3579">
        <ele>2236.6000976562</ele>
        <time>2023-07-24T09:11:22.000Z</time>
      </trkpt>
      <trkpt lat="42.7031" lon="1.35788">
        <ele>2237</ele>
        <time>2023-07-24T09:11:24.000Z</time>
      </trkpt>
      <trkpt lat="42.70312" lon="1.35787">
        <ele>2237</ele>
        <time>2023-07-24T09:11:29.000Z</time>
      </trkpt>
      <trkpt lat="42.70312" lon="1.35785">
        <ele>2237.8000488281</ele>
        <time>2023-07-24T09:11:36.000Z</time>
      </trkpt>
      <trkpt lat="42.70313" lon="1.35785">
        <ele>2238</ele>
        <time>2023-07-24T09:11:40.000Z</time>
      </trkpt>
      <trkpt lat="42.70312" lon="1.35784">
        <ele>2238</ele>
        <time>2023-07-24T09:11:42.000Z</time>
      </trkpt>
      <trkpt lat="42.70309" lon="1.35778">
        <ele>2238.8000488281</ele>
        <time>2023-07-24T09:11:50.000Z</time>
      </trkpt>
      <trkpt lat="42.70308" lon="1.35777">
        <ele>2239.1999511719</ele>
        <time>2023-07-24T09:11:52.000Z</time>
      </trkpt>
      <trkpt lat="42.70307" lon="1.35777">
        <ele>2240</ele>
        <time>2023-07-24T09:11:56.000Z</time>
      </trkpt>
      <trkpt lat="42.70303" lon="1.35776">
        <ele>2241.1999511719</ele>
        <time>2023-07-24T09:12:10.000Z</time>
      </trkpt>
      <trkpt lat="42.70303" lon="1.35775">
        <ele>2241.1999511719</ele>
        <time>2023-07-24T09:12:11.000Z</time>
      </trkpt>
      <trkpt lat="42.70302" lon="1.3577">
        <ele>2241.3999023438</ele>
        <time>2023-07-24T09:12:19.000Z</time>
      </trkpt>
      <trkpt lat="42.70301" lon="1.35771">
        <ele>2241.3999023438</ele>
        <time>2023-07-24T09:12:27.000Z</time>
      </trkpt>
      <trkpt lat="42.70296" lon="1.35768">
        <ele>2241.3999023438</ele>
        <time>2023-07-24T09:12:36.000Z</time>
      </trkpt>
      <trkpt lat="42.70297" lon="1.35767">
        <ele>2242.1999511719</ele>
        <time>2023-07-24T09:12:44.000Z</time>
      </trkpt>
      <trkpt lat="42.70298" lon="1.35766">
        <ele>2242.3999023438</ele>
        <time>2023-07-24T09:12:45.000Z</time>
      </trkpt>
      <trkpt lat="42.70298" lon="1.35765">
        <ele>2242.8000488281</ele>
        <time>2023-07-24T09:12:54.000Z</time>
      </trkpt>
      <trkpt lat="42.70292" lon="1.35763">
        <ele>2243.1999511719</ele>
        <time>2023-07-24T09:13:03.000Z</time>
      </trkpt>
      <trkpt lat="42.70292" lon="1.35764">
        <ele>2243.3999023438</ele>
        <time>2023-07-24T09:13:05.000Z</time>
      </trkpt>
      <trkpt lat="42.70293" lon="1.35763">
        <ele>2243.6000976562</ele>
        <time>2023-07-24T09:13:10.000Z</time>
      </trkpt>
      <trkpt lat="42.70288" lon="1.35764">
        <ele>2244.8000488281</ele>
        <time>2023-07-24T09:13:23.000Z</time>
      </trkpt>
      <trkpt lat="42.70291" lon="1.35762">
        <ele>2244.8000488281</ele>
        <time>2023-07-24T09:13:32.000Z</time>
      </trkpt>
      <trkpt lat="42.7029" lon="1.35764">
        <ele>2245</ele>
        <time>2023-07-24T09:13:41.000Z</time>
      </trkpt>
      <trkpt lat="42.70289" lon="1.35764">
        <ele>2245.1999511719</ele>
        <time>2023-07-24T09:13:48.000Z</time>
      </trkpt>
      <trkpt lat="42.70289" lon="1.35763">
        <ele>2245.3999023438</ele>
        <time>2023-07-24T09:13:52.000Z</time>
      </trkpt>
      <trkpt lat="42.7029" lon="1.3576">
        <ele>2245.6000976562</ele>
        <time>2023-07-24T09:13:57.000Z</time>
      </trkpt>
      <trkpt lat="42.7029" lon="1.35761">
        <ele>2246.6000976562</ele>
        <time>2023-07-24T09:14:04.000Z</time>
      </trkpt>
      <trkpt lat="42.7029" lon="1.3576">
        <ele>2246.8000488281</ele>
        <time>2023-07-24T09:14:05.000Z</time>
      </trkpt>
      <trkpt lat="42.7029" lon="1.35759">
        <ele>2247.6000976562</ele>
        <time>2023-07-24T09:14:10.000Z</time>
      </trkpt>
      <trkpt lat="42.70291" lon="1.35759">
        <ele>2248</ele>
        <time>2023-07-24T09:14:12.000Z</time>
      </trkpt>
      <trkpt lat="42.70289" lon="1.35754">
        <ele>2248.1999511719</ele>
        <time>2023-07-24T09:14:20.000Z</time>
      </trkpt>
      <trkpt lat="42.70286" lon="1.35752">
        <ele>2248.3999023438</ele>
        <time>2023-07-24T09:14:33.000Z</time>
      </trkpt>
      <trkpt lat="42.70285" lon="1.35751">
        <ele>2248.6000976562</ele>
        <time>2023-07-24T09:14:34.000Z</time>
      </trkpt>
      <trkpt lat="42.70285" lon="1.35751">
        <ele>2248.8000488281</ele>
        <time>2023-07-24T09:14:40.000Z</time>
      </trkpt>
      <trkpt lat="42.70287" lon="1.35752">
        <ele>2249.6000976562</ele>
        <time>2023-07-24T09:14:53.000Z</time>
      </trkpt>
      <trkpt lat="42.70287" lon="1.35752">
        <ele>2249.8000488281</ele>
        <time>2023-07-24T09:14:54.000Z</time>
      </trkpt>
      <trkpt lat="42.70288" lon="1.35751">
        <ele>2250.3999023438</ele>
        <time>2023-07-24T09:15:00.000Z</time>
      </trkpt>
      <trkpt lat="42.70289" lon="1.35752">
        <ele>2250.8000488281</ele>
        <time>2023-07-24T09:15:03.000Z</time>
      </trkpt>
      <trkpt lat="42.70291" lon="1.35754">
        <ele>2250.8000488281</ele>
        <time>2023-07-24T09:15:08.000Z</time>
      </trkpt>
      <trkpt lat="42.70289" lon="1.35754">
        <ele>2250.8000488281</ele>
        <time>2023-07-24T09:15:15.000Z</time>
      </trkpt>
      <trkpt lat="42.70284" lon="1.35749">
        <ele>2251.8000488281</ele>
        <time>2023-07-24T09:15:22.000Z</time>
      </trkpt>
      <trkpt lat="42.70284" lon="1.35748">
        <ele>2252</ele>
        <time>2023-07-24T09:15:24.000Z</time>
      </trkpt>
      <trkpt lat="42.70283" lon="1.35748">
        <ele>2252.6000976562</ele>
        <time>2023-07-24T09:15:33.000Z</time>
      </trkpt>
      <trkpt lat="42.70282" lon="1.35748">
        <ele>2252.8000488281</ele>
        <time>2023-07-24T09:15:36.000Z</time>
      </trkpt>
      <trkpt lat="42.70282" lon="1.35747">
        <ele>2253</ele>
        <time>2023-07-24T09:15:40.000Z</time>
      </trkpt>
      <trkpt lat="42.70284" lon="1.35745">
        <ele>2253.1999511719</ele>
        <time>2023-07-24T09:15:46.000Z</time>
      </trkpt>
      <trkpt lat="42.70285" lon="1.35743">
        <ele>2253.3999023438</ele>
        <time>2023-07-24T09:15:53.000Z</time>
      </trkpt>
      <trkpt lat="42.70286" lon="1.35745">
        <ele>2254</ele>
        <time>2023-07-24T09:15:56.000Z</time>
      </trkpt>
      <trkpt lat="42.70284" lon="1.35745">
        <ele>2254.6000976562</ele>
        <time>2023-07-24T09:16:00.000Z</time>
      </trkpt>
      <trkpt lat="42.70281" lon="1.35741">
        <ele>2254.8000488281</ele>
        <time>2023-07-24T09:16:05.000Z</time>
      </trkpt>
      <trkpt lat="42.7028" lon="1.35739">
        <ele>2255</ele>
        <time>2023-07-24T09:16:07.000Z</time>
      </trkpt>
      <trkpt lat="42.70278" lon="1.35739">
        <ele>2255.3999023438</ele>
        <time>2023-07-24T09:16:21.000Z</time>
      </trkpt>
      <trkpt lat="42.70281" lon="1.35738">
        <ele>2255.3999023438</ele>
        <time>2023-07-24T09:16:29.000Z</time>
      </trkpt>
      <trkpt lat="42.7028" lon="1.35736">
        <ele>2255.3999023438</ele>
        <time>2023-07-24T09:16:40.000Z</time>
      </trkpt>
      <trkpt lat="42.70273" lon="1.35735">
        <ele>2256</ele>
        <time>2023-07-24T09:16:56.000Z</time>
      </trkpt>
      <trkpt lat="42.70273" lon="1.35734">
        <ele>2256</ele>
        <time>2023-07-24T09:16:57.000Z</time>
      </trkpt>
      <trkpt lat="42.70276" lon="1.3573">
        <ele>2257.1999511719</ele>
        <time>2023-07-24T09:17:03.000Z</time>
      </trkpt>
      <trkpt lat="42.70276" lon="1.35729">
        <ele>2257.6000976562</ele>
        <time>2023-07-24T09:17:04.000Z</time>
      </trkpt>
      <trkpt lat="42.70277" lon="1.35729">
        <ele>2258.1999511719</ele>
        <time>2023-07-24T09:17:07.000Z</time>
      </trkpt>
      <trkpt lat="42.70278" lon="1.35729">
        <ele>2259</ele>
        <time>2023-07-24T09:17:11.000Z</time>
      </trkpt>
      <trkpt lat="42.70279" lon="1.35729">
        <ele>2259.3999023438</ele>
        <time>2023-07-24T09:17:13.000Z</time>
      </trkpt>
      <trkpt lat="42.7028" lon="1.35727">
        <ele>2259.6000976562</ele>
        <time>2023-07-24T09:17:20.000Z</time>
      </trkpt>
      <trkpt lat="42.70278" lon="1.35727">
        <ele>2260</ele>
        <time>2023-07-24T09:17:28.000Z</time>
      </trkpt>
      <trkpt lat="42.70276" lon="1.35725">
        <ele>2260.1999511719</ele>
        <time>2023-07-24T09:17:34.000Z</time>
      </trkpt>
      <trkpt lat="42.70275" lon="1.35725">
        <ele>2260.3999023438</ele>
        <time>2023-07-24T09:17:35.000Z</time>
      </trkpt>
      <trkpt lat="42.70272" lon="1.35722">
        <ele>2261.1999511719</ele>
        <time>2023-07-24T09:17:41.000Z</time>
      </trkpt>
      <trkpt lat="42.70271" lon="1.35721">
        <ele>2261.3999023438</ele>
        <time>2023-07-24T09:17:43.000Z</time>
      </trkpt>
      <trkpt lat="42.70272" lon="1.3572">
        <ele>2262</ele>
        <time>2023-07-24T09:17:47.000Z</time>
      </trkpt>
      <trkpt lat="42.70273" lon="1.35716">
        <ele>2262</ele>
        <time>2023-07-24T09:17:54.000Z</time>
      </trkpt>
      <trkpt lat="42.70272" lon="1.35716">
        <ele>2262.6000976562</ele>
        <time>2023-07-24T09:17:58.000Z</time>
      </trkpt>
      <trkpt lat="42.70272" lon="1.35717">
        <ele>2262.8000488281</ele>
        <time>2023-07-24T09:18:01.000Z</time>
      </trkpt>
      <trkpt lat="42.70266" lon="1.35716">
        <ele>2263.1999511719</ele>
        <time>2023-07-24T09:18:09.000Z</time>
      </trkpt>
      <trkpt lat="42.70263" lon="1.35713">
        <ele>2263.6000976562</ele>
        <time>2023-07-24T09:18:14.000Z</time>
      </trkpt>
      <trkpt lat="42.70262" lon="1.35711">
        <ele>2264</ele>
        <time>2023-07-24T09:18:17.000Z</time>
      </trkpt>
      <trkpt lat="42.70265" lon="1.35709">
        <ele>2264.1999511719</ele>
        <time>2023-07-24T09:18:27.000Z</time>
      </trkpt>
      <trkpt lat="42.70267" lon="1.35707">
        <ele>2264.6000976562</ele>
        <time>2023-07-24T09:18:36.000Z</time>
      </trkpt>
      <trkpt lat="42.70264" lon="1.35704">
        <ele>2265.6000976562</ele>
        <time>2023-07-24T09:18:45.000Z</time>
      </trkpt>
      <trkpt lat="42.70264" lon="1.35701">
        <ele>2266.8000488281</ele>
        <time>2023-07-24T09:18:51.000Z</time>
      </trkpt>
      <trkpt lat="42.70264" lon="1.35701">
        <ele>2267.3999023438</ele>
        <time>2023-07-24T09:18:53.000Z</time>
      </trkpt>
      <trkpt lat="42.70267" lon="1.35703">
        <ele>2267.3999023438</ele>
        <time>2023-07-24T09:19:03.000Z</time>
      </trkpt>
      <trkpt lat="42.70268" lon="1.35703">
        <ele>2267.3999023438</ele>
        <time>2023-07-24T09:19:12.000Z</time>
      </trkpt>
      <trkpt lat="42.70269" lon="1.35701">
        <ele>2268</ele>
        <time>2023-07-24T09:19:17.000Z</time>
      </trkpt>
      <trkpt lat="42.70268" lon="1.357">
        <ele>2268.3999023438</ele>
        <time>2023-07-24T09:19:19.000Z</time>
      </trkpt>
      <trkpt lat="42.70267" lon="1.35695">
        <ele>2269</ele>
        <time>2023-07-24T09:19:26.000Z</time>
      </trkpt>
      <trkpt lat="42.70268" lon="1.35694">
        <ele>2269.3999023438</ele>
        <time>2023-07-24T09:19:27.000Z</time>
      </trkpt>
      <trkpt lat="42.70265" lon="1.35696">
        <ele>2269.3999023438</ele>
        <time>2023-07-24T09:19:34.000Z</time>
      </trkpt>
      <trkpt lat="42.70268" lon="1.35694">
        <ele>2269.3999023438</ele>
        <time>2023-07-24T09:19:40.000Z</time>
      </trkpt>
      <trkpt lat="42.70267" lon="1.35697">
        <ele>2269.6000976562</ele>
        <time>2023-07-24T09:19:46.000Z</time>
      </trkpt>
      <trkpt lat="42.70263" lon="1.35695">
        <ele>2270</ele>
        <time>2023-07-24T09:19:53.000Z</time>
      </trkpt>
      <trkpt lat="42.70261" lon="1.35696">
        <ele>2270</ele>
        <time>2023-07-24T09:19:59.000Z</time>
      </trkpt>
      <trkpt lat="42.70264" lon="1.35693">
        <ele>2270</ele>
        <time>2023-07-24T09:20:04.000Z</time>
      </trkpt>
      <trkpt lat="42.70263" lon="1.3569">
        <ele>2270.3999023438</ele>
        <time>2023-07-24T09:20:09.000Z</time>
      </trkpt>
      <trkpt lat="42.70264" lon="1.35686">
        <ele>2270.3999023438</ele>
        <time>2023-07-24T09:20:17.000Z</time>
      </trkpt>
      <trkpt lat="42.70262" lon="1.35687">
        <ele>2270.8000488281</ele>
        <time>2023-07-24T09:20:27.000Z</time>
      </trkpt>
      <trkpt lat="42.70261" lon="1.35686">
        <ele>2270.8000488281</ele>
        <time>2023-07-24T09:20:33.000Z</time>
      </trkpt>
      <trkpt lat="42.70261" lon="1.35685">
        <ele>2271.1999511719</ele>
        <time>2023-07-24T09:20:36.000Z</time>
      </trkpt>
      <trkpt lat="42.70259" lon="1.35684">
        <ele>2271.3999023438</ele>
        <time>2023-07-24T09:20:40.000Z</time>
      </trkpt>
      <trkpt lat="42.70264" lon="1.35685">
        <ele>2271.6000976562</ele>
        <time>2023-07-24T09:20:55.000Z</time>
      </trkpt>
      <trkpt lat="42.70264" lon="1.35685">
        <ele>2272.1999511719</ele>
        <time>2023-07-24T09:21:02.000Z</time>
      </trkpt>
      <trkpt lat="42.70264" lon="1.35684">
        <ele>2272.3999023438</ele>
        <time>2023-07-24T09:21:03.000Z</time>
      </trkpt>
      <trkpt lat="42.70264" lon="1.35681">
        <ele>2272.8000488281</ele>
        <time>2023-07-24T09:21:10.000Z</time>
      </trkpt>
      <trkpt lat="42.70261" lon="1.3568">
        <ele>2273</ele>
        <time>2023-07-24T09:21:22.000Z</time>
      </trkpt>
      <trkpt lat="42.7026" lon="1.35679">
        <ele>2273.1999511719</ele>
        <time>2023-07-24T09:21:23.000Z</time>
      </trkpt>
      <trkpt lat="42.7026" lon="1.35676">
        <ele>2274</ele>
        <time>2023-07-24T09:21:29.000Z</time>
      </trkpt>
      <trkpt lat="42.70262" lon="1.35674">
        <ele>2274.3999023438</ele>
        <time>2023-07-24T09:21:35.000Z</time>
      </trkpt>
      <trkpt lat="42.70262" lon="1.35674">
        <ele>2274.8000488281</ele>
        <time>2023-07-24T09:21:36.000Z</time>
      </trkpt>
      <trkpt lat="42.70261" lon="1.35672">
        <ele>2275.3999023438</ele>
        <time>2023-07-24T09:21:40.000Z</time>
      </trkpt>
      <trkpt lat="42.70262" lon="1.35673">
        <ele>2276.1999511719</ele>
        <time>2023-07-24T09:21:45.000Z</time>
      </trkpt>
      <trkpt lat="42.7026" lon="1.35673">
        <ele>2276.6000976562</ele>
        <time>2023-07-24T09:21:49.000Z</time>
      </trkpt>
      <trkpt lat="42.7026" lon="1.35673">
        <ele>2276.8000488281</ele>
        <time>2023-07-24T09:21:55.000Z</time>
      </trkpt>
      <trkpt lat="42.7026" lon="1.35673">
        <ele>2277.8000488281</ele>
        <time>2023-07-24T09:21:58.000Z</time>
      </trkpt>
      <trkpt lat="42.7026" lon="1.35672">
        <ele>2278</ele>
        <time>2023-07-24T09:22:03.000Z</time>
      </trkpt>
      <trkpt lat="42.70257" lon="1.35668">
        <ele>2278.8000488281</ele>
        <time>2023-07-24T09:22:16.000Z</time>
      </trkpt>
      <trkpt lat="42.70258" lon="1.35667">
        <ele>2278.8000488281</ele>
        <time>2023-07-24T09:22:17.000Z</time>
      </trkpt>
      <trkpt lat="42.70256" lon="1.35666">
        <ele>2280</ele>
        <time>2023-07-24T09:22:23.000Z</time>
      </trkpt>
      <trkpt lat="42.70254" lon="1.35664">
        <ele>2281</ele>
        <time>2023-07-24T09:22:27.000Z</time>
      </trkpt>
      <trkpt lat="42.70253" lon="1.35662">
        <ele>2281.3999023438</ele>
        <time>2023-07-24T09:22:31.000Z</time>
      </trkpt>
      <trkpt lat="42.70253" lon="1.35659">
        <ele>2281.6000976562</ele>
        <time>2023-07-24T09:22:39.000Z</time>
      </trkpt>
      <trkpt lat="42.70255" lon="1.35656">
        <ele>2282</ele>
        <time>2023-07-24T09:22:45.000Z</time>
      </trkpt>
      <trkpt lat="42.70255" lon="1.35656">
        <ele>2282</ele>
        <time>2023-07-24T09:22:46.000Z</time>
      </trkpt>
      <trkpt lat="42.70255" lon="1.35654">
        <ele>2282.1999511719</ele>
        <time>2023-07-24T09:22:51.000Z</time>
      </trkpt>
      <trkpt lat="42.70258" lon="1.3565">
        <ele>2282.6000976562</ele>
        <time>2023-07-24T09:22:58.000Z</time>
      </trkpt>
      <trkpt lat="42.7026" lon="1.35649">
        <ele>2283.1999511719</ele>
        <time>2023-07-24T09:23:01.000Z</time>
      </trkpt>
      <trkpt lat="42.7026" lon="1.35648">
        <ele>2283.8000488281</ele>
        <time>2023-07-24T09:23:06.000Z</time>
      </trkpt>
      <trkpt lat="42.70258" lon="1.35648">
        <ele>2284</ele>
        <time>2023-07-24T09:23:14.000Z</time>
      </trkpt>
      <trkpt lat="42.70261" lon="1.35645">
        <ele>2284</ele>
        <time>2023-07-24T09:23:20.000Z</time>
      </trkpt>
      <trkpt lat="42.70261" lon="1.35644">
        <ele>2284.1999511719</ele>
        <time>2023-07-24T09:23:24.000Z</time>
      </trkpt>
      <trkpt lat="42.70258" lon="1.35642">
        <ele>2284.8000488281</ele>
        <time>2023-07-24T09:23:31.000Z</time>
      </trkpt>
      <trkpt lat="42.70261" lon="1.35635">
        <ele>2285.1999511719</ele>
        <time>2023-07-24T09:23:37.000Z</time>
      </trkpt>
      <trkpt lat="42.70262" lon="1.35635">
        <ele>2285.6000976562</ele>
        <time>2023-07-24T09:23:39.000Z</time>
      </trkpt>
      <trkpt lat="42.70253" lon="1.35636">
        <ele>2287.6000976562</ele>
        <time>2023-07-24T09:23:59.000Z</time>
      </trkpt>
      <trkpt lat="42.70251" lon="1.35635">
        <ele>2288.1999511719</ele>
        <time>2023-07-24T09:24:09.000Z</time>
      </trkpt>
      <trkpt lat="42.70249" lon="1.35633">
        <ele>2288.3999023438</ele>
        <time>2023-07-24T09:24:38.000Z</time>
      </trkpt>
      <trkpt lat="42.70246" lon="1.35627">
        <ele>2288</ele>
        <time>2023-07-24T09:24:44.000Z</time>
      </trkpt>
      <trkpt lat="42.70247" lon="1.35626">
        <ele>2288.1999511719</ele>
        <time>2023-07-24T09:24:51.000Z</time>
      </trkpt>
      <trkpt lat="42.70249" lon="1.35623">
        <ele>2288.1999511719</ele>
        <time>2023-07-24T09:24:59.000Z</time>
      </trkpt>
      <trkpt lat="42.7025" lon="1.35622">
        <ele>2288.6000976562</ele>
        <time>2023-07-24T09:25:07.000Z</time>
      </trkpt>
      <trkpt lat="42.70252" lon="1.35625">
        <ele>2288.8000488281</ele>
        <time>2023-07-24T09:25:12.000Z</time>
      </trkpt>
      <trkpt lat="42.70253" lon="1.35622">
        <ele>2288.8000488281</ele>
        <time>2023-07-24T09:25:19.000Z</time>
      </trkpt>
      <trkpt lat="42.70253" lon="1.35621">
        <ele>2289.3999023438</ele>
        <time>2023-07-24T09:25:23.000Z</time>
      </trkpt>
      <trkpt lat="42.70253" lon="1.35617">
        <ele>2290.3999023438</ele>
        <time>2023-07-24T09:25:27.000Z</time>
      </trkpt>
      <trkpt lat="42.70254" lon="1.35615">
        <ele>2291.1999511719</ele>
        <time>2023-07-24T09:25:33.000Z</time>
      </trkpt>
      <trkpt lat="42.70254" lon="1.35615">
        <ele>2291.6000976562</ele>
        <time>2023-07-24T09:25:37.000Z</time>
      </trkpt>
      <trkpt lat="42.70251" lon="1.35615">
        <ele>2292</ele>
        <time>2023-07-24T09:25:44.000Z</time>
      </trkpt>
      <trkpt lat="42.70254" lon="1.35614">
        <ele>2292</ele>
        <time>2023-07-24T09:25:56.000Z</time>
      </trkpt>
      <trkpt lat="42.70251" lon="1.35617">
        <ele>2292</ele>
        <time>2023-07-24T09:26:04.000Z</time>
      </trkpt>
      <trkpt lat="42.7025" lon="1.35613">
        <ele>2292</ele>
        <time>2023-07-24T09:26:09.000Z</time>
      </trkpt>
      <trkpt lat="42.70246" lon="1.35611">
        <ele>2292.3999023438</ele>
        <time>2023-07-24T09:26:15.000Z</time>
      </trkpt>
      <trkpt lat="42.70242" lon="1.35609">
        <ele>2292.8000488281</ele>
        <time>2023-07-24T09:26:23.000Z</time>
      </trkpt>
      <trkpt lat="42.7025" lon="1.35611">
        <ele>2293.6000976562</ele>
        <time>2023-07-24T09:26:34.000Z</time>
      </trkpt>
      <trkpt lat="42.7025" lon="1.3561">
        <ele>2293.8000488281</ele>
        <time>2023-07-24T09:26:41.000Z</time>
      </trkpt>
      <trkpt lat="42.70252" lon="1.3561">
        <ele>2294.3999023438</ele>
        <time>2023-07-24T09:26:45.000Z</time>
      </trkpt>
      <trkpt lat="42.70251" lon="1.35609">
        <ele>2294.8000488281</ele>
        <time>2023-07-24T09:26:48.000Z</time>
      </trkpt>
      <trkpt lat="42.70249" lon="1.35608">
        <ele>2295</ele>
        <time>2023-07-24T09:26:55.000Z</time>
      </trkpt>
      <trkpt lat="42.7025" lon="1.35604">
        <ele>2295.8000488281</ele>
        <time>2023-07-24T09:27:09.000Z</time>
      </trkpt>
      <trkpt lat="42.70251" lon="1.35603">
        <ele>2296</ele>
        <time>2023-07-24T09:27:10.000Z</time>
      </trkpt>
      <trkpt lat="42.70249" lon="1.35606">
        <ele>2296.3999023438</ele>
        <time>2023-07-24T09:27:18.000Z</time>
      </trkpt>
      <trkpt lat="42.70248" lon="1.35605">
        <ele>2297</ele>
        <time>2023-07-24T09:27:22.000Z</time>
      </trkpt>
      <trkpt lat="42.70248" lon="1.35602">
        <ele>2297</ele>
        <time>2023-07-24T09:27:25.000Z</time>
      </trkpt>
      <trkpt lat="42.70243" lon="1.35598">
        <ele>2297</ele>
        <time>2023-07-24T09:27:34.000Z</time>
      </trkpt>
      <trkpt lat="42.70242" lon="1.35598">
        <ele>2297</ele>
        <time>2023-07-24T09:27:41.000Z</time>
      </trkpt>
      <trkpt lat="42.70246" lon="1.35596">
        <ele>2296.8000488281</ele>
        <time>2023-07-24T09:27:46.000Z</time>
      </trkpt>
      <trkpt lat="42.70256" lon="1.35601">
        <ele>2296.6000976562</ele>
        <time>2023-07-24T09:27:57.000Z</time>
      </trkpt>
      <trkpt lat="42.70256" lon="1.35601">
        <ele>2296.8000488281</ele>
        <time>2023-07-24T09:28:06.000Z</time>
      </trkpt>
      <trkpt lat="42.70251" lon="1.35601">
        <ele>2297.1999511719</ele>
        <time>2023-07-24T09:28:13.000Z</time>
      </trkpt>
      <trkpt lat="42.70255" lon="1.35603">
        <ele>2297.1999511719</ele>
        <time>2023-07-24T09:28:22.000Z</time>
      </trkpt>
      <trkpt lat="42.70255" lon="1.35602">
        <ele>2297</ele>
        <time>2023-07-24T09:28:29.000Z</time>
      </trkpt>
      <trkpt lat="42.70256" lon="1.35602">
        <ele>2296.8000488281</ele>
        <time>2023-07-24T09:28:33.000Z</time>
      </trkpt>
      <trkpt lat="42.70254" lon="1.35601">
        <ele>2297.3999023438</ele>
        <time>2023-07-24T09:28:42.000Z</time>
      </trkpt>
      <trkpt lat="42.70251" lon="1.35597">
        <ele>2297.6000976562</ele>
        <time>2023-07-24T09:28:52.000Z</time>
      </trkpt>
      <trkpt lat="42.70249" lon="1.35599">
        <ele>2297.6000976562</ele>
        <time>2023-07-24T09:28:59.000Z</time>
      </trkpt>
      <trkpt lat="42.70252" lon="1.35601">
        <ele>2297.1999511719</ele>
        <time>2023-07-24T09:29:09.000Z</time>
      </trkpt>
      <trkpt lat="42.70256" lon="1.35597">
        <ele>2297.3999023438</ele>
        <time>2023-07-24T09:29:19.000Z</time>
      </trkpt>
      <trkpt lat="42.70258" lon="1.3559">
        <ele>2297.8000488281</ele>
        <time>2023-07-24T09:29:27.000Z</time>
      </trkpt>
      <trkpt lat="42.70259" lon="1.35589">
        <ele>2298.1999511719</ele>
        <time>2023-07-24T09:29:29.000Z</time>
      </trkpt>
      <trkpt lat="42.70261" lon="1.35588">
        <ele>2298.6000976562</ele>
        <time>2023-07-24T09:29:33.000Z</time>
      </trkpt>
      <trkpt lat="42.70263" lon="1.3559">
        <ele>2299.1999511719</ele>
        <time>2023-07-24T09:29:39.000Z</time>
      </trkpt>
      <trkpt lat="42.70257" lon="1.35592">
        <ele>2300</ele>
        <time>2023-07-24T09:29:50.000Z</time>
      </trkpt>
      <trkpt lat="42.7026" lon="1.35592">
        <ele>2299.8000488281</ele>
        <time>2023-07-24T09:29:59.000Z</time>
      </trkpt>
      <trkpt lat="42.70258" lon="1.35591">
        <ele>2299.8000488281</ele>
        <time>2023-07-24T09:30:08.000Z</time>
      </trkpt>
      <trkpt lat="42.70259" lon="1.35589">
        <ele>2299.8000488281</ele>
        <time>2023-07-24T09:30:14.000Z</time>
      </trkpt>
      <trkpt lat="42.70261" lon="1.35591">
        <ele>2299.6000976562</ele>
        <time>2023-07-24T09:30:22.000Z</time>
      </trkpt>
      <trkpt lat="42.70262" lon="1.35591">
        <ele>2299.3999023438</ele>
        <time>2023-07-24T09:30:31.000Z</time>
      </trkpt>
      <trkpt lat="42.70264" lon="1.35589">
        <ele>2299.3999023438</ele>
        <time>2023-07-24T09:30:39.000Z</time>
      </trkpt>
      <trkpt lat="42.70263" lon="1.35591">
        <ele>2299.3999023438</ele>
        <time>2023-07-24T09:30:46.000Z</time>
      </trkpt>
      <trkpt lat="42.70258" lon="1.3559">
        <ele>2299</ele>
        <time>2023-07-24T09:30:57.000Z</time>
      </trkpt>
      <trkpt lat="42.7026" lon="1.35591">
        <ele>2298.1999511719</ele>
        <time>2023-07-24T09:31:06.000Z</time>
      </trkpt>
      <trkpt lat="42.7026" lon="1.35592">
        <ele>2298.3999023438</ele>
        <time>2023-07-24T09:31:12.000Z</time>
      </trkpt>
      <trkpt lat="42.70253" lon="1.35595">
        <ele>2299</ele>
        <time>2023-07-24T09:31:25.000Z</time>
      </trkpt>
      <trkpt lat="42.70253" lon="1.35594">
        <ele>2299.1999511719</ele>
        <time>2023-07-24T09:31:32.000Z</time>
      </trkpt>
      <trkpt lat="42.70251" lon="1.35592">
        <ele>2300</ele>
        <time>2023-07-24T09:31:40.000Z</time>
      </trkpt>
      <trkpt lat="42.70249" lon="1.35592">
        <ele>2300</ele>
        <time>2023-07-24T09:31:48.000Z</time>
      </trkpt>
      <trkpt lat="42.70245" lon="1.3559">
        <ele>2301.3999023438</ele>
        <time>2023-07-24T09:31:57.000Z</time>
      </trkpt>
      <trkpt lat="42.70245" lon="1.35591">
        <ele>2301.6000976562</ele>
        <time>2023-07-24T09:31:59.000Z</time>
      </trkpt>
      <trkpt lat="42.70243" lon="1.35586">
        <ele>2301.6000976562</ele>
        <time>2023-07-24T09:32:16.000Z</time>
      </trkpt>
      <trkpt lat="42.70243" lon="1.35583">
        <ele>2302.1999511719</ele>
        <time>2023-07-24T09:32:29.000Z</time>
      </trkpt>
      <trkpt lat="42.70243" lon="1.3558">
        <ele>2302.1999511719</ele>
        <time>2023-07-24T09:32:34.000Z</time>
      </trkpt>
      <trkpt lat="42.70243" lon="1.35578">
        <ele>2302.3999023438</ele>
        <time>2023-07-24T09:32:37.000Z</time>
      </trkpt>
      <trkpt lat="42.70243" lon="1.35577">
        <ele>2303.3999023438</ele>
        <time>2023-07-24T09:32:41.000Z</time>
      </trkpt>
      <trkpt lat="42.70243" lon="1.35578">
        <ele>2303.6000976562</ele>
        <time>2023-07-24T09:32:42.000Z</time>
      </trkpt>
      <trkpt lat="42.70244" lon="1.35577">
        <ele>2304</ele>
        <time>2023-07-24T09:32:54.000Z</time>
      </trkpt>
      <trkpt lat="42.70245" lon="1.35575">
        <ele>2304</ele>
        <time>2023-07-24T09:33:03.000Z</time>
      </trkpt>
      <trkpt lat="42.70241" lon="1.35573">
        <ele>2304.8000488281</ele>
        <time>2023-07-24T09:33:10.000Z</time>
      </trkpt>
      <trkpt lat="42.70242" lon="1.35573">
        <ele>2305</ele>
        <time>2023-07-24T09:33:16.000Z</time>
      </trkpt>
      <trkpt lat="42.7024" lon="1.35567">
        <ele>2305.8000488281</ele>
        <time>2023-07-24T09:33:25.000Z</time>
      </trkpt>
      <trkpt lat="42.70245" lon="1.35565">
        <ele>2307.1999511719</ele>
        <time>2023-07-24T09:33:36.000Z</time>
      </trkpt>
      <trkpt lat="42.70245" lon="1.35562">
        <ele>2307.6000976562</ele>
        <time>2023-07-24T09:33:44.000Z</time>
      </trkpt>
      <trkpt lat="42.70247" lon="1.35559">
        <ele>2307.8000488281</ele>
        <time>2023-07-24T09:33:51.000Z</time>
      </trkpt>
      <trkpt lat="42.7025" lon="1.35556">
        <ele>2309</ele>
        <time>2023-07-24T09:33:57.000Z</time>
      </trkpt>
      <trkpt lat="42.7025" lon="1.35556">
        <ele>2309.1999511719</ele>
        <time>2023-07-24T09:33:58.000Z</time>
      </trkpt>
      <trkpt lat="42.7025" lon="1.35555">
        <ele>2309.3999023438</ele>
        <time>2023-07-24T09:34:04.000Z</time>
      </trkpt>
      <trkpt lat="42.7025" lon="1.35552">
        <ele>2310</ele>
        <time>2023-07-24T09:34:09.000Z</time>
      </trkpt>
      <trkpt lat="42.70249" lon="1.3555">
        <ele>2310</ele>
        <time>2023-07-24T09:34:10.000Z</time>
      </trkpt>
      <trkpt lat="42.70248" lon="1.3555">
        <ele>2310.1999511719</ele>
        <time>2023-07-24T09:34:17.000Z</time>
      </trkpt>
      <trkpt lat="42.70253" lon="1.35547">
        <ele>2310.6000976562</ele>
        <time>2023-07-24T09:34:26.000Z</time>
      </trkpt>
      <trkpt lat="42.70254" lon="1.35547">
        <ele>2311.1999511719</ele>
        <time>2023-07-24T09:34:29.000Z</time>
      </trkpt>
      <trkpt lat="42.70252" lon="1.35544">
        <ele>2311.6000976562</ele>
        <time>2023-07-24T09:34:35.000Z</time>
      </trkpt>
      <trkpt lat="42.70253" lon="1.35544">
        <ele>2312.1999511719</ele>
        <time>2023-07-24T09:34:42.000Z</time>
      </trkpt>
      <trkpt lat="42.7025" lon="1.35542">
        <ele>2312.6000976562</ele>
        <time>2023-07-24T09:34:51.000Z</time>
      </trkpt>
      <trkpt lat="42.70248" lon="1.35543">
        <ele>2312.6000976562</ele>
        <time>2023-07-24T09:35:00.000Z</time>
      </trkpt>
      <trkpt lat="42.70243" lon="1.35541">
        <ele>2313.3999023438</ele>
        <time>2023-07-24T09:35:13.000Z</time>
      </trkpt>
      <trkpt lat="42.70243" lon="1.35541">
        <ele>2314.1999511719</ele>
        <time>2023-07-24T09:35:19.000Z</time>
      </trkpt>
      <trkpt lat="42.70243" lon="1.35542">
        <ele>2314.1999511719</ele>
        <time>2023-07-24T09:35:26.000Z</time>
      </trkpt>
      <trkpt lat="42.70241" lon="1.35542">
        <ele>2314.3999023438</ele>
        <time>2023-07-24T09:35:30.000Z</time>
      </trkpt>
      <trkpt lat="42.70238" lon="1.35541">
        <ele>2315.3999023438</ele>
        <time>2023-07-24T09:35:36.000Z</time>
      </trkpt>
      <trkpt lat="42.70239" lon="1.3554">
        <ele>2315.3999023438</ele>
        <time>2023-07-24T09:35:37.000Z</time>
      </trkpt>
      <trkpt lat="42.70239" lon="1.35538">
        <ele>2316.1999511719</ele>
        <time>2023-07-24T09:35:44.000Z</time>
      </trkpt>
      <trkpt lat="42.70241" lon="1.35533">
        <ele>2316.3999023438</ele>
        <time>2023-07-24T09:35:53.000Z</time>
      </trkpt>
      <trkpt lat="42.70241" lon="1.35534">
        <ele>2316.3999023438</ele>
        <time>2023-07-24T09:35:55.000Z</time>
      </trkpt>
      <trkpt lat="42.7024" lon="1.35537">
        <ele>2317</ele>
        <time>2023-07-24T09:35:59.000Z</time>
      </trkpt>
      <trkpt lat="42.70236" lon="1.35537">
        <ele>2317</ele>
        <time>2023-07-24T09:36:04.000Z</time>
      </trkpt>
      <trkpt lat="42.70235" lon="1.35538">
        <ele>2317.6000976562</ele>
        <time>2023-07-24T09:36:10.000Z</time>
      </trkpt>
      <trkpt lat="42.70234" lon="1.35536">
        <ele>2318</ele>
        <time>2023-07-24T09:36:14.000Z</time>
      </trkpt>
      <trkpt lat="42.70235" lon="1.35534">
        <ele>2318.6000976562</ele>
        <time>2023-07-24T09:36:20.000Z</time>
      </trkpt>
      <trkpt lat="42.70235" lon="1.35535">
        <ele>2318.8000488281</ele>
        <time>2023-07-24T09:36:21.000Z</time>
      </trkpt>
      <trkpt lat="42.70234" lon="1.35535">
        <ele>2319</ele>
        <time>2023-07-24T09:36:28.000Z</time>
      </trkpt>
      <trkpt lat="42.70235" lon="1.35535">
        <ele>2319</ele>
        <time>2023-07-24T09:36:39.000Z</time>
      </trkpt>
      <trkpt lat="42.7023" lon="1.35534">
        <ele>2319.8000488281</ele>
        <time>2023-07-24T09:36:49.000Z</time>
      </trkpt>
      <trkpt lat="42.70228" lon="1.35532">
        <ele>2320</ele>
        <time>2023-07-24T09:36:53.000Z</time>
      </trkpt>
      <trkpt lat="42.70226" lon="1.35529">
        <ele>2320.3999023438</ele>
        <time>2023-07-24T09:36:58.000Z</time>
      </trkpt>
      <trkpt lat="42.70227" lon="1.35525">
        <ele>2320.6000976562</ele>
        <time>2023-07-24T09:37:04.000Z</time>
      </trkpt>
      <trkpt lat="42.70226" lon="1.35522">
        <ele>2321</ele>
        <time>2023-07-24T09:37:07.000Z</time>
      </trkpt>
      <trkpt lat="42.70227" lon="1.35523">
        <ele>2321.1999511719</ele>
        <time>2023-07-24T09:37:11.000Z</time>
      </trkpt>
      <trkpt lat="42.70227" lon="1.35525">
        <ele>2321.6000976562</ele>
        <time>2023-07-24T09:37:20.000Z</time>
      </trkpt>
      <trkpt lat="42.70229" lon="1.35524">
        <ele>2322</ele>
        <time>2023-07-24T09:37:29.000Z</time>
      </trkpt>
      <trkpt lat="42.70229" lon="1.35523">
        <ele>2322.1999511719</ele>
        <time>2023-07-24T09:37:30.000Z</time>
      </trkpt>
      <trkpt lat="42.70227" lon="1.35521">
        <ele>2322.3999023438</ele>
        <time>2023-07-24T09:37:35.000Z</time>
      </trkpt>
      <trkpt lat="42.70224" lon="1.35518">
        <ele>2323</ele>
        <time>2023-07-24T09:37:44.000Z</time>
      </trkpt>
      <trkpt lat="42.70224" lon="1.35518">
        <ele>2323.1999511719</ele>
        <time>2023-07-24T09:37:46.000Z</time>
      </trkpt>
      <trkpt lat="42.70224" lon="1.3552">
        <ele>2323.3999023438</ele>
        <time>2023-07-24T09:37:51.000Z</time>
      </trkpt>
      <trkpt lat="42.70222" lon="1.35523">
        <ele>2323.1999511719</ele>
        <time>2023-07-24T09:37:57.000Z</time>
      </trkpt>
      <trkpt lat="42.70223" lon="1.35524">
        <ele>2323.3999023438</ele>
        <time>2023-07-24T09:38:03.000Z</time>
      </trkpt>
      <trkpt lat="42.70224" lon="1.35522">
        <ele>2324.3999023438</ele>
        <time>2023-07-24T09:38:19.000Z</time>
      </trkpt>
      <trkpt lat="42.70225" lon="1.35521">
        <ele>2325</ele>
        <time>2023-07-24T09:38:27.000Z</time>
      </trkpt>
      <trkpt lat="42.70222" lon="1.35518">
        <ele>2325.1999511719</ele>
        <time>2023-07-24T09:38:31.000Z</time>
      </trkpt>
      <trkpt lat="42.70221" lon="1.35516">
        <ele>2325.1999511719</ele>
        <time>2023-07-24T09:38:34.000Z</time>
      </trkpt>
      <trkpt lat="42.70219" lon="1.35518">
        <ele>2325.8000488281</ele>
        <time>2023-07-24T09:38:44.000Z</time>
      </trkpt>
      <trkpt lat="42.70217" lon="1.35517">
        <ele>2326.1999511719</ele>
        <time>2023-07-24T09:38:48.000Z</time>
      </trkpt>
      <trkpt lat="42.70215" lon="1.35516">
        <ele>2326.6000976562</ele>
        <time>2023-07-24T09:38:52.000Z</time>
      </trkpt>
      <trkpt lat="42.70213" lon="1.35513">
        <ele>2327.1999511719</ele>
        <time>2023-07-24T09:38:56.000Z</time>
      </trkpt>
      <trkpt lat="42.70212" lon="1.3551">
        <ele>2327.6000976562</ele>
        <time>2023-07-24T09:39:00.000Z</time>
      </trkpt>
      <trkpt lat="42.70213" lon="1.35508">
        <ele>2327.8000488281</ele>
        <time>2023-07-24T09:39:06.000Z</time>
      </trkpt>
      <trkpt lat="42.70218" lon="1.35511">
        <ele>2328.8000488281</ele>
        <time>2023-07-24T09:39:20.000Z</time>
      </trkpt>
      <trkpt lat="42.70216" lon="1.35508">
        <ele>2329</ele>
        <time>2023-07-24T09:39:39.000Z</time>
      </trkpt>
      <trkpt lat="42.70215" lon="1.35509">
        <ele>2329.3999023438</ele>
        <time>2023-07-24T09:39:41.000Z</time>
      </trkpt>
      <trkpt lat="42.70215" lon="1.35509">
        <ele>2329.6000976562</ele>
        <time>2023-07-24T09:39:43.000Z</time>
      </trkpt>
      <trkpt lat="42.70212" lon="1.35508">
        <ele>2330.1999511719</ele>
        <time>2023-07-24T09:39:50.000Z</time>
      </trkpt>
      <trkpt lat="42.70206" lon="1.355">
        <ele>2333.8000488281</ele>
        <time>2023-07-24T09:40:19.000Z</time>
      </trkpt>
      <trkpt lat="42.70206" lon="1.35499">
        <ele>2334</ele>
        <time>2023-07-24T09:40:21.000Z</time>
      </trkpt>
      <trkpt lat="42.70206" lon="1.355">
        <ele>2334.8000488281</ele>
        <time>2023-07-24T09:40:26.000Z</time>
      </trkpt>
      <trkpt lat="42.70207" lon="1.35501">
        <ele>2335</ele>
        <time>2023-07-24T09:40:29.000Z</time>
      </trkpt>
      <trkpt lat="42.70205" lon="1.35497">
        <ele>2335.1999511719</ele>
        <time>2023-07-24T09:40:36.000Z</time>
      </trkpt>
      <trkpt lat="42.70203" lon="1.35493">
        <ele>2335.1999511719</ele>
        <time>2023-07-24T09:40:45.000Z</time>
      </trkpt>
      <trkpt lat="42.70206" lon="1.35491">
        <ele>2335.6000976562</ele>
        <time>2023-07-24T09:40:53.000Z</time>
      </trkpt>
      <trkpt lat="42.70206" lon="1.35488">
        <ele>2335.3999023438</ele>
        <time>2023-07-24T09:41:01.000Z</time>
      </trkpt>
      <trkpt lat="42.70204" lon="1.35486">
        <ele>2336</ele>
        <time>2023-07-24T09:41:06.000Z</time>
      </trkpt>
      <trkpt lat="42.70204" lon="1.35487">
        <ele>2336.3999023438</ele>
        <time>2023-07-24T09:41:08.000Z</time>
      </trkpt>
      <trkpt lat="42.70206" lon="1.35483">
        <ele>2337</ele>
        <time>2023-07-24T09:41:14.000Z</time>
      </trkpt>
      <trkpt lat="42.70206" lon="1.35483">
        <ele>2337</ele>
        <time>2023-07-24T09:41:15.000Z</time>
      </trkpt>
      <trkpt lat="42.70206" lon="1.35483">
        <ele>2337.3999023438</ele>
        <time>2023-07-24T09:41:21.000Z</time>
      </trkpt>
      <trkpt lat="42.70207" lon="1.35479">
        <ele>2337.6000976562</ele>
        <time>2023-07-24T09:41:29.000Z</time>
      </trkpt>
      <trkpt lat="42.70207" lon="1.3548">
        <ele>2338</ele>
        <time>2023-07-24T09:41:34.000Z</time>
      </trkpt>
      <trkpt lat="42.70207" lon="1.35481">
        <ele>2338.1999511719</ele>
        <time>2023-07-24T09:41:36.000Z</time>
      </trkpt>
      <trkpt lat="42.70214" lon="1.35478">
        <ele>2339</ele>
        <time>2023-07-24T09:41:57.000Z</time>
      </trkpt>
      <trkpt lat="42.70214" lon="1.35478">
        <ele>2339.1999511719</ele>
        <time>2023-07-24T09:41:58.000Z</time>
      </trkpt>
      <trkpt lat="42.70222" lon="1.35474">
        <ele>2339.3999023438</ele>
        <time>2023-07-24T09:42:18.000Z</time>
      </trkpt>
      <trkpt lat="42.70225" lon="1.35471">
        <ele>2340</ele>
        <time>2023-07-24T09:42:27.000Z</time>
      </trkpt>
      <trkpt lat="42.70224" lon="1.35472">
        <ele>2341.1999511719</ele>
        <time>2023-07-24T09:42:32.000Z</time>
      </trkpt>
      <trkpt lat="42.70219" lon="1.35471">
        <ele>2341.6000976562</ele>
        <time>2023-07-24T09:42:40.000Z</time>
      </trkpt>
      <trkpt lat="42.70221" lon="1.35467">
        <ele>2342.3999023438</ele>
        <time>2023-07-24T09:42:49.000Z</time>
      </trkpt>
      <trkpt lat="42.70221" lon="1.35467">
        <ele>2342.6000976562</ele>
        <time>2023-07-24T09:42:50.000Z</time>
      </trkpt>
      <trkpt lat="42.70223" lon="1.35469">
        <ele>2343.6000976562</ele>
        <time>2023-07-24T09:42:54.000Z</time>
      </trkpt>
      <trkpt lat="42.70223" lon="1.35469">
        <ele>2343.6000976562</ele>
        <time>2023-07-24T09:42:58.000Z</time>
      </trkpt>
      <trkpt lat="42.70222" lon="1.35469">
        <ele>2344</ele>
        <time>2023-07-24T09:43:19.000Z</time>
      </trkpt>
      <trkpt lat="42.70221" lon="1.35467">
        <ele>2344.3999023438</ele>
        <time>2023-07-24T09:43:28.000Z</time>
      </trkpt>
      <trkpt lat="42.70218" lon="1.35465">
        <ele>2344.3999023438</ele>
        <time>2023-07-24T09:43:44.000Z</time>
      </trkpt>
      <trkpt lat="42.70218" lon="1.35463">
        <ele>2344.6000976562</ele>
        <time>2023-07-24T09:43:47.000Z</time>
      </trkpt>
      <trkpt lat="42.70218" lon="1.35462">
        <ele>2345.6000976562</ele>
        <time>2023-07-24T09:43:52.000Z</time>
      </trkpt>
      <trkpt lat="42.70218" lon="1.35462">
        <ele>2345.8000488281</ele>
        <time>2023-07-24T09:43:53.000Z</time>
      </trkpt>
      <trkpt lat="42.70217" lon="1.35456">
        <ele>2346.8000488281</ele>
        <time>2023-07-24T09:43:59.000Z</time>
      </trkpt>
      <trkpt lat="42.70217" lon="1.35456">
        <ele>2347.8000488281</ele>
        <time>2023-07-24T09:44:03.000Z</time>
      </trkpt>
      <trkpt lat="42.70217" lon="1.35456">
        <ele>2348.3999023438</ele>
        <time>2023-07-24T09:44:06.000Z</time>
      </trkpt>
      <trkpt lat="42.70218" lon="1.35455">
        <ele>2349</ele>
        <time>2023-07-24T09:44:10.000Z</time>
      </trkpt>
      <trkpt lat="42.70218" lon="1.35456">
        <ele>2349.6000976562</ele>
        <time>2023-07-24T09:44:12.000Z</time>
      </trkpt>
      <trkpt lat="42.70223" lon="1.35458">
        <ele>2351</ele>
        <time>2023-07-24T09:44:26.000Z</time>
      </trkpt>
      <trkpt lat="42.70223" lon="1.35459">
        <ele>2351.3999023438</ele>
        <time>2023-07-24T09:44:27.000Z</time>
      </trkpt>
      <trkpt lat="42.70225" lon="1.35454">
        <ele>2351.8000488281</ele>
        <time>2023-07-24T09:44:41.000Z</time>
      </trkpt>
      <trkpt lat="42.70226" lon="1.35452">
        <ele>2352</ele>
        <time>2023-07-24T09:44:50.000Z</time>
      </trkpt>
      <trkpt lat="42.70213" lon="1.35449">
        <ele>2353.3999023438</ele>
        <time>2023-07-24T09:45:14.000Z</time>
      </trkpt>
      <trkpt lat="42.70213" lon="1.35449">
        <ele>2353.3999023438</ele>
        <time>2023-07-24T09:45:15.000Z</time>
      </trkpt>
      <trkpt lat="42.70215" lon="1.35449">
        <ele>2354.6000976562</ele>
        <time>2023-07-24T09:45:21.000Z</time>
      </trkpt>
      <trkpt lat="42.70217" lon="1.35448">
        <ele>2355</ele>
        <time>2023-07-24T09:45:23.000Z</time>
      </trkpt>
      <trkpt lat="42.70219" lon="1.35442">
        <ele>2357.1999511719</ele>
        <time>2023-07-24T09:45:52.000Z</time>
      </trkpt>
      <trkpt lat="42.70219" lon="1.35444">
        <ele>2357.1999511719</ele>
        <time>2023-07-24T09:46:01.000Z</time>
      </trkpt>
      <trkpt lat="42.70226" lon="1.3544">
        <ele>2357.3999023438</ele>
        <time>2023-07-24T09:46:22.000Z</time>
      </trkpt>
      <trkpt lat="42.70225" lon="1.35439">
        <ele>2358</ele>
        <time>2023-07-24T09:46:25.000Z</time>
      </trkpt>
      <trkpt lat="42.70229" lon="1.35437">
        <ele>2359.1999511719</ele>
        <time>2023-07-24T09:46:31.000Z</time>
      </trkpt>
      <trkpt lat="42.70232" lon="1.3543">
        <ele>2361.1999511719</ele>
        <time>2023-07-24T09:47:08.000Z</time>
      </trkpt>
      <trkpt lat="42.70234" lon="1.35428">
        <ele>2362</ele>
        <time>2023-07-24T09:47:16.000Z</time>
      </trkpt>
      <trkpt lat="42.70241" lon="1.35412">
        <ele>2368.1999511719</ele>
        <time>2023-07-24T09:48:03.000Z</time>
      </trkpt>
      <trkpt lat="42.70242" lon="1.35409">
        <ele>2368.8000488281</ele>
        <time>2023-07-24T09:48:09.000Z</time>
      </trkpt>
      <trkpt lat="42.70242" lon="1.35407">
        <ele>2369</ele>
        <time>2023-07-24T09:48:12.000Z</time>
      </trkpt>
      <trkpt lat="42.70242" lon="1.35405">
        <ele>2369.8000488281</ele>
        <time>2023-07-24T09:48:19.000Z</time>
      </trkpt>
      <trkpt lat="42.70243" lon="1.35404">
        <ele>2370</ele>
        <time>2023-07-24T09:48:21.000Z</time>
      </trkpt>
      <trkpt lat="42.70249" lon="1.35402">
        <ele>2371.8000488281</ele>
        <time>2023-07-24T09:48:45.000Z</time>
      </trkpt>
      <trkpt lat="42.70249" lon="1.35401">
        <ele>2372</ele>
        <time>2023-07-24T09:48:46.000Z</time>
      </trkpt>
      <trkpt lat="42.70253" lon="1.354">
        <ele>2372.6000976562</ele>
        <time>2023-07-24T09:48:52.000Z</time>
      </trkpt>
      <trkpt lat="42.70254" lon="1.35392">
        <ele>2377.3999023438</ele>
        <time>2023-07-24T09:49:22.000Z</time>
      </trkpt>
      <trkpt lat="42.70253" lon="1.3539">
        <ele>2378</ele>
        <time>2023-07-24T09:49:27.000Z</time>
      </trkpt>
      <trkpt lat="42.7025" lon="1.35386">
        <ele>2378.3999023438</ele>
        <time>2023-07-24T09:49:30.000Z</time>
      </trkpt>
      <trkpt lat="42.7025" lon="1.35385">
        <ele>2378.6000976562</ele>
        <time>2023-07-24T09:49:31.000Z</time>
      </trkpt>
      <trkpt lat="42.7025" lon="1.35385">
        <ele>2379.3999023438</ele>
        <time>2023-07-24T09:49:35.000Z</time>
      </trkpt>
      <trkpt lat="42.7025" lon="1.35386">
        <ele>2379.6000976562</ele>
        <time>2023-07-24T09:49:36.000Z</time>
      </trkpt>
      <trkpt lat="42.70252" lon="1.35384">
        <ele>2380.3999023438</ele>
        <time>2023-07-24T09:49:42.000Z</time>
      </trkpt>
      <trkpt lat="42.70262" lon="1.35378">
        <ele>2384</ele>
        <time>2023-07-24T09:50:33.000Z</time>
      </trkpt>
      <trkpt lat="42.70262" lon="1.35378">
        <ele>2384</ele>
        <time>2023-07-24T09:50:34.000Z</time>
      </trkpt>
      <trkpt lat="42.70263" lon="1.35378">
        <ele>2384.3999023438</ele>
        <time>2023-07-24T09:50:50.000Z</time>
      </trkpt>
      <trkpt lat="42.70261" lon="1.35375">
        <ele>2385</ele>
        <time>2023-07-24T09:50:55.000Z</time>
      </trkpt>
      <trkpt lat="42.70262" lon="1.35371">
        <ele>2386.6000976562</ele>
        <time>2023-07-24T09:51:05.000Z</time>
      </trkpt>
      <trkpt lat="42.70262" lon="1.35372">
        <ele>2387.3999023438</ele>
        <time>2023-07-24T09:51:09.000Z</time>
      </trkpt>
      <trkpt lat="42.70263" lon="1.35372">
        <ele>2387.6000976562</ele>
        <time>2023-07-24T09:51:11.000Z</time>
      </trkpt>
      <trkpt lat="42.70268" lon="1.35367">
        <ele>2390.3999023438</ele>
        <time>2023-07-24T09:51:34.000Z</time>
      </trkpt>
      <trkpt lat="42.7027" lon="1.35366">
        <ele>2390.8000488281</ele>
        <time>2023-07-24T09:51:40.000Z</time>
      </trkpt>
      <trkpt lat="42.7027" lon="1.35365">
        <ele>2391</ele>
        <time>2023-07-24T09:51:41.000Z</time>
      </trkpt>
      <trkpt lat="42.70272" lon="1.35364">
        <ele>2391.3999023438</ele>
        <time>2023-07-24T09:51:48.000Z</time>
      </trkpt>
      <trkpt lat="42.70273" lon="1.35361">
        <ele>2393.6000976562</ele>
        <time>2023-07-24T09:52:08.000Z</time>
      </trkpt>
      <trkpt lat="42.7028" lon="1.35356">
        <ele>2394</ele>
        <time>2023-07-24T09:52:30.000Z</time>
      </trkpt>
      <trkpt lat="42.70281" lon="1.35355">
        <ele>2394.1999511719</ele>
        <time>2023-07-24T09:52:34.000Z</time>
      </trkpt>
      <trkpt lat="42.70282" lon="1.35353">
        <ele>2394.8000488281</ele>
        <time>2023-07-24T09:52:38.000Z</time>
      </trkpt>
      <trkpt lat="42.70284" lon="1.35355">
        <ele>2395</ele>
        <time>2023-07-24T09:52:44.000Z</time>
      </trkpt>
      <trkpt lat="42.70286" lon="1.35356">
        <ele>2395</ele>
        <time>2023-07-24T09:52:52.000Z</time>
      </trkpt>
      <trkpt lat="42.70284" lon="1.35354">
        <ele>2394.6000976562</ele>
        <time>2023-07-24T09:53:20.000Z</time>
      </trkpt>
      <trkpt lat="42.70283" lon="1.35357">
        <ele>2394.8000488281</ele>
        <time>2023-07-24T09:53:29.000Z</time>
      </trkpt>
      <trkpt lat="42.70281" lon="1.35357">
        <ele>2394.3999023438</ele>
        <time>2023-07-24T09:53:38.000Z</time>
      </trkpt>
      <trkpt lat="42.70282" lon="1.3536">
        <ele>2393.3999023438</ele>
        <time>2023-07-24T09:53:48.000Z</time>
      </trkpt>
      <trkpt lat="42.70282" lon="1.35358">
        <ele>2393.3999023438</ele>
        <time>2023-07-24T09:53:54.000Z</time>
      </trkpt>
      <trkpt lat="42.7028" lon="1.35356">
        <ele>2393</ele>
        <time>2023-07-24T09:54:01.000Z</time>
      </trkpt>
      <trkpt lat="42.70279" lon="1.35355">
        <ele>2392.8000488281</ele>
        <time>2023-07-24T09:54:02.000Z</time>
      </trkpt>
      <trkpt lat="42.70277" lon="1.35355">
        <ele>2393</ele>
        <time>2023-07-24T09:54:12.000Z</time>
      </trkpt>
      <trkpt lat="42.70286" lon="1.3535">
        <ele>2393.3999023438</ele>
        <time>2023-07-24T09:54:35.000Z</time>
      </trkpt>
      <trkpt lat="42.70289" lon="1.3535">
        <ele>2393.8000488281</ele>
        <time>2023-07-24T09:54:42.000Z</time>
      </trkpt>
      <trkpt lat="42.70298" lon="1.35344">
        <ele>2394.6000976562</ele>
        <time>2023-07-24T09:55:03.000Z</time>
      </trkpt>
      <trkpt lat="42.70296" lon="1.35338">
        <ele>2395</ele>
        <time>2023-07-24T09:55:11.000Z</time>
      </trkpt>
      <trkpt lat="42.70293" lon="1.35339">
        <ele>2395</ele>
        <time>2023-07-24T09:55:21.000Z</time>
      </trkpt>
      <trkpt lat="42.70293" lon="1.35336">
        <ele>2395.3999023438</ele>
        <time>2023-07-24T09:55:36.000Z</time>
      </trkpt>
      <trkpt lat="42.70294" lon="1.35334">
        <ele>2396.3999023438</ele>
        <time>2023-07-24T09:55:38.000Z</time>
      </trkpt>
      <trkpt lat="42.70295" lon="1.35331">
        <ele>2396.8000488281</ele>
        <time>2023-07-24T09:55:43.000Z</time>
      </trkpt>
      <trkpt lat="42.70301" lon="1.35325">
        <ele>2398.8000488281</ele>
        <time>2023-07-24T09:55:56.000Z</time>
      </trkpt>
      <trkpt lat="42.703" lon="1.35325">
        <ele>2399</ele>
        <time>2023-07-24T09:55:57.000Z</time>
      </trkpt>
      <trkpt lat="42.70296" lon="1.35319">
        <ele>2400.8000488281</ele>
        <time>2023-07-24T09:56:09.000Z</time>
      </trkpt>
      <trkpt lat="42.70296" lon="1.35319">
        <ele>2401</ele>
        <time>2023-07-24T09:56:11.000Z</time>
      </trkpt>
      <trkpt lat="42.70302" lon="1.35314">
        <ele>2402.3999023438</ele>
        <time>2023-07-24T09:56:25.000Z</time>
      </trkpt>
      <trkpt lat="42.70302" lon="1.3531">
        <ele>2403.1999511719</ele>
        <time>2023-07-24T09:56:32.000Z</time>
      </trkpt>
      <trkpt lat="42.70299" lon="1.35307">
        <ele>2404</ele>
        <time>2023-07-24T09:56:39.000Z</time>
      </trkpt>
      <trkpt lat="42.703" lon="1.35306">
        <ele>2404.1999511719</ele>
        <time>2023-07-24T09:56:40.000Z</time>
      </trkpt>
      <trkpt lat="42.70301" lon="1.35303">
        <ele>2405</ele>
        <time>2023-07-24T09:56:47.000Z</time>
      </trkpt>
      <trkpt lat="42.70302" lon="1.35303">
        <ele>2405.1999511719</ele>
        <time>2023-07-24T09:56:49.000Z</time>
      </trkpt>
      <trkpt lat="42.70306" lon="1.35298">
        <ele>2406.1999511719</ele>
        <time>2023-07-24T09:56:56.000Z</time>
      </trkpt>
      <trkpt lat="42.70306" lon="1.35298">
        <ele>2406.3999023438</ele>
        <time>2023-07-24T09:56:57.000Z</time>
      </trkpt>
      <trkpt lat="42.70307" lon="1.35293">
        <ele>2408.3999023438</ele>
        <time>2023-07-24T09:57:11.000Z</time>
      </trkpt>
      <trkpt lat="42.70308" lon="1.35292">
        <ele>2408.6000976562</ele>
        <time>2023-07-24T09:57:12.000Z</time>
      </trkpt>
      <trkpt lat="42.70307" lon="1.35291">
        <ele>2409.6000976562</ele>
        <time>2023-07-24T09:57:18.000Z</time>
      </trkpt>
      <trkpt lat="42.70307" lon="1.35291">
        <ele>2410</ele>
        <time>2023-07-24T09:57:20.000Z</time>
      </trkpt>
      <trkpt lat="42.70306" lon="1.3529">
        <ele>2410.8000488281</ele>
        <time>2023-07-24T09:57:25.000Z</time>
      </trkpt>
      <trkpt lat="42.70307" lon="1.35288">
        <ele>2411</ele>
        <time>2023-07-24T09:57:29.000Z</time>
      </trkpt>
      <trkpt lat="42.70307" lon="1.35282">
        <ele>2411.8000488281</ele>
        <time>2023-07-24T09:57:37.000Z</time>
      </trkpt>
      <trkpt lat="42.70305" lon="1.35276">
        <ele>2413</ele>
        <time>2023-07-24T09:57:46.000Z</time>
      </trkpt>
      <trkpt lat="42.70305" lon="1.35274">
        <ele>2413.8000488281</ele>
        <time>2023-07-24T09:57:52.000Z</time>
      </trkpt>
      <trkpt lat="42.70307" lon="1.35272">
        <ele>2414</ele>
        <time>2023-07-24T09:57:54.000Z</time>
      </trkpt>
      <trkpt lat="42.70309" lon="1.35268">
        <ele>2414.1999511719</ele>
        <time>2023-07-24T09:57:58.000Z</time>
      </trkpt>
      <trkpt lat="42.70311" lon="1.35266">
        <ele>2414.3999023438</ele>
        <time>2023-07-24T09:58:05.000Z</time>
      </trkpt>
      <trkpt lat="42.70312" lon="1.35268">
        <ele>2415.6000976562</ele>
        <time>2023-07-24T09:58:21.000Z</time>
      </trkpt>
      <trkpt lat="42.70308" lon="1.35262">
        <ele>2417.1999511719</ele>
        <time>2023-07-24T09:58:34.000Z</time>
      </trkpt>
      <trkpt lat="42.70308" lon="1.35262">
        <ele>2417.1999511719</ele>
        <time>2023-07-24T09:58:35.000Z</time>
      </trkpt>
      <trkpt lat="42.70307" lon="1.3526">
        <ele>2418.1999511719</ele>
        <time>2023-07-24T09:58:42.000Z</time>
      </trkpt>
      <trkpt lat="42.70307" lon="1.3526">
        <ele>2418.1999511719</ele>
        <time>2023-07-24T09:58:43.000Z</time>
      </trkpt>
      <trkpt lat="42.70306" lon="1.35256">
        <ele>2419.1999511719</ele>
        <time>2023-07-24T09:58:49.000Z</time>
      </trkpt>
      <trkpt lat="42.70305" lon="1.35255">
        <ele>2419.6000976562</ele>
        <time>2023-07-24T09:58:53.000Z</time>
      </trkpt>
      <trkpt lat="42.70304" lon="1.35252">
        <ele>2420.3999023438</ele>
        <time>2023-07-24T09:59:00.000Z</time>
      </trkpt>
      <trkpt lat="42.70305" lon="1.35252">
        <ele>2420.6000976562</ele>
        <time>2023-07-24T09:59:01.000Z</time>
      </trkpt>
      <trkpt lat="42.70307" lon="1.3525">
        <ele>2421.3999023438</ele>
        <time>2023-07-24T09:59:10.000Z</time>
      </trkpt>
      <trkpt lat="42.70307" lon="1.3525">
        <ele>2421.6000976562</ele>
        <time>2023-07-24T09:59:11.000Z</time>
      </trkpt>
      <trkpt lat="42.70306" lon="1.35247">
        <ele>2422.3999023438</ele>
        <time>2023-07-24T09:59:18.000Z</time>
      </trkpt>
      <trkpt lat="42.70305" lon="1.35246">
        <ele>2422.3999023438</ele>
        <time>2023-07-24T09:59:20.000Z</time>
      </trkpt>
      <trkpt lat="42.70304" lon="1.35247">
        <ele>2423.3999023438</ele>
        <time>2023-07-24T09:59:25.000Z</time>
      </trkpt>
      <trkpt lat="42.70304" lon="1.35248">
        <ele>2423.6000976562</ele>
        <time>2023-07-24T09:59:26.000Z</time>
      </trkpt>
      <trkpt lat="42.70303" lon="1.35249">
        <ele>2425.1999511719</ele>
        <time>2023-07-24T09:59:46.000Z</time>
      </trkpt>
      <trkpt lat="42.70304" lon="1.35249">
        <ele>2425.6000976562</ele>
        <time>2023-07-24T10:00:04.000Z</time>
      </trkpt>
      <trkpt lat="42.70302" lon="1.35248">
        <ele>2425.8000488281</ele>
        <time>2023-07-24T10:00:05.000Z</time>
      </trkpt>
      <trkpt lat="42.70302" lon="1.35248">
        <ele>2426.6000976562</ele>
        <time>2023-07-24T10:00:08.000Z</time>
      </trkpt>
      <trkpt lat="42.70301" lon="1.35247">
        <ele>2427.3999023438</ele>
        <time>2023-07-24T10:00:11.000Z</time>
      </trkpt>
      <trkpt lat="42.70299" lon="1.35246">
        <ele>2427.8000488281</ele>
        <time>2023-07-24T10:00:15.000Z</time>
      </trkpt>
      <trkpt lat="42.70297" lon="1.35239">
        <ele>2428.8000488281</ele>
        <time>2023-07-24T10:00:22.000Z</time>
      </trkpt>
      <trkpt lat="42.70295" lon="1.35235">
        <ele>2429.3999023438</ele>
        <time>2023-07-24T10:00:29.000Z</time>
      </trkpt>
      <trkpt lat="42.70294" lon="1.35235">
        <ele>2429.8000488281</ele>
        <time>2023-07-24T10:00:33.000Z</time>
      </trkpt>
      <trkpt lat="42.70296" lon="1.35234">
        <ele>2430.1999511719</ele>
        <time>2023-07-24T10:00:41.000Z</time>
      </trkpt>
      <trkpt lat="42.70297" lon="1.35233">
        <ele>2430.8000488281</ele>
        <time>2023-07-24T10:00:46.000Z</time>
      </trkpt>
      <trkpt lat="42.70298" lon="1.35231">
        <ele>2430.8000488281</ele>
        <time>2023-07-24T10:00:50.000Z</time>
      </trkpt>
      <trkpt lat="42.70298" lon="1.35228">
        <ele>2432</ele>
        <time>2023-07-24T10:00:56.000Z</time>
      </trkpt>
      <trkpt lat="42.703" lon="1.35226">
        <ele>2433</ele>
        <time>2023-07-24T10:01:03.000Z</time>
      </trkpt>
      <trkpt lat="42.703" lon="1.35226">
        <ele>2433</ele>
        <time>2023-07-24T10:01:04.000Z</time>
      </trkpt>
      <trkpt lat="42.70301" lon="1.35224">
        <ele>2433.8000488281</ele>
        <time>2023-07-24T10:01:11.000Z</time>
      </trkpt>
      <trkpt lat="42.70302" lon="1.35222">
        <ele>2434</ele>
        <time>2023-07-24T10:01:13.000Z</time>
      </trkpt>
      <trkpt lat="42.70303" lon="1.35219">
        <ele>2434.8000488281</ele>
        <time>2023-07-24T10:01:18.000Z</time>
      </trkpt>
      <trkpt lat="42.70303" lon="1.35218">
        <ele>2435.1999511719</ele>
        <time>2023-07-24T10:01:20.000Z</time>
      </trkpt>
      <trkpt lat="42.70303" lon="1.35218">
        <ele>2436</ele>
        <time>2023-07-24T10:01:24.000Z</time>
      </trkpt>
      <trkpt lat="42.70302" lon="1.35215">
        <ele>2436.1999511719</ele>
        <time>2023-07-24T10:01:31.000Z</time>
      </trkpt>
      <trkpt lat="42.70302" lon="1.35214">
        <ele>2436.3999023438</ele>
        <time>2023-07-24T10:01:34.000Z</time>
      </trkpt>
      <trkpt lat="42.70298" lon="1.35212">
        <ele>2436.3999023438</ele>
        <time>2023-07-24T10:01:43.000Z</time>
      </trkpt>
      <trkpt lat="42.70296" lon="1.35212">
        <ele>2437.3999023438</ele>
        <time>2023-07-24T10:01:53.000Z</time>
      </trkpt>
      <trkpt lat="42.70297" lon="1.35211">
        <ele>2437.8000488281</ele>
        <time>2023-07-24T10:01:55.000Z</time>
      </trkpt>
      <trkpt lat="42.70296" lon="1.3521">
        <ele>2438.3999023438</ele>
        <time>2023-07-24T10:01:59.000Z</time>
      </trkpt>
      <trkpt lat="42.70296" lon="1.35209">
        <ele>2438.6000976562</ele>
        <time>2023-07-24T10:02:01.000Z</time>
      </trkpt>
      <trkpt lat="42.70292" lon="1.35205">
        <ele>2439.3999023438</ele>
        <time>2023-07-24T10:02:07.000Z</time>
      </trkpt>
      <trkpt lat="42.70291" lon="1.35204">
        <ele>2439.8000488281</ele>
        <time>2023-07-24T10:02:10.000Z</time>
      </trkpt>
      <trkpt lat="42.70292" lon="1.35203">
        <ele>2440.6000976562</ele>
        <time>2023-07-24T10:02:15.000Z</time>
      </trkpt>
      <trkpt lat="42.70292" lon="1.35203">
        <ele>2440.8000488281</ele>
        <time>2023-07-24T10:02:16.000Z</time>
      </trkpt>
      <trkpt lat="42.70295" lon="1.35201">
        <ele>2441.6000976562</ele>
        <time>2023-07-24T10:02:23.000Z</time>
      </trkpt>
      <trkpt lat="42.70295" lon="1.352">
        <ele>2441.6000976562</ele>
        <time>2023-07-24T10:02:24.000Z</time>
      </trkpt>
      <trkpt lat="42.70295" lon="1.352">
        <ele>2442.6000976562</ele>
        <time>2023-07-24T10:02:30.000Z</time>
      </trkpt>
      <trkpt lat="42.70294" lon="1.35201">
        <ele>2442.8000488281</ele>
        <time>2023-07-24T10:02:31.000Z</time>
      </trkpt>
      <trkpt lat="42.70293" lon="1.35202">
        <ele>2443.3999023438</ele>
        <time>2023-07-24T10:02:40.000Z</time>
      </trkpt>
      <trkpt lat="42.70293" lon="1.35201">
        <ele>2443.8000488281</ele>
        <time>2023-07-24T10:02:42.000Z</time>
      </trkpt>
      <trkpt lat="42.70293" lon="1.35199">
        <ele>2444.1999511719</ele>
        <time>2023-07-24T10:02:47.000Z</time>
      </trkpt>
      <trkpt lat="42.70293" lon="1.35197">
        <ele>2444.6000976562</ele>
        <time>2023-07-24T10:02:54.000Z</time>
      </trkpt>
      <trkpt lat="42.70293" lon="1.35196">
        <ele>2445</ele>
        <time>2023-07-24T10:02:56.000Z</time>
      </trkpt>
      <trkpt lat="42.70293" lon="1.35194">
        <ele>2445.3999023438</ele>
        <time>2023-07-24T10:03:01.000Z</time>
      </trkpt>
      <trkpt lat="42.70291" lon="1.35192">
        <ele>2446.1999511719</ele>
        <time>2023-07-24T10:03:09.000Z</time>
      </trkpt>
      <trkpt lat="42.70292" lon="1.35192">
        <ele>2446.6000976562</ele>
        <time>2023-07-24T10:03:10.000Z</time>
      </trkpt>
      <trkpt lat="42.70291" lon="1.35192">
        <ele>2447.1999511719</ele>
        <time>2023-07-24T10:03:15.000Z</time>
      </trkpt>
      <trkpt lat="42.70291" lon="1.35192">
        <ele>2447.3999023438</ele>
        <time>2023-07-24T10:03:17.000Z</time>
      </trkpt>
      <trkpt lat="42.70291" lon="1.35189">
        <ele>2448.3999023438</ele>
        <time>2023-07-24T10:03:20.000Z</time>
      </trkpt>
      <trkpt lat="42.70291" lon="1.35187">
        <ele>2448.6000976562</ele>
        <time>2023-07-24T10:03:23.000Z</time>
      </trkpt>
      <trkpt lat="42.70291" lon="1.35189">
        <ele>2449.3999023438</ele>
        <time>2023-07-24T10:03:26.000Z</time>
      </trkpt>
      <trkpt lat="42.70292" lon="1.3519">
        <ele>2449.3999023438</ele>
        <time>2023-07-24T10:03:29.000Z</time>
      </trkpt>
      <trkpt lat="42.70293" lon="1.35189">
        <ele>2449</ele>
        <time>2023-07-24T10:03:36.000Z</time>
      </trkpt>
      <trkpt lat="42.70296" lon="1.35184">
        <ele>2449</ele>
        <time>2023-07-24T10:03:46.000Z</time>
      </trkpt>
      <trkpt lat="42.70296" lon="1.3518">
        <ele>2450.6000976562</ele>
        <time>2023-07-24T10:03:52.000Z</time>
      </trkpt>
      <trkpt lat="42.70296" lon="1.35177">
        <ele>2451.6000976562</ele>
        <time>2023-07-24T10:03:57.000Z</time>
      </trkpt>
      <trkpt lat="42.70295" lon="1.35175">
        <ele>2452</ele>
        <time>2023-07-24T10:04:00.000Z</time>
      </trkpt>
      <trkpt lat="42.70294" lon="1.35172">
        <ele>2452.6000976562</ele>
        <time>2023-07-24T10:04:04.000Z</time>
      </trkpt>
      <trkpt lat="42.70294" lon="1.35171">
        <ele>2453.1999511719</ele>
        <time>2023-07-24T10:04:07.000Z</time>
      </trkpt>
      <trkpt lat="42.70294" lon="1.35171">
        <ele>2453.8000488281</ele>
        <time>2023-07-24T10:04:09.000Z</time>
      </trkpt>
      <trkpt lat="42.70295" lon="1.35174">
        <ele>2454</ele>
        <time>2023-07-24T10:04:17.000Z</time>
      </trkpt>
      <trkpt lat="42.70294" lon="1.35176">
        <ele>2453.8000488281</ele>
        <time>2023-07-24T10:04:27.000Z</time>
      </trkpt>
      <trkpt lat="42.70296" lon="1.35173">
        <ele>2454.3999023438</ele>
        <time>2023-07-24T10:04:43.000Z</time>
      </trkpt>
      <trkpt lat="42.70297" lon="1.35173">
        <ele>2454.8000488281</ele>
        <time>2023-07-24T10:04:45.000Z</time>
      </trkpt>
      <trkpt lat="42.70299" lon="1.35171">
        <ele>2455.6000976562</ele>
        <time>2023-07-24T10:04:50.000Z</time>
      </trkpt>
      <trkpt lat="42.70299" lon="1.3517">
        <ele>2456</ele>
        <time>2023-07-24T10:04:51.000Z</time>
      </trkpt>
      <trkpt lat="42.70295" lon="1.35166">
        <ele>2456.3999023438</ele>
        <time>2023-07-24T10:04:57.000Z</time>
      </trkpt>
      <trkpt lat="42.70294" lon="1.3516">
        <ele>2457</ele>
        <time>2023-07-24T10:05:02.000Z</time>
      </trkpt>
      <trkpt lat="42.70293" lon="1.3516">
        <ele>2457.1999511719</ele>
        <time>2023-07-24T10:05:04.000Z</time>
      </trkpt>
      <trkpt lat="42.70293" lon="1.35159">
        <ele>2458</ele>
        <time>2023-07-24T10:05:09.000Z</time>
      </trkpt>
      <trkpt lat="42.70294" lon="1.35157">
        <ele>2458.6000976562</ele>
        <time>2023-07-24T10:05:13.000Z</time>
      </trkpt>
      <trkpt lat="42.70294" lon="1.35154">
        <ele>2459.1999511719</ele>
        <time>2023-07-24T10:05:17.000Z</time>
      </trkpt>
      <trkpt lat="42.70295" lon="1.35153">
        <ele>2459.8000488281</ele>
        <time>2023-07-24T10:05:20.000Z</time>
      </trkpt>
      <trkpt lat="42.70296" lon="1.35152">
        <ele>2460.1999511719</ele>
        <time>2023-07-24T10:05:23.000Z</time>
      </trkpt>
      <trkpt lat="42.70294" lon="1.35148">
        <ele>2461.3999023438</ele>
        <time>2023-07-24T10:05:37.000Z</time>
      </trkpt>
      <trkpt lat="42.70296" lon="1.35145">
        <ele>2461.6000976562</ele>
        <time>2023-07-24T10:05:46.000Z</time>
      </trkpt>
      <trkpt lat="42.70297" lon="1.35144">
        <ele>2462.1999511719</ele>
        <time>2023-07-24T10:05:51.000Z</time>
      </trkpt>
      <trkpt lat="42.70297" lon="1.35144">
        <ele>2462.3999023438</ele>
        <time>2023-07-24T10:05:52.000Z</time>
      </trkpt>
      <trkpt lat="42.70296" lon="1.35144">
        <ele>2463</ele>
        <time>2023-07-24T10:05:57.000Z</time>
      </trkpt>
      <trkpt lat="42.703" lon="1.35138">
        <ele>2465.8000488281</ele>
        <time>2023-07-24T10:06:14.000Z</time>
      </trkpt>
      <trkpt lat="42.70299" lon="1.35135">
        <ele>2466.1999511719</ele>
        <time>2023-07-24T10:06:17.000Z</time>
      </trkpt>
      <trkpt lat="42.70296" lon="1.35132">
        <ele>2466.6000976562</ele>
        <time>2023-07-24T10:06:23.000Z</time>
      </trkpt>
      <trkpt lat="42.70296" lon="1.35131">
        <ele>2466.6000976562</ele>
        <time>2023-07-24T10:06:25.000Z</time>
      </trkpt>
      <trkpt lat="42.70294" lon="1.35129">
        <ele>2467.6000976562</ele>
        <time>2023-07-24T10:06:31.000Z</time>
      </trkpt>
      <trkpt lat="42.70294" lon="1.3513">
        <ele>2467.6000976562</ele>
        <time>2023-07-24T10:06:32.000Z</time>
      </trkpt>
      <trkpt lat="42.70295" lon="1.3513">
        <ele>2468.8000488281</ele>
        <time>2023-07-24T10:06:39.000Z</time>
      </trkpt>
      <trkpt lat="42.70293" lon="1.35125">
        <ele>2469.6000976562</ele>
        <time>2023-07-24T10:06:47.000Z</time>
      </trkpt>
      <trkpt lat="42.70293" lon="1.35124">
        <ele>2469.8000488281</ele>
        <time>2023-07-24T10:06:48.000Z</time>
      </trkpt>
      <trkpt lat="42.70293" lon="1.35122">
        <ele>2470.8000488281</ele>
        <time>2023-07-24T10:06:53.000Z</time>
      </trkpt>
      <trkpt lat="42.70293" lon="1.35121">
        <ele>2471</ele>
        <time>2023-07-24T10:06:54.000Z</time>
      </trkpt>
      <trkpt lat="42.70294" lon="1.3512">
        <ele>2472</ele>
        <time>2023-07-24T10:06:59.000Z</time>
      </trkpt>
      <trkpt lat="42.70295" lon="1.35121">
        <ele>2472.6000976562</ele>
        <time>2023-07-24T10:07:02.000Z</time>
      </trkpt>
      <trkpt lat="42.70296" lon="1.3512">
        <ele>2473</ele>
        <time>2023-07-24T10:07:04.000Z</time>
      </trkpt>
      <trkpt lat="42.70298" lon="1.35119">
        <ele>2474</ele>
        <time>2023-07-24T10:07:13.000Z</time>
      </trkpt>
      <trkpt lat="42.70298" lon="1.35118">
        <ele>2474.1999511719</ele>
        <time>2023-07-24T10:07:14.000Z</time>
      </trkpt>
      <trkpt lat="42.70298" lon="1.35114">
        <ele>2475</ele>
        <time>2023-07-24T10:07:20.000Z</time>
      </trkpt>
      <trkpt lat="42.70298" lon="1.35111">
        <ele>2475.8000488281</ele>
        <time>2023-07-24T10:07:23.000Z</time>
      </trkpt>
      <trkpt lat="42.70299" lon="1.3511">
        <ele>2476</ele>
        <time>2023-07-24T10:07:28.000Z</time>
      </trkpt>
      <trkpt lat="42.703" lon="1.35109">
        <ele>2476.3999023438</ele>
        <time>2023-07-24T10:07:31.000Z</time>
      </trkpt>
      <trkpt lat="42.70301" lon="1.35106">
        <ele>2477.1999511719</ele>
        <time>2023-07-24T10:07:35.000Z</time>
      </trkpt>
      <trkpt lat="42.70302" lon="1.35104">
        <ele>2477.6000976562</ele>
        <time>2023-07-24T10:07:38.000Z</time>
      </trkpt>
      <trkpt lat="42.70302" lon="1.35103">
        <ele>2478.1999511719</ele>
        <time>2023-07-24T10:07:41.000Z</time>
      </trkpt>
      <trkpt lat="42.70302" lon="1.351">
        <ele>2479</ele>
        <time>2023-07-24T10:07:48.000Z</time>
      </trkpt>
      <trkpt lat="42.70303" lon="1.35099">
        <ele>2479.3999023438</ele>
        <time>2023-07-24T10:07:51.000Z</time>
      </trkpt>
      <trkpt lat="42.70305" lon="1.351">
        <ele>2479.6000976562</ele>
        <time>2023-07-24T10:07:56.000Z</time>
      </trkpt>
      <trkpt lat="42.70305" lon="1.351">
        <ele>2479.3999023438</ele>
        <time>2023-07-24T10:08:05.000Z</time>
      </trkpt>
      <trkpt lat="42.70304" lon="1.351">
        <ele>2479.3999023438</ele>
        <time>2023-07-24T10:08:13.000Z</time>
      </trkpt>
      <trkpt lat="42.70306" lon="1.35102">
        <ele>2479.3999023438</ele>
        <time>2023-07-24T10:08:20.000Z</time>
      </trkpt>
      <trkpt lat="42.70308" lon="1.35098">
        <ele>2479.1999511719</ele>
        <time>2023-07-24T10:08:29.000Z</time>
      </trkpt>
      <trkpt lat="42.70309" lon="1.35098">
        <ele>2479.8000488281</ele>
        <time>2023-07-24T10:08:34.000Z</time>
      </trkpt>
      <trkpt lat="42.70308" lon="1.35098">
        <ele>2480.6000976562</ele>
        <time>2023-07-24T10:08:35.000Z</time>
      </trkpt>
      <trkpt lat="42.70307" lon="1.35101">
        <ele>2481.1999511719</ele>
        <time>2023-07-24T10:08:40.000Z</time>
      </trkpt>
      <trkpt lat="42.70307" lon="1.35105">
        <ele>2479.3999023438</ele>
        <time>2023-07-24T10:08:45.000Z</time>
      </trkpt>
      <trkpt lat="42.70308" lon="1.35106">
        <ele>2478.6000976562</ele>
        <time>2023-07-24T10:08:48.000Z</time>
      </trkpt>
      <trkpt lat="42.70308" lon="1.35106">
        <ele>2478.3999023438</ele>
        <time>2023-07-24T10:08:49.000Z</time>
      </trkpt>
      <trkpt lat="42.70311" lon="1.35105">
        <ele>2478.1999511719</ele>
        <time>2023-07-24T10:08:55.000Z</time>
      </trkpt>
      <trkpt lat="42.7031" lon="1.35105">
        <ele>2478.1999511719</ele>
        <time>2023-07-24T10:08:56.000Z</time>
      </trkpt>
      <trkpt lat="42.70309" lon="1.35103">
        <ele>2478.1999511719</ele>
        <time>2023-07-24T10:09:02.000Z</time>
      </trkpt>
      <trkpt lat="42.70312" lon="1.35095">
        <ele>2478.6000976562</ele>
        <time>2023-07-24T10:09:12.000Z</time>
      </trkpt>
      <trkpt lat="42.70312" lon="1.35094">
        <ele>2478.6000976562</ele>
        <time>2023-07-24T10:09:21.000Z</time>
      </trkpt>
      <trkpt lat="42.7031" lon="1.35094">
        <ele>2479.3999023438</ele>
        <time>2023-07-24T10:09:29.000Z</time>
      </trkpt>
      <trkpt lat="42.70311" lon="1.35093">
        <ele>2479.8000488281</ele>
        <time>2023-07-24T10:09:37.000Z</time>
      </trkpt>
      <trkpt lat="42.70308" lon="1.35088">
        <ele>2478.6000976562</ele>
        <time>2023-07-24T10:09:44.000Z</time>
      </trkpt>
      <trkpt lat="42.70308" lon="1.35087">
        <ele>2478</ele>
        <time>2023-07-24T10:09:45.000Z</time>
      </trkpt>
      <trkpt lat="42.70306" lon="1.35083">
        <ele>2478.6000976562</ele>
        <time>2023-07-24T10:09:51.000Z</time>
      </trkpt>
      <trkpt lat="42.70304" lon="1.3508">
        <ele>2476.8000488281</ele>
        <time>2023-07-24T10:09:56.000Z</time>
      </trkpt>
      <trkpt lat="42.70304" lon="1.3508">
        <ele>2476.3999023438</ele>
        <time>2023-07-24T10:09:57.000Z</time>
      </trkpt>
      <trkpt lat="42.70304" lon="1.35079">
        <ele>2475.3999023438</ele>
        <time>2023-07-24T10:09:58.000Z</time>
      </trkpt>
      <trkpt lat="42.70304" lon="1.35078">
        <ele>2474.6000976562</ele>
        <time>2023-07-24T10:10:04.000Z</time>
      </trkpt>
      <trkpt lat="42.70304" lon="1.35076">
        <ele>2474.3999023438</ele>
        <time>2023-07-24T10:10:06.000Z</time>
      </trkpt>
      <trkpt lat="42.70304" lon="1.35076">
        <ele>2473.3999023438</ele>
        <time>2023-07-24T10:10:11.000Z</time>
      </trkpt>
      <trkpt lat="42.70305" lon="1.35072">
        <ele>2473.1999511719</ele>
        <time>2023-07-24T10:10:15.000Z</time>
      </trkpt>
      <trkpt lat="42.70305" lon="1.35066">
        <ele>2472.1999511719</ele>
        <time>2023-07-24T10:10:19.000Z</time>
      </trkpt>
      <trkpt lat="42.70305" lon="1.35066">
        <ele>2472</ele>
        <time>2023-07-24T10:10:20.000Z</time>
      </trkpt>
      <trkpt lat="42.70304" lon="1.35065">
        <ele>2471</ele>
        <time>2023-07-24T10:10:26.000Z</time>
      </trkpt>
      <trkpt lat="42.70304" lon="1.35064">
        <ele>2470.6000976562</ele>
        <time>2023-07-24T10:10:27.000Z</time>
      </trkpt>
      <trkpt lat="42.70303" lon="1.3506">
        <ele>2470</ele>
        <time>2023-07-24T10:10:31.000Z</time>
      </trkpt>
      <trkpt lat="42.70303" lon="1.35058">
        <ele>2469.6000976562</ele>
        <time>2023-07-24T10:10:33.000Z</time>
      </trkpt>
      <trkpt lat="42.70305" lon="1.35059">
        <ele>2469</ele>
        <time>2023-07-24T10:10:37.000Z</time>
      </trkpt>
      <trkpt lat="42.70305" lon="1.35059">
        <ele>2469</ele>
        <time>2023-07-24T10:10:38.000Z</time>
      </trkpt>
      <trkpt lat="42.70305" lon="1.35059">
        <ele>2468.6000976562</ele>
        <time>2023-07-24T10:10:40.000Z</time>
      </trkpt>
      <trkpt lat="42.70308" lon="1.35052">
        <ele>2468.1999511719</ele>
        <time>2023-07-24T10:10:48.000Z</time>
      </trkpt>
      <trkpt lat="42.70308" lon="1.35045">
        <ele>2467.8000488281</ele>
        <time>2023-07-24T10:10:53.000Z</time>
      </trkpt>
      <trkpt lat="42.70308" lon="1.35042">
        <ele>2467.1999511719</ele>
        <time>2023-07-24T10:10:55.000Z</time>
      </trkpt>
      <trkpt lat="42.70307" lon="1.35039">
        <ele>2466.6000976562</ele>
        <time>2023-07-24T10:10:58.000Z</time>
      </trkpt>
      <trkpt lat="42.70305" lon="1.35034">
        <ele>2466.1999511719</ele>
        <time>2023-07-24T10:11:03.000Z</time>
      </trkpt>
      <trkpt lat="42.70306" lon="1.3503">
        <ele>2465.6000976562</ele>
        <time>2023-07-24T10:11:09.000Z</time>
      </trkpt>
      <trkpt lat="42.70308" lon="1.35032">
        <ele>2465.1999511719</ele>
        <time>2023-07-24T10:11:12.000Z</time>
      </trkpt>
      <trkpt lat="42.70312" lon="1.3503">
        <ele>2465.3999023438</ele>
        <time>2023-07-24T10:11:19.000Z</time>
      </trkpt>
      <trkpt lat="42.70312" lon="1.3503">
        <ele>2464.3999023438</ele>
        <time>2023-07-24T10:11:23.000Z</time>
      </trkpt>
      <trkpt lat="42.70312" lon="1.35031">
        <ele>2464.3999023438</ele>
        <time>2023-07-24T10:11:26.000Z</time>
      </trkpt>
      <trkpt lat="42.70312" lon="1.35031">
        <ele>2463.8000488281</ele>
        <time>2023-07-24T10:11:34.000Z</time>
      </trkpt>
      <trkpt lat="42.70312" lon="1.35037">
        <ele>2464.6000976562</ele>
        <time>2023-07-24T10:11:41.000Z</time>
      </trkpt>
      <trkpt lat="42.70309" lon="1.35043">
        <ele>2465.6000976562</ele>
        <time>2023-07-24T10:11:48.000Z</time>
      </trkpt>
      <trkpt lat="42.70308" lon="1.35044">
        <ele>2465.8000488281</ele>
        <time>2023-07-24T10:11:49.000Z</time>
      </trkpt>
      <trkpt lat="42.70305" lon="1.35044">
        <ele>2466.3999023438</ele>
        <time>2023-07-24T10:11:52.000Z</time>
      </trkpt>
      <trkpt lat="42.70304" lon="1.35045">
        <ele>2466.8000488281</ele>
        <time>2023-07-24T10:11:55.000Z</time>
      </trkpt>
      <trkpt lat="42.70303" lon="1.35046">
        <ele>2467</ele>
        <time>2023-07-24T10:11:56.000Z</time>
      </trkpt>
      <trkpt lat="42.70303" lon="1.35048">
        <ele>2467.6000976562</ele>
        <time>2023-07-24T10:12:01.000Z</time>
      </trkpt>
      <trkpt lat="42.70302" lon="1.3505">
        <ele>2468</ele>
        <time>2023-07-24T10:12:03.000Z</time>
      </trkpt>
      <trkpt lat="42.703" lon="1.35052">
        <ele>2468.6000976562</ele>
        <time>2023-07-24T10:12:07.000Z</time>
      </trkpt>
      <trkpt lat="42.70301" lon="1.35052">
        <ele>2469</ele>
        <time>2023-07-24T10:12:14.000Z</time>
      </trkpt>
      <trkpt lat="42.70301" lon="1.35052">
        <ele>2469.1999511719</ele>
        <time>2023-07-24T10:12:15.000Z</time>
      </trkpt>
      <trkpt lat="42.70302" lon="1.35053">
        <ele>2469.3999023438</ele>
        <time>2023-07-24T10:12:21.000Z</time>
      </trkpt>
      <trkpt lat="42.70302" lon="1.35054">
        <ele>2468.6000976562</ele>
        <time>2023-07-24T10:12:29.000Z</time>
      </trkpt>
      <trkpt lat="42.703" lon="1.35052">
        <ele>2468.3999023438</ele>
        <time>2023-07-24T10:12:37.000Z</time>
      </trkpt>
      <trkpt lat="42.70302" lon="1.35053">
        <ele>2468.3999023438</ele>
        <time>2023-07-24T10:12:45.000Z</time>
      </trkpt>
      <trkpt lat="42.70302" lon="1.35054">
        <ele>2468</ele>
        <time>2023-07-24T10:12:48.000Z</time>
      </trkpt>
      <trkpt lat="42.70303" lon="1.35053">
        <ele>2467.8000488281</ele>
        <time>2023-07-24T10:12:52.000Z</time>
      </trkpt>
      <trkpt lat="42.70304" lon="1.35054">
        <ele>2467.8000488281</ele>
        <time>2023-07-24T10:13:02.000Z</time>
      </trkpt>
      <trkpt lat="42.70303" lon="1.35054">
        <ele>2467.6000976562</ele>
        <time>2023-07-24T10:13:13.000Z</time>
      </trkpt>
      <trkpt lat="42.703" lon="1.35054">
        <ele>2467.1999511719</ele>
        <time>2023-07-24T10:13:24.000Z</time>
      </trkpt>
      <trkpt lat="42.70301" lon="1.35055">
        <ele>2467.1999511719</ele>
        <time>2023-07-24T10:13:33.000Z</time>
      </trkpt>
      <trkpt lat="42.70302" lon="1.35056">
        <ele>2467</ele>
        <time>2023-07-24T10:13:40.000Z</time>
      </trkpt>
      <trkpt lat="42.703" lon="1.35056">
        <ele>2466.8000488281</ele>
        <time>2023-07-24T10:13:43.000Z</time>
      </trkpt>
      <trkpt lat="42.70301" lon="1.35055">
        <ele>2467</ele>
        <time>2023-07-24T10:13:46.000Z</time>
      </trkpt>
      <trkpt lat="42.70304" lon="1.35052">
        <ele>2466.8000488281</ele>
        <time>2023-07-24T10:32:15.000Z</time>
      </trkpt>
      <trkpt lat="42.70302" lon="1.35049">
        <ele>2466.6000976562</ele>
        <time>2023-07-24T10:32:18.000Z</time>
      </trkpt>
      <trkpt lat="42.703" lon="1.35052">
        <ele>2466.6000976562</ele>
        <time>2023-07-24T10:32:27.000Z</time>
      </trkpt>
      <trkpt lat="42.70301" lon="1.3505">
        <ele>2466.6000976562</ele>
        <time>2023-07-24T10:32:33.000Z</time>
      </trkpt>
      <trkpt lat="42.70304" lon="1.35052">
        <ele>2466.3999023438</ele>
        <time>2023-07-24T10:32:40.000Z</time>
      </trkpt>
      <trkpt lat="42.70308" lon="1.3505">
        <ele>2465.6000976562</ele>
        <time>2023-07-24T10:32:43.000Z</time>
      </trkpt>
      <trkpt lat="42.70308" lon="1.35049">
        <ele>2465</ele>
        <time>2023-07-24T10:32:46.000Z</time>
      </trkpt>
      <trkpt lat="42.70309" lon="1.35048">
        <ele>2464.6000976562</ele>
        <time>2023-07-24T10:32:47.000Z</time>
      </trkpt>
      <trkpt lat="42.7031" lon="1.35041">
        <ele>2464.3999023438</ele>
        <time>2023-07-24T10:32:52.000Z</time>
      </trkpt>
      <trkpt lat="42.70308" lon="1.35034">
        <ele>2463.3999023438</ele>
        <time>2023-07-24T10:32:57.000Z</time>
      </trkpt>
      <trkpt lat="42.70308" lon="1.35033">
        <ele>2462.8000488281</ele>
        <time>2023-07-24T10:32:58.000Z</time>
      </trkpt>
      <trkpt lat="42.70307" lon="1.35031">
        <ele>2462.1999511719</ele>
        <time>2023-07-24T10:33:00.000Z</time>
      </trkpt>
      <trkpt lat="42.70306" lon="1.35027">
        <ele>2462.1999511719</ele>
        <time>2023-07-24T10:33:05.000Z</time>
      </trkpt>
      <trkpt lat="42.70304" lon="1.35023">
        <ele>2461</ele>
        <time>2023-07-24T10:33:10.000Z</time>
      </trkpt>
      <trkpt lat="42.70304" lon="1.35022">
        <ele>2460.1999511719</ele>
        <time>2023-07-24T10:33:14.000Z</time>
      </trkpt>
      <trkpt lat="42.70304" lon="1.35021">
        <ele>2460</ele>
        <time>2023-07-24T10:33:16.000Z</time>
      </trkpt>
      <trkpt lat="42.70304" lon="1.35013">
        <ele>2459.1999511719</ele>
        <time>2023-07-24T10:33:21.000Z</time>
      </trkpt>
      <trkpt lat="42.70304" lon="1.35012">
        <ele>2459</ele>
        <time>2023-07-24T10:33:22.000Z</time>
      </trkpt>
      <trkpt lat="42.70304" lon="1.35011">
        <ele>2458</ele>
        <time>2023-07-24T10:33:25.000Z</time>
      </trkpt>
      <trkpt lat="42.70304" lon="1.35007">
        <ele>2457.6000976562</ele>
        <time>2023-07-24T10:33:29.000Z</time>
      </trkpt>
      <trkpt lat="42.70304" lon="1.35005">
        <ele>2457</ele>
        <time>2023-07-24T10:33:33.000Z</time>
      </trkpt>
      <trkpt lat="42.70305" lon="1.35002">
        <ele>2456.6000976562</ele>
        <time>2023-07-24T10:33:36.000Z</time>
      </trkpt>
      <trkpt lat="42.70305" lon="1.35002">
        <ele>2455.8000488281</ele>
        <time>2023-07-24T10:33:40.000Z</time>
      </trkpt>
      <trkpt lat="42.70306" lon="1.35002">
        <ele>2455.8000488281</ele>
        <time>2023-07-24T10:33:42.000Z</time>
      </trkpt>
      <trkpt lat="42.70305" lon="1.35">
        <ele>2455.6000976562</ele>
        <time>2023-07-24T10:33:48.000Z</time>
      </trkpt>
      <trkpt lat="42.70305" lon="1.34999">
        <ele>2455.6000976562</ele>
        <time>2023-07-24T10:33:49.000Z</time>
      </trkpt>
      <trkpt lat="42.70306" lon="1.34999">
        <ele>2455.6000976562</ele>
        <time>2023-07-24T10:33:57.000Z</time>
      </trkpt>
      <trkpt lat="42.70304" lon="1.35001">
        <ele>2455</ele>
        <time>2023-07-24T10:34:04.000Z</time>
      </trkpt>
      <trkpt lat="42.70301" lon="1.35">
        <ele>2455.6000976562</ele>
        <time>2023-07-24T10:34:09.000Z</time>
      </trkpt>
      <trkpt lat="42.70301" lon="1.34999">
        <ele>2454.3999023438</ele>
        <time>2023-07-24T10:34:14.000Z</time>
      </trkpt>
      <trkpt lat="42.703" lon="1.34998">
        <ele>2454</ele>
        <time>2023-07-24T10:34:16.000Z</time>
      </trkpt>
      <trkpt lat="42.703" lon="1.34997">
        <ele>2453.3999023438</ele>
        <time>2023-07-24T10:34:25.000Z</time>
      </trkpt>
      <trkpt lat="42.70301" lon="1.34992">
        <ele>2452.8000488281</ele>
        <time>2023-07-24T10:34:32.000Z</time>
      </trkpt>
      <trkpt lat="42.70301" lon="1.34989">
        <ele>2452.3999023438</ele>
        <time>2023-07-24T10:34:36.000Z</time>
      </trkpt>
      <trkpt lat="42.70303" lon="1.34983">
        <ele>2452</ele>
        <time>2023-07-24T10:34:40.000Z</time>
      </trkpt>
      <trkpt lat="42.70302" lon="1.34979">
        <ele>2451.1999511719</ele>
        <time>2023-07-24T10:34:45.000Z</time>
      </trkpt>
      <trkpt lat="42.70301" lon="1.34979">
        <ele>2451.1999511719</ele>
        <time>2023-07-24T10:34:46.000Z</time>
      </trkpt>
      <trkpt lat="42.70299" lon="1.34976">
        <ele>2450.3999023438</ele>
        <time>2023-07-24T10:34:53.000Z</time>
      </trkpt>
      <trkpt lat="42.70299" lon="1.34976">
        <ele>2449.8000488281</ele>
        <time>2023-07-24T10:34:54.000Z</time>
      </trkpt>
      <trkpt lat="42.70298" lon="1.34973">
        <ele>2448.6000976562</ele>
        <time>2023-07-24T10:34:57.000Z</time>
      </trkpt>
      <trkpt lat="42.70298" lon="1.3497">
        <ele>2448.3999023438</ele>
        <time>2023-07-24T10:35:00.000Z</time>
      </trkpt>
      <trkpt lat="42.70298" lon="1.34963">
        <ele>2447.3999023438</ele>
        <time>2023-07-24T10:35:08.000Z</time>
      </trkpt>
      <trkpt lat="42.70299" lon="1.34961">
        <ele>2446.1999511719</ele>
        <time>2023-07-24T10:35:10.000Z</time>
      </trkpt>
      <trkpt lat="42.70302" lon="1.3496">
        <ele>2445.8000488281</ele>
        <time>2023-07-24T10:35:14.000Z</time>
      </trkpt>
      <trkpt lat="42.70303" lon="1.34954">
        <ele>2445.1999511719</ele>
        <time>2023-07-24T10:35:18.000Z</time>
      </trkpt>
      <trkpt lat="42.70303" lon="1.34951">
        <ele>2444.6000976562</ele>
        <time>2023-07-24T10:35:20.000Z</time>
      </trkpt>
      <trkpt lat="42.70304" lon="1.34946">
        <ele>2444</ele>
        <time>2023-07-24T10:35:24.000Z</time>
      </trkpt>
      <trkpt lat="42.70303" lon="1.34944">
        <ele>2443.6000976562</ele>
        <time>2023-07-24T10:35:28.000Z</time>
      </trkpt>
      <trkpt lat="42.70302" lon="1.34939">
        <ele>2443</ele>
        <time>2023-07-24T10:35:34.000Z</time>
      </trkpt>
      <trkpt lat="42.70302" lon="1.34937">
        <ele>2443</ele>
        <time>2023-07-24T10:35:36.000Z</time>
      </trkpt>
      <trkpt lat="42.70305" lon="1.34927">
        <ele>2442</ele>
        <time>2023-07-24T10:35:44.000Z</time>
      </trkpt>
      <trkpt lat="42.70305" lon="1.34927">
        <ele>2442</ele>
        <time>2023-07-24T10:35:45.000Z</time>
      </trkpt>
      <trkpt lat="42.7031" lon="1.34922">
        <ele>2440.8000488281</ele>
        <time>2023-07-24T10:35:50.000Z</time>
      </trkpt>
      <trkpt lat="42.7031" lon="1.34921">
        <ele>2440.3999023438</ele>
        <time>2023-07-24T10:35:51.000Z</time>
      </trkpt>
      <trkpt lat="42.70312" lon="1.3492">
        <ele>2439.6000976562</ele>
        <time>2023-07-24T10:35:54.000Z</time>
      </trkpt>
      <trkpt lat="42.70313" lon="1.34919">
        <ele>2439</ele>
        <time>2023-07-24T10:35:58.000Z</time>
      </trkpt>
      <trkpt lat="42.70314" lon="1.34918">
        <ele>2438.3999023438</ele>
        <time>2023-07-24T10:36:01.000Z</time>
      </trkpt>
      <trkpt lat="42.70319" lon="1.3492">
        <ele>2437.8000488281</ele>
        <time>2023-07-24T10:36:07.000Z</time>
      </trkpt>
      <trkpt lat="42.70321" lon="1.3492">
        <ele>2437.3999023438</ele>
        <time>2023-07-24T10:36:08.000Z</time>
      </trkpt>
      <trkpt lat="42.70323" lon="1.34919">
        <ele>2436.3999023438</ele>
        <time>2023-07-24T10:36:12.000Z</time>
      </trkpt>
      <trkpt lat="42.70323" lon="1.34919">
        <ele>2436.1999511719</ele>
        <time>2023-07-24T10:36:13.000Z</time>
      </trkpt>
      <trkpt lat="42.70324" lon="1.34917">
        <ele>2435.1999511719</ele>
        <time>2023-07-24T10:36:17.000Z</time>
      </trkpt>
      <trkpt lat="42.70325" lon="1.34914">
        <ele>2434.3999023438</ele>
        <time>2023-07-24T10:36:20.000Z</time>
      </trkpt>
      <trkpt lat="42.70325" lon="1.34913">
        <ele>2434.1999511719</ele>
        <time>2023-07-24T10:36:21.000Z</time>
      </trkpt>
      <trkpt lat="42.70325" lon="1.34908">
        <ele>2433.1999511719</ele>
        <time>2023-07-24T10:36:26.000Z</time>
      </trkpt>
      <trkpt lat="42.70325" lon="1.34907">
        <ele>2433</ele>
        <time>2023-07-24T10:36:27.000Z</time>
      </trkpt>
      <trkpt lat="42.70325" lon="1.34901">
        <ele>2432.3999023438</ele>
        <time>2023-07-24T10:36:33.000Z</time>
      </trkpt>
      <trkpt lat="42.70326" lon="1.34898">
        <ele>2431.8000488281</ele>
        <time>2023-07-24T10:36:35.000Z</time>
      </trkpt>
      <trkpt lat="42.70325" lon="1.34897">
        <ele>2431.1999511719</ele>
        <time>2023-07-24T10:36:38.000Z</time>
      </trkpt>
      <trkpt lat="42.70324" lon="1.34894">
        <ele>2431</ele>
        <time>2023-07-24T10:36:41.000Z</time>
      </trkpt>
      <trkpt lat="42.70324" lon="1.34893">
        <ele>2430.8000488281</ele>
        <time>2023-07-24T10:36:42.000Z</time>
      </trkpt>
      <trkpt lat="42.70322" lon="1.3489">
        <ele>2429.6000976562</ele>
        <time>2023-07-24T10:36:46.000Z</time>
      </trkpt>
      <trkpt lat="42.70322" lon="1.34889">
        <ele>2429</ele>
        <time>2023-07-24T10:36:48.000Z</time>
      </trkpt>
      <trkpt lat="42.70322" lon="1.34887">
        <ele>2428.3999023438</ele>
        <time>2023-07-24T10:36:52.000Z</time>
      </trkpt>
      <trkpt lat="42.70325" lon="1.34883">
        <ele>2427.3999023438</ele>
        <time>2023-07-24T10:36:57.000Z</time>
      </trkpt>
      <trkpt lat="42.70328" lon="1.34882">
        <ele>2426.3999023438</ele>
        <time>2023-07-24T10:37:02.000Z</time>
      </trkpt>
      <trkpt lat="42.70328" lon="1.34879">
        <ele>2425.1999511719</ele>
        <time>2023-07-24T10:37:06.000Z</time>
      </trkpt>
      <trkpt lat="42.70325" lon="1.34875">
        <ele>2424</ele>
        <time>2023-07-24T10:37:13.000Z</time>
      </trkpt>
      <trkpt lat="42.70325" lon="1.34875">
        <ele>2423.8000488281</ele>
        <time>2023-07-24T10:37:14.000Z</time>
      </trkpt>
      <trkpt lat="42.70325" lon="1.3487">
        <ele>2423</ele>
        <time>2023-07-24T10:37:19.000Z</time>
      </trkpt>
      <trkpt lat="42.70325" lon="1.34869">
        <ele>2422.3999023438</ele>
        <time>2023-07-24T10:37:22.000Z</time>
      </trkpt>
      <trkpt lat="42.70325" lon="1.34868">
        <ele>2421.8000488281</ele>
        <time>2023-07-24T10:37:24.000Z</time>
      </trkpt>
      <trkpt lat="42.70326" lon="1.34865">
        <ele>2420.6000976562</ele>
        <time>2023-07-24T10:37:29.000Z</time>
      </trkpt>
      <trkpt lat="42.70326" lon="1.34864">
        <ele>2419.8000488281</ele>
        <time>2023-07-24T10:37:31.000Z</time>
      </trkpt>
      <trkpt lat="42.70326" lon="1.34865">
        <ele>2419.6000976562</ele>
        <time>2023-07-24T10:37:32.000Z</time>
      </trkpt>
      <trkpt lat="42.70326" lon="1.34863">
        <ele>2419</ele>
        <time>2023-07-24T10:37:38.000Z</time>
      </trkpt>
      <trkpt lat="42.70326" lon="1.34859">
        <ele>2418.3999023438</ele>
        <time>2023-07-24T10:37:43.000Z</time>
      </trkpt>
      <trkpt lat="42.70324" lon="1.34853">
        <ele>2417.3999023438</ele>
        <time>2023-07-24T10:37:47.000Z</time>
      </trkpt>
      <trkpt lat="42.70323" lon="1.3485">
        <ele>2417</ele>
        <time>2023-07-24T10:37:49.000Z</time>
      </trkpt>
      <trkpt lat="42.70321" lon="1.34845">
        <ele>2416.1999511719</ele>
        <time>2023-07-24T10:37:52.000Z</time>
      </trkpt>
      <trkpt lat="42.7032" lon="1.34842">
        <ele>2415.8000488281</ele>
        <time>2023-07-24T10:37:57.000Z</time>
      </trkpt>
      <trkpt lat="42.70321" lon="1.3484">
        <ele>2415.1999511719</ele>
        <time>2023-07-24T10:38:01.000Z</time>
      </trkpt>
      <trkpt lat="42.70321" lon="1.34835">
        <ele>2414.6000976562</ele>
        <time>2023-07-24T10:38:06.000Z</time>
      </trkpt>
      <trkpt lat="42.70321" lon="1.34837">
        <ele>2414</ele>
        <time>2023-07-24T10:38:09.000Z</time>
      </trkpt>
      <trkpt lat="42.70321" lon="1.34837">
        <ele>2413.3999023438</ele>
        <time>2023-07-24T10:38:11.000Z</time>
      </trkpt>
      <trkpt lat="42.70321" lon="1.34836">
        <ele>2412.8000488281</ele>
        <time>2023-07-24T10:38:13.000Z</time>
      </trkpt>
      <trkpt lat="42.70323" lon="1.34832">
        <ele>2412</ele>
        <time>2023-07-24T10:38:19.000Z</time>
      </trkpt>
      <trkpt lat="42.70323" lon="1.34832">
        <ele>2411.6000976562</ele>
        <time>2023-07-24T10:38:21.000Z</time>
      </trkpt>
      <trkpt lat="42.70324" lon="1.3483">
        <ele>2410.3999023438</ele>
        <time>2023-07-24T10:38:27.000Z</time>
      </trkpt>
      <trkpt lat="42.70326" lon="1.34829">
        <ele>2409.8000488281</ele>
        <time>2023-07-24T10:38:29.000Z</time>
      </trkpt>
      <trkpt lat="42.70328" lon="1.34827">
        <ele>2409.3999023438</ele>
        <time>2023-07-24T10:38:36.000Z</time>
      </trkpt>
      <trkpt lat="42.70328" lon="1.34825">
        <ele>2408.1999511719</ele>
        <time>2023-07-24T10:38:40.000Z</time>
      </trkpt>
      <trkpt lat="42.70331" lon="1.34825">
        <ele>2407.3999023438</ele>
        <time>2023-07-24T10:38:43.000Z</time>
      </trkpt>
      <trkpt lat="42.70331" lon="1.34825">
        <ele>2407</ele>
        <time>2023-07-24T10:38:44.000Z</time>
      </trkpt>
      <trkpt lat="42.70333" lon="1.34828">
        <ele>2405.8000488281</ele>
        <time>2023-07-24T10:38:48.000Z</time>
      </trkpt>
      <trkpt lat="42.70334" lon="1.34827">
        <ele>2405.3999023438</ele>
        <time>2023-07-24T10:38:50.000Z</time>
      </trkpt>
      <trkpt lat="42.70334" lon="1.34826">
        <ele>2405.1999511719</ele>
        <time>2023-07-24T10:38:51.000Z</time>
      </trkpt>
      <trkpt lat="42.70335" lon="1.34823">
        <ele>2405.3999023438</ele>
        <time>2023-07-24T10:38:57.000Z</time>
      </trkpt>
      <trkpt lat="42.70336" lon="1.34823">
        <ele>2404.6000976562</ele>
        <time>2023-07-24T10:38:59.000Z</time>
      </trkpt>
      <trkpt lat="42.70338" lon="1.34822">
        <ele>2403.6000976562</ele>
        <time>2023-07-24T10:39:03.000Z</time>
      </trkpt>
      <trkpt lat="42.70338" lon="1.34822">
        <ele>2402.6000976562</ele>
        <time>2023-07-24T10:39:06.000Z</time>
      </trkpt>
      <trkpt lat="42.70338" lon="1.34819">
        <ele>2401.3999023438</ele>
        <time>2023-07-24T10:39:14.000Z</time>
      </trkpt>
      <trkpt lat="42.70338" lon="1.34819">
        <ele>2401.1999511719</ele>
        <time>2023-07-24T10:39:15.000Z</time>
      </trkpt>
      <trkpt lat="42.70339" lon="1.34812">
        <ele>2400</ele>
        <time>2023-07-24T10:39:22.000Z</time>
      </trkpt>
      <trkpt lat="42.70339" lon="1.34808">
        <ele>2399.8000488281</ele>
        <time>2023-07-24T10:39:24.000Z</time>
      </trkpt>
      <trkpt lat="42.70339" lon="1.34805">
        <ele>2398.8000488281</ele>
        <time>2023-07-24T10:39:27.000Z</time>
      </trkpt>
      <trkpt lat="42.70339" lon="1.34802">
        <ele>2398</ele>
        <time>2023-07-24T10:39:30.000Z</time>
      </trkpt>
      <trkpt lat="42.7034" lon="1.34801">
        <ele>2397.8000488281</ele>
        <time>2023-07-24T10:39:31.000Z</time>
      </trkpt>
      <trkpt lat="42.70344" lon="1.34798">
        <ele>2396.6000976562</ele>
        <time>2023-07-24T10:39:36.000Z</time>
      </trkpt>
      <trkpt lat="42.70344" lon="1.34798">
        <ele>2396.3999023438</ele>
        <time>2023-07-24T10:39:37.000Z</time>
      </trkpt>
      <trkpt lat="42.70344" lon="1.34798">
        <ele>2395.6000976562</ele>
        <time>2023-07-24T10:39:41.000Z</time>
      </trkpt>
      <trkpt lat="42.70344" lon="1.34797">
        <ele>2395.3999023438</ele>
        <time>2023-07-24T10:39:43.000Z</time>
      </trkpt>
      <trkpt lat="42.70344" lon="1.34796">
        <ele>2395.1999511719</ele>
        <time>2023-07-24T10:39:44.000Z</time>
      </trkpt>
      <trkpt lat="42.70343" lon="1.34792">
        <ele>2394.8000488281</ele>
        <time>2023-07-24T10:39:51.000Z</time>
      </trkpt>
      <trkpt lat="42.70343" lon="1.34792">
        <ele>2394.6000976562</ele>
        <time>2023-07-24T10:39:52.000Z</time>
      </trkpt>
      <trkpt lat="42.70344" lon="1.3479">
        <ele>2393.6000976562</ele>
        <time>2023-07-24T10:39:57.000Z</time>
      </trkpt>
      <trkpt lat="42.70345" lon="1.34786">
        <ele>2393</ele>
        <time>2023-07-24T10:40:00.000Z</time>
      </trkpt>
      <trkpt lat="42.70345" lon="1.3478">
        <ele>2392.1999511719</ele>
        <time>2023-07-24T10:40:05.000Z</time>
      </trkpt>
      <trkpt lat="42.70346" lon="1.34778">
        <ele>2390.8000488281</ele>
        <time>2023-07-24T10:40:10.000Z</time>
      </trkpt>
      <trkpt lat="42.70348" lon="1.3478">
        <ele>2389.6000976562</ele>
        <time>2023-07-24T10:40:15.000Z</time>
      </trkpt>
      <trkpt lat="42.70348" lon="1.3478">
        <ele>2389.1999511719</ele>
        <time>2023-07-24T10:40:17.000Z</time>
      </trkpt>
      <trkpt lat="42.7035" lon="1.34779">
        <ele>2388.6000976562</ele>
        <time>2023-07-24T10:40:20.000Z</time>
      </trkpt>
      <trkpt lat="42.70352" lon="1.3478">
        <ele>2388</ele>
        <time>2023-07-24T10:40:24.000Z</time>
      </trkpt>
      <trkpt lat="42.70353" lon="1.3478">
        <ele>2387.1999511719</ele>
        <time>2023-07-24T10:40:28.000Z</time>
      </trkpt>
      <trkpt lat="42.70353" lon="1.34779">
        <ele>2386.6000976562</ele>
        <time>2023-07-24T10:40:30.000Z</time>
      </trkpt>
      <trkpt lat="42.70355" lon="1.34775">
        <ele>2386.1999511719</ele>
        <time>2023-07-24T10:40:37.000Z</time>
      </trkpt>
      <trkpt lat="42.70357" lon="1.34773">
        <ele>2385.1999511719</ele>
        <time>2023-07-24T10:40:40.000Z</time>
      </trkpt>
      <trkpt lat="42.70357" lon="1.34773">
        <ele>2385</ele>
        <time>2023-07-24T10:40:41.000Z</time>
      </trkpt>
      <trkpt lat="42.70359" lon="1.3477">
        <ele>2383.8000488281</ele>
        <time>2023-07-24T10:40:46.000Z</time>
      </trkpt>
      <trkpt lat="42.70361" lon="1.34767">
        <ele>2382.8000488281</ele>
        <time>2023-07-24T10:40:51.000Z</time>
      </trkpt>
      <trkpt lat="42.70362" lon="1.34768">
        <ele>2382</ele>
        <time>2023-07-24T10:40:56.000Z</time>
      </trkpt>
      <trkpt lat="42.70364" lon="1.34767">
        <ele>2381.6000976562</ele>
        <time>2023-07-24T10:40:59.000Z</time>
      </trkpt>
      <trkpt lat="42.70364" lon="1.34764">
        <ele>2381</ele>
        <time>2023-07-24T10:41:05.000Z</time>
      </trkpt>
      <trkpt lat="42.70365" lon="1.34762">
        <ele>2380.6000976562</ele>
        <time>2023-07-24T10:41:08.000Z</time>
      </trkpt>
      <trkpt lat="42.70365" lon="1.3476">
        <ele>2379.1999511719</ele>
        <time>2023-07-24T10:41:13.000Z</time>
      </trkpt>
      <trkpt lat="42.70366" lon="1.34759">
        <ele>2378.1999511719</ele>
        <time>2023-07-24T10:41:19.000Z</time>
      </trkpt>
      <trkpt lat="42.70369" lon="1.34759">
        <ele>2377.1999511719</ele>
        <time>2023-07-24T10:41:24.000Z</time>
      </trkpt>
      <trkpt lat="42.70371" lon="1.3476">
        <ele>2377</ele>
        <time>2023-07-24T10:41:26.000Z</time>
      </trkpt>
      <trkpt lat="42.70373" lon="1.34762">
        <ele>2376</ele>
        <time>2023-07-24T10:41:31.000Z</time>
      </trkpt>
      <trkpt lat="42.70373" lon="1.34761">
        <ele>2375</ele>
        <time>2023-07-24T10:41:36.000Z</time>
      </trkpt>
      <trkpt lat="42.70374" lon="1.34761">
        <ele>2374.8000488281</ele>
        <time>2023-07-24T10:41:37.000Z</time>
      </trkpt>
      <trkpt lat="42.70377" lon="1.34759">
        <ele>2373.8000488281</ele>
        <time>2023-07-24T10:41:45.000Z</time>
      </trkpt>
      <trkpt lat="42.70377" lon="1.34758">
        <ele>2373.8000488281</ele>
        <time>2023-07-24T10:41:46.000Z</time>
      </trkpt>
      <trkpt lat="42.70378" lon="1.34755">
        <ele>2373</ele>
        <time>2023-07-24T10:41:51.000Z</time>
      </trkpt>
      <trkpt lat="42.70378" lon="1.34753">
        <ele>2372.6000976562</ele>
        <time>2023-07-24T10:41:53.000Z</time>
      </trkpt>
      <trkpt lat="42.70379" lon="1.34752">
        <ele>2371.8000488281</ele>
        <time>2023-07-24T10:41:57.000Z</time>
      </trkpt>
      <trkpt lat="42.70379" lon="1.34753">
        <ele>2371.6000976562</ele>
        <time>2023-07-24T10:41:58.000Z</time>
      </trkpt>
      <trkpt lat="42.70379" lon="1.34753">
        <ele>2371.1999511719</ele>
        <time>2023-07-24T10:41:59.000Z</time>
      </trkpt>
      <trkpt lat="42.7038" lon="1.34757">
        <ele>2370.1999511719</ele>
        <time>2023-07-24T10:42:05.000Z</time>
      </trkpt>
      <trkpt lat="42.7038" lon="1.34758">
        <ele>2370.1999511719</ele>
        <time>2023-07-24T10:42:06.000Z</time>
      </trkpt>
      <trkpt lat="42.70381" lon="1.34763">
        <ele>2369.6000976562</ele>
        <time>2023-07-24T10:42:12.000Z</time>
      </trkpt>
      <trkpt lat="42.70382" lon="1.34763">
        <ele>2369</ele>
        <time>2023-07-24T10:42:16.000Z</time>
      </trkpt>
      <trkpt lat="42.70383" lon="1.34765">
        <ele>2369</ele>
        <time>2023-07-24T10:42:18.000Z</time>
      </trkpt>
      <trkpt lat="42.70386" lon="1.34762">
        <ele>2368.1999511719</ele>
        <time>2023-07-24T10:42:25.000Z</time>
      </trkpt>
      <trkpt lat="42.70387" lon="1.34761">
        <ele>2368</ele>
        <time>2023-07-24T10:42:27.000Z</time>
      </trkpt>
      <trkpt lat="42.70388" lon="1.34762">
        <ele>2367.6000976562</ele>
        <time>2023-07-24T10:42:33.000Z</time>
      </trkpt>
      <trkpt lat="42.70386" lon="1.3476">
        <ele>2367</ele>
        <time>2023-07-24T10:42:39.000Z</time>
      </trkpt>
      <trkpt lat="42.70387" lon="1.34758">
        <ele>2366.6000976562</ele>
        <time>2023-07-24T10:42:42.000Z</time>
      </trkpt>
      <trkpt lat="42.70389" lon="1.34756">
        <ele>2365.8000488281</ele>
        <time>2023-07-24T10:42:45.000Z</time>
      </trkpt>
      <trkpt lat="42.70392" lon="1.34754">
        <ele>2364.8000488281</ele>
        <time>2023-07-24T10:42:51.000Z</time>
      </trkpt>
      <trkpt lat="42.70392" lon="1.34754">
        <ele>2364.8000488281</ele>
        <time>2023-07-24T10:42:52.000Z</time>
      </trkpt>
      <trkpt lat="42.70392" lon="1.34753">
        <ele>2364.6000976562</ele>
        <time>2023-07-24T10:42:59.000Z</time>
      </trkpt>
      <trkpt lat="42.70393" lon="1.34752">
        <ele>2364.3999023438</ele>
        <time>2023-07-24T10:43:06.000Z</time>
      </trkpt>
      <trkpt lat="42.70394" lon="1.3475">
        <ele>2363.6000976562</ele>
        <time>2023-07-24T10:43:11.000Z</time>
      </trkpt>
      <trkpt lat="42.70394" lon="1.34749">
        <ele>2363.3999023438</ele>
        <time>2023-07-24T10:43:13.000Z</time>
      </trkpt>
      <trkpt lat="42.70394" lon="1.34748">
        <ele>2362.6000976562</ele>
        <time>2023-07-24T10:43:16.000Z</time>
      </trkpt>
      <trkpt lat="42.70395" lon="1.34744">
        <ele>2361.8000488281</ele>
        <time>2023-07-24T10:43:20.000Z</time>
      </trkpt>
      <trkpt lat="42.70395" lon="1.34742">
        <ele>2361.3999023438</ele>
        <time>2023-07-24T10:43:22.000Z</time>
      </trkpt>
      <trkpt lat="42.70397" lon="1.34738">
        <ele>2360.3999023438</ele>
        <time>2023-07-24T10:43:27.000Z</time>
      </trkpt>
      <trkpt lat="42.70399" lon="1.34737">
        <ele>2359.8000488281</ele>
        <time>2023-07-24T10:43:30.000Z</time>
      </trkpt>
      <trkpt lat="42.704" lon="1.34739">
        <ele>2359.3999023438</ele>
        <time>2023-07-24T10:43:32.000Z</time>
      </trkpt>
      <trkpt lat="42.70401" lon="1.34741">
        <ele>2358.8000488281</ele>
        <time>2023-07-24T10:43:34.000Z</time>
      </trkpt>
      <trkpt lat="42.70403" lon="1.34742">
        <ele>2358.1999511719</ele>
        <time>2023-07-24T10:43:37.000Z</time>
      </trkpt>
      <trkpt lat="42.70403" lon="1.34742">
        <ele>2357.6000976562</ele>
        <time>2023-07-24T10:43:41.000Z</time>
      </trkpt>
      <trkpt lat="42.70404" lon="1.34741">
        <ele>2357</ele>
        <time>2023-07-24T10:43:45.000Z</time>
      </trkpt>
      <trkpt lat="42.70404" lon="1.34739">
        <ele>2356.6000976562</ele>
        <time>2023-07-24T10:43:49.000Z</time>
      </trkpt>
      <trkpt lat="42.70406" lon="1.34735">
        <ele>2356</ele>
        <time>2023-07-24T10:43:53.000Z</time>
      </trkpt>
      <trkpt lat="42.70405" lon="1.34731">
        <ele>2355.3999023438</ele>
        <time>2023-07-24T10:43:57.000Z</time>
      </trkpt>
      <trkpt lat="42.70404" lon="1.34729">
        <ele>2354.8000488281</ele>
        <time>2023-07-24T10:44:00.000Z</time>
      </trkpt>
      <trkpt lat="42.70404" lon="1.34726">
        <ele>2354</ele>
        <time>2023-07-24T10:44:05.000Z</time>
      </trkpt>
      <trkpt lat="42.70404" lon="1.34726">
        <ele>2353.8000488281</ele>
        <time>2023-07-24T10:44:06.000Z</time>
      </trkpt>
      <trkpt lat="42.70404" lon="1.34726">
        <ele>2352.8000488281</ele>
        <time>2023-07-24T10:44:14.000Z</time>
      </trkpt>
      <trkpt lat="42.70408" lon="1.34729">
        <ele>2351.8000488281</ele>
        <time>2023-07-24T10:44:21.000Z</time>
      </trkpt>
      <trkpt lat="42.70409" lon="1.34729">
        <ele>2351.8000488281</ele>
        <time>2023-07-24T10:44:22.000Z</time>
      </trkpt>
      <trkpt lat="42.70415" lon="1.34728">
        <ele>2350.8000488281</ele>
        <time>2023-07-24T10:44:29.000Z</time>
      </trkpt>
      <trkpt lat="42.70416" lon="1.34728">
        <ele>2350.6000976562</ele>
        <time>2023-07-24T10:44:30.000Z</time>
      </trkpt>
      <trkpt lat="42.70419" lon="1.34726">
        <ele>2349.6000976562</ele>
        <time>2023-07-24T10:44:37.000Z</time>
      </trkpt>
      <trkpt lat="42.70419" lon="1.34725">
        <ele>2349.6000976562</ele>
        <time>2023-07-24T10:44:38.000Z</time>
      </trkpt>
      <trkpt lat="42.70421" lon="1.34721">
        <ele>2348.6000976562</ele>
        <time>2023-07-24T10:44:46.000Z</time>
      </trkpt>
      <trkpt lat="42.70422" lon="1.34721">
        <ele>2348.3999023438</ele>
        <time>2023-07-24T10:44:47.000Z</time>
      </trkpt>
      <trkpt lat="42.70425" lon="1.3472">
        <ele>2347.1999511719</ele>
        <time>2023-07-24T10:44:52.000Z</time>
      </trkpt>
      <trkpt lat="42.70426" lon="1.3472">
        <ele>2347</ele>
        <time>2023-07-24T10:44:53.000Z</time>
      </trkpt>
      <trkpt lat="42.70431" lon="1.34716">
        <ele>2346.1999511719</ele>
        <time>2023-07-24T10:45:00.000Z</time>
      </trkpt>
      <trkpt lat="42.70434" lon="1.34707">
        <ele>2345.3999023438</ele>
        <time>2023-07-24T10:45:07.000Z</time>
      </trkpt>
      <trkpt lat="42.70435" lon="1.34705">
        <ele>2345.1999511719</ele>
        <time>2023-07-24T10:45:12.000Z</time>
      </trkpt>
      <trkpt lat="42.70436" lon="1.34704">
        <ele>2345</ele>
        <time>2023-07-24T10:45:13.000Z</time>
      </trkpt>
      <trkpt lat="42.70438" lon="1.34704">
        <ele>2344</ele>
        <time>2023-07-24T10:45:17.000Z</time>
      </trkpt>
      <trkpt lat="42.70439" lon="1.34703">
        <ele>2343</ele>
        <time>2023-07-24T10:45:22.000Z</time>
      </trkpt>
      <trkpt lat="42.70439" lon="1.34702">
        <ele>2342.8000488281</ele>
        <time>2023-07-24T10:45:23.000Z</time>
      </trkpt>
      <trkpt lat="42.70439" lon="1.34701">
        <ele>2341.8000488281</ele>
        <time>2023-07-24T10:45:31.000Z</time>
      </trkpt>
      <trkpt lat="42.70439" lon="1.34701">
        <ele>2340.8000488281</ele>
        <time>2023-07-24T10:45:36.000Z</time>
      </trkpt>
      <trkpt lat="42.70442" lon="1.34699">
        <ele>2339</ele>
        <time>2023-07-24T10:45:45.000Z</time>
      </trkpt>
      <trkpt lat="42.70443" lon="1.34698">
        <ele>2338.8000488281</ele>
        <time>2023-07-24T10:45:47.000Z</time>
      </trkpt>
      <trkpt lat="42.70444" lon="1.34701">
        <ele>2338.1999511719</ele>
        <time>2023-07-24T10:45:51.000Z</time>
      </trkpt>
      <trkpt lat="42.70445" lon="1.34701">
        <ele>2337.6000976562</ele>
        <time>2023-07-24T10:45:54.000Z</time>
      </trkpt>
      <trkpt lat="42.70445" lon="1.347">
        <ele>2337.1999511719</ele>
        <time>2023-07-24T10:45:59.000Z</time>
      </trkpt>
      <trkpt lat="42.70448" lon="1.34698">
        <ele>2336.6000976562</ele>
        <time>2023-07-24T10:46:06.000Z</time>
      </trkpt>
      <trkpt lat="42.70449" lon="1.34698">
        <ele>2336</ele>
        <time>2023-07-24T10:46:08.000Z</time>
      </trkpt>
      <trkpt lat="42.7045" lon="1.34697">
        <ele>2335.3999023438</ele>
        <time>2023-07-24T10:46:10.000Z</time>
      </trkpt>
      <trkpt lat="42.70451" lon="1.347">
        <ele>2334.3999023438</ele>
        <time>2023-07-24T10:46:16.000Z</time>
      </trkpt>
      <trkpt lat="42.70455" lon="1.34698">
        <ele>2333.1999511719</ele>
        <time>2023-07-24T10:46:23.000Z</time>
      </trkpt>
      <trkpt lat="42.70455" lon="1.34697">
        <ele>2332.6000976562</ele>
        <time>2023-07-24T10:46:25.000Z</time>
      </trkpt>
      <trkpt lat="42.70456" lon="1.34695">
        <ele>2332.1999511719</ele>
        <time>2023-07-24T10:46:31.000Z</time>
      </trkpt>
      <trkpt lat="42.70457" lon="1.34695">
        <ele>2332</ele>
        <time>2023-07-24T10:46:32.000Z</time>
      </trkpt>
      <trkpt lat="42.70459" lon="1.34697">
        <ele>2331.1999511719</ele>
        <time>2023-07-24T10:46:38.000Z</time>
      </trkpt>
      <trkpt lat="42.70459" lon="1.34697">
        <ele>2331</ele>
        <time>2023-07-24T10:46:39.000Z</time>
      </trkpt>
      <trkpt lat="42.7046" lon="1.347">
        <ele>2330.3999023438</ele>
        <time>2023-07-24T10:46:44.000Z</time>
      </trkpt>
      <trkpt lat="42.70461" lon="1.347">
        <ele>2330</ele>
        <time>2023-07-24T10:46:47.000Z</time>
      </trkpt>
      <trkpt lat="42.70462" lon="1.347">
        <ele>2329</ele>
        <time>2023-07-24T10:46:50.000Z</time>
      </trkpt>
      <trkpt lat="42.70462" lon="1.347">
        <ele>2328.8000488281</ele>
        <time>2023-07-24T10:46:51.000Z</time>
      </trkpt>
      <trkpt lat="42.70465" lon="1.34698">
        <ele>2327.8000488281</ele>
        <time>2023-07-24T10:46:57.000Z</time>
      </trkpt>
      <trkpt lat="42.70467" lon="1.34698">
        <ele>2326.8000488281</ele>
        <time>2023-07-24T10:47:05.000Z</time>
      </trkpt>
      <trkpt lat="42.70467" lon="1.34699">
        <ele>2326.6000976562</ele>
        <time>2023-07-24T10:47:06.000Z</time>
      </trkpt>
      <trkpt lat="42.70469" lon="1.34696">
        <ele>2325.8000488281</ele>
        <time>2023-07-24T10:47:14.000Z</time>
      </trkpt>
      <trkpt lat="42.7047" lon="1.34697">
        <ele>2325.6000976562</ele>
        <time>2023-07-24T10:47:15.000Z</time>
      </trkpt>
      <trkpt lat="42.70472" lon="1.34697">
        <ele>2324.8000488281</ele>
        <time>2023-07-24T10:47:21.000Z</time>
      </trkpt>
      <trkpt lat="42.70473" lon="1.34698">
        <ele>2324.3999023438</ele>
        <time>2023-07-24T10:47:23.000Z</time>
      </trkpt>
      <trkpt lat="42.70472" lon="1.34697">
        <ele>2324.1999511719</ele>
        <time>2023-07-24T10:47:29.000Z</time>
      </trkpt>
      <trkpt lat="42.70473" lon="1.34694">
        <ele>2323.3999023438</ele>
        <time>2023-07-24T10:47:34.000Z</time>
      </trkpt>
      <trkpt lat="42.70474" lon="1.34693">
        <ele>2323</ele>
        <time>2023-07-24T10:47:37.000Z</time>
      </trkpt>
      <trkpt lat="42.70475" lon="1.34692">
        <ele>2322.1999511719</ele>
        <time>2023-07-24T10:47:40.000Z</time>
      </trkpt>
      <trkpt lat="42.70475" lon="1.3469">
        <ele>2321.6000976562</ele>
        <time>2023-07-24T10:47:44.000Z</time>
      </trkpt>
      <trkpt lat="42.70475" lon="1.34689">
        <ele>2321.3999023438</ele>
        <time>2023-07-24T10:47:46.000Z</time>
      </trkpt>
      <trkpt lat="42.70476" lon="1.34688">
        <ele>2321.1999511719</ele>
        <time>2023-07-24T10:47:47.000Z</time>
      </trkpt>
      <trkpt lat="42.70476" lon="1.34688">
        <ele>2321</ele>
        <time>2023-07-24T10:47:50.000Z</time>
      </trkpt>
      <trkpt lat="42.70472" lon="1.34682">
        <ele>2320.8000488281</ele>
        <time>2023-07-24T10:48:00.000Z</time>
      </trkpt>
      <trkpt lat="42.70474" lon="1.34679">
        <ele>2319.8000488281</ele>
        <time>2023-07-24T10:48:06.000Z</time>
      </trkpt>
      <trkpt lat="42.70476" lon="1.34678">
        <ele>2319.3999023438</ele>
        <time>2023-07-24T10:48:08.000Z</time>
      </trkpt>
      <trkpt lat="42.70477" lon="1.34678">
        <ele>2318.6000976562</ele>
        <time>2023-07-24T10:48:11.000Z</time>
      </trkpt>
      <trkpt lat="42.70479" lon="1.34678">
        <ele>2318.1999511719</ele>
        <time>2023-07-24T10:48:14.000Z</time>
      </trkpt>
      <trkpt lat="42.70479" lon="1.34678">
        <ele>2317.6000976562</ele>
        <time>2023-07-24T10:48:20.000Z</time>
      </trkpt>
      <trkpt lat="42.7048" lon="1.34677">
        <ele>2317.3999023438</ele>
        <time>2023-07-24T10:48:22.000Z</time>
      </trkpt>
      <trkpt lat="42.70486" lon="1.34675">
        <ele>2317</ele>
        <time>2023-07-24T10:48:28.000Z</time>
      </trkpt>
      <trkpt lat="42.7049" lon="1.34673">
        <ele>2316.6000976562</ele>
        <time>2023-07-24T10:48:32.000Z</time>
      </trkpt>
      <trkpt lat="42.70492" lon="1.3467">
        <ele>2316.1999511719</ele>
        <time>2023-07-24T10:48:35.000Z</time>
      </trkpt>
      <trkpt lat="42.70495" lon="1.34665">
        <ele>2315.3999023438</ele>
        <time>2023-07-24T10:48:41.000Z</time>
      </trkpt>
      <trkpt lat="42.70495" lon="1.34665">
        <ele>2315.3999023438</ele>
        <time>2023-07-24T10:48:42.000Z</time>
      </trkpt>
      <trkpt lat="42.70496" lon="1.34663">
        <ele>2314.1999511719</ele>
        <time>2023-07-24T10:48:45.000Z</time>
      </trkpt>
      <trkpt lat="42.70496" lon="1.34661">
        <ele>2313.8000488281</ele>
        <time>2023-07-24T10:48:48.000Z</time>
      </trkpt>
      <trkpt lat="42.70497" lon="1.3466">
        <ele>2313.6000976562</ele>
        <time>2023-07-24T10:48:49.000Z</time>
      </trkpt>
      <trkpt lat="42.70497" lon="1.3466">
        <ele>2313.1999511719</ele>
        <time>2023-07-24T10:48:52.000Z</time>
      </trkpt>
      <trkpt lat="42.70496" lon="1.34659">
        <ele>2312.6000976562</ele>
        <time>2023-07-24T10:48:54.000Z</time>
      </trkpt>
      <trkpt lat="42.70494" lon="1.34656">
        <ele>2312.3999023438</ele>
        <time>2023-07-24T10:48:57.000Z</time>
      </trkpt>
      <trkpt lat="42.70493" lon="1.34654">
        <ele>2312</ele>
        <time>2023-07-24T10:48:59.000Z</time>
      </trkpt>
      <trkpt lat="42.70493" lon="1.34651">
        <ele>2311</ele>
        <time>2023-07-24T10:49:02.000Z</time>
      </trkpt>
      <trkpt lat="42.70493" lon="1.3465">
        <ele>2310.6000976562</ele>
        <time>2023-07-24T10:49:04.000Z</time>
      </trkpt>
      <trkpt lat="42.70495" lon="1.34649">
        <ele>2309.6000976562</ele>
        <time>2023-07-24T10:49:06.000Z</time>
      </trkpt>
      <trkpt lat="42.70497" lon="1.34646">
        <ele>2308.8000488281</ele>
        <time>2023-07-24T10:49:12.000Z</time>
      </trkpt>
      <trkpt lat="42.705" lon="1.34641">
        <ele>2308.8000488281</ele>
        <time>2023-07-24T10:49:19.000Z</time>
      </trkpt>
      <trkpt lat="42.70501" lon="1.3464">
        <ele>2308.3999023438</ele>
        <time>2023-07-24T10:49:21.000Z</time>
      </trkpt>
      <trkpt lat="42.70502" lon="1.34636">
        <ele>2308</ele>
        <time>2023-07-24T10:49:25.000Z</time>
      </trkpt>
      <trkpt lat="42.70504" lon="1.34633">
        <ele>2307.3999023438</ele>
        <time>2023-07-24T10:49:31.000Z</time>
      </trkpt>
      <trkpt lat="42.70504" lon="1.3463">
        <ele>2306.6000976562</ele>
        <time>2023-07-24T10:49:34.000Z</time>
      </trkpt>
      <trkpt lat="42.70504" lon="1.34629">
        <ele>2306.1999511719</ele>
        <time>2023-07-24T10:49:35.000Z</time>
      </trkpt>
      <trkpt lat="42.70504" lon="1.34625">
        <ele>2305.1999511719</ele>
        <time>2023-07-24T10:49:42.000Z</time>
      </trkpt>
      <trkpt lat="42.70504" lon="1.34625">
        <ele>2305.1999511719</ele>
        <time>2023-07-24T10:49:43.000Z</time>
      </trkpt>
      <trkpt lat="42.70506" lon="1.34624">
        <ele>2303.8000488281</ele>
        <time>2023-07-24T10:49:50.000Z</time>
      </trkpt>
      <trkpt lat="42.70507" lon="1.34623">
        <ele>2303.8000488281</ele>
        <time>2023-07-24T10:49:52.000Z</time>
      </trkpt>
      <trkpt lat="42.70511" lon="1.34616">
        <ele>2302.6000976562</ele>
        <time>2023-07-24T10:49:58.000Z</time>
      </trkpt>
      <trkpt lat="42.70511" lon="1.34615">
        <ele>2302.6000976562</ele>
        <time>2023-07-24T10:50:00.000Z</time>
      </trkpt>
      <trkpt lat="42.70511" lon="1.34617">
        <ele>2302.1999511719</ele>
        <time>2023-07-24T10:50:06.000Z</time>
      </trkpt>
      <trkpt lat="42.70512" lon="1.34615">
        <ele>2302.1999511719</ele>
        <time>2023-07-24T10:50:13.000Z</time>
      </trkpt>
      <trkpt lat="42.70513" lon="1.34609">
        <ele>2301.8000488281</ele>
        <time>2023-07-24T10:50:19.000Z</time>
      </trkpt>
      <trkpt lat="42.70514" lon="1.3461">
        <ele>2302.1999511719</ele>
        <time>2023-07-24T10:50:25.000Z</time>
      </trkpt>
      <trkpt lat="42.70515" lon="1.34606">
        <ele>2301.8000488281</ele>
        <time>2023-07-24T10:50:33.000Z</time>
      </trkpt>
      <trkpt lat="42.70516" lon="1.34604">
        <ele>2301.6000976562</ele>
        <time>2023-07-24T10:50:36.000Z</time>
      </trkpt>
      <trkpt lat="42.70516" lon="1.34601">
        <ele>2301.1999511719</ele>
        <time>2023-07-24T10:50:40.000Z</time>
      </trkpt>
      <trkpt lat="42.70517" lon="1.34596">
        <ele>2300.6000976562</ele>
        <time>2023-07-24T10:50:44.000Z</time>
      </trkpt>
      <trkpt lat="42.70518" lon="1.34592">
        <ele>2299.6000976562</ele>
        <time>2023-07-24T10:50:49.000Z</time>
      </trkpt>
      <trkpt lat="42.70519" lon="1.34592">
        <ele>2299.1999511719</ele>
        <time>2023-07-24T10:50:51.000Z</time>
      </trkpt>
      <trkpt lat="42.70519" lon="1.34589">
        <ele>2298.3999023438</ele>
        <time>2023-07-24T10:50:55.000Z</time>
      </trkpt>
      <trkpt lat="42.70519" lon="1.34586">
        <ele>2297.8000488281</ele>
        <time>2023-07-24T10:50:58.000Z</time>
      </trkpt>
      <trkpt lat="42.70519" lon="1.34586">
        <ele>2297.1999511719</ele>
        <time>2023-07-24T10:51:00.000Z</time>
      </trkpt>
      <trkpt lat="42.7052" lon="1.34585">
        <ele>2297</ele>
        <time>2023-07-24T10:51:04.000Z</time>
      </trkpt>
      <trkpt lat="42.70521" lon="1.34583">
        <ele>2295.8000488281</ele>
        <time>2023-07-24T10:51:09.000Z</time>
      </trkpt>
      <trkpt lat="42.70523" lon="1.3458">
        <ele>2294.6000976562</ele>
        <time>2023-07-24T10:51:13.000Z</time>
      </trkpt>
      <trkpt lat="42.70523" lon="1.34579">
        <ele>2294.3999023438</ele>
        <time>2023-07-24T10:51:14.000Z</time>
      </trkpt>
      <trkpt lat="42.70523" lon="1.34575">
        <ele>2293.3999023438</ele>
        <time>2023-07-24T10:51:19.000Z</time>
      </trkpt>
      <trkpt lat="42.70522" lon="1.34574">
        <ele>2293.1999511719</ele>
        <time>2023-07-24T10:51:20.000Z</time>
      </trkpt>
      <trkpt lat="42.70522" lon="1.34572">
        <ele>2292.3999023438</ele>
        <time>2023-07-24T10:51:23.000Z</time>
      </trkpt>
      <trkpt lat="42.70522" lon="1.3457">
        <ele>2291</ele>
        <time>2023-07-24T10:51:28.000Z</time>
      </trkpt>
      <trkpt lat="42.70522" lon="1.34569">
        <ele>2291</ele>
        <time>2023-07-24T10:51:29.000Z</time>
      </trkpt>
      <trkpt lat="42.70523" lon="1.34566">
        <ele>2290</ele>
        <time>2023-07-24T10:51:35.000Z</time>
      </trkpt>
      <trkpt lat="42.70523" lon="1.34566">
        <ele>2289.8000488281</ele>
        <time>2023-07-24T10:51:36.000Z</time>
      </trkpt>
      <trkpt lat="42.70525" lon="1.34561">
        <ele>2289</ele>
        <time>2023-07-24T10:51:40.000Z</time>
      </trkpt>
      <trkpt lat="42.70526" lon="1.3456">
        <ele>2288.3999023438</ele>
        <time>2023-07-24T10:51:42.000Z</time>
      </trkpt>
      <trkpt lat="42.70527" lon="1.3456">
        <ele>2287.8000488281</ele>
        <time>2023-07-24T10:51:44.000Z</time>
      </trkpt>
      <trkpt lat="42.70527" lon="1.34561">
        <ele>2287.3999023438</ele>
        <time>2023-07-24T10:51:48.000Z</time>
      </trkpt>
      <trkpt lat="42.70527" lon="1.34561">
        <ele>2287.3999023438</ele>
        <time>2023-07-24T10:51:50.000Z</time>
      </trkpt>
      <trkpt lat="42.70525" lon="1.34559">
        <ele>2287</ele>
        <time>2023-07-24T10:51:58.000Z</time>
      </trkpt>
      <trkpt lat="42.70525" lon="1.34557">
        <ele>2286.3999023438</ele>
        <time>2023-07-24T10:52:00.000Z</time>
      </trkpt>
      <trkpt lat="42.70525" lon="1.34556">
        <ele>2286</ele>
        <time>2023-07-24T10:52:05.000Z</time>
      </trkpt>
      <trkpt lat="42.70525" lon="1.34554">
        <ele>2285.3999023438</ele>
        <time>2023-07-24T10:52:09.000Z</time>
      </trkpt>
      <trkpt lat="42.70524" lon="1.34553">
        <ele>2285</ele>
        <time>2023-07-24T10:52:13.000Z</time>
      </trkpt>
      <trkpt lat="42.70525" lon="1.34551">
        <ele>2284.1999511719</ele>
        <time>2023-07-24T10:52:18.000Z</time>
      </trkpt>
      <trkpt lat="42.70525" lon="1.34549">
        <ele>2283.8000488281</ele>
        <time>2023-07-24T10:52:20.000Z</time>
      </trkpt>
      <trkpt lat="42.70527" lon="1.34545">
        <ele>2283</ele>
        <time>2023-07-24T10:52:25.000Z</time>
      </trkpt>
      <trkpt lat="42.70529" lon="1.34545">
        <ele>2282</ele>
        <time>2023-07-24T10:52:28.000Z</time>
      </trkpt>
      <trkpt lat="42.70529" lon="1.34545">
        <ele>2281.8000488281</ele>
        <time>2023-07-24T10:52:29.000Z</time>
      </trkpt>
      <trkpt lat="42.70531" lon="1.34544">
        <ele>2280.8000488281</ele>
        <time>2023-07-24T10:52:33.000Z</time>
      </trkpt>
      <trkpt lat="42.70533" lon="1.34543">
        <ele>2279.8000488281</ele>
        <time>2023-07-24T10:52:38.000Z</time>
      </trkpt>
      <trkpt lat="42.70535" lon="1.34541">
        <ele>2278.8000488281</ele>
        <time>2023-07-24T10:52:43.000Z</time>
      </trkpt>
      <trkpt lat="42.70536" lon="1.34539">
        <ele>2277.6000976562</ele>
        <time>2023-07-24T10:52:46.000Z</time>
      </trkpt>
      <trkpt lat="42.70539" lon="1.34536">
        <ele>2276.6000976562</ele>
        <time>2023-07-24T10:52:54.000Z</time>
      </trkpt>
      <trkpt lat="42.70539" lon="1.34533">
        <ele>2275.3999023438</ele>
        <time>2023-07-24T10:52:59.000Z</time>
      </trkpt>
      <trkpt lat="42.7054" lon="1.3453">
        <ele>2275.1999511719</ele>
        <time>2023-07-24T10:53:07.000Z</time>
      </trkpt>
      <trkpt lat="42.7054" lon="1.34529">
        <ele>2274.1999511719</ele>
        <time>2023-07-24T10:53:11.000Z</time>
      </trkpt>
      <trkpt lat="42.70539" lon="1.34529">
        <ele>2274</ele>
        <time>2023-07-24T10:53:16.000Z</time>
      </trkpt>
      <trkpt lat="42.70542" lon="1.34533">
        <ele>2274.1999511719</ele>
        <time>2023-07-24T10:53:26.000Z</time>
      </trkpt>
      <trkpt lat="42.70538" lon="1.34528">
        <ele>2274.3999023438</ele>
        <time>2023-07-24T10:53:34.000Z</time>
      </trkpt>
      <trkpt lat="42.70535" lon="1.34525">
        <ele>2273.8000488281</ele>
        <time>2023-07-24T10:53:41.000Z</time>
      </trkpt>
      <trkpt lat="42.70534" lon="1.34524">
        <ele>2273</ele>
        <time>2023-07-24T10:53:44.000Z</time>
      </trkpt>
      <trkpt lat="42.70534" lon="1.34523">
        <ele>2272</ele>
        <time>2023-07-24T10:53:48.000Z</time>
      </trkpt>
      <trkpt lat="42.70534" lon="1.34521">
        <ele>2270.8000488281</ele>
        <time>2023-07-24T10:53:53.000Z</time>
      </trkpt>
      <trkpt lat="42.70533" lon="1.34519">
        <ele>2270.3999023438</ele>
        <time>2023-07-24T10:53:56.000Z</time>
      </trkpt>
      <trkpt lat="42.70531" lon="1.34518">
        <ele>2269.6000976562</ele>
        <time>2023-07-24T10:54:03.000Z</time>
      </trkpt>
      <trkpt lat="42.7053" lon="1.34519">
        <ele>2269.1999511719</ele>
        <time>2023-07-24T10:54:06.000Z</time>
      </trkpt>
      <trkpt lat="42.70529" lon="1.34517">
        <ele>2268.6000976562</ele>
        <time>2023-07-24T10:54:10.000Z</time>
      </trkpt>
      <trkpt lat="42.70527" lon="1.34515">
        <ele>2267.6000976562</ele>
        <time>2023-07-24T10:54:15.000Z</time>
      </trkpt>
      <trkpt lat="42.70526" lon="1.34515">
        <ele>2267.3999023438</ele>
        <time>2023-07-24T10:54:17.000Z</time>
      </trkpt>
      <trkpt lat="42.70526" lon="1.34514">
        <ele>2266.6000976562</ele>
        <time>2023-07-24T10:54:22.000Z</time>
      </trkpt>
      <trkpt lat="42.70526" lon="1.34513">
        <ele>2266.3999023438</ele>
        <time>2023-07-24T10:54:23.000Z</time>
      </trkpt>
      <trkpt lat="42.70527" lon="1.34511">
        <ele>2265.3999023438</ele>
        <time>2023-07-24T10:54:30.000Z</time>
      </trkpt>
      <trkpt lat="42.70526" lon="1.34511">
        <ele>2264.3999023438</ele>
        <time>2023-07-24T10:54:37.000Z</time>
      </trkpt>
      <trkpt lat="42.70525" lon="1.3451">
        <ele>2264.1999511719</ele>
        <time>2023-07-24T10:54:39.000Z</time>
      </trkpt>
      <trkpt lat="42.70524" lon="1.34509">
        <ele>2263.3999023438</ele>
        <time>2023-07-24T10:54:45.000Z</time>
      </trkpt>
      <trkpt lat="42.70524" lon="1.34508">
        <ele>2263.1999511719</ele>
        <time>2023-07-24T10:54:46.000Z</time>
      </trkpt>
      <trkpt lat="42.70523" lon="1.34508">
        <ele>2262.1999511719</ele>
        <time>2023-07-24T10:54:51.000Z</time>
      </trkpt>
      <trkpt lat="42.70523" lon="1.34509">
        <ele>2262</ele>
        <time>2023-07-24T10:54:54.000Z</time>
      </trkpt>
      <trkpt lat="42.70524" lon="1.34508">
        <ele>2261.3999023438</ele>
        <time>2023-07-24T10:55:01.000Z</time>
      </trkpt>
      <trkpt lat="42.70525" lon="1.34508">
        <ele>2261.1999511719</ele>
        <time>2023-07-24T10:55:05.000Z</time>
      </trkpt>
      <trkpt lat="42.70526" lon="1.34508">
        <ele>2260.8000488281</ele>
        <time>2023-07-24T10:55:08.000Z</time>
      </trkpt>
      <trkpt lat="42.70527" lon="1.34508">
        <ele>2260</ele>
        <time>2023-07-24T10:55:11.000Z</time>
      </trkpt>
      <trkpt lat="42.70528" lon="1.34507">
        <ele>2258.8000488281</ele>
        <time>2023-07-24T10:55:16.000Z</time>
      </trkpt>
      <trkpt lat="42.70529" lon="1.34507">
        <ele>2258.8000488281</ele>
        <time>2023-07-24T10:55:17.000Z</time>
      </trkpt>
      <trkpt lat="42.70529" lon="1.34506">
        <ele>2257.8000488281</ele>
        <time>2023-07-24T10:55:22.000Z</time>
      </trkpt>
      <trkpt lat="42.70531" lon="1.34505">
        <ele>2257.1999511719</ele>
        <time>2023-07-24T10:55:28.000Z</time>
      </trkpt>
      <trkpt lat="42.70531" lon="1.34502">
        <ele>2256.8000488281</ele>
        <time>2023-07-24T10:55:34.000Z</time>
      </trkpt>
      <trkpt lat="42.70531" lon="1.34502">
        <ele>2256.6000976562</ele>
        <time>2023-07-24T10:55:37.000Z</time>
      </trkpt>
      <trkpt lat="42.70534" lon="1.345">
        <ele>2255.6000976562</ele>
        <time>2023-07-24T10:55:42.000Z</time>
      </trkpt>
      <trkpt lat="42.70535" lon="1.345">
        <ele>2255.1999511719</ele>
        <time>2023-07-24T10:55:44.000Z</time>
      </trkpt>
      <trkpt lat="42.70536" lon="1.34501">
        <ele>2254.6000976562</ele>
        <time>2023-07-24T10:55:47.000Z</time>
      </trkpt>
      <trkpt lat="42.70538" lon="1.34501">
        <ele>2254</ele>
        <time>2023-07-24T10:55:50.000Z</time>
      </trkpt>
      <trkpt lat="42.70538" lon="1.34501">
        <ele>2253.3999023438</ele>
        <time>2023-07-24T10:55:53.000Z</time>
      </trkpt>
      <trkpt lat="42.70539" lon="1.34502">
        <ele>2253.1999511719</ele>
        <time>2023-07-24T10:55:58.000Z</time>
      </trkpt>
      <trkpt lat="42.70539" lon="1.34502">
        <ele>2252.3999023438</ele>
        <time>2023-07-24T10:56:04.000Z</time>
      </trkpt>
      <trkpt lat="42.70538" lon="1.345">
        <ele>2252</ele>
        <time>2023-07-24T10:56:08.000Z</time>
      </trkpt>
      <trkpt lat="42.7054" lon="1.34498">
        <ele>2251.3999023438</ele>
        <time>2023-07-24T10:56:16.000Z</time>
      </trkpt>
      <trkpt lat="42.70541" lon="1.34498">
        <ele>2251.1999511719</ele>
        <time>2023-07-24T10:56:17.000Z</time>
      </trkpt>
      <trkpt lat="42.7054" lon="1.34496">
        <ele>2250.3999023438</ele>
        <time>2023-07-24T10:56:23.000Z</time>
      </trkpt>
      <trkpt lat="42.7054" lon="1.34496">
        <ele>2250.1999511719</ele>
        <time>2023-07-24T10:56:24.000Z</time>
      </trkpt>
      <trkpt lat="42.70542" lon="1.34495">
        <ele>2249.1999511719</ele>
        <time>2023-07-24T10:56:31.000Z</time>
      </trkpt>
      <trkpt lat="42.70541" lon="1.34494">
        <ele>2249.1999511719</ele>
        <time>2023-07-24T10:56:32.000Z</time>
      </trkpt>
      <trkpt lat="42.70544" lon="1.34489">
        <ele>2248</ele>
        <time>2023-07-24T10:56:40.000Z</time>
      </trkpt>
      <trkpt lat="42.70547" lon="1.34492">
        <ele>2246</ele>
        <time>2023-07-24T10:56:53.000Z</time>
      </trkpt>
      <trkpt lat="42.70548" lon="1.34491">
        <ele>2246</ele>
        <time>2023-07-24T10:56:54.000Z</time>
      </trkpt>
      <trkpt lat="42.70548" lon="1.3449">
        <ele>2245</ele>
        <time>2023-07-24T10:57:01.000Z</time>
      </trkpt>
      <trkpt lat="42.70549" lon="1.3449">
        <ele>2244.8000488281</ele>
        <time>2023-07-24T10:57:03.000Z</time>
      </trkpt>
      <trkpt lat="42.70549" lon="1.34491">
        <ele>2244.1999511719</ele>
        <time>2023-07-24T10:57:09.000Z</time>
      </trkpt>
      <trkpt lat="42.7055" lon="1.34491">
        <ele>2243.8000488281</ele>
        <time>2023-07-24T10:57:14.000Z</time>
      </trkpt>
      <trkpt lat="42.70552" lon="1.34489">
        <ele>2243.1999511719</ele>
        <time>2023-07-24T10:57:20.000Z</time>
      </trkpt>
      <trkpt lat="42.70554" lon="1.34486">
        <ele>2240.3999023438</ele>
        <time>2023-07-24T10:57:37.000Z</time>
      </trkpt>
      <trkpt lat="42.70555" lon="1.3449">
        <ele>2239.3999023438</ele>
        <time>2023-07-24T10:57:42.000Z</time>
      </trkpt>
      <trkpt lat="42.70554" lon="1.34494">
        <ele>2239</ele>
        <time>2023-07-24T10:57:46.000Z</time>
      </trkpt>
      <trkpt lat="42.70557" lon="1.34487">
        <ele>2238.1999511719</ele>
        <time>2023-07-24T10:57:54.000Z</time>
      </trkpt>
      <trkpt lat="42.70558" lon="1.34487">
        <ele>2238</ele>
        <time>2023-07-24T10:57:55.000Z</time>
      </trkpt>
      <trkpt lat="42.7056" lon="1.34487">
        <ele>2237</ele>
        <time>2023-07-24T10:58:01.000Z</time>
      </trkpt>
      <trkpt lat="42.70561" lon="1.34488">
        <ele>2237</ele>
        <time>2023-07-24T10:58:02.000Z</time>
      </trkpt>
      <trkpt lat="42.70563" lon="1.34489">
        <ele>2236</ele>
        <time>2023-07-24T10:58:12.000Z</time>
      </trkpt>
      <trkpt lat="42.70566" lon="1.34487">
        <ele>2235</ele>
        <time>2023-07-24T10:58:19.000Z</time>
      </trkpt>
      <trkpt lat="42.70567" lon="1.34486">
        <ele>2234.8000488281</ele>
        <time>2023-07-24T10:58:21.000Z</time>
      </trkpt>
      <trkpt lat="42.70571" lon="1.34489">
        <ele>2234</ele>
        <time>2023-07-24T10:58:27.000Z</time>
      </trkpt>
      <trkpt lat="42.70573" lon="1.34491">
        <ele>2233.8000488281</ele>
        <time>2023-07-24T10:58:29.000Z</time>
      </trkpt>
      <trkpt lat="42.70574" lon="1.34491">
        <ele>2233.1999511719</ele>
        <time>2023-07-24T10:58:34.000Z</time>
      </trkpt>
      <trkpt lat="42.70573" lon="1.3449">
        <ele>2232.8000488281</ele>
        <time>2023-07-24T10:58:37.000Z</time>
      </trkpt>
      <trkpt lat="42.70574" lon="1.34492">
        <ele>2232.1999511719</ele>
        <time>2023-07-24T10:58:42.000Z</time>
      </trkpt>
      <trkpt lat="42.70574" lon="1.34491">
        <ele>2231.6000976562</ele>
        <time>2023-07-24T10:58:44.000Z</time>
      </trkpt>
      <trkpt lat="42.70577" lon="1.34491">
        <ele>2231</ele>
        <time>2023-07-24T10:58:48.000Z</time>
      </trkpt>
      <trkpt lat="42.70585" lon="1.34491">
        <ele>2229.3999023438</ele>
        <time>2023-07-24T10:59:00.000Z</time>
      </trkpt>
      <trkpt lat="42.70585" lon="1.34491">
        <ele>2229.3999023438</ele>
        <time>2023-07-24T10:59:02.000Z</time>
      </trkpt>
      <trkpt lat="42.70584" lon="1.34489">
        <ele>2228.8000488281</ele>
        <time>2023-07-24T10:59:07.000Z</time>
      </trkpt>
      <trkpt lat="42.70584" lon="1.34489">
        <ele>2228.1999511719</ele>
        <time>2023-07-24T10:59:09.000Z</time>
      </trkpt>
      <trkpt lat="42.70583" lon="1.34487">
        <ele>2227.8000488281</ele>
        <time>2023-07-24T10:59:13.000Z</time>
      </trkpt>
      <trkpt lat="42.70582" lon="1.34484">
        <ele>2227.1999511719</ele>
        <time>2023-07-24T10:59:16.000Z</time>
      </trkpt>
      <trkpt lat="42.7058" lon="1.34483">
        <ele>2226.3999023438</ele>
        <time>2023-07-24T10:59:21.000Z</time>
      </trkpt>
      <trkpt lat="42.7058" lon="1.34483">
        <ele>2226.1999511719</ele>
        <time>2023-07-24T10:59:22.000Z</time>
      </trkpt>
      <trkpt lat="42.7058" lon="1.34482">
        <ele>2225.3999023438</ele>
        <time>2023-07-24T10:59:29.000Z</time>
      </trkpt>
      <trkpt lat="42.70581" lon="1.34481">
        <ele>2225.1999511719</ele>
        <time>2023-07-24T10:59:32.000Z</time>
      </trkpt>
      <trkpt lat="42.70583" lon="1.34479">
        <ele>2224.3999023438</ele>
        <time>2023-07-24T10:59:38.000Z</time>
      </trkpt>
      <trkpt lat="42.70583" lon="1.3448">
        <ele>2224.1999511719</ele>
        <time>2023-07-24T10:59:40.000Z</time>
      </trkpt>
      <trkpt lat="42.70582" lon="1.34478">
        <ele>2223.8000488281</ele>
        <time>2023-07-24T10:59:44.000Z</time>
      </trkpt>
      <trkpt lat="42.70582" lon="1.34478">
        <ele>2223</ele>
        <time>2023-07-24T10:59:48.000Z</time>
      </trkpt>
      <trkpt lat="42.70584" lon="1.34477">
        <ele>2222.1999511719</ele>
        <time>2023-07-24T10:59:53.000Z</time>
      </trkpt>
      <trkpt lat="42.70585" lon="1.34477">
        <ele>2222</ele>
        <time>2023-07-24T10:59:55.000Z</time>
      </trkpt>
      <trkpt lat="42.70586" lon="1.34475">
        <ele>2221.6000976562</ele>
        <time>2023-07-24T11:00:00.000Z</time>
      </trkpt>
      <trkpt lat="42.70585" lon="1.34474">
        <ele>2221</ele>
        <time>2023-07-24T11:00:08.000Z</time>
      </trkpt>
      <trkpt lat="42.70585" lon="1.34474">
        <ele>2220.8000488281</ele>
        <time>2023-07-24T11:00:09.000Z</time>
      </trkpt>
      <trkpt lat="42.70587" lon="1.34473">
        <ele>2220.1999511719</ele>
        <time>2023-07-24T11:00:16.000Z</time>
      </trkpt>
      <trkpt lat="42.70588" lon="1.34469">
        <ele>2219.8000488281</ele>
        <time>2023-07-24T11:00:22.000Z</time>
      </trkpt>
      <trkpt lat="42.70589" lon="1.34467">
        <ele>2218.8000488281</ele>
        <time>2023-07-24T11:00:29.000Z</time>
      </trkpt>
      <trkpt lat="42.70587" lon="1.34468">
        <ele>2218.8000488281</ele>
        <time>2023-07-24T11:00:37.000Z</time>
      </trkpt>
      <trkpt lat="42.70588" lon="1.34467">
        <ele>2218.6000976562</ele>
        <time>2023-07-24T11:00:38.000Z</time>
      </trkpt>
      <trkpt lat="42.70589" lon="1.34464">
        <ele>2217.8000488281</ele>
        <time>2023-07-24T11:00:44.000Z</time>
      </trkpt>
      <trkpt lat="42.70589" lon="1.34464">
        <ele>2217.6000976562</ele>
        <time>2023-07-24T11:00:45.000Z</time>
      </trkpt>
      <trkpt lat="42.70591" lon="1.34465">
        <ele>2217</ele>
        <time>2023-07-24T11:00:52.000Z</time>
      </trkpt>
      <trkpt lat="42.70594" lon="1.34464">
        <ele>2216.3999023438</ele>
        <time>2023-07-24T11:00:58.000Z</time>
      </trkpt>
      <trkpt lat="42.70595" lon="1.34464">
        <ele>2215.1999511719</ele>
        <time>2023-07-24T11:01:08.000Z</time>
      </trkpt>
      <trkpt lat="42.70597" lon="1.34465">
        <ele>2215.8000488281</ele>
        <time>2023-07-24T11:01:14.000Z</time>
      </trkpt>
      <trkpt lat="42.70595" lon="1.34466">
        <ele>2216.3999023438</ele>
        <time>2023-07-24T11:01:18.000Z</time>
      </trkpt>
      <trkpt lat="42.70594" lon="1.34468">
        <ele>2216.3999023438</ele>
        <time>2023-07-24T11:01:21.000Z</time>
      </trkpt>
      <trkpt lat="42.70593" lon="1.34466">
        <ele>2216</ele>
        <time>2023-07-24T11:01:28.000Z</time>
      </trkpt>
      <trkpt lat="42.70596" lon="1.34463">
        <ele>2215.6000976562</ele>
        <time>2023-07-24T11:01:36.000Z</time>
      </trkpt>
      <trkpt lat="42.70596" lon="1.34463">
        <ele>2215.3999023438</ele>
        <time>2023-07-24T11:01:38.000Z</time>
      </trkpt>
      <trkpt lat="42.70597" lon="1.34462">
        <ele>2215.1999511719</ele>
        <time>2023-07-24T11:01:43.000Z</time>
      </trkpt>
      <trkpt lat="42.70598" lon="1.34462">
        <ele>2214.3999023438</ele>
        <time>2023-07-24T11:01:50.000Z</time>
      </trkpt>
      <trkpt lat="42.70597" lon="1.34463">
        <ele>2214.1999511719</ele>
        <time>2023-07-24T11:01:52.000Z</time>
      </trkpt>
      <trkpt lat="42.706" lon="1.34459">
        <ele>2213.1999511719</ele>
        <time>2023-07-24T11:01:59.000Z</time>
      </trkpt>
      <trkpt lat="42.706" lon="1.34459">
        <ele>2213.1999511719</ele>
        <time>2023-07-24T11:02:00.000Z</time>
      </trkpt>
      <trkpt lat="42.70603" lon="1.34458">
        <ele>2212</ele>
        <time>2023-07-24T11:02:07.000Z</time>
      </trkpt>
      <trkpt lat="42.70605" lon="1.34457">
        <ele>2211.8000488281</ele>
        <time>2023-07-24T11:02:09.000Z</time>
      </trkpt>
      <trkpt lat="42.70605" lon="1.34458">
        <ele>2211</ele>
        <time>2023-07-24T11:02:15.000Z</time>
      </trkpt>
      <trkpt lat="42.70604" lon="1.34457">
        <ele>2210.6000976562</ele>
        <time>2023-07-24T11:02:18.000Z</time>
      </trkpt>
      <trkpt lat="42.70604" lon="1.34457">
        <ele>2209.8000488281</ele>
        <time>2023-07-24T11:02:22.000Z</time>
      </trkpt>
      <trkpt lat="42.70604" lon="1.34458">
        <ele>2209.6000976562</ele>
        <time>2023-07-24T11:02:25.000Z</time>
      </trkpt>
      <trkpt lat="42.70607" lon="1.34456">
        <ele>2209</ele>
        <time>2023-07-24T11:02:32.000Z</time>
      </trkpt>
      <trkpt lat="42.70608" lon="1.34456">
        <ele>2208.8000488281</ele>
        <time>2023-07-24T11:02:33.000Z</time>
      </trkpt>
      <trkpt lat="42.70609" lon="1.34453">
        <ele>2207.6000976562</ele>
        <time>2023-07-24T11:02:40.000Z</time>
      </trkpt>
      <trkpt lat="42.70607" lon="1.34451">
        <ele>2206.6000976562</ele>
        <time>2023-07-24T11:02:46.000Z</time>
      </trkpt>
      <trkpt lat="42.70608" lon="1.34452">
        <ele>2206.3999023438</ele>
        <time>2023-07-24T11:02:47.000Z</time>
      </trkpt>
      <trkpt lat="42.7061" lon="1.34452">
        <ele>2205.3999023438</ele>
        <time>2023-07-24T11:02:53.000Z</time>
      </trkpt>
      <trkpt lat="42.70614" lon="1.34449">
        <ele>2204</ele>
        <time>2023-07-24T11:03:02.000Z</time>
      </trkpt>
      <trkpt lat="42.70613" lon="1.34448">
        <ele>2203.3999023438</ele>
        <time>2023-07-24T11:03:10.000Z</time>
      </trkpt>
      <trkpt lat="42.70612" lon="1.34448">
        <ele>2203.1999511719</ele>
        <time>2023-07-24T11:03:11.000Z</time>
      </trkpt>
      <trkpt lat="42.7061" lon="1.34445">
        <ele>2202.8000488281</ele>
        <time>2023-07-24T11:03:18.000Z</time>
      </trkpt>
      <trkpt lat="42.7061" lon="1.34442">
        <ele>2202.1999511719</ele>
        <time>2023-07-24T11:03:21.000Z</time>
      </trkpt>
      <trkpt lat="42.70611" lon="1.34441">
        <ele>2201.8000488281</ele>
        <time>2023-07-24T11:03:24.000Z</time>
      </trkpt>
      <trkpt lat="42.70612" lon="1.34445">
        <ele>2201.1999511719</ele>
        <time>2023-07-24T11:03:30.000Z</time>
      </trkpt>
      <trkpt lat="42.70616" lon="1.34446">
        <ele>2200</ele>
        <time>2023-07-24T11:03:36.000Z</time>
      </trkpt>
      <trkpt lat="42.70616" lon="1.34445">
        <ele>2200</ele>
        <time>2023-07-24T11:03:37.000Z</time>
      </trkpt>
      <trkpt lat="42.70615" lon="1.34441">
        <ele>2199.3999023438</ele>
        <time>2023-07-24T11:03:45.000Z</time>
      </trkpt>
      <trkpt lat="42.70613" lon="1.34441">
        <ele>2198.8000488281</ele>
        <time>2023-07-24T11:03:49.000Z</time>
      </trkpt>
      <trkpt lat="42.70612" lon="1.34441">
        <ele>2198.3999023438</ele>
        <time>2023-07-24T11:03:54.000Z</time>
      </trkpt>
      <trkpt lat="42.70613" lon="1.34438">
        <ele>2197.8000488281</ele>
        <time>2023-07-24T11:03:58.000Z</time>
      </trkpt>
      <trkpt lat="42.70614" lon="1.34437">
        <ele>2197.3999023438</ele>
        <time>2023-07-24T11:04:00.000Z</time>
      </trkpt>
      <trkpt lat="42.70615" lon="1.34436">
        <ele>2196.8000488281</ele>
        <time>2023-07-24T11:04:04.000Z</time>
      </trkpt>
      <trkpt lat="42.70616" lon="1.34437">
        <ele>2196.6000976562</ele>
        <time>2023-07-24T11:04:07.000Z</time>
      </trkpt>
      <trkpt lat="42.70618" lon="1.34437">
        <ele>2194.1999511719</ele>
        <time>2023-07-24T11:04:20.000Z</time>
      </trkpt>
      <trkpt lat="42.70618" lon="1.34437">
        <ele>2194</ele>
        <time>2023-07-24T11:04:22.000Z</time>
      </trkpt>
      <trkpt lat="42.70618" lon="1.34435">
        <ele>2193.1999511719</ele>
        <time>2023-07-24T11:04:27.000Z</time>
      </trkpt>
      <trkpt lat="42.70618" lon="1.34434">
        <ele>2193</ele>
        <time>2023-07-24T11:04:29.000Z</time>
      </trkpt>
      <trkpt lat="42.7062" lon="1.34436">
        <ele>2192.1999511719</ele>
        <time>2023-07-24T11:04:35.000Z</time>
      </trkpt>
      <trkpt lat="42.7062" lon="1.34435">
        <ele>2192.1999511719</ele>
        <time>2023-07-24T11:04:39.000Z</time>
      </trkpt>
      <trkpt lat="42.7062" lon="1.34432">
        <ele>2192</ele>
        <time>2023-07-24T11:04:42.000Z</time>
      </trkpt>
      <trkpt lat="42.70623" lon="1.3443">
        <ele>2191.1999511719</ele>
        <time>2023-07-24T11:04:49.000Z</time>
      </trkpt>
      <trkpt lat="42.70623" lon="1.34429">
        <ele>2191</ele>
        <time>2023-07-24T11:04:50.000Z</time>
      </trkpt>
      <trkpt lat="42.70621" lon="1.34423">
        <ele>2190.6000976562</ele>
        <time>2023-07-24T11:05:00.000Z</time>
      </trkpt>
      <trkpt lat="42.70618" lon="1.34425">
        <ele>2190.3999023438</ele>
        <time>2023-07-24T11:05:09.000Z</time>
      </trkpt>
      <trkpt lat="42.70621" lon="1.34432">
        <ele>2190.8000488281</ele>
        <time>2023-07-24T11:05:19.000Z</time>
      </trkpt>
      <trkpt lat="42.70621" lon="1.34433">
        <ele>2190.6000976562</ele>
        <time>2023-07-24T11:05:26.000Z</time>
      </trkpt>
      <trkpt lat="42.70619" lon="1.34434">
        <ele>2190.6000976562</ele>
        <time>2023-07-24T11:05:34.000Z</time>
      </trkpt>
      <trkpt lat="42.70619" lon="1.34435">
        <ele>2190.6000976562</ele>
        <time>2023-07-24T11:05:41.000Z</time>
      </trkpt>
      <trkpt lat="42.70619" lon="1.34434">
        <ele>2190.6000976562</ele>
        <time>2023-07-24T11:05:47.000Z</time>
      </trkpt>
      <trkpt lat="42.70625" lon="1.3443">
        <ele>2190.1999511719</ele>
        <time>2023-07-24T11:05:57.000Z</time>
      </trkpt>
      <trkpt lat="42.70624" lon="1.34428">
        <ele>2189.3999023438</ele>
        <time>2023-07-24T11:06:00.000Z</time>
      </trkpt>
      <trkpt lat="42.70624" lon="1.34429">
        <ele>2189</ele>
        <time>2023-07-24T11:06:03.000Z</time>
      </trkpt>
      <trkpt lat="42.70623" lon="1.34431">
        <ele>2188.6000976562</ele>
        <time>2023-07-24T11:06:06.000Z</time>
      </trkpt>
      <trkpt lat="42.70626" lon="1.34436">
        <ele>2188.6000976562</ele>
        <time>2023-07-24T11:06:14.000Z</time>
      </trkpt>
      <trkpt lat="42.70627" lon="1.34437">
        <ele>2188.1999511719</ele>
        <time>2023-07-24T11:06:20.000Z</time>
      </trkpt>
      <trkpt lat="42.7063" lon="1.34437">
        <ele>2188</ele>
        <time>2023-07-24T11:06:26.000Z</time>
      </trkpt>
      <trkpt lat="42.70631" lon="1.34437">
        <ele>2187.6000976562</ele>
        <time>2023-07-24T11:06:29.000Z</time>
      </trkpt>
      <trkpt lat="42.70634" lon="1.34432">
        <ele>2185.8000488281</ele>
        <time>2023-07-24T11:06:46.000Z</time>
      </trkpt>
      <trkpt lat="42.70641" lon="1.34432">
        <ele>2184.6000976562</ele>
        <time>2023-07-24T11:07:01.000Z</time>
      </trkpt>
      <trkpt lat="42.7064" lon="1.34427">
        <ele>2183.8000488281</ele>
        <time>2023-07-24T11:07:08.000Z</time>
      </trkpt>
      <trkpt lat="42.7064" lon="1.34427">
        <ele>2183.8000488281</ele>
        <time>2023-07-24T11:07:09.000Z</time>
      </trkpt>
      <trkpt lat="42.70643" lon="1.34428">
        <ele>2183</ele>
        <time>2023-07-24T11:07:18.000Z</time>
      </trkpt>
      <trkpt lat="42.70643" lon="1.34429">
        <ele>2182.6000976562</ele>
        <time>2023-07-24T11:07:22.000Z</time>
      </trkpt>
      <trkpt lat="42.70646" lon="1.34427">
        <ele>2181.8000488281</ele>
        <time>2023-07-24T11:07:28.000Z</time>
      </trkpt>
      <trkpt lat="42.70645" lon="1.34427">
        <ele>2181.6000976562</ele>
        <time>2023-07-24T11:07:31.000Z</time>
      </trkpt>
      <trkpt lat="42.70645" lon="1.34426">
        <ele>2181.1999511719</ele>
        <time>2023-07-24T11:07:34.000Z</time>
      </trkpt>
      <trkpt lat="42.70644" lon="1.34426">
        <ele>2180.6000976562</ele>
        <time>2023-07-24T11:07:41.000Z</time>
      </trkpt>
      <trkpt lat="42.70647" lon="1.34426">
        <ele>2180.3999023438</ele>
        <time>2023-07-24T11:07:49.000Z</time>
      </trkpt>
      <trkpt lat="42.70649" lon="1.34426">
        <ele>2179.3999023438</ele>
        <time>2023-07-24T11:07:57.000Z</time>
      </trkpt>
      <trkpt lat="42.7065" lon="1.34426">
        <ele>2179.3999023438</ele>
        <time>2023-07-24T11:07:58.000Z</time>
      </trkpt>
      <trkpt lat="42.70651" lon="1.34426">
        <ele>2178.3999023438</ele>
        <time>2023-07-24T11:08:06.000Z</time>
      </trkpt>
      <trkpt lat="42.70652" lon="1.34422">
        <ele>2177.6000976562</ele>
        <time>2023-07-24T11:08:15.000Z</time>
      </trkpt>
      <trkpt lat="42.70652" lon="1.34422">
        <ele>2177.3999023438</ele>
        <time>2023-07-24T11:08:16.000Z</time>
      </trkpt>
      <trkpt lat="42.70649" lon="1.34419">
        <ele>2176.6000976562</ele>
        <time>2023-07-24T11:08:24.000Z</time>
      </trkpt>
      <trkpt lat="42.70647" lon="1.34417">
        <ele>2176.1999511719</ele>
        <time>2023-07-24T11:08:27.000Z</time>
      </trkpt>
      <trkpt lat="42.70651" lon="1.34416">
        <ele>2175.8000488281</ele>
        <time>2023-07-24T11:08:33.000Z</time>
      </trkpt>
      <trkpt lat="42.70656" lon="1.34414">
        <ele>2173.8000488281</ele>
        <time>2023-07-24T11:08:48.000Z</time>
      </trkpt>
      <trkpt lat="42.70659" lon="1.34418">
        <ele>2173.6000976562</ele>
        <time>2023-07-24T11:08:57.000Z</time>
      </trkpt>
      <trkpt lat="42.7066" lon="1.34418">
        <ele>2173</ele>
        <time>2023-07-24T11:09:00.000Z</time>
      </trkpt>
      <trkpt lat="42.70659" lon="1.34417">
        <ele>2172.3999023438</ele>
        <time>2023-07-24T11:09:04.000Z</time>
      </trkpt>
      <trkpt lat="42.70659" lon="1.34416">
        <ele>2171.8000488281</ele>
        <time>2023-07-24T11:09:07.000Z</time>
      </trkpt>
      <trkpt lat="42.70662" lon="1.34414">
        <ele>2171</ele>
        <time>2023-07-24T11:09:12.000Z</time>
      </trkpt>
      <trkpt lat="42.70663" lon="1.34415">
        <ele>2170.8000488281</ele>
        <time>2023-07-24T11:09:13.000Z</time>
      </trkpt>
      <trkpt lat="42.70667" lon="1.34413">
        <ele>2169.8000488281</ele>
        <time>2023-07-24T11:09:21.000Z</time>
      </trkpt>
      <trkpt lat="42.70669" lon="1.34416">
        <ele>2168.6000976562</ele>
        <time>2023-07-24T11:09:31.000Z</time>
      </trkpt>
      <trkpt lat="42.70671" lon="1.34413">
        <ele>2168.3999023438</ele>
        <time>2023-07-24T11:09:39.000Z</time>
      </trkpt>
      <trkpt lat="42.70671" lon="1.34409">
        <ele>2168</ele>
        <time>2023-07-24T11:09:47.000Z</time>
      </trkpt>
      <trkpt lat="42.70672" lon="1.34406">
        <ele>2167.6000976562</ele>
        <time>2023-07-24T11:09:52.000Z</time>
      </trkpt>
      <trkpt lat="42.70672" lon="1.34404">
        <ele>2167.1999511719</ele>
        <time>2023-07-24T11:09:55.000Z</time>
      </trkpt>
      <trkpt lat="42.70672" lon="1.34402">
        <ele>2166.6000976562</ele>
        <time>2023-07-24T11:10:04.000Z</time>
      </trkpt>
      <trkpt lat="42.70671" lon="1.34399">
        <ele>2165.6000976562</ele>
        <time>2023-07-24T11:10:11.000Z</time>
      </trkpt>
      <trkpt lat="42.70671" lon="1.34399">
        <ele>2165.3999023438</ele>
        <time>2023-07-24T11:10:13.000Z</time>
      </trkpt>
      <trkpt lat="42.70669" lon="1.34404">
        <ele>2165</ele>
        <time>2023-07-24T11:10:22.000Z</time>
      </trkpt>
      <trkpt lat="42.70671" lon="1.34402">
        <ele>2165.3999023438</ele>
        <time>2023-07-24T11:10:29.000Z</time>
      </trkpt>
      <trkpt lat="42.70676" lon="1.34393">
        <ele>2165.3999023438</ele>
        <time>2023-07-24T11:10:34.000Z</time>
      </trkpt>
      <trkpt lat="42.70675" lon="1.34395">
        <ele>2165.3999023438</ele>
        <time>2023-07-24T11:10:39.000Z</time>
      </trkpt>
      <trkpt lat="42.70674" lon="1.34402">
        <ele>2166.1999511719</ele>
        <time>2023-07-24T11:10:49.000Z</time>
      </trkpt>
      <trkpt lat="42.70674" lon="1.34402">
        <ele>2166.6000976562</ele>
        <time>2023-07-24T11:10:51.000Z</time>
      </trkpt>
      <trkpt lat="42.70677" lon="1.34401">
        <ele>2167.1999511719</ele>
        <time>2023-07-24T11:10:57.000Z</time>
      </trkpt>
      <trkpt lat="42.70681" lon="1.34399">
        <ele>2166.3999023438</ele>
        <time>2023-07-24T11:11:04.000Z</time>
      </trkpt>
      <trkpt lat="42.70681" lon="1.34398">
        <ele>2165.6000976562</ele>
        <time>2023-07-24T11:11:09.000Z</time>
      </trkpt>
      <trkpt lat="42.70682" lon="1.34397">
        <ele>2165.3999023438</ele>
        <time>2023-07-24T11:11:10.000Z</time>
      </trkpt>
      <trkpt lat="42.70683" lon="1.34395">
        <ele>2164.3999023438</ele>
        <time>2023-07-24T11:11:14.000Z</time>
      </trkpt>
      <trkpt lat="42.70683" lon="1.34396">
        <ele>2164</ele>
        <time>2023-07-24T11:11:17.000Z</time>
      </trkpt>
      <trkpt lat="42.70683" lon="1.34395">
        <ele>2163.3999023438</ele>
        <time>2023-07-24T11:11:23.000Z</time>
      </trkpt>
      <trkpt lat="42.70682" lon="1.34395">
        <ele>2162.3999023438</ele>
        <time>2023-07-24T11:11:27.000Z</time>
      </trkpt>
      <trkpt lat="42.70682" lon="1.34394">
        <ele>2161.6000976562</ele>
        <time>2023-07-24T11:11:31.000Z</time>
      </trkpt>
      <trkpt lat="42.70683" lon="1.34392">
        <ele>2161.1999511719</ele>
        <time>2023-07-24T11:11:33.000Z</time>
      </trkpt>
      <trkpt lat="42.70685" lon="1.3439">
        <ele>2160.6000976562</ele>
        <time>2023-07-24T11:11:37.000Z</time>
      </trkpt>
      <trkpt lat="42.70685" lon="1.34389">
        <ele>2160.1999511719</ele>
        <time>2023-07-24T11:11:40.000Z</time>
      </trkpt>
      <trkpt lat="42.70684" lon="1.34387">
        <ele>2160</ele>
        <time>2023-07-24T11:11:45.000Z</time>
      </trkpt>
      <trkpt lat="42.70684" lon="1.34384">
        <ele>2159.1999511719</ele>
        <time>2023-07-24T11:11:51.000Z</time>
      </trkpt>
      <trkpt lat="42.70684" lon="1.34384">
        <ele>2159.1999511719</ele>
        <time>2023-07-24T11:11:52.000Z</time>
      </trkpt>
      <trkpt lat="42.70682" lon="1.34378">
        <ele>2158.1999511719</ele>
        <time>2023-07-24T11:11:59.000Z</time>
      </trkpt>
      <trkpt lat="42.70682" lon="1.34378">
        <ele>2158</ele>
        <time>2023-07-24T11:12:00.000Z</time>
      </trkpt>
      <trkpt lat="42.7068" lon="1.34376">
        <ele>2157.1999511719</ele>
        <time>2023-07-24T11:12:05.000Z</time>
      </trkpt>
      <trkpt lat="42.7068" lon="1.34374">
        <ele>2156.1999511719</ele>
        <time>2023-07-24T11:12:09.000Z</time>
      </trkpt>
      <trkpt lat="42.7068" lon="1.34374">
        <ele>2156</ele>
        <time>2023-07-24T11:12:10.000Z</time>
      </trkpt>
      <trkpt lat="42.70683" lon="1.34373">
        <ele>2155.1999511719</ele>
        <time>2023-07-24T11:12:16.000Z</time>
      </trkpt>
      <trkpt lat="42.70683" lon="1.34374">
        <ele>2155</ele>
        <time>2023-07-24T11:12:17.000Z</time>
      </trkpt>
      <trkpt lat="42.70686" lon="1.34374">
        <ele>2154.1999511719</ele>
        <time>2023-07-24T11:12:25.000Z</time>
      </trkpt>
      <trkpt lat="42.70686" lon="1.34375">
        <ele>2154</ele>
        <time>2023-07-24T11:12:26.000Z</time>
      </trkpt>
      <trkpt lat="42.70687" lon="1.34375">
        <ele>2153</ele>
        <time>2023-07-24T11:12:33.000Z</time>
      </trkpt>
      <trkpt lat="42.70688" lon="1.34374">
        <ele>2152.8000488281</ele>
        <time>2023-07-24T11:12:34.000Z</time>
      </trkpt>
      <trkpt lat="42.70691" lon="1.34373">
        <ele>2152.1999511719</ele>
        <time>2023-07-24T11:12:41.000Z</time>
      </trkpt>
      <trkpt lat="42.70692" lon="1.34371">
        <ele>2151.8000488281</ele>
        <time>2023-07-24T11:12:45.000Z</time>
      </trkpt>
      <trkpt lat="42.70697" lon="1.34368">
        <ele>2151.3999023438</ele>
        <time>2023-07-24T11:12:50.000Z</time>
      </trkpt>
      <trkpt lat="42.70699" lon="1.34365">
        <ele>2151.1999511719</ele>
        <time>2023-07-24T11:12:56.000Z</time>
      </trkpt>
      <trkpt lat="42.70699" lon="1.34363">
        <ele>2150.8000488281</ele>
        <time>2023-07-24T11:12:59.000Z</time>
      </trkpt>
      <trkpt lat="42.707" lon="1.34359">
        <ele>2149.8000488281</ele>
        <time>2023-07-24T11:13:04.000Z</time>
      </trkpt>
      <trkpt lat="42.707" lon="1.34358">
        <ele>2149.6000976562</ele>
        <time>2023-07-24T11:13:05.000Z</time>
      </trkpt>
      <trkpt lat="42.70699" lon="1.34356">
        <ele>2148.6000976562</ele>
        <time>2023-07-24T11:13:10.000Z</time>
      </trkpt>
      <trkpt lat="42.70698" lon="1.34355">
        <ele>2148</ele>
        <time>2023-07-24T11:13:14.000Z</time>
      </trkpt>
      <trkpt lat="42.70698" lon="1.34355">
        <ele>2147.3999023438</ele>
        <time>2023-07-24T11:13:17.000Z</time>
      </trkpt>
      <trkpt lat="42.70698" lon="1.34351">
        <ele>2146.6000976562</ele>
        <time>2023-07-24T11:13:21.000Z</time>
      </trkpt>
      <trkpt lat="42.70699" lon="1.34349">
        <ele>2146.3999023438</ele>
        <time>2023-07-24T11:13:23.000Z</time>
      </trkpt>
      <trkpt lat="42.707" lon="1.34347">
        <ele>2145.1999511719</ele>
        <time>2023-07-24T11:13:28.000Z</time>
      </trkpt>
      <trkpt lat="42.707" lon="1.34342">
        <ele>2144.8000488281</ele>
        <time>2023-07-24T11:13:34.000Z</time>
      </trkpt>
      <trkpt lat="42.707" lon="1.34338">
        <ele>2144</ele>
        <time>2023-07-24T11:13:37.000Z</time>
      </trkpt>
      <trkpt lat="42.70702" lon="1.34336">
        <ele>2143.6000976562</ele>
        <time>2023-07-24T11:13:40.000Z</time>
      </trkpt>
      <trkpt lat="42.70702" lon="1.34324">
        <ele>2144</ele>
        <time>2023-07-24T11:13:47.000Z</time>
      </trkpt>
      <trkpt lat="42.70698" lon="1.3432">
        <ele>2143</ele>
        <time>2023-07-24T11:13:53.000Z</time>
      </trkpt>
      <trkpt lat="42.70697" lon="1.34321">
        <ele>2143.1999511719</ele>
        <time>2023-07-24T11:13:56.000Z</time>
      </trkpt>
      <trkpt lat="42.70697" lon="1.3432">
        <ele>2143.1999511719</ele>
        <time>2023-07-24T11:13:59.000Z</time>
      </trkpt>
      <trkpt lat="42.70698" lon="1.34315">
        <ele>2143</ele>
        <time>2023-07-24T11:14:05.000Z</time>
      </trkpt>
      <trkpt lat="42.70704" lon="1.34313">
        <ele>2142.1999511719</ele>
        <time>2023-07-24T11:14:12.000Z</time>
      </trkpt>
      <trkpt lat="42.70707" lon="1.34313">
        <ele>2141.8000488281</ele>
        <time>2023-07-24T11:14:15.000Z</time>
      </trkpt>
      <trkpt lat="42.70709" lon="1.34312">
        <ele>2141.1999511719</ele>
        <time>2023-07-24T11:14:20.000Z</time>
      </trkpt>
      <trkpt lat="42.70709" lon="1.34311">
        <ele>2140.8000488281</ele>
        <time>2023-07-24T11:14:22.000Z</time>
      </trkpt>
      <trkpt lat="42.70712" lon="1.34307">
        <ele>2139.8000488281</ele>
        <time>2023-07-24T11:14:28.000Z</time>
      </trkpt>
      <trkpt lat="42.70713" lon="1.34306">
        <ele>2139.6000976562</ele>
        <time>2023-07-24T11:14:29.000Z</time>
      </trkpt>
      <trkpt lat="42.70714" lon="1.34305">
        <ele>2138.8000488281</ele>
        <time>2023-07-24T11:14:33.000Z</time>
      </trkpt>
      <trkpt lat="42.70714" lon="1.34305">
        <ele>2138.6000976562</ele>
        <time>2023-07-24T11:14:34.000Z</time>
      </trkpt>
      <trkpt lat="42.70715" lon="1.34304">
        <ele>2137.6000976562</ele>
        <time>2023-07-24T11:14:38.000Z</time>
      </trkpt>
      <trkpt lat="42.70715" lon="1.34307">
        <ele>2136.1999511719</ele>
        <time>2023-07-24T11:14:43.000Z</time>
      </trkpt>
      <trkpt lat="42.70717" lon="1.34307">
        <ele>2135.6000976562</ele>
        <time>2023-07-24T11:14:49.000Z</time>
      </trkpt>
      <trkpt lat="42.70719" lon="1.34306">
        <ele>2135.1999511719</ele>
        <time>2023-07-24T11:14:52.000Z</time>
      </trkpt>
      <trkpt lat="42.70723" lon="1.34306">
        <ele>2134.6000976562</ele>
        <time>2023-07-24T11:14:57.000Z</time>
      </trkpt>
      <trkpt lat="42.70727" lon="1.34305">
        <ele>2134</ele>
        <time>2023-07-24T11:15:01.000Z</time>
      </trkpt>
      <trkpt lat="42.70728" lon="1.34304">
        <ele>2133.6000976562</ele>
        <time>2023-07-24T11:15:03.000Z</time>
      </trkpt>
      <trkpt lat="42.70725" lon="1.34298">
        <ele>2133.1999511719</ele>
        <time>2023-07-24T11:15:08.000Z</time>
      </trkpt>
      <trkpt lat="42.70725" lon="1.34297">
        <ele>2132.8000488281</ele>
        <time>2023-07-24T11:15:09.000Z</time>
      </trkpt>
      <trkpt lat="42.70725" lon="1.34293">
        <ele>2131.8000488281</ele>
        <time>2023-07-24T11:15:14.000Z</time>
      </trkpt>
      <trkpt lat="42.70725" lon="1.34292">
        <ele>2131.3999023438</ele>
        <time>2023-07-24T11:15:15.000Z</time>
      </trkpt>
      <trkpt lat="42.70724" lon="1.34287">
        <ele>2130.6000976562</ele>
        <time>2023-07-24T11:15:21.000Z</time>
      </trkpt>
      <trkpt lat="42.70723" lon="1.34284">
        <ele>2130</ele>
        <time>2023-07-24T11:15:26.000Z</time>
      </trkpt>
      <trkpt lat="42.70724" lon="1.34283">
        <ele>2129.3999023438</ele>
        <time>2023-07-24T11:15:31.000Z</time>
      </trkpt>
      <trkpt lat="42.70726" lon="1.34281">
        <ele>2128.3999023438</ele>
        <time>2023-07-24T11:15:37.000Z</time>
      </trkpt>
      <trkpt lat="42.70726" lon="1.34281">
        <ele>2128.1999511719</ele>
        <time>2023-07-24T11:15:38.000Z</time>
      </trkpt>
      <trkpt lat="42.70731" lon="1.34277">
        <ele>2127.3999023438</ele>
        <time>2023-07-24T11:15:43.000Z</time>
      </trkpt>
      <trkpt lat="42.70731" lon="1.34277">
        <ele>2127.1999511719</ele>
        <time>2023-07-24T11:15:44.000Z</time>
      </trkpt>
      <trkpt lat="42.70732" lon="1.34277">
        <ele>2127.1999511719</ele>
        <time>2023-07-24T11:15:52.000Z</time>
      </trkpt>
      <trkpt lat="42.70733" lon="1.34275">
        <ele>2127.3999023438</ele>
        <time>2023-07-24T11:16:02.000Z</time>
      </trkpt>
      <trkpt lat="42.70735" lon="1.34277">
        <ele>2126.6000976562</ele>
        <time>2023-07-24T11:16:10.000Z</time>
      </trkpt>
      <trkpt lat="42.70741" lon="1.34275">
        <ele>2126.3999023438</ele>
        <time>2023-07-24T11:16:16.000Z</time>
      </trkpt>
      <trkpt lat="42.70742" lon="1.34274">
        <ele>2126.1999511719</ele>
        <time>2023-07-24T11:16:17.000Z</time>
      </trkpt>
      <trkpt lat="42.70744" lon="1.34274">
        <ele>2125.6000976562</ele>
        <time>2023-07-24T11:16:24.000Z</time>
      </trkpt>
      <trkpt lat="42.70749" lon="1.34274">
        <ele>2125.6000976562</ele>
        <time>2023-07-24T11:16:31.000Z</time>
      </trkpt>
      <trkpt lat="42.70755" lon="1.34274">
        <ele>2125.8000488281</ele>
        <time>2023-07-24T11:16:37.000Z</time>
      </trkpt>
      <trkpt lat="42.70756" lon="1.34276">
        <ele>2125.3999023438</ele>
        <time>2023-07-24T11:16:42.000Z</time>
      </trkpt>
      <trkpt lat="42.70758" lon="1.34278">
        <ele>2125.1999511719</ele>
        <time>2023-07-24T11:16:44.000Z</time>
      </trkpt>
      <trkpt lat="42.70761" lon="1.34279">
        <ele>2125</ele>
        <time>2023-07-24T11:16:48.000Z</time>
      </trkpt>
      <trkpt lat="42.70767" lon="1.34275">
        <ele>2124.6000976562</ele>
        <time>2023-07-24T11:16:54.000Z</time>
      </trkpt>
      <trkpt lat="42.70768" lon="1.34268">
        <ele>2124</ele>
        <time>2023-07-24T11:17:01.000Z</time>
      </trkpt>
      <trkpt lat="42.70768" lon="1.34266">
        <ele>2123.3999023438</ele>
        <time>2023-07-24T11:17:04.000Z</time>
      </trkpt>
      <trkpt lat="42.70768" lon="1.34263">
        <ele>2123</ele>
        <time>2023-07-24T11:17:09.000Z</time>
      </trkpt>
      <trkpt lat="42.70768" lon="1.34262">
        <ele>2122.8000488281</ele>
        <time>2023-07-24T11:17:12.000Z</time>
      </trkpt>
      <trkpt lat="42.70769" lon="1.3426">
        <ele>2122</ele>
        <time>2023-07-24T11:17:16.000Z</time>
      </trkpt>
      <trkpt lat="42.7077" lon="1.34259">
        <ele>2121.3999023438</ele>
        <time>2023-07-24T11:17:18.000Z</time>
      </trkpt>
      <trkpt lat="42.70772" lon="1.34256">
        <ele>2120.6000976562</ele>
        <time>2023-07-24T11:17:22.000Z</time>
      </trkpt>
      <trkpt lat="42.70774" lon="1.34253">
        <ele>2120.1999511719</ele>
        <time>2023-07-24T11:17:25.000Z</time>
      </trkpt>
      <trkpt lat="42.70776" lon="1.34252">
        <ele>2119.6000976562</ele>
        <time>2023-07-24T11:17:28.000Z</time>
      </trkpt>
      <trkpt lat="42.70779" lon="1.34251">
        <ele>2119.1999511719</ele>
        <time>2023-07-24T11:17:35.000Z</time>
      </trkpt>
      <trkpt lat="42.7078" lon="1.34248">
        <ele>2118.6000976562</ele>
        <time>2023-07-24T11:17:41.000Z</time>
      </trkpt>
      <trkpt lat="42.70779" lon="1.34248">
        <ele>2118.1999511719</ele>
        <time>2023-07-24T11:17:43.000Z</time>
      </trkpt>
      <trkpt lat="42.7078" lon="1.34248">
        <ele>2117.3999023438</ele>
        <time>2023-07-24T11:17:46.000Z</time>
      </trkpt>
      <trkpt lat="42.70782" lon="1.34248">
        <ele>2117.1999511719</ele>
        <time>2023-07-24T11:17:50.000Z</time>
      </trkpt>
      <trkpt lat="42.70786" lon="1.34241">
        <ele>2116.8000488281</ele>
        <time>2023-07-24T11:17:57.000Z</time>
      </trkpt>
      <trkpt lat="42.70786" lon="1.34239">
        <ele>2116.3999023438</ele>
        <time>2023-07-24T11:18:03.000Z</time>
      </trkpt>
      <trkpt lat="42.70786" lon="1.34238">
        <ele>2115.8000488281</ele>
        <time>2023-07-24T11:18:08.000Z</time>
      </trkpt>
      <trkpt lat="42.70786" lon="1.34236">
        <ele>2115.1999511719</ele>
        <time>2023-07-24T11:18:10.000Z</time>
      </trkpt>
      <trkpt lat="42.70787" lon="1.34237">
        <ele>2114.8000488281</ele>
        <time>2023-07-24T11:18:13.000Z</time>
      </trkpt>
      <trkpt lat="42.70789" lon="1.34234">
        <ele>2114</ele>
        <time>2023-07-24T11:18:19.000Z</time>
      </trkpt>
      <trkpt lat="42.7079" lon="1.34233">
        <ele>2113.8000488281</ele>
        <time>2023-07-24T11:18:21.000Z</time>
      </trkpt>
      <trkpt lat="42.70794" lon="1.34229">
        <ele>2113</ele>
        <time>2023-07-24T11:18:26.000Z</time>
      </trkpt>
      <trkpt lat="42.70797" lon="1.34228">
        <ele>2112.6000976562</ele>
        <time>2023-07-24T11:18:29.000Z</time>
      </trkpt>
      <trkpt lat="42.708" lon="1.34227">
        <ele>2112.1999511719</ele>
        <time>2023-07-24T11:18:36.000Z</time>
      </trkpt>
      <trkpt lat="42.70802" lon="1.34226">
        <ele>2111.8000488281</ele>
        <time>2023-07-24T11:18:38.000Z</time>
      </trkpt>
      <trkpt lat="42.70808" lon="1.34221">
        <ele>2110.6000976562</ele>
        <time>2023-07-24T11:18:44.000Z</time>
      </trkpt>
      <trkpt lat="42.70809" lon="1.3422">
        <ele>2110.3999023438</ele>
        <time>2023-07-24T11:18:45.000Z</time>
      </trkpt>
      <trkpt lat="42.70813" lon="1.34213">
        <ele>2110</ele>
        <time>2023-07-24T11:18:52.000Z</time>
      </trkpt>
      <trkpt lat="42.70814" lon="1.34211">
        <ele>2109.6000976562</ele>
        <time>2023-07-24T11:18:55.000Z</time>
      </trkpt>
      <trkpt lat="42.70816" lon="1.34206">
        <ele>2108.6000976562</ele>
        <time>2023-07-24T11:19:00.000Z</time>
      </trkpt>
      <trkpt lat="42.70817" lon="1.34205">
        <ele>2108.3999023438</ele>
        <time>2023-07-24T11:19:01.000Z</time>
      </trkpt>
      <trkpt lat="42.70821" lon="1.34199">
        <ele>2107.6000976562</ele>
        <time>2023-07-24T11:19:09.000Z</time>
      </trkpt>
      <trkpt lat="42.70822" lon="1.34198">
        <ele>2107.3999023438</ele>
        <time>2023-07-24T11:19:11.000Z</time>
      </trkpt>
      <trkpt lat="42.70827" lon="1.34194">
        <ele>2106.1999511719</ele>
        <time>2023-07-24T11:19:18.000Z</time>
      </trkpt>
      <trkpt lat="42.70828" lon="1.34194">
        <ele>2106</ele>
        <time>2023-07-24T11:19:19.000Z</time>
      </trkpt>
      <trkpt lat="42.7083" lon="1.3419">
        <ele>2105.3999023438</ele>
        <time>2023-07-24T11:19:26.000Z</time>
      </trkpt>
      <trkpt lat="42.7083" lon="1.34182">
        <ele>2105.1999511719</ele>
        <time>2023-07-24T11:19:31.000Z</time>
      </trkpt>
      <trkpt lat="42.70831" lon="1.3418">
        <ele>2105</ele>
        <time>2023-07-24T11:19:33.000Z</time>
      </trkpt>
      <trkpt lat="42.70832" lon="1.34177">
        <ele>2103.6000976562</ele>
        <time>2023-07-24T11:19:37.000Z</time>
      </trkpt>
      <trkpt lat="42.70832" lon="1.34176">
        <ele>2103.1999511719</ele>
        <time>2023-07-24T11:19:38.000Z</time>
      </trkpt>
      <trkpt lat="42.70837" lon="1.34169">
        <ele>2103</ele>
        <time>2023-07-24T11:19:44.000Z</time>
      </trkpt>
      <trkpt lat="42.70841" lon="1.34162">
        <ele>2102.6000976562</ele>
        <time>2023-07-24T11:19:51.000Z</time>
      </trkpt>
      <trkpt lat="42.70842" lon="1.34161">
        <ele>2102.6000976562</ele>
        <time>2023-07-24T11:19:52.000Z</time>
      </trkpt>
      <trkpt lat="42.70844" lon="1.34157">
        <ele>2101.1999511719</ele>
        <time>2023-07-24T11:19:58.000Z</time>
      </trkpt>
      <trkpt lat="42.70844" lon="1.34156">
        <ele>2101</ele>
        <time>2023-07-24T11:20:00.000Z</time>
      </trkpt>
      <trkpt lat="42.70844" lon="1.34155">
        <ele>2100</ele>
        <time>2023-07-24T11:20:04.000Z</time>
      </trkpt>
      <trkpt lat="42.70844" lon="1.34153">
        <ele>2099.3999023438</ele>
        <time>2023-07-24T11:20:07.000Z</time>
      </trkpt>
      <trkpt lat="42.70845" lon="1.34151">
        <ele>2099</ele>
        <time>2023-07-24T11:20:09.000Z</time>
      </trkpt>
      <trkpt lat="42.70845" lon="1.34146">
        <ele>2098</ele>
        <time>2023-07-24T11:20:13.000Z</time>
      </trkpt>
      <trkpt lat="42.70846" lon="1.34141">
        <ele>2097.3999023438</ele>
        <time>2023-07-24T11:20:17.000Z</time>
      </trkpt>
      <trkpt lat="42.70846" lon="1.34133">
        <ele>2096.8000488281</ele>
        <time>2023-07-24T11:20:22.000Z</time>
      </trkpt>
      <trkpt lat="42.70846" lon="1.3413">
        <ele>2096.1999511719</ele>
        <time>2023-07-24T11:20:24.000Z</time>
      </trkpt>
      <trkpt lat="42.70845" lon="1.34124">
        <ele>2095.6000976562</ele>
        <time>2023-07-24T11:20:29.000Z</time>
      </trkpt>
      <trkpt lat="42.70844" lon="1.34122">
        <ele>2095.6000976562</ele>
        <time>2023-07-24T11:20:31.000Z</time>
      </trkpt>
      <trkpt lat="42.70844" lon="1.34118">
        <ele>2094.8000488281</ele>
        <time>2023-07-24T11:20:37.000Z</time>
      </trkpt>
      <trkpt lat="42.70844" lon="1.34116">
        <ele>2094.6000976562</ele>
        <time>2023-07-24T11:20:39.000Z</time>
      </trkpt>
      <trkpt lat="42.70841" lon="1.34111">
        <ele>2094</ele>
        <time>2023-07-24T11:20:45.000Z</time>
      </trkpt>
      <trkpt lat="42.70839" lon="1.3411">
        <ele>2093.6000976562</ele>
        <time>2023-07-24T11:20:48.000Z</time>
      </trkpt>
      <trkpt lat="42.70839" lon="1.34108">
        <ele>2092.6000976562</ele>
        <time>2023-07-24T11:20:52.000Z</time>
      </trkpt>
      <trkpt lat="42.70838" lon="1.34105">
        <ele>2092.3999023438</ele>
        <time>2023-07-24T11:20:54.000Z</time>
      </trkpt>
      <trkpt lat="42.70838" lon="1.34098">
        <ele>2091.1999511719</ele>
        <time>2023-07-24T11:20:59.000Z</time>
      </trkpt>
      <trkpt lat="42.70834" lon="1.34092">
        <ele>2090.1999511719</ele>
        <time>2023-07-24T11:21:06.000Z</time>
      </trkpt>
      <trkpt lat="42.7083" lon="1.34085">
        <ele>2089.3999023438</ele>
        <time>2023-07-24T11:21:15.000Z</time>
      </trkpt>
      <trkpt lat="42.70824" lon="1.3408">
        <ele>2089.1999511719</ele>
        <time>2023-07-24T11:21:23.000Z</time>
      </trkpt>
      <trkpt lat="42.70822" lon="1.34078">
        <ele>2089.6000976562</ele>
        <time>2023-07-24T11:21:29.000Z</time>
      </trkpt>
      <trkpt lat="42.70819" lon="1.34074">
        <ele>2090.1999511719</ele>
        <time>2023-07-24T11:21:34.000Z</time>
      </trkpt>
      <trkpt lat="42.70819" lon="1.34074">
        <ele>2090.3999023438</ele>
        <time>2023-07-24T11:21:36.000Z</time>
      </trkpt>
      <trkpt lat="42.70817" lon="1.3407">
        <ele>2091.1999511719</ele>
        <time>2023-07-24T11:21:42.000Z</time>
      </trkpt>
      <trkpt lat="42.70816" lon="1.3407">
        <ele>2091.1999511719</ele>
        <time>2023-07-24T11:21:44.000Z</time>
      </trkpt>
      <trkpt lat="42.70814" lon="1.34069">
        <ele>2092</ele>
        <time>2023-07-24T11:21:48.000Z</time>
      </trkpt>
      <trkpt lat="42.70812" lon="1.34073">
        <ele>2091.1999511719</ele>
        <time>2023-07-24T11:21:55.000Z</time>
      </trkpt>
      <trkpt lat="42.70812" lon="1.34075">
        <ele>2090.8000488281</ele>
        <time>2023-07-24T11:22:02.000Z</time>
      </trkpt>
      <trkpt lat="42.70811" lon="1.34071">
        <ele>2090.3999023438</ele>
        <time>2023-07-24T11:22:12.000Z</time>
      </trkpt>
      <trkpt lat="42.70814" lon="1.3407">
        <ele>2091.1999511719</ele>
        <time>2023-07-24T11:22:20.000Z</time>
      </trkpt>
      <trkpt lat="42.70819" lon="1.34065">
        <ele>2091</ele>
        <time>2023-07-24T11:22:29.000Z</time>
      </trkpt>
      <trkpt lat="42.70818" lon="1.34059">
        <ele>2090</ele>
        <time>2023-07-24T11:22:35.000Z</time>
      </trkpt>
      <trkpt lat="42.70818" lon="1.34059">
        <ele>2089.8000488281</ele>
        <time>2023-07-24T11:22:36.000Z</time>
      </trkpt>
      <trkpt lat="42.70816" lon="1.34057">
        <ele>2089</ele>
        <time>2023-07-24T11:22:42.000Z</time>
      </trkpt>
      <trkpt lat="42.70816" lon="1.34057">
        <ele>2088.6000976562</ele>
        <time>2023-07-24T11:22:43.000Z</time>
      </trkpt>
      <trkpt lat="42.70812" lon="1.3406">
        <ele>2089.8000488281</ele>
        <time>2023-07-24T11:22:52.000Z</time>
      </trkpt>
      <trkpt lat="42.7081" lon="1.34057">
        <ele>2088.8000488281</ele>
        <time>2023-07-24T11:23:00.000Z</time>
      </trkpt>
      <trkpt lat="42.70806" lon="1.34061">
        <ele>2088</ele>
        <time>2023-07-24T11:23:08.000Z</time>
      </trkpt>
      <trkpt lat="42.70805" lon="1.34062">
        <ele>2087.8000488281</ele>
        <time>2023-07-24T11:23:09.000Z</time>
      </trkpt>
      <trkpt lat="42.70804" lon="1.34066">
        <ele>2086.8000488281</ele>
        <time>2023-07-24T11:23:14.000Z</time>
      </trkpt>
      <trkpt lat="42.70805" lon="1.34066">
        <ele>2086.6000976562</ele>
        <time>2023-07-24T11:23:16.000Z</time>
      </trkpt>
      <trkpt lat="42.70807" lon="1.34066">
        <ele>2085.6000976562</ele>
        <time>2023-07-24T11:23:23.000Z</time>
      </trkpt>
      <trkpt lat="42.70807" lon="1.34066">
        <ele>2085.3999023438</ele>
        <time>2023-07-24T11:23:24.000Z</time>
      </trkpt>
      <trkpt lat="42.70808" lon="1.34064">
        <ele>2084.3999023438</ele>
        <time>2023-07-24T11:23:27.000Z</time>
      </trkpt>
      <trkpt lat="42.70809" lon="1.34061">
        <ele>2083.1999511719</ele>
        <time>2023-07-24T11:23:31.000Z</time>
      </trkpt>
      <trkpt lat="42.70809" lon="1.34057">
        <ele>2082.3999023438</ele>
        <time>2023-07-24T11:23:34.000Z</time>
      </trkpt>
      <trkpt lat="42.70809" lon="1.34055">
        <ele>2082.1999511719</ele>
        <time>2023-07-24T11:23:36.000Z</time>
      </trkpt>
      <trkpt lat="42.70809" lon="1.34052">
        <ele>2081</ele>
        <time>2023-07-24T11:23:42.000Z</time>
      </trkpt>
      <trkpt lat="42.70808" lon="1.34052">
        <ele>2080.6000976562</ele>
        <time>2023-07-24T11:23:50.000Z</time>
      </trkpt>
      <trkpt lat="42.70806" lon="1.34056">
        <ele>2081.6000976562</ele>
        <time>2023-07-24T11:23:57.000Z</time>
      </trkpt>
      <trkpt lat="42.70809" lon="1.34055">
        <ele>2081</ele>
        <time>2023-07-24T11:24:06.000Z</time>
      </trkpt>
      <trkpt lat="42.70809" lon="1.34054">
        <ele>2079.8000488281</ele>
        <time>2023-07-24T11:24:09.000Z</time>
      </trkpt>
      <trkpt lat="42.70809" lon="1.34053">
        <ele>2079.6000976562</ele>
        <time>2023-07-24T11:24:13.000Z</time>
      </trkpt>
      <trkpt lat="42.70811" lon="1.34052">
        <ele>2079.1999511719</ele>
        <time>2023-07-24T11:24:21.000Z</time>
      </trkpt>
      <trkpt lat="42.70814" lon="1.34047">
        <ele>2078.6000976562</ele>
        <time>2023-07-24T11:24:29.000Z</time>
      </trkpt>
      <trkpt lat="42.70814" lon="1.34047">
        <ele>2078.3999023438</ele>
        <time>2023-07-24T11:24:30.000Z</time>
      </trkpt>
      <trkpt lat="42.70814" lon="1.34048">
        <ele>2077.3999023438</ele>
        <time>2023-07-24T11:24:34.000Z</time>
      </trkpt>
      <trkpt lat="42.70815" lon="1.34045">
        <ele>2076.3999023438</ele>
        <time>2023-07-24T11:24:38.000Z</time>
      </trkpt>
      <trkpt lat="42.70812" lon="1.34038">
        <ele>2075.6000976562</ele>
        <time>2023-07-24T11:24:45.000Z</time>
      </trkpt>
      <trkpt lat="42.70808" lon="1.34034">
        <ele>2075.1999511719</ele>
        <time>2023-07-24T11:24:52.000Z</time>
      </trkpt>
      <trkpt lat="42.70808" lon="1.34033">
        <ele>2074.8000488281</ele>
        <time>2023-07-24T11:24:53.000Z</time>
      </trkpt>
      <trkpt lat="42.70805" lon="1.34031">
        <ele>2074.1999511719</ele>
        <time>2023-07-24T11:24:56.000Z</time>
      </trkpt>
      <trkpt lat="42.70802" lon="1.34025">
        <ele>2073.1999511719</ele>
        <time>2023-07-24T11:25:00.000Z</time>
      </trkpt>
      <trkpt lat="42.70801" lon="1.34024">
        <ele>2072.3999023438</ele>
        <time>2023-07-24T11:25:02.000Z</time>
      </trkpt>
      <trkpt lat="42.708" lon="1.34023">
        <ele>2072</ele>
        <time>2023-07-24T11:25:03.000Z</time>
      </trkpt>
      <trkpt lat="42.70798" lon="1.34021">
        <ele>2071.8000488281</ele>
        <time>2023-07-24T11:25:09.000Z</time>
      </trkpt>
      <trkpt lat="42.70796" lon="1.34021">
        <ele>2071</ele>
        <time>2023-07-24T11:25:13.000Z</time>
      </trkpt>
      <trkpt lat="42.70792" lon="1.34018">
        <ele>2069.3999023438</ele>
        <time>2023-07-24T11:25:17.000Z</time>
      </trkpt>
      <trkpt lat="42.70789" lon="1.34017">
        <ele>2068.3999023438</ele>
        <time>2023-07-24T11:25:19.000Z</time>
      </trkpt>
      <trkpt lat="42.70789" lon="1.34016">
        <ele>2068</ele>
        <time>2023-07-24T11:25:22.000Z</time>
      </trkpt>
      <trkpt lat="42.70787" lon="1.34012">
        <ele>2067.3999023438</ele>
        <time>2023-07-24T11:25:25.000Z</time>
      </trkpt>
      <trkpt lat="42.70787" lon="1.34009">
        <ele>2066.6000976562</ele>
        <time>2023-07-24T11:25:28.000Z</time>
      </trkpt>
      <trkpt lat="42.70787" lon="1.34008">
        <ele>2066.3999023438</ele>
        <time>2023-07-24T11:25:29.000Z</time>
      </trkpt>
      <trkpt lat="42.70783" lon="1.34001">
        <ele>2066.3999023438</ele>
        <time>2023-07-24T11:25:35.000Z</time>
      </trkpt>
      <trkpt lat="42.7078" lon="1.34">
        <ele>2066.1999511719</ele>
        <time>2023-07-24T11:25:42.000Z</time>
      </trkpt>
      <trkpt lat="42.7078" lon="1.33999">
        <ele>2066</ele>
        <time>2023-07-24T11:25:44.000Z</time>
      </trkpt>
      <trkpt lat="42.7078" lon="1.34001">
        <ele>2066</ele>
        <time>2023-07-24T11:25:46.000Z</time>
      </trkpt>
      <trkpt lat="42.7078" lon="1.34002">
        <ele>2065.8000488281</ele>
        <time>2023-07-24T11:25:47.000Z</time>
      </trkpt>
      <trkpt lat="42.70778" lon="1.34009">
        <ele>2065.3999023438</ele>
        <time>2023-07-24T11:25:55.000Z</time>
      </trkpt>
      <trkpt lat="42.70777" lon="1.3401">
        <ele>2065.3999023438</ele>
        <time>2023-07-24T11:25:56.000Z</time>
      </trkpt>
      <trkpt lat="42.70775" lon="1.34011">
        <ele>2064.1999511719</ele>
        <time>2023-07-24T11:25:59.000Z</time>
      </trkpt>
      <trkpt lat="42.70773" lon="1.34011">
        <ele>2063.1999511719</ele>
        <time>2023-07-24T11:26:02.000Z</time>
      </trkpt>
      <trkpt lat="42.70771" lon="1.34011">
        <ele>2062.8000488281</ele>
        <time>2023-07-24T11:26:04.000Z</time>
      </trkpt>
      <trkpt lat="42.70768" lon="1.34011">
        <ele>2062.1999511719</ele>
        <time>2023-07-24T11:26:09.000Z</time>
      </trkpt>
      <trkpt lat="42.70763" lon="1.34012">
        <ele>2061.8000488281</ele>
        <time>2023-07-24T11:26:14.000Z</time>
      </trkpt>
      <trkpt lat="42.70763" lon="1.34013">
        <ele>2060.8000488281</ele>
        <time>2023-07-24T11:26:16.000Z</time>
      </trkpt>
      <trkpt lat="42.70761" lon="1.34015">
        <ele>2059.6000976562</ele>
        <time>2023-07-24T11:26:19.000Z</time>
      </trkpt>
      <trkpt lat="42.70761" lon="1.34015">
        <ele>2059.1999511719</ele>
        <time>2023-07-24T11:26:20.000Z</time>
      </trkpt>
      <trkpt lat="42.7076" lon="1.34015">
        <ele>2058.6000976562</ele>
        <time>2023-07-24T11:26:22.000Z</time>
      </trkpt>
      <trkpt lat="42.70756" lon="1.34011">
        <ele>2057.6000976562</ele>
        <time>2023-07-24T11:26:28.000Z</time>
      </trkpt>
      <trkpt lat="42.70755" lon="1.3401">
        <ele>2057.3999023438</ele>
        <time>2023-07-24T11:26:29.000Z</time>
      </trkpt>
      <trkpt lat="42.70751" lon="1.34011">
        <ele>2057.1999511719</ele>
        <time>2023-07-24T11:26:34.000Z</time>
      </trkpt>
      <trkpt lat="42.70748" lon="1.34015">
        <ele>2056.3999023438</ele>
        <time>2023-07-24T11:26:39.000Z</time>
      </trkpt>
      <trkpt lat="42.70747" lon="1.34016">
        <ele>2056</ele>
        <time>2023-07-24T11:26:42.000Z</time>
      </trkpt>
      <trkpt lat="42.70745" lon="1.34016">
        <ele>2055.3999023438</ele>
        <time>2023-07-24T11:26:47.000Z</time>
      </trkpt>
      <trkpt lat="42.70743" lon="1.34016">
        <ele>2054.6000976562</ele>
        <time>2023-07-24T11:26:51.000Z</time>
      </trkpt>
      <trkpt lat="42.70743" lon="1.34016">
        <ele>2054.1999511719</ele>
        <time>2023-07-24T11:26:52.000Z</time>
      </trkpt>
      <trkpt lat="42.70741" lon="1.34012">
        <ele>2053.1999511719</ele>
        <time>2023-07-24T11:26:56.000Z</time>
      </trkpt>
      <trkpt lat="42.7074" lon="1.3401">
        <ele>2052.6000976562</ele>
        <time>2023-07-24T11:26:59.000Z</time>
      </trkpt>
      <trkpt lat="42.70739" lon="1.34009">
        <ele>2052</ele>
        <time>2023-07-24T11:27:02.000Z</time>
      </trkpt>
      <trkpt lat="42.70739" lon="1.34006">
        <ele>2051.3999023438</ele>
        <time>2023-07-24T11:27:06.000Z</time>
      </trkpt>
      <trkpt lat="42.70739" lon="1.34006">
        <ele>2051</ele>
        <time>2023-07-24T11:27:07.000Z</time>
      </trkpt>
      <trkpt lat="42.70735" lon="1.34007">
        <ele>2050.1999511719</ele>
        <time>2023-07-24T11:27:14.000Z</time>
      </trkpt>
      <trkpt lat="42.70735" lon="1.34008">
        <ele>2050</ele>
        <time>2023-07-24T11:27:15.000Z</time>
      </trkpt>
      <trkpt lat="42.70735" lon="1.34009">
        <ele>2050</ele>
        <time>2023-07-24T11:27:16.000Z</time>
      </trkpt>
      <trkpt lat="42.70731" lon="1.3401">
        <ele>2049</ele>
        <time>2023-07-24T11:27:23.000Z</time>
      </trkpt>
      <trkpt lat="42.7073" lon="1.3401">
        <ele>2048.6000976562</ele>
        <time>2023-07-24T11:27:25.000Z</time>
      </trkpt>
      <trkpt lat="42.70726" lon="1.34007">
        <ele>2048.1999511719</ele>
        <time>2023-07-24T11:27:29.000Z</time>
      </trkpt>
      <trkpt lat="42.70725" lon="1.34006">
        <ele>2047.8000488281</ele>
        <time>2023-07-24T11:27:32.000Z</time>
      </trkpt>
      <trkpt lat="42.70723" lon="1.34005">
        <ele>2047.1999511719</ele>
        <time>2023-07-24T11:27:37.000Z</time>
      </trkpt>
      <trkpt lat="42.7072" lon="1.34004">
        <ele>2046.5999755859</ele>
        <time>2023-07-24T11:27:42.000Z</time>
      </trkpt>
      <trkpt lat="42.7072" lon="1.34004">
        <ele>2046.4000244141</ele>
        <time>2023-07-24T11:27:43.000Z</time>
      </trkpt>
      <trkpt lat="42.70717" lon="1.34005">
        <ele>2045.5999755859</ele>
        <time>2023-07-24T11:27:47.000Z</time>
      </trkpt>
      <trkpt lat="42.70716" lon="1.34007">
        <ele>2044.5999755859</ele>
        <time>2023-07-24T11:27:51.000Z</time>
      </trkpt>
      <trkpt lat="42.70713" lon="1.34008">
        <ele>2043.5999755859</ele>
        <time>2023-07-24T11:28:00.000Z</time>
      </trkpt>
      <trkpt lat="42.70712" lon="1.34008">
        <ele>2043.1999511719</ele>
        <time>2023-07-24T11:28:01.000Z</time>
      </trkpt>
      <trkpt lat="42.70712" lon="1.34008">
        <ele>2042.5999755859</ele>
        <time>2023-07-24T11:28:09.000Z</time>
      </trkpt>
      <trkpt lat="42.70711" lon="1.34008">
        <ele>2042.1999511719</ele>
        <time>2023-07-24T11:28:11.000Z</time>
      </trkpt>
      <trkpt lat="42.7071" lon="1.34004">
        <ele>2042</ele>
        <time>2023-07-24T11:28:17.000Z</time>
      </trkpt>
      <trkpt lat="42.70708" lon="1.34002">
        <ele>2042</ele>
        <time>2023-07-24T11:28:25.000Z</time>
      </trkpt>
      <trkpt lat="42.70708" lon="1.34004">
        <ele>2041</ele>
        <time>2023-07-24T11:28:29.000Z</time>
      </trkpt>
      <trkpt lat="42.70707" lon="1.34006">
        <ele>2040.8000488281</ele>
        <time>2023-07-24T11:28:33.000Z</time>
      </trkpt>
      <trkpt lat="42.70698" lon="1.34011">
        <ele>2040</ele>
        <time>2023-07-24T11:28:42.000Z</time>
      </trkpt>
      <trkpt lat="42.70695" lon="1.34012">
        <ele>2040</ele>
        <time>2023-07-24T11:28:43.000Z</time>
      </trkpt>
      <trkpt lat="42.70692" lon="1.34014">
        <ele>2039.1999511719</ele>
        <time>2023-07-24T11:28:48.000Z</time>
      </trkpt>
      <trkpt lat="42.70691" lon="1.34014">
        <ele>2038.8000488281</ele>
        <time>2023-07-24T11:28:50.000Z</time>
      </trkpt>
      <trkpt lat="42.70687" lon="1.34014">
        <ele>2038.5999755859</ele>
        <time>2023-07-24T11:28:55.000Z</time>
      </trkpt>
      <trkpt lat="42.70687" lon="1.34012">
        <ele>2037.8000488281</ele>
        <time>2023-07-24T11:28:58.000Z</time>
      </trkpt>
      <trkpt lat="42.70689" lon="1.34009">
        <ele>2037.1999511719</ele>
        <time>2023-07-24T11:29:03.000Z</time>
      </trkpt>
      <trkpt lat="42.7069" lon="1.34009">
        <ele>2036.8000488281</ele>
        <time>2023-07-24T11:29:06.000Z</time>
      </trkpt>
      <trkpt lat="42.70689" lon="1.34009">
        <ele>2036.1999511719</ele>
        <time>2023-07-24T11:29:09.000Z</time>
      </trkpt>
      <trkpt lat="42.70686" lon="1.34006">
        <ele>2035.5999755859</ele>
        <time>2023-07-24T11:29:13.000Z</time>
      </trkpt>
      <trkpt lat="42.70684" lon="1.34005">
        <ele>2034.8000488281</ele>
        <time>2023-07-24T11:29:17.000Z</time>
      </trkpt>
      <trkpt lat="42.70683" lon="1.34005">
        <ele>2034.4000244141</ele>
        <time>2023-07-24T11:29:19.000Z</time>
      </trkpt>
      <trkpt lat="42.7068" lon="1.34005">
        <ele>2033.8000488281</ele>
        <time>2023-07-24T11:29:22.000Z</time>
      </trkpt>
      <trkpt lat="42.70679" lon="1.34006">
        <ele>2033.1999511719</ele>
        <time>2023-07-24T11:29:25.000Z</time>
      </trkpt>
      <trkpt lat="42.70675" lon="1.3401">
        <ele>2032.5999755859</ele>
        <time>2023-07-24T11:29:29.000Z</time>
      </trkpt>
      <trkpt lat="42.70674" lon="1.34011">
        <ele>2032.1999511719</ele>
        <time>2023-07-24T11:29:31.000Z</time>
      </trkpt>
      <trkpt lat="42.7067" lon="1.34011">
        <ele>2031.1999511719</ele>
        <time>2023-07-24T11:29:37.000Z</time>
      </trkpt>
      <trkpt lat="42.70666" lon="1.34011">
        <ele>2030.1999511719</ele>
        <time>2023-07-24T11:29:44.000Z</time>
      </trkpt>
      <trkpt lat="42.70665" lon="1.34009">
        <ele>2030</ele>
        <time>2023-07-24T11:29:46.000Z</time>
      </trkpt>
      <trkpt lat="42.70662" lon="1.34008">
        <ele>2029.4000244141</ele>
        <time>2023-07-24T11:29:51.000Z</time>
      </trkpt>
      <trkpt lat="42.70661" lon="1.34009">
        <ele>2028.8000488281</ele>
        <time>2023-07-24T11:29:53.000Z</time>
      </trkpt>
      <trkpt lat="42.70655" lon="1.34011">
        <ele>2028.8000488281</ele>
        <time>2023-07-24T11:29:58.000Z</time>
      </trkpt>
      <trkpt lat="42.70648" lon="1.34011">
        <ele>2028.1999511719</ele>
        <time>2023-07-24T11:30:06.000Z</time>
      </trkpt>
      <trkpt lat="42.70644" lon="1.34004">
        <ele>2028.1999511719</ele>
        <time>2023-07-24T11:30:15.000Z</time>
      </trkpt>
      <trkpt lat="42.70641" lon="1.34001">
        <ele>2027.8000488281</ele>
        <time>2023-07-24T11:30:18.000Z</time>
      </trkpt>
      <trkpt lat="42.70641" lon="1.34001">
        <ele>2027.4000244141</ele>
        <time>2023-07-24T11:30:22.000Z</time>
      </trkpt>
      <trkpt lat="42.7064" lon="1.34001">
        <ele>2026.8000488281</ele>
        <time>2023-07-24T11:30:26.000Z</time>
      </trkpt>
      <trkpt lat="42.70639" lon="1.34">
        <ele>2026.5999755859</ele>
        <time>2023-07-24T11:30:31.000Z</time>
      </trkpt>
      <trkpt lat="42.70637" lon="1.34">
        <ele>2026</ele>
        <time>2023-07-24T11:30:39.000Z</time>
      </trkpt>
      <trkpt lat="42.70635" lon="1.33999">
        <ele>2025.5999755859</ele>
        <time>2023-07-24T11:30:41.000Z</time>
      </trkpt>
      <trkpt lat="42.70631" lon="1.33999">
        <ele>2025.8000488281</ele>
        <time>2023-07-24T11:30:44.000Z</time>
      </trkpt>
      <trkpt lat="42.70627" lon="1.33995">
        <ele>2026</ele>
        <time>2023-07-24T11:30:51.000Z</time>
      </trkpt>
      <trkpt lat="42.70625" lon="1.33986">
        <ele>2025.1999511719</ele>
        <time>2023-07-24T11:31:00.000Z</time>
      </trkpt>
      <trkpt lat="42.70621" lon="1.33984">
        <ele>2024.5999755859</ele>
        <time>2023-07-24T11:31:06.000Z</time>
      </trkpt>
      <trkpt lat="42.7062" lon="1.33983">
        <ele>2024.5999755859</ele>
        <time>2023-07-24T11:31:07.000Z</time>
      </trkpt>
      <trkpt lat="42.70617" lon="1.3398">
        <ele>2024.1999511719</ele>
        <time>2023-07-24T11:31:13.000Z</time>
      </trkpt>
      <trkpt lat="42.70613" lon="1.33982">
        <ele>2024</ele>
        <time>2023-07-24T11:31:20.000Z</time>
      </trkpt>
      <trkpt lat="42.70608" lon="1.33983">
        <ele>2024</ele>
        <time>2023-07-24T11:31:27.000Z</time>
      </trkpt>
      <trkpt lat="42.70607" lon="1.3398">
        <ele>2023.5999755859</ele>
        <time>2023-07-24T11:31:30.000Z</time>
      </trkpt>
      <trkpt lat="42.70605" lon="1.33979">
        <ele>2023.4000244141</ele>
        <time>2023-07-24T11:31:34.000Z</time>
      </trkpt>
      <trkpt lat="42.70598" lon="1.33977">
        <ele>2022.5999755859</ele>
        <time>2023-07-24T11:31:41.000Z</time>
      </trkpt>
      <trkpt lat="42.70597" lon="1.33972">
        <ele>2021.5999755859</ele>
        <time>2023-07-24T11:31:48.000Z</time>
      </trkpt>
      <trkpt lat="42.70596" lon="1.33972">
        <ele>2021.4000244141</ele>
        <time>2023-07-24T11:31:49.000Z</time>
      </trkpt>
      <trkpt lat="42.70594" lon="1.33971">
        <ele>2021.4000244141</ele>
        <time>2023-07-24T11:31:55.000Z</time>
      </trkpt>
      <trkpt lat="42.70588" lon="1.33966">
        <ele>2021.1999511719</ele>
        <time>2023-07-24T11:32:00.000Z</time>
      </trkpt>
      <trkpt lat="42.70579" lon="1.33961">
        <ele>2020.4000244141</ele>
        <time>2023-07-24T11:32:06.000Z</time>
      </trkpt>
      <trkpt lat="42.70577" lon="1.3396">
        <ele>2020.4000244141</ele>
        <time>2023-07-24T11:32:08.000Z</time>
      </trkpt>
      <trkpt lat="42.70569" lon="1.33955">
        <ele>2020</ele>
        <time>2023-07-24T11:32:16.000Z</time>
      </trkpt>
      <trkpt lat="42.70562" lon="1.33954">
        <ele>2019.8000488281</ele>
        <time>2023-07-24T11:32:23.000Z</time>
      </trkpt>
      <trkpt lat="42.70559" lon="1.33949">
        <ele>2019.4000244141</ele>
        <time>2023-07-24T11:32:28.000Z</time>
      </trkpt>
      <trkpt lat="42.70558" lon="1.33948">
        <ele>2019.1999511719</ele>
        <time>2023-07-24T11:32:31.000Z</time>
      </trkpt>
      <trkpt lat="42.70553" lon="1.33945">
        <ele>2019.5999755859</ele>
        <time>2023-07-24T11:32:37.000Z</time>
      </trkpt>
      <trkpt lat="42.70547" lon="1.33943">
        <ele>2019.4000244141</ele>
        <time>2023-07-24T11:32:44.000Z</time>
      </trkpt>
      <trkpt lat="42.70543" lon="1.33943">
        <ele>2019.4000244141</ele>
        <time>2023-07-24T11:32:51.000Z</time>
      </trkpt>
      <trkpt lat="42.70539" lon="1.33941">
        <ele>2019.4000244141</ele>
        <time>2023-07-24T11:32:57.000Z</time>
      </trkpt>
      <trkpt lat="42.7054" lon="1.3394">
        <ele>2019.5999755859</ele>
        <time>2023-07-24T11:33:01.000Z</time>
      </trkpt>
      <trkpt lat="42.7054" lon="1.33941">
        <ele>2019.5999755859</ele>
        <time>2023-07-24T11:33:03.000Z</time>
      </trkpt>
      <trkpt lat="42.70533" lon="1.33942">
        <ele>2019.8000488281</ele>
        <time>2023-07-24T11:33:11.000Z</time>
      </trkpt>
      <trkpt lat="42.70528" lon="1.33939">
        <ele>2019.5999755859</ele>
        <time>2023-07-24T11:33:18.000Z</time>
      </trkpt>
      <trkpt lat="42.70524" lon="1.33938">
        <ele>2020.1999511719</ele>
        <time>2023-07-24T11:33:25.000Z</time>
      </trkpt>
      <trkpt lat="42.70523" lon="1.33938">
        <ele>2020.4000244141</ele>
        <time>2023-07-24T11:33:27.000Z</time>
      </trkpt>
      <trkpt lat="42.7052" lon="1.33938">
        <ele>2020.4000244141</ele>
        <time>2023-07-24T11:33:32.000Z</time>
      </trkpt>
      <trkpt lat="42.70514" lon="1.33939">
        <ele>2021.1999511719</ele>
        <time>2023-07-24T11:33:39.000Z</time>
      </trkpt>
      <trkpt lat="42.70511" lon="1.33937">
        <ele>2021.4000244141</ele>
        <time>2023-07-24T11:33:47.000Z</time>
      </trkpt>
      <trkpt lat="42.70511" lon="1.33937">
        <ele>2021.4000244141</ele>
        <time>2023-07-24T11:33:48.000Z</time>
      </trkpt>
      <trkpt lat="42.70511" lon="1.33937">
        <ele>2021.4000244141</ele>
        <time>2023-07-24T11:33:55.000Z</time>
      </trkpt>
      <trkpt lat="42.70512" lon="1.33936">
        <ele>2021</ele>
        <time>2023-07-24T11:34:02.000Z</time>
      </trkpt>
      <trkpt lat="42.7051" lon="1.33936">
        <ele>2021.1999511719</ele>
        <time>2023-07-24T11:34:10.000Z</time>
      </trkpt>
      <trkpt lat="42.70506" lon="1.33934">
        <ele>2021.1999511719</ele>
        <time>2023-07-24T11:34:16.000Z</time>
      </trkpt>
      <trkpt lat="42.70503" lon="1.33931">
        <ele>2020.5999755859</ele>
        <time>2023-07-24T11:34:23.000Z</time>
      </trkpt>
      <trkpt lat="42.70501" lon="1.33932">
        <ele>2021</ele>
        <time>2023-07-24T11:34:30.000Z</time>
      </trkpt>
      <trkpt lat="42.70505" lon="1.33931">
        <ele>2021.4000244141</ele>
        <time>2023-07-24T11:34:36.000Z</time>
      </trkpt>
      <trkpt lat="42.70508" lon="1.33927">
        <ele>2021.1999511719</ele>
        <time>2023-07-24T11:34:44.000Z</time>
      </trkpt>
      <trkpt lat="42.70504" lon="1.3393">
        <ele>2021.4000244141</ele>
        <time>2023-07-24T11:34:51.000Z</time>
      </trkpt>
      <trkpt lat="42.705" lon="1.33928">
        <ele>2022.1999511719</ele>
        <time>2023-07-24T11:34:58.000Z</time>
      </trkpt>
      <trkpt lat="42.70498" lon="1.33924">
        <ele>2022</ele>
        <time>2023-07-24T11:35:04.000Z</time>
      </trkpt>
      <trkpt lat="42.70495" lon="1.33918">
        <ele>2021.4000244141</ele>
        <time>2023-07-24T11:35:10.000Z</time>
      </trkpt>
      <trkpt lat="42.7049" lon="1.33914">
        <ele>2021.4000244141</ele>
        <time>2023-07-24T11:35:18.000Z</time>
      </trkpt>
      <trkpt lat="42.70484" lon="1.33912">
        <ele>2021.5999755859</ele>
        <time>2023-07-24T11:35:24.000Z</time>
      </trkpt>
      <trkpt lat="42.70481" lon="1.33905">
        <ele>2021.4000244141</ele>
        <time>2023-07-24T11:35:32.000Z</time>
      </trkpt>
      <trkpt lat="42.70479" lon="1.33901">
        <ele>2021.1999511719</ele>
        <time>2023-07-24T11:35:39.000Z</time>
      </trkpt>
      <trkpt lat="42.70472" lon="1.33901">
        <ele>2021</ele>
        <time>2023-07-24T11:35:48.000Z</time>
      </trkpt>
      <trkpt lat="42.70466" lon="1.33902">
        <ele>2021.5999755859</ele>
        <time>2023-07-24T11:35:54.000Z</time>
      </trkpt>
      <trkpt lat="42.70465" lon="1.33898">
        <ele>2022</ele>
        <time>2023-07-24T11:36:00.000Z</time>
      </trkpt>
      <trkpt lat="42.70467" lon="1.33896">
        <ele>2021.8000488281</ele>
        <time>2023-07-24T11:36:05.000Z</time>
      </trkpt>
      <trkpt lat="42.70467" lon="1.33894">
        <ele>2022.1999511719</ele>
        <time>2023-07-24T11:36:13.000Z</time>
      </trkpt>
      <trkpt lat="42.70467" lon="1.33892">
        <ele>2022</ele>
        <time>2023-07-24T11:36:21.000Z</time>
      </trkpt>
      <trkpt lat="42.70465" lon="1.33887">
        <ele>2022</ele>
        <time>2023-07-24T11:36:26.000Z</time>
      </trkpt>
      <trkpt lat="42.70461" lon="1.3388">
        <ele>2022.1999511719</ele>
        <time>2023-07-24T11:36:32.000Z</time>
      </trkpt>
      <trkpt lat="42.7046" lon="1.33879">
        <ele>2022.5999755859</ele>
        <time>2023-07-24T11:36:33.000Z</time>
      </trkpt>
      <trkpt lat="42.70457" lon="1.33873">
        <ele>2023</ele>
        <time>2023-07-24T11:36:38.000Z</time>
      </trkpt>
      <trkpt lat="42.70454" lon="1.33867">
        <ele>2022.5999755859</ele>
        <time>2023-07-24T11:36:42.000Z</time>
      </trkpt>
      <trkpt lat="42.70452" lon="1.3386">
        <ele>2023.4000244141</ele>
        <time>2023-07-24T11:36:48.000Z</time>
      </trkpt>
      <trkpt lat="42.70446" lon="1.33848">
        <ele>2022.5999755859</ele>
        <time>2023-07-24T11:36:57.000Z</time>
      </trkpt>
      <trkpt lat="42.70447" lon="1.33838">
        <ele>2023.1999511719</ele>
        <time>2023-07-24T11:37:03.000Z</time>
      </trkpt>
      <trkpt lat="42.70445" lon="1.33831">
        <ele>2023.1999511719</ele>
        <time>2023-07-24T11:37:10.000Z</time>
      </trkpt>
      <trkpt lat="42.70442" lon="1.33827">
        <ele>2022.8000488281</ele>
        <time>2023-07-24T11:37:17.000Z</time>
      </trkpt>
      <trkpt lat="42.70439" lon="1.33825">
        <ele>2023.4000244141</ele>
        <time>2023-07-24T11:37:24.000Z</time>
      </trkpt>
      <trkpt lat="42.70438" lon="1.33825">
        <ele>2023.4000244141</ele>
        <time>2023-07-24T11:37:30.000Z</time>
      </trkpt>
      <trkpt lat="42.70436" lon="1.33813">
        <ele>2025.8000488281</ele>
        <time>2023-07-24T11:38:24.000Z</time>
      </trkpt>
      <trkpt lat="42.70433" lon="1.33815">
        <ele>2026.1999511719</ele>
        <time>2023-07-24T11:38:28.000Z</time>
      </trkpt>
      <trkpt lat="42.70429" lon="1.33828">
        <ele>2026.8000488281</ele>
        <time>2023-07-24T11:39:07.000Z</time>
      </trkpt>
      <trkpt lat="42.70431" lon="1.33823">
        <ele>2025.4000244141</ele>
        <time>2023-07-24T11:39:20.000Z</time>
      </trkpt>
      <trkpt lat="42.70435" lon="1.33828">
        <ele>2023</ele>
        <time>2023-07-24T11:40:07.000Z</time>
      </trkpt>
      <trkpt lat="42.70436" lon="1.33822">
        <ele>2024.4000244141</ele>
        <time>2023-07-24T11:40:24.000Z</time>
      </trkpt>
      <trkpt lat="42.70433" lon="1.33818">
        <ele>2024.8000488281</ele>
        <time>2023-07-24T11:40:30.000Z</time>
      </trkpt>
      <trkpt lat="42.70432" lon="1.33818">
        <ele>2024.8000488281</ele>
        <time>2023-07-24T11:40:37.000Z</time>
      </trkpt>
      <trkpt lat="42.70428" lon="1.33816">
        <ele>2024.5999755859</ele>
        <time>2023-07-24T11:40:44.000Z</time>
      </trkpt>
      <trkpt lat="42.70425" lon="1.33817">
        <ele>2024.1999511719</ele>
        <time>2023-07-24T11:40:49.000Z</time>
      </trkpt>
      <trkpt lat="42.70425" lon="1.33815">
        <ele>2023.8000488281</ele>
        <time>2023-07-24T11:40:52.000Z</time>
      </trkpt>
      <trkpt lat="42.70423" lon="1.33812">
        <ele>2023</ele>
        <time>2023-07-24T11:40:58.000Z</time>
      </trkpt>
      <trkpt lat="42.70422" lon="1.33811">
        <ele>2022.8000488281</ele>
        <time>2023-07-24T11:41:01.000Z</time>
      </trkpt>
      <trkpt lat="42.70422" lon="1.3381">
        <ele>2023</ele>
        <time>2023-07-24T11:41:04.000Z</time>
      </trkpt>
      <trkpt lat="42.70419" lon="1.33812">
        <ele>2023.5999755859</ele>
        <time>2023-07-24T11:41:12.000Z</time>
      </trkpt>
      <trkpt lat="42.70418" lon="1.33813">
        <ele>2023.1999511719</ele>
        <time>2023-07-24T11:41:18.000Z</time>
      </trkpt>
      <trkpt lat="42.70418" lon="1.33814">
        <ele>2023</ele>
        <time>2023-07-24T11:41:27.000Z</time>
      </trkpt>
      <trkpt lat="42.70413" lon="1.33809">
        <ele>2022.8000488281</ele>
        <time>2023-07-24T11:41:35.000Z</time>
      </trkpt>
      <trkpt lat="42.70412" lon="1.33808">
        <ele>2021.5999755859</ele>
        <time>2023-07-24T11:41:43.000Z</time>
      </trkpt>
      <trkpt lat="42.7041" lon="1.3381">
        <ele>2021</ele>
        <time>2023-07-24T11:41:51.000Z</time>
      </trkpt>
      <trkpt lat="42.70406" lon="1.33815">
        <ele>2020.8000488281</ele>
        <time>2023-07-24T11:41:59.000Z</time>
      </trkpt>
      <trkpt lat="42.70403" lon="1.3382">
        <ele>2021.1999511719</ele>
        <time>2023-07-24T11:42:06.000Z</time>
      </trkpt>
      <trkpt lat="42.70396" lon="1.33822">
        <ele>2021.4000244141</ele>
        <time>2023-07-24T11:42:15.000Z</time>
      </trkpt>
      <trkpt lat="42.70384" lon="1.33817">
        <ele>2022.4000244141</ele>
        <time>2023-07-24T11:42:22.000Z</time>
      </trkpt>
      <trkpt lat="42.7038" lon="1.33814">
        <ele>2022.5999755859</ele>
        <time>2023-07-24T11:42:25.000Z</time>
      </trkpt>
      <trkpt lat="42.70376" lon="1.33811">
        <ele>2023.1999511719</ele>
        <time>2023-07-24T11:42:29.000Z</time>
      </trkpt>
      <trkpt lat="42.7037" lon="1.33806">
        <ele>2022</ele>
        <time>2023-07-24T11:42:36.000Z</time>
      </trkpt>
      <trkpt lat="42.70366" lon="1.33799">
        <ele>2021.8000488281</ele>
        <time>2023-07-24T11:42:42.000Z</time>
      </trkpt>
      <trkpt lat="42.70366" lon="1.33798">
        <ele>2021.4000244141</ele>
        <time>2023-07-24T11:42:43.000Z</time>
      </trkpt>
      <trkpt lat="42.70361" lon="1.33794">
        <ele>2020.5999755859</ele>
        <time>2023-07-24T11:42:49.000Z</time>
      </trkpt>
      <trkpt lat="42.70355" lon="1.33788">
        <ele>2021</ele>
        <time>2023-07-24T11:42:56.000Z</time>
      </trkpt>
      <trkpt lat="42.70352" lon="1.33789">
        <ele>2020.8000488281</ele>
        <time>2023-07-24T11:43:03.000Z</time>
      </trkpt>
      <trkpt lat="42.70349" lon="1.33791">
        <ele>2020.4000244141</ele>
        <time>2023-07-24T11:43:06.000Z</time>
      </trkpt>
      <trkpt lat="42.70346" lon="1.33792">
        <ele>2019.8000488281</ele>
        <time>2023-07-24T11:43:10.000Z</time>
      </trkpt>
      <trkpt lat="42.70344" lon="1.33791">
        <ele>2019.5999755859</ele>
        <time>2023-07-24T11:43:18.000Z</time>
      </trkpt>
      <trkpt lat="42.70337" lon="1.33789">
        <ele>2020</ele>
        <time>2023-07-24T11:43:26.000Z</time>
      </trkpt>
      <trkpt lat="42.70334" lon="1.33788">
        <ele>2021</ele>
        <time>2023-07-24T11:43:33.000Z</time>
      </trkpt>
      <trkpt lat="42.70328" lon="1.33786">
        <ele>2020.4000244141</ele>
        <time>2023-07-24T11:43:40.000Z</time>
      </trkpt>
      <trkpt lat="42.70324" lon="1.33785">
        <ele>2020</ele>
        <time>2023-07-24T11:43:46.000Z</time>
      </trkpt>
      <trkpt lat="42.70318" lon="1.33788">
        <ele>2021</ele>
        <time>2023-07-24T11:43:53.000Z</time>
      </trkpt>
      <trkpt lat="42.70315" lon="1.33789">
        <ele>2021.4000244141</ele>
        <time>2023-07-24T11:43:57.000Z</time>
      </trkpt>
      <trkpt lat="42.70312" lon="1.3379">
        <ele>2021.8000488281</ele>
        <time>2023-07-24T11:44:00.000Z</time>
      </trkpt>
      <trkpt lat="42.70306" lon="1.33791">
        <ele>2022.4000244141</ele>
        <time>2023-07-24T11:44:06.000Z</time>
      </trkpt>
      <trkpt lat="42.70301" lon="1.33788">
        <ele>2021.8000488281</ele>
        <time>2023-07-24T11:44:13.000Z</time>
      </trkpt>
      <trkpt lat="42.70298" lon="1.33785">
        <ele>2021.1999511719</ele>
        <time>2023-07-24T11:44:19.000Z</time>
      </trkpt>
      <trkpt lat="42.70298" lon="1.33785">
        <ele>2020.4000244141</ele>
        <time>2023-07-24T11:44:22.000Z</time>
      </trkpt>
      <trkpt lat="42.70294" lon="1.33783">
        <ele>2019.5999755859</ele>
        <time>2023-07-24T11:44:27.000Z</time>
      </trkpt>
      <trkpt lat="42.70292" lon="1.33783">
        <ele>2019.4000244141</ele>
        <time>2023-07-24T11:44:29.000Z</time>
      </trkpt>
      <trkpt lat="42.70288" lon="1.33785">
        <ele>2019</ele>
        <time>2023-07-24T11:44:34.000Z</time>
      </trkpt>
      <trkpt lat="42.70284" lon="1.33785">
        <ele>2019</ele>
        <time>2023-07-24T11:44:42.000Z</time>
      </trkpt>
      <trkpt lat="42.70276" lon="1.33783">
        <ele>2020.1999511719</ele>
        <time>2023-07-24T11:44:50.000Z</time>
      </trkpt>
      <trkpt lat="42.70269" lon="1.3378">
        <ele>2020.1999511719</ele>
        <time>2023-07-24T11:44:56.000Z</time>
      </trkpt>
      <trkpt lat="42.70265" lon="1.33779">
        <ele>2020.8000488281</ele>
        <time>2023-07-24T11:45:04.000Z</time>
      </trkpt>
      <trkpt lat="42.70261" lon="1.33776">
        <ele>2021.5999755859</ele>
        <time>2023-07-24T11:45:11.000Z</time>
      </trkpt>
      <trkpt lat="42.70254" lon="1.33768">
        <ele>2020.5999755859</ele>
        <time>2023-07-24T11:45:19.000Z</time>
      </trkpt>
      <trkpt lat="42.7025" lon="1.33764">
        <ele>2021.5999755859</ele>
        <time>2023-07-24T11:45:26.000Z</time>
      </trkpt>
      <trkpt lat="42.70249" lon="1.33763">
        <ele>2021.8000488281</ele>
        <time>2023-07-24T11:45:27.000Z</time>
      </trkpt>
      <trkpt lat="42.70245" lon="1.3376">
        <ele>2022.4000244141</ele>
        <time>2023-07-24T11:45:35.000Z</time>
      </trkpt>
      <trkpt lat="42.7024" lon="1.33757">
        <ele>2022.4000244141</ele>
        <time>2023-07-24T11:45:44.000Z</time>
      </trkpt>
      <trkpt lat="42.70237" lon="1.33759">
        <ele>2022.8000488281</ele>
        <time>2023-07-24T11:45:51.000Z</time>
      </trkpt>
      <trkpt lat="42.7023" lon="1.33762">
        <ele>2022.4000244141</ele>
        <time>2023-07-24T11:45:58.000Z</time>
      </trkpt>
      <trkpt lat="42.70223" lon="1.33761">
        <ele>2022.8000488281</ele>
        <time>2023-07-24T11:46:04.000Z</time>
      </trkpt>
      <trkpt lat="42.70221" lon="1.33761">
        <ele>2023</ele>
        <time>2023-07-24T11:46:06.000Z</time>
      </trkpt>
      <trkpt lat="42.70214" lon="1.33761">
        <ele>2023.8000488281</ele>
        <time>2023-07-24T11:46:13.000Z</time>
      </trkpt>
      <trkpt lat="42.70213" lon="1.3376">
        <ele>2024.1999511719</ele>
        <time>2023-07-24T11:46:16.000Z</time>
      </trkpt>
      <trkpt lat="42.70209" lon="1.33756">
        <ele>2023</ele>
        <time>2023-07-24T11:46:22.000Z</time>
      </trkpt>
      <trkpt lat="42.70208" lon="1.33756">
        <ele>2022.8000488281</ele>
        <time>2023-07-24T11:46:23.000Z</time>
      </trkpt>
      <trkpt lat="42.70206" lon="1.33751">
        <ele>2021.8000488281</ele>
        <time>2023-07-24T11:46:27.000Z</time>
      </trkpt>
      <trkpt lat="42.70206" lon="1.33751">
        <ele>2021.8000488281</ele>
        <time>2023-07-24T11:46:28.000Z</time>
      </trkpt>
      <trkpt lat="42.70205" lon="1.33749">
        <ele>2021.1999511719</ele>
        <time>2023-07-24T11:46:36.000Z</time>
      </trkpt>
      <trkpt lat="42.70204" lon="1.33751">
        <ele>2021.1999511719</ele>
        <time>2023-07-24T11:46:37.000Z</time>
      </trkpt>
      <trkpt lat="42.702" lon="1.33751">
        <ele>2021.4000244141</ele>
        <time>2023-07-24T11:46:42.000Z</time>
      </trkpt>
      <trkpt lat="42.70203" lon="1.3375">
        <ele>2022.4000244141</ele>
        <time>2023-07-24T11:46:49.000Z</time>
      </trkpt>
      <trkpt lat="42.70204" lon="1.33744">
        <ele>2021.4000244141</ele>
        <time>2023-07-24T11:46:58.000Z</time>
      </trkpt>
      <trkpt lat="42.70206" lon="1.33744">
        <ele>2022.1999511719</ele>
        <time>2023-07-24T11:47:07.000Z</time>
      </trkpt>
      <trkpt lat="42.70206" lon="1.33744">
        <ele>2021.4000244141</ele>
        <time>2023-07-24T11:47:16.000Z</time>
      </trkpt>
      <trkpt lat="42.70203" lon="1.33749">
        <ele>2022</ele>
        <time>2023-07-24T11:47:25.000Z</time>
      </trkpt>
      <trkpt lat="42.70201" lon="1.33755">
        <ele>2021.8000488281</ele>
        <time>2023-07-24T11:47:33.000Z</time>
      </trkpt>
      <trkpt lat="42.70199" lon="1.33758">
        <ele>2021.8000488281</ele>
        <time>2023-07-24T11:47:39.000Z</time>
      </trkpt>
      <trkpt lat="42.70195" lon="1.33756">
        <ele>2020.8000488281</ele>
        <time>2023-07-24T11:47:46.000Z</time>
      </trkpt>
      <trkpt lat="42.70195" lon="1.33755">
        <ele>2020.5999755859</ele>
        <time>2023-07-24T11:47:47.000Z</time>
      </trkpt>
      <trkpt lat="42.70192" lon="1.33753">
        <ele>2020.4000244141</ele>
        <time>2023-07-24T11:47:51.000Z</time>
      </trkpt>
      <trkpt lat="42.70188" lon="1.33756">
        <ele>2021.8000488281</ele>
        <time>2023-07-24T11:47:57.000Z</time>
      </trkpt>
      <trkpt lat="42.70187" lon="1.33757">
        <ele>2021.8000488281</ele>
        <time>2023-07-24T11:47:58.000Z</time>
      </trkpt>
      <trkpt lat="42.70183" lon="1.33763">
        <ele>2023</ele>
        <time>2023-07-24T11:48:02.000Z</time>
      </trkpt>
      <trkpt lat="42.70181" lon="1.33767">
        <ele>2022.5999755859</ele>
        <time>2023-07-24T11:48:06.000Z</time>
      </trkpt>
      <trkpt lat="42.70178" lon="1.33772">
        <ele>2021.8000488281</ele>
        <time>2023-07-24T11:48:09.000Z</time>
      </trkpt>
      <trkpt lat="42.70175" lon="1.33774">
        <ele>2020.8000488281</ele>
        <time>2023-07-24T11:48:13.000Z</time>
      </trkpt>
      <trkpt lat="42.70173" lon="1.33774">
        <ele>2020</ele>
        <time>2023-07-24T11:48:17.000Z</time>
      </trkpt>
      <trkpt lat="42.70171" lon="1.33772">
        <ele>2020</ele>
        <time>2023-07-24T11:48:20.000Z</time>
      </trkpt>
      <trkpt lat="42.70165" lon="1.3377">
        <ele>2021.8000488281</ele>
        <time>2023-07-24T11:48:30.000Z</time>
      </trkpt>
      <trkpt lat="42.70158" lon="1.33772">
        <ele>2021.5999755859</ele>
        <time>2023-07-24T11:48:36.000Z</time>
      </trkpt>
      <trkpt lat="42.70154" lon="1.33773">
        <ele>2021.1999511719</ele>
        <time>2023-07-24T11:48:42.000Z</time>
      </trkpt>
      <trkpt lat="42.70153" lon="1.33774">
        <ele>2021</ele>
        <time>2023-07-24T11:48:43.000Z</time>
      </trkpt>
      <trkpt lat="42.70153" lon="1.33773">
        <ele>2020.5999755859</ele>
        <time>2023-07-24T11:48:45.000Z</time>
      </trkpt>
      <trkpt lat="42.70152" lon="1.33771">
        <ele>2020</ele>
        <time>2023-07-24T11:48:50.000Z</time>
      </trkpt>
      <trkpt lat="42.70146" lon="1.3377">
        <ele>2019.8000488281</ele>
        <time>2023-07-24T11:48:59.000Z</time>
      </trkpt>
      <trkpt lat="42.70142" lon="1.33773">
        <ele>2019.4000244141</ele>
        <time>2023-07-24T11:49:04.000Z</time>
      </trkpt>
      <trkpt lat="42.70141" lon="1.33774">
        <ele>2019</ele>
        <time>2023-07-24T11:49:06.000Z</time>
      </trkpt>
      <trkpt lat="42.70136" lon="1.33777">
        <ele>2018.4000244141</ele>
        <time>2023-07-24T11:49:12.000Z</time>
      </trkpt>
      <trkpt lat="42.70135" lon="1.33779">
        <ele>2018.1999511719</ele>
        <time>2023-07-24T11:49:14.000Z</time>
      </trkpt>
      <trkpt lat="42.70134" lon="1.33787">
        <ele>2019</ele>
        <time>2023-07-24T11:49:22.000Z</time>
      </trkpt>
      <trkpt lat="42.70129" lon="1.33787">
        <ele>2018.8000488281</ele>
        <time>2023-07-24T11:49:29.000Z</time>
      </trkpt>
      <trkpt lat="42.70121" lon="1.33786">
        <ele>2018.8000488281</ele>
        <time>2023-07-24T11:49:36.000Z</time>
      </trkpt>
      <trkpt lat="42.70117" lon="1.33791">
        <ele>2019.5999755859</ele>
        <time>2023-07-24T11:49:44.000Z</time>
      </trkpt>
      <trkpt lat="42.70117" lon="1.33791">
        <ele>2020.4000244141</ele>
        <time>2023-07-24T11:49:45.000Z</time>
      </trkpt>
      <trkpt lat="42.70115" lon="1.33791">
        <ele>2020.1999511719</ele>
        <time>2023-07-24T11:49:54.000Z</time>
      </trkpt>
      <trkpt lat="42.70113" lon="1.33792">
        <ele>2020.5999755859</ele>
        <time>2023-07-24T11:49:59.000Z</time>
      </trkpt>
      <trkpt lat="42.70112" lon="1.33792">
        <ele>2021</ele>
        <time>2023-07-24T11:50:01.000Z</time>
      </trkpt>
      <trkpt lat="42.7011" lon="1.33796">
        <ele>2022</ele>
        <time>2023-07-24T11:50:07.000Z</time>
      </trkpt>
      <trkpt lat="42.7011" lon="1.33797">
        <ele>2022.5999755859</ele>
        <time>2023-07-24T11:50:10.000Z</time>
      </trkpt>
      <trkpt lat="42.70111" lon="1.33796">
        <ele>2022.4000244141</ele>
        <time>2023-07-24T11:50:17.000Z</time>
      </trkpt>
      <trkpt lat="42.7011" lon="1.33795">
        <ele>2022.4000244141</ele>
        <time>2023-07-24T11:50:25.000Z</time>
      </trkpt>
      <trkpt lat="42.70105" lon="1.33799">
        <ele>2022.4000244141</ele>
        <time>2023-07-24T11:50:31.000Z</time>
      </trkpt>
      <trkpt lat="42.70102" lon="1.33803">
        <ele>2023</ele>
        <time>2023-07-24T11:50:39.000Z</time>
      </trkpt>
      <trkpt lat="42.70101" lon="1.33804">
        <ele>2023.1999511719</ele>
        <time>2023-07-24T11:50:40.000Z</time>
      </trkpt>
      <trkpt lat="42.70101" lon="1.33805">
        <ele>2024.4000244141</ele>
        <time>2023-07-24T11:50:47.000Z</time>
      </trkpt>
      <trkpt lat="42.701" lon="1.33806">
        <ele>2025</ele>
        <time>2023-07-24T11:50:50.000Z</time>
      </trkpt>
      <trkpt lat="42.701" lon="1.33809">
        <ele>2025.4000244141</ele>
        <time>2023-07-24T11:50:54.000Z</time>
      </trkpt>
      <trkpt lat="42.701" lon="1.33813">
        <ele>2026.1999511719</ele>
        <time>2023-07-24T11:50:58.000Z</time>
      </trkpt>
      <trkpt lat="42.70099" lon="1.33816">
        <ele>2026.4000244141</ele>
        <time>2023-07-24T11:51:01.000Z</time>
      </trkpt>
      <trkpt lat="42.70099" lon="1.33819">
        <ele>2026.8000488281</ele>
        <time>2023-07-24T11:51:04.000Z</time>
      </trkpt>
      <trkpt lat="42.70098" lon="1.3382">
        <ele>2027.4000244141</ele>
        <time>2023-07-24T11:51:11.000Z</time>
      </trkpt>
      <trkpt lat="42.70096" lon="1.33821">
        <ele>2028.8000488281</ele>
        <time>2023-07-24T11:51:16.000Z</time>
      </trkpt>
      <trkpt lat="42.70095" lon="1.33823">
        <ele>2029</ele>
        <time>2023-07-24T11:51:20.000Z</time>
      </trkpt>
      <trkpt lat="42.70089" lon="1.33824">
        <ele>2027.8000488281</ele>
        <time>2023-07-24T11:51:29.000Z</time>
      </trkpt>
      <trkpt lat="42.70087" lon="1.33821">
        <ele>2027.5999755859</ele>
        <time>2023-07-24T11:51:35.000Z</time>
      </trkpt>
      <trkpt lat="42.70088" lon="1.33822">
        <ele>2027.5999755859</ele>
        <time>2023-07-24T11:51:37.000Z</time>
      </trkpt>
      <trkpt lat="42.70095" lon="1.33827">
        <ele>2026.8000488281</ele>
        <time>2023-07-24T11:51:48.000Z</time>
      </trkpt>
      <trkpt lat="42.70096" lon="1.33829">
        <ele>2026.5999755859</ele>
        <time>2023-07-24T11:51:50.000Z</time>
      </trkpt>
      <trkpt lat="42.70097" lon="1.33827">
        <ele>2027</ele>
        <time>2023-07-24T11:51:54.000Z</time>
      </trkpt>
      <trkpt lat="42.70097" lon="1.33826">
        <ele>2027.8000488281</ele>
        <time>2023-07-24T11:51:57.000Z</time>
      </trkpt>
      <trkpt lat="42.70093" lon="1.33824">
        <ele>2028</ele>
        <time>2023-07-24T11:52:03.000Z</time>
      </trkpt>
      <trkpt lat="42.70092" lon="1.33828">
        <ele>2026.5999755859</ele>
        <time>2023-07-24T11:52:09.000Z</time>
      </trkpt>
      <trkpt lat="42.70092" lon="1.3383">
        <ele>2026.4000244141</ele>
        <time>2023-07-24T11:52:10.000Z</time>
      </trkpt>
      <trkpt lat="42.70091" lon="1.33828">
        <ele>2025.8000488281</ele>
        <time>2023-07-24T11:52:17.000Z</time>
      </trkpt>
      <trkpt lat="42.7009" lon="1.33825">
        <ele>2026.1999511719</ele>
        <time>2023-07-24T11:52:24.000Z</time>
      </trkpt>
      <trkpt lat="42.70088" lon="1.33824">
        <ele>2025.5999755859</ele>
        <time>2023-07-24T11:52:34.000Z</time>
      </trkpt>
      <trkpt lat="42.70087" lon="1.33823">
        <ele>2025.4000244141</ele>
        <time>2023-07-24T11:52:35.000Z</time>
      </trkpt>
      <trkpt lat="42.70084" lon="1.33823">
        <ele>2024.4000244141</ele>
        <time>2023-07-24T11:52:38.000Z</time>
      </trkpt>
      <trkpt lat="42.70083" lon="1.33824">
        <ele>2024</ele>
        <time>2023-07-24T11:52:40.000Z</time>
      </trkpt>
      <trkpt lat="42.70079" lon="1.33832">
        <ele>2024</ele>
        <time>2023-07-24T11:52:47.000Z</time>
      </trkpt>
      <trkpt lat="42.7008" lon="1.33838">
        <ele>2024.1999511719</ele>
        <time>2023-07-24T11:52:54.000Z</time>
      </trkpt>
      <trkpt lat="42.70079" lon="1.33841">
        <ele>2023.4000244141</ele>
        <time>2023-07-24T11:52:58.000Z</time>
      </trkpt>
      <trkpt lat="42.70075" lon="1.3384">
        <ele>2022.5999755859</ele>
        <time>2023-07-24T11:53:02.000Z</time>
      </trkpt>
      <trkpt lat="42.70072" lon="1.33837">
        <ele>2022.5999755859</ele>
        <time>2023-07-24T11:53:08.000Z</time>
      </trkpt>
      <trkpt lat="42.70077" lon="1.33838">
        <ele>2023</ele>
        <time>2023-07-24T11:53:15.000Z</time>
      </trkpt>
      <trkpt lat="42.70075" lon="1.33839">
        <ele>2024.1999511719</ele>
        <time>2023-07-24T11:53:24.000Z</time>
      </trkpt>
      <trkpt lat="42.7007" lon="1.33843">
        <ele>2022.4000244141</ele>
        <time>2023-07-24T11:53:31.000Z</time>
      </trkpt>
      <trkpt lat="42.70068" lon="1.33846">
        <ele>2022.1999511719</ele>
        <time>2023-07-24T11:53:34.000Z</time>
      </trkpt>
      <trkpt lat="42.70067" lon="1.33849">
        <ele>2021.4000244141</ele>
        <time>2023-07-24T11:53:40.000Z</time>
      </trkpt>
      <trkpt lat="42.70065" lon="1.3385">
        <ele>2021.4000244141</ele>
        <time>2023-07-24T11:53:42.000Z</time>
      </trkpt>
      <trkpt lat="42.70062" lon="1.33855">
        <ele>2020.8000488281</ele>
        <time>2023-07-24T11:53:48.000Z</time>
      </trkpt>
      <trkpt lat="42.70059" lon="1.3386">
        <ele>2020.4000244141</ele>
        <time>2023-07-24T11:53:54.000Z</time>
      </trkpt>
      <trkpt lat="42.70059" lon="1.3386">
        <ele>2020.1999511719</ele>
        <time>2023-07-24T11:53:55.000Z</time>
      </trkpt>
      <trkpt lat="42.70057" lon="1.33865">
        <ele>2019</ele>
        <time>2023-07-24T11:54:02.000Z</time>
      </trkpt>
      <trkpt lat="42.70055" lon="1.33867">
        <ele>2018</ele>
        <time>2023-07-24T11:54:05.000Z</time>
      </trkpt>
      <trkpt lat="42.70051" lon="1.33868">
        <ele>2018</ele>
        <time>2023-07-24T11:54:09.000Z</time>
      </trkpt>
      <trkpt lat="42.70048" lon="1.33869">
        <ele>2018.8000488281</ele>
        <time>2023-07-24T11:54:19.000Z</time>
      </trkpt>
      <trkpt lat="42.7005" lon="1.33867">
        <ele>2019</ele>
        <time>2023-07-24T11:54:26.000Z</time>
      </trkpt>
      <trkpt lat="42.7005" lon="1.33867">
        <ele>2019.1999511719</ele>
        <time>2023-07-24T11:54:27.000Z</time>
      </trkpt>
      <trkpt lat="42.7005" lon="1.33867">
        <ele>2019.4000244141</ele>
        <time>2023-07-24T11:54:35.000Z</time>
      </trkpt>
      <trkpt lat="42.70051" lon="1.33869">
        <ele>2019.5999755859</ele>
        <time>2023-07-24T11:54:45.000Z</time>
      </trkpt>
      <trkpt lat="42.70049" lon="1.33865">
        <ele>2019.4000244141</ele>
        <time>2023-07-24T11:54:52.000Z</time>
      </trkpt>
      <trkpt lat="42.70043" lon="1.33865">
        <ele>2019.1999511719</ele>
        <time>2023-07-24T11:54:58.000Z</time>
      </trkpt>
      <trkpt lat="42.70038" lon="1.33865">
        <ele>2019.4000244141</ele>
        <time>2023-07-24T11:55:06.000Z</time>
      </trkpt>
      <trkpt lat="42.70032" lon="1.33863">
        <ele>2020</ele>
        <time>2023-07-24T11:55:14.000Z</time>
      </trkpt>
      <trkpt lat="42.7003" lon="1.33861">
        <ele>2021.1999511719</ele>
        <time>2023-07-24T11:55:20.000Z</time>
      </trkpt>
      <trkpt lat="42.70029" lon="1.33859">
        <ele>2021.4000244141</ele>
        <time>2023-07-24T11:55:23.000Z</time>
      </trkpt>
      <trkpt lat="42.70028" lon="1.33859">
        <ele>2020.8000488281</ele>
        <time>2023-07-24T11:55:31.000Z</time>
      </trkpt>
      <trkpt lat="42.70028" lon="1.3386">
        <ele>2020</ele>
        <time>2023-07-24T11:55:35.000Z</time>
      </trkpt>
      <trkpt lat="42.70027" lon="1.3386">
        <ele>2019.5999755859</ele>
        <time>2023-07-24T11:55:38.000Z</time>
      </trkpt>
      <trkpt lat="42.70027" lon="1.33859">
        <ele>2019.1999511719</ele>
        <time>2023-07-24T11:55:48.000Z</time>
      </trkpt>
      <trkpt lat="42.70028" lon="1.33858">
        <ele>2019.4000244141</ele>
        <time>2023-07-24T11:55:57.000Z</time>
      </trkpt>
      <trkpt lat="42.70028" lon="1.3386">
        <ele>2019</ele>
        <time>2023-07-24T11:56:03.000Z</time>
      </trkpt>
      <trkpt lat="42.70028" lon="1.33858">
        <ele>2018.8000488281</ele>
        <time>2023-07-24T11:56:05.000Z</time>
      </trkpt>
      <trkpt lat="42.70029" lon="1.33852">
        <ele>2018.8000488281</ele>
        <time>2023-07-24T11:56:13.000Z</time>
      </trkpt>
      <trkpt lat="42.70026" lon="1.33852">
        <ele>2017.8000488281</ele>
        <time>2023-07-24T11:56:20.000Z</time>
      </trkpt>
      <trkpt lat="42.70026" lon="1.33853">
        <ele>2017.5999755859</ele>
        <time>2023-07-24T11:56:21.000Z</time>
      </trkpt>
      <trkpt lat="42.70026" lon="1.33853">
        <ele>2016.5999755859</ele>
        <time>2023-07-24T11:56:24.000Z</time>
      </trkpt>
      <trkpt lat="42.70026" lon="1.33852">
        <ele>2015.8000488281</ele>
        <time>2023-07-24T11:56:27.000Z</time>
      </trkpt>
      <trkpt lat="42.70023" lon="1.33849">
        <ele>2015.5999755859</ele>
        <time>2023-07-24T11:56:33.000Z</time>
      </trkpt>
      <trkpt lat="42.70019" lon="1.33847">
        <ele>2015.8000488281</ele>
        <time>2023-07-24T11:56:38.000Z</time>
      </trkpt>
      <trkpt lat="42.70016" lon="1.33848">
        <ele>2016.4000244141</ele>
        <time>2023-07-24T11:56:44.000Z</time>
      </trkpt>
      <trkpt lat="42.70011" lon="1.33844">
        <ele>2017</ele>
        <time>2023-07-24T11:56:53.000Z</time>
      </trkpt>
      <trkpt lat="42.70007" lon="1.33843">
        <ele>2016.8000488281</ele>
        <time>2023-07-24T11:57:00.000Z</time>
      </trkpt>
      <trkpt lat="42.70003" lon="1.33837">
        <ele>2017</ele>
        <time>2023-07-24T11:57:07.000Z</time>
      </trkpt>
      <trkpt lat="42.70001" lon="1.33834">
        <ele>2017.5999755859</ele>
        <time>2023-07-24T11:57:11.000Z</time>
      </trkpt>
      <trkpt lat="42.69999" lon="1.33831">
        <ele>2018</ele>
        <time>2023-07-24T11:57:14.000Z</time>
      </trkpt>
      <trkpt lat="42.69999" lon="1.33829">
        <ele>2019</ele>
        <time>2023-07-24T11:57:18.000Z</time>
      </trkpt>
      <trkpt lat="42.69999" lon="1.33828">
        <ele>2019.1999511719</ele>
        <time>2023-07-24T11:57:22.000Z</time>
      </trkpt>
      <trkpt lat="42.69999" lon="1.33823">
        <ele>2018.8000488281</ele>
        <time>2023-07-24T11:57:30.000Z</time>
      </trkpt>
      <trkpt lat="42.69999" lon="1.33814">
        <ele>2019.4000244141</ele>
        <time>2023-07-24T11:57:36.000Z</time>
      </trkpt>
      <trkpt lat="42.69998" lon="1.33806">
        <ele>2019.8000488281</ele>
        <time>2023-07-24T11:57:43.000Z</time>
      </trkpt>
      <trkpt lat="42.69998" lon="1.33799">
        <ele>2019.4000244141</ele>
        <time>2023-07-24T11:57:49.000Z</time>
      </trkpt>
      <trkpt lat="42.69998" lon="1.33787">
        <ele>2018.1999511719</ele>
        <time>2023-07-24T11:57:57.000Z</time>
      </trkpt>
      <trkpt lat="42.69996" lon="1.33785">
        <ele>2018</ele>
        <time>2023-07-24T11:58:05.000Z</time>
      </trkpt>
      <trkpt lat="42.69996" lon="1.33786">
        <ele>2017.8000488281</ele>
        <time>2023-07-24T11:58:07.000Z</time>
      </trkpt>
      <trkpt lat="42.69996" lon="1.33787">
        <ele>2018</ele>
        <time>2023-07-24T11:58:14.000Z</time>
      </trkpt>
      <trkpt lat="42.69996" lon="1.33785">
        <ele>2018</ele>
        <time>2023-07-24T11:58:24.000Z</time>
      </trkpt>
      <trkpt lat="42.69995" lon="1.33781">
        <ele>2018.4000244141</ele>
        <time>2023-07-24T11:58:31.000Z</time>
      </trkpt>
      <trkpt lat="42.69992" lon="1.33781">
        <ele>2017.5999755859</ele>
        <time>2023-07-24T11:58:39.000Z</time>
      </trkpt>
      <trkpt lat="42.69991" lon="1.33781">
        <ele>2017</ele>
        <time>2023-07-24T11:58:42.000Z</time>
      </trkpt>
      <trkpt lat="42.69989" lon="1.3378">
        <ele>2016</ele>
        <time>2023-07-24T11:58:45.000Z</time>
      </trkpt>
      <trkpt lat="42.69986" lon="1.3378">
        <ele>2015.1999511719</ele>
        <time>2023-07-24T11:58:47.000Z</time>
      </trkpt>
      <trkpt lat="42.69981" lon="1.33781">
        <ele>2015</ele>
        <time>2023-07-24T11:58:51.000Z</time>
      </trkpt>
      <trkpt lat="42.69976" lon="1.33783">
        <ele>2015</ele>
        <time>2023-07-24T11:58:55.000Z</time>
      </trkpt>
      <trkpt lat="42.69964" lon="1.33784">
        <ele>2015</ele>
        <time>2023-07-24T11:59:03.000Z</time>
      </trkpt>
      <trkpt lat="42.6995" lon="1.33785">
        <ele>2015.1999511719</ele>
        <time>2023-07-24T11:59:13.000Z</time>
      </trkpt>
      <trkpt lat="42.69938" lon="1.33787">
        <ele>2015</ele>
        <time>2023-07-24T11:59:21.000Z</time>
      </trkpt>
      <trkpt lat="42.69925" lon="1.33787">
        <ele>2014.5999755859</ele>
        <time>2023-07-24T11:59:31.000Z</time>
      </trkpt>
      <trkpt lat="42.69915" lon="1.33786">
        <ele>2014.8000488281</ele>
        <time>2023-07-24T11:59:39.000Z</time>
      </trkpt>
      <trkpt lat="42.69903" lon="1.33788">
        <ele>2013.8000488281</ele>
        <time>2023-07-24T11:59:46.000Z</time>
      </trkpt>
      <trkpt lat="42.69903" lon="1.33791">
        <ele>2014.4000244141</ele>
        <time>2023-07-24T11:59:54.000Z</time>
      </trkpt>
      <trkpt lat="42.69905" lon="1.3379">
        <ele>2015.1999511719</ele>
        <time>2023-07-24T12:00:04.000Z</time>
      </trkpt>
      <trkpt lat="42.69904" lon="1.33792">
        <ele>2016.4000244141</ele>
        <time>2023-07-24T12:00:07.000Z</time>
      </trkpt>
      <trkpt lat="42.69904" lon="1.33793">
        <ele>2016</ele>
        <time>2023-07-24T12:00:11.000Z</time>
      </trkpt>
      <trkpt lat="42.69904" lon="1.33793">
        <ele>2015.1999511719</ele>
        <time>2023-07-24T12:00:13.000Z</time>
      </trkpt>
      <trkpt lat="42.69903" lon="1.33791">
        <ele>2014.5999755859</ele>
        <time>2023-07-24T12:00:19.000Z</time>
      </trkpt>
      <trkpt lat="42.69902" lon="1.33795">
        <ele>2016</ele>
        <time>2023-07-24T12:00:28.000Z</time>
      </trkpt>
      <trkpt lat="42.69902" lon="1.33797">
        <ele>2016.5999755859</ele>
        <time>2023-07-24T12:00:30.000Z</time>
      </trkpt>
      <trkpt lat="42.69901" lon="1.33801">
        <ele>2017.5999755859</ele>
        <time>2023-07-24T12:00:34.000Z</time>
      </trkpt>
      <trkpt lat="42.699" lon="1.33802">
        <ele>2017.5999755859</ele>
        <time>2023-07-24T12:00:35.000Z</time>
      </trkpt>
      <trkpt lat="42.69898" lon="1.33806">
        <ele>2018.8000488281</ele>
        <time>2023-07-24T12:00:39.000Z</time>
      </trkpt>
      <trkpt lat="42.69896" lon="1.33807">
        <ele>2019.5999755859</ele>
        <time>2023-07-24T12:00:42.000Z</time>
      </trkpt>
      <trkpt lat="42.69895" lon="1.33808">
        <ele>2019.8000488281</ele>
        <time>2023-07-24T12:00:44.000Z</time>
      </trkpt>
      <trkpt lat="42.69894" lon="1.33811">
        <ele>2021</ele>
        <time>2023-07-24T12:00:49.000Z</time>
      </trkpt>
      <trkpt lat="42.69894" lon="1.33811">
        <ele>2021.4000244141</ele>
        <time>2023-07-24T12:00:50.000Z</time>
      </trkpt>
      <trkpt lat="42.69892" lon="1.33813">
        <ele>2022.5999755859</ele>
        <time>2023-07-24T12:00:52.000Z</time>
      </trkpt>
      <trkpt lat="42.69892" lon="1.33814">
        <ele>2023.5999755859</ele>
        <time>2023-07-24T12:00:53.000Z</time>
      </trkpt>
      <trkpt lat="42.6989" lon="1.33815">
        <ele>2024.5999755859</ele>
        <time>2023-07-24T12:00:55.000Z</time>
      </trkpt>
      <trkpt lat="42.69888" lon="1.33819">
        <ele>2024.4000244141</ele>
        <time>2023-07-24T12:00:58.000Z</time>
      </trkpt>
      <trkpt lat="42.69886" lon="1.33822">
        <ele>2023.5999755859</ele>
        <time>2023-07-24T12:01:01.000Z</time>
      </trkpt>
      <trkpt lat="42.69884" lon="1.33826">
        <ele>2023</ele>
        <time>2023-07-24T12:01:05.000Z</time>
      </trkpt>
      <trkpt lat="42.69883" lon="1.33825">
        <ele>2022.8000488281</ele>
        <time>2023-07-24T12:01:11.000Z</time>
      </trkpt>
      <trkpt lat="42.69885" lon="1.33827">
        <ele>2022.5999755859</ele>
        <time>2023-07-24T12:01:20.000Z</time>
      </trkpt>
      <trkpt lat="42.69885" lon="1.33827">
        <ele>2022.4000244141</ele>
        <time>2023-07-24T12:01:21.000Z</time>
      </trkpt>
      <trkpt lat="42.69884" lon="1.33828">
        <ele>2023.1999511719</ele>
        <time>2023-07-24T12:01:29.000Z</time>
      </trkpt>
      <trkpt lat="42.69881" lon="1.33826">
        <ele>2023.1999511719</ele>
        <time>2023-07-24T12:01:35.000Z</time>
      </trkpt>
      <trkpt lat="42.69872" lon="1.33822">
        <ele>2022.4000244141</ele>
        <time>2023-07-24T12:01:42.000Z</time>
      </trkpt>
      <trkpt lat="42.69867" lon="1.33812">
        <ele>2021.1999511719</ele>
        <time>2023-07-24T12:01:48.000Z</time>
      </trkpt>
      <trkpt lat="42.69867" lon="1.3381">
        <ele>2021.1999511719</ele>
        <time>2023-07-24T12:01:49.000Z</time>
      </trkpt>
      <trkpt lat="42.69864" lon="1.33795">
        <ele>2021.8000488281</ele>
        <time>2023-07-24T12:01:57.000Z</time>
      </trkpt>
      <trkpt lat="42.69861" lon="1.33786">
        <ele>2020.8000488281</ele>
        <time>2023-07-24T12:02:03.000Z</time>
      </trkpt>
      <trkpt lat="42.69859" lon="1.33779">
        <ele>2020.1999511719</ele>
        <time>2023-07-24T12:02:06.000Z</time>
      </trkpt>
      <trkpt lat="42.69857" lon="1.33771">
        <ele>2021.1999511719</ele>
        <time>2023-07-24T12:02:11.000Z</time>
      </trkpt>
      <trkpt lat="42.69853" lon="1.33755">
        <ele>2021.1999511719</ele>
        <time>2023-07-24T12:02:19.000Z</time>
      </trkpt>
      <trkpt lat="42.69853" lon="1.3374">
        <ele>2021</ele>
        <time>2023-07-24T12:02:28.000Z</time>
      </trkpt>
      <trkpt lat="42.69856" lon="1.33731">
        <ele>2020.4000244141</ele>
        <time>2023-07-24T12:02:35.000Z</time>
      </trkpt>
      <trkpt lat="42.69859" lon="1.33718">
        <ele>2020.1999511719</ele>
        <time>2023-07-24T12:02:42.000Z</time>
      </trkpt>
      <trkpt lat="42.69859" lon="1.33715">
        <ele>2020</ele>
        <time>2023-07-24T12:02:43.000Z</time>
      </trkpt>
      <trkpt lat="42.69858" lon="1.33705">
        <ele>2019</ele>
        <time>2023-07-24T12:02:48.000Z</time>
      </trkpt>
      <trkpt lat="42.69858" lon="1.33699">
        <ele>2018.8000488281</ele>
        <time>2023-07-24T12:02:51.000Z</time>
      </trkpt>
      <trkpt lat="42.69857" lon="1.3368">
        <ele>2020</ele>
        <time>2023-07-24T12:03:00.000Z</time>
      </trkpt>
      <trkpt lat="42.69857" lon="1.33678">
        <ele>2020.8000488281</ele>
        <time>2023-07-24T12:03:01.000Z</time>
      </trkpt>
      <trkpt lat="42.69857" lon="1.33674">
        <ele>2020.4000244141</ele>
        <time>2023-07-24T12:03:09.000Z</time>
      </trkpt>
      <trkpt lat="42.69856" lon="1.33673">
        <ele>2019.1999511719</ele>
        <time>2023-07-24T12:03:16.000Z</time>
      </trkpt>
      <trkpt lat="42.69855" lon="1.33668">
        <ele>2019.8000488281</ele>
        <time>2023-07-24T12:03:24.000Z</time>
      </trkpt>
      <trkpt lat="42.69853" lon="1.33663">
        <ele>2019</ele>
        <time>2023-07-24T12:03:27.000Z</time>
      </trkpt>
      <trkpt lat="42.69854" lon="1.33651">
        <ele>2020.8000488281</ele>
        <time>2023-07-24T12:03:33.000Z</time>
      </trkpt>
      <trkpt lat="42.69855" lon="1.33648">
        <ele>2022</ele>
        <time>2023-07-24T12:03:35.000Z</time>
      </trkpt>
      <trkpt lat="42.69856" lon="1.33637">
        <ele>2021.5999755859</ele>
        <time>2023-07-24T12:03:42.000Z</time>
      </trkpt>
      <trkpt lat="42.69853" lon="1.33627">
        <ele>2021</ele>
        <time>2023-07-24T12:03:49.000Z</time>
      </trkpt>
      <trkpt lat="42.69845" lon="1.33614">
        <ele>2019.5999755859</ele>
        <time>2023-07-24T12:03:57.000Z</time>
      </trkpt>
      <trkpt lat="42.69843" lon="1.3361">
        <ele>2018</ele>
        <time>2023-07-24T12:03:59.000Z</time>
      </trkpt>
      <trkpt lat="42.69841" lon="1.33604">
        <ele>2016.5999755859</ele>
        <time>2023-07-24T12:04:03.000Z</time>
      </trkpt>
      <trkpt lat="42.69841" lon="1.33601">
        <ele>2016.4000244141</ele>
        <time>2023-07-24T12:04:05.000Z</time>
      </trkpt>
      <trkpt lat="42.69839" lon="1.33589">
        <ele>2017.1999511719</ele>
        <time>2023-07-24T12:04:12.000Z</time>
      </trkpt>
      <trkpt lat="42.69839" lon="1.33585">
        <ele>2017.5999755859</ele>
        <time>2023-07-24T12:04:14.000Z</time>
      </trkpt>
      <trkpt lat="42.69838" lon="1.33579">
        <ele>2017.8000488281</ele>
        <time>2023-07-24T12:04:18.000Z</time>
      </trkpt>
      <trkpt lat="42.69836" lon="1.33569">
        <ele>2017.1999511719</ele>
        <time>2023-07-24T12:04:25.000Z</time>
      </trkpt>
      <trkpt lat="42.69834" lon="1.3356">
        <ele>2018.5999755859</ele>
        <time>2023-07-24T12:04:31.000Z</time>
      </trkpt>
      <trkpt lat="42.69834" lon="1.33559">
        <ele>2018.8000488281</ele>
        <time>2023-07-24T12:04:32.000Z</time>
      </trkpt>
      <trkpt lat="42.69831" lon="1.33547">
        <ele>2017.8000488281</ele>
        <time>2023-07-24T12:04:37.000Z</time>
      </trkpt>
      <trkpt lat="42.69831" lon="1.33545">
        <ele>2017.1999511719</ele>
        <time>2023-07-24T12:04:38.000Z</time>
      </trkpt>
      <trkpt lat="42.69828" lon="1.33532">
        <ele>2017</ele>
        <time>2023-07-24T12:04:47.000Z</time>
      </trkpt>
      <trkpt lat="42.69829" lon="1.33523">
        <ele>2016.8000488281</ele>
        <time>2023-07-24T12:04:54.000Z</time>
      </trkpt>
      <trkpt lat="42.6983" lon="1.33514">
        <ele>2016.4000244141</ele>
        <time>2023-07-24T12:05:00.000Z</time>
      </trkpt>
      <trkpt lat="42.69832" lon="1.33505">
        <ele>2016.4000244141</ele>
        <time>2023-07-24T12:05:05.000Z</time>
      </trkpt>
      <trkpt lat="42.69833" lon="1.33488">
        <ele>2017</ele>
        <time>2023-07-24T12:05:13.000Z</time>
      </trkpt>
      <trkpt lat="42.69834" lon="1.3348">
        <ele>2016.1999511719</ele>
        <time>2023-07-24T12:05:20.000Z</time>
      </trkpt>
      <trkpt lat="42.69837" lon="1.33472">
        <ele>2016.8000488281</ele>
        <time>2023-07-24T12:05:28.000Z</time>
      </trkpt>
      <trkpt lat="42.69839" lon="1.33465">
        <ele>2016</ele>
        <time>2023-07-24T12:05:33.000Z</time>
      </trkpt>
      <trkpt lat="42.69839" lon="1.3346">
        <ele>2016</ele>
        <time>2023-07-24T12:05:36.000Z</time>
      </trkpt>
      <trkpt lat="42.69838" lon="1.33456">
        <ele>2015</ele>
        <time>2023-07-24T12:05:44.000Z</time>
      </trkpt>
      <trkpt lat="42.69838" lon="1.33452">
        <ele>2014.8000488281</ele>
        <time>2023-07-24T12:05:56.000Z</time>
      </trkpt>
      <trkpt lat="42.69844" lon="1.3345">
        <ele>2015.8000488281</ele>
        <time>2023-07-24T12:06:07.000Z</time>
      </trkpt>
      <trkpt lat="42.69847" lon="1.33447">
        <ele>2015.8000488281</ele>
        <time>2023-07-24T12:06:12.000Z</time>
      </trkpt>
      <trkpt lat="42.69845" lon="1.33444">
        <ele>2016.1999511719</ele>
        <time>2023-07-24T12:06:16.000Z</time>
      </trkpt>
      <trkpt lat="42.69846" lon="1.33443">
        <ele>2017</ele>
        <time>2023-07-24T12:06:19.000Z</time>
      </trkpt>
      <trkpt lat="42.69846" lon="1.33442">
        <ele>2017.1999511719</ele>
        <time>2023-07-24T12:06:20.000Z</time>
      </trkpt>
      <trkpt lat="42.69845" lon="1.33439">
        <ele>2019.8000488281</ele>
        <time>2023-07-24T12:06:31.000Z</time>
      </trkpt>
      <trkpt lat="42.69845" lon="1.33438">
        <ele>2019.8000488281</ele>
        <time>2023-07-24T12:06:34.000Z</time>
      </trkpt>
      <trkpt lat="42.69846" lon="1.33436">
        <ele>2020</ele>
        <time>2023-07-24T12:06:39.000Z</time>
      </trkpt>
      <trkpt lat="42.69848" lon="1.33436">
        <ele>2020.8000488281</ele>
        <time>2023-07-24T12:06:45.000Z</time>
      </trkpt>
      <trkpt lat="42.69848" lon="1.33435">
        <ele>2021.8000488281</ele>
        <time>2023-07-24T12:06:49.000Z</time>
      </trkpt>
      <trkpt lat="42.69849" lon="1.33435">
        <ele>2022.5999755859</ele>
        <time>2023-07-24T12:06:53.000Z</time>
      </trkpt>
      <trkpt lat="42.69851" lon="1.33435">
        <ele>2023</ele>
        <time>2023-07-24T12:06:56.000Z</time>
      </trkpt>
      <trkpt lat="42.69857" lon="1.33429">
        <ele>2026.8000488281</ele>
        <time>2023-07-24T12:07:27.000Z</time>
      </trkpt>
      <trkpt lat="42.69857" lon="1.33428">
        <ele>2027.1999511719</ele>
        <time>2023-07-24T12:07:34.000Z</time>
      </trkpt>
      <trkpt lat="42.69854" lon="1.33429">
        <ele>2027.1999511719</ele>
        <time>2023-07-24T12:07:41.000Z</time>
      </trkpt>
      <trkpt lat="42.69853" lon="1.3343">
        <ele>2027.5999755859</ele>
        <time>2023-07-24T12:07:45.000Z</time>
      </trkpt>
      <trkpt lat="42.69854" lon="1.33428">
        <ele>2028</ele>
        <time>2023-07-24T12:07:49.000Z</time>
      </trkpt>
      <trkpt lat="42.69855" lon="1.33427">
        <ele>2028.5999755859</ele>
        <time>2023-07-24T12:07:51.000Z</time>
      </trkpt>
      <trkpt lat="42.69854" lon="1.33423">
        <ele>2029</ele>
        <time>2023-07-24T12:07:58.000Z</time>
      </trkpt>
      <trkpt lat="42.69853" lon="1.33422">
        <ele>2029.5999755859</ele>
        <time>2023-07-24T12:08:02.000Z</time>
      </trkpt>
      <trkpt lat="42.69852" lon="1.33419">
        <ele>2030.4000244141</ele>
        <time>2023-07-24T12:08:05.000Z</time>
      </trkpt>
      <trkpt lat="42.69852" lon="1.33417">
        <ele>2030.5999755859</ele>
        <time>2023-07-24T12:08:08.000Z</time>
      </trkpt>
      <trkpt lat="42.69852" lon="1.33414">
        <ele>2030.4000244141</ele>
        <time>2023-07-24T12:08:12.000Z</time>
      </trkpt>
      <trkpt lat="42.69852" lon="1.33412">
        <ele>2029.8000488281</ele>
        <time>2023-07-24T12:08:14.000Z</time>
      </trkpt>
      <trkpt lat="42.69852" lon="1.33411">
        <ele>2029.4000244141</ele>
        <time>2023-07-24T12:08:15.000Z</time>
      </trkpt>
      <trkpt lat="42.69853" lon="1.3341">
        <ele>2028.4000244141</ele>
        <time>2023-07-24T12:08:18.000Z</time>
      </trkpt>
      <trkpt lat="42.69854" lon="1.33409">
        <ele>2028</ele>
        <time>2023-07-24T12:08:20.000Z</time>
      </trkpt>
      <trkpt lat="42.69854" lon="1.33406">
        <ele>2027.1999511719</ele>
        <time>2023-07-24T12:08:23.000Z</time>
      </trkpt>
      <trkpt lat="42.69856" lon="1.33404">
        <ele>2027</ele>
        <time>2023-07-24T12:08:27.000Z</time>
      </trkpt>
      <trkpt lat="42.69858" lon="1.33402">
        <ele>2027.1999511719</ele>
        <time>2023-07-24T12:08:34.000Z</time>
      </trkpt>
      <trkpt lat="42.69861" lon="1.33398">
        <ele>2026</ele>
        <time>2023-07-24T12:08:41.000Z</time>
      </trkpt>
      <trkpt lat="42.69862" lon="1.33397">
        <ele>2026</ele>
        <time>2023-07-24T12:08:42.000Z</time>
      </trkpt>
      <trkpt lat="42.69864" lon="1.33391">
        <ele>2025.5999755859</ele>
        <time>2023-07-24T12:08:49.000Z</time>
      </trkpt>
      <trkpt lat="42.69867" lon="1.33383">
        <ele>2025.4000244141</ele>
        <time>2023-07-24T12:08:57.000Z</time>
      </trkpt>
      <trkpt lat="42.6987" lon="1.33378">
        <ele>2025.8000488281</ele>
        <time>2023-07-24T12:09:03.000Z</time>
      </trkpt>
      <trkpt lat="42.69868" lon="1.33373">
        <ele>2027</ele>
        <time>2023-07-24T12:09:09.000Z</time>
      </trkpt>
      <trkpt lat="42.6987" lon="1.3337">
        <ele>2028.1999511719</ele>
        <time>2023-07-24T12:09:14.000Z</time>
      </trkpt>
      <trkpt lat="42.6987" lon="1.33368">
        <ele>2028.5999755859</ele>
        <time>2023-07-24T12:09:16.000Z</time>
      </trkpt>
      <trkpt lat="42.6987" lon="1.33368">
        <ele>2029.1999511719</ele>
        <time>2023-07-24T12:09:19.000Z</time>
      </trkpt>
      <trkpt lat="42.6987" lon="1.33368">
        <ele>2029.5999755859</ele>
        <time>2023-07-24T12:09:21.000Z</time>
      </trkpt>
      <trkpt lat="42.69871" lon="1.33366">
        <ele>2030.4000244141</ele>
        <time>2023-07-24T12:09:23.000Z</time>
      </trkpt>
      <trkpt lat="42.69874" lon="1.33363">
        <ele>2031.4000244141</ele>
        <time>2023-07-24T12:09:27.000Z</time>
      </trkpt>
      <trkpt lat="42.69874" lon="1.33362">
        <ele>2031.5999755859</ele>
        <time>2023-07-24T12:09:29.000Z</time>
      </trkpt>
      <trkpt lat="42.69873" lon="1.33361">
        <ele>2031.8000488281</ele>
        <time>2023-07-24T12:09:33.000Z</time>
      </trkpt>
      <trkpt lat="42.69872" lon="1.3336">
        <ele>2031.1999511719</ele>
        <time>2023-07-24T12:09:42.000Z</time>
      </trkpt>
      <trkpt lat="42.69872" lon="1.33358">
        <ele>2031.1999511719</ele>
        <time>2023-07-24T12:09:48.000Z</time>
      </trkpt>
      <trkpt lat="42.69873" lon="1.33356">
        <ele>2031.1999511719</ele>
        <time>2023-07-24T12:09:53.000Z</time>
      </trkpt>
      <trkpt lat="42.69876" lon="1.33352">
        <ele>2030.5999755859</ele>
        <time>2023-07-24T12:10:00.000Z</time>
      </trkpt>
      <trkpt lat="42.69877" lon="1.33352">
        <ele>2030.4000244141</ele>
        <time>2023-07-24T12:10:01.000Z</time>
      </trkpt>
      <trkpt lat="42.6988" lon="1.33355">
        <ele>2029</ele>
        <time>2023-07-24T12:10:05.000Z</time>
      </trkpt>
      <trkpt lat="42.69881" lon="1.33356">
        <ele>2028</ele>
        <time>2023-07-24T12:10:07.000Z</time>
      </trkpt>
      <trkpt lat="42.69879" lon="1.33356">
        <ele>2027.1999511719</ele>
        <time>2023-07-24T12:10:11.000Z</time>
      </trkpt>
      <trkpt lat="42.6988" lon="1.33353">
        <ele>2027</ele>
        <time>2023-07-24T12:10:14.000Z</time>
      </trkpt>
      <trkpt lat="42.6988" lon="1.33353">
        <ele>2026.8000488281</ele>
        <time>2023-07-24T12:10:17.000Z</time>
      </trkpt>
      <trkpt lat="42.6988" lon="1.33353">
        <ele>2027.4000244141</ele>
        <time>2023-07-24T12:10:25.000Z</time>
      </trkpt>
      <trkpt lat="42.69873" lon="1.33355">
        <ele>2025.5999755859</ele>
        <time>2023-07-24T12:10:40.000Z</time>
      </trkpt>
      <trkpt lat="42.69875" lon="1.33352">
        <ele>2023.4000244141</ele>
        <time>2023-07-24T12:10:57.000Z</time>
      </trkpt>
      <trkpt lat="42.69878" lon="1.33348">
        <ele>2022.1999511719</ele>
        <time>2023-07-24T12:11:06.000Z</time>
      </trkpt>
      <trkpt lat="42.69879" lon="1.33347">
        <ele>2021.5999755859</ele>
        <time>2023-07-24T12:11:12.000Z</time>
      </trkpt>
      <trkpt lat="42.69876" lon="1.33348">
        <ele>2021.8000488281</ele>
        <time>2023-07-24T12:11:18.000Z</time>
      </trkpt>
      <trkpt lat="42.69875" lon="1.33349">
        <ele>2022.1999511719</ele>
        <time>2023-07-24T12:11:27.000Z</time>
      </trkpt>
      <trkpt lat="42.69879" lon="1.33344">
        <ele>2021</ele>
        <time>2023-07-24T12:11:36.000Z</time>
      </trkpt>
      <trkpt lat="42.69881" lon="1.33334">
        <ele>2020.8000488281</ele>
        <time>2023-07-24T12:11:43.000Z</time>
      </trkpt>
      <trkpt lat="42.69883" lon="1.33326">
        <ele>2021.4000244141</ele>
        <time>2023-07-24T12:11:52.000Z</time>
      </trkpt>
      <trkpt lat="42.69885" lon="1.33319">
        <ele>2021.1999511719</ele>
        <time>2023-07-24T12:11:59.000Z</time>
      </trkpt>
      <trkpt lat="42.69887" lon="1.33313">
        <ele>2021.5999755859</ele>
        <time>2023-07-24T12:12:06.000Z</time>
      </trkpt>
      <trkpt lat="42.69891" lon="1.33311">
        <ele>2021.8000488281</ele>
        <time>2023-07-24T12:12:12.000Z</time>
      </trkpt>
      <trkpt lat="42.69893" lon="1.33303">
        <ele>2022</ele>
        <time>2023-07-24T12:12:19.000Z</time>
      </trkpt>
      <trkpt lat="42.69895" lon="1.33302">
        <ele>2022.1999511719</ele>
        <time>2023-07-24T12:12:21.000Z</time>
      </trkpt>
      <trkpt lat="42.69896" lon="1.33296">
        <ele>2023</ele>
        <time>2023-07-24T12:12:26.000Z</time>
      </trkpt>
      <trkpt lat="42.69896" lon="1.33295">
        <ele>2023.1999511719</ele>
        <time>2023-07-24T12:12:27.000Z</time>
      </trkpt>
      <trkpt lat="42.69897" lon="1.33293">
        <ele>2024</ele>
        <time>2023-07-24T12:12:31.000Z</time>
      </trkpt>
      <trkpt lat="42.69897" lon="1.33293">
        <ele>2024.1999511719</ele>
        <time>2023-07-24T12:12:32.000Z</time>
      </trkpt>
      <trkpt lat="42.69899" lon="1.3329">
        <ele>2025.4000244141</ele>
        <time>2023-07-24T12:12:37.000Z</time>
      </trkpt>
      <trkpt lat="42.699" lon="1.3329">
        <ele>2025.8000488281</ele>
        <time>2023-07-24T12:12:39.000Z</time>
      </trkpt>
      <trkpt lat="42.69899" lon="1.33286">
        <ele>2026.5999755859</ele>
        <time>2023-07-24T12:12:44.000Z</time>
      </trkpt>
      <trkpt lat="42.69898" lon="1.33283">
        <ele>2027</ele>
        <time>2023-07-24T12:12:48.000Z</time>
      </trkpt>
      <trkpt lat="42.69899" lon="1.33283">
        <ele>2027.8000488281</ele>
        <time>2023-07-24T12:12:50.000Z</time>
      </trkpt>
      <trkpt lat="42.69899" lon="1.3328">
        <ele>2028.4000244141</ele>
        <time>2023-07-24T12:12:55.000Z</time>
      </trkpt>
      <trkpt lat="42.699" lon="1.33279">
        <ele>2029.1999511719</ele>
        <time>2023-07-24T12:12:58.000Z</time>
      </trkpt>
      <trkpt lat="42.69902" lon="1.33273">
        <ele>2030.1999511719</ele>
        <time>2023-07-24T12:13:04.000Z</time>
      </trkpt>
      <trkpt lat="42.69904" lon="1.33267">
        <ele>2031.1999511719</ele>
        <time>2023-07-24T12:13:12.000Z</time>
      </trkpt>
      <trkpt lat="42.69904" lon="1.33266">
        <ele>2031.1999511719</ele>
        <time>2023-07-24T12:13:13.000Z</time>
      </trkpt>
      <trkpt lat="42.69905" lon="1.33264">
        <ele>2032.5999755859</ele>
        <time>2023-07-24T12:13:17.000Z</time>
      </trkpt>
      <trkpt lat="42.69906" lon="1.33262">
        <ele>2032.8000488281</ele>
        <time>2023-07-24T12:13:19.000Z</time>
      </trkpt>
      <trkpt lat="42.69907" lon="1.33256">
        <ele>2032.1999511719</ele>
        <time>2023-07-24T12:13:25.000Z</time>
      </trkpt>
      <trkpt lat="42.69909" lon="1.3325">
        <ele>2033</ele>
        <time>2023-07-24T12:13:32.000Z</time>
      </trkpt>
      <trkpt lat="42.69911" lon="1.33246">
        <ele>2033.8000488281</ele>
        <time>2023-07-24T12:13:37.000Z</time>
      </trkpt>
      <trkpt lat="42.69912" lon="1.33244">
        <ele>2034</ele>
        <time>2023-07-24T12:13:39.000Z</time>
      </trkpt>
      <trkpt lat="42.69915" lon="1.33238">
        <ele>2034.4000244141</ele>
        <time>2023-07-24T12:13:48.000Z</time>
      </trkpt>
      <trkpt lat="42.69918" lon="1.33233">
        <ele>2034.5999755859</ele>
        <time>2023-07-24T12:13:53.000Z</time>
      </trkpt>
      <trkpt lat="42.6992" lon="1.3323">
        <ele>2034.8000488281</ele>
        <time>2023-07-24T12:13:58.000Z</time>
      </trkpt>
      <trkpt lat="42.69921" lon="1.33227">
        <ele>2035.1999511719</ele>
        <time>2023-07-24T12:14:00.000Z</time>
      </trkpt>
      <trkpt lat="42.69923" lon="1.33219">
        <ele>2035.4000244141</ele>
        <time>2023-07-24T12:14:06.000Z</time>
      </trkpt>
      <trkpt lat="42.69925" lon="1.33211">
        <ele>2035.4000244141</ele>
        <time>2023-07-24T12:14:13.000Z</time>
      </trkpt>
      <trkpt lat="42.69928" lon="1.33205">
        <ele>2036</ele>
        <time>2023-07-24T12:14:18.000Z</time>
      </trkpt>
      <trkpt lat="42.69929" lon="1.33203">
        <ele>2036.1999511719</ele>
        <time>2023-07-24T12:14:20.000Z</time>
      </trkpt>
      <trkpt lat="42.6993" lon="1.33199">
        <ele>2037.1999511719</ele>
        <time>2023-07-24T12:14:25.000Z</time>
      </trkpt>
      <trkpt lat="42.69932" lon="1.33195">
        <ele>2037.5999755859</ele>
        <time>2023-07-24T12:14:31.000Z</time>
      </trkpt>
      <trkpt lat="42.69934" lon="1.33191">
        <ele>2038</ele>
        <time>2023-07-24T12:14:36.000Z</time>
      </trkpt>
      <trkpt lat="42.69935" lon="1.33186">
        <ele>2037.4000244141</ele>
        <time>2023-07-24T12:14:43.000Z</time>
      </trkpt>
      <trkpt lat="42.69937" lon="1.33186">
        <ele>2038.4000244141</ele>
        <time>2023-07-24T12:14:53.000Z</time>
      </trkpt>
      <trkpt lat="42.69936" lon="1.33185">
        <ele>2038.4000244141</ele>
        <time>2023-07-24T12:14:56.000Z</time>
      </trkpt>
      <trkpt lat="42.69935" lon="1.3318">
        <ele>2038</ele>
        <time>2023-07-24T12:15:02.000Z</time>
      </trkpt>
      <trkpt lat="42.69938" lon="1.33176">
        <ele>2038</ele>
        <time>2023-07-24T12:15:09.000Z</time>
      </trkpt>
      <trkpt lat="42.69939" lon="1.33173">
        <ele>2036.8000488281</ele>
        <time>2023-07-24T12:15:17.000Z</time>
      </trkpt>
      <trkpt lat="42.69944" lon="1.33174">
        <ele>2036.4000244141</ele>
        <time>2023-07-24T12:15:23.000Z</time>
      </trkpt>
      <trkpt lat="42.69946" lon="1.33176">
        <ele>2035.8000488281</ele>
        <time>2023-07-24T12:15:28.000Z</time>
      </trkpt>
      <trkpt lat="42.69948" lon="1.33175">
        <ele>2035.5999755859</ele>
        <time>2023-07-24T12:15:30.000Z</time>
      </trkpt>
      <trkpt lat="42.69955" lon="1.33167">
        <ele>2034.8000488281</ele>
        <time>2023-07-24T12:15:37.000Z</time>
      </trkpt>
      <trkpt lat="42.69957" lon="1.33162">
        <ele>2035.4000244141</ele>
        <time>2023-07-24T12:15:43.000Z</time>
      </trkpt>
      <trkpt lat="42.69957" lon="1.33158">
        <ele>2036.8000488281</ele>
        <time>2023-07-24T12:15:48.000Z</time>
      </trkpt>
      <trkpt lat="42.69958" lon="1.33155">
        <ele>2037.1999511719</ele>
        <time>2023-07-24T12:15:51.000Z</time>
      </trkpt>
      <trkpt lat="42.69961" lon="1.33148">
        <ele>2037.4000244141</ele>
        <time>2023-07-24T12:15:59.000Z</time>
      </trkpt>
      <trkpt lat="42.69963" lon="1.33145">
        <ele>2038</ele>
        <time>2023-07-24T12:16:01.000Z</time>
      </trkpt>
      <trkpt lat="42.69964" lon="1.33143">
        <ele>2038.4000244141</ele>
        <time>2023-07-24T12:16:04.000Z</time>
      </trkpt>
      <trkpt lat="42.69964" lon="1.3314">
        <ele>2039.1999511719</ele>
        <time>2023-07-24T12:16:10.000Z</time>
      </trkpt>
      <trkpt lat="42.69965" lon="1.33139">
        <ele>2039.4000244141</ele>
        <time>2023-07-24T12:16:11.000Z</time>
      </trkpt>
      <trkpt lat="42.69965" lon="1.33138">
        <ele>2040.4000244141</ele>
        <time>2023-07-24T12:16:15.000Z</time>
      </trkpt>
      <trkpt lat="42.69966" lon="1.33137">
        <ele>2040.8000488281</ele>
        <time>2023-07-24T12:16:18.000Z</time>
      </trkpt>
      <trkpt lat="42.69972" lon="1.33133">
        <ele>2041</ele>
        <time>2023-07-24T12:16:25.000Z</time>
      </trkpt>
      <trkpt lat="42.69978" lon="1.33131">
        <ele>2041</ele>
        <time>2023-07-24T12:16:31.000Z</time>
      </trkpt>
      <trkpt lat="42.69983" lon="1.33131">
        <ele>2041.8000488281</ele>
        <time>2023-07-24T12:16:37.000Z</time>
      </trkpt>
      <trkpt lat="42.69989" lon="1.33123">
        <ele>2044.1999511719</ele>
        <time>2023-07-24T12:16:57.000Z</time>
      </trkpt>
      <trkpt lat="42.69991" lon="1.3312">
        <ele>2045</ele>
        <time>2023-07-24T12:17:05.000Z</time>
      </trkpt>
      <trkpt lat="42.69991" lon="1.3312">
        <ele>2045.1999511719</ele>
        <time>2023-07-24T12:17:06.000Z</time>
      </trkpt>
      <trkpt lat="42.69994" lon="1.33115">
        <ele>2045.1999511719</ele>
        <time>2023-07-24T12:17:15.000Z</time>
      </trkpt>
      <trkpt lat="42.69995" lon="1.33114">
        <ele>2045.1999511719</ele>
        <time>2023-07-24T12:17:24.000Z</time>
      </trkpt>
      <trkpt lat="42.69995" lon="1.3311">
        <ele>2045.4000244141</ele>
        <time>2023-07-24T12:17:33.000Z</time>
      </trkpt>
      <trkpt lat="42.69993" lon="1.33109">
        <ele>2046</ele>
        <time>2023-07-24T12:17:37.000Z</time>
      </trkpt>
      <trkpt lat="42.69992" lon="1.33108">
        <ele>2047</ele>
        <time>2023-07-24T12:17:42.000Z</time>
      </trkpt>
      <trkpt lat="42.6999" lon="1.33107">
        <ele>2045</ele>
        <time>2023-07-24T12:17:48.000Z</time>
      </trkpt>
      <trkpt lat="42.6999" lon="1.33107">
        <ele>2045</ele>
        <time>2023-07-24T12:17:49.000Z</time>
      </trkpt>
      <trkpt lat="42.69986" lon="1.33104">
        <ele>2045</ele>
        <time>2023-07-24T12:17:59.000Z</time>
      </trkpt>
      <trkpt lat="42.6999" lon="1.33104">
        <ele>2045.1999511719</ele>
        <time>2023-07-24T12:18:13.000Z</time>
      </trkpt>
      <trkpt lat="42.69995" lon="1.33105">
        <ele>2045.4000244141</ele>
        <time>2023-07-24T12:18:19.000Z</time>
      </trkpt>
      <trkpt lat="42.69996" lon="1.33102">
        <ele>2045.5999755859</ele>
        <time>2023-07-24T12:18:25.000Z</time>
      </trkpt>
      <trkpt lat="42.70001" lon="1.33098">
        <ele>2044.8000488281</ele>
        <time>2023-07-24T12:18:31.000Z</time>
      </trkpt>
      <trkpt lat="42.70001" lon="1.33098">
        <ele>2044</ele>
        <time>2023-07-24T12:18:32.000Z</time>
      </trkpt>
      <trkpt lat="42.70003" lon="1.33097">
        <ele>2043</ele>
        <time>2023-07-24T12:18:34.000Z</time>
      </trkpt>
      <trkpt lat="42.70007" lon="1.33095">
        <ele>2042.8000488281</ele>
        <time>2023-07-24T12:18:39.000Z</time>
      </trkpt>
      <trkpt lat="42.70013" lon="1.33092">
        <ele>2042.5999755859</ele>
        <time>2023-07-24T12:18:46.000Z</time>
      </trkpt>
      <trkpt lat="42.70016" lon="1.33091">
        <ele>2041.8000488281</ele>
        <time>2023-07-24T12:18:50.000Z</time>
      </trkpt>
      <trkpt lat="42.70017" lon="1.33092">
        <ele>2041.4000244141</ele>
        <time>2023-07-24T12:18:52.000Z</time>
      </trkpt>
      <trkpt lat="42.70019" lon="1.33091">
        <ele>2040.8000488281</ele>
        <time>2023-07-24T12:18:56.000Z</time>
      </trkpt>
      <trkpt lat="42.7002" lon="1.33091">
        <ele>2040.1999511719</ele>
        <time>2023-07-24T12:18:59.000Z</time>
      </trkpt>
      <trkpt lat="42.70021" lon="1.33091">
        <ele>2039.5999755859</ele>
        <time>2023-07-24T12:19:01.000Z</time>
      </trkpt>
      <trkpt lat="42.70022" lon="1.33091">
        <ele>2039.4000244141</ele>
        <time>2023-07-24T12:19:07.000Z</time>
      </trkpt>
      <trkpt lat="42.7002" lon="1.33091">
        <ele>2039.8000488281</ele>
        <time>2023-07-24T12:19:16.000Z</time>
      </trkpt>
      <trkpt lat="42.70021" lon="1.33089">
        <ele>2040</ele>
        <time>2023-07-24T12:19:23.000Z</time>
      </trkpt>
      <trkpt lat="42.70026" lon="1.33083">
        <ele>2038.4000244141</ele>
        <time>2023-07-24T12:19:30.000Z</time>
      </trkpt>
      <trkpt lat="42.70027" lon="1.33083">
        <ele>2038.1999511719</ele>
        <time>2023-07-24T12:19:31.000Z</time>
      </trkpt>
      <trkpt lat="42.70038" lon="1.3308">
        <ele>2037.8000488281</ele>
        <time>2023-07-24T12:19:42.000Z</time>
      </trkpt>
      <trkpt lat="42.70063" lon="1.33068">
        <ele>2042.8000488281</ele>
        <time>2023-07-24T12:20:19.000Z</time>
      </trkpt>
      <trkpt lat="42.70063" lon="1.33068">
        <ele>2043.1999511719</ele>
        <time>2023-07-24T12:20:22.000Z</time>
      </trkpt>
      <trkpt lat="42.70062" lon="1.33068">
        <ele>2043.5999755859</ele>
        <time>2023-07-24T12:20:24.000Z</time>
      </trkpt>
      <trkpt lat="42.70043" lon="1.33031">
        <ele>2044</ele>
        <time>2023-07-24T12:20:59.000Z</time>
      </trkpt>
      <trkpt lat="42.70042" lon="1.33033">
        <ele>2044.5999755859</ele>
        <time>2023-07-24T12:21:07.000Z</time>
      </trkpt>
      <trkpt lat="42.7004" lon="1.33036">
        <ele>2045.1999511719</ele>
        <time>2023-07-24T12:21:19.000Z</time>
      </trkpt>
      <trkpt lat="42.70044" lon="1.33032">
        <ele>2045.5999755859</ele>
        <time>2023-07-24T12:21:27.000Z</time>
      </trkpt>
      <trkpt lat="42.70043" lon="1.33022">
        <ele>2045</ele>
        <time>2023-07-24T12:21:32.000Z</time>
      </trkpt>
      <trkpt lat="42.70042" lon="1.33018">
        <ele>2044.8000488281</ele>
        <time>2023-07-24T12:21:37.000Z</time>
      </trkpt>
      <trkpt lat="42.70039" lon="1.33005">
        <ele>2046.4000244141</ele>
        <time>2023-07-24T12:21:47.000Z</time>
      </trkpt>
      <trkpt lat="42.70038" lon="1.33001">
        <ele>2047</ele>
        <time>2023-07-24T12:21:50.000Z</time>
      </trkpt>
      <trkpt lat="42.70039" lon="1.32986">
        <ele>2051.8000488281</ele>
        <time>2023-07-24T12:22:25.000Z</time>
      </trkpt>
      <trkpt lat="42.70043" lon="1.32989">
        <ele>2052.8000488281</ele>
        <time>2023-07-24T12:22:41.000Z</time>
      </trkpt>
      <trkpt lat="42.70044" lon="1.32989">
        <ele>2052.8000488281</ele>
        <time>2023-07-24T12:22:42.000Z</time>
      </trkpt>
      <trkpt lat="42.70047" lon="1.32993">
        <ele>2053.3999023438</ele>
        <time>2023-07-24T12:22:49.000Z</time>
      </trkpt>
      <trkpt lat="42.70047" lon="1.32993">
        <ele>2054.1999511719</ele>
        <time>2023-07-24T12:22:52.000Z</time>
      </trkpt>
      <trkpt lat="42.70047" lon="1.32992">
        <ele>2054.3999023438</ele>
        <time>2023-07-24T12:22:55.000Z</time>
      </trkpt>
      <trkpt lat="42.70049" lon="1.32992">
        <ele>2055.3999023438</ele>
        <time>2023-07-24T12:22:57.000Z</time>
      </trkpt>
      <trkpt lat="42.70052" lon="1.32995">
        <ele>2055.6000976562</ele>
        <time>2023-07-24T12:23:02.000Z</time>
      </trkpt>
      <trkpt lat="42.70054" lon="1.32992">
        <ele>2055.6000976562</ele>
        <time>2023-07-24T12:23:09.000Z</time>
      </trkpt>
      <trkpt lat="42.70055" lon="1.32991">
        <ele>2056.3999023438</ele>
        <time>2023-07-24T12:23:12.000Z</time>
      </trkpt>
      <trkpt lat="42.70056" lon="1.32989">
        <ele>2057</ele>
        <time>2023-07-24T12:23:14.000Z</time>
      </trkpt>
      <trkpt lat="42.70056" lon="1.32988">
        <ele>2057.3999023438</ele>
        <time>2023-07-24T12:23:15.000Z</time>
      </trkpt>
      <trkpt lat="42.70054" lon="1.32985">
        <ele>2058.3999023438</ele>
        <time>2023-07-24T12:23:21.000Z</time>
      </trkpt>
      <trkpt lat="42.70054" lon="1.32981">
        <ele>2059.6000976562</ele>
        <time>2023-07-24T12:23:28.000Z</time>
      </trkpt>
      <trkpt lat="42.70055" lon="1.3298">
        <ele>2059.8000488281</ele>
        <time>2023-07-24T12:23:29.000Z</time>
      </trkpt>
      <trkpt lat="42.70058" lon="1.32973">
        <ele>2060.1999511719</ele>
        <time>2023-07-24T12:23:35.000Z</time>
      </trkpt>
      <trkpt lat="42.70059" lon="1.32971">
        <ele>2060.6000976562</ele>
        <time>2023-07-24T12:23:39.000Z</time>
      </trkpt>
      <trkpt lat="42.70061" lon="1.3297">
        <ele>2061</ele>
        <time>2023-07-24T12:23:42.000Z</time>
      </trkpt>
      <trkpt lat="42.70067" lon="1.3297">
        <ele>2061.1999511719</ele>
        <time>2023-07-24T12:23:50.000Z</time>
      </trkpt>
      <trkpt lat="42.70077" lon="1.32967">
        <ele>2061.1999511719</ele>
        <time>2023-07-24T12:23:59.000Z</time>
      </trkpt>
      <trkpt lat="42.70078" lon="1.32965">
        <ele>2060.1999511719</ele>
        <time>2023-07-24T12:24:06.000Z</time>
      </trkpt>
      <trkpt lat="42.70081" lon="1.32963">
        <ele>2061.1999511719</ele>
        <time>2023-07-24T12:24:13.000Z</time>
      </trkpt>
      <trkpt lat="42.70088" lon="1.32959">
        <ele>2062</ele>
        <time>2023-07-24T12:24:21.000Z</time>
      </trkpt>
      <trkpt lat="42.7009" lon="1.32959">
        <ele>2063.6000976562</ele>
        <time>2023-07-24T12:24:25.000Z</time>
      </trkpt>
      <trkpt lat="42.7009" lon="1.32959">
        <ele>2063.8000488281</ele>
        <time>2023-07-24T12:24:27.000Z</time>
      </trkpt>
      <trkpt lat="42.70092" lon="1.32957">
        <ele>2063</ele>
        <time>2023-07-24T12:24:35.000Z</time>
      </trkpt>
      <trkpt lat="42.70092" lon="1.32952">
        <ele>2065</ele>
        <time>2023-07-24T12:24:43.000Z</time>
      </trkpt>
      <trkpt lat="42.70092" lon="1.32945">
        <ele>2066.8000488281</ele>
        <time>2023-07-24T12:24:49.000Z</time>
      </trkpt>
      <trkpt lat="42.70092" lon="1.3294">
        <ele>2068</ele>
        <time>2023-07-24T12:24:52.000Z</time>
      </trkpt>
      <trkpt lat="42.70093" lon="1.32939">
        <ele>2068.1999511719</ele>
        <time>2023-07-24T12:24:53.000Z</time>
      </trkpt>
      <trkpt lat="42.70096" lon="1.32933">
        <ele>2069</ele>
        <time>2023-07-24T12:25:03.000Z</time>
      </trkpt>
      <trkpt lat="42.70096" lon="1.32932">
        <ele>2069</ele>
        <time>2023-07-24T12:25:04.000Z</time>
      </trkpt>
      <trkpt lat="42.70097" lon="1.32923">
        <ele>2067.8000488281</ele>
        <time>2023-07-24T12:25:10.000Z</time>
      </trkpt>
      <trkpt lat="42.70097" lon="1.32922">
        <ele>2067.6000976562</ele>
        <time>2023-07-24T12:25:11.000Z</time>
      </trkpt>
      <trkpt lat="42.70096" lon="1.32924">
        <ele>2067</ele>
        <time>2023-07-24T12:25:19.000Z</time>
      </trkpt>
      <trkpt lat="42.70099" lon="1.3293">
        <ele>2067</ele>
        <time>2023-07-24T12:25:27.000Z</time>
      </trkpt>
      <trkpt lat="42.701" lon="1.32931">
        <ele>2066.6000976562</ele>
        <time>2023-07-24T12:25:28.000Z</time>
      </trkpt>
      <trkpt lat="42.70098" lon="1.3293">
        <ele>2066.6000976562</ele>
        <time>2023-07-24T12:25:34.000Z</time>
      </trkpt>
      <trkpt lat="42.70097" lon="1.32926">
        <ele>2066.3999023438</ele>
        <time>2023-07-24T12:25:42.000Z</time>
      </trkpt>
      <trkpt lat="42.70101" lon="1.32918">
        <ele>2066.1999511719</ele>
        <time>2023-07-24T12:25:50.000Z</time>
      </trkpt>
      <trkpt lat="42.70101" lon="1.3291">
        <ele>2066.8000488281</ele>
        <time>2023-07-24T12:25:58.000Z</time>
      </trkpt>
      <trkpt lat="42.70101" lon="1.329">
        <ele>2066.6000976562</ele>
        <time>2023-07-24T12:26:05.000Z</time>
      </trkpt>
      <trkpt lat="42.70102" lon="1.32893">
        <ele>2066.8000488281</ele>
        <time>2023-07-24T12:26:11.000Z</time>
      </trkpt>
      <trkpt lat="42.70106" lon="1.32885">
        <ele>2066.8000488281</ele>
        <time>2023-07-24T12:26:19.000Z</time>
      </trkpt>
      <trkpt lat="42.7011" lon="1.32883">
        <ele>2067.8000488281</ele>
        <time>2023-07-24T12:26:26.000Z</time>
      </trkpt>
      <trkpt lat="42.70111" lon="1.32882">
        <ele>2068.1999511719</ele>
        <time>2023-07-24T12:26:27.000Z</time>
      </trkpt>
      <trkpt lat="42.70115" lon="1.32878">
        <ele>2068.8000488281</ele>
        <time>2023-07-24T12:26:34.000Z</time>
      </trkpt>
      <trkpt lat="42.70115" lon="1.32877">
        <ele>2069</ele>
        <time>2023-07-24T12:26:35.000Z</time>
      </trkpt>
      <trkpt lat="42.70114" lon="1.32873">
        <ele>2069.1999511719</ele>
        <time>2023-07-24T12:26:40.000Z</time>
      </trkpt>
      <trkpt lat="42.70114" lon="1.32868">
        <ele>2069.8000488281</ele>
        <time>2023-07-24T12:26:47.000Z</time>
      </trkpt>
      <trkpt lat="42.70113" lon="1.3286">
        <ele>2069.3999023438</ele>
        <time>2023-07-24T12:26:53.000Z</time>
      </trkpt>
      <trkpt lat="42.70114" lon="1.32854">
        <ele>2070</ele>
        <time>2023-07-24T12:27:01.000Z</time>
      </trkpt>
      <trkpt lat="42.70114" lon="1.32853">
        <ele>2070.1999511719</ele>
        <time>2023-07-24T12:27:03.000Z</time>
      </trkpt>
      <trkpt lat="42.70119" lon="1.32851">
        <ele>2071.3999023438</ele>
        <time>2023-07-24T12:27:09.000Z</time>
      </trkpt>
      <trkpt lat="42.70119" lon="1.32853">
        <ele>2072.1999511719</ele>
        <time>2023-07-24T12:27:16.000Z</time>
      </trkpt>
      <trkpt lat="42.70119" lon="1.32855">
        <ele>2072.6000976562</ele>
        <time>2023-07-24T12:27:18.000Z</time>
      </trkpt>
      <trkpt lat="42.70121" lon="1.32856">
        <ele>2073.8000488281</ele>
        <time>2023-07-24T12:27:21.000Z</time>
      </trkpt>
      <trkpt lat="42.70122" lon="1.32856">
        <ele>2073.8000488281</ele>
        <time>2023-07-24T12:27:22.000Z</time>
      </trkpt>
      <trkpt lat="42.70127" lon="1.3286">
        <ele>2073.1999511719</ele>
        <time>2023-07-24T12:27:31.000Z</time>
      </trkpt>
      <trkpt lat="42.70128" lon="1.32857">
        <ele>2073.8000488281</ele>
        <time>2023-07-24T12:27:38.000Z</time>
      </trkpt>
      <trkpt lat="42.70127" lon="1.32859">
        <ele>2073.6000976562</ele>
        <time>2023-07-24T12:27:47.000Z</time>
      </trkpt>
      <trkpt lat="42.70128" lon="1.32855">
        <ele>2074.3999023438</ele>
        <time>2023-07-24T12:27:54.000Z</time>
      </trkpt>
      <trkpt lat="42.70126" lon="1.32853">
        <ele>2074.8000488281</ele>
        <time>2023-07-24T12:27:57.000Z</time>
      </trkpt>
      <trkpt lat="42.70125" lon="1.32852">
        <ele>2075.3999023438</ele>
        <time>2023-07-24T12:28:03.000Z</time>
      </trkpt>
      <trkpt lat="42.7013" lon="1.3286">
        <ele>2075.6000976562</ele>
        <time>2023-07-24T12:28:09.000Z</time>
      </trkpt>
      <trkpt lat="42.70133" lon="1.32863">
        <ele>2075.6000976562</ele>
        <time>2023-07-24T12:28:14.000Z</time>
      </trkpt>
      <trkpt lat="42.70137" lon="1.32863">
        <ele>2075.8000488281</ele>
        <time>2023-07-24T12:28:19.000Z</time>
      </trkpt>
      <trkpt lat="42.70137" lon="1.32861">
        <ele>2076</ele>
        <time>2023-07-24T12:28:22.000Z</time>
      </trkpt>
      <trkpt lat="42.70137" lon="1.3286">
        <ele>2076.8000488281</ele>
        <time>2023-07-24T12:28:25.000Z</time>
      </trkpt>
      <trkpt lat="42.70137" lon="1.32859">
        <ele>2077</ele>
        <time>2023-07-24T12:28:27.000Z</time>
      </trkpt>
      <trkpt lat="42.70139" lon="1.32856">
        <ele>2077.8000488281</ele>
        <time>2023-07-24T12:28:34.000Z</time>
      </trkpt>
      <trkpt lat="42.7014" lon="1.32855">
        <ele>2078</ele>
        <time>2023-07-24T12:28:35.000Z</time>
      </trkpt>
      <trkpt lat="42.70139" lon="1.32847">
        <ele>2078.6000976562</ele>
        <time>2023-07-24T12:28:41.000Z</time>
      </trkpt>
      <trkpt lat="42.70139" lon="1.32844">
        <ele>2079</ele>
        <time>2023-07-24T12:28:43.000Z</time>
      </trkpt>
      <trkpt lat="42.70141" lon="1.32837">
        <ele>2079.6000976562</ele>
        <time>2023-07-24T12:28:49.000Z</time>
      </trkpt>
      <trkpt lat="42.70142" lon="1.32834">
        <ele>2080</ele>
        <time>2023-07-24T12:28:53.000Z</time>
      </trkpt>
      <trkpt lat="42.70145" lon="1.32829">
        <ele>2081</ele>
        <time>2023-07-24T12:28:58.000Z</time>
      </trkpt>
      <trkpt lat="42.70145" lon="1.32828">
        <ele>2081.1999511719</ele>
        <time>2023-07-24T12:28:59.000Z</time>
      </trkpt>
      <trkpt lat="42.70148" lon="1.32821">
        <ele>2081.8000488281</ele>
        <time>2023-07-24T12:29:05.000Z</time>
      </trkpt>
      <trkpt lat="42.70153" lon="1.32818">
        <ele>2081.8000488281</ele>
        <time>2023-07-24T12:29:15.000Z</time>
      </trkpt>
      <trkpt lat="42.70155" lon="1.32815">
        <ele>2080.8000488281</ele>
        <time>2023-07-24T12:29:23.000Z</time>
      </trkpt>
      <trkpt lat="42.70157" lon="1.32812">
        <ele>2080</ele>
        <time>2023-07-24T12:29:27.000Z</time>
      </trkpt>
      <trkpt lat="42.70159" lon="1.32808">
        <ele>2079.6000976562</ele>
        <time>2023-07-24T12:29:32.000Z</time>
      </trkpt>
      <trkpt lat="42.70162" lon="1.32806">
        <ele>2079</ele>
        <time>2023-07-24T12:29:36.000Z</time>
      </trkpt>
      <trkpt lat="42.70163" lon="1.32811">
        <ele>2078.3999023438</ele>
        <time>2023-07-24T12:29:41.000Z</time>
      </trkpt>
      <trkpt lat="42.70163" lon="1.32815">
        <ele>2078</ele>
        <time>2023-07-24T12:29:44.000Z</time>
      </trkpt>
      <trkpt lat="42.70164" lon="1.32817">
        <ele>2077.3999023438</ele>
        <time>2023-07-24T12:29:49.000Z</time>
      </trkpt>
      <trkpt lat="42.70166" lon="1.32817">
        <ele>2077.8000488281</ele>
        <time>2023-07-24T12:30:01.000Z</time>
      </trkpt>
      <trkpt lat="42.70168" lon="1.32816">
        <ele>2078</ele>
        <time>2023-07-24T12:30:13.000Z</time>
      </trkpt>
      <trkpt lat="42.7017" lon="1.32819">
        <ele>2077.8000488281</ele>
        <time>2023-07-24T12:30:19.000Z</time>
      </trkpt>
      <trkpt lat="42.70172" lon="1.32821">
        <ele>2077.6000976562</ele>
        <time>2023-07-24T12:30:26.000Z</time>
      </trkpt>
      <trkpt lat="42.70171" lon="1.32813">
        <ele>2077.8000488281</ele>
        <time>2023-07-24T12:30:37.000Z</time>
      </trkpt>
      <trkpt lat="42.70173" lon="1.32814">
        <ele>2078</ele>
        <time>2023-07-24T12:30:45.000Z</time>
      </trkpt>
      <trkpt lat="42.70172" lon="1.32821">
        <ele>2078.1999511719</ele>
        <time>2023-07-24T12:30:52.000Z</time>
      </trkpt>
      <trkpt lat="42.70172" lon="1.32821">
        <ele>2078.1999511719</ele>
        <time>2023-07-24T12:30:58.000Z</time>
      </trkpt>
      <trkpt lat="42.70174" lon="1.32818">
        <ele>2078.1999511719</ele>
        <time>2023-07-24T12:31:06.000Z</time>
      </trkpt>
      <trkpt lat="42.70173" lon="1.32818">
        <ele>2077.8000488281</ele>
        <time>2023-07-24T12:31:13.000Z</time>
      </trkpt>
      <trkpt lat="42.70169" lon="1.32818">
        <ele>2077.6000976562</ele>
        <time>2023-07-24T12:31:20.000Z</time>
      </trkpt>
      <trkpt lat="42.70164" lon="1.32816">
        <ele>2078.1999511719</ele>
        <time>2023-07-24T12:31:28.000Z</time>
      </trkpt>
      <trkpt lat="42.70163" lon="1.32814">
        <ele>2079.3999023438</ele>
        <time>2023-07-24T12:31:31.000Z</time>
      </trkpt>
      <trkpt lat="42.70162" lon="1.32813">
        <ele>2079.6000976562</ele>
        <time>2023-07-24T12:31:36.000Z</time>
      </trkpt>
      <trkpt lat="42.70162" lon="1.32813">
        <ele>2079.8000488281</ele>
        <time>2023-07-24T12:31:46.000Z</time>
      </trkpt>
      <trkpt lat="42.70162" lon="1.3281">
        <ele>2079.8000488281</ele>
        <time>2023-07-24T12:31:56.000Z</time>
      </trkpt>
      <trkpt lat="42.7016" lon="1.32806">
        <ele>2079</ele>
        <time>2023-07-24T12:32:02.000Z</time>
      </trkpt>
      <trkpt lat="42.70162" lon="1.32793">
        <ele>2079.1999511719</ele>
        <time>2023-07-24T12:32:12.000Z</time>
      </trkpt>
      <trkpt lat="42.70164" lon="1.32789">
        <ele>2080.1999511719</ele>
        <time>2023-07-24T12:32:19.000Z</time>
      </trkpt>
      <trkpt lat="42.70165" lon="1.32787">
        <ele>2081.1999511719</ele>
        <time>2023-07-24T12:32:24.000Z</time>
      </trkpt>
      <trkpt lat="42.70165" lon="1.32786">
        <ele>2081.3999023438</ele>
        <time>2023-07-24T12:32:25.000Z</time>
      </trkpt>
      <trkpt lat="42.70167" lon="1.32786">
        <ele>2082.8000488281</ele>
        <time>2023-07-24T12:32:33.000Z</time>
      </trkpt>
      <trkpt lat="42.70167" lon="1.32783">
        <ele>2083.8000488281</ele>
        <time>2023-07-24T12:32:36.000Z</time>
      </trkpt>
      <trkpt lat="42.70167" lon="1.32782">
        <ele>2084.1999511719</ele>
        <time>2023-07-24T12:32:40.000Z</time>
      </trkpt>
      <trkpt lat="42.70169" lon="1.32778">
        <ele>2084.6000976562</ele>
        <time>2023-07-24T12:32:50.000Z</time>
      </trkpt>
      <trkpt lat="42.70169" lon="1.32776">
        <ele>2085.1999511719</ele>
        <time>2023-07-24T12:32:55.000Z</time>
      </trkpt>
      <trkpt lat="42.70169" lon="1.32776">
        <ele>2086.3999023438</ele>
        <time>2023-07-24T12:32:57.000Z</time>
      </trkpt>
      <trkpt lat="42.70169" lon="1.32773">
        <ele>2087.3999023438</ele>
        <time>2023-07-24T12:33:00.000Z</time>
      </trkpt>
      <trkpt lat="42.7017" lon="1.32769">
        <ele>2087.1999511719</ele>
        <time>2023-07-24T12:33:06.000Z</time>
      </trkpt>
      <trkpt lat="42.7017" lon="1.32766">
        <ele>2088.1999511719</ele>
        <time>2023-07-24T12:33:13.000Z</time>
      </trkpt>
      <trkpt lat="42.70169" lon="1.32765">
        <ele>2088.3999023438</ele>
        <time>2023-07-24T12:33:17.000Z</time>
      </trkpt>
      <trkpt lat="42.70172" lon="1.32767">
        <ele>2089</ele>
        <time>2023-07-24T12:33:24.000Z</time>
      </trkpt>
      <trkpt lat="42.70179" lon="1.32772">
        <ele>2090.6000976562</ele>
        <time>2023-07-24T12:33:33.000Z</time>
      </trkpt>
      <trkpt lat="42.70178" lon="1.32771">
        <ele>2090.6000976562</ele>
        <time>2023-07-24T12:33:34.000Z</time>
      </trkpt>
      <trkpt lat="42.70178" lon="1.3277">
        <ele>2090.3999023438</ele>
        <time>2023-07-24T12:33:36.000Z</time>
      </trkpt>
      <trkpt lat="42.70179" lon="1.32766">
        <ele>2089.6000976562</ele>
        <time>2023-07-24T12:33:42.000Z</time>
      </trkpt>
      <trkpt lat="42.70182" lon="1.32763">
        <ele>2088.6000976562</ele>
        <time>2023-07-24T12:33:48.000Z</time>
      </trkpt>
      <trkpt lat="42.70182" lon="1.32762">
        <ele>2088.3999023438</ele>
        <time>2023-07-24T12:33:50.000Z</time>
      </trkpt>
      <trkpt lat="42.70188" lon="1.32759">
        <ele>2089</ele>
        <time>2023-07-24T12:33:57.000Z</time>
      </trkpt>
      <trkpt lat="42.7019" lon="1.32755">
        <ele>2089.6000976562</ele>
        <time>2023-07-24T12:34:04.000Z</time>
      </trkpt>
      <trkpt lat="42.7019" lon="1.32754">
        <ele>2089.8000488281</ele>
        <time>2023-07-24T12:34:05.000Z</time>
      </trkpt>
      <trkpt lat="42.7019" lon="1.32747">
        <ele>2090.8000488281</ele>
        <time>2023-07-24T12:34:12.000Z</time>
      </trkpt>
      <trkpt lat="42.7019" lon="1.32747">
        <ele>2091.3999023438</ele>
        <time>2023-07-24T12:34:15.000Z</time>
      </trkpt>
      <trkpt lat="42.70192" lon="1.32745">
        <ele>2092</ele>
        <time>2023-07-24T12:34:18.000Z</time>
      </trkpt>
      <trkpt lat="42.70192" lon="1.32743">
        <ele>2092.6000976562</ele>
        <time>2023-07-24T12:34:23.000Z</time>
      </trkpt>
      <trkpt lat="42.70193" lon="1.32741">
        <ele>2093</ele>
        <time>2023-07-24T12:34:25.000Z</time>
      </trkpt>
      <trkpt lat="42.70195" lon="1.32737">
        <ele>2093.6000976562</ele>
        <time>2023-07-24T12:34:32.000Z</time>
      </trkpt>
      <trkpt lat="42.70196" lon="1.32732">
        <ele>2094.1999511719</ele>
        <time>2023-07-24T12:34:36.000Z</time>
      </trkpt>
      <trkpt lat="42.70196" lon="1.3273">
        <ele>2094.8000488281</ele>
        <time>2023-07-24T12:34:40.000Z</time>
      </trkpt>
      <trkpt lat="42.70198" lon="1.32727">
        <ele>2095.1999511719</ele>
        <time>2023-07-24T12:34:44.000Z</time>
      </trkpt>
      <trkpt lat="42.70199" lon="1.32724">
        <ele>2096.1999511719</ele>
        <time>2023-07-24T12:34:48.000Z</time>
      </trkpt>
      <trkpt lat="42.70199" lon="1.32723">
        <ele>2097.3999023438</ele>
        <time>2023-07-24T12:34:52.000Z</time>
      </trkpt>
      <trkpt lat="42.70199" lon="1.32722">
        <ele>2097.3999023438</ele>
        <time>2023-07-24T12:34:53.000Z</time>
      </trkpt>
      <trkpt lat="42.70198" lon="1.32715">
        <ele>2097.8000488281</ele>
        <time>2023-07-24T12:35:01.000Z</time>
      </trkpt>
      <trkpt lat="42.702" lon="1.32711">
        <ele>2098.6000976562</ele>
        <time>2023-07-24T12:35:06.000Z</time>
      </trkpt>
      <trkpt lat="42.70201" lon="1.3271">
        <ele>2098.8000488281</ele>
        <time>2023-07-24T12:35:09.000Z</time>
      </trkpt>
      <trkpt lat="42.70205" lon="1.32707">
        <ele>2099.6000976562</ele>
        <time>2023-07-24T12:35:16.000Z</time>
      </trkpt>
      <trkpt lat="42.70205" lon="1.32706">
        <ele>2100</ele>
        <time>2023-07-24T12:35:19.000Z</time>
      </trkpt>
      <trkpt lat="42.70205" lon="1.32703">
        <ele>2100.6000976562</ele>
        <time>2023-07-24T12:35:23.000Z</time>
      </trkpt>
      <trkpt lat="42.70205" lon="1.32701">
        <ele>2101</ele>
        <time>2023-07-24T12:35:26.000Z</time>
      </trkpt>
      <trkpt lat="42.70204" lon="1.32695">
        <ele>2101.8000488281</ele>
        <time>2023-07-24T12:35:31.000Z</time>
      </trkpt>
      <trkpt lat="42.70205" lon="1.32692">
        <ele>2102.3999023438</ele>
        <time>2023-07-24T12:35:35.000Z</time>
      </trkpt>
      <trkpt lat="42.70205" lon="1.3269">
        <ele>2103.1999511719</ele>
        <time>2023-07-24T12:35:39.000Z</time>
      </trkpt>
      <trkpt lat="42.70206" lon="1.32688">
        <ele>2104</ele>
        <time>2023-07-24T12:35:41.000Z</time>
      </trkpt>
      <trkpt lat="42.70206" lon="1.32687">
        <ele>2104.1999511719</ele>
        <time>2023-07-24T12:35:43.000Z</time>
      </trkpt>
      <trkpt lat="42.70209" lon="1.32682">
        <ele>2105.1999511719</ele>
        <time>2023-07-24T12:35:50.000Z</time>
      </trkpt>
      <trkpt lat="42.70209" lon="1.32682">
        <ele>2105.1999511719</ele>
        <time>2023-07-24T12:35:51.000Z</time>
      </trkpt>
      <trkpt lat="42.70212" lon="1.32676">
        <ele>2105.3999023438</ele>
        <time>2023-07-24T12:35:59.000Z</time>
      </trkpt>
      <trkpt lat="42.70216" lon="1.32669">
        <ele>2105.1999511719</ele>
        <time>2023-07-24T12:36:08.000Z</time>
      </trkpt>
      <trkpt lat="42.70217" lon="1.32665">
        <ele>2105.8000488281</ele>
        <time>2023-07-24T12:36:15.000Z</time>
      </trkpt>
      <trkpt lat="42.70218" lon="1.3266">
        <ele>2106.3999023438</ele>
        <time>2023-07-24T12:36:19.000Z</time>
      </trkpt>
      <trkpt lat="42.70219" lon="1.32657">
        <ele>2106.8000488281</ele>
        <time>2023-07-24T12:36:23.000Z</time>
      </trkpt>
      <trkpt lat="42.70222" lon="1.32651">
        <ele>2107.3999023438</ele>
        <time>2023-07-24T12:36:30.000Z</time>
      </trkpt>
      <trkpt lat="42.70224" lon="1.32643">
        <ele>2107.3999023438</ele>
        <time>2023-07-24T12:36:36.000Z</time>
      </trkpt>
      <trkpt lat="42.70224" lon="1.32643">
        <ele>2107.3999023438</ele>
        <time>2023-07-24T12:36:38.000Z</time>
      </trkpt>
      <trkpt lat="42.70226" lon="1.32638">
        <ele>2108</ele>
        <time>2023-07-24T12:36:45.000Z</time>
      </trkpt>
      <trkpt lat="42.7023" lon="1.32631">
        <ele>2108.3999023438</ele>
        <time>2023-07-24T12:36:54.000Z</time>
      </trkpt>
      <trkpt lat="42.70231" lon="1.32621">
        <ele>2109.3999023438</ele>
        <time>2023-07-24T12:37:01.000Z</time>
      </trkpt>
      <trkpt lat="42.70232" lon="1.32621">
        <ele>2109.6000976562</ele>
        <time>2023-07-24T12:37:02.000Z</time>
      </trkpt>
      <trkpt lat="42.70233" lon="1.32616">
        <ele>2110</ele>
        <time>2023-07-24T12:37:07.000Z</time>
      </trkpt>
      <trkpt lat="42.70233" lon="1.32613">
        <ele>2110.6000976562</ele>
        <time>2023-07-24T12:37:10.000Z</time>
      </trkpt>
      <trkpt lat="42.70234" lon="1.32607">
        <ele>2111.3999023438</ele>
        <time>2023-07-24T12:37:17.000Z</time>
      </trkpt>
      <trkpt lat="42.70234" lon="1.32603">
        <ele>2111.6000976562</ele>
        <time>2023-07-24T12:37:21.000Z</time>
      </trkpt>
      <trkpt lat="42.70235" lon="1.32599">
        <ele>2111.8000488281</ele>
        <time>2023-07-24T12:37:25.000Z</time>
      </trkpt>
      <trkpt lat="42.70238" lon="1.3259">
        <ele>2112.3999023438</ele>
        <time>2023-07-24T12:37:31.000Z</time>
      </trkpt>
      <trkpt lat="42.70238" lon="1.32587">
        <ele>2112.8000488281</ele>
        <time>2023-07-24T12:37:34.000Z</time>
      </trkpt>
      <trkpt lat="42.70239" lon="1.32583">
        <ele>2113.3999023438</ele>
        <time>2023-07-24T12:37:39.000Z</time>
      </trkpt>
      <trkpt lat="42.7024" lon="1.32579">
        <ele>2114</ele>
        <time>2023-07-24T12:37:42.000Z</time>
      </trkpt>
      <trkpt lat="42.70243" lon="1.32575">
        <ele>2114.8000488281</ele>
        <time>2023-07-24T12:37:48.000Z</time>
      </trkpt>
      <trkpt lat="42.70243" lon="1.32575">
        <ele>2115</ele>
        <time>2023-07-24T12:37:49.000Z</time>
      </trkpt>
      <trkpt lat="42.70245" lon="1.32573">
        <ele>2116.1999511719</ele>
        <time>2023-07-24T12:37:56.000Z</time>
      </trkpt>
      <trkpt lat="42.70246" lon="1.32567">
        <ele>2116.8000488281</ele>
        <time>2023-07-24T12:38:04.000Z</time>
      </trkpt>
      <trkpt lat="42.70246" lon="1.32565">
        <ele>2117.1999511719</ele>
        <time>2023-07-24T12:38:06.000Z</time>
      </trkpt>
      <trkpt lat="42.70247" lon="1.32559">
        <ele>2118.1999511719</ele>
        <time>2023-07-24T12:38:12.000Z</time>
      </trkpt>
      <trkpt lat="42.70248" lon="1.32557">
        <ele>2119.1999511719</ele>
        <time>2023-07-24T12:38:18.000Z</time>
      </trkpt>
      <trkpt lat="42.70249" lon="1.32556">
        <ele>2119.3999023438</ele>
        <time>2023-07-24T12:38:19.000Z</time>
      </trkpt>
      <trkpt lat="42.70254" lon="1.32554">
        <ele>2120.1999511719</ele>
        <time>2023-07-24T12:38:28.000Z</time>
      </trkpt>
      <trkpt lat="42.70253" lon="1.32553">
        <ele>2119.8000488281</ele>
        <time>2023-07-24T12:38:36.000Z</time>
      </trkpt>
      <trkpt lat="42.70253" lon="1.32549">
        <ele>2119.1999511719</ele>
        <time>2023-07-24T12:38:44.000Z</time>
      </trkpt>
      <trkpt lat="42.70253" lon="1.32542">
        <ele>2119.1999511719</ele>
        <time>2023-07-24T12:38:51.000Z</time>
      </trkpt>
      <trkpt lat="42.70254" lon="1.32536">
        <ele>2118.6000976562</ele>
        <time>2023-07-24T12:38:57.000Z</time>
      </trkpt>
      <trkpt lat="42.70253" lon="1.32537">
        <ele>2118.8000488281</ele>
        <time>2023-07-24T12:39:06.000Z</time>
      </trkpt>
      <trkpt lat="42.70252" lon="1.32535">
        <ele>2118.6000976562</ele>
        <time>2023-07-24T12:39:14.000Z</time>
      </trkpt>
      <trkpt lat="42.70254" lon="1.32538">
        <ele>2118.6000976562</ele>
        <time>2023-07-24T12:39:23.000Z</time>
      </trkpt>
      <trkpt lat="42.70251" lon="1.32533">
        <ele>2119</ele>
        <time>2023-07-24T12:39:34.000Z</time>
      </trkpt>
      <trkpt lat="42.7025" lon="1.32535">
        <ele>2119</ele>
        <time>2023-07-24T12:39:42.000Z</time>
      </trkpt>
      <trkpt lat="42.7025" lon="1.32533">
        <ele>2118.8000488281</ele>
        <time>2023-07-24T12:39:51.000Z</time>
      </trkpt>
      <trkpt lat="42.7025" lon="1.32534">
        <ele>2119.1999511719</ele>
        <time>2023-07-24T12:39:59.000Z</time>
      </trkpt>
      <trkpt lat="42.7025" lon="1.32533">
        <ele>2119.3999023438</ele>
        <time>2023-07-24T12:40:12.000Z</time>
      </trkpt>
      <trkpt lat="42.7025" lon="1.32529">
        <ele>2119.6000976562</ele>
        <time>2023-07-24T12:40:21.000Z</time>
      </trkpt>
      <trkpt lat="42.7025" lon="1.32528">
        <ele>2119.1999511719</ele>
        <time>2023-07-24T12:40:29.000Z</time>
      </trkpt>
      <trkpt lat="42.70253" lon="1.32519">
        <ele>2118.8000488281</ele>
        <time>2023-07-24T12:40:36.000Z</time>
      </trkpt>
      <trkpt lat="42.70253" lon="1.32513">
        <ele>2119.1999511719</ele>
        <time>2023-07-24T12:40:42.000Z</time>
      </trkpt>
      <trkpt lat="42.70254" lon="1.32507">
        <ele>2119.8000488281</ele>
        <time>2023-07-24T12:40:47.000Z</time>
      </trkpt>
      <trkpt lat="42.70255" lon="1.32501">
        <ele>2120.3999023438</ele>
        <time>2023-07-24T12:40:53.000Z</time>
      </trkpt>
      <trkpt lat="42.70255" lon="1.325">
        <ele>2120.3999023438</ele>
        <time>2023-07-24T12:40:54.000Z</time>
      </trkpt>
      <trkpt lat="42.70252" lon="1.32492">
        <ele>2120.3999023438</ele>
        <time>2023-07-24T12:40:59.000Z</time>
      </trkpt>
      <trkpt lat="42.70249" lon="1.32484">
        <ele>2120.3999023438</ele>
        <time>2023-07-24T12:41:06.000Z</time>
      </trkpt>
      <trkpt lat="42.70249" lon="1.32484">
        <ele>2120.8000488281</ele>
        <time>2023-07-24T12:41:11.000Z</time>
      </trkpt>
      <trkpt lat="42.70247" lon="1.32477">
        <ele>2121.3999023438</ele>
        <time>2023-07-24T12:41:16.000Z</time>
      </trkpt>
      <trkpt lat="42.70246" lon="1.32473">
        <ele>2121.6000976562</ele>
        <time>2023-07-24T12:41:19.000Z</time>
      </trkpt>
      <trkpt lat="42.70245" lon="1.32464">
        <ele>2122</ele>
        <time>2023-07-24T12:41:26.000Z</time>
      </trkpt>
      <trkpt lat="42.70247" lon="1.3246">
        <ele>2122.6000976562</ele>
        <time>2023-07-24T12:41:30.000Z</time>
      </trkpt>
      <trkpt lat="42.70248" lon="1.32456">
        <ele>2122.6000976562</ele>
        <time>2023-07-24T12:41:33.000Z</time>
      </trkpt>
      <trkpt lat="42.70249" lon="1.32451">
        <ele>2122.6000976562</ele>
        <time>2023-07-24T12:41:38.000Z</time>
      </trkpt>
      <trkpt lat="42.70253" lon="1.32447">
        <ele>2123</ele>
        <time>2023-07-24T12:41:44.000Z</time>
      </trkpt>
      <trkpt lat="42.70257" lon="1.32442">
        <ele>2122.8000488281</ele>
        <time>2023-07-24T12:41:51.000Z</time>
      </trkpt>
      <trkpt lat="42.70258" lon="1.32437">
        <ele>2123.1999511719</ele>
        <time>2023-07-24T12:41:59.000Z</time>
      </trkpt>
      <trkpt lat="42.70256" lon="1.32432">
        <ele>2123.6000976562</ele>
        <time>2023-07-24T12:42:03.000Z</time>
      </trkpt>
      <trkpt lat="42.70256" lon="1.3243">
        <ele>2124</ele>
        <time>2023-07-24T12:42:05.000Z</time>
      </trkpt>
      <trkpt lat="42.70256" lon="1.32425">
        <ele>2124.8000488281</ele>
        <time>2023-07-24T12:42:10.000Z</time>
      </trkpt>
      <trkpt lat="42.70257" lon="1.32424">
        <ele>2125</ele>
        <time>2023-07-24T12:42:12.000Z</time>
      </trkpt>
      <trkpt lat="42.70258" lon="1.32419">
        <ele>2125.8000488281</ele>
        <time>2023-07-24T12:42:18.000Z</time>
      </trkpt>
      <trkpt lat="42.70258" lon="1.32416">
        <ele>2126</ele>
        <time>2023-07-24T12:42:21.000Z</time>
      </trkpt>
      <trkpt lat="42.70259" lon="1.32411">
        <ele>2125.8000488281</ele>
        <time>2023-07-24T12:42:28.000Z</time>
      </trkpt>
      <trkpt lat="42.70259" lon="1.32412">
        <ele>2125.8000488281</ele>
        <time>2023-07-24T12:42:29.000Z</time>
      </trkpt>
      <trkpt lat="42.70259" lon="1.32411">
        <ele>2125.8000488281</ele>
        <time>2023-07-24T12:42:35.000Z</time>
      </trkpt>
      <trkpt lat="42.70259" lon="1.32409">
        <ele>2125.6000976562</ele>
        <time>2023-07-24T12:42:43.000Z</time>
      </trkpt>
      <trkpt lat="42.70259" lon="1.32408">
        <ele>2125.6000976562</ele>
        <time>2023-07-24T12:42:52.000Z</time>
      </trkpt>
      <trkpt lat="42.70256" lon="1.32405">
        <ele>2125.3999023438</ele>
        <time>2023-07-24T12:42:59.000Z</time>
      </trkpt>
      <trkpt lat="42.70256" lon="1.32403">
        <ele>2126.3999023438</ele>
        <time>2023-07-24T12:43:08.000Z</time>
      </trkpt>
      <trkpt lat="42.70256" lon="1.32402">
        <ele>2126.8000488281</ele>
        <time>2023-07-24T12:43:12.000Z</time>
      </trkpt>
      <trkpt lat="42.70257" lon="1.32398">
        <ele>2127.6000976562</ele>
        <time>2023-07-24T12:43:16.000Z</time>
      </trkpt>
      <trkpt lat="42.70257" lon="1.32396">
        <ele>2127.8000488281</ele>
        <time>2023-07-24T12:43:20.000Z</time>
      </trkpt>
      <trkpt lat="42.70258" lon="1.32393">
        <ele>2128.3999023438</ele>
        <time>2023-07-24T12:43:24.000Z</time>
      </trkpt>
      <trkpt lat="42.70259" lon="1.32389">
        <ele>2129</ele>
        <time>2023-07-24T12:43:29.000Z</time>
      </trkpt>
      <trkpt lat="42.7026" lon="1.32383">
        <ele>2129.3999023438</ele>
        <time>2023-07-24T12:43:34.000Z</time>
      </trkpt>
      <trkpt lat="42.70262" lon="1.32377">
        <ele>2130</ele>
        <time>2023-07-24T12:43:41.000Z</time>
      </trkpt>
      <trkpt lat="42.70261" lon="1.32376">
        <ele>2130.1999511719</ele>
        <time>2023-07-24T12:43:42.000Z</time>
      </trkpt>
      <trkpt lat="42.70261" lon="1.3237">
        <ele>2131</ele>
        <time>2023-07-24T12:43:48.000Z</time>
      </trkpt>
      <trkpt lat="42.70261" lon="1.32369">
        <ele>2131</ele>
        <time>2023-07-24T12:43:49.000Z</time>
      </trkpt>
      <trkpt lat="42.7026" lon="1.32365">
        <ele>2132</ele>
        <time>2023-07-24T12:43:56.000Z</time>
      </trkpt>
      <trkpt lat="42.7026" lon="1.32364">
        <ele>2132.3999023438</ele>
        <time>2023-07-24T12:43:58.000Z</time>
      </trkpt>
      <trkpt lat="42.70259" lon="1.32356">
        <ele>2133.1999511719</ele>
        <time>2023-07-24T12:44:05.000Z</time>
      </trkpt>
      <trkpt lat="42.70259" lon="1.32355">
        <ele>2133.3999023438</ele>
        <time>2023-07-24T12:44:06.000Z</time>
      </trkpt>
      <trkpt lat="42.70256" lon="1.32348">
        <ele>2134.3999023438</ele>
        <time>2023-07-24T12:44:12.000Z</time>
      </trkpt>
      <trkpt lat="42.70254" lon="1.32343">
        <ele>2135</ele>
        <time>2023-07-24T12:44:17.000Z</time>
      </trkpt>
      <trkpt lat="42.70254" lon="1.3234">
        <ele>2135.3999023438</ele>
        <time>2023-07-24T12:44:20.000Z</time>
      </trkpt>
      <trkpt lat="42.70257" lon="1.32335">
        <ele>2136.3999023438</ele>
        <time>2023-07-24T12:44:28.000Z</time>
      </trkpt>
      <trkpt lat="42.7026" lon="1.32333">
        <ele>2137.3999023438</ele>
        <time>2023-07-24T12:44:36.000Z</time>
      </trkpt>
      <trkpt lat="42.70261" lon="1.32332">
        <ele>2137.6000976562</ele>
        <time>2023-07-24T12:44:38.000Z</time>
      </trkpt>
      <trkpt lat="42.70261" lon="1.32324">
        <ele>2138.6000976562</ele>
        <time>2023-07-24T12:44:45.000Z</time>
      </trkpt>
      <trkpt lat="42.70261" lon="1.32323">
        <ele>2138.8000488281</ele>
        <time>2023-07-24T12:44:46.000Z</time>
      </trkpt>
      <trkpt lat="42.70259" lon="1.32317">
        <ele>2139.8000488281</ele>
        <time>2023-07-24T12:44:54.000Z</time>
      </trkpt>
      <trkpt lat="42.70259" lon="1.32317">
        <ele>2139.8000488281</ele>
        <time>2023-07-24T12:44:55.000Z</time>
      </trkpt>
      <trkpt lat="42.70262" lon="1.32313">
        <ele>2139.1999511719</ele>
        <time>2023-07-24T12:45:03.000Z</time>
      </trkpt>
      <trkpt lat="42.70262" lon="1.32309">
        <ele>2138.6000976562</ele>
        <time>2023-07-24T12:45:07.000Z</time>
      </trkpt>
      <trkpt lat="42.70262" lon="1.32304">
        <ele>2138</ele>
        <time>2023-07-24T12:45:11.000Z</time>
      </trkpt>
      <trkpt lat="42.70263" lon="1.32301">
        <ele>2137.6000976562</ele>
        <time>2023-07-24T12:45:15.000Z</time>
      </trkpt>
      <trkpt lat="42.70264" lon="1.32299">
        <ele>2137.3999023438</ele>
        <time>2023-07-24T12:45:17.000Z</time>
      </trkpt>
      <trkpt lat="42.70264" lon="1.32288">
        <ele>2137.3999023438</ele>
        <time>2023-07-24T12:45:25.000Z</time>
      </trkpt>
      <trkpt lat="42.70266" lon="1.3228">
        <ele>2138.6000976562</ele>
        <time>2023-07-24T12:45:35.000Z</time>
      </trkpt>
      <trkpt lat="42.70267" lon="1.3227">
        <ele>2138.8000488281</ele>
        <time>2023-07-24T12:45:41.000Z</time>
      </trkpt>
      <trkpt lat="42.7027" lon="1.32262">
        <ele>2139</ele>
        <time>2023-07-24T12:45:48.000Z</time>
      </trkpt>
      <trkpt lat="42.7027" lon="1.32252">
        <ele>2139.6000976562</ele>
        <time>2023-07-24T12:45:55.000Z</time>
      </trkpt>
      <trkpt lat="42.70271" lon="1.32246">
        <ele>2139.6000976562</ele>
        <time>2023-07-24T12:46:01.000Z</time>
      </trkpt>
      <trkpt lat="42.70271" lon="1.32245">
        <ele>2139.8000488281</ele>
        <time>2023-07-24T12:46:02.000Z</time>
      </trkpt>
      <trkpt lat="42.70269" lon="1.32236">
        <ele>2140.6000976562</ele>
        <time>2023-07-24T12:46:10.000Z</time>
      </trkpt>
      <trkpt lat="42.70268" lon="1.32235">
        <ele>2140.8000488281</ele>
        <time>2023-07-24T12:46:12.000Z</time>
      </trkpt>
      <trkpt lat="42.70267" lon="1.32232">
        <ele>2141.8000488281</ele>
        <time>2023-07-24T12:46:18.000Z</time>
      </trkpt>
      <trkpt lat="42.70269" lon="1.32233">
        <ele>2142</ele>
        <time>2023-07-24T12:46:19.000Z</time>
      </trkpt>
      <trkpt lat="42.70271" lon="1.32232">
        <ele>2142.8000488281</ele>
        <time>2023-07-24T12:46:27.000Z</time>
      </trkpt>
      <trkpt lat="42.70271" lon="1.32231">
        <ele>2143</ele>
        <time>2023-07-24T12:46:28.000Z</time>
      </trkpt>
      <trkpt lat="42.7027" lon="1.32228">
        <ele>2144</ele>
        <time>2023-07-24T12:46:35.000Z</time>
      </trkpt>
      <trkpt lat="42.7027" lon="1.32228">
        <ele>2144.1999511719</ele>
        <time>2023-07-24T12:46:36.000Z</time>
      </trkpt>
      <trkpt lat="42.70269" lon="1.32225">
        <ele>2145.1999511719</ele>
        <time>2023-07-24T12:46:42.000Z</time>
      </trkpt>
      <trkpt lat="42.70271" lon="1.32222">
        <ele>2145.8000488281</ele>
        <time>2023-07-24T12:46:49.000Z</time>
      </trkpt>
      <trkpt lat="42.70272" lon="1.32227">
        <ele>2146</ele>
        <time>2023-07-24T12:47:04.000Z</time>
      </trkpt>
      <trkpt lat="42.70273" lon="1.32226">
        <ele>2146</ele>
        <time>2023-07-24T12:47:25.000Z</time>
      </trkpt>
      <trkpt lat="42.70274" lon="1.32221">
        <ele>2146.1999511719</ele>
        <time>2023-07-24T12:47:30.000Z</time>
      </trkpt>
      <trkpt lat="42.70273" lon="1.32216">
        <ele>2146.6000976562</ele>
        <time>2023-07-24T12:47:33.000Z</time>
      </trkpt>
      <trkpt lat="42.7027" lon="1.32206">
        <ele>2147.3999023438</ele>
        <time>2023-07-24T12:47:39.000Z</time>
      </trkpt>
      <trkpt lat="42.7027" lon="1.32206">
        <ele>2147.6000976562</ele>
        <time>2023-07-24T12:47:40.000Z</time>
      </trkpt>
      <trkpt lat="42.70269" lon="1.32203">
        <ele>2148.3999023438</ele>
        <time>2023-07-24T12:47:46.000Z</time>
      </trkpt>
      <trkpt lat="42.70267" lon="1.32196">
        <ele>2149.3999023438</ele>
        <time>2023-07-24T12:47:53.000Z</time>
      </trkpt>
      <trkpt lat="42.70267" lon="1.32195">
        <ele>2149.6000976562</ele>
        <time>2023-07-24T12:47:54.000Z</time>
      </trkpt>
      <trkpt lat="42.70267" lon="1.32195">
        <ele>2150.1999511719</ele>
        <time>2023-07-24T12:47:59.000Z</time>
      </trkpt>
      <trkpt lat="42.70266" lon="1.32194">
        <ele>2150.6000976562</ele>
        <time>2023-07-24T12:48:01.000Z</time>
      </trkpt>
      <trkpt lat="42.70265" lon="1.32193">
        <ele>2151.3999023438</ele>
        <time>2023-07-24T12:48:05.000Z</time>
      </trkpt>
      <trkpt lat="42.70265" lon="1.32193">
        <ele>2151.6000976562</ele>
        <time>2023-07-24T12:48:07.000Z</time>
      </trkpt>
      <trkpt lat="42.70263" lon="1.3219">
        <ele>2152.3999023438</ele>
        <time>2023-07-24T12:48:12.000Z</time>
      </trkpt>
      <trkpt lat="42.70261" lon="1.32188">
        <ele>2152.8000488281</ele>
        <time>2023-07-24T12:48:17.000Z</time>
      </trkpt>
      <trkpt lat="42.70259" lon="1.32183">
        <ele>2153.6000976562</ele>
        <time>2023-07-24T12:48:24.000Z</time>
      </trkpt>
      <trkpt lat="42.70259" lon="1.32183">
        <ele>2154</ele>
        <time>2023-07-24T12:48:25.000Z</time>
      </trkpt>
      <trkpt lat="42.70256" lon="1.32178">
        <ele>2155</ele>
        <time>2023-07-24T12:48:34.000Z</time>
      </trkpt>
      <trkpt lat="42.70256" lon="1.32177">
        <ele>2158.3999023438</ele>
        <time>2023-07-24T12:48:51.000Z</time>
      </trkpt>
      <trkpt lat="42.70259" lon="1.32174">
        <ele>2158.8000488281</ele>
        <time>2023-07-24T12:48:59.000Z</time>
      </trkpt>
      <trkpt lat="42.70258" lon="1.32169">
        <ele>2159.3999023438</ele>
        <time>2023-07-24T12:49:06.000Z</time>
      </trkpt>
      <trkpt lat="42.70257" lon="1.32168">
        <ele>2159.6000976562</ele>
        <time>2023-07-24T12:49:07.000Z</time>
      </trkpt>
      <trkpt lat="42.70255" lon="1.32165">
        <ele>2160.1999511719</ele>
        <time>2023-07-24T12:49:14.000Z</time>
      </trkpt>
      <trkpt lat="42.70255" lon="1.32166">
        <ele>2160.3999023438</ele>
        <time>2023-07-24T12:49:15.000Z</time>
      </trkpt>
      <trkpt lat="42.70255" lon="1.32169">
        <ele>2161.6000976562</ele>
        <time>2023-07-24T12:49:20.000Z</time>
      </trkpt>
      <trkpt lat="42.70255" lon="1.32169">
        <ele>2161.8000488281</ele>
        <time>2023-07-24T12:49:22.000Z</time>
      </trkpt>
      <trkpt lat="42.70254" lon="1.32169">
        <ele>2162.3999023438</ele>
        <time>2023-07-24T12:49:25.000Z</time>
      </trkpt>
      <trkpt lat="42.70255" lon="1.32169">
        <ele>2162.6000976562</ele>
        <time>2023-07-24T12:49:27.000Z</time>
      </trkpt>
      <trkpt lat="42.70255" lon="1.32169">
        <ele>2162.8000488281</ele>
        <time>2023-07-24T12:49:28.000Z</time>
      </trkpt>
      <trkpt lat="42.70256" lon="1.32168">
        <ele>2163.8000488281</ele>
        <time>2023-07-24T12:49:34.000Z</time>
      </trkpt>
      <trkpt lat="42.70257" lon="1.32167">
        <ele>2164</ele>
        <time>2023-07-24T12:49:36.000Z</time>
      </trkpt>
      <trkpt lat="42.70259" lon="1.32163">
        <ele>2165</ele>
        <time>2023-07-24T12:49:46.000Z</time>
      </trkpt>
      <trkpt lat="42.7026" lon="1.32156">
        <ele>2165.6000976562</ele>
        <time>2023-07-24T12:49:54.000Z</time>
      </trkpt>
      <trkpt lat="42.70258" lon="1.32149">
        <ele>2166</ele>
        <time>2023-07-24T12:50:03.000Z</time>
      </trkpt>
      <trkpt lat="42.70258" lon="1.32145">
        <ele>2166.6000976562</ele>
        <time>2023-07-24T12:50:10.000Z</time>
      </trkpt>
      <trkpt lat="42.70259" lon="1.32143">
        <ele>2167.1999511719</ele>
        <time>2023-07-24T12:50:15.000Z</time>
      </trkpt>
      <trkpt lat="42.70258" lon="1.3214">
        <ele>2167.8000488281</ele>
        <time>2023-07-24T12:50:19.000Z</time>
      </trkpt>
      <trkpt lat="42.70258" lon="1.32139">
        <ele>2168.3999023438</ele>
        <time>2023-07-24T12:50:21.000Z</time>
      </trkpt>
      <trkpt lat="42.70256" lon="1.32136">
        <ele>2169.3999023438</ele>
        <time>2023-07-24T12:50:27.000Z</time>
      </trkpt>
      <trkpt lat="42.70256" lon="1.32135">
        <ele>2169.6000976562</ele>
        <time>2023-07-24T12:50:28.000Z</time>
      </trkpt>
      <trkpt lat="42.7025" lon="1.32129">
        <ele>2170.3999023438</ele>
        <time>2023-07-24T12:50:34.000Z</time>
      </trkpt>
      <trkpt lat="42.7025" lon="1.32126">
        <ele>2171.1999511719</ele>
        <time>2023-07-24T12:50:39.000Z</time>
      </trkpt>
      <trkpt lat="42.70251" lon="1.32125">
        <ele>2171.1999511719</ele>
        <time>2023-07-24T12:50:40.000Z</time>
      </trkpt>
      <trkpt lat="42.70251" lon="1.32123">
        <ele>2171.6000976562</ele>
        <time>2023-07-24T12:50:45.000Z</time>
      </trkpt>
      <trkpt lat="42.70252" lon="1.32124">
        <ele>2171.6000976562</ele>
        <time>2023-07-24T12:50:47.000Z</time>
      </trkpt>
      <trkpt lat="42.70252" lon="1.32121">
        <ele>2172.3999023438</ele>
        <time>2023-07-24T12:50:59.000Z</time>
      </trkpt>
      <trkpt lat="42.70252" lon="1.32121">
        <ele>2172.6000976562</ele>
        <time>2023-07-24T12:51:01.000Z</time>
      </trkpt>
      <trkpt lat="42.70251" lon="1.32121">
        <ele>2173.3999023438</ele>
        <time>2023-07-24T12:51:07.000Z</time>
      </trkpt>
      <trkpt lat="42.70251" lon="1.32121">
        <ele>2173.6000976562</ele>
        <time>2023-07-24T12:51:09.000Z</time>
      </trkpt>
      <trkpt lat="42.70251" lon="1.32119">
        <ele>2174.1999511719</ele>
        <time>2023-07-24T12:51:15.000Z</time>
      </trkpt>
      <trkpt lat="42.7025" lon="1.3212">
        <ele>2174.8000488281</ele>
        <time>2023-07-24T12:51:19.000Z</time>
      </trkpt>
      <trkpt lat="42.70249" lon="1.3212">
        <ele>2175.1999511719</ele>
        <time>2023-07-24T12:51:22.000Z</time>
      </trkpt>
      <trkpt lat="42.70246" lon="1.32119">
        <ele>2175.8000488281</ele>
        <time>2023-07-24T12:51:28.000Z</time>
      </trkpt>
      <trkpt lat="42.70245" lon="1.32118">
        <ele>2176.1999511719</ele>
        <time>2023-07-24T12:51:30.000Z</time>
      </trkpt>
      <trkpt lat="42.70244" lon="1.32118">
        <ele>2177</ele>
        <time>2023-07-24T12:51:34.000Z</time>
      </trkpt>
      <trkpt lat="42.70242" lon="1.32118">
        <ele>2177.3999023438</ele>
        <time>2023-07-24T12:51:37.000Z</time>
      </trkpt>
      <trkpt lat="42.70241" lon="1.32118">
        <ele>2178</ele>
        <time>2023-07-24T12:51:40.000Z</time>
      </trkpt>
      <trkpt lat="42.7024" lon="1.32116">
        <ele>2178.3999023438</ele>
        <time>2023-07-24T12:51:43.000Z</time>
      </trkpt>
      <trkpt lat="42.7024" lon="1.32115">
        <ele>2179</ele>
        <time>2023-07-24T12:51:45.000Z</time>
      </trkpt>
      <trkpt lat="42.70242" lon="1.32115">
        <ele>2179.6000976562</ele>
        <time>2023-07-24T12:51:53.000Z</time>
      </trkpt>
      <trkpt lat="42.7024" lon="1.32114">
        <ele>2180</ele>
        <time>2023-07-24T12:52:00.000Z</time>
      </trkpt>
      <trkpt lat="42.70241" lon="1.32114">
        <ele>2180.1999511719</ele>
        <time>2023-07-24T12:52:01.000Z</time>
      </trkpt>
      <trkpt lat="42.70241" lon="1.32111">
        <ele>2180.8000488281</ele>
        <time>2023-07-24T12:52:08.000Z</time>
      </trkpt>
      <trkpt lat="42.7024" lon="1.32108">
        <ele>2181.3999023438</ele>
        <time>2023-07-24T12:52:12.000Z</time>
      </trkpt>
      <trkpt lat="42.7024" lon="1.32108">
        <ele>2181.6000976562</ele>
        <time>2023-07-24T12:52:14.000Z</time>
      </trkpt>
      <trkpt lat="42.7024" lon="1.32105">
        <ele>2182.3999023438</ele>
        <time>2023-07-24T12:52:17.000Z</time>
      </trkpt>
      <trkpt lat="42.70242" lon="1.32104">
        <ele>2183.6000976562</ele>
        <time>2023-07-24T12:52:23.000Z</time>
      </trkpt>
      <trkpt lat="42.70242" lon="1.32104">
        <ele>2184.6000976562</ele>
        <time>2023-07-24T12:52:30.000Z</time>
      </trkpt>
      <trkpt lat="42.70242" lon="1.32104">
        <ele>2184.8000488281</ele>
        <time>2023-07-24T12:52:31.000Z</time>
      </trkpt>
      <trkpt lat="42.7024" lon="1.32101">
        <ele>2185.6000976562</ele>
        <time>2023-07-24T12:52:37.000Z</time>
      </trkpt>
      <trkpt lat="42.70239" lon="1.321">
        <ele>2186</ele>
        <time>2023-07-24T12:52:38.000Z</time>
      </trkpt>
      <trkpt lat="42.70239" lon="1.32101">
        <ele>2186.6000976562</ele>
        <time>2023-07-24T12:52:45.000Z</time>
      </trkpt>
      <trkpt lat="42.70239" lon="1.32102">
        <ele>2186.6000976562</ele>
        <time>2023-07-24T12:52:47.000Z</time>
      </trkpt>
      <trkpt lat="42.70237" lon="1.32101">
        <ele>2186.8000488281</ele>
        <time>2023-07-24T12:52:53.000Z</time>
      </trkpt>
      <trkpt lat="42.70234" lon="1.32099">
        <ele>2187.8000488281</ele>
        <time>2023-07-24T12:53:01.000Z</time>
      </trkpt>
      <trkpt lat="42.70233" lon="1.32098">
        <ele>2188</ele>
        <time>2023-07-24T12:53:02.000Z</time>
      </trkpt>
      <trkpt lat="42.70232" lon="1.32096">
        <ele>2188.8000488281</ele>
        <time>2023-07-24T12:53:07.000Z</time>
      </trkpt>
      <trkpt lat="42.70231" lon="1.32093">
        <ele>2189.3999023438</ele>
        <time>2023-07-24T12:53:12.000Z</time>
      </trkpt>
      <trkpt lat="42.70229" lon="1.32092">
        <ele>2190</ele>
        <time>2023-07-24T12:53:16.000Z</time>
      </trkpt>
      <trkpt lat="42.70227" lon="1.32093">
        <ele>2190</ele>
        <time>2023-07-24T12:53:18.000Z</time>
      </trkpt>
      <trkpt lat="42.70224" lon="1.32094">
        <ele>2190.8000488281</ele>
        <time>2023-07-24T12:53:26.000Z</time>
      </trkpt>
      <trkpt lat="42.70224" lon="1.32095">
        <ele>2191</ele>
        <time>2023-07-24T12:53:29.000Z</time>
      </trkpt>
      <trkpt lat="42.70222" lon="1.32095">
        <ele>2191.8000488281</ele>
        <time>2023-07-24T12:53:36.000Z</time>
      </trkpt>
      <trkpt lat="42.70221" lon="1.32095">
        <ele>2192.1999511719</ele>
        <time>2023-07-24T12:53:39.000Z</time>
      </trkpt>
      <trkpt lat="42.70222" lon="1.32095">
        <ele>2192.8000488281</ele>
        <time>2023-07-24T12:53:45.000Z</time>
      </trkpt>
      <trkpt lat="42.7022" lon="1.32093">
        <ele>2193.1999511719</ele>
        <time>2023-07-24T12:53:51.000Z</time>
      </trkpt>
      <trkpt lat="42.7022" lon="1.32091">
        <ele>2193.1999511719</ele>
        <time>2023-07-24T12:53:53.000Z</time>
      </trkpt>
      <trkpt lat="42.70219" lon="1.32091">
        <ele>2193.3999023438</ele>
        <time>2023-07-24T12:54:01.000Z</time>
      </trkpt>
      <trkpt lat="42.70217" lon="1.32091">
        <ele>2194</ele>
        <time>2023-07-24T12:54:09.000Z</time>
      </trkpt>
      <trkpt lat="42.70216" lon="1.3209">
        <ele>2194.1999511719</ele>
        <time>2023-07-24T12:54:12.000Z</time>
      </trkpt>
      <trkpt lat="42.70213" lon="1.32092">
        <ele>2194.8000488281</ele>
        <time>2023-07-24T12:54:19.000Z</time>
      </trkpt>
      <trkpt lat="42.70213" lon="1.32091">
        <ele>2195.3999023438</ele>
        <time>2023-07-24T12:54:21.000Z</time>
      </trkpt>
      <trkpt lat="42.7021" lon="1.32089">
        <ele>2196.3999023438</ele>
        <time>2023-07-24T12:54:29.000Z</time>
      </trkpt>
      <trkpt lat="42.70211" lon="1.32082">
        <ele>2197.3999023438</ele>
        <time>2023-07-24T12:54:35.000Z</time>
      </trkpt>
      <trkpt lat="42.7021" lon="1.3208">
        <ele>2197.8000488281</ele>
        <time>2023-07-24T12:54:37.000Z</time>
      </trkpt>
      <trkpt lat="42.70208" lon="1.32079">
        <ele>2198.3999023438</ele>
        <time>2023-07-24T12:54:41.000Z</time>
      </trkpt>
      <trkpt lat="42.70207" lon="1.3208">
        <ele>2198.8000488281</ele>
        <time>2023-07-24T12:54:43.000Z</time>
      </trkpt>
      <trkpt lat="42.70206" lon="1.3208">
        <ele>2199</ele>
        <time>2023-07-24T12:54:45.000Z</time>
      </trkpt>
      <trkpt lat="42.70205" lon="1.32079">
        <ele>2199.6000976562</ele>
        <time>2023-07-24T12:54:48.000Z</time>
      </trkpt>
      <trkpt lat="42.70206" lon="1.32077">
        <ele>2200.1999511719</ele>
        <time>2023-07-24T12:54:53.000Z</time>
      </trkpt>
      <trkpt lat="42.70206" lon="1.32077">
        <ele>2200.6000976562</ele>
        <time>2023-07-24T12:54:54.000Z</time>
      </trkpt>
      <trkpt lat="42.70206" lon="1.32072">
        <ele>2201.1999511719</ele>
        <time>2023-07-24T12:55:00.000Z</time>
      </trkpt>
      <trkpt lat="42.70206" lon="1.32073">
        <ele>2201.3999023438</ele>
        <time>2023-07-24T12:55:02.000Z</time>
      </trkpt>
      <trkpt lat="42.70205" lon="1.32073">
        <ele>2201.6000976562</ele>
        <time>2023-07-24T12:55:03.000Z</time>
      </trkpt>
      <trkpt lat="42.70204" lon="1.32073">
        <ele>2202.1999511719</ele>
        <time>2023-07-24T12:55:09.000Z</time>
      </trkpt>
      <trkpt lat="42.70205" lon="1.32072">
        <ele>2202.6000976562</ele>
        <time>2023-07-24T12:55:11.000Z</time>
      </trkpt>
      <trkpt lat="42.70205" lon="1.32072">
        <ele>2203.1999511719</ele>
        <time>2023-07-24T12:55:19.000Z</time>
      </trkpt>
      <trkpt lat="42.70202" lon="1.32069">
        <ele>2203.1999511719</ele>
        <time>2023-07-24T12:55:25.000Z</time>
      </trkpt>
      <trkpt lat="42.70201" lon="1.32069">
        <ele>2203.8000488281</ele>
        <time>2023-07-24T12:55:28.000Z</time>
      </trkpt>
      <trkpt lat="42.70199" lon="1.3207">
        <ele>2204.6000976562</ele>
        <time>2023-07-24T12:55:33.000Z</time>
      </trkpt>
      <trkpt lat="42.702" lon="1.32069">
        <ele>2204.8000488281</ele>
        <time>2023-07-24T12:55:34.000Z</time>
      </trkpt>
      <trkpt lat="42.70199" lon="1.32067">
        <ele>2205.8000488281</ele>
        <time>2023-07-24T12:55:40.000Z</time>
      </trkpt>
      <trkpt lat="42.70199" lon="1.32066">
        <ele>2206</ele>
        <time>2023-07-24T12:55:42.000Z</time>
      </trkpt>
      <trkpt lat="42.70197" lon="1.32064">
        <ele>2207</ele>
        <time>2023-07-24T12:55:47.000Z</time>
      </trkpt>
      <trkpt lat="42.70195" lon="1.32062">
        <ele>2207.3999023438</ele>
        <time>2023-07-24T12:55:51.000Z</time>
      </trkpt>
      <trkpt lat="42.70193" lon="1.3206">
        <ele>2208</ele>
        <time>2023-07-24T12:55:55.000Z</time>
      </trkpt>
      <trkpt lat="42.70192" lon="1.32058">
        <ele>2209</ele>
        <time>2023-07-24T12:56:01.000Z</time>
      </trkpt>
      <trkpt lat="42.70192" lon="1.32057">
        <ele>2209.1999511719</ele>
        <time>2023-07-24T12:56:02.000Z</time>
      </trkpt>
      <trkpt lat="42.70189" lon="1.32055">
        <ele>2210.1999511719</ele>
        <time>2023-07-24T12:56:10.000Z</time>
      </trkpt>
      <trkpt lat="42.70189" lon="1.32055">
        <ele>2210.3999023438</ele>
        <time>2023-07-24T12:56:11.000Z</time>
      </trkpt>
      <trkpt lat="42.70187" lon="1.32054">
        <ele>2211.3999023438</ele>
        <time>2023-07-24T12:56:18.000Z</time>
      </trkpt>
      <trkpt lat="42.70185" lon="1.32047">
        <ele>2212.1999511719</ele>
        <time>2023-07-24T12:56:26.000Z</time>
      </trkpt>
      <trkpt lat="42.70184" lon="1.32045">
        <ele>2212.6000976562</ele>
        <time>2023-07-24T12:56:28.000Z</time>
      </trkpt>
      <trkpt lat="42.70184" lon="1.32046">
        <ele>2213.6000976562</ele>
        <time>2023-07-24T12:56:33.000Z</time>
      </trkpt>
      <trkpt lat="42.70184" lon="1.32045">
        <ele>2213.8000488281</ele>
        <time>2023-07-24T12:56:35.000Z</time>
      </trkpt>
      <trkpt lat="42.70184" lon="1.32044">
        <ele>2214.8000488281</ele>
        <time>2023-07-24T12:56:38.000Z</time>
      </trkpt>
      <trkpt lat="42.7018" lon="1.32038">
        <ele>2214.8000488281</ele>
        <time>2023-07-24T12:56:45.000Z</time>
      </trkpt>
      <trkpt lat="42.70179" lon="1.32034">
        <ele>2215.8000488281</ele>
        <time>2023-07-24T12:56:50.000Z</time>
      </trkpt>
      <trkpt lat="42.70179" lon="1.32031">
        <ele>2216</ele>
        <time>2023-07-24T12:56:54.000Z</time>
      </trkpt>
      <trkpt lat="42.70178" lon="1.32028">
        <ele>2217</ele>
        <time>2023-07-24T12:56:59.000Z</time>
      </trkpt>
      <trkpt lat="42.70178" lon="1.32026">
        <ele>2217.6000976562</ele>
        <time>2023-07-24T12:57:02.000Z</time>
      </trkpt>
      <trkpt lat="42.7018" lon="1.32023">
        <ele>2218</ele>
        <time>2023-07-24T12:57:12.000Z</time>
      </trkpt>
      <trkpt lat="42.70179" lon="1.32018">
        <ele>2219.1999511719</ele>
        <time>2023-07-24T12:57:20.000Z</time>
      </trkpt>
      <trkpt lat="42.70178" lon="1.32013">
        <ele>2220.3999023438</ele>
        <time>2023-07-24T12:57:26.000Z</time>
      </trkpt>
      <trkpt lat="42.70177" lon="1.32011">
        <ele>2221</ele>
        <time>2023-07-24T12:57:29.000Z</time>
      </trkpt>
      <trkpt lat="42.70176" lon="1.3201">
        <ele>2221.6000976562</ele>
        <time>2023-07-24T12:57:31.000Z</time>
      </trkpt>
      <trkpt lat="42.70175" lon="1.32009">
        <ele>2222.1999511719</ele>
        <time>2023-07-24T12:57:36.000Z</time>
      </trkpt>
      <trkpt lat="42.70174" lon="1.32008">
        <ele>2223</ele>
        <time>2023-07-24T12:57:39.000Z</time>
      </trkpt>
      <trkpt lat="42.70173" lon="1.32003">
        <ele>2223.8000488281</ele>
        <time>2023-07-24T12:57:46.000Z</time>
      </trkpt>
      <trkpt lat="42.70172" lon="1.32004">
        <ele>2224</ele>
        <time>2023-07-24T12:57:51.000Z</time>
      </trkpt>
      <trkpt lat="42.70169" lon="1.32004">
        <ele>2224.6000976562</ele>
        <time>2023-07-24T12:57:56.000Z</time>
      </trkpt>
      <trkpt lat="42.70168" lon="1.32002">
        <ele>2225</ele>
        <time>2023-07-24T12:57:59.000Z</time>
      </trkpt>
      <trkpt lat="42.70167" lon="1.31999">
        <ele>2225.6000976562</ele>
        <time>2023-07-24T12:58:03.000Z</time>
      </trkpt>
      <trkpt lat="42.70165" lon="1.31997">
        <ele>2226</ele>
        <time>2023-07-24T12:58:08.000Z</time>
      </trkpt>
      <trkpt lat="42.70166" lon="1.31996">
        <ele>2226.1999511719</ele>
        <time>2023-07-24T12:58:10.000Z</time>
      </trkpt>
      <trkpt lat="42.70166" lon="1.31996">
        <ele>2226.1999511719</ele>
        <time>2023-07-24T12:58:11.000Z</time>
      </trkpt>
      <trkpt lat="42.70163" lon="1.31995">
        <ele>2226.3999023438</ele>
        <time>2023-07-24T12:58:19.000Z</time>
      </trkpt>
      <trkpt lat="42.70162" lon="1.31991">
        <ele>2226.1999511719</ele>
        <time>2023-07-24T12:58:24.000Z</time>
      </trkpt>
      <trkpt lat="42.70162" lon="1.31991">
        <ele>2226.1999511719</ele>
        <time>2023-07-24T12:58:33.000Z</time>
      </trkpt>
      <trkpt lat="42.70168" lon="1.31995">
        <ele>2226.6000976562</ele>
        <time>2023-07-24T12:58:43.000Z</time>
      </trkpt>
      <trkpt lat="42.70166" lon="1.3199">
        <ele>2226.1999511719</ele>
        <time>2023-07-24T12:58:52.000Z</time>
      </trkpt>
      <trkpt lat="42.7016" lon="1.3199">
        <ele>2226.6000976562</ele>
        <time>2023-07-24T12:59:02.000Z</time>
      </trkpt>
      <trkpt lat="42.70158" lon="1.3199">
        <ele>2227</ele>
        <time>2023-07-24T12:59:11.000Z</time>
      </trkpt>
      <trkpt lat="42.7016" lon="1.3199">
        <ele>2226.3999023438</ele>
        <time>2023-07-24T12:59:22.000Z</time>
      </trkpt>
      <trkpt lat="42.70162" lon="1.31991">
        <ele>2226.6000976562</ele>
        <time>2023-07-24T12:59:30.000Z</time>
      </trkpt>
      <trkpt lat="42.70165" lon="1.31993">
        <ele>2227</ele>
        <time>2023-07-24T12:59:36.000Z</time>
      </trkpt>
      <trkpt lat="42.70166" lon="1.31993">
        <ele>2227.3999023438</ele>
        <time>2023-07-24T12:59:44.000Z</time>
      </trkpt>
      <trkpt lat="42.70166" lon="1.31991">
        <ele>2227.6000976562</ele>
        <time>2023-07-24T12:59:45.000Z</time>
      </trkpt>
      <trkpt lat="42.70165" lon="1.31987">
        <ele>2227.6000976562</ele>
        <time>2023-07-24T12:59:51.000Z</time>
      </trkpt>
      <trkpt lat="42.70165" lon="1.31987">
        <ele>2227.3999023438</ele>
        <time>2023-07-24T12:59:52.000Z</time>
      </trkpt>
      <trkpt lat="42.70165" lon="1.31985">
        <ele>2228.3999023438</ele>
        <time>2023-07-24T12:59:57.000Z</time>
      </trkpt>
      <trkpt lat="42.70165" lon="1.31984">
        <ele>2230</ele>
        <time>2023-07-24T12:59:59.000Z</time>
      </trkpt>
      <trkpt lat="42.70165" lon="1.31982">
        <ele>2230.3999023438</ele>
        <time>2023-07-24T13:00:00.000Z</time>
      </trkpt>
      <trkpt lat="42.70165" lon="1.31975">
        <ele>2231</ele>
        <time>2023-07-24T13:00:08.000Z</time>
      </trkpt>
      <trkpt lat="42.70164" lon="1.31973">
        <ele>2231.1999511719</ele>
        <time>2023-07-24T13:00:10.000Z</time>
      </trkpt>
      <trkpt lat="42.70165" lon="1.31966">
        <ele>2232.1999511719</ele>
        <time>2023-07-24T13:00:15.000Z</time>
      </trkpt>
      <trkpt lat="42.70165" lon="1.31965">
        <ele>2232.1999511719</ele>
        <time>2023-07-24T13:00:16.000Z</time>
      </trkpt>
      <trkpt lat="42.70165" lon="1.3196">
        <ele>2233.3999023438</ele>
        <time>2023-07-24T13:00:22.000Z</time>
      </trkpt>
      <trkpt lat="42.70166" lon="1.31957">
        <ele>2232</ele>
        <time>2023-07-24T13:00:26.000Z</time>
      </trkpt>
      <trkpt lat="42.70167" lon="1.31953">
        <ele>2231.1999511719</ele>
        <time>2023-07-24T13:00:30.000Z</time>
      </trkpt>
      <trkpt lat="42.70168" lon="1.31947">
        <ele>2231.8000488281</ele>
        <time>2023-07-24T13:00:37.000Z</time>
      </trkpt>
      <trkpt lat="42.70168" lon="1.31946">
        <ele>2230.8000488281</ele>
        <time>2023-07-24T13:00:38.000Z</time>
      </trkpt>
      <trkpt lat="42.70168" lon="1.31946">
        <ele>2229.8000488281</ele>
        <time>2023-07-24T13:00:39.000Z</time>
      </trkpt>
      <trkpt lat="42.70168" lon="1.31946">
        <ele>2229.3999023438</ele>
        <time>2023-07-24T13:00:47.000Z</time>
      </trkpt>
      <trkpt lat="42.70168" lon="1.31944">
        <ele>2229.6000976562</ele>
        <time>2023-07-24T13:00:48.000Z</time>
      </trkpt>
      <trkpt lat="42.70165" lon="1.31938">
        <ele>2228.3999023438</ele>
        <time>2023-07-24T13:00:53.000Z</time>
      </trkpt>
      <trkpt lat="42.70165" lon="1.31937">
        <ele>2226.8000488281</ele>
        <time>2023-07-24T13:00:55.000Z</time>
      </trkpt>
      <trkpt lat="42.70165" lon="1.31931">
        <ele>2226.1999511719</ele>
        <time>2023-07-24T13:01:02.000Z</time>
      </trkpt>
      <trkpt lat="42.70165" lon="1.31931">
        <ele>2225.6000976562</ele>
        <time>2023-07-24T13:01:04.000Z</time>
      </trkpt>
      <trkpt lat="42.70165" lon="1.31928">
        <ele>2224.1999511719</ele>
        <time>2023-07-24T13:01:07.000Z</time>
      </trkpt>
      <trkpt lat="42.70165" lon="1.31927">
        <ele>2223.8000488281</ele>
        <time>2023-07-24T13:01:09.000Z</time>
      </trkpt>
      <trkpt lat="42.70164" lon="1.31924">
        <ele>2222.8000488281</ele>
        <time>2023-07-24T13:01:12.000Z</time>
      </trkpt>
      <trkpt lat="42.70162" lon="1.31916">
        <ele>2222.3999023438</ele>
        <time>2023-07-24T13:01:17.000Z</time>
      </trkpt>
      <trkpt lat="42.70161" lon="1.31908">
        <ele>2222.1999511719</ele>
        <time>2023-07-24T13:01:24.000Z</time>
      </trkpt>
      <trkpt lat="42.70159" lon="1.31901">
        <ele>2221.8000488281</ele>
        <time>2023-07-24T13:01:32.000Z</time>
      </trkpt>
      <trkpt lat="42.70159" lon="1.31901">
        <ele>2221.8000488281</ele>
        <time>2023-07-24T13:01:33.000Z</time>
      </trkpt>
      <trkpt lat="42.70158" lon="1.31896">
        <ele>2220.8000488281</ele>
        <time>2023-07-24T13:01:36.000Z</time>
      </trkpt>
      <trkpt lat="42.70157" lon="1.31893">
        <ele>2220.3999023438</ele>
        <time>2023-07-24T13:01:38.000Z</time>
      </trkpt>
      <trkpt lat="42.70159" lon="1.31896">
        <ele>2220.1999511719</ele>
        <time>2023-07-24T13:01:44.000Z</time>
      </trkpt>
      <trkpt lat="42.7016" lon="1.319">
        <ele>2219.3999023438</ele>
        <time>2023-07-24T13:01:47.000Z</time>
      </trkpt>
      <trkpt lat="42.7016" lon="1.31901">
        <ele>2219.1999511719</ele>
        <time>2023-07-24T13:01:48.000Z</time>
      </trkpt>
      <trkpt lat="42.70162" lon="1.31909">
        <ele>2219.8000488281</ele>
        <time>2023-07-24T13:01:55.000Z</time>
      </trkpt>
      <trkpt lat="42.70164" lon="1.31913">
        <ele>2220.8000488281</ele>
        <time>2023-07-24T13:01:58.000Z</time>
      </trkpt>
      <trkpt lat="42.70165" lon="1.31918">
        <ele>2221.6000976562</ele>
        <time>2023-07-24T13:02:02.000Z</time>
      </trkpt>
      <trkpt lat="42.70168" lon="1.31928">
        <ele>2220.3999023438</ele>
        <time>2023-07-24T13:02:10.000Z</time>
      </trkpt>
      <trkpt lat="42.70169" lon="1.31935">
        <ele>2220.6000976562</ele>
        <time>2023-07-24T13:02:18.000Z</time>
      </trkpt>
      <trkpt lat="42.70169" lon="1.31937">
        <ele>2222.3999023438</ele>
        <time>2023-07-24T13:02:20.000Z</time>
      </trkpt>
      <trkpt lat="42.7017" lon="1.31939">
        <ele>2223.1999511719</ele>
        <time>2023-07-24T13:02:26.000Z</time>
      </trkpt>
      <trkpt lat="42.7017" lon="1.3194">
        <ele>2223.3999023438</ele>
        <time>2023-07-24T13:02:28.000Z</time>
      </trkpt>
      <trkpt lat="42.7017" lon="1.31945">
        <ele>2223.6000976562</ele>
        <time>2023-07-24T13:02:34.000Z</time>
      </trkpt>
      <trkpt lat="42.70168" lon="1.31946">
        <ele>2224.6000976562</ele>
        <time>2023-07-24T13:02:39.000Z</time>
      </trkpt>
      <trkpt lat="42.70168" lon="1.31948">
        <ele>2225.6000976562</ele>
        <time>2023-07-24T13:02:41.000Z</time>
      </trkpt>
      <trkpt lat="42.70168" lon="1.31951">
        <ele>2225.8000488281</ele>
        <time>2023-07-24T13:02:46.000Z</time>
      </trkpt>
      <trkpt lat="42.70167" lon="1.31958">
        <ele>2226.3999023438</ele>
        <time>2023-07-24T13:02:53.000Z</time>
      </trkpt>
      <trkpt lat="42.70167" lon="1.31962">
        <ele>2226.8000488281</ele>
        <time>2023-07-24T13:02:57.000Z</time>
      </trkpt>
      <trkpt lat="42.70168" lon="1.31966">
        <ele>2228</ele>
        <time>2023-07-24T13:03:00.000Z</time>
      </trkpt>
      <trkpt lat="42.70168" lon="1.31967">
        <ele>2228</ele>
        <time>2023-07-24T13:03:01.000Z</time>
      </trkpt>
      <trkpt lat="42.70168" lon="1.31975">
        <ele>2228</ele>
        <time>2023-07-24T13:03:07.000Z</time>
      </trkpt>
      <trkpt lat="42.70167" lon="1.31983">
        <ele>2228.3999023438</ele>
        <time>2023-07-24T13:03:15.000Z</time>
      </trkpt>
      <trkpt lat="42.70167" lon="1.3199">
        <ele>2227.8000488281</ele>
        <time>2023-07-24T13:03:24.000Z</time>
      </trkpt>
      <trkpt lat="42.70167" lon="1.31994">
        <ele>2226.8000488281</ele>
        <time>2023-07-24T13:03:28.000Z</time>
      </trkpt>
      <trkpt lat="42.70169" lon="1.31995">
        <ele>2226</ele>
        <time>2023-07-24T13:03:33.000Z</time>
      </trkpt>
      <trkpt lat="42.7017" lon="1.31995">
        <ele>2225.8000488281</ele>
        <time>2023-07-24T13:03:38.000Z</time>
      </trkpt>
      <trkpt lat="42.70171" lon="1.31995">
        <ele>2225.6000976562</ele>
        <time>2023-07-24T13:03:41.000Z</time>
      </trkpt>
      <trkpt lat="42.7017" lon="1.31994">
        <ele>2225.8000488281</ele>
        <time>2023-07-24T13:03:49.000Z</time>
      </trkpt>
      <trkpt lat="42.7017" lon="1.31993">
        <ele>2225.8000488281</ele>
        <time>2023-07-24T13:03:56.000Z</time>
      </trkpt>
      <trkpt lat="42.70169" lon="1.31993">
        <ele>2226.1999511719</ele>
        <time>2023-07-24T13:04:04.000Z</time>
      </trkpt>
      <trkpt lat="42.70168" lon="1.31993">
        <ele>2226</ele>
        <time>2023-07-24T13:04:12.000Z</time>
      </trkpt>
      <trkpt lat="42.7017" lon="1.31993">
        <ele>2226.3999023438</ele>
        <time>2023-07-24T13:04:20.000Z</time>
      </trkpt>
      <trkpt lat="42.70168" lon="1.31993">
        <ele>2226.6000976562</ele>
        <time>2023-07-24T13:04:27.000Z</time>
      </trkpt>
      <trkpt lat="42.70168" lon="1.31994">
        <ele>2226.3999023438</ele>
        <time>2023-07-24T13:04:34.000Z</time>
      </trkpt>
      <trkpt lat="42.70167" lon="1.31994">
        <ele>2226.1999511719</ele>
        <time>2023-07-24T13:04:41.000Z</time>
      </trkpt>
      <trkpt lat="42.70164" lon="1.31999">
        <ele>2226.1999511719</ele>
        <time>2023-07-24T13:04:48.000Z</time>
      </trkpt>
      <trkpt lat="42.70162" lon="1.32">
        <ele>2226.8000488281</ele>
        <time>2023-07-24T13:04:53.000Z</time>
      </trkpt>
      <trkpt lat="42.70161" lon="1.32">
        <ele>2226.8000488281</ele>
        <time>2023-07-24T13:04:56.000Z</time>
      </trkpt>
      <trkpt lat="42.70164" lon="1.31999">
        <ele>2227</ele>
        <time>2023-07-24T13:05:04.000Z</time>
      </trkpt>
      <trkpt lat="42.70168" lon="1.32002">
        <ele>2227.1999511719</ele>
        <time>2023-07-24T13:05:15.000Z</time>
      </trkpt>
      <trkpt lat="42.70172" lon="1.32004">
        <ele>2226.3999023438</ele>
        <time>2023-07-24T13:05:25.000Z</time>
      </trkpt>
      <trkpt lat="42.7017" lon="1.32004">
        <ele>2226.3999023438</ele>
        <time>2023-07-24T13:05:33.000Z</time>
      </trkpt>
      <trkpt lat="42.70169" lon="1.32003">
        <ele>2226.1999511719</ele>
        <time>2023-07-24T13:05:41.000Z</time>
      </trkpt>
      <trkpt lat="42.70169" lon="1.32006">
        <ele>2226.3999023438</ele>
        <time>2023-07-24T13:05:52.000Z</time>
      </trkpt>
      <trkpt lat="42.70169" lon="1.32005">
        <ele>2226.3999023438</ele>
        <time>2023-07-24T13:06:02.000Z</time>
      </trkpt>
      <trkpt lat="42.70171" lon="1.32004">
        <ele>2226.6000976562</ele>
        <time>2023-07-24T13:06:10.000Z</time>
      </trkpt>
      <trkpt lat="42.7017" lon="1.32002">
        <ele>2226.8000488281</ele>
        <time>2023-07-24T13:06:20.000Z</time>
      </trkpt>
      <trkpt lat="42.70164" lon="1.32001">
        <ele>2227</ele>
        <time>2023-07-24T13:06:31.000Z</time>
      </trkpt>
      <trkpt lat="42.70163" lon="1.31998">
        <ele>2227</ele>
        <time>2023-07-24T13:06:35.000Z</time>
      </trkpt>
      <trkpt lat="42.70163" lon="1.31999">
        <ele>2226.8000488281</ele>
        <time>2023-07-24T13:06:36.000Z</time>
      </trkpt>
      <trkpt lat="42.70166" lon="1.32001">
        <ele>2227</ele>
        <time>2023-07-24T13:06:44.000Z</time>
      </trkpt>
      <trkpt lat="42.70168" lon="1.32002">
        <ele>2228</ele>
        <time>2023-07-24T13:06:53.000Z</time>
      </trkpt>
      <trkpt lat="42.70167" lon="1.32002">
        <ele>2227.8000488281</ele>
        <time>2023-07-24T13:07:01.000Z</time>
      </trkpt>
      <trkpt lat="42.70162" lon="1.32">
        <ele>2227.1999511719</ele>
        <time>2023-07-24T13:07:10.000Z</time>
      </trkpt>
      <trkpt lat="42.70168" lon="1.31996">
        <ele>2227</ele>
        <time>2023-07-24T13:07:16.000Z</time>
      </trkpt>
      <trkpt lat="42.70168" lon="1.31997">
        <ele>2226.8000488281</ele>
        <time>2023-07-24T13:07:17.000Z</time>
      </trkpt>
      <trkpt lat="42.70167" lon="1.31995">
        <ele>2226.3999023438</ele>
        <time>2023-07-24T13:07:24.000Z</time>
      </trkpt>
      <trkpt lat="42.70165" lon="1.31999">
        <ele>2226.6000976562</ele>
        <time>2023-07-24T13:07:29.000Z</time>
      </trkpt>
      <trkpt lat="42.70161" lon="1.32004">
        <ele>2227.6000976562</ele>
        <time>2023-07-24T13:07:37.000Z</time>
      </trkpt>
      <trkpt lat="42.70159" lon="1.32005">
        <ele>2227.8000488281</ele>
        <time>2023-07-24T13:07:46.000Z</time>
      </trkpt>
      <trkpt lat="42.70157" lon="1.32005">
        <ele>2227.8000488281</ele>
        <time>2023-07-24T13:07:53.000Z</time>
      </trkpt>
      <trkpt lat="42.70157" lon="1.32">
        <ele>2227.3999023438</ele>
        <time>2023-07-24T13:07:59.000Z</time>
      </trkpt>
      <trkpt lat="42.70158" lon="1.31996">
        <ele>2228</ele>
        <time>2023-07-24T13:08:05.000Z</time>
      </trkpt>
      <trkpt lat="42.70158" lon="1.31996">
        <ele>2228.6000976562</ele>
        <time>2023-07-24T13:08:07.000Z</time>
      </trkpt>
      <trkpt lat="42.70158" lon="1.31994">
        <ele>2229.1999511719</ele>
        <time>2023-07-24T13:08:10.000Z</time>
      </trkpt>
      <trkpt lat="42.70158" lon="1.31989">
        <ele>2229.6000976562</ele>
        <time>2023-07-24T13:08:14.000Z</time>
      </trkpt>
      <trkpt lat="42.70159" lon="1.31983">
        <ele>2230.1999511719</ele>
        <time>2023-07-24T13:08:22.000Z</time>
      </trkpt>
      <trkpt lat="42.70159" lon="1.3198">
        <ele>2231.3999023438</ele>
        <time>2023-07-24T13:08:28.000Z</time>
      </trkpt>
      <trkpt lat="42.70158" lon="1.31981">
        <ele>2231.8000488281</ele>
        <time>2023-07-24T13:08:32.000Z</time>
      </trkpt>
      <trkpt lat="42.70158" lon="1.31982">
        <ele>2232</ele>
        <time>2023-07-24T13:08:33.000Z</time>
      </trkpt>
      <trkpt lat="42.70157" lon="1.31984">
        <ele>2232.3999023438</ele>
        <time>2023-07-24T13:08:36.000Z</time>
      </trkpt>
      <trkpt lat="42.70155" lon="1.31985">
        <ele>2232.6000976562</ele>
        <time>2023-07-24T13:08:39.000Z</time>
      </trkpt>
      <trkpt lat="42.70149" lon="1.31988">
        <ele>2233.1999511719</ele>
        <time>2023-07-24T13:08:48.000Z</time>
      </trkpt>
      <trkpt lat="42.70149" lon="1.31987">
        <ele>2233.1999511719</ele>
        <time>2023-07-24T13:08:49.000Z</time>
      </trkpt>
      <trkpt lat="42.70149" lon="1.31986">
        <ele>2233.3999023438</ele>
        <time>2023-07-24T13:08:51.000Z</time>
      </trkpt>
      <trkpt lat="42.70148" lon="1.31983">
        <ele>2233.8000488281</ele>
        <time>2023-07-24T13:08:54.000Z</time>
      </trkpt>
      <trkpt lat="42.70149" lon="1.31982">
        <ele>2234.6000976562</ele>
        <time>2023-07-24T13:08:58.000Z</time>
      </trkpt>
      <trkpt lat="42.7015" lon="1.3198">
        <ele>2234.8000488281</ele>
        <time>2023-07-24T13:09:02.000Z</time>
      </trkpt>
      <trkpt lat="42.70151" lon="1.31974">
        <ele>2235.6000976562</ele>
        <time>2023-07-24T13:09:09.000Z</time>
      </trkpt>
      <trkpt lat="42.70151" lon="1.31974">
        <ele>2235.8000488281</ele>
        <time>2023-07-24T13:09:10.000Z</time>
      </trkpt>
      <trkpt lat="42.70151" lon="1.31961">
        <ele>2235.3999023438</ele>
        <time>2023-07-24T13:09:20.000Z</time>
      </trkpt>
      <trkpt lat="42.70151" lon="1.31958">
        <ele>2235.8000488281</ele>
        <time>2023-07-24T13:09:25.000Z</time>
      </trkpt>
      <trkpt lat="42.70149" lon="1.31955">
        <ele>2236.3999023438</ele>
        <time>2023-07-24T13:09:31.000Z</time>
      </trkpt>
      <trkpt lat="42.70148" lon="1.31953">
        <ele>2236.6000976562</ele>
        <time>2023-07-24T13:09:33.000Z</time>
      </trkpt>
      <trkpt lat="42.70144" lon="1.31949">
        <ele>2237.3999023438</ele>
        <time>2023-07-24T13:09:40.000Z</time>
      </trkpt>
      <trkpt lat="42.70141" lon="1.31947">
        <ele>2237.8000488281</ele>
        <time>2023-07-24T13:09:45.000Z</time>
      </trkpt>
      <trkpt lat="42.7014" lon="1.31946">
        <ele>2238</ele>
        <time>2023-07-24T13:09:46.000Z</time>
      </trkpt>
      <trkpt lat="42.70136" lon="1.31943">
        <ele>2238.6000976562</ele>
        <time>2023-07-24T13:09:53.000Z</time>
      </trkpt>
      <trkpt lat="42.70135" lon="1.31942">
        <ele>2238.6000976562</ele>
        <time>2023-07-24T13:09:54.000Z</time>
      </trkpt>
      <trkpt lat="42.70133" lon="1.3194">
        <ele>2238.3999023438</ele>
        <time>2023-07-24T13:09:58.000Z</time>
      </trkpt>
      <trkpt lat="42.70133" lon="1.31941">
        <ele>2238.3999023438</ele>
        <time>2023-07-24T13:09:59.000Z</time>
      </trkpt>
      <trkpt lat="42.70127" lon="1.31944">
        <ele>2237</ele>
        <time>2023-07-24T13:10:06.000Z</time>
      </trkpt>
      <trkpt lat="42.70126" lon="1.31945">
        <ele>2236.3999023438</ele>
        <time>2023-07-24T13:10:07.000Z</time>
      </trkpt>
      <trkpt lat="42.70124" lon="1.31948">
        <ele>2235.3999023438</ele>
        <time>2023-07-24T13:10:11.000Z</time>
      </trkpt>
      <trkpt lat="42.70123" lon="1.31948">
        <ele>2235</ele>
        <time>2023-07-24T13:10:13.000Z</time>
      </trkpt>
      <trkpt lat="42.70123" lon="1.31947">
        <ele>2234.1999511719</ele>
        <time>2023-07-24T13:10:16.000Z</time>
      </trkpt>
      <trkpt lat="42.70123" lon="1.31947">
        <ele>2234.1999511719</ele>
        <time>2023-07-24T13:10:20.000Z</time>
      </trkpt>
      <trkpt lat="42.70123" lon="1.31947">
        <ele>2234.1999511719</ele>
        <time>2023-07-24T13:10:21.000Z</time>
      </trkpt>
      <trkpt lat="42.70122" lon="1.31947">
        <ele>2234</ele>
        <time>2023-07-24T13:10:29.000Z</time>
      </trkpt>
      <trkpt lat="42.70119" lon="1.31951">
        <ele>2233.1999511719</ele>
        <time>2023-07-24T13:10:36.000Z</time>
      </trkpt>
      <trkpt lat="42.70116" lon="1.31949">
        <ele>2232</ele>
        <time>2023-07-24T13:10:39.000Z</time>
      </trkpt>
      <trkpt lat="42.70114" lon="1.31946">
        <ele>2230.8000488281</ele>
        <time>2023-07-24T13:10:43.000Z</time>
      </trkpt>
      <trkpt lat="42.70112" lon="1.31944">
        <ele>2230.6000976562</ele>
        <time>2023-07-24T13:10:45.000Z</time>
      </trkpt>
      <trkpt lat="42.7011" lon="1.3194">
        <ele>2229.8000488281</ele>
        <time>2023-07-24T13:10:50.000Z</time>
      </trkpt>
      <trkpt lat="42.70109" lon="1.31939">
        <ele>2229.3999023438</ele>
        <time>2023-07-24T13:10:53.000Z</time>
      </trkpt>
      <trkpt lat="42.70104" lon="1.31934">
        <ele>2228.6000976562</ele>
        <time>2023-07-24T13:10:59.000Z</time>
      </trkpt>
      <trkpt lat="42.701" lon="1.31936">
        <ele>2228.8000488281</ele>
        <time>2023-07-24T13:11:05.000Z</time>
      </trkpt>
      <trkpt lat="42.70096" lon="1.31941">
        <ele>2229.8000488281</ele>
        <time>2023-07-24T13:11:10.000Z</time>
      </trkpt>
      <trkpt lat="42.70095" lon="1.31941">
        <ele>2230</ele>
        <time>2023-07-24T13:11:12.000Z</time>
      </trkpt>
      <trkpt lat="42.70092" lon="1.31945">
        <ele>2230.3999023438</ele>
        <time>2023-07-24T13:11:22.000Z</time>
      </trkpt>
      <trkpt lat="42.7009" lon="1.31947">
        <ele>2230.8000488281</ele>
        <time>2023-07-24T13:11:25.000Z</time>
      </trkpt>
      <trkpt lat="42.70089" lon="1.31948">
        <ele>2232</ele>
        <time>2023-07-24T13:11:28.000Z</time>
      </trkpt>
      <trkpt lat="42.70088" lon="1.31948">
        <ele>2232.6000976562</ele>
        <time>2023-07-24T13:11:30.000Z</time>
      </trkpt>
      <trkpt lat="42.70086" lon="1.3195">
        <ele>2233</ele>
        <time>2023-07-24T13:11:37.000Z</time>
      </trkpt>
      <trkpt lat="42.70085" lon="1.31953">
        <ele>2234</ele>
        <time>2023-07-24T13:11:45.000Z</time>
      </trkpt>
      <trkpt lat="42.70085" lon="1.31953">
        <ele>2234.1999511719</ele>
        <time>2023-07-24T13:11:46.000Z</time>
      </trkpt>
      <trkpt lat="42.70083" lon="1.31955">
        <ele>2235</ele>
        <time>2023-07-24T13:11:53.000Z</time>
      </trkpt>
      <trkpt lat="42.70083" lon="1.31955">
        <ele>2235.1999511719</ele>
        <time>2023-07-24T13:11:54.000Z</time>
      </trkpt>
      <trkpt lat="42.70081" lon="1.31958">
        <ele>2235.6000976562</ele>
        <time>2023-07-24T13:12:01.000Z</time>
      </trkpt>
      <trkpt lat="42.70081" lon="1.31959">
        <ele>2236.1999511719</ele>
        <time>2023-07-24T13:12:04.000Z</time>
      </trkpt>
      <trkpt lat="42.7008" lon="1.31962">
        <ele>2237.3999023438</ele>
        <time>2023-07-24T13:12:11.000Z</time>
      </trkpt>
      <trkpt lat="42.70079" lon="1.31969">
        <ele>2238.3999023438</ele>
        <time>2023-07-24T13:12:19.000Z</time>
      </trkpt>
      <trkpt lat="42.70079" lon="1.3197">
        <ele>2238.6000976562</ele>
        <time>2023-07-24T13:12:20.000Z</time>
      </trkpt>
      <trkpt lat="42.70074" lon="1.31978">
        <ele>2237.6000976562</ele>
        <time>2023-07-24T13:12:29.000Z</time>
      </trkpt>
      <trkpt lat="42.70074" lon="1.31979">
        <ele>2237.3999023438</ele>
        <time>2023-07-24T13:12:30.000Z</time>
      </trkpt>
      <trkpt lat="42.7007" lon="1.31988">
        <ele>2236</ele>
        <time>2023-07-24T13:12:38.000Z</time>
      </trkpt>
      <trkpt lat="42.70069" lon="1.31995">
        <ele>2234.8000488281</ele>
        <time>2023-07-24T13:12:44.000Z</time>
      </trkpt>
      <trkpt lat="42.70069" lon="1.31996">
        <ele>2234.3999023438</ele>
        <time>2023-07-24T13:12:45.000Z</time>
      </trkpt>
      <trkpt lat="42.70065" lon="1.32003">
        <ele>2234.1999511719</ele>
        <time>2023-07-24T13:12:52.000Z</time>
      </trkpt>
      <trkpt lat="42.70063" lon="1.32008">
        <ele>2234.3999023438</ele>
        <time>2023-07-24T13:13:00.000Z</time>
      </trkpt>
      <trkpt lat="42.7006" lon="1.32015">
        <ele>2235.1999511719</ele>
        <time>2023-07-24T13:13:09.000Z</time>
      </trkpt>
      <trkpt lat="42.70055" lon="1.32021">
        <ele>2234.8000488281</ele>
        <time>2023-07-24T13:13:15.000Z</time>
      </trkpt>
      <trkpt lat="42.7005" lon="1.32027">
        <ele>2233.8000488281</ele>
        <time>2023-07-24T13:13:24.000Z</time>
      </trkpt>
      <trkpt lat="42.7005" lon="1.32025">
        <ele>2233.6000976562</ele>
        <time>2023-07-24T13:13:27.000Z</time>
      </trkpt>
      <trkpt lat="42.70049" lon="1.3202">
        <ele>2233.8000488281</ele>
        <time>2023-07-24T13:13:31.000Z</time>
      </trkpt>
      <trkpt lat="42.70049" lon="1.32016">
        <ele>2234</ele>
        <time>2023-07-24T13:13:39.000Z</time>
      </trkpt>
      <trkpt lat="42.70049" lon="1.32013">
        <ele>2232.3999023438</ele>
        <time>2023-07-24T13:13:42.000Z</time>
      </trkpt>
      <trkpt lat="42.7005" lon="1.32009">
        <ele>2231.1999511719</ele>
        <time>2023-07-24T13:13:46.000Z</time>
      </trkpt>
      <trkpt lat="42.7005" lon="1.32007">
        <ele>2230</ele>
        <time>2023-07-24T13:13:50.000Z</time>
      </trkpt>
      <trkpt lat="42.7005" lon="1.32005">
        <ele>2229.6000976562</ele>
        <time>2023-07-24T13:13:53.000Z</time>
      </trkpt>
      <trkpt lat="42.7005" lon="1.32002">
        <ele>2228.8000488281</ele>
        <time>2023-07-24T13:13:55.000Z</time>
      </trkpt>
      <trkpt lat="42.70049" lon="1.32">
        <ele>2228.8000488281</ele>
        <time>2023-07-24T13:13:58.000Z</time>
      </trkpt>
      <trkpt lat="42.70048" lon="1.31995">
        <ele>2228.3999023438</ele>
        <time>2023-07-24T13:14:05.000Z</time>
      </trkpt>
      <trkpt lat="42.70049" lon="1.31992">
        <ele>2228.1999511719</ele>
        <time>2023-07-24T13:14:11.000Z</time>
      </trkpt>
      <trkpt lat="42.70049" lon="1.31992">
        <ele>2228</ele>
        <time>2023-07-24T13:14:12.000Z</time>
      </trkpt>
      <trkpt lat="42.70048" lon="1.31991">
        <ele>2227.6000976562</ele>
        <time>2023-07-24T13:14:14.000Z</time>
      </trkpt>
      <trkpt lat="42.70047" lon="1.31987">
        <ele>2227.1999511719</ele>
        <time>2023-07-24T13:14:19.000Z</time>
      </trkpt>
      <trkpt lat="42.70048" lon="1.31984">
        <ele>2226.6000976562</ele>
        <time>2023-07-24T13:14:22.000Z</time>
      </trkpt>
      <trkpt lat="42.70047" lon="1.31983">
        <ele>2226.3999023438</ele>
        <time>2023-07-24T13:14:26.000Z</time>
      </trkpt>
      <trkpt lat="42.70046" lon="1.31983">
        <ele>2225.3999023438</ele>
        <time>2023-07-24T13:14:32.000Z</time>
      </trkpt>
      <trkpt lat="42.70046" lon="1.31981">
        <ele>2225</ele>
        <time>2023-07-24T13:14:34.000Z</time>
      </trkpt>
      <trkpt lat="42.70046" lon="1.31979">
        <ele>2224.3999023438</ele>
        <time>2023-07-24T13:14:39.000Z</time>
      </trkpt>
      <trkpt lat="42.70046" lon="1.31978">
        <ele>2224</ele>
        <time>2023-07-24T13:14:42.000Z</time>
      </trkpt>
      <trkpt lat="42.70048" lon="1.31976">
        <ele>2223.3999023438</ele>
        <time>2023-07-24T13:14:46.000Z</time>
      </trkpt>
      <trkpt lat="42.70049" lon="1.31974">
        <ele>2222.3999023438</ele>
        <time>2023-07-24T13:14:51.000Z</time>
      </trkpt>
      <trkpt lat="42.70049" lon="1.31974">
        <ele>2222.1999511719</ele>
        <time>2023-07-24T13:14:52.000Z</time>
      </trkpt>
      <trkpt lat="42.70045" lon="1.31974">
        <ele>2222</ele>
        <time>2023-07-24T13:14:59.000Z</time>
      </trkpt>
      <trkpt lat="42.70041" lon="1.31977">
        <ele>2221.1999511719</ele>
        <time>2023-07-24T13:15:04.000Z</time>
      </trkpt>
      <trkpt lat="42.70039" lon="1.31978">
        <ele>2221</ele>
        <time>2023-07-24T13:15:07.000Z</time>
      </trkpt>
      <trkpt lat="42.70038" lon="1.3198">
        <ele>2220.6000976562</ele>
        <time>2023-07-24T13:15:12.000Z</time>
      </trkpt>
      <trkpt lat="42.70037" lon="1.31981">
        <ele>2220.1999511719</ele>
        <time>2023-07-24T13:15:16.000Z</time>
      </trkpt>
      <trkpt lat="42.70036" lon="1.31982">
        <ele>2219.6000976562</ele>
        <time>2023-07-24T13:15:20.000Z</time>
      </trkpt>
      <trkpt lat="42.70034" lon="1.31986">
        <ele>2219.1999511719</ele>
        <time>2023-07-24T13:15:25.000Z</time>
      </trkpt>
      <trkpt lat="42.70033" lon="1.31988">
        <ele>2218.8000488281</ele>
        <time>2023-07-24T13:15:28.000Z</time>
      </trkpt>
      <trkpt lat="42.70033" lon="1.31991">
        <ele>2217.8000488281</ele>
        <time>2023-07-24T13:15:31.000Z</time>
      </trkpt>
      <trkpt lat="42.70031" lon="1.31992">
        <ele>2216.6000976562</ele>
        <time>2023-07-24T13:15:35.000Z</time>
      </trkpt>
      <trkpt lat="42.70031" lon="1.31992">
        <ele>2216.1999511719</ele>
        <time>2023-07-24T13:15:36.000Z</time>
      </trkpt>
      <trkpt lat="42.70031" lon="1.31992">
        <ele>2216</ele>
        <time>2023-07-24T13:15:37.000Z</time>
      </trkpt>
      <trkpt lat="42.70031" lon="1.3199">
        <ele>2215.3999023438</ele>
        <time>2023-07-24T13:15:40.000Z</time>
      </trkpt>
      <trkpt lat="42.70031" lon="1.31988">
        <ele>2215</ele>
        <time>2023-07-24T13:15:46.000Z</time>
      </trkpt>
      <trkpt lat="42.70032" lon="1.31988">
        <ele>2214.3999023438</ele>
        <time>2023-07-24T13:15:49.000Z</time>
      </trkpt>
      <trkpt lat="42.70033" lon="1.31987">
        <ele>2213.8000488281</ele>
        <time>2023-07-24T13:15:53.000Z</time>
      </trkpt>
      <trkpt lat="42.70031" lon="1.3199">
        <ele>2213.8000488281</ele>
        <time>2023-07-24T13:16:01.000Z</time>
      </trkpt>
      <trkpt lat="42.70029" lon="1.3199">
        <ele>2214</ele>
        <time>2023-07-24T13:16:10.000Z</time>
      </trkpt>
      <trkpt lat="42.70031" lon="1.31989">
        <ele>2214</ele>
        <time>2023-07-24T13:16:19.000Z</time>
      </trkpt>
      <trkpt lat="42.70031" lon="1.31983">
        <ele>2213.6000976562</ele>
        <time>2023-07-24T13:16:27.000Z</time>
      </trkpt>
      <trkpt lat="42.70031" lon="1.3198">
        <ele>2213.3999023438</ele>
        <time>2023-07-24T13:16:31.000Z</time>
      </trkpt>
      <trkpt lat="42.70031" lon="1.31976">
        <ele>2212.1999511719</ele>
        <time>2023-07-24T13:16:38.000Z</time>
      </trkpt>
      <trkpt lat="42.70031" lon="1.31976">
        <ele>2211.8000488281</ele>
        <time>2023-07-24T13:16:39.000Z</time>
      </trkpt>
      <trkpt lat="42.70033" lon="1.31975">
        <ele>2211</ele>
        <time>2023-07-24T13:16:43.000Z</time>
      </trkpt>
      <trkpt lat="42.70033" lon="1.31974">
        <ele>2210.8000488281</ele>
        <time>2023-07-24T13:16:46.000Z</time>
      </trkpt>
      <trkpt lat="42.70031" lon="1.31969">
        <ele>2210.3999023438</ele>
        <time>2023-07-24T13:16:53.000Z</time>
      </trkpt>
      <trkpt lat="42.7003" lon="1.31967">
        <ele>2210.1999511719</ele>
        <time>2023-07-24T13:16:55.000Z</time>
      </trkpt>
      <trkpt lat="42.7003" lon="1.31965">
        <ele>2209.8000488281</ele>
        <time>2023-07-24T13:16:56.000Z</time>
      </trkpt>
      <trkpt lat="42.7003" lon="1.31962">
        <ele>2209.1999511719</ele>
        <time>2023-07-24T13:17:00.000Z</time>
      </trkpt>
      <trkpt lat="42.7003" lon="1.31962">
        <ele>2209</ele>
        <time>2023-07-24T13:17:01.000Z</time>
      </trkpt>
      <trkpt lat="42.70031" lon="1.31962">
        <ele>2208.6000976562</ele>
        <time>2023-07-24T13:17:02.000Z</time>
      </trkpt>
      <trkpt lat="42.70033" lon="1.31959">
        <ele>2207.3999023438</ele>
        <time>2023-07-24T13:17:06.000Z</time>
      </trkpt>
      <trkpt lat="42.70032" lon="1.31959">
        <ele>2206.8000488281</ele>
        <time>2023-07-24T13:17:11.000Z</time>
      </trkpt>
      <trkpt lat="42.70032" lon="1.31959">
        <ele>2206.3999023438</ele>
        <time>2023-07-24T13:17:14.000Z</time>
      </trkpt>
      <trkpt lat="42.70035" lon="1.31959">
        <ele>2205.8000488281</ele>
        <time>2023-07-24T13:17:18.000Z</time>
      </trkpt>
      <trkpt lat="42.70037" lon="1.31959">
        <ele>2205.1999511719</ele>
        <time>2023-07-24T13:17:21.000Z</time>
      </trkpt>
      <trkpt lat="42.70037" lon="1.31957">
        <ele>2204.3999023438</ele>
        <time>2023-07-24T13:17:26.000Z</time>
      </trkpt>
      <trkpt lat="42.70039" lon="1.31955">
        <ele>2204</ele>
        <time>2023-07-24T13:17:29.000Z</time>
      </trkpt>
      <trkpt lat="42.70039" lon="1.31954">
        <ele>2203.6000976562</ele>
        <time>2023-07-24T13:17:31.000Z</time>
      </trkpt>
      <trkpt lat="42.70038" lon="1.31952">
        <ele>2202.8000488281</ele>
        <time>2023-07-24T13:17:34.000Z</time>
      </trkpt>
      <trkpt lat="42.70035" lon="1.31951">
        <ele>2202.1999511719</ele>
        <time>2023-07-24T13:17:39.000Z</time>
      </trkpt>
      <trkpt lat="42.70034" lon="1.31949">
        <ele>2201.6000976562</ele>
        <time>2023-07-24T13:17:41.000Z</time>
      </trkpt>
      <trkpt lat="42.70031" lon="1.31943">
        <ele>2200.8000488281</ele>
        <time>2023-07-24T13:17:46.000Z</time>
      </trkpt>
      <trkpt lat="42.70034" lon="1.31944">
        <ele>2200.3999023438</ele>
        <time>2023-07-24T13:17:49.000Z</time>
      </trkpt>
      <trkpt lat="42.70036" lon="1.31942">
        <ele>2200.1999511719</ele>
        <time>2023-07-24T13:17:52.000Z</time>
      </trkpt>
      <trkpt lat="42.70037" lon="1.31942">
        <ele>2199.6000976562</ele>
        <time>2023-07-24T13:17:56.000Z</time>
      </trkpt>
      <trkpt lat="42.70038" lon="1.31942">
        <ele>2199.1999511719</ele>
        <time>2023-07-24T13:17:57.000Z</time>
      </trkpt>
      <trkpt lat="42.70039" lon="1.31943">
        <ele>2198.8000488281</ele>
        <time>2023-07-24T13:18:00.000Z</time>
      </trkpt>
      <trkpt lat="42.70036" lon="1.31942">
        <ele>2199.1999511719</ele>
        <time>2023-07-24T13:18:11.000Z</time>
      </trkpt>
      <trkpt lat="42.70039" lon="1.31943">
        <ele>2199.3999023438</ele>
        <time>2023-07-24T13:18:19.000Z</time>
      </trkpt>
      <trkpt lat="42.70036" lon="1.31936">
        <ele>2199.3999023438</ele>
        <time>2023-07-24T13:18:26.000Z</time>
      </trkpt>
      <trkpt lat="42.70035" lon="1.31931">
        <ele>2199</ele>
        <time>2023-07-24T13:18:33.000Z</time>
      </trkpt>
      <trkpt lat="42.70039" lon="1.31931">
        <ele>2197.8000488281</ele>
        <time>2023-07-24T13:18:38.000Z</time>
      </trkpt>
      <trkpt lat="42.7004" lon="1.3193">
        <ele>2196.8000488281</ele>
        <time>2023-07-24T13:18:40.000Z</time>
      </trkpt>
      <trkpt lat="42.70039" lon="1.31925">
        <ele>2197</ele>
        <time>2023-07-24T13:18:49.000Z</time>
      </trkpt>
      <trkpt lat="42.70039" lon="1.31922">
        <ele>2195.6000976562</ele>
        <time>2023-07-24T13:18:53.000Z</time>
      </trkpt>
      <trkpt lat="42.70039" lon="1.3192">
        <ele>2194.3999023438</ele>
        <time>2023-07-24T13:18:56.000Z</time>
      </trkpt>
      <trkpt lat="42.70039" lon="1.31919">
        <ele>2194.1999511719</ele>
        <time>2023-07-24T13:18:57.000Z</time>
      </trkpt>
      <trkpt lat="42.70041" lon="1.31919">
        <ele>2193</ele>
        <time>2023-07-24T13:19:01.000Z</time>
      </trkpt>
      <trkpt lat="42.70042" lon="1.31918">
        <ele>2192.1999511719</ele>
        <time>2023-07-24T13:19:05.000Z</time>
      </trkpt>
      <trkpt lat="42.70043" lon="1.31918">
        <ele>2192</ele>
        <time>2023-07-24T13:19:06.000Z</time>
      </trkpt>
      <trkpt lat="42.70046" lon="1.31915">
        <ele>2191.6000976562</ele>
        <time>2023-07-24T13:19:12.000Z</time>
      </trkpt>
      <trkpt lat="42.70049" lon="1.31912">
        <ele>2191</ele>
        <time>2023-07-24T13:19:17.000Z</time>
      </trkpt>
      <trkpt lat="42.70048" lon="1.31911">
        <ele>2190</ele>
        <time>2023-07-24T13:19:21.000Z</time>
      </trkpt>
      <trkpt lat="42.70048" lon="1.31911">
        <ele>2189.6000976562</ele>
        <time>2023-07-24T13:19:22.000Z</time>
      </trkpt>
      <trkpt lat="42.70045" lon="1.31905">
        <ele>2189</ele>
        <time>2023-07-24T13:19:29.000Z</time>
      </trkpt>
      <trkpt lat="42.70045" lon="1.31905">
        <ele>2188.6000976562</ele>
        <time>2023-07-24T13:19:30.000Z</time>
      </trkpt>
      <trkpt lat="42.70043" lon="1.31903">
        <ele>2187.8000488281</ele>
        <time>2023-07-24T13:19:34.000Z</time>
      </trkpt>
      <trkpt lat="42.70042" lon="1.319">
        <ele>2187.1999511719</ele>
        <time>2023-07-24T13:19:39.000Z</time>
      </trkpt>
      <trkpt lat="42.70042" lon="1.319">
        <ele>2186.8000488281</ele>
        <time>2023-07-24T13:19:42.000Z</time>
      </trkpt>
      <trkpt lat="42.70041" lon="1.31899">
        <ele>2186</ele>
        <time>2023-07-24T13:19:48.000Z</time>
      </trkpt>
      <trkpt lat="42.70041" lon="1.31899">
        <ele>2185.8000488281</ele>
        <time>2023-07-24T13:19:49.000Z</time>
      </trkpt>
      <trkpt lat="42.70047" lon="1.31899">
        <ele>2182.8000488281</ele>
        <time>2023-07-24T13:20:07.000Z</time>
      </trkpt>
      <trkpt lat="42.70047" lon="1.31898">
        <ele>2182.3999023438</ele>
        <time>2023-07-24T13:20:08.000Z</time>
      </trkpt>
      <trkpt lat="42.70045" lon="1.31895">
        <ele>2182.1999511719</ele>
        <time>2023-07-24T13:20:13.000Z</time>
      </trkpt>
      <trkpt lat="42.70043" lon="1.31894">
        <ele>2182</ele>
        <time>2023-07-24T13:20:19.000Z</time>
      </trkpt>
      <trkpt lat="42.70045" lon="1.31894">
        <ele>2181.3999023438</ele>
        <time>2023-07-24T13:20:25.000Z</time>
      </trkpt>
      <trkpt lat="42.70045" lon="1.31895">
        <ele>2181</ele>
        <time>2023-07-24T13:20:28.000Z</time>
      </trkpt>
      <trkpt lat="42.70046" lon="1.31896">
        <ele>2180</ele>
        <time>2023-07-24T13:20:32.000Z</time>
      </trkpt>
      <trkpt lat="42.70047" lon="1.31896">
        <ele>2179.3999023438</ele>
        <time>2023-07-24T13:20:34.000Z</time>
      </trkpt>
      <trkpt lat="42.70048" lon="1.31895">
        <ele>2178.8000488281</ele>
        <time>2023-07-24T13:20:36.000Z</time>
      </trkpt>
      <trkpt lat="42.7005" lon="1.31892">
        <ele>2177.8000488281</ele>
        <time>2023-07-24T13:20:41.000Z</time>
      </trkpt>
      <trkpt lat="42.7005" lon="1.31891">
        <ele>2177.8000488281</ele>
        <time>2023-07-24T13:20:42.000Z</time>
      </trkpt>
      <trkpt lat="42.70048" lon="1.31886">
        <ele>2176.3999023438</ele>
        <time>2023-07-24T13:20:54.000Z</time>
      </trkpt>
      <trkpt lat="42.70048" lon="1.31884">
        <ele>2175.8000488281</ele>
        <time>2023-07-24T13:20:57.000Z</time>
      </trkpt>
      <trkpt lat="42.70049" lon="1.31882">
        <ele>2175.3999023438</ele>
        <time>2023-07-24T13:21:02.000Z</time>
      </trkpt>
      <trkpt lat="42.70049" lon="1.31878">
        <ele>2175</ele>
        <time>2023-07-24T13:21:09.000Z</time>
      </trkpt>
      <trkpt lat="42.70048" lon="1.31876">
        <ele>2174.6000976562</ele>
        <time>2023-07-24T13:21:13.000Z</time>
      </trkpt>
      <trkpt lat="42.70046" lon="1.31874">
        <ele>2174.3999023438</ele>
        <time>2023-07-24T13:21:16.000Z</time>
      </trkpt>
      <trkpt lat="42.70047" lon="1.31871">
        <ele>2172.3999023438</ele>
        <time>2023-07-24T13:21:26.000Z</time>
      </trkpt>
      <trkpt lat="42.70048" lon="1.31871">
        <ele>2172.3999023438</ele>
        <time>2023-07-24T13:21:27.000Z</time>
      </trkpt>
      <trkpt lat="42.7005" lon="1.31871">
        <ele>2171.1999511719</ele>
        <time>2023-07-24T13:21:31.000Z</time>
      </trkpt>
      <trkpt lat="42.70052" lon="1.31869">
        <ele>2170.8000488281</ele>
        <time>2023-07-24T13:21:36.000Z</time>
      </trkpt>
      <trkpt lat="42.70055" lon="1.31869">
        <ele>2170.3999023438</ele>
        <time>2023-07-24T13:21:43.000Z</time>
      </trkpt>
      <trkpt lat="42.70056" lon="1.31869">
        <ele>2170.1999511719</ele>
        <time>2023-07-24T13:21:46.000Z</time>
      </trkpt>
      <trkpt lat="42.70054" lon="1.31869">
        <ele>2169.8000488281</ele>
        <time>2023-07-24T13:21:49.000Z</time>
      </trkpt>
      <trkpt lat="42.7005" lon="1.3187">
        <ele>2169.1999511719</ele>
        <time>2023-07-24T13:21:55.000Z</time>
      </trkpt>
      <trkpt lat="42.70048" lon="1.3187">
        <ele>2168.3999023438</ele>
        <time>2023-07-24T13:21:57.000Z</time>
      </trkpt>
      <trkpt lat="42.70047" lon="1.31868">
        <ele>2168.1999511719</ele>
        <time>2023-07-24T13:22:00.000Z</time>
      </trkpt>
      <trkpt lat="42.70047" lon="1.31864">
        <ele>2167.3999023438</ele>
        <time>2023-07-24T13:22:04.000Z</time>
      </trkpt>
      <trkpt lat="42.70049" lon="1.31864">
        <ele>2167</ele>
        <time>2023-07-24T13:22:06.000Z</time>
      </trkpt>
      <trkpt lat="42.70051" lon="1.31866">
        <ele>2166.3999023438</ele>
        <time>2023-07-24T13:22:11.000Z</time>
      </trkpt>
      <trkpt lat="42.70052" lon="1.31868">
        <ele>2166.3999023438</ele>
        <time>2023-07-24T13:22:20.000Z</time>
      </trkpt>
      <trkpt lat="42.70054" lon="1.31862">
        <ele>2166</ele>
        <time>2023-07-24T13:22:26.000Z</time>
      </trkpt>
      <trkpt lat="42.70055" lon="1.31861">
        <ele>2165.8000488281</ele>
        <time>2023-07-24T13:22:28.000Z</time>
      </trkpt>
      <trkpt lat="42.70054" lon="1.31863">
        <ele>2165.1999511719</ele>
        <time>2023-07-24T13:22:32.000Z</time>
      </trkpt>
      <trkpt lat="42.70055" lon="1.31861">
        <ele>2165</ele>
        <time>2023-07-24T13:22:36.000Z</time>
      </trkpt>
      <trkpt lat="42.70056" lon="1.31861">
        <ele>2164.6000976562</ele>
        <time>2023-07-24T13:22:38.000Z</time>
      </trkpt>
      <trkpt lat="42.70058" lon="1.31859">
        <ele>2163.8000488281</ele>
        <time>2023-07-24T13:22:42.000Z</time>
      </trkpt>
      <trkpt lat="42.7006" lon="1.31857">
        <ele>2163.6000976562</ele>
        <time>2023-07-24T13:22:46.000Z</time>
      </trkpt>
      <trkpt lat="42.70059" lon="1.31854">
        <ele>2162.8000488281</ele>
        <time>2023-07-24T13:22:54.000Z</time>
      </trkpt>
      <trkpt lat="42.70059" lon="1.31853">
        <ele>2161.8000488281</ele>
        <time>2023-07-24T13:23:01.000Z</time>
      </trkpt>
      <trkpt lat="42.70059" lon="1.31853">
        <ele>2161.6000976562</ele>
        <time>2023-07-24T13:23:02.000Z</time>
      </trkpt>
      <trkpt lat="42.70057" lon="1.31851">
        <ele>2160.8000488281</ele>
        <time>2023-07-24T13:23:07.000Z</time>
      </trkpt>
      <trkpt lat="42.70055" lon="1.3185">
        <ele>2160.1999511719</ele>
        <time>2023-07-24T13:23:10.000Z</time>
      </trkpt>
      <trkpt lat="42.70054" lon="1.31848">
        <ele>2159.8000488281</ele>
        <time>2023-07-24T13:23:13.000Z</time>
      </trkpt>
      <trkpt lat="42.70054" lon="1.31848">
        <ele>2159.1999511719</ele>
        <time>2023-07-24T13:23:17.000Z</time>
      </trkpt>
      <trkpt lat="42.70055" lon="1.31845">
        <ele>2158.6000976562</ele>
        <time>2023-07-24T13:23:21.000Z</time>
      </trkpt>
      <trkpt lat="42.70054" lon="1.31841">
        <ele>2157.8000488281</ele>
        <time>2023-07-24T13:23:26.000Z</time>
      </trkpt>
      <trkpt lat="42.70053" lon="1.31839">
        <ele>2157.6000976562</ele>
        <time>2023-07-24T13:23:28.000Z</time>
      </trkpt>
      <trkpt lat="42.70053" lon="1.31836">
        <ele>2156.1999511719</ele>
        <time>2023-07-24T13:23:36.000Z</time>
      </trkpt>
      <trkpt lat="42.70057" lon="1.31841">
        <ele>2155.1999511719</ele>
        <time>2023-07-24T13:23:44.000Z</time>
      </trkpt>
      <trkpt lat="42.70062" lon="1.31841">
        <ele>2154.3999023438</ele>
        <time>2023-07-24T13:23:51.000Z</time>
      </trkpt>
      <trkpt lat="42.70067" lon="1.31838">
        <ele>2154</ele>
        <time>2023-07-24T13:23:59.000Z</time>
      </trkpt>
      <trkpt lat="42.70069" lon="1.31836">
        <ele>2153.1999511719</ele>
        <time>2023-07-24T13:24:05.000Z</time>
      </trkpt>
      <trkpt lat="42.70069" lon="1.31835">
        <ele>2153</ele>
        <time>2023-07-24T13:24:08.000Z</time>
      </trkpt>
      <trkpt lat="42.70072" lon="1.3183">
        <ele>2152.1999511719</ele>
        <time>2023-07-24T13:24:14.000Z</time>
      </trkpt>
      <trkpt lat="42.70072" lon="1.31828">
        <ele>2151.6000976562</ele>
        <time>2023-07-24T13:24:16.000Z</time>
      </trkpt>
      <trkpt lat="42.7007" lon="1.31829">
        <ele>2151</ele>
        <time>2023-07-24T13:24:21.000Z</time>
      </trkpt>
      <trkpt lat="42.70067" lon="1.31829">
        <ele>2150.6000976562</ele>
        <time>2023-07-24T13:24:24.000Z</time>
      </trkpt>
      <trkpt lat="42.70065" lon="1.31829">
        <ele>2150.1999511719</ele>
        <time>2023-07-24T13:24:27.000Z</time>
      </trkpt>
      <trkpt lat="42.70064" lon="1.31829">
        <ele>2149.3999023438</ele>
        <time>2023-07-24T13:24:34.000Z</time>
      </trkpt>
      <trkpt lat="42.70064" lon="1.31829">
        <ele>2148.8000488281</ele>
        <time>2023-07-24T13:24:37.000Z</time>
      </trkpt>
      <trkpt lat="42.70065" lon="1.31829">
        <ele>2148.3999023438</ele>
        <time>2023-07-24T13:24:41.000Z</time>
      </trkpt>
      <trkpt lat="42.70066" lon="1.31829">
        <ele>2147.1999511719</ele>
        <time>2023-07-24T13:24:44.000Z</time>
      </trkpt>
      <trkpt lat="42.70066" lon="1.31826">
        <ele>2146.1999511719</ele>
        <time>2023-07-24T13:24:49.000Z</time>
      </trkpt>
      <trkpt lat="42.70067" lon="1.31825">
        <ele>2145.8000488281</ele>
        <time>2023-07-24T13:24:51.000Z</time>
      </trkpt>
      <trkpt lat="42.70069" lon="1.31823">
        <ele>2145</ele>
        <time>2023-07-24T13:24:55.000Z</time>
      </trkpt>
      <trkpt lat="42.70072" lon="1.31822">
        <ele>2144.1999511719</ele>
        <time>2023-07-24T13:24:59.000Z</time>
      </trkpt>
      <trkpt lat="42.70074" lon="1.31821">
        <ele>2144</ele>
        <time>2023-07-24T13:25:01.000Z</time>
      </trkpt>
      <trkpt lat="42.70074" lon="1.3182">
        <ele>2143.1999511719</ele>
        <time>2023-07-24T13:25:05.000Z</time>
      </trkpt>
      <trkpt lat="42.70076" lon="1.31821">
        <ele>2143</ele>
        <time>2023-07-24T13:25:10.000Z</time>
      </trkpt>
      <trkpt lat="42.70077" lon="1.31821">
        <ele>2142.6000976562</ele>
        <time>2023-07-24T13:25:11.000Z</time>
      </trkpt>
      <trkpt lat="42.70079" lon="1.3182">
        <ele>2141.8000488281</ele>
        <time>2023-07-24T13:25:15.000Z</time>
      </trkpt>
      <trkpt lat="42.70082" lon="1.3182">
        <ele>2140.8000488281</ele>
        <time>2023-07-24T13:25:18.000Z</time>
      </trkpt>
      <trkpt lat="42.70083" lon="1.31819">
        <ele>2140.3999023438</ele>
        <time>2023-07-24T13:25:19.000Z</time>
      </trkpt>
      <trkpt lat="42.70085" lon="1.31817">
        <ele>2139.8000488281</ele>
        <time>2023-07-24T13:25:26.000Z</time>
      </trkpt>
      <trkpt lat="42.70085" lon="1.31816">
        <ele>2139.6000976562</ele>
        <time>2023-07-24T13:25:27.000Z</time>
      </trkpt>
      <trkpt lat="42.70085" lon="1.31811">
        <ele>2138.3999023438</ele>
        <time>2023-07-24T13:25:34.000Z</time>
      </trkpt>
      <trkpt lat="42.70083" lon="1.31811">
        <ele>2138</ele>
        <time>2023-07-24T13:25:36.000Z</time>
      </trkpt>
      <trkpt lat="42.7008" lon="1.31809">
        <ele>2137.1999511719</ele>
        <time>2023-07-24T13:25:39.000Z</time>
      </trkpt>
      <trkpt lat="42.70077" lon="1.31807">
        <ele>2136.6000976562</ele>
        <time>2023-07-24T13:25:42.000Z</time>
      </trkpt>
      <trkpt lat="42.70075" lon="1.31805">
        <ele>2136.1999511719</ele>
        <time>2023-07-24T13:25:46.000Z</time>
      </trkpt>
      <trkpt lat="42.70073" lon="1.31804">
        <ele>2135.8000488281</ele>
        <time>2023-07-24T13:25:50.000Z</time>
      </trkpt>
      <trkpt lat="42.70073" lon="1.31803">
        <ele>2135.1999511719</ele>
        <time>2023-07-24T13:25:54.000Z</time>
      </trkpt>
      <trkpt lat="42.70072" lon="1.31801">
        <ele>2134.3999023438</ele>
        <time>2023-07-24T13:25:57.000Z</time>
      </trkpt>
      <trkpt lat="42.70071" lon="1.318">
        <ele>2133.8000488281</ele>
        <time>2023-07-24T13:25:59.000Z</time>
      </trkpt>
      <trkpt lat="42.7007" lon="1.31798">
        <ele>2132.8000488281</ele>
        <time>2023-07-24T13:26:04.000Z</time>
      </trkpt>
      <trkpt lat="42.70072" lon="1.31796">
        <ele>2131.6000976562</ele>
        <time>2023-07-24T13:26:09.000Z</time>
      </trkpt>
      <trkpt lat="42.70073" lon="1.31796">
        <ele>2131.3999023438</ele>
        <time>2023-07-24T13:26:11.000Z</time>
      </trkpt>
      <trkpt lat="42.70077" lon="1.31795">
        <ele>2130.6000976562</ele>
        <time>2023-07-24T13:26:16.000Z</time>
      </trkpt>
      <trkpt lat="42.70079" lon="1.31794">
        <ele>2130</ele>
        <time>2023-07-24T13:26:19.000Z</time>
      </trkpt>
      <trkpt lat="42.70082" lon="1.31794">
        <ele>2129.3999023438</ele>
        <time>2023-07-24T13:26:23.000Z</time>
      </trkpt>
      <trkpt lat="42.70083" lon="1.31791">
        <ele>2128.3999023438</ele>
        <time>2023-07-24T13:26:28.000Z</time>
      </trkpt>
      <trkpt lat="42.70085" lon="1.31789">
        <ele>2127.1999511719</ele>
        <time>2023-07-24T13:26:34.000Z</time>
      </trkpt>
      <trkpt lat="42.70086" lon="1.31789">
        <ele>2126.6000976562</ele>
        <time>2023-07-24T13:26:36.000Z</time>
      </trkpt>
      <trkpt lat="42.70086" lon="1.31787">
        <ele>2126</ele>
        <time>2023-07-24T13:26:39.000Z</time>
      </trkpt>
      <trkpt lat="42.70089" lon="1.31783">
        <ele>2125</ele>
        <time>2023-07-24T13:26:44.000Z</time>
      </trkpt>
      <trkpt lat="42.7009" lon="1.31783">
        <ele>2125</ele>
        <time>2023-07-24T13:26:45.000Z</time>
      </trkpt>
      <trkpt lat="42.70095" lon="1.3178">
        <ele>2124</ele>
        <time>2023-07-24T13:26:52.000Z</time>
      </trkpt>
      <trkpt lat="42.70098" lon="1.31778">
        <ele>2123</ele>
        <time>2023-07-24T13:26:58.000Z</time>
      </trkpt>
      <trkpt lat="42.70099" lon="1.31778">
        <ele>2122.8000488281</ele>
        <time>2023-07-24T13:26:59.000Z</time>
      </trkpt>
      <trkpt lat="42.701" lon="1.31776">
        <ele>2122</ele>
        <time>2023-07-24T13:27:02.000Z</time>
      </trkpt>
      <trkpt lat="42.70103" lon="1.31776">
        <ele>2121.1999511719</ele>
        <time>2023-07-24T13:27:07.000Z</time>
      </trkpt>
      <trkpt lat="42.70104" lon="1.31776">
        <ele>2121</ele>
        <time>2023-07-24T13:27:08.000Z</time>
      </trkpt>
      <trkpt lat="42.70106" lon="1.31773">
        <ele>2120</ele>
        <time>2023-07-24T13:27:14.000Z</time>
      </trkpt>
      <trkpt lat="42.70106" lon="1.31772">
        <ele>2119.8000488281</ele>
        <time>2023-07-24T13:27:15.000Z</time>
      </trkpt>
      <trkpt lat="42.70105" lon="1.31772">
        <ele>2119.3999023438</ele>
        <time>2023-07-24T13:27:17.000Z</time>
      </trkpt>
      <trkpt lat="42.70103" lon="1.3177">
        <ele>2118.6000976562</ele>
        <time>2023-07-24T13:27:20.000Z</time>
      </trkpt>
      <trkpt lat="42.70103" lon="1.31769">
        <ele>2118.1999511719</ele>
        <time>2023-07-24T13:27:21.000Z</time>
      </trkpt>
      <trkpt lat="42.701" lon="1.31768">
        <ele>2117.3999023438</ele>
        <time>2023-07-24T13:27:24.000Z</time>
      </trkpt>
      <trkpt lat="42.70097" lon="1.31767">
        <ele>2116.6000976562</ele>
        <time>2023-07-24T13:27:29.000Z</time>
      </trkpt>
      <trkpt lat="42.70097" lon="1.31767">
        <ele>2116.3999023438</ele>
        <time>2023-07-24T13:27:31.000Z</time>
      </trkpt>
      <trkpt lat="42.70098" lon="1.31766">
        <ele>2115.8000488281</ele>
        <time>2023-07-24T13:27:35.000Z</time>
      </trkpt>
      <trkpt lat="42.701" lon="1.31764">
        <ele>2115.3999023438</ele>
        <time>2023-07-24T13:27:39.000Z</time>
      </trkpt>
      <trkpt lat="42.70102" lon="1.31763">
        <ele>2114.6000976562</ele>
        <time>2023-07-24T13:27:43.000Z</time>
      </trkpt>
      <trkpt lat="42.70104" lon="1.31762">
        <ele>2114.3999023438</ele>
        <time>2023-07-24T13:27:47.000Z</time>
      </trkpt>
      <trkpt lat="42.70104" lon="1.31761">
        <ele>2113.8000488281</ele>
        <time>2023-07-24T13:27:51.000Z</time>
      </trkpt>
      <trkpt lat="42.70106" lon="1.3176">
        <ele>2113.3999023438</ele>
        <time>2023-07-24T13:27:56.000Z</time>
      </trkpt>
      <trkpt lat="42.70109" lon="1.3176">
        <ele>2112.6000976562</ele>
        <time>2023-07-24T13:27:59.000Z</time>
      </trkpt>
      <trkpt lat="42.7011" lon="1.3176">
        <ele>2112.1999511719</ele>
        <time>2023-07-24T13:28:00.000Z</time>
      </trkpt>
      <trkpt lat="42.70112" lon="1.3176">
        <ele>2111.1999511719</ele>
        <time>2023-07-24T13:28:05.000Z</time>
      </trkpt>
      <trkpt lat="42.70112" lon="1.3176">
        <ele>2110.3999023438</ele>
        <time>2023-07-24T13:28:08.000Z</time>
      </trkpt>
      <trkpt lat="42.70114" lon="1.31759">
        <ele>2110</ele>
        <time>2023-07-24T13:28:10.000Z</time>
      </trkpt>
      <trkpt lat="42.70117" lon="1.3176">
        <ele>2109</ele>
        <time>2023-07-24T13:28:15.000Z</time>
      </trkpt>
      <trkpt lat="42.70121" lon="1.31761">
        <ele>2108</ele>
        <time>2023-07-24T13:28:20.000Z</time>
      </trkpt>
      <trkpt lat="42.70123" lon="1.31761">
        <ele>2107.3999023438</ele>
        <time>2023-07-24T13:28:24.000Z</time>
      </trkpt>
      <trkpt lat="42.70127" lon="1.31762">
        <ele>2106.8000488281</ele>
        <time>2023-07-24T13:28:29.000Z</time>
      </trkpt>
      <trkpt lat="42.70129" lon="1.31763">
        <ele>2105.6000976562</ele>
        <time>2023-07-24T13:28:32.000Z</time>
      </trkpt>
      <trkpt lat="42.70131" lon="1.31763">
        <ele>2105</ele>
        <time>2023-07-24T13:28:35.000Z</time>
      </trkpt>
      <trkpt lat="42.70134" lon="1.31765">
        <ele>2104.6000976562</ele>
        <time>2023-07-24T13:28:38.000Z</time>
      </trkpt>
      <trkpt lat="42.70137" lon="1.31765">
        <ele>2103.6000976562</ele>
        <time>2023-07-24T13:28:42.000Z</time>
      </trkpt>
      <trkpt lat="42.70137" lon="1.31765">
        <ele>2103.6000976562</ele>
        <time>2023-07-24T13:28:43.000Z</time>
      </trkpt>
      <trkpt lat="42.70139" lon="1.31758">
        <ele>2103.1999511719</ele>
        <time>2023-07-24T13:28:49.000Z</time>
      </trkpt>
      <trkpt lat="42.70139" lon="1.31752">
        <ele>2102.3999023438</ele>
        <time>2023-07-24T13:28:54.000Z</time>
      </trkpt>
      <trkpt lat="42.70139" lon="1.31751">
        <ele>2102.3999023438</ele>
        <time>2023-07-24T13:28:55.000Z</time>
      </trkpt>
      <trkpt lat="42.70137" lon="1.31748">
        <ele>2102</ele>
        <time>2023-07-24T13:29:04.000Z</time>
      </trkpt>
      <trkpt lat="42.70138" lon="1.31746">
        <ele>2100.8000488281</ele>
        <time>2023-07-24T13:29:08.000Z</time>
      </trkpt>
      <trkpt lat="42.7014" lon="1.31746">
        <ele>2100.8000488281</ele>
        <time>2023-07-24T13:29:12.000Z</time>
      </trkpt>
      <trkpt lat="42.70142" lon="1.31741">
        <ele>2099.8000488281</ele>
        <time>2023-07-24T13:29:20.000Z</time>
      </trkpt>
      <trkpt lat="42.70142" lon="1.3174">
        <ele>2099.8000488281</ele>
        <time>2023-07-24T13:29:21.000Z</time>
      </trkpt>
      <trkpt lat="42.7014" lon="1.31738">
        <ele>2098.8000488281</ele>
        <time>2023-07-24T13:29:25.000Z</time>
      </trkpt>
      <trkpt lat="42.70138" lon="1.31737">
        <ele>2098</ele>
        <time>2023-07-24T13:29:29.000Z</time>
      </trkpt>
      <trkpt lat="42.70137" lon="1.31737">
        <ele>2098</ele>
        <time>2023-07-24T13:29:30.000Z</time>
      </trkpt>
      <trkpt lat="42.70137" lon="1.31737">
        <ele>2097.6000976562</ele>
        <time>2023-07-24T13:29:32.000Z</time>
      </trkpt>
      <trkpt lat="42.70139" lon="1.31736">
        <ele>2097.1999511719</ele>
        <time>2023-07-24T13:29:37.000Z</time>
      </trkpt>
      <trkpt lat="42.70141" lon="1.31738">
        <ele>2097.6000976562</ele>
        <time>2023-07-24T13:29:44.000Z</time>
      </trkpt>
      <trkpt lat="42.70139" lon="1.3174">
        <ele>2098</ele>
        <time>2023-07-24T13:29:52.000Z</time>
      </trkpt>
      <trkpt lat="42.70141" lon="1.31736">
        <ele>2096.6000976562</ele>
        <time>2023-07-24T13:30:00.000Z</time>
      </trkpt>
      <trkpt lat="42.70139" lon="1.31738">
        <ele>2096.6000976562</ele>
        <time>2023-07-24T13:30:10.000Z</time>
      </trkpt>
      <trkpt lat="42.70133" lon="1.31736">
        <ele>2097</ele>
        <time>2023-07-24T13:30:20.000Z</time>
      </trkpt>
      <trkpt lat="42.70133" lon="1.31733">
        <ele>2096.8000488281</ele>
        <time>2023-07-24T13:30:26.000Z</time>
      </trkpt>
      <trkpt lat="42.70137" lon="1.31733">
        <ele>2097</ele>
        <time>2023-07-24T13:30:34.000Z</time>
      </trkpt>
      <trkpt lat="42.70142" lon="1.31731">
        <ele>2095.8000488281</ele>
        <time>2023-07-24T13:30:41.000Z</time>
      </trkpt>
      <trkpt lat="42.70147" lon="1.3173">
        <ele>2095.6000976562</ele>
        <time>2023-07-24T13:30:50.000Z</time>
      </trkpt>
      <trkpt lat="42.70149" lon="1.31729">
        <ele>2095.3999023438</ele>
        <time>2023-07-24T13:30:52.000Z</time>
      </trkpt>
      <trkpt lat="42.70151" lon="1.31729">
        <ele>2094.1999511719</ele>
        <time>2023-07-24T13:30:54.000Z</time>
      </trkpt>
      <trkpt lat="42.70154" lon="1.31729">
        <ele>2093.1999511719</ele>
        <time>2023-07-24T13:30:58.000Z</time>
      </trkpt>
      <trkpt lat="42.70156" lon="1.31724">
        <ele>2092.6000976562</ele>
        <time>2023-07-24T13:31:06.000Z</time>
      </trkpt>
      <trkpt lat="42.70157" lon="1.31723">
        <ele>2092.8000488281</ele>
        <time>2023-07-24T13:31:17.000Z</time>
      </trkpt>
      <trkpt lat="42.70159" lon="1.31722">
        <ele>2093.1999511719</ele>
        <time>2023-07-24T13:31:25.000Z</time>
      </trkpt>
      <trkpt lat="42.70164" lon="1.3172">
        <ele>2094.3999023438</ele>
        <time>2023-07-24T13:31:31.000Z</time>
      </trkpt>
      <trkpt lat="42.70165" lon="1.31719">
        <ele>2094.3999023438</ele>
        <time>2023-07-24T13:31:32.000Z</time>
      </trkpt>
      <trkpt lat="42.70171" lon="1.31711">
        <ele>2095.3999023438</ele>
        <time>2023-07-24T13:31:41.000Z</time>
      </trkpt>
      <trkpt lat="42.70172" lon="1.3171">
        <ele>2095.3999023438</ele>
        <time>2023-07-24T13:31:43.000Z</time>
      </trkpt>
      <trkpt lat="42.70177" lon="1.31706">
        <ele>2095.1999511719</ele>
        <time>2023-07-24T13:31:50.000Z</time>
      </trkpt>
      <trkpt lat="42.70179" lon="1.31703">
        <ele>2095.8000488281</ele>
        <time>2023-07-24T13:31:56.000Z</time>
      </trkpt>
      <trkpt lat="42.7018" lon="1.31702">
        <ele>2096.3999023438</ele>
        <time>2023-07-24T13:32:00.000Z</time>
      </trkpt>
      <trkpt lat="42.70181" lon="1.317">
        <ele>2097</ele>
        <time>2023-07-24T13:32:04.000Z</time>
      </trkpt>
      <trkpt lat="42.70182" lon="1.317">
        <ele>2097.3999023438</ele>
        <time>2023-07-24T13:32:06.000Z</time>
      </trkpt>
      <trkpt lat="42.70183" lon="1.31699">
        <ele>2098.1999511719</ele>
        <time>2023-07-24T13:32:13.000Z</time>
      </trkpt>
      <trkpt lat="42.70186" lon="1.31694">
        <ele>2098.3999023438</ele>
        <time>2023-07-24T13:32:21.000Z</time>
      </trkpt>
      <trkpt lat="42.70188" lon="1.31689">
        <ele>2098.6000976562</ele>
        <time>2023-07-24T13:32:27.000Z</time>
      </trkpt>
      <trkpt lat="42.70189" lon="1.31688">
        <ele>2098.8000488281</ele>
        <time>2023-07-24T13:32:30.000Z</time>
      </trkpt>
      <trkpt lat="42.70193" lon="1.31687">
        <ele>2099</ele>
        <time>2023-07-24T13:32:39.000Z</time>
      </trkpt>
      <trkpt lat="42.70193" lon="1.31684">
        <ele>2098.8000488281</ele>
        <time>2023-07-24T13:32:45.000Z</time>
      </trkpt>
      <trkpt lat="42.70193" lon="1.31678">
        <ele>2098.6000976562</ele>
        <time>2023-07-24T13:32:54.000Z</time>
      </trkpt>
      <trkpt lat="42.70195" lon="1.31677">
        <ele>2098.8000488281</ele>
        <time>2023-07-24T13:33:02.000Z</time>
      </trkpt>
      <trkpt lat="42.70201" lon="1.31678">
        <ele>2099.3999023438</ele>
        <time>2023-07-24T13:33:09.000Z</time>
      </trkpt>
      <trkpt lat="42.70201" lon="1.31679">
        <ele>2099.6000976562</ele>
        <time>2023-07-24T13:33:10.000Z</time>
      </trkpt>
      <trkpt lat="42.702" lon="1.31679">
        <ele>2100.1999511719</ele>
        <time>2023-07-24T13:33:17.000Z</time>
      </trkpt>
      <trkpt lat="42.702" lon="1.31682">
        <ele>2100.8000488281</ele>
        <time>2023-07-24T13:33:20.000Z</time>
      </trkpt>
      <trkpt lat="42.70201" lon="1.31685">
        <ele>2100.8000488281</ele>
        <time>2023-07-24T13:33:23.000Z</time>
      </trkpt>
      <trkpt lat="42.702" lon="1.31691">
        <ele>2101.1999511719</ele>
        <time>2023-07-24T13:33:31.000Z</time>
      </trkpt>
      <trkpt lat="42.702" lon="1.31692">
        <ele>2101.1999511719</ele>
        <time>2023-07-24T13:33:38.000Z</time>
      </trkpt>
      <trkpt lat="42.70199" lon="1.31687">
        <ele>2101.1999511719</ele>
        <time>2023-07-24T13:33:46.000Z</time>
      </trkpt>
      <trkpt lat="42.70198" lon="1.31689">
        <ele>2101</ele>
        <time>2023-07-24T13:33:53.000Z</time>
      </trkpt>
      <trkpt lat="42.702" lon="1.31691">
        <ele>2101.6000976562</ele>
        <time>2023-07-24T13:33:59.000Z</time>
      </trkpt>
      <trkpt lat="42.70201" lon="1.31693">
        <ele>2101.8000488281</ele>
        <time>2023-07-24T13:34:01.000Z</time>
      </trkpt>
      <trkpt lat="42.70206" lon="1.31695">
        <ele>2102.3999023438</ele>
        <time>2023-07-24T13:34:07.000Z</time>
      </trkpt>
      <trkpt lat="42.70206" lon="1.31693">
        <ele>2102.8000488281</ele>
        <time>2023-07-24T13:34:10.000Z</time>
      </trkpt>
      <trkpt lat="42.70207" lon="1.3169">
        <ele>2103.6000976562</ele>
        <time>2023-07-24T13:34:14.000Z</time>
      </trkpt>
      <trkpt lat="42.70207" lon="1.3169">
        <ele>2104</ele>
        <time>2023-07-24T13:34:15.000Z</time>
      </trkpt>
      <trkpt lat="42.70211" lon="1.31689">
        <ele>2104.3999023438</ele>
        <time>2023-07-24T13:34:20.000Z</time>
      </trkpt>
      <trkpt lat="42.70216" lon="1.31689">
        <ele>2104.8000488281</ele>
        <time>2023-07-24T13:34:27.000Z</time>
      </trkpt>
      <trkpt lat="42.70216" lon="1.31688">
        <ele>2105</ele>
        <time>2023-07-24T13:34:28.000Z</time>
      </trkpt>
      <trkpt lat="42.70217" lon="1.31683">
        <ele>2105.6000976562</ele>
        <time>2023-07-24T13:34:35.000Z</time>
      </trkpt>
      <trkpt lat="42.70218" lon="1.3168">
        <ele>2106</ele>
        <time>2023-07-24T13:34:38.000Z</time>
      </trkpt>
      <trkpt lat="42.70219" lon="1.31677">
        <ele>2106.1999511719</ele>
        <time>2023-07-24T13:34:43.000Z</time>
      </trkpt>
      <trkpt lat="42.70224" lon="1.31674">
        <ele>2107</ele>
        <time>2023-07-24T13:34:52.000Z</time>
      </trkpt>
      <trkpt lat="42.70224" lon="1.31673">
        <ele>2107</ele>
        <time>2023-07-24T13:34:53.000Z</time>
      </trkpt>
      <trkpt lat="42.70227" lon="1.31673">
        <ele>2107.6000976562</ele>
        <time>2023-07-24T13:35:00.000Z</time>
      </trkpt>
      <trkpt lat="42.7023" lon="1.31671">
        <ele>2108.1999511719</ele>
        <time>2023-07-24T13:35:03.000Z</time>
      </trkpt>
      <trkpt lat="42.70233" lon="1.31669">
        <ele>2109</ele>
        <time>2023-07-24T13:35:07.000Z</time>
      </trkpt>
      <trkpt lat="42.70236" lon="1.31668">
        <ele>2109.1999511719</ele>
        <time>2023-07-24T13:35:12.000Z</time>
      </trkpt>
      <trkpt lat="42.70237" lon="1.31668">
        <ele>2110.1999511719</ele>
        <time>2023-07-24T13:35:16.000Z</time>
      </trkpt>
      <trkpt lat="42.70237" lon="1.31668">
        <ele>2110.3999023438</ele>
        <time>2023-07-24T13:35:18.000Z</time>
      </trkpt>
      <trkpt lat="42.70238" lon="1.31666">
        <ele>2110.1999511719</ele>
        <time>2023-07-24T13:35:24.000Z</time>
      </trkpt>
      <trkpt lat="42.70237" lon="1.31665">
        <ele>2110.8000488281</ele>
        <time>2023-07-24T13:35:34.000Z</time>
      </trkpt>
      <trkpt lat="42.70239" lon="1.31665">
        <ele>2111.1999511719</ele>
        <time>2023-07-24T13:35:38.000Z</time>
      </trkpt>
      <trkpt lat="42.70243" lon="1.31665">
        <ele>2112</ele>
        <time>2023-07-24T13:35:44.000Z</time>
      </trkpt>
      <trkpt lat="42.70246" lon="1.31666">
        <ele>2112.1999511719</ele>
        <time>2023-07-24T13:35:49.000Z</time>
      </trkpt>
      <trkpt lat="42.70247" lon="1.31664">
        <ele>2113</ele>
        <time>2023-07-24T13:35:53.000Z</time>
      </trkpt>
      <trkpt lat="42.7025" lon="1.31659">
        <ele>2113.3999023438</ele>
        <time>2023-07-24T13:36:00.000Z</time>
      </trkpt>
      <trkpt lat="42.70253" lon="1.31655">
        <ele>2114</ele>
        <time>2023-07-24T13:36:04.000Z</time>
      </trkpt>
      <trkpt lat="42.70255" lon="1.31653">
        <ele>2114.3999023438</ele>
        <time>2023-07-24T13:36:09.000Z</time>
      </trkpt>
      <trkpt lat="42.70256" lon="1.3165">
        <ele>2115</ele>
        <time>2023-07-24T13:36:13.000Z</time>
      </trkpt>
      <trkpt lat="42.7026" lon="1.31645">
        <ele>2115.3999023438</ele>
        <time>2023-07-24T13:36:21.000Z</time>
      </trkpt>
      <trkpt lat="42.70265" lon="1.31641">
        <ele>2115</ele>
        <time>2023-07-24T13:36:32.000Z</time>
      </trkpt>
      <trkpt lat="42.70271" lon="1.31637">
        <ele>2115.1999511719</ele>
        <time>2023-07-24T13:36:41.000Z</time>
      </trkpt>
      <trkpt lat="42.70273" lon="1.31633">
        <ele>2115.3999023438</ele>
        <time>2023-07-24T13:36:46.000Z</time>
      </trkpt>
      <trkpt lat="42.70273" lon="1.31633">
        <ele>2115.3999023438</ele>
        <time>2023-07-24T13:36:47.000Z</time>
      </trkpt>
      <trkpt lat="42.70275" lon="1.31627">
        <ele>2115.8000488281</ele>
        <time>2023-07-24T13:36:55.000Z</time>
      </trkpt>
      <trkpt lat="42.70276" lon="1.31621">
        <ele>2115.8000488281</ele>
        <time>2023-07-24T13:37:03.000Z</time>
      </trkpt>
      <trkpt lat="42.70279" lon="1.31617">
        <ele>2116</ele>
        <time>2023-07-24T13:37:10.000Z</time>
      </trkpt>
      <trkpt lat="42.70281" lon="1.31609">
        <ele>2116</ele>
        <time>2023-07-24T13:37:19.000Z</time>
      </trkpt>
      <trkpt lat="42.70282" lon="1.31607">
        <ele>2116.3999023438</ele>
        <time>2023-07-24T13:37:21.000Z</time>
      </trkpt>
      <trkpt lat="42.70282" lon="1.31603">
        <ele>2117.3999023438</ele>
        <time>2023-07-24T13:37:26.000Z</time>
      </trkpt>
      <trkpt lat="42.70283" lon="1.31601">
        <ele>2117.6000976562</ele>
        <time>2023-07-24T13:37:30.000Z</time>
      </trkpt>
      <trkpt lat="42.70284" lon="1.31599">
        <ele>2117.6000976562</ele>
        <time>2023-07-24T13:37:33.000Z</time>
      </trkpt>
      <trkpt lat="42.70288" lon="1.31597">
        <ele>2118.3999023438</ele>
        <time>2023-07-24T13:37:40.000Z</time>
      </trkpt>
      <trkpt lat="42.70289" lon="1.31596">
        <ele>2118.6000976562</ele>
        <time>2023-07-24T13:37:41.000Z</time>
      </trkpt>
      <trkpt lat="42.70292" lon="1.31591">
        <ele>2119</ele>
        <time>2023-07-24T13:37:47.000Z</time>
      </trkpt>
      <trkpt lat="42.70293" lon="1.31586">
        <ele>2119.6000976562</ele>
        <time>2023-07-24T13:37:54.000Z</time>
      </trkpt>
      <trkpt lat="42.70294" lon="1.31583">
        <ele>2120</ele>
        <time>2023-07-24T13:38:01.000Z</time>
      </trkpt>
      <trkpt lat="42.70297" lon="1.31579">
        <ele>2120.6000976562</ele>
        <time>2023-07-24T13:38:08.000Z</time>
      </trkpt>
      <trkpt lat="42.70297" lon="1.31578">
        <ele>2121</ele>
        <time>2023-07-24T13:38:11.000Z</time>
      </trkpt>
      <trkpt lat="42.70303" lon="1.31576">
        <ele>2121.1999511719</ele>
        <time>2023-07-24T13:38:20.000Z</time>
      </trkpt>
      <trkpt lat="42.70306" lon="1.31572">
        <ele>2120</ele>
        <time>2023-07-24T13:38:28.000Z</time>
      </trkpt>
      <trkpt lat="42.70309" lon="1.31571">
        <ele>2119.8000488281</ele>
        <time>2023-07-24T13:38:34.000Z</time>
      </trkpt>
      <trkpt lat="42.70309" lon="1.31569">
        <ele>2119.6000976562</ele>
        <time>2023-07-24T13:38:38.000Z</time>
      </trkpt>
      <trkpt lat="42.70308" lon="1.31569">
        <ele>2119.3999023438</ele>
        <time>2023-07-24T13:38:44.000Z</time>
      </trkpt>
      <trkpt lat="42.70311" lon="1.31568">
        <ele>2119.3999023438</ele>
        <time>2023-07-24T13:38:52.000Z</time>
      </trkpt>
      <trkpt lat="42.70308" lon="1.31568">
        <ele>2118.6000976562</ele>
        <time>2023-07-24T13:38:58.000Z</time>
      </trkpt>
      <trkpt lat="42.70307" lon="1.31568">
        <ele>2118.6000976562</ele>
        <time>2023-07-24T13:39:02.000Z</time>
      </trkpt>
      <trkpt lat="42.70307" lon="1.31569">
        <ele>2119.3999023438</ele>
        <time>2023-07-24T13:39:13.000Z</time>
      </trkpt>
      <trkpt lat="42.70308" lon="1.3157">
        <ele>2119.6000976562</ele>
        <time>2023-07-24T13:39:17.000Z</time>
      </trkpt>
      <trkpt lat="42.70307" lon="1.31571">
        <ele>2119.8000488281</ele>
        <time>2023-07-24T13:39:20.000Z</time>
      </trkpt>
      <trkpt lat="42.70308" lon="1.31569">
        <ele>2120.1999511719</ele>
        <time>2023-07-24T13:39:28.000Z</time>
      </trkpt>
      <trkpt lat="42.70305" lon="1.31569">
        <ele>2120</ele>
        <time>2023-07-24T13:39:36.000Z</time>
      </trkpt>
      <trkpt lat="42.70305" lon="1.31569">
        <ele>2120.1999511719</ele>
        <time>2023-07-24T13:39:44.000Z</time>
      </trkpt>
      <trkpt lat="42.70308" lon="1.3157">
        <ele>2120.3999023438</ele>
        <time>2023-07-24T13:39:53.000Z</time>
      </trkpt>
      <trkpt lat="42.70308" lon="1.31567">
        <ele>2120.6000976562</ele>
        <time>2023-07-24T13:39:56.000Z</time>
      </trkpt>
      <trkpt lat="42.70308" lon="1.31564">
        <ele>2121</ele>
        <time>2023-07-24T13:39:59.000Z</time>
      </trkpt>
      <trkpt lat="42.70306" lon="1.31559">
        <ele>2121.8000488281</ele>
        <time>2023-07-24T13:40:06.000Z</time>
      </trkpt>
      <trkpt lat="42.70306" lon="1.31558">
        <ele>2122</ele>
        <time>2023-07-24T13:40:07.000Z</time>
      </trkpt>
      <trkpt lat="42.70306" lon="1.31557">
        <ele>2122.1999511719</ele>
        <time>2023-07-24T13:40:15.000Z</time>
      </trkpt>
      <trkpt lat="42.70308" lon="1.3156">
        <ele>2121.3999023438</ele>
        <time>2023-07-24T13:40:23.000Z</time>
      </trkpt>
      <trkpt lat="42.70309" lon="1.3156">
        <ele>2121.3999023438</ele>
        <time>2023-07-24T13:40:31.000Z</time>
      </trkpt>
      <trkpt lat="42.70311" lon="1.31559">
        <ele>2121.8000488281</ele>
        <time>2023-07-24T13:40:41.000Z</time>
      </trkpt>
      <trkpt lat="42.70314" lon="1.31555">
        <ele>2122.8000488281</ele>
        <time>2023-07-24T13:40:49.000Z</time>
      </trkpt>
      <trkpt lat="42.70314" lon="1.31554">
        <ele>2123</ele>
        <time>2023-07-24T13:40:50.000Z</time>
      </trkpt>
      <trkpt lat="42.70315" lon="1.3155">
        <ele>2124</ele>
        <time>2023-07-24T13:40:54.000Z</time>
      </trkpt>
      <trkpt lat="42.70315" lon="1.31546">
        <ele>2124.8000488281</ele>
        <time>2023-07-24T13:40:58.000Z</time>
      </trkpt>
      <trkpt lat="42.70317" lon="1.3154">
        <ele>2125</ele>
        <time>2023-07-24T13:41:05.000Z</time>
      </trkpt>
      <trkpt lat="42.70318" lon="1.31539">
        <ele>2125.1999511719</ele>
        <time>2023-07-24T13:41:06.000Z</time>
      </trkpt>
      <trkpt lat="42.7032" lon="1.31538">
        <ele>2126.1999511719</ele>
        <time>2023-07-24T13:41:11.000Z</time>
      </trkpt>
      <trkpt lat="42.70321" lon="1.31537">
        <ele>2126.6000976562</ele>
        <time>2023-07-24T13:41:14.000Z</time>
      </trkpt>
      <trkpt lat="42.70322" lon="1.31532">
        <ele>2126.8000488281</ele>
        <time>2023-07-24T13:41:21.000Z</time>
      </trkpt>
      <trkpt lat="42.70325" lon="1.31528">
        <ele>2127</ele>
        <time>2023-07-24T13:41:27.000Z</time>
      </trkpt>
      <trkpt lat="42.70326" lon="1.31527">
        <ele>2127.6000976562</ele>
        <time>2023-07-24T13:41:30.000Z</time>
      </trkpt>
      <trkpt lat="42.70328" lon="1.31527">
        <ele>2127.8000488281</ele>
        <time>2023-07-24T13:41:35.000Z</time>
      </trkpt>
      <trkpt lat="42.70325" lon="1.31523">
        <ele>2127.3999023438</ele>
        <time>2023-07-24T13:41:42.000Z</time>
      </trkpt>
      <trkpt lat="42.70321" lon="1.31515">
        <ele>2127.6000976562</ele>
        <time>2023-07-24T13:41:49.000Z</time>
      </trkpt>
      <trkpt lat="42.70323" lon="1.31512">
        <ele>2128.6000976562</ele>
        <time>2023-07-24T13:41:54.000Z</time>
      </trkpt>
      <trkpt lat="42.70324" lon="1.31511">
        <ele>2129</ele>
        <time>2023-07-24T13:41:57.000Z</time>
      </trkpt>
      <trkpt lat="42.70325" lon="1.31509">
        <ele>2129.6000976562</ele>
        <time>2023-07-24T13:42:01.000Z</time>
      </trkpt>
      <trkpt lat="42.70327" lon="1.31506">
        <ele>2130</ele>
        <time>2023-07-24T13:42:05.000Z</time>
      </trkpt>
      <trkpt lat="42.70327" lon="1.31503">
        <ele>2131</ele>
        <time>2023-07-24T13:42:08.000Z</time>
      </trkpt>
      <trkpt lat="42.70329" lon="1.31502">
        <ele>2132</ele>
        <time>2023-07-24T13:42:14.000Z</time>
      </trkpt>
      <trkpt lat="42.70329" lon="1.31502">
        <ele>2132</ele>
        <time>2023-07-24T13:42:15.000Z</time>
      </trkpt>
      <trkpt lat="42.70331" lon="1.31498">
        <ele>2133</ele>
        <time>2023-07-24T13:42:22.000Z</time>
      </trkpt>
      <trkpt lat="42.70331" lon="1.31492">
        <ele>2133</ele>
        <time>2023-07-24T13:42:27.000Z</time>
      </trkpt>
      <trkpt lat="42.70332" lon="1.3149">
        <ele>2133.1999511719</ele>
        <time>2023-07-24T13:42:28.000Z</time>
      </trkpt>
      <trkpt lat="42.70333" lon="1.31488">
        <ele>2134</ele>
        <time>2023-07-24T13:42:34.000Z</time>
      </trkpt>
      <trkpt lat="42.70335" lon="1.31485">
        <ele>2134.3999023438</ele>
        <time>2023-07-24T13:42:37.000Z</time>
      </trkpt>
      <trkpt lat="42.70336" lon="1.31483">
        <ele>2135.6000976562</ele>
        <time>2023-07-24T13:42:40.000Z</time>
      </trkpt>
      <trkpt lat="42.70336" lon="1.31483">
        <ele>2135.8000488281</ele>
        <time>2023-07-24T13:42:42.000Z</time>
      </trkpt>
      <trkpt lat="42.70337" lon="1.31478">
        <ele>2135.3999023438</ele>
        <time>2023-07-24T13:42:49.000Z</time>
      </trkpt>
      <trkpt lat="42.70338" lon="1.31469">
        <ele>2135.1999511719</ele>
        <time>2023-07-24T13:42:57.000Z</time>
      </trkpt>
      <trkpt lat="42.70339" lon="1.31468">
        <ele>2136.8000488281</ele>
        <time>2023-07-24T13:43:03.000Z</time>
      </trkpt>
      <trkpt lat="42.7034" lon="1.31467">
        <ele>2137.1999511719</ele>
        <time>2023-07-24T13:43:05.000Z</time>
      </trkpt>
      <trkpt lat="42.70343" lon="1.31466">
        <ele>2137.6000976562</ele>
        <time>2023-07-24T13:43:12.000Z</time>
      </trkpt>
      <trkpt lat="42.70344" lon="1.31465">
        <ele>2137.8000488281</ele>
        <time>2023-07-24T13:43:13.000Z</time>
      </trkpt>
      <trkpt lat="42.70345" lon="1.31464">
        <ele>2138.8000488281</ele>
        <time>2023-07-24T13:43:19.000Z</time>
      </trkpt>
      <trkpt lat="42.70345" lon="1.31465">
        <ele>2138.8000488281</ele>
        <time>2023-07-24T13:43:22.000Z</time>
      </trkpt>
      <trkpt lat="42.70343" lon="1.31466">
        <ele>2139</ele>
        <time>2023-07-24T13:43:27.000Z</time>
      </trkpt>
      <trkpt lat="42.70344" lon="1.31464">
        <ele>2139.6000976562</ele>
        <time>2023-07-24T13:43:36.000Z</time>
      </trkpt>
      <trkpt lat="42.70343" lon="1.31464">
        <ele>2140.1999511719</ele>
        <time>2023-07-24T13:43:37.000Z</time>
      </trkpt>
      <trkpt lat="42.70344" lon="1.3146">
        <ele>2139.3999023438</ele>
        <time>2023-07-24T13:43:44.000Z</time>
      </trkpt>
      <trkpt lat="42.70344" lon="1.31459">
        <ele>2138.8000488281</ele>
        <time>2023-07-24T13:43:45.000Z</time>
      </trkpt>
      <trkpt lat="42.70345" lon="1.31455">
        <ele>2139.8000488281</ele>
        <time>2023-07-24T13:43:51.000Z</time>
      </trkpt>
      <trkpt lat="42.70348" lon="1.3145">
        <ele>2139.8000488281</ele>
        <time>2023-07-24T13:44:01.000Z</time>
      </trkpt>
      <trkpt lat="42.7035" lon="1.31444">
        <ele>2139.6000976562</ele>
        <time>2023-07-24T13:44:08.000Z</time>
      </trkpt>
      <trkpt lat="42.70351" lon="1.31441">
        <ele>2140.3999023438</ele>
        <time>2023-07-24T13:44:14.000Z</time>
      </trkpt>
      <trkpt lat="42.70352" lon="1.3144">
        <ele>2141</ele>
        <time>2023-07-24T13:44:19.000Z</time>
      </trkpt>
      <trkpt lat="42.70352" lon="1.31439">
        <ele>2141.1999511719</ele>
        <time>2023-07-24T13:44:22.000Z</time>
      </trkpt>
      <trkpt lat="42.70352" lon="1.31439">
        <ele>2142.1999511719</ele>
        <time>2023-07-24T13:44:26.000Z</time>
      </trkpt>
      <trkpt lat="42.70351" lon="1.31435">
        <ele>2142.6000976562</ele>
        <time>2023-07-24T13:44:30.000Z</time>
      </trkpt>
      <trkpt lat="42.70352" lon="1.31431">
        <ele>2143.1999511719</ele>
        <time>2023-07-24T13:44:35.000Z</time>
      </trkpt>
      <trkpt lat="42.70352" lon="1.31429">
        <ele>2143.1999511719</ele>
        <time>2023-07-24T13:44:37.000Z</time>
      </trkpt>
      <trkpt lat="42.70353" lon="1.31427">
        <ele>2143.3999023438</ele>
        <time>2023-07-24T13:44:43.000Z</time>
      </trkpt>
      <trkpt lat="42.70355" lon="1.31426">
        <ele>2144.1999511719</ele>
        <time>2023-07-24T13:44:48.000Z</time>
      </trkpt>
      <trkpt lat="42.70356" lon="1.31426">
        <ele>2144.6000976562</ele>
        <time>2023-07-24T13:44:50.000Z</time>
      </trkpt>
      <trkpt lat="42.70357" lon="1.31425">
        <ele>2145.1999511719</ele>
        <time>2023-07-24T13:44:54.000Z</time>
      </trkpt>
      <trkpt lat="42.70358" lon="1.31426">
        <ele>2145.3999023438</ele>
        <time>2023-07-24T13:44:56.000Z</time>
      </trkpt>
      <trkpt lat="42.70358" lon="1.31424">
        <ele>2146</ele>
        <time>2023-07-24T13:44:58.000Z</time>
      </trkpt>
      <trkpt lat="42.70359" lon="1.31423">
        <ele>2146.1999511719</ele>
        <time>2023-07-24T13:45:00.000Z</time>
      </trkpt>
      <trkpt lat="42.7036" lon="1.31419">
        <ele>2146.8000488281</ele>
        <time>2023-07-24T13:45:07.000Z</time>
      </trkpt>
      <trkpt lat="42.70362" lon="1.31418">
        <ele>2147.3999023438</ele>
        <time>2023-07-24T13:45:12.000Z</time>
      </trkpt>
      <trkpt lat="42.70362" lon="1.31419">
        <ele>2147.8000488281</ele>
        <time>2023-07-24T13:45:16.000Z</time>
      </trkpt>
      <trkpt lat="42.70362" lon="1.31418">
        <ele>2148.6000976562</ele>
        <time>2023-07-24T13:45:18.000Z</time>
      </trkpt>
      <trkpt lat="42.70364" lon="1.31415">
        <ele>2149.6000976562</ele>
        <time>2023-07-24T13:45:23.000Z</time>
      </trkpt>
      <trkpt lat="42.70365" lon="1.31409">
        <ele>2149.3999023438</ele>
        <time>2023-07-24T13:45:30.000Z</time>
      </trkpt>
      <trkpt lat="42.70366" lon="1.31406">
        <ele>2149.6000976562</ele>
        <time>2023-07-24T13:45:33.000Z</time>
      </trkpt>
      <trkpt lat="42.70366" lon="1.31401">
        <ele>2149.8000488281</ele>
        <time>2023-07-24T13:45:36.000Z</time>
      </trkpt>
      <trkpt lat="42.70367" lon="1.31397">
        <ele>2150.1999511719</ele>
        <time>2023-07-24T13:45:43.000Z</time>
      </trkpt>
      <trkpt lat="42.7037" lon="1.31394">
        <ele>2150.1999511719</ele>
        <time>2023-07-24T13:45:50.000Z</time>
      </trkpt>
      <trkpt lat="42.70373" lon="1.31395">
        <ele>2150.8000488281</ele>
        <time>2023-07-24T13:45:56.000Z</time>
      </trkpt>
      <trkpt lat="42.70374" lon="1.31395">
        <ele>2151.3999023438</ele>
        <time>2023-07-24T13:45:59.000Z</time>
      </trkpt>
      <trkpt lat="42.70374" lon="1.31394">
        <ele>2152</ele>
        <time>2023-07-24T13:46:01.000Z</time>
      </trkpt>
      <trkpt lat="42.70374" lon="1.31391">
        <ele>2152.3999023438</ele>
        <time>2023-07-24T13:46:06.000Z</time>
      </trkpt>
      <trkpt lat="42.70376" lon="1.31392">
        <ele>2152.1999511719</ele>
        <time>2023-07-24T13:46:15.000Z</time>
      </trkpt>
      <trkpt lat="42.70374" lon="1.3139">
        <ele>2152.1999511719</ele>
        <time>2023-07-24T13:46:24.000Z</time>
      </trkpt>
      <trkpt lat="42.70374" lon="1.31392">
        <ele>2152.1999511719</ele>
        <time>2023-07-24T13:46:31.000Z</time>
      </trkpt>
      <trkpt lat="42.70375" lon="1.31389">
        <ele>2152</ele>
        <time>2023-07-24T13:46:41.000Z</time>
      </trkpt>
      <trkpt lat="42.70376" lon="1.31387">
        <ele>2152</ele>
        <time>2023-07-24T13:46:47.000Z</time>
      </trkpt>
      <trkpt lat="42.70377" lon="1.31384">
        <ele>2152.8000488281</ele>
        <time>2023-07-24T13:46:55.000Z</time>
      </trkpt>
      <trkpt lat="42.7038" lon="1.31378">
        <ele>2153.1999511719</ele>
        <time>2023-07-24T13:47:03.000Z</time>
      </trkpt>
      <trkpt lat="42.70381" lon="1.31377">
        <ele>2154.1999511719</ele>
        <time>2023-07-24T13:47:09.000Z</time>
      </trkpt>
      <trkpt lat="42.70382" lon="1.31376">
        <ele>2154.1999511719</ele>
        <time>2023-07-24T13:47:11.000Z</time>
      </trkpt>
      <trkpt lat="42.70382" lon="1.31376">
        <ele>2155</ele>
        <time>2023-07-24T13:47:17.000Z</time>
      </trkpt>
      <trkpt lat="42.70382" lon="1.31376">
        <ele>2155.3999023438</ele>
        <time>2023-07-24T13:47:19.000Z</time>
      </trkpt>
      <trkpt lat="42.70385" lon="1.31375">
        <ele>2156.3999023438</ele>
        <time>2023-07-24T13:47:25.000Z</time>
      </trkpt>
      <trkpt lat="42.70385" lon="1.31375">
        <ele>2156.6000976562</ele>
        <time>2023-07-24T13:47:26.000Z</time>
      </trkpt>
      <trkpt lat="42.70385" lon="1.31376">
        <ele>2156.8000488281</ele>
        <time>2023-07-24T13:47:33.000Z</time>
      </trkpt>
      <trkpt lat="42.70387" lon="1.31372">
        <ele>2157.6000976562</ele>
        <time>2023-07-24T13:47:39.000Z</time>
      </trkpt>
      <trkpt lat="42.70387" lon="1.31372">
        <ele>2157.8000488281</ele>
        <time>2023-07-24T13:47:41.000Z</time>
      </trkpt>
      <trkpt lat="42.70385" lon="1.31367">
        <ele>2158.6000976562</ele>
        <time>2023-07-24T13:47:48.000Z</time>
      </trkpt>
      <trkpt lat="42.70384" lon="1.31366">
        <ele>2158.8000488281</ele>
        <time>2023-07-24T13:47:49.000Z</time>
      </trkpt>
      <trkpt lat="42.70384" lon="1.31364">
        <ele>2159.1999511719</ele>
        <time>2023-07-24T13:47:55.000Z</time>
      </trkpt>
      <trkpt lat="42.70386" lon="1.31362">
        <ele>2159.3999023438</ele>
        <time>2023-07-24T13:48:00.000Z</time>
      </trkpt>
      <trkpt lat="42.70382" lon="1.31357">
        <ele>2160</ele>
        <time>2023-07-24T13:48:08.000Z</time>
      </trkpt>
      <trkpt lat="42.70379" lon="1.31355">
        <ele>2160.8000488281</ele>
        <time>2023-07-24T13:48:15.000Z</time>
      </trkpt>
      <trkpt lat="42.70379" lon="1.31355">
        <ele>2161</ele>
        <time>2023-07-24T13:48:16.000Z</time>
      </trkpt>
      <trkpt lat="42.70382" lon="1.31355">
        <ele>2162</ele>
        <time>2023-07-24T13:48:23.000Z</time>
      </trkpt>
      <trkpt lat="42.70382" lon="1.31354">
        <ele>2162</ele>
        <time>2023-07-24T13:48:24.000Z</time>
      </trkpt>
      <trkpt lat="42.70383" lon="1.31353">
        <ele>2162.3999023438</ele>
        <time>2023-07-24T13:48:26.000Z</time>
      </trkpt>
      <trkpt lat="42.70385" lon="1.31352">
        <ele>2162.8000488281</ele>
        <time>2023-07-24T13:48:29.000Z</time>
      </trkpt>
      <trkpt lat="42.70385" lon="1.3135">
        <ele>2163.1999511719</ele>
        <time>2023-07-24T13:48:36.000Z</time>
      </trkpt>
      <trkpt lat="42.70385" lon="1.3135">
        <ele>2163.6000976562</ele>
        <time>2023-07-24T13:48:46.000Z</time>
      </trkpt>
      <trkpt lat="42.70388" lon="1.31348">
        <ele>2164.1999511719</ele>
        <time>2023-07-24T13:48:54.000Z</time>
      </trkpt>
      <trkpt lat="42.70389" lon="1.31349">
        <ele>2164.3999023438</ele>
        <time>2023-07-24T13:48:57.000Z</time>
      </trkpt>
      <trkpt lat="42.7039" lon="1.31348">
        <ele>2164.1999511719</ele>
        <time>2023-07-24T13:49:05.000Z</time>
      </trkpt>
      <trkpt lat="42.7039" lon="1.31351">
        <ele>2163.8000488281</ele>
        <time>2023-07-24T13:49:11.000Z</time>
      </trkpt>
      <trkpt lat="42.70388" lon="1.31348">
        <ele>2163.8000488281</ele>
        <time>2023-07-24T13:49:19.000Z</time>
      </trkpt>
      <trkpt lat="42.70387" lon="1.31349">
        <ele>2163.6000976562</ele>
        <time>2023-07-24T13:49:28.000Z</time>
      </trkpt>
      <trkpt lat="42.70387" lon="1.31346">
        <ele>2163.6000976562</ele>
        <time>2023-07-24T13:49:34.000Z</time>
      </trkpt>
      <trkpt lat="42.70387" lon="1.31342">
        <ele>2163.6000976562</ele>
        <time>2023-07-24T13:49:40.000Z</time>
      </trkpt>
      <trkpt lat="42.70388" lon="1.31338">
        <ele>2164.1999511719</ele>
        <time>2023-07-24T13:49:48.000Z</time>
      </trkpt>
      <trkpt lat="42.70387" lon="1.31337">
        <ele>2165</ele>
        <time>2023-07-24T13:49:55.000Z</time>
      </trkpt>
      <trkpt lat="42.70386" lon="1.31329">
        <ele>2165.1999511719</ele>
        <time>2023-07-24T13:50:04.000Z</time>
      </trkpt>
      <trkpt lat="42.70385" lon="1.31325">
        <ele>2165.8000488281</ele>
        <time>2023-07-24T13:50:11.000Z</time>
      </trkpt>
      <trkpt lat="42.70385" lon="1.31322">
        <ele>2166.1999511719</ele>
        <time>2023-07-24T13:50:14.000Z</time>
      </trkpt>
      <trkpt lat="42.70384" lon="1.31318">
        <ele>2166.6000976562</ele>
        <time>2023-07-24T13:50:19.000Z</time>
      </trkpt>
      <trkpt lat="42.70384" lon="1.31319">
        <ele>2167.3999023438</ele>
        <time>2023-07-24T13:50:24.000Z</time>
      </trkpt>
      <trkpt lat="42.70385" lon="1.31318">
        <ele>2167.6000976562</ele>
        <time>2023-07-24T13:50:25.000Z</time>
      </trkpt>
      <trkpt lat="42.70383" lon="1.31314">
        <ele>2168.6000976562</ele>
        <time>2023-07-24T13:50:31.000Z</time>
      </trkpt>
      <trkpt lat="42.70382" lon="1.31314">
        <ele>2168.8000488281</ele>
        <time>2023-07-24T13:50:33.000Z</time>
      </trkpt>
      <trkpt lat="42.70377" lon="1.3131">
        <ele>2168.6000976562</ele>
        <time>2023-07-24T13:50:39.000Z</time>
      </trkpt>
      <trkpt lat="42.70374" lon="1.31302">
        <ele>2167.6000976562</ele>
        <time>2023-07-24T13:50:46.000Z</time>
      </trkpt>
      <trkpt lat="42.70374" lon="1.31302">
        <ele>2167.3999023438</ele>
        <time>2023-07-24T13:50:47.000Z</time>
      </trkpt>
      <trkpt lat="42.70374" lon="1.31302">
        <ele>2167.1999511719</ele>
        <time>2023-07-24T13:50:56.000Z</time>
      </trkpt>
      <trkpt lat="42.70377" lon="1.31304">
        <ele>2167</ele>
        <time>2023-07-24T13:51:04.000Z</time>
      </trkpt>
      <trkpt lat="42.70381" lon="1.31307">
        <ele>2166.3999023438</ele>
        <time>2023-07-24T13:51:12.000Z</time>
      </trkpt>
      <trkpt lat="42.70381" lon="1.31307">
        <ele>2166.3999023438</ele>
        <time>2023-07-24T13:51:13.000Z</time>
      </trkpt>
      <trkpt lat="42.7038" lon="1.31301">
        <ele>2165.6000976562</ele>
        <time>2023-07-24T13:51:20.000Z</time>
      </trkpt>
      <trkpt lat="42.7038" lon="1.313">
        <ele>2165.3999023438</ele>
        <time>2023-07-24T13:51:21.000Z</time>
      </trkpt>
      <trkpt lat="42.70379" lon="1.31293">
        <ele>2166</ele>
        <time>2023-07-24T13:51:28.000Z</time>
      </trkpt>
      <trkpt lat="42.70378" lon="1.31289">
        <ele>2166.3999023438</ele>
        <time>2023-07-24T13:51:32.000Z</time>
      </trkpt>
      <trkpt lat="42.70378" lon="1.31288">
        <ele>2167.3999023438</ele>
        <time>2023-07-24T13:51:35.000Z</time>
      </trkpt>
      <trkpt lat="42.70378" lon="1.31288">
        <ele>2167.6000976562</ele>
        <time>2023-07-24T13:51:36.000Z</time>
      </trkpt>
      <trkpt lat="42.70375" lon="1.31284">
        <ele>2168.8000488281</ele>
        <time>2023-07-24T13:51:43.000Z</time>
      </trkpt>
      <trkpt lat="42.70375" lon="1.31284">
        <ele>2169</ele>
        <time>2023-07-24T13:51:44.000Z</time>
      </trkpt>
      <trkpt lat="42.70374" lon="1.31286">
        <ele>2169.6000976562</ele>
        <time>2023-07-24T13:51:46.000Z</time>
      </trkpt>
      <trkpt lat="42.70371" lon="1.31286">
        <ele>2169.6000976562</ele>
        <time>2023-07-24T13:51:50.000Z</time>
      </trkpt>
      <trkpt lat="42.70372" lon="1.31284">
        <ele>2170</ele>
        <time>2023-07-24T13:51:56.000Z</time>
      </trkpt>
      <trkpt lat="42.70372" lon="1.31283">
        <ele>2170</ele>
        <time>2023-07-24T13:51:57.000Z</time>
      </trkpt>
      <trkpt lat="42.70373" lon="1.3128">
        <ele>2171.1999511719</ele>
        <time>2023-07-24T13:52:02.000Z</time>
      </trkpt>
      <trkpt lat="42.70373" lon="1.31279">
        <ele>2171.6000976562</ele>
        <time>2023-07-24T13:52:04.000Z</time>
      </trkpt>
      <trkpt lat="42.70373" lon="1.31278">
        <ele>2172.1999511719</ele>
        <time>2023-07-24T13:52:06.000Z</time>
      </trkpt>
      <trkpt lat="42.70373" lon="1.31278">
        <ele>2173</ele>
        <time>2023-07-24T13:52:11.000Z</time>
      </trkpt>
      <trkpt lat="42.70374" lon="1.31273">
        <ele>2173.1999511719</ele>
        <time>2023-07-24T13:52:21.000Z</time>
      </trkpt>
      <trkpt lat="42.70373" lon="1.31275">
        <ele>2173.1999511719</ele>
        <time>2023-07-24T13:52:28.000Z</time>
      </trkpt>
      <trkpt lat="42.7037" lon="1.31276">
        <ele>2173.3999023438</ele>
        <time>2023-07-24T13:52:39.000Z</time>
      </trkpt>
      <trkpt lat="42.7037" lon="1.31279">
        <ele>2173.6000976562</ele>
        <time>2023-07-24T13:52:46.000Z</time>
      </trkpt>
      <trkpt lat="42.7037" lon="1.31277">
        <ele>2174.1999511719</ele>
        <time>2023-07-24T13:52:51.000Z</time>
      </trkpt>
      <trkpt lat="42.7037" lon="1.31276">
        <ele>2174.6000976562</ele>
        <time>2023-07-24T13:52:53.000Z</time>
      </trkpt>
      <trkpt lat="42.7037" lon="1.31273">
        <ele>2175.1999511719</ele>
        <time>2023-07-24T13:52:55.000Z</time>
      </trkpt>
      <trkpt lat="42.70368" lon="1.31271">
        <ele>2176.3999023438</ele>
        <time>2023-07-24T13:52:59.000Z</time>
      </trkpt>
      <trkpt lat="42.70368" lon="1.3127">
        <ele>2176.3999023438</ele>
        <time>2023-07-24T13:53:00.000Z</time>
      </trkpt>
      <trkpt lat="42.70365" lon="1.31269">
        <ele>2176.1999511719</ele>
        <time>2023-07-24T13:53:09.000Z</time>
      </trkpt>
      <trkpt lat="42.70367" lon="1.31268">
        <ele>2176.6000976562</ele>
        <time>2023-07-24T13:53:15.000Z</time>
      </trkpt>
      <trkpt lat="42.70366" lon="1.31263">
        <ele>2177</ele>
        <time>2023-07-24T13:53:23.000Z</time>
      </trkpt>
      <trkpt lat="42.70363" lon="1.31267">
        <ele>2177.3999023438</ele>
        <time>2023-07-24T13:53:30.000Z</time>
      </trkpt>
      <trkpt lat="42.70365" lon="1.31268">
        <ele>2177.8000488281</ele>
        <time>2023-07-24T13:53:37.000Z</time>
      </trkpt>
      <trkpt lat="42.70366" lon="1.31267">
        <ele>2178.1999511719</ele>
        <time>2023-07-24T13:53:44.000Z</time>
      </trkpt>
      <trkpt lat="42.70367" lon="1.31265">
        <ele>2178</ele>
        <time>2023-07-24T13:53:50.000Z</time>
      </trkpt>
      <trkpt lat="42.70369" lon="1.31266">
        <ele>2177.8000488281</ele>
        <time>2023-07-24T13:53:58.000Z</time>
      </trkpt>
      <trkpt lat="42.70367" lon="1.31267">
        <ele>2177.6000976562</ele>
        <time>2023-07-24T13:54:06.000Z</time>
      </trkpt>
      <trkpt lat="42.70365" lon="1.31268">
        <ele>2177.3999023438</ele>
        <time>2023-07-24T13:54:16.000Z</time>
      </trkpt>
      <trkpt lat="42.70368" lon="1.31263">
        <ele>2178.6000976562</ele>
        <time>2023-07-24T13:54:23.000Z</time>
      </trkpt>
      <trkpt lat="42.70368" lon="1.31263">
        <ele>2178.8000488281</ele>
        <time>2023-07-24T13:54:24.000Z</time>
      </trkpt>
      <trkpt lat="42.70368" lon="1.31263">
        <ele>2179.6000976562</ele>
        <time>2023-07-24T13:54:30.000Z</time>
      </trkpt>
      <trkpt lat="42.70367" lon="1.31263">
        <ele>2180</ele>
        <time>2023-07-24T13:54:32.000Z</time>
      </trkpt>
      <trkpt lat="42.70367" lon="1.3126">
        <ele>2181</ele>
        <time>2023-07-24T13:54:37.000Z</time>
      </trkpt>
      <trkpt lat="42.70366" lon="1.31257">
        <ele>2182</ele>
        <time>2023-07-24T13:54:43.000Z</time>
      </trkpt>
      <trkpt lat="42.70365" lon="1.31255">
        <ele>2182.6000976562</ele>
        <time>2023-07-24T13:54:46.000Z</time>
      </trkpt>
      <trkpt lat="42.70365" lon="1.31253">
        <ele>2183.1999511719</ele>
        <time>2023-07-24T13:54:48.000Z</time>
      </trkpt>
      <trkpt lat="42.70366" lon="1.31253">
        <ele>2183.6000976562</ele>
        <time>2023-07-24T13:54:52.000Z</time>
      </trkpt>
      <trkpt lat="42.70367" lon="1.31254">
        <ele>2184.1999511719</ele>
        <time>2023-07-24T13:54:56.000Z</time>
      </trkpt>
      <trkpt lat="42.70371" lon="1.31255">
        <ele>2184.1999511719</ele>
        <time>2023-07-24T13:55:00.000Z</time>
      </trkpt>
      <trkpt lat="42.70372" lon="1.31253">
        <ele>2185.1999511719</ele>
        <time>2023-07-24T13:55:03.000Z</time>
      </trkpt>
      <trkpt lat="42.70373" lon="1.31251">
        <ele>2186.3999023438</ele>
        <time>2023-07-24T13:55:06.000Z</time>
      </trkpt>
      <trkpt lat="42.70374" lon="1.31251">
        <ele>2186.6000976562</ele>
        <time>2023-07-24T13:55:08.000Z</time>
      </trkpt>
      <trkpt lat="42.70374" lon="1.31251">
        <ele>2187.3999023438</ele>
        <time>2023-07-24T13:55:12.000Z</time>
      </trkpt>
      <trkpt lat="42.70376" lon="1.31251">
        <ele>2187.6000976562</ele>
        <time>2023-07-24T13:55:16.000Z</time>
      </trkpt>
      <trkpt lat="42.70377" lon="1.31248">
        <ele>2187.8000488281</ele>
        <time>2023-07-24T13:55:22.000Z</time>
      </trkpt>
      <trkpt lat="42.70378" lon="1.31249">
        <ele>2187.1999511719</ele>
        <time>2023-07-24T13:55:31.000Z</time>
      </trkpt>
      <trkpt lat="42.7038" lon="1.31245">
        <ele>2186.6000976562</ele>
        <time>2023-07-24T13:55:40.000Z</time>
      </trkpt>
      <trkpt lat="42.70381" lon="1.3124">
        <ele>2187.3999023438</ele>
        <time>2023-07-24T13:55:47.000Z</time>
      </trkpt>
      <trkpt lat="42.70381" lon="1.31238">
        <ele>2188.3999023438</ele>
        <time>2023-07-24T13:55:51.000Z</time>
      </trkpt>
      <trkpt lat="42.70381" lon="1.31238">
        <ele>2188.6000976562</ele>
        <time>2023-07-24T13:55:54.000Z</time>
      </trkpt>
      <trkpt lat="42.70376" lon="1.31233">
        <ele>2189.6000976562</ele>
        <time>2023-07-24T13:56:01.000Z</time>
      </trkpt>
      <trkpt lat="42.70379" lon="1.31231">
        <ele>2190.6000976562</ele>
        <time>2023-07-24T13:56:06.000Z</time>
      </trkpt>
      <trkpt lat="42.7038" lon="1.31229">
        <ele>2191.3999023438</ele>
        <time>2023-07-24T13:56:09.000Z</time>
      </trkpt>
      <trkpt lat="42.7038" lon="1.31228">
        <ele>2191.8000488281</ele>
        <time>2023-07-24T13:56:11.000Z</time>
      </trkpt>
      <trkpt lat="42.70379" lon="1.31227">
        <ele>2192.8000488281</ele>
        <time>2023-07-24T13:56:16.000Z</time>
      </trkpt>
      <trkpt lat="42.70379" lon="1.31225">
        <ele>2193</ele>
        <time>2023-07-24T13:56:19.000Z</time>
      </trkpt>
      <trkpt lat="42.70379" lon="1.31217">
        <ele>2193.3999023438</ele>
        <time>2023-07-24T13:56:29.000Z</time>
      </trkpt>
      <trkpt lat="42.7038" lon="1.31213">
        <ele>2193.8000488281</ele>
        <time>2023-07-24T13:56:35.000Z</time>
      </trkpt>
      <trkpt lat="42.7038" lon="1.31211">
        <ele>2193.8000488281</ele>
        <time>2023-07-24T13:56:36.000Z</time>
      </trkpt>
      <trkpt lat="42.70379" lon="1.31202">
        <ele>2195</ele>
        <time>2023-07-24T13:56:42.000Z</time>
      </trkpt>
      <trkpt lat="42.70379" lon="1.31195">
        <ele>2195.8000488281</ele>
        <time>2023-07-24T13:56:49.000Z</time>
      </trkpt>
      <trkpt lat="42.7038" lon="1.31188">
        <ele>2196</ele>
        <time>2023-07-24T13:56:55.000Z</time>
      </trkpt>
      <trkpt lat="42.7038" lon="1.31187">
        <ele>2196</ele>
        <time>2023-07-24T13:56:56.000Z</time>
      </trkpt>
      <trkpt lat="42.70379" lon="1.3118">
        <ele>2197</ele>
        <time>2023-07-24T13:57:02.000Z</time>
      </trkpt>
      <trkpt lat="42.7038" lon="1.31179">
        <ele>2197.3999023438</ele>
        <time>2023-07-24T13:57:03.000Z</time>
      </trkpt>
      <trkpt lat="42.7038" lon="1.31177">
        <ele>2198.1999511719</ele>
        <time>2023-07-24T13:57:06.000Z</time>
      </trkpt>
      <trkpt lat="42.70379" lon="1.31173">
        <ele>2199</ele>
        <time>2023-07-24T13:57:10.000Z</time>
      </trkpt>
      <trkpt lat="42.70379" lon="1.3117">
        <ele>2199.3999023438</ele>
        <time>2023-07-24T13:57:12.000Z</time>
      </trkpt>
      <trkpt lat="42.70377" lon="1.31165">
        <ele>2199.6000976562</ele>
        <time>2023-07-24T13:57:17.000Z</time>
      </trkpt>
      <trkpt lat="42.70376" lon="1.31157">
        <ele>2199.3999023438</ele>
        <time>2023-07-24T13:57:23.000Z</time>
      </trkpt>
      <trkpt lat="42.70373" lon="1.3115">
        <ele>2199.1999511719</ele>
        <time>2023-07-24T13:57:29.000Z</time>
      </trkpt>
      <trkpt lat="42.70373" lon="1.31146">
        <ele>2200</ele>
        <time>2023-07-24T13:57:35.000Z</time>
      </trkpt>
      <trkpt lat="42.70372" lon="1.31143">
        <ele>2200.8000488281</ele>
        <time>2023-07-24T13:57:38.000Z</time>
      </trkpt>
      <trkpt lat="42.70372" lon="1.31141">
        <ele>2201.8000488281</ele>
        <time>2023-07-24T13:57:40.000Z</time>
      </trkpt>
      <trkpt lat="42.70373" lon="1.31138">
        <ele>2202.8000488281</ele>
        <time>2023-07-24T13:57:43.000Z</time>
      </trkpt>
      <trkpt lat="42.70373" lon="1.31138">
        <ele>2202.8000488281</ele>
        <time>2023-07-24T13:57:44.000Z</time>
      </trkpt>
      <trkpt lat="42.70374" lon="1.31135">
        <ele>2204</ele>
        <time>2023-07-24T13:57:47.000Z</time>
      </trkpt>
      <trkpt lat="42.70375" lon="1.31134">
        <ele>2204</ele>
        <time>2023-07-24T13:57:50.000Z</time>
      </trkpt>
      <trkpt lat="42.70376" lon="1.31134">
        <ele>2202.8000488281</ele>
        <time>2023-07-24T13:57:56.000Z</time>
      </trkpt>
      <trkpt lat="42.70375" lon="1.31133">
        <ele>2202.6000976562</ele>
        <time>2023-07-24T13:57:57.000Z</time>
      </trkpt>
      <trkpt lat="42.70377" lon="1.31133">
        <ele>2201.8000488281</ele>
        <time>2023-07-24T13:58:01.000Z</time>
      </trkpt>
      <trkpt lat="42.70378" lon="1.31133">
        <ele>2201.8000488281</ele>
        <time>2023-07-24T13:58:04.000Z</time>
      </trkpt>
      <trkpt lat="42.70377" lon="1.31133">
        <ele>2201.8000488281</ele>
        <time>2023-07-24T13:58:12.000Z</time>
      </trkpt>
      <trkpt lat="42.70375" lon="1.31134">
        <ele>2202.6000976562</ele>
        <time>2023-07-24T13:58:20.000Z</time>
      </trkpt>
      <trkpt lat="42.70377" lon="1.31129">
        <ele>2202.3999023438</ele>
        <time>2023-07-24T13:58:27.000Z</time>
      </trkpt>
      <trkpt lat="42.70378" lon="1.31126">
        <ele>2203</ele>
        <time>2023-07-24T13:58:29.000Z</time>
      </trkpt>
      <trkpt lat="42.70378" lon="1.31119">
        <ele>2202.6000976562</ele>
        <time>2023-07-24T13:58:36.000Z</time>
      </trkpt>
      <trkpt lat="42.70379" lon="1.31118">
        <ele>2202.8000488281</ele>
        <time>2023-07-24T13:58:43.000Z</time>
      </trkpt>
      <trkpt lat="42.70379" lon="1.31118">
        <ele>2201.8000488281</ele>
        <time>2023-07-24T13:58:48.000Z</time>
      </trkpt>
      <trkpt lat="42.7038" lon="1.31116">
        <ele>2201.8000488281</ele>
        <time>2023-07-24T13:58:50.000Z</time>
      </trkpt>
      <trkpt lat="42.70383" lon="1.31111">
        <ele>2200.6000976562</ele>
        <time>2023-07-24T13:58:58.000Z</time>
      </trkpt>
      <trkpt lat="42.70386" lon="1.31109">
        <ele>2200.6000976562</ele>
        <time>2023-07-24T13:59:05.000Z</time>
      </trkpt>
      <trkpt lat="42.70387" lon="1.31111">
        <ele>2202</ele>
        <time>2023-07-24T13:59:13.000Z</time>
      </trkpt>
      <trkpt lat="42.70387" lon="1.31111">
        <ele>2202.1999511719</ele>
        <time>2023-07-24T13:59:14.000Z</time>
      </trkpt>
      <trkpt lat="42.70389" lon="1.31107">
        <ele>2202.1999511719</ele>
        <time>2023-07-24T13:59:22.000Z</time>
      </trkpt>
      <trkpt lat="42.70392" lon="1.31103">
        <ele>2202.1999511719</ele>
        <time>2023-07-24T13:59:27.000Z</time>
      </trkpt>
      <trkpt lat="42.70395" lon="1.31098">
        <ele>2201.6000976562</ele>
        <time>2023-07-24T13:59:35.000Z</time>
      </trkpt>
      <trkpt lat="42.70395" lon="1.31094">
        <ele>2201</ele>
        <time>2023-07-24T13:59:39.000Z</time>
      </trkpt>
      <trkpt lat="42.70396" lon="1.31091">
        <ele>2200.1999511719</ele>
        <time>2023-07-24T13:59:42.000Z</time>
      </trkpt>
      <trkpt lat="42.70398" lon="1.31088">
        <ele>2199.8000488281</ele>
        <time>2023-07-24T13:59:45.000Z</time>
      </trkpt>
      <trkpt lat="42.704" lon="1.31081">
        <ele>2199.6000976562</ele>
        <time>2023-07-24T13:59:50.000Z</time>
      </trkpt>
      <trkpt lat="42.70403" lon="1.31075">
        <ele>2200.8000488281</ele>
        <time>2023-07-24T13:59:57.000Z</time>
      </trkpt>
      <trkpt lat="42.70404" lon="1.31074">
        <ele>2200.8000488281</ele>
        <time>2023-07-24T13:59:59.000Z</time>
      </trkpt>
      <trkpt lat="42.70406" lon="1.31071">
        <ele>2200.6000976562</ele>
        <time>2023-07-24T14:00:03.000Z</time>
      </trkpt>
      <trkpt lat="42.70409" lon="1.31069">
        <ele>2201</ele>
        <time>2023-07-24T14:00:11.000Z</time>
      </trkpt>
      <trkpt lat="42.70413" lon="1.31067">
        <ele>2200.6000976562</ele>
        <time>2023-07-24T14:00:18.000Z</time>
      </trkpt>
      <trkpt lat="42.70417" lon="1.31061">
        <ele>2201.3999023438</ele>
        <time>2023-07-24T14:00:25.000Z</time>
      </trkpt>
      <trkpt lat="42.70418" lon="1.31056">
        <ele>2201.6000976562</ele>
        <time>2023-07-24T14:00:31.000Z</time>
      </trkpt>
      <trkpt lat="42.7042" lon="1.31051">
        <ele>2201.6000976562</ele>
        <time>2023-07-24T14:00:38.000Z</time>
      </trkpt>
      <trkpt lat="42.70422" lon="1.31049">
        <ele>2201.8000488281</ele>
        <time>2023-07-24T14:00:41.000Z</time>
      </trkpt>
      <trkpt lat="42.70423" lon="1.31046">
        <ele>2202</ele>
        <time>2023-07-24T14:00:44.000Z</time>
      </trkpt>
      <trkpt lat="42.70423" lon="1.31042">
        <ele>2202</ele>
        <time>2023-07-24T14:00:51.000Z</time>
      </trkpt>
      <trkpt lat="42.70422" lon="1.31035">
        <ele>2202</ele>
        <time>2023-07-24T14:00:59.000Z</time>
      </trkpt>
      <trkpt lat="42.70422" lon="1.31026">
        <ele>2202.6000976562</ele>
        <time>2023-07-24T14:01:06.000Z</time>
      </trkpt>
      <trkpt lat="42.70425" lon="1.31021">
        <ele>2202.8000488281</ele>
        <time>2023-07-24T14:01:14.000Z</time>
      </trkpt>
      <trkpt lat="42.70425" lon="1.3102">
        <ele>2202.8000488281</ele>
        <time>2023-07-24T14:01:16.000Z</time>
      </trkpt>
      <trkpt lat="42.70426" lon="1.31018">
        <ele>2203</ele>
        <time>2023-07-24T14:01:19.000Z</time>
      </trkpt>
      <trkpt lat="42.70426" lon="1.31013">
        <ele>2201.8000488281</ele>
        <time>2023-07-24T14:01:24.000Z</time>
      </trkpt>
      <trkpt lat="42.70427" lon="1.3101">
        <ele>2201.3999023438</ele>
        <time>2023-07-24T14:01:27.000Z</time>
      </trkpt>
      <trkpt lat="42.70427" lon="1.31003">
        <ele>2201.1999511719</ele>
        <time>2023-07-24T14:01:33.000Z</time>
      </trkpt>
      <trkpt lat="42.70428" lon="1.30998">
        <ele>2201.8000488281</ele>
        <time>2023-07-24T14:01:38.000Z</time>
      </trkpt>
      <trkpt lat="42.7043" lon="1.30991">
        <ele>2202.1999511719</ele>
        <time>2023-07-24T14:01:46.000Z</time>
      </trkpt>
      <trkpt lat="42.70432" lon="1.30986">
        <ele>2202.6000976562</ele>
        <time>2023-07-24T14:01:52.000Z</time>
      </trkpt>
      <trkpt lat="42.70432" lon="1.30989">
        <ele>2202.8000488281</ele>
        <time>2023-07-24T14:01:55.000Z</time>
      </trkpt>
      <trkpt lat="42.70433" lon="1.30993">
        <ele>2204.1999511719</ele>
        <time>2023-07-24T14:02:00.000Z</time>
      </trkpt>
      <trkpt lat="42.70433" lon="1.30997">
        <ele>2205</ele>
        <time>2023-07-24T14:02:06.000Z</time>
      </trkpt>
      <trkpt lat="42.70433" lon="1.31001">
        <ele>2205.1999511719</ele>
        <time>2023-07-24T14:02:09.000Z</time>
      </trkpt>
      <trkpt lat="42.70435" lon="1.31003">
        <ele>2206</ele>
        <time>2023-07-24T14:02:13.000Z</time>
      </trkpt>
      <trkpt lat="42.70436" lon="1.31003">
        <ele>2206</ele>
        <time>2023-07-24T14:02:15.000Z</time>
      </trkpt>
      <trkpt lat="42.70436" lon="1.31003">
        <ele>2206.1999511719</ele>
        <time>2023-07-24T14:02:16.000Z</time>
      </trkpt>
      <trkpt lat="42.70436" lon="1.31001">
        <ele>2207.1999511719</ele>
        <time>2023-07-24T14:02:21.000Z</time>
      </trkpt>
      <trkpt lat="42.70436" lon="1.31002">
        <ele>2207.1999511719</ele>
        <time>2023-07-24T14:02:22.000Z</time>
      </trkpt>
      <trkpt lat="42.70436" lon="1.31003">
        <ele>2207.1999511719</ele>
        <time>2023-07-24T14:02:28.000Z</time>
      </trkpt>
      <trkpt lat="42.70437" lon="1.31004">
        <ele>2207.3999023438</ele>
        <time>2023-07-24T14:02:30.000Z</time>
      </trkpt>
      <trkpt lat="42.70439" lon="1.31005">
        <ele>2207.6000976562</ele>
        <time>2023-07-24T14:02:35.000Z</time>
      </trkpt>
      <trkpt lat="42.7044" lon="1.31006">
        <ele>2208.3999023438</ele>
        <time>2023-07-24T14:02:40.000Z</time>
      </trkpt>
      <trkpt lat="42.70441" lon="1.31007">
        <ele>2209</ele>
        <time>2023-07-24T14:02:43.000Z</time>
      </trkpt>
      <trkpt lat="42.70442" lon="1.31005">
        <ele>2209.3999023438</ele>
        <time>2023-07-24T14:02:49.000Z</time>
      </trkpt>
      <trkpt lat="42.70442" lon="1.31001">
        <ele>2209.3999023438</ele>
        <time>2023-07-24T14:02:54.000Z</time>
      </trkpt>
      <trkpt lat="42.70443" lon="1.30998">
        <ele>2209.6000976562</ele>
        <time>2023-07-24T14:02:57.000Z</time>
      </trkpt>
      <trkpt lat="42.70444" lon="1.30996">
        <ele>2209.8000488281</ele>
        <time>2023-07-24T14:02:59.000Z</time>
      </trkpt>
      <trkpt lat="42.70442" lon="1.30992">
        <ele>2209.8000488281</ele>
        <time>2023-07-24T14:03:04.000Z</time>
      </trkpt>
      <trkpt lat="42.70442" lon="1.30983">
        <ele>2210.1999511719</ele>
        <time>2023-07-24T14:03:12.000Z</time>
      </trkpt>
      <trkpt lat="42.70443" lon="1.30978">
        <ele>2210.6000976562</ele>
        <time>2023-07-24T14:03:18.000Z</time>
      </trkpt>
      <trkpt lat="42.70443" lon="1.30978">
        <ele>2210.6000976562</ele>
        <time>2023-07-24T14:03:19.000Z</time>
      </trkpt>
      <trkpt lat="42.70444" lon="1.30972">
        <ele>2209.8000488281</ele>
        <time>2023-07-24T14:03:25.000Z</time>
      </trkpt>
      <trkpt lat="42.70443" lon="1.30969">
        <ele>2209.3999023438</ele>
        <time>2023-07-24T14:03:28.000Z</time>
      </trkpt>
      <trkpt lat="42.70443" lon="1.30965">
        <ele>2209.3999023438</ele>
        <time>2023-07-24T14:03:33.000Z</time>
      </trkpt>
      <trkpt lat="42.70443" lon="1.3096">
        <ele>2210</ele>
        <time>2023-07-24T14:03:39.000Z</time>
      </trkpt>
      <trkpt lat="42.70442" lon="1.30951">
        <ele>2210.1999511719</ele>
        <time>2023-07-24T14:03:47.000Z</time>
      </trkpt>
      <trkpt lat="42.70441" lon="1.30948">
        <ele>2210</ele>
        <time>2023-07-24T14:03:52.000Z</time>
      </trkpt>
      <trkpt lat="42.7044" lon="1.30947">
        <ele>2209.1999511719</ele>
        <time>2023-07-24T14:03:58.000Z</time>
      </trkpt>
      <trkpt lat="42.70441" lon="1.30941">
        <ele>2208.6000976562</ele>
        <time>2023-07-24T14:04:05.000Z</time>
      </trkpt>
      <trkpt lat="42.70441" lon="1.3094">
        <ele>2208.3999023438</ele>
        <time>2023-07-24T14:04:06.000Z</time>
      </trkpt>
      <trkpt lat="42.70442" lon="1.30939">
        <ele>2207.8000488281</ele>
        <time>2023-07-24T14:04:13.000Z</time>
      </trkpt>
      <trkpt lat="42.70442" lon="1.30939">
        <ele>2207.6000976562</ele>
        <time>2023-07-24T14:04:20.000Z</time>
      </trkpt>
      <trkpt lat="42.70441" lon="1.30936">
        <ele>2207.3999023438</ele>
        <time>2023-07-24T14:04:24.000Z</time>
      </trkpt>
      <trkpt lat="42.70441" lon="1.30936">
        <ele>2207.1999511719</ele>
        <time>2023-07-24T14:04:25.000Z</time>
      </trkpt>
      <trkpt lat="42.70444" lon="1.30934">
        <ele>2206.1999511719</ele>
        <time>2023-07-24T14:04:32.000Z</time>
      </trkpt>
      <trkpt lat="42.70444" lon="1.30934">
        <ele>2206.1999511719</ele>
        <time>2023-07-24T14:04:33.000Z</time>
      </trkpt>
      <trkpt lat="42.70443" lon="1.30928">
        <ele>2205.3999023438</ele>
        <time>2023-07-24T14:04:40.000Z</time>
      </trkpt>
      <trkpt lat="42.70442" lon="1.30926">
        <ele>2205</ele>
        <time>2023-07-24T14:04:41.000Z</time>
      </trkpt>
      <trkpt lat="42.7044" lon="1.30917">
        <ele>2204.8000488281</ele>
        <time>2023-07-24T14:04:48.000Z</time>
      </trkpt>
      <trkpt lat="42.70439" lon="1.30911">
        <ele>2205.1999511719</ele>
        <time>2023-07-24T14:04:53.000Z</time>
      </trkpt>
      <trkpt lat="42.70435" lon="1.30907">
        <ele>2204.8000488281</ele>
        <time>2023-07-24T14:05:02.000Z</time>
      </trkpt>
      <trkpt lat="42.70432" lon="1.309">
        <ele>2204.8000488281</ele>
        <time>2023-07-24T14:05:09.000Z</time>
      </trkpt>
      <trkpt lat="42.7043" lon="1.30893">
        <ele>2205.6000976562</ele>
        <time>2023-07-24T14:05:15.000Z</time>
      </trkpt>
      <trkpt lat="42.7043" lon="1.30892">
        <ele>2205.6000976562</ele>
        <time>2023-07-24T14:05:16.000Z</time>
      </trkpt>
      <trkpt lat="42.70428" lon="1.30892">
        <ele>2206.1999511719</ele>
        <time>2023-07-24T14:05:22.000Z</time>
      </trkpt>
      <trkpt lat="42.70428" lon="1.30892">
        <ele>2206.1999511719</ele>
        <time>2023-07-24T14:05:23.000Z</time>
      </trkpt>
      <trkpt lat="42.70428" lon="1.30894">
        <ele>2206.1999511719</ele>
        <time>2023-07-24T14:05:30.000Z</time>
      </trkpt>
      <trkpt lat="42.70428" lon="1.30893">
        <ele>2206.8000488281</ele>
        <time>2023-07-24T14:05:37.000Z</time>
      </trkpt>
      <trkpt lat="42.70428" lon="1.30892">
        <ele>2207.1999511719</ele>
        <time>2023-07-24T14:05:44.000Z</time>
      </trkpt>
      <trkpt lat="42.70428" lon="1.30892">
        <ele>2207.1999511719</ele>
        <time>2023-07-24T14:05:45.000Z</time>
      </trkpt>
      <trkpt lat="42.70432" lon="1.30889">
        <ele>2207.3999023438</ele>
        <time>2023-07-24T14:05:52.000Z</time>
      </trkpt>
      <trkpt lat="42.70432" lon="1.30891">
        <ele>2207.6000976562</ele>
        <time>2023-07-24T14:05:58.000Z</time>
      </trkpt>
      <trkpt lat="42.7043" lon="1.30895">
        <ele>2207.8000488281</ele>
        <time>2023-07-24T14:06:05.000Z</time>
      </trkpt>
      <trkpt lat="42.70429" lon="1.30897">
        <ele>2208</ele>
        <time>2023-07-24T14:06:14.000Z</time>
      </trkpt>
      <trkpt lat="42.70432" lon="1.30899">
        <ele>2207.8000488281</ele>
        <time>2023-07-24T14:06:20.000Z</time>
      </trkpt>
      <trkpt lat="42.7043" lon="1.30895">
        <ele>2207.6000976562</ele>
        <time>2023-07-24T14:06:27.000Z</time>
      </trkpt>
      <trkpt lat="42.70429" lon="1.30894">
        <ele>2207.3999023438</ele>
        <time>2023-07-24T14:06:34.000Z</time>
      </trkpt>
      <trkpt lat="42.70424" lon="1.30889">
        <ele>2207.1999511719</ele>
        <time>2023-07-24T14:06:40.000Z</time>
      </trkpt>
      <trkpt lat="42.70413" lon="1.30888">
        <ele>2206.8000488281</ele>
        <time>2023-07-24T14:06:49.000Z</time>
      </trkpt>
      <trkpt lat="42.70406" lon="1.30887">
        <ele>2206.8000488281</ele>
        <time>2023-07-24T14:06:55.000Z</time>
      </trkpt>
      <trkpt lat="42.70401" lon="1.30883">
        <ele>2207.6000976562</ele>
        <time>2023-07-24T14:07:03.000Z</time>
      </trkpt>
      <trkpt lat="42.70399" lon="1.30878">
        <ele>2208</ele>
        <time>2023-07-24T14:07:09.000Z</time>
      </trkpt>
      <trkpt lat="42.70399" lon="1.30877">
        <ele>2208.1999511719</ele>
        <time>2023-07-24T14:07:10.000Z</time>
      </trkpt>
      <trkpt lat="42.70397" lon="1.30874">
        <ele>2209.1999511719</ele>
        <time>2023-07-24T14:07:15.000Z</time>
      </trkpt>
      <trkpt lat="42.70396" lon="1.30874">
        <ele>2209.8000488281</ele>
        <time>2023-07-24T14:07:17.000Z</time>
      </trkpt>
      <trkpt lat="42.70396" lon="1.30872">
        <ele>2210.1999511719</ele>
        <time>2023-07-24T14:07:19.000Z</time>
      </trkpt>
      <trkpt lat="42.70395" lon="1.30868">
        <ele>2211.3999023438</ele>
        <time>2023-07-24T14:07:24.000Z</time>
      </trkpt>
      <trkpt lat="42.70398" lon="1.30866">
        <ele>2212.3999023438</ele>
        <time>2023-07-24T14:07:30.000Z</time>
      </trkpt>
      <trkpt lat="42.70398" lon="1.30866">
        <ele>2212.6000976562</ele>
        <time>2023-07-24T14:07:32.000Z</time>
      </trkpt>
      <trkpt lat="42.70397" lon="1.30866">
        <ele>2213.1999511719</ele>
        <time>2023-07-24T14:07:38.000Z</time>
      </trkpt>
      <trkpt lat="42.70397" lon="1.30864">
        <ele>2213.6000976562</ele>
        <time>2023-07-24T14:07:45.000Z</time>
      </trkpt>
      <trkpt lat="42.70396" lon="1.30861">
        <ele>2214.8000488281</ele>
        <time>2023-07-24T14:07:51.000Z</time>
      </trkpt>
      <trkpt lat="42.70395" lon="1.30858">
        <ele>2215.1999511719</ele>
        <time>2023-07-24T14:07:54.000Z</time>
      </trkpt>
      <trkpt lat="42.70396" lon="1.30858">
        <ele>2215.8000488281</ele>
        <time>2023-07-24T14:07:58.000Z</time>
      </trkpt>
      <trkpt lat="42.70398" lon="1.30859">
        <ele>2216.1999511719</ele>
        <time>2023-07-24T14:08:02.000Z</time>
      </trkpt>
      <trkpt lat="42.704" lon="1.30863">
        <ele>2217</ele>
        <time>2023-07-24T14:08:06.000Z</time>
      </trkpt>
      <trkpt lat="42.70403" lon="1.30865">
        <ele>2217.6000976562</ele>
        <time>2023-07-24T14:08:09.000Z</time>
      </trkpt>
      <trkpt lat="42.70407" lon="1.30867">
        <ele>2218</ele>
        <time>2023-07-24T14:08:14.000Z</time>
      </trkpt>
      <trkpt lat="42.70408" lon="1.30867">
        <ele>2218.1999511719</ele>
        <time>2023-07-24T14:08:16.000Z</time>
      </trkpt>
      <trkpt lat="42.70409" lon="1.30866">
        <ele>2219</ele>
        <time>2023-07-24T14:08:18.000Z</time>
      </trkpt>
      <trkpt lat="42.7041" lon="1.30866">
        <ele>2218.6000976562</ele>
        <time>2023-07-24T14:08:26.000Z</time>
      </trkpt>
      <trkpt lat="42.70408" lon="1.30864">
        <ele>2218.6000976562</ele>
        <time>2023-07-24T14:08:32.000Z</time>
      </trkpt>
      <trkpt lat="42.70406" lon="1.30855">
        <ele>2220.1999511719</ele>
        <time>2023-07-24T14:08:40.000Z</time>
      </trkpt>
      <trkpt lat="42.70405" lon="1.30847">
        <ele>2220.8000488281</ele>
        <time>2023-07-24T14:08:48.000Z</time>
      </trkpt>
      <trkpt lat="42.70404" lon="1.30846">
        <ele>2221.3999023438</ele>
        <time>2023-07-24T14:08:50.000Z</time>
      </trkpt>
      <trkpt lat="42.70403" lon="1.30842">
        <ele>2222.1999511719</ele>
        <time>2023-07-24T14:08:55.000Z</time>
      </trkpt>
      <trkpt lat="42.70403" lon="1.30842">
        <ele>2222.6000976562</ele>
        <time>2023-07-24T14:08:56.000Z</time>
      </trkpt>
      <trkpt lat="42.70401" lon="1.30838">
        <ele>2223</ele>
        <time>2023-07-24T14:09:03.000Z</time>
      </trkpt>
      <trkpt lat="42.704" lon="1.30837">
        <ele>2223.6000976562</ele>
        <time>2023-07-24T14:09:05.000Z</time>
      </trkpt>
      <trkpt lat="42.704" lon="1.30837">
        <ele>2224.8000488281</ele>
        <time>2023-07-24T14:09:07.000Z</time>
      </trkpt>
      <trkpt lat="42.70399" lon="1.30834">
        <ele>2225.8000488281</ele>
        <time>2023-07-24T14:09:11.000Z</time>
      </trkpt>
      <trkpt lat="42.70398" lon="1.3083">
        <ele>2227.3999023438</ele>
        <time>2023-07-24T14:09:16.000Z</time>
      </trkpt>
      <trkpt lat="42.70397" lon="1.30829">
        <ele>2228</ele>
        <time>2023-07-24T14:09:17.000Z</time>
      </trkpt>
      <trkpt lat="42.70398" lon="1.30825">
        <ele>2226.6000976562</ele>
        <time>2023-07-24T14:09:23.000Z</time>
      </trkpt>
      <trkpt lat="42.70398" lon="1.30827">
        <ele>2226.3999023438</ele>
        <time>2023-07-24T14:09:28.000Z</time>
      </trkpt>
      <trkpt lat="42.70399" lon="1.30827">
        <ele>2226.1999511719</ele>
        <time>2023-07-24T14:09:30.000Z</time>
      </trkpt>
      <trkpt lat="42.70399" lon="1.30828">
        <ele>2226</ele>
        <time>2023-07-24T14:09:32.000Z</time>
      </trkpt>
      <trkpt lat="42.70399" lon="1.30829">
        <ele>2225.8000488281</ele>
        <time>2023-07-24T14:09:35.000Z</time>
      </trkpt>
      <trkpt lat="42.70399" lon="1.30828">
        <ele>2225.8000488281</ele>
        <time>2023-07-24T14:09:37.000Z</time>
      </trkpt>
      <trkpt lat="42.70399" lon="1.30826">
        <ele>2225.8000488281</ele>
        <time>2023-07-24T14:09:40.000Z</time>
      </trkpt>
      <trkpt lat="42.70403" lon="1.30819">
        <ele>2225.8000488281</ele>
        <time>2023-07-24T14:09:46.000Z</time>
      </trkpt>
      <trkpt lat="42.70405" lon="1.30813">
        <ele>2227.1999511719</ele>
        <time>2023-07-24T14:09:53.000Z</time>
      </trkpt>
      <trkpt lat="42.70405" lon="1.30813">
        <ele>2227.1999511719</ele>
        <time>2023-07-24T14:09:54.000Z</time>
      </trkpt>
      <trkpt lat="42.70405" lon="1.30804">
        <ele>2228.1999511719</ele>
        <time>2023-07-24T14:10:02.000Z</time>
      </trkpt>
      <trkpt lat="42.70406" lon="1.30797">
        <ele>2229</ele>
        <time>2023-07-24T14:10:10.000Z</time>
      </trkpt>
      <trkpt lat="42.70406" lon="1.30797">
        <ele>2229.1999511719</ele>
        <time>2023-07-24T14:10:12.000Z</time>
      </trkpt>
      <trkpt lat="42.70406" lon="1.30791">
        <ele>2230</ele>
        <time>2023-07-24T14:10:16.000Z</time>
      </trkpt>
      <trkpt lat="42.70405" lon="1.30784">
        <ele>2229.8000488281</ele>
        <time>2023-07-24T14:10:23.000Z</time>
      </trkpt>
      <trkpt lat="42.70406" lon="1.30779">
        <ele>2230.1999511719</ele>
        <time>2023-07-24T14:10:30.000Z</time>
      </trkpt>
      <trkpt lat="42.70406" lon="1.30773">
        <ele>2230.3999023438</ele>
        <time>2023-07-24T14:10:36.000Z</time>
      </trkpt>
      <trkpt lat="42.70406" lon="1.30771">
        <ele>2230.6000976562</ele>
        <time>2023-07-24T14:10:39.000Z</time>
      </trkpt>
      <trkpt lat="42.70406" lon="1.30764">
        <ele>2231.3999023438</ele>
        <time>2023-07-24T14:10:46.000Z</time>
      </trkpt>
      <trkpt lat="42.70406" lon="1.30762">
        <ele>2231.3999023438</ele>
        <time>2023-07-24T14:10:47.000Z</time>
      </trkpt>
      <trkpt lat="42.70403" lon="1.30752">
        <ele>2231.1999511719</ele>
        <time>2023-07-24T14:10:55.000Z</time>
      </trkpt>
      <trkpt lat="42.70402" lon="1.30748">
        <ele>2231.3999023438</ele>
        <time>2023-07-24T14:11:01.000Z</time>
      </trkpt>
      <trkpt lat="42.70405" lon="1.30738">
        <ele>2231.3999023438</ele>
        <time>2023-07-24T14:11:09.000Z</time>
      </trkpt>
      <trkpt lat="42.70407" lon="1.3073">
        <ele>2231.3999023438</ele>
        <time>2023-07-24T14:11:16.000Z</time>
      </trkpt>
      <trkpt lat="42.70405" lon="1.30722">
        <ele>2231.6000976562</ele>
        <time>2023-07-24T14:11:22.000Z</time>
      </trkpt>
      <trkpt lat="42.70405" lon="1.30713">
        <ele>2232</ele>
        <time>2023-07-24T14:11:30.000Z</time>
      </trkpt>
      <trkpt lat="42.70405" lon="1.3071">
        <ele>2232.6000976562</ele>
        <time>2023-07-24T14:11:34.000Z</time>
      </trkpt>
      <trkpt lat="42.70405" lon="1.30706">
        <ele>2233.3999023438</ele>
        <time>2023-07-24T14:11:39.000Z</time>
      </trkpt>
      <trkpt lat="42.70405" lon="1.30705">
        <ele>2233.6000976562</ele>
        <time>2023-07-24T14:11:40.000Z</time>
      </trkpt>
      <trkpt lat="42.70404" lon="1.30696">
        <ele>2234.8000488281</ele>
        <time>2023-07-24T14:11:46.000Z</time>
      </trkpt>
      <trkpt lat="42.70403" lon="1.30683">
        <ele>2235.8000488281</ele>
        <time>2023-07-24T14:11:54.000Z</time>
      </trkpt>
      <trkpt lat="42.70403" lon="1.30682">
        <ele>2235.8000488281</ele>
        <time>2023-07-24T14:11:55.000Z</time>
      </trkpt>
      <trkpt lat="42.704" lon="1.30674">
        <ele>2236</ele>
        <time>2023-07-24T14:12:00.000Z</time>
      </trkpt>
      <trkpt lat="42.70398" lon="1.30667">
        <ele>2236.6000976562</ele>
        <time>2023-07-24T14:12:07.000Z</time>
      </trkpt>
      <trkpt lat="42.70398" lon="1.30666">
        <ele>2236.8000488281</ele>
        <time>2023-07-24T14:12:08.000Z</time>
      </trkpt>
      <trkpt lat="42.70396" lon="1.3066">
        <ele>2237.8000488281</ele>
        <time>2023-07-24T14:12:14.000Z</time>
      </trkpt>
      <trkpt lat="42.70395" lon="1.30658">
        <ele>2238</ele>
        <time>2023-07-24T14:12:15.000Z</time>
      </trkpt>
      <trkpt lat="42.70391" lon="1.3066">
        <ele>2239</ele>
        <time>2023-07-24T14:12:21.000Z</time>
      </trkpt>
      <trkpt lat="42.70391" lon="1.30662">
        <ele>2239.6000976562</ele>
        <time>2023-07-24T14:12:24.000Z</time>
      </trkpt>
      <trkpt lat="42.70392" lon="1.30664">
        <ele>2240.1999511719</ele>
        <time>2023-07-24T14:12:27.000Z</time>
      </trkpt>
      <trkpt lat="42.70393" lon="1.30665">
        <ele>2240.1999511719</ele>
        <time>2023-07-24T14:12:28.000Z</time>
      </trkpt>
      <trkpt lat="42.70393" lon="1.30665">
        <ele>2241.1999511719</ele>
        <time>2023-07-24T14:12:32.000Z</time>
      </trkpt>
      <trkpt lat="42.70393" lon="1.30658">
        <ele>2241.8000488281</ele>
        <time>2023-07-24T14:12:40.000Z</time>
      </trkpt>
      <trkpt lat="42.70392" lon="1.30659">
        <ele>2241.8000488281</ele>
        <time>2023-07-24T14:12:48.000Z</time>
      </trkpt>
      <trkpt lat="42.70393" lon="1.30658">
        <ele>2240.1999511719</ele>
        <time>2023-07-24T14:12:55.000Z</time>
      </trkpt>
      <trkpt lat="42.70393" lon="1.30656">
        <ele>2240</ele>
        <time>2023-07-24T14:12:56.000Z</time>
      </trkpt>
      <trkpt lat="42.70394" lon="1.30655">
        <ele>2239.1999511719</ele>
        <time>2023-07-24T14:12:58.000Z</time>
      </trkpt>
      <trkpt lat="42.70394" lon="1.30652">
        <ele>2239</ele>
        <time>2023-07-24T14:13:03.000Z</time>
      </trkpt>
    </trkseg>
  </trk>
</gpx>